<?xml version="1.0" encoding="UTF-8" standalone="no" ?>
<gpx xmlns="http://www.topografix.com/GPX/1/1" xmlns:xsi="http://www.w3.org/2001/XMLSchema-instance" xsi:schemaLocation="http://www.topografix.com/GPX/1/1 http://www.topografix.com/GPX/1/1/gpx.xsd" version="1.1" creator="VisuGPX - https://www.visugpx.com">
  <metadata>
    <name>29/05/2021</name>
    <desc><![CDATA[boucle au départ de Payolle puis col d'aspin , col de Beyrède puis boucle route forestière et retour]]></desc>
  </metadata>
  <trk>
    <name><![CDATA[29/05/2021_1]]></name>
    <trkseg>
      <trkpt lat="42.9422" lon="0.28497">
        <ele>1096.6</ele>
        <time>2021-05-29T06:19:43Z</time>
      </trkpt>
      <trkpt lat="42.94219" lon="0.28499">
        <ele>1096.8</ele>
        <time>2021-05-29T06:19:47Z</time>
      </trkpt>
      <trkpt lat="42.94217" lon="0.285">
        <ele>1096.8</ele>
        <time>2021-05-29T06:19:48Z</time>
      </trkpt>
      <trkpt lat="42.94216" lon="0.28501">
        <ele>1096.8</ele>
        <time>2021-05-29T06:19:49Z</time>
      </trkpt>
      <trkpt lat="42.94215" lon="0.28502">
        <ele>1097</ele>
        <time>2021-05-29T06:19:50Z</time>
      </trkpt>
      <trkpt lat="42.94213" lon="0.28504">
        <ele>1097</ele>
        <time>2021-05-29T06:19:51Z</time>
      </trkpt>
      <trkpt lat="42.94208" lon="0.28505">
        <ele>1097.2</ele>
        <time>2021-05-29T06:19:54Z</time>
      </trkpt>
      <trkpt lat="42.94206" lon="0.28505">
        <ele>1097.2</ele>
        <time>2021-05-29T06:19:55Z</time>
      </trkpt>
      <trkpt lat="42.94205" lon="0.28506">
        <ele>1097.2</ele>
        <time>2021-05-29T06:19:56Z</time>
      </trkpt>
      <trkpt lat="42.94203" lon="0.28508">
        <ele>1097.4</ele>
        <time>2021-05-29T06:19:57Z</time>
      </trkpt>
      <trkpt lat="42.94201" lon="0.2851">
        <ele>1097.4</ele>
        <time>2021-05-29T06:19:58Z</time>
      </trkpt>
      <trkpt lat="42.942" lon="0.28512">
        <ele>1097.4</ele>
        <time>2021-05-29T06:19:59Z</time>
      </trkpt>
      <trkpt lat="42.94192" lon="0.2852">
        <ele>1097.6</ele>
        <time>2021-05-29T06:20:02Z</time>
      </trkpt>
      <trkpt lat="42.9419" lon="0.28522">
        <ele>1097.8</ele>
        <time>2021-05-29T06:20:03Z</time>
      </trkpt>
      <trkpt lat="42.94183" lon="0.28529">
        <ele>1098.2</ele>
        <time>2021-05-29T06:20:06Z</time>
      </trkpt>
      <trkpt lat="42.9418" lon="0.28532">
        <ele>1098.4</ele>
        <time>2021-05-29T06:20:07Z</time>
      </trkpt>
      <trkpt lat="42.94178" lon="0.28535">
        <ele>1098.6</ele>
        <time>2021-05-29T06:20:08Z</time>
      </trkpt>
      <trkpt lat="42.94172" lon="0.28541">
        <ele>1098.8</ele>
        <time>2021-05-29T06:20:10Z</time>
      </trkpt>
      <trkpt lat="42.94157" lon="0.28558">
        <ele>1099.4</ele>
        <time>2021-05-29T06:20:16Z</time>
      </trkpt>
      <trkpt lat="42.94152" lon="0.28564">
        <ele>1099.6</ele>
        <time>2021-05-29T06:20:18Z</time>
      </trkpt>
      <trkpt lat="42.9415" lon="0.28567">
        <ele>1099.6</ele>
        <time>2021-05-29T06:20:19Z</time>
      </trkpt>
      <trkpt lat="42.9414" lon="0.28577">
        <ele>1100</ele>
        <time>2021-05-29T06:20:23Z</time>
      </trkpt>
      <trkpt lat="42.94135" lon="0.28583">
        <ele>1100</ele>
        <time>2021-05-29T06:20:25Z</time>
      </trkpt>
      <trkpt lat="42.9413" lon="0.28589">
        <ele>1100</ele>
        <time>2021-05-29T06:20:27Z</time>
      </trkpt>
      <trkpt lat="42.94104" lon="0.28622">
        <ele>1100.8</ele>
        <time>2021-05-29T06:20:37Z</time>
      </trkpt>
      <trkpt lat="42.94102" lon="0.28626">
        <ele>1101</ele>
        <time>2021-05-29T06:20:38Z</time>
      </trkpt>
      <trkpt lat="42.94095" lon="0.28637">
        <ele>1101</ele>
        <time>2021-05-29T06:20:41Z</time>
      </trkpt>
      <trkpt lat="42.94093" lon="0.2864">
        <ele>1101.2</ele>
        <time>2021-05-29T06:20:42Z</time>
      </trkpt>
      <trkpt lat="42.94082" lon="0.28659">
        <ele>1101.6</ele>
        <time>2021-05-29T06:20:47Z</time>
      </trkpt>
      <trkpt lat="42.9408" lon="0.28663">
        <ele>1101.6</ele>
        <time>2021-05-29T06:20:48Z</time>
      </trkpt>
      <trkpt lat="42.94077" lon="0.2867">
        <ele>1102</ele>
        <time>2021-05-29T06:20:50Z</time>
      </trkpt>
      <trkpt lat="42.94072" lon="0.28682">
        <ele>1102.4</ele>
        <time>2021-05-29T06:20:53Z</time>
      </trkpt>
      <trkpt lat="42.94066" lon="0.28704">
        <ele>1102.8</ele>
        <time>2021-05-29T06:20:58Z</time>
      </trkpt>
      <trkpt lat="42.94065" lon="0.28709">
        <ele>1103</ele>
        <time>2021-05-29T06:20:59Z</time>
      </trkpt>
      <trkpt lat="42.94063" lon="0.28721">
        <ele>1103.4</ele>
        <time>2021-05-29T06:21:02Z</time>
      </trkpt>
      <trkpt lat="42.94062" lon="0.28726">
        <ele>1103.6</ele>
        <time>2021-05-29T06:21:03Z</time>
      </trkpt>
      <trkpt lat="42.94062" lon="0.28731">
        <ele>1103.6</ele>
        <time>2021-05-29T06:21:04Z</time>
      </trkpt>
      <trkpt lat="42.94061" lon="0.28735">
        <ele>1103.8</ele>
        <time>2021-05-29T06:21:05Z</time>
      </trkpt>
      <trkpt lat="42.9406" lon="0.28739">
        <ele>1104</ele>
        <time>2021-05-29T06:21:06Z</time>
      </trkpt>
      <trkpt lat="42.94059" lon="0.28743">
        <ele>1104</ele>
        <time>2021-05-29T06:21:07Z</time>
      </trkpt>
      <trkpt lat="42.94058" lon="0.28747">
        <ele>1104.2</ele>
        <time>2021-05-29T06:21:08Z</time>
      </trkpt>
      <trkpt lat="42.94057" lon="0.28752">
        <ele>1104.4</ele>
        <time>2021-05-29T06:21:09Z</time>
      </trkpt>
      <trkpt lat="42.94056" lon="0.28756">
        <ele>1104.6</ele>
        <time>2021-05-29T06:21:10Z</time>
      </trkpt>
      <trkpt lat="42.94055" lon="0.2876">
        <ele>1104.8</ele>
        <time>2021-05-29T06:21:11Z</time>
      </trkpt>
      <trkpt lat="42.94054" lon="0.28763">
        <ele>1105</ele>
        <time>2021-05-29T06:21:12Z</time>
      </trkpt>
      <trkpt lat="42.94053" lon="0.28768">
        <ele>1105.2</ele>
        <time>2021-05-29T06:21:13Z</time>
      </trkpt>
      <trkpt lat="42.94051" lon="0.28772">
        <ele>1105.2</ele>
        <time>2021-05-29T06:21:14Z</time>
      </trkpt>
      <trkpt lat="42.9405" lon="0.28775">
        <ele>1105.4</ele>
        <time>2021-05-29T06:21:15Z</time>
      </trkpt>
      <trkpt lat="42.94049" lon="0.28779">
        <ele>1105.6</ele>
        <time>2021-05-29T06:21:16Z</time>
      </trkpt>
      <trkpt lat="42.94048" lon="0.28783">
        <ele>1106</ele>
        <time>2021-05-29T06:21:17Z</time>
      </trkpt>
      <trkpt lat="42.94047" lon="0.28787">
        <ele>1106.2</ele>
        <time>2021-05-29T06:21:18Z</time>
      </trkpt>
      <trkpt lat="42.94046" lon="0.28791">
        <ele>1106.4</ele>
        <time>2021-05-29T06:21:19Z</time>
      </trkpt>
      <trkpt lat="42.94045" lon="0.28795">
        <ele>1106.6</ele>
        <time>2021-05-29T06:21:20Z</time>
      </trkpt>
      <trkpt lat="42.94043" lon="0.28799">
        <ele>1106.8</ele>
        <time>2021-05-29T06:21:21Z</time>
      </trkpt>
      <trkpt lat="42.94042" lon="0.28802">
        <ele>1106.8</ele>
        <time>2021-05-29T06:21:22Z</time>
      </trkpt>
      <trkpt lat="42.94041" lon="0.28806">
        <ele>1107.2</ele>
        <time>2021-05-29T06:21:23Z</time>
      </trkpt>
      <trkpt lat="42.94039" lon="0.2881">
        <ele>1107.4</ele>
        <time>2021-05-29T06:21:24Z</time>
      </trkpt>
      <trkpt lat="42.94038" lon="0.28813">
        <ele>1107.4</ele>
        <time>2021-05-29T06:21:25Z</time>
      </trkpt>
      <trkpt lat="42.94037" lon="0.28817">
        <ele>1107.4</ele>
        <time>2021-05-29T06:21:26Z</time>
      </trkpt>
      <trkpt lat="42.94035" lon="0.2882">
        <ele>1107.8</ele>
        <time>2021-05-29T06:21:27Z</time>
      </trkpt>
      <trkpt lat="42.94033" lon="0.28824">
        <ele>1108</ele>
        <time>2021-05-29T06:21:28Z</time>
      </trkpt>
      <trkpt lat="42.94032" lon="0.28827">
        <ele>1108.2</ele>
        <time>2021-05-29T06:21:29Z</time>
      </trkpt>
      <trkpt lat="42.94031" lon="0.28831">
        <ele>1108.4</ele>
        <time>2021-05-29T06:21:30Z</time>
      </trkpt>
      <trkpt lat="42.94029" lon="0.28834">
        <ele>1108.4</ele>
        <time>2021-05-29T06:21:31Z</time>
      </trkpt>
      <trkpt lat="42.94028" lon="0.28838">
        <ele>1108.8</ele>
        <time>2021-05-29T06:21:32Z</time>
      </trkpt>
      <trkpt lat="42.94027" lon="0.28842">
        <ele>1108.8</ele>
        <time>2021-05-29T06:21:33Z</time>
      </trkpt>
      <trkpt lat="42.94026" lon="0.28846">
        <ele>1109.2</ele>
        <time>2021-05-29T06:21:34Z</time>
      </trkpt>
      <trkpt lat="42.94025" lon="0.2885">
        <ele>1109.2</ele>
        <time>2021-05-29T06:21:35Z</time>
      </trkpt>
      <trkpt lat="42.94024" lon="0.28854">
        <ele>1109.4</ele>
        <time>2021-05-29T06:21:36Z</time>
      </trkpt>
      <trkpt lat="42.94023" lon="0.28858">
        <ele>1109.4</ele>
        <time>2021-05-29T06:21:37Z</time>
      </trkpt>
      <trkpt lat="42.94022" lon="0.28862">
        <ele>1109.6</ele>
        <time>2021-05-29T06:21:38Z</time>
      </trkpt>
      <trkpt lat="42.94021" lon="0.28866">
        <ele>1109.6</ele>
        <time>2021-05-29T06:21:39Z</time>
      </trkpt>
      <trkpt lat="42.9402" lon="0.2887">
        <ele>1109.8</ele>
        <time>2021-05-29T06:21:40Z</time>
      </trkpt>
      <trkpt lat="42.94019" lon="0.28874">
        <ele>1110.2</ele>
        <time>2021-05-29T06:21:41Z</time>
      </trkpt>
      <trkpt lat="42.94018" lon="0.28879">
        <ele>1110.2</ele>
        <time>2021-05-29T06:21:42Z</time>
      </trkpt>
      <trkpt lat="42.94016" lon="0.28883">
        <ele>1110.4</ele>
        <time>2021-05-29T06:21:43Z</time>
      </trkpt>
      <trkpt lat="42.94016" lon="0.28888">
        <ele>1110.6</ele>
        <time>2021-05-29T06:21:44Z</time>
      </trkpt>
      <trkpt lat="42.94015" lon="0.28893">
        <ele>1110.8</ele>
        <time>2021-05-29T06:21:45Z</time>
      </trkpt>
      <trkpt lat="42.94014" lon="0.28898">
        <ele>1110.8</ele>
        <time>2021-05-29T06:21:46Z</time>
      </trkpt>
      <trkpt lat="42.94014" lon="0.28903">
        <ele>1111.2</ele>
        <time>2021-05-29T06:21:47Z</time>
      </trkpt>
      <trkpt lat="42.94013" lon="0.28907">
        <ele>1111.4</ele>
        <time>2021-05-29T06:21:48Z</time>
      </trkpt>
      <trkpt lat="42.94012" lon="0.28911">
        <ele>1111.4</ele>
        <time>2021-05-29T06:21:49Z</time>
      </trkpt>
      <trkpt lat="42.94012" lon="0.28916">
        <ele>1111.6</ele>
        <time>2021-05-29T06:21:50Z</time>
      </trkpt>
      <trkpt lat="42.94011" lon="0.28921">
        <ele>1111.6</ele>
        <time>2021-05-29T06:21:51Z</time>
      </trkpt>
      <trkpt lat="42.94011" lon="0.28925">
        <ele>1111.8</ele>
        <time>2021-05-29T06:21:52Z</time>
      </trkpt>
      <trkpt lat="42.9401" lon="0.28929">
        <ele>1111.8</ele>
        <time>2021-05-29T06:21:53Z</time>
      </trkpt>
      <trkpt lat="42.9401" lon="0.28934">
        <ele>1112</ele>
        <time>2021-05-29T06:21:54Z</time>
      </trkpt>
      <trkpt lat="42.94009" lon="0.28938">
        <ele>1112</ele>
        <time>2021-05-29T06:21:55Z</time>
      </trkpt>
      <trkpt lat="42.94009" lon="0.28942">
        <ele>1112.2</ele>
        <time>2021-05-29T06:21:56Z</time>
      </trkpt>
      <trkpt lat="42.94008" lon="0.28946">
        <ele>1112.2</ele>
        <time>2021-05-29T06:21:57Z</time>
      </trkpt>
      <trkpt lat="42.94007" lon="0.2895">
        <ele>1112.2</ele>
        <time>2021-05-29T06:21:58Z</time>
      </trkpt>
      <trkpt lat="42.94007" lon="0.28955">
        <ele>1112.4</ele>
        <time>2021-05-29T06:21:59Z</time>
      </trkpt>
      <trkpt lat="42.94007" lon="0.2896">
        <ele>1112.6</ele>
        <time>2021-05-29T06:22:00Z</time>
      </trkpt>
      <trkpt lat="42.94008" lon="0.28965">
        <ele>1112.6</ele>
        <time>2021-05-29T06:22:01Z</time>
      </trkpt>
      <trkpt lat="42.94008" lon="0.28969">
        <ele>1112.8</ele>
        <time>2021-05-29T06:22:02Z</time>
      </trkpt>
      <trkpt lat="42.94008" lon="0.28974">
        <ele>1112.8</ele>
        <time>2021-05-29T06:22:03Z</time>
      </trkpt>
      <trkpt lat="42.94007" lon="0.28978">
        <ele>1113</ele>
        <time>2021-05-29T06:22:04Z</time>
      </trkpt>
      <trkpt lat="42.94007" lon="0.28983">
        <ele>1113</ele>
        <time>2021-05-29T06:22:05Z</time>
      </trkpt>
      <trkpt lat="42.94008" lon="0.28987">
        <ele>1113.2</ele>
        <time>2021-05-29T06:22:06Z</time>
      </trkpt>
      <trkpt lat="42.94008" lon="0.28992">
        <ele>1113.4</ele>
        <time>2021-05-29T06:22:07Z</time>
      </trkpt>
      <trkpt lat="42.94008" lon="0.28997">
        <ele>1113.6</ele>
        <time>2021-05-29T06:22:08Z</time>
      </trkpt>
      <trkpt lat="42.94008" lon="0.29002">
        <ele>1113.8</ele>
        <time>2021-05-29T06:22:09Z</time>
      </trkpt>
      <trkpt lat="42.94008" lon="0.29007">
        <ele>1113.8</ele>
        <time>2021-05-29T06:22:10Z</time>
      </trkpt>
      <trkpt lat="42.94007" lon="0.29011">
        <ele>1114</ele>
        <time>2021-05-29T06:22:11Z</time>
      </trkpt>
      <trkpt lat="42.94007" lon="0.29016">
        <ele>1114.2</ele>
        <time>2021-05-29T06:22:12Z</time>
      </trkpt>
      <trkpt lat="42.94007" lon="0.29021">
        <ele>1114.2</ele>
        <time>2021-05-29T06:22:13Z</time>
      </trkpt>
      <trkpt lat="42.94007" lon="0.29025">
        <ele>1114.4</ele>
        <time>2021-05-29T06:22:14Z</time>
      </trkpt>
      <trkpt lat="42.94007" lon="0.2903">
        <ele>1114.4</ele>
        <time>2021-05-29T06:22:15Z</time>
      </trkpt>
      <trkpt lat="42.94006" lon="0.29034">
        <ele>1114.4</ele>
        <time>2021-05-29T06:22:16Z</time>
      </trkpt>
      <trkpt lat="42.94006" lon="0.29038">
        <ele>1114.6</ele>
        <time>2021-05-29T06:22:17Z</time>
      </trkpt>
      <trkpt lat="42.94006" lon="0.29043">
        <ele>1114.6</ele>
        <time>2021-05-29T06:22:18Z</time>
      </trkpt>
      <trkpt lat="42.94006" lon="0.29047">
        <ele>1114.8</ele>
        <time>2021-05-29T06:22:19Z</time>
      </trkpt>
      <trkpt lat="42.94005" lon="0.29051">
        <ele>1114.8</ele>
        <time>2021-05-29T06:22:20Z</time>
      </trkpt>
      <trkpt lat="42.94004" lon="0.29055">
        <ele>1115</ele>
        <time>2021-05-29T06:22:21Z</time>
      </trkpt>
      <trkpt lat="42.94003" lon="0.29059">
        <ele>1115</ele>
        <time>2021-05-29T06:22:22Z</time>
      </trkpt>
      <trkpt lat="42.94001" lon="0.29063">
        <ele>1115.2</ele>
        <time>2021-05-29T06:22:23Z</time>
      </trkpt>
      <trkpt lat="42.94" lon="0.29068">
        <ele>1115.2</ele>
        <time>2021-05-29T06:22:24Z</time>
      </trkpt>
      <trkpt lat="42.93998" lon="0.29071">
        <ele>1115.2</ele>
        <time>2021-05-29T06:22:25Z</time>
      </trkpt>
      <trkpt lat="42.93995" lon="0.29075">
        <ele>1115.4</ele>
        <time>2021-05-29T06:22:26Z</time>
      </trkpt>
      <trkpt lat="42.93993" lon="0.29079">
        <ele>1115.6</ele>
        <time>2021-05-29T06:22:27Z</time>
      </trkpt>
      <trkpt lat="42.93991" lon="0.29083">
        <ele>1115.8</ele>
        <time>2021-05-29T06:22:28Z</time>
      </trkpt>
      <trkpt lat="42.93989" lon="0.29087">
        <ele>1116</ele>
        <time>2021-05-29T06:22:29Z</time>
      </trkpt>
      <trkpt lat="42.93986" lon="0.29091">
        <ele>1116</ele>
        <time>2021-05-29T06:22:30Z</time>
      </trkpt>
      <trkpt lat="42.93984" lon="0.29094">
        <ele>1116</ele>
        <time>2021-05-29T06:22:31Z</time>
      </trkpt>
      <trkpt lat="42.93982" lon="0.29097">
        <ele>1116.2</ele>
        <time>2021-05-29T06:22:32Z</time>
      </trkpt>
      <trkpt lat="42.93979" lon="0.29101">
        <ele>1116.2</ele>
        <time>2021-05-29T06:22:33Z</time>
      </trkpt>
      <trkpt lat="42.93976" lon="0.29104">
        <ele>1116.2</ele>
        <time>2021-05-29T06:22:34Z</time>
      </trkpt>
      <trkpt lat="42.93973" lon="0.29107">
        <ele>1116.4</ele>
        <time>2021-05-29T06:22:35Z</time>
      </trkpt>
      <trkpt lat="42.9397" lon="0.2911">
        <ele>1116.4</ele>
        <time>2021-05-29T06:22:36Z</time>
      </trkpt>
      <trkpt lat="42.93967" lon="0.29113">
        <ele>1116.6</ele>
        <time>2021-05-29T06:22:37Z</time>
      </trkpt>
      <trkpt lat="42.93964" lon="0.29116">
        <ele>1116.8</ele>
        <time>2021-05-29T06:22:38Z</time>
      </trkpt>
      <trkpt lat="42.93961" lon="0.29118">
        <ele>1116.8</ele>
        <time>2021-05-29T06:22:39Z</time>
      </trkpt>
      <trkpt lat="42.93958" lon="0.2912">
        <ele>1117</ele>
        <time>2021-05-29T06:22:40Z</time>
      </trkpt>
      <trkpt lat="42.93954" lon="0.29122">
        <ele>1117</ele>
        <time>2021-05-29T06:22:41Z</time>
      </trkpt>
      <trkpt lat="42.93951" lon="0.29124">
        <ele>1117.2</ele>
        <time>2021-05-29T06:22:42Z</time>
      </trkpt>
      <trkpt lat="42.93947" lon="0.29125">
        <ele>1117.2</ele>
        <time>2021-05-29T06:22:43Z</time>
      </trkpt>
      <trkpt lat="42.93944" lon="0.29126">
        <ele>1117.2</ele>
        <time>2021-05-29T06:22:44Z</time>
      </trkpt>
      <trkpt lat="42.9394" lon="0.29126">
        <ele>1117.4</ele>
        <time>2021-05-29T06:22:45Z</time>
      </trkpt>
      <trkpt lat="42.93936" lon="0.29127">
        <ele>1117.4</ele>
        <time>2021-05-29T06:22:46Z</time>
      </trkpt>
      <trkpt lat="42.93931" lon="0.29127">
        <ele>1117.4</ele>
        <time>2021-05-29T06:22:47Z</time>
      </trkpt>
      <trkpt lat="42.93926" lon="0.29127">
        <ele>1117.4</ele>
        <time>2021-05-29T06:22:48Z</time>
      </trkpt>
      <trkpt lat="42.93922" lon="0.29127">
        <ele>1117.4</ele>
        <time>2021-05-29T06:22:49Z</time>
      </trkpt>
      <trkpt lat="42.93917" lon="0.29128">
        <ele>1117.4</ele>
        <time>2021-05-29T06:22:50Z</time>
      </trkpt>
      <trkpt lat="42.93912" lon="0.29128">
        <ele>1117.4</ele>
        <time>2021-05-29T06:22:51Z</time>
      </trkpt>
      <trkpt lat="42.93906" lon="0.29128">
        <ele>1117.2</ele>
        <time>2021-05-29T06:22:52Z</time>
      </trkpt>
      <trkpt lat="42.9389" lon="0.29129">
        <ele>1116.8</ele>
        <time>2021-05-29T06:22:55Z</time>
      </trkpt>
      <trkpt lat="42.93877" lon="0.29128">
        <ele>1116.6</ele>
        <time>2021-05-29T06:22:57Z</time>
      </trkpt>
      <trkpt lat="42.93865" lon="0.29125">
        <ele>1116.2</ele>
        <time>2021-05-29T06:22:59Z</time>
      </trkpt>
      <trkpt lat="42.93859" lon="0.29123">
        <ele>1116</ele>
        <time>2021-05-29T06:23:00Z</time>
      </trkpt>
      <trkpt lat="42.93842" lon="0.29119">
        <ele>1115.6</ele>
        <time>2021-05-29T06:23:03Z</time>
      </trkpt>
      <trkpt lat="42.93832" lon="0.29122">
        <ele>1115.4</ele>
        <time>2021-05-29T06:23:05Z</time>
      </trkpt>
      <trkpt lat="42.93828" lon="0.29126">
        <ele>1115</ele>
        <time>2021-05-29T06:23:06Z</time>
      </trkpt>
      <trkpt lat="42.93825" lon="0.29129">
        <ele>1115</ele>
        <time>2021-05-29T06:23:07Z</time>
      </trkpt>
      <trkpt lat="42.93822" lon="0.29133">
        <ele>1115</ele>
        <time>2021-05-29T06:23:08Z</time>
      </trkpt>
      <trkpt lat="42.9382" lon="0.29137">
        <ele>1115</ele>
        <time>2021-05-29T06:23:09Z</time>
      </trkpt>
      <trkpt lat="42.93818" lon="0.2914">
        <ele>1115</ele>
        <time>2021-05-29T06:23:10Z</time>
      </trkpt>
      <trkpt lat="42.93816" lon="0.29144">
        <ele>1115</ele>
        <time>2021-05-29T06:23:11Z</time>
      </trkpt>
      <trkpt lat="42.93814" lon="0.29148">
        <ele>1115</ele>
        <time>2021-05-29T06:23:12Z</time>
      </trkpt>
      <trkpt lat="42.93813" lon="0.29151">
        <ele>1115.2</ele>
        <time>2021-05-29T06:23:13Z</time>
      </trkpt>
      <trkpt lat="42.93807" lon="0.29157">
        <ele>1115.8</ele>
        <time>2021-05-29T06:23:15Z</time>
      </trkpt>
      <trkpt lat="42.93803" lon="0.29162">
        <ele>1116.2</ele>
        <time>2021-05-29T06:23:17Z</time>
      </trkpt>
      <trkpt lat="42.93801" lon="0.29165">
        <ele>1116.2</ele>
        <time>2021-05-29T06:23:18Z</time>
      </trkpt>
      <trkpt lat="42.93798" lon="0.29168">
        <ele>1116.6</ele>
        <time>2021-05-29T06:23:19Z</time>
      </trkpt>
      <trkpt lat="42.93796" lon="0.2917">
        <ele>1117</ele>
        <time>2021-05-29T06:23:20Z</time>
      </trkpt>
      <trkpt lat="42.93793" lon="0.29172">
        <ele>1117</ele>
        <time>2021-05-29T06:23:21Z</time>
      </trkpt>
      <trkpt lat="42.93791" lon="0.29175">
        <ele>1117.2</ele>
        <time>2021-05-29T06:23:22Z</time>
      </trkpt>
      <trkpt lat="42.93785" lon="0.2918">
        <ele>1117.8</ele>
        <time>2021-05-29T06:23:24Z</time>
      </trkpt>
      <trkpt lat="42.9378" lon="0.29184">
        <ele>1118.2</ele>
        <time>2021-05-29T06:23:26Z</time>
      </trkpt>
      <trkpt lat="42.93777" lon="0.29186">
        <ele>1118.2</ele>
        <time>2021-05-29T06:23:27Z</time>
      </trkpt>
      <trkpt lat="42.93772" lon="0.29191">
        <ele>1118.8</ele>
        <time>2021-05-29T06:23:29Z</time>
      </trkpt>
      <trkpt lat="42.9377" lon="0.29193">
        <ele>1119</ele>
        <time>2021-05-29T06:23:30Z</time>
      </trkpt>
      <trkpt lat="42.93767" lon="0.29196">
        <ele>1119.2</ele>
        <time>2021-05-29T06:23:31Z</time>
      </trkpt>
      <trkpt lat="42.93765" lon="0.29198">
        <ele>1119.4</ele>
        <time>2021-05-29T06:23:32Z</time>
      </trkpt>
      <trkpt lat="42.93763" lon="0.292">
        <ele>1119.4</ele>
        <time>2021-05-29T06:23:33Z</time>
      </trkpt>
      <trkpt lat="42.9376" lon="0.29203">
        <ele>1119.8</ele>
        <time>2021-05-29T06:23:34Z</time>
      </trkpt>
      <trkpt lat="42.93758" lon="0.29205">
        <ele>1120</ele>
        <time>2021-05-29T06:23:35Z</time>
      </trkpt>
      <trkpt lat="42.93756" lon="0.29208">
        <ele>1120.2</ele>
        <time>2021-05-29T06:23:36Z</time>
      </trkpt>
      <trkpt lat="42.93754" lon="0.29211">
        <ele>1120.6</ele>
        <time>2021-05-29T06:23:37Z</time>
      </trkpt>
      <trkpt lat="42.93752" lon="0.29214">
        <ele>1120.8</ele>
        <time>2021-05-29T06:23:38Z</time>
      </trkpt>
      <trkpt lat="42.93749" lon="0.29216">
        <ele>1121</ele>
        <time>2021-05-29T06:23:39Z</time>
      </trkpt>
      <trkpt lat="42.93747" lon="0.29219">
        <ele>1121</ele>
        <time>2021-05-29T06:23:40Z</time>
      </trkpt>
      <trkpt lat="42.93745" lon="0.29222">
        <ele>1121.2</ele>
        <time>2021-05-29T06:23:41Z</time>
      </trkpt>
      <trkpt lat="42.93743" lon="0.29225">
        <ele>1121.2</ele>
        <time>2021-05-29T06:23:42Z</time>
      </trkpt>
      <trkpt lat="42.9374" lon="0.29228">
        <ele>1121.4</ele>
        <time>2021-05-29T06:23:43Z</time>
      </trkpt>
      <trkpt lat="42.93738" lon="0.2923">
        <ele>1121.6</ele>
        <time>2021-05-29T06:23:44Z</time>
      </trkpt>
      <trkpt lat="42.93735" lon="0.29232">
        <ele>1121.8</ele>
        <time>2021-05-29T06:23:45Z</time>
      </trkpt>
      <trkpt lat="42.93732" lon="0.29235">
        <ele>1122</ele>
        <time>2021-05-29T06:23:46Z</time>
      </trkpt>
      <trkpt lat="42.9373" lon="0.29237">
        <ele>1122.2</ele>
        <time>2021-05-29T06:23:47Z</time>
      </trkpt>
      <trkpt lat="42.93727" lon="0.29239">
        <ele>1122.2</ele>
        <time>2021-05-29T06:23:48Z</time>
      </trkpt>
      <trkpt lat="42.93724" lon="0.29241">
        <ele>1122.4</ele>
        <time>2021-05-29T06:23:49Z</time>
      </trkpt>
      <trkpt lat="42.93721" lon="0.29242">
        <ele>1122.4</ele>
        <time>2021-05-29T06:23:50Z</time>
      </trkpt>
      <trkpt lat="42.93718" lon="0.29243">
        <ele>1122.6</ele>
        <time>2021-05-29T06:23:51Z</time>
      </trkpt>
      <trkpt lat="42.93715" lon="0.29245">
        <ele>1122.8</ele>
        <time>2021-05-29T06:23:52Z</time>
      </trkpt>
      <trkpt lat="42.93713" lon="0.29246">
        <ele>1122.8</ele>
        <time>2021-05-29T06:23:53Z</time>
      </trkpt>
      <trkpt lat="42.93711" lon="0.29247">
        <ele>1123</ele>
        <time>2021-05-29T06:23:54Z</time>
      </trkpt>
      <trkpt lat="42.93708" lon="0.29247">
        <ele>1123.2</ele>
        <time>2021-05-29T06:23:55Z</time>
      </trkpt>
      <trkpt lat="42.93704" lon="0.29248">
        <ele>1123.2</ele>
        <time>2021-05-29T06:23:56Z</time>
      </trkpt>
      <trkpt lat="42.93701" lon="0.29248">
        <ele>1123.4</ele>
        <time>2021-05-29T06:23:57Z</time>
      </trkpt>
      <trkpt lat="42.93698" lon="0.29249">
        <ele>1123.6</ele>
        <time>2021-05-29T06:23:58Z</time>
      </trkpt>
      <trkpt lat="42.93694" lon="0.29249">
        <ele>1123.6</ele>
        <time>2021-05-29T06:23:59Z</time>
      </trkpt>
      <trkpt lat="42.93691" lon="0.29249">
        <ele>1123.8</ele>
        <time>2021-05-29T06:24:00Z</time>
      </trkpt>
      <trkpt lat="42.93688" lon="0.29249">
        <ele>1123.8</ele>
        <time>2021-05-29T06:24:01Z</time>
      </trkpt>
      <trkpt lat="42.93684" lon="0.29248">
        <ele>1124</ele>
        <time>2021-05-29T06:24:02Z</time>
      </trkpt>
      <trkpt lat="42.93681" lon="0.29246">
        <ele>1124</ele>
        <time>2021-05-29T06:24:03Z</time>
      </trkpt>
      <trkpt lat="42.93677" lon="0.29244">
        <ele>1124.2</ele>
        <time>2021-05-29T06:24:04Z</time>
      </trkpt>
      <trkpt lat="42.93673" lon="0.29242">
        <ele>1124.4</ele>
        <time>2021-05-29T06:24:05Z</time>
      </trkpt>
      <trkpt lat="42.9367" lon="0.29241">
        <ele>1124.4</ele>
        <time>2021-05-29T06:24:06Z</time>
      </trkpt>
      <trkpt lat="42.93667" lon="0.29238">
        <ele>1124.6</ele>
        <time>2021-05-29T06:24:07Z</time>
      </trkpt>
      <trkpt lat="42.93663" lon="0.29236">
        <ele>1124.6</ele>
        <time>2021-05-29T06:24:08Z</time>
      </trkpt>
      <trkpt lat="42.9366" lon="0.29233">
        <ele>1124.8</ele>
        <time>2021-05-29T06:24:09Z</time>
      </trkpt>
      <trkpt lat="42.93657" lon="0.29231">
        <ele>1124.8</ele>
        <time>2021-05-29T06:24:10Z</time>
      </trkpt>
      <trkpt lat="42.93654" lon="0.29228">
        <ele>1125</ele>
        <time>2021-05-29T06:24:11Z</time>
      </trkpt>
      <trkpt lat="42.93651" lon="0.29225">
        <ele>1125</ele>
        <time>2021-05-29T06:24:12Z</time>
      </trkpt>
      <trkpt lat="42.93647" lon="0.29222">
        <ele>1125</ele>
        <time>2021-05-29T06:24:13Z</time>
      </trkpt>
      <trkpt lat="42.93644" lon="0.29219">
        <ele>1125.2</ele>
        <time>2021-05-29T06:24:14Z</time>
      </trkpt>
      <trkpt lat="42.93641" lon="0.29217">
        <ele>1125.2</ele>
        <time>2021-05-29T06:24:15Z</time>
      </trkpt>
      <trkpt lat="42.93638" lon="0.29214">
        <ele>1125.2</ele>
        <time>2021-05-29T06:24:16Z</time>
      </trkpt>
      <trkpt lat="42.93635" lon="0.29211">
        <ele>1125.2</ele>
        <time>2021-05-29T06:24:17Z</time>
      </trkpt>
      <trkpt lat="42.93633" lon="0.29209">
        <ele>1125.4</ele>
        <time>2021-05-29T06:24:18Z</time>
      </trkpt>
      <trkpt lat="42.9363" lon="0.29206">
        <ele>1125.4</ele>
        <time>2021-05-29T06:24:19Z</time>
      </trkpt>
      <trkpt lat="42.93627" lon="0.29204">
        <ele>1125.6</ele>
        <time>2021-05-29T06:24:20Z</time>
      </trkpt>
      <trkpt lat="42.93624" lon="0.29202">
        <ele>1125.6</ele>
        <time>2021-05-29T06:24:21Z</time>
      </trkpt>
      <trkpt lat="42.93622" lon="0.292">
        <ele>1125.8</ele>
        <time>2021-05-29T06:24:22Z</time>
      </trkpt>
      <trkpt lat="42.93619" lon="0.29197">
        <ele>1125.8</ele>
        <time>2021-05-29T06:24:23Z</time>
      </trkpt>
      <trkpt lat="42.93616" lon="0.29195">
        <ele>1126</ele>
        <time>2021-05-29T06:24:24Z</time>
      </trkpt>
      <trkpt lat="42.93613" lon="0.29193">
        <ele>1126.2</ele>
        <time>2021-05-29T06:24:25Z</time>
      </trkpt>
      <trkpt lat="42.93611" lon="0.2919">
        <ele>1126.4</ele>
        <time>2021-05-29T06:24:26Z</time>
      </trkpt>
      <trkpt lat="42.93605" lon="0.29185">
        <ele>1126.8</ele>
        <time>2021-05-29T06:24:28Z</time>
      </trkpt>
      <trkpt lat="42.93602" lon="0.29183">
        <ele>1126.8</ele>
        <time>2021-05-29T06:24:29Z</time>
      </trkpt>
      <trkpt lat="42.936" lon="0.2918">
        <ele>1127.2</ele>
        <time>2021-05-29T06:24:30Z</time>
      </trkpt>
      <trkpt lat="42.93597" lon="0.29178">
        <ele>1127.2</ele>
        <time>2021-05-29T06:24:31Z</time>
      </trkpt>
      <trkpt lat="42.93594" lon="0.29175">
        <ele>1127.4</ele>
        <time>2021-05-29T06:24:32Z</time>
      </trkpt>
      <trkpt lat="42.93592" lon="0.29173">
        <ele>1127.6</ele>
        <time>2021-05-29T06:24:33Z</time>
      </trkpt>
      <trkpt lat="42.93589" lon="0.2917">
        <ele>1127.8</ele>
        <time>2021-05-29T06:24:34Z</time>
      </trkpt>
      <trkpt lat="42.93586" lon="0.29168">
        <ele>1127.8</ele>
        <time>2021-05-29T06:24:35Z</time>
      </trkpt>
      <trkpt lat="42.93583" lon="0.29166">
        <ele>1128</ele>
        <time>2021-05-29T06:24:36Z</time>
      </trkpt>
      <trkpt lat="42.93581" lon="0.29163">
        <ele>1128</ele>
        <time>2021-05-29T06:24:37Z</time>
      </trkpt>
      <trkpt lat="42.93578" lon="0.29161">
        <ele>1128.2</ele>
        <time>2021-05-29T06:24:38Z</time>
      </trkpt>
      <trkpt lat="42.93575" lon="0.29158">
        <ele>1128.2</ele>
        <time>2021-05-29T06:24:39Z</time>
      </trkpt>
      <trkpt lat="42.93572" lon="0.29155">
        <ele>1128.2</ele>
        <time>2021-05-29T06:24:40Z</time>
      </trkpt>
      <trkpt lat="42.93569" lon="0.29153">
        <ele>1128.4</ele>
        <time>2021-05-29T06:24:41Z</time>
      </trkpt>
      <trkpt lat="42.93566" lon="0.2915">
        <ele>1128.4</ele>
        <time>2021-05-29T06:24:42Z</time>
      </trkpt>
      <trkpt lat="42.93563" lon="0.29148">
        <ele>1128.6</ele>
        <time>2021-05-29T06:24:43Z</time>
      </trkpt>
      <trkpt lat="42.9356" lon="0.29145">
        <ele>1128.6</ele>
        <time>2021-05-29T06:24:44Z</time>
      </trkpt>
      <trkpt lat="42.93557" lon="0.29143">
        <ele>1128.8</ele>
        <time>2021-05-29T06:24:45Z</time>
      </trkpt>
      <trkpt lat="42.93554" lon="0.2914">
        <ele>1128.8</ele>
        <time>2021-05-29T06:24:46Z</time>
      </trkpt>
      <trkpt lat="42.93551" lon="0.29138">
        <ele>1128.8</ele>
        <time>2021-05-29T06:24:47Z</time>
      </trkpt>
      <trkpt lat="42.93548" lon="0.29136">
        <ele>1129</ele>
        <time>2021-05-29T06:24:48Z</time>
      </trkpt>
      <trkpt lat="42.93545" lon="0.29133">
        <ele>1129</ele>
        <time>2021-05-29T06:24:49Z</time>
      </trkpt>
      <trkpt lat="42.93543" lon="0.29131">
        <ele>1129.2</ele>
        <time>2021-05-29T06:24:50Z</time>
      </trkpt>
      <trkpt lat="42.9354" lon="0.29129">
        <ele>1129.2</ele>
        <time>2021-05-29T06:24:51Z</time>
      </trkpt>
      <trkpt lat="42.93537" lon="0.29126">
        <ele>1129.4</ele>
        <time>2021-05-29T06:24:52Z</time>
      </trkpt>
      <trkpt lat="42.93534" lon="0.29123">
        <ele>1129.4</ele>
        <time>2021-05-29T06:24:53Z</time>
      </trkpt>
      <trkpt lat="42.93531" lon="0.29121">
        <ele>1129.6</ele>
        <time>2021-05-29T06:24:54Z</time>
      </trkpt>
      <trkpt lat="42.93527" lon="0.29119">
        <ele>1129.6</ele>
        <time>2021-05-29T06:24:55Z</time>
      </trkpt>
      <trkpt lat="42.93524" lon="0.29118">
        <ele>1129.8</ele>
        <time>2021-05-29T06:24:56Z</time>
      </trkpt>
      <trkpt lat="42.93521" lon="0.29117">
        <ele>1129.8</ele>
        <time>2021-05-29T06:24:57Z</time>
      </trkpt>
      <trkpt lat="42.93518" lon="0.29115">
        <ele>1129.8</ele>
        <time>2021-05-29T06:24:58Z</time>
      </trkpt>
      <trkpt lat="42.93515" lon="0.29115">
        <ele>1130</ele>
        <time>2021-05-29T06:24:59Z</time>
      </trkpt>
      <trkpt lat="42.93512" lon="0.29115">
        <ele>1130.2</ele>
        <time>2021-05-29T06:25:00Z</time>
      </trkpt>
      <trkpt lat="42.93509" lon="0.29116">
        <ele>1130.4</ele>
        <time>2021-05-29T06:25:01Z</time>
      </trkpt>
      <trkpt lat="42.93506" lon="0.29117">
        <ele>1130.4</ele>
        <time>2021-05-29T06:25:02Z</time>
      </trkpt>
      <trkpt lat="42.93503" lon="0.29118">
        <ele>1130.6</ele>
        <time>2021-05-29T06:25:03Z</time>
      </trkpt>
      <trkpt lat="42.935" lon="0.29119">
        <ele>1130.6</ele>
        <time>2021-05-29T06:25:04Z</time>
      </trkpt>
      <trkpt lat="42.93497" lon="0.29121">
        <ele>1130.8</ele>
        <time>2021-05-29T06:25:05Z</time>
      </trkpt>
      <trkpt lat="42.93494" lon="0.29122">
        <ele>1131</ele>
        <time>2021-05-29T06:25:06Z</time>
      </trkpt>
      <trkpt lat="42.93491" lon="0.29123">
        <ele>1131</ele>
        <time>2021-05-29T06:25:07Z</time>
      </trkpt>
      <trkpt lat="42.93488" lon="0.29125">
        <ele>1131.2</ele>
        <time>2021-05-29T06:25:08Z</time>
      </trkpt>
      <trkpt lat="42.93486" lon="0.29126">
        <ele>1131.2</ele>
        <time>2021-05-29T06:25:09Z</time>
      </trkpt>
      <trkpt lat="42.93483" lon="0.29127">
        <ele>1131.2</ele>
        <time>2021-05-29T06:25:10Z</time>
      </trkpt>
      <trkpt lat="42.9348" lon="0.29129">
        <ele>1131.4</ele>
        <time>2021-05-29T06:25:11Z</time>
      </trkpt>
      <trkpt lat="42.93477" lon="0.2913">
        <ele>1131.4</ele>
        <time>2021-05-29T06:25:12Z</time>
      </trkpt>
      <trkpt lat="42.93474" lon="0.29131">
        <ele>1131.6</ele>
        <time>2021-05-29T06:25:13Z</time>
      </trkpt>
      <trkpt lat="42.93471" lon="0.29133">
        <ele>1131.6</ele>
        <time>2021-05-29T06:25:14Z</time>
      </trkpt>
      <trkpt lat="42.93468" lon="0.29134">
        <ele>1131.8</ele>
        <time>2021-05-29T06:25:15Z</time>
      </trkpt>
      <trkpt lat="42.93465" lon="0.29136">
        <ele>1131.8</ele>
        <time>2021-05-29T06:25:16Z</time>
      </trkpt>
      <trkpt lat="42.93462" lon="0.29138">
        <ele>1132</ele>
        <time>2021-05-29T06:25:17Z</time>
      </trkpt>
      <trkpt lat="42.93459" lon="0.29139">
        <ele>1132</ele>
        <time>2021-05-29T06:25:18Z</time>
      </trkpt>
      <trkpt lat="42.93456" lon="0.29141">
        <ele>1132</ele>
        <time>2021-05-29T06:25:19Z</time>
      </trkpt>
      <trkpt lat="42.93453" lon="0.29143">
        <ele>1132.2</ele>
        <time>2021-05-29T06:25:20Z</time>
      </trkpt>
      <trkpt lat="42.9345" lon="0.29145">
        <ele>1132.4</ele>
        <time>2021-05-29T06:25:21Z</time>
      </trkpt>
      <trkpt lat="42.93447" lon="0.29147">
        <ele>1132.4</ele>
        <time>2021-05-29T06:25:22Z</time>
      </trkpt>
      <trkpt lat="42.93444" lon="0.29149">
        <ele>1132.6</ele>
        <time>2021-05-29T06:25:23Z</time>
      </trkpt>
      <trkpt lat="42.93441" lon="0.2915">
        <ele>1132.6</ele>
        <time>2021-05-29T06:25:24Z</time>
      </trkpt>
      <trkpt lat="42.93435" lon="0.29154">
        <ele>1133</ele>
        <time>2021-05-29T06:25:26Z</time>
      </trkpt>
      <trkpt lat="42.93429" lon="0.29158">
        <ele>1133.2</ele>
        <time>2021-05-29T06:25:28Z</time>
      </trkpt>
      <trkpt lat="42.93426" lon="0.29159">
        <ele>1133.4</ele>
        <time>2021-05-29T06:25:29Z</time>
      </trkpt>
      <trkpt lat="42.93424" lon="0.29161">
        <ele>1133.6</ele>
        <time>2021-05-29T06:25:30Z</time>
      </trkpt>
      <trkpt lat="42.93421" lon="0.29163">
        <ele>1133.6</ele>
        <time>2021-05-29T06:25:31Z</time>
      </trkpt>
      <trkpt lat="42.93418" lon="0.29165">
        <ele>1133.8</ele>
        <time>2021-05-29T06:25:32Z</time>
      </trkpt>
      <trkpt lat="42.93415" lon="0.29167">
        <ele>1133.8</ele>
        <time>2021-05-29T06:25:33Z</time>
      </trkpt>
      <trkpt lat="42.93413" lon="0.29169">
        <ele>1134</ele>
        <time>2021-05-29T06:25:34Z</time>
      </trkpt>
      <trkpt lat="42.9341" lon="0.29171">
        <ele>1134</ele>
        <time>2021-05-29T06:25:35Z</time>
      </trkpt>
      <trkpt lat="42.93407" lon="0.29173">
        <ele>1134.2</ele>
        <time>2021-05-29T06:25:36Z</time>
      </trkpt>
      <trkpt lat="42.93405" lon="0.29174">
        <ele>1134.6</ele>
        <time>2021-05-29T06:25:37Z</time>
      </trkpt>
      <trkpt lat="42.93402" lon="0.29176">
        <ele>1134.6</ele>
        <time>2021-05-29T06:25:38Z</time>
      </trkpt>
      <trkpt lat="42.93399" lon="0.29178">
        <ele>1134.8</ele>
        <time>2021-05-29T06:25:39Z</time>
      </trkpt>
      <trkpt lat="42.93396" lon="0.2918">
        <ele>1134.8</ele>
        <time>2021-05-29T06:25:40Z</time>
      </trkpt>
      <trkpt lat="42.93394" lon="0.29182">
        <ele>1135</ele>
        <time>2021-05-29T06:25:41Z</time>
      </trkpt>
      <trkpt lat="42.93391" lon="0.29183">
        <ele>1135.2</ele>
        <time>2021-05-29T06:25:42Z</time>
      </trkpt>
      <trkpt lat="42.93389" lon="0.29185">
        <ele>1135.4</ele>
        <time>2021-05-29T06:25:43Z</time>
      </trkpt>
      <trkpt lat="42.93386" lon="0.29187">
        <ele>1135.6</ele>
        <time>2021-05-29T06:25:44Z</time>
      </trkpt>
      <trkpt lat="42.93384" lon="0.29188">
        <ele>1135.8</ele>
        <time>2021-05-29T06:25:45Z</time>
      </trkpt>
      <trkpt lat="42.93381" lon="0.2919">
        <ele>1136</ele>
        <time>2021-05-29T06:25:46Z</time>
      </trkpt>
      <trkpt lat="42.93379" lon="0.29192">
        <ele>1136</ele>
        <time>2021-05-29T06:25:47Z</time>
      </trkpt>
      <trkpt lat="42.93376" lon="0.29194">
        <ele>1136.2</ele>
        <time>2021-05-29T06:25:48Z</time>
      </trkpt>
      <trkpt lat="42.93374" lon="0.29196">
        <ele>1136.4</ele>
        <time>2021-05-29T06:25:49Z</time>
      </trkpt>
      <trkpt lat="42.93371" lon="0.29198">
        <ele>1136.4</ele>
        <time>2021-05-29T06:25:50Z</time>
      </trkpt>
      <trkpt lat="42.93369" lon="0.292">
        <ele>1136.6</ele>
        <time>2021-05-29T06:25:51Z</time>
      </trkpt>
      <trkpt lat="42.93366" lon="0.29202">
        <ele>1136.8</ele>
        <time>2021-05-29T06:25:52Z</time>
      </trkpt>
      <trkpt lat="42.93363" lon="0.29204">
        <ele>1136.8</ele>
        <time>2021-05-29T06:25:53Z</time>
      </trkpt>
      <trkpt lat="42.93361" lon="0.29206">
        <ele>1137</ele>
        <time>2021-05-29T06:25:54Z</time>
      </trkpt>
      <trkpt lat="42.93358" lon="0.29208">
        <ele>1137</ele>
        <time>2021-05-29T06:25:55Z</time>
      </trkpt>
      <trkpt lat="42.93355" lon="0.2921">
        <ele>1137.2</ele>
        <time>2021-05-29T06:25:56Z</time>
      </trkpt>
      <trkpt lat="42.93352" lon="0.29213">
        <ele>1137.4</ele>
        <time>2021-05-29T06:25:57Z</time>
      </trkpt>
      <trkpt lat="42.9335" lon="0.29215">
        <ele>1137.6</ele>
        <time>2021-05-29T06:25:58Z</time>
      </trkpt>
      <trkpt lat="42.93348" lon="0.29217">
        <ele>1137.6</ele>
        <time>2021-05-29T06:25:59Z</time>
      </trkpt>
      <trkpt lat="42.93345" lon="0.29219">
        <ele>1137.6</ele>
        <time>2021-05-29T06:26:00Z</time>
      </trkpt>
      <trkpt lat="42.93343" lon="0.29222">
        <ele>1137.8</ele>
        <time>2021-05-29T06:26:01Z</time>
      </trkpt>
      <trkpt lat="42.93341" lon="0.29224">
        <ele>1138</ele>
        <time>2021-05-29T06:26:02Z</time>
      </trkpt>
      <trkpt lat="42.93339" lon="0.29227">
        <ele>1138.2</ele>
        <time>2021-05-29T06:26:03Z</time>
      </trkpt>
      <trkpt lat="42.93337" lon="0.29229">
        <ele>1138.4</ele>
        <time>2021-05-29T06:26:04Z</time>
      </trkpt>
      <trkpt lat="42.93335" lon="0.29232">
        <ele>1138.6</ele>
        <time>2021-05-29T06:26:05Z</time>
      </trkpt>
      <trkpt lat="42.93333" lon="0.29235">
        <ele>1138.8</ele>
        <time>2021-05-29T06:26:06Z</time>
      </trkpt>
      <trkpt lat="42.93331" lon="0.29239">
        <ele>1139</ele>
        <time>2021-05-29T06:26:07Z</time>
      </trkpt>
      <trkpt lat="42.9333" lon="0.29242">
        <ele>1139.2</ele>
        <time>2021-05-29T06:26:08Z</time>
      </trkpt>
      <trkpt lat="42.93328" lon="0.29245">
        <ele>1139.2</ele>
        <time>2021-05-29T06:26:09Z</time>
      </trkpt>
      <trkpt lat="42.93326" lon="0.29248">
        <ele>1139.4</ele>
        <time>2021-05-29T06:26:10Z</time>
      </trkpt>
      <trkpt lat="42.93324" lon="0.29251">
        <ele>1139.4</ele>
        <time>2021-05-29T06:26:11Z</time>
      </trkpt>
      <trkpt lat="42.93323" lon="0.29254">
        <ele>1139.6</ele>
        <time>2021-05-29T06:26:12Z</time>
      </trkpt>
      <trkpt lat="42.93321" lon="0.29257">
        <ele>1139.8</ele>
        <time>2021-05-29T06:26:13Z</time>
      </trkpt>
      <trkpt lat="42.9332" lon="0.29259">
        <ele>1139.8</ele>
        <time>2021-05-29T06:26:14Z</time>
      </trkpt>
      <trkpt lat="42.93319" lon="0.29262">
        <ele>1140.2</ele>
        <time>2021-05-29T06:26:15Z</time>
      </trkpt>
      <trkpt lat="42.93318" lon="0.29265">
        <ele>1140.2</ele>
        <time>2021-05-29T06:26:16Z</time>
      </trkpt>
      <trkpt lat="42.93316" lon="0.29268">
        <ele>1140.8</ele>
        <time>2021-05-29T06:26:17Z</time>
      </trkpt>
      <trkpt lat="42.93314" lon="0.29271">
        <ele>1141</ele>
        <time>2021-05-29T06:26:18Z</time>
      </trkpt>
      <trkpt lat="42.93313" lon="0.29273">
        <ele>1141.2</ele>
        <time>2021-05-29T06:26:19Z</time>
      </trkpt>
      <trkpt lat="42.93312" lon="0.29275">
        <ele>1141.4</ele>
        <time>2021-05-29T06:26:20Z</time>
      </trkpt>
      <trkpt lat="42.9331" lon="0.29278">
        <ele>1141.4</ele>
        <time>2021-05-29T06:26:21Z</time>
      </trkpt>
      <trkpt lat="42.93308" lon="0.2928">
        <ele>1141.6</ele>
        <time>2021-05-29T06:26:22Z</time>
      </trkpt>
      <trkpt lat="42.93306" lon="0.29283">
        <ele>1141.6</ele>
        <time>2021-05-29T06:26:23Z</time>
      </trkpt>
      <trkpt lat="42.93304" lon="0.29285">
        <ele>1142</ele>
        <time>2021-05-29T06:26:24Z</time>
      </trkpt>
      <trkpt lat="42.93302" lon="0.29288">
        <ele>1142</ele>
        <time>2021-05-29T06:26:25Z</time>
      </trkpt>
      <trkpt lat="42.933" lon="0.2929">
        <ele>1142.2</ele>
        <time>2021-05-29T06:26:26Z</time>
      </trkpt>
      <trkpt lat="42.93298" lon="0.29292">
        <ele>1142.4</ele>
        <time>2021-05-29T06:26:27Z</time>
      </trkpt>
      <trkpt lat="42.93296" lon="0.29294">
        <ele>1142.8</ele>
        <time>2021-05-29T06:26:28Z</time>
      </trkpt>
      <trkpt lat="42.93294" lon="0.29296">
        <ele>1142.8</ele>
        <time>2021-05-29T06:26:29Z</time>
      </trkpt>
      <trkpt lat="42.93291" lon="0.29298">
        <ele>1143.4</ele>
        <time>2021-05-29T06:26:30Z</time>
      </trkpt>
      <trkpt lat="42.93289" lon="0.293">
        <ele>1143.6</ele>
        <time>2021-05-29T06:26:31Z</time>
      </trkpt>
      <trkpt lat="42.93286" lon="0.29302">
        <ele>1144</ele>
        <time>2021-05-29T06:26:32Z</time>
      </trkpt>
      <trkpt lat="42.93283" lon="0.29304">
        <ele>1144</ele>
        <time>2021-05-29T06:26:33Z</time>
      </trkpt>
      <trkpt lat="42.93281" lon="0.29306">
        <ele>1144</ele>
        <time>2021-05-29T06:26:34Z</time>
      </trkpt>
      <trkpt lat="42.93278" lon="0.29307">
        <ele>1144</ele>
        <time>2021-05-29T06:26:35Z</time>
      </trkpt>
      <trkpt lat="42.93275" lon="0.29309">
        <ele>1144.2</ele>
        <time>2021-05-29T06:26:36Z</time>
      </trkpt>
      <trkpt lat="42.93272" lon="0.29311">
        <ele>1144.2</ele>
        <time>2021-05-29T06:26:37Z</time>
      </trkpt>
      <trkpt lat="42.93269" lon="0.29313">
        <ele>1144.2</ele>
        <time>2021-05-29T06:26:38Z</time>
      </trkpt>
      <trkpt lat="42.93266" lon="0.29316">
        <ele>1144.2</ele>
        <time>2021-05-29T06:26:39Z</time>
      </trkpt>
      <trkpt lat="42.93263" lon="0.29318">
        <ele>1144.6</ele>
        <time>2021-05-29T06:26:40Z</time>
      </trkpt>
      <trkpt lat="42.93261" lon="0.29319">
        <ele>1144.6</ele>
        <time>2021-05-29T06:26:41Z</time>
      </trkpt>
      <trkpt lat="42.93259" lon="0.29321">
        <ele>1144.6</ele>
        <time>2021-05-29T06:26:42Z</time>
      </trkpt>
      <trkpt lat="42.93257" lon="0.29323">
        <ele>1144.6</ele>
        <time>2021-05-29T06:26:43Z</time>
      </trkpt>
      <trkpt lat="42.93254" lon="0.29324">
        <ele>1144.8</ele>
        <time>2021-05-29T06:26:44Z</time>
      </trkpt>
      <trkpt lat="42.93251" lon="0.29326">
        <ele>1145</ele>
        <time>2021-05-29T06:26:45Z</time>
      </trkpt>
      <trkpt lat="42.93248" lon="0.29328">
        <ele>1145</ele>
        <time>2021-05-29T06:26:46Z</time>
      </trkpt>
      <trkpt lat="42.93245" lon="0.29329">
        <ele>1145.2</ele>
        <time>2021-05-29T06:26:47Z</time>
      </trkpt>
      <trkpt lat="42.93242" lon="0.29331">
        <ele>1145.2</ele>
        <time>2021-05-29T06:26:48Z</time>
      </trkpt>
      <trkpt lat="42.93239" lon="0.29332">
        <ele>1145.4</ele>
        <time>2021-05-29T06:26:49Z</time>
      </trkpt>
      <trkpt lat="42.93236" lon="0.29334">
        <ele>1145.4</ele>
        <time>2021-05-29T06:26:50Z</time>
      </trkpt>
      <trkpt lat="42.93234" lon="0.29335">
        <ele>1145.6</ele>
        <time>2021-05-29T06:26:51Z</time>
      </trkpt>
      <trkpt lat="42.93232" lon="0.29336">
        <ele>1145.6</ele>
        <time>2021-05-29T06:26:52Z</time>
      </trkpt>
      <trkpt lat="42.93229" lon="0.29338">
        <ele>1145.8</ele>
        <time>2021-05-29T06:26:53Z</time>
      </trkpt>
      <trkpt lat="42.93226" lon="0.29339">
        <ele>1145.8</ele>
        <time>2021-05-29T06:26:54Z</time>
      </trkpt>
      <trkpt lat="42.93223" lon="0.29342">
        <ele>1146</ele>
        <time>2021-05-29T06:26:55Z</time>
      </trkpt>
      <trkpt lat="42.93221" lon="0.29344">
        <ele>1146.2</ele>
        <time>2021-05-29T06:26:56Z</time>
      </trkpt>
      <trkpt lat="42.93218" lon="0.29346">
        <ele>1146.4</ele>
        <time>2021-05-29T06:26:57Z</time>
      </trkpt>
      <trkpt lat="42.93216" lon="0.29348">
        <ele>1146.4</ele>
        <time>2021-05-29T06:26:58Z</time>
      </trkpt>
      <trkpt lat="42.93214" lon="0.2935">
        <ele>1146.4</ele>
        <time>2021-05-29T06:26:59Z</time>
      </trkpt>
      <trkpt lat="42.93212" lon="0.29351">
        <ele>1146.6</ele>
        <time>2021-05-29T06:27:00Z</time>
      </trkpt>
      <trkpt lat="42.9321" lon="0.29353">
        <ele>1146.6</ele>
        <time>2021-05-29T06:27:01Z</time>
      </trkpt>
      <trkpt lat="42.93209" lon="0.29354">
        <ele>1146.8</ele>
        <time>2021-05-29T06:27:02Z</time>
      </trkpt>
      <trkpt lat="42.93207" lon="0.29356">
        <ele>1147</ele>
        <time>2021-05-29T06:27:03Z</time>
      </trkpt>
      <trkpt lat="42.93205" lon="0.29358">
        <ele>1147.6</ele>
        <time>2021-05-29T06:27:04Z</time>
      </trkpt>
      <trkpt lat="42.93203" lon="0.29359">
        <ele>1147.6</ele>
        <time>2021-05-29T06:27:05Z</time>
      </trkpt>
      <trkpt lat="42.93202" lon="0.29361">
        <ele>1147.8</ele>
        <time>2021-05-29T06:27:06Z</time>
      </trkpt>
      <trkpt lat="42.93199" lon="0.29362">
        <ele>1148</ele>
        <time>2021-05-29T06:27:07Z</time>
      </trkpt>
      <trkpt lat="42.93198" lon="0.29363">
        <ele>1148</ele>
        <time>2021-05-29T06:27:08Z</time>
      </trkpt>
      <trkpt lat="42.93195" lon="0.29364">
        <ele>1148.2</ele>
        <time>2021-05-29T06:27:09Z</time>
      </trkpt>
      <trkpt lat="42.93193" lon="0.29364">
        <ele>1148.4</ele>
        <time>2021-05-29T06:27:10Z</time>
      </trkpt>
      <trkpt lat="42.93191" lon="0.29365">
        <ele>1148.6</ele>
        <time>2021-05-29T06:27:11Z</time>
      </trkpt>
      <trkpt lat="42.93188" lon="0.29366">
        <ele>1148.8</ele>
        <time>2021-05-29T06:27:12Z</time>
      </trkpt>
      <trkpt lat="42.93186" lon="0.29366">
        <ele>1149</ele>
        <time>2021-05-29T06:27:13Z</time>
      </trkpt>
      <trkpt lat="42.93185" lon="0.29366">
        <ele>1149.2</ele>
        <time>2021-05-29T06:27:14Z</time>
      </trkpt>
      <trkpt lat="42.93183" lon="0.29367">
        <ele>1149.4</ele>
        <time>2021-05-29T06:27:15Z</time>
      </trkpt>
      <trkpt lat="42.93181" lon="0.29369">
        <ele>1149.6</ele>
        <time>2021-05-29T06:27:16Z</time>
      </trkpt>
      <trkpt lat="42.93179" lon="0.2937">
        <ele>1149.8</ele>
        <time>2021-05-29T06:27:17Z</time>
      </trkpt>
      <trkpt lat="42.93178" lon="0.2937">
        <ele>1149.8</ele>
        <time>2021-05-29T06:27:18Z</time>
      </trkpt>
      <trkpt lat="42.93176" lon="0.29371">
        <ele>1150</ele>
        <time>2021-05-29T06:27:19Z</time>
      </trkpt>
      <trkpt lat="42.93175" lon="0.29371">
        <ele>1150.2</ele>
        <time>2021-05-29T06:27:20Z</time>
      </trkpt>
      <trkpt lat="42.93173" lon="0.29372">
        <ele>1150.4</ele>
        <time>2021-05-29T06:27:21Z</time>
      </trkpt>
      <trkpt lat="42.93172" lon="0.29373">
        <ele>1150.6</ele>
        <time>2021-05-29T06:27:22Z</time>
      </trkpt>
      <trkpt lat="42.9317" lon="0.29374">
        <ele>1151</ele>
        <time>2021-05-29T06:27:23Z</time>
      </trkpt>
      <trkpt lat="42.93169" lon="0.29375">
        <ele>1151</ele>
        <time>2021-05-29T06:27:24Z</time>
      </trkpt>
      <trkpt lat="42.93167" lon="0.29375">
        <ele>1151.4</ele>
        <time>2021-05-29T06:27:25Z</time>
      </trkpt>
      <trkpt lat="42.93165" lon="0.29375">
        <ele>1151.6</ele>
        <time>2021-05-29T06:27:26Z</time>
      </trkpt>
      <trkpt lat="42.93162" lon="0.29375">
        <ele>1151.8</ele>
        <time>2021-05-29T06:27:27Z</time>
      </trkpt>
      <trkpt lat="42.93161" lon="0.29375">
        <ele>1152</ele>
        <time>2021-05-29T06:27:28Z</time>
      </trkpt>
      <trkpt lat="42.93159" lon="0.29375">
        <ele>1152</ele>
        <time>2021-05-29T06:27:29Z</time>
      </trkpt>
      <trkpt lat="42.93157" lon="0.29375">
        <ele>1152.2</ele>
        <time>2021-05-29T06:27:30Z</time>
      </trkpt>
      <trkpt lat="42.93155" lon="0.29376">
        <ele>1152.4</ele>
        <time>2021-05-29T06:27:31Z</time>
      </trkpt>
      <trkpt lat="42.93153" lon="0.29376">
        <ele>1152.8</ele>
        <time>2021-05-29T06:27:32Z</time>
      </trkpt>
      <trkpt lat="42.93151" lon="0.29376">
        <ele>1153</ele>
        <time>2021-05-29T06:27:33Z</time>
      </trkpt>
      <trkpt lat="42.93149" lon="0.29377">
        <ele>1153.2</ele>
        <time>2021-05-29T06:27:34Z</time>
      </trkpt>
      <trkpt lat="42.93147" lon="0.29377">
        <ele>1153.2</ele>
        <time>2021-05-29T06:27:35Z</time>
      </trkpt>
      <trkpt lat="42.93145" lon="0.29377">
        <ele>1153.4</ele>
        <time>2021-05-29T06:27:36Z</time>
      </trkpt>
      <trkpt lat="42.93143" lon="0.29377">
        <ele>1153.6</ele>
        <time>2021-05-29T06:27:37Z</time>
      </trkpt>
      <trkpt lat="42.93141" lon="0.29377">
        <ele>1153.8</ele>
        <time>2021-05-29T06:27:38Z</time>
      </trkpt>
      <trkpt lat="42.93138" lon="0.29377">
        <ele>1154</ele>
        <time>2021-05-29T06:27:39Z</time>
      </trkpt>
      <trkpt lat="42.93137" lon="0.29378">
        <ele>1154.2</ele>
        <time>2021-05-29T06:27:40Z</time>
      </trkpt>
      <trkpt lat="42.93134" lon="0.29377">
        <ele>1154.4</ele>
        <time>2021-05-29T06:27:41Z</time>
      </trkpt>
      <trkpt lat="42.93132" lon="0.29377">
        <ele>1154.6</ele>
        <time>2021-05-29T06:27:42Z</time>
      </trkpt>
      <trkpt lat="42.9313" lon="0.29376">
        <ele>1154.8</ele>
        <time>2021-05-29T06:27:43Z</time>
      </trkpt>
      <trkpt lat="42.93128" lon="0.29376">
        <ele>1155</ele>
        <time>2021-05-29T06:27:44Z</time>
      </trkpt>
      <trkpt lat="42.93126" lon="0.29376">
        <ele>1155.2</ele>
        <time>2021-05-29T06:27:45Z</time>
      </trkpt>
      <trkpt lat="42.93125" lon="0.29376">
        <ele>1155.4</ele>
        <time>2021-05-29T06:27:46Z</time>
      </trkpt>
      <trkpt lat="42.93124" lon="0.29376">
        <ele>1155.6</ele>
        <time>2021-05-29T06:27:47Z</time>
      </trkpt>
      <trkpt lat="42.93123" lon="0.29376">
        <ele>1155.8</ele>
        <time>2021-05-29T06:27:48Z</time>
      </trkpt>
      <trkpt lat="42.93121" lon="0.29376">
        <ele>1156</ele>
        <time>2021-05-29T06:27:49Z</time>
      </trkpt>
      <trkpt lat="42.93119" lon="0.29376">
        <ele>1156</ele>
        <time>2021-05-29T06:27:50Z</time>
      </trkpt>
      <trkpt lat="42.93117" lon="0.29376">
        <ele>1156.4</ele>
        <time>2021-05-29T06:27:51Z</time>
      </trkpt>
      <trkpt lat="42.93117" lon="0.29376">
        <ele>1156.6</ele>
        <time>2021-05-29T06:27:52Z</time>
      </trkpt>
      <trkpt lat="42.93115" lon="0.29375">
        <ele>1156.8</ele>
        <time>2021-05-29T06:27:53Z</time>
      </trkpt>
      <trkpt lat="42.93113" lon="0.29376">
        <ele>1156.8</ele>
        <time>2021-05-29T06:27:54Z</time>
      </trkpt>
      <trkpt lat="42.93111" lon="0.29376">
        <ele>1156.8</ele>
        <time>2021-05-29T06:27:55Z</time>
      </trkpt>
      <trkpt lat="42.9311" lon="0.29375">
        <ele>1156.8</ele>
        <time>2021-05-29T06:27:56Z</time>
      </trkpt>
      <trkpt lat="42.93107" lon="0.29375">
        <ele>1157</ele>
        <time>2021-05-29T06:27:57Z</time>
      </trkpt>
      <trkpt lat="42.93105" lon="0.29375">
        <ele>1157</ele>
        <time>2021-05-29T06:27:58Z</time>
      </trkpt>
      <trkpt lat="42.93102" lon="0.29374">
        <ele>1157.4</ele>
        <time>2021-05-29T06:27:59Z</time>
      </trkpt>
      <trkpt lat="42.931" lon="0.29373">
        <ele>1157.4</ele>
        <time>2021-05-29T06:28:00Z</time>
      </trkpt>
      <trkpt lat="42.93098" lon="0.29373">
        <ele>1157.6</ele>
        <time>2021-05-29T06:28:01Z</time>
      </trkpt>
      <trkpt lat="42.93095" lon="0.29372">
        <ele>1157.6</ele>
        <time>2021-05-29T06:28:02Z</time>
      </trkpt>
      <trkpt lat="42.93092" lon="0.29371">
        <ele>1157.8</ele>
        <time>2021-05-29T06:28:03Z</time>
      </trkpt>
      <trkpt lat="42.9309" lon="0.29371">
        <ele>1158.2</ele>
        <time>2021-05-29T06:28:04Z</time>
      </trkpt>
      <trkpt lat="42.93087" lon="0.29371">
        <ele>1158.2</ele>
        <time>2021-05-29T06:28:05Z</time>
      </trkpt>
      <trkpt lat="42.93085" lon="0.29371">
        <ele>1158.4</ele>
        <time>2021-05-29T06:28:06Z</time>
      </trkpt>
      <trkpt lat="42.93083" lon="0.29372">
        <ele>1158.4</ele>
        <time>2021-05-29T06:28:07Z</time>
      </trkpt>
      <trkpt lat="42.9308" lon="0.29373">
        <ele>1158.6</ele>
        <time>2021-05-29T06:28:08Z</time>
      </trkpt>
      <trkpt lat="42.93077" lon="0.29374">
        <ele>1158.6</ele>
        <time>2021-05-29T06:28:09Z</time>
      </trkpt>
      <trkpt lat="42.93075" lon="0.29376">
        <ele>1158.8</ele>
        <time>2021-05-29T06:28:10Z</time>
      </trkpt>
      <trkpt lat="42.93073" lon="0.29378">
        <ele>1158.8</ele>
        <time>2021-05-29T06:28:11Z</time>
      </trkpt>
      <trkpt lat="42.93071" lon="0.29379">
        <ele>1159</ele>
        <time>2021-05-29T06:28:12Z</time>
      </trkpt>
      <trkpt lat="42.93069" lon="0.29379">
        <ele>1159.2</ele>
        <time>2021-05-29T06:28:13Z</time>
      </trkpt>
      <trkpt lat="42.93066" lon="0.29379">
        <ele>1159.4</ele>
        <time>2021-05-29T06:28:14Z</time>
      </trkpt>
      <trkpt lat="42.93065" lon="0.29379">
        <ele>1159.6</ele>
        <time>2021-05-29T06:28:15Z</time>
      </trkpt>
      <trkpt lat="42.93063" lon="0.29379">
        <ele>1159.8</ele>
        <time>2021-05-29T06:28:16Z</time>
      </trkpt>
      <trkpt lat="42.93061" lon="0.29379">
        <ele>1159.8</ele>
        <time>2021-05-29T06:28:17Z</time>
      </trkpt>
      <trkpt lat="42.93058" lon="0.2938">
        <ele>1160</ele>
        <time>2021-05-29T06:28:18Z</time>
      </trkpt>
      <trkpt lat="42.93055" lon="0.29379">
        <ele>1160</ele>
        <time>2021-05-29T06:28:19Z</time>
      </trkpt>
      <trkpt lat="42.93053" lon="0.29379">
        <ele>1160</ele>
        <time>2021-05-29T06:28:20Z</time>
      </trkpt>
      <trkpt lat="42.93051" lon="0.29379">
        <ele>1160.2</ele>
        <time>2021-05-29T06:28:21Z</time>
      </trkpt>
      <trkpt lat="42.93048" lon="0.29379">
        <ele>1160.2</ele>
        <time>2021-05-29T06:28:22Z</time>
      </trkpt>
      <trkpt lat="42.93046" lon="0.29379">
        <ele>1160.4</ele>
        <time>2021-05-29T06:28:23Z</time>
      </trkpt>
      <trkpt lat="42.93043" lon="0.29379">
        <ele>1160.6</ele>
        <time>2021-05-29T06:28:24Z</time>
      </trkpt>
      <trkpt lat="42.93041" lon="0.29379">
        <ele>1160.8</ele>
        <time>2021-05-29T06:28:25Z</time>
      </trkpt>
      <trkpt lat="42.93038" lon="0.29379">
        <ele>1160.8</ele>
        <time>2021-05-29T06:28:26Z</time>
      </trkpt>
      <trkpt lat="42.93035" lon="0.29378">
        <ele>1161</ele>
        <time>2021-05-29T06:28:27Z</time>
      </trkpt>
      <trkpt lat="42.93033" lon="0.29378">
        <ele>1161.2</ele>
        <time>2021-05-29T06:28:28Z</time>
      </trkpt>
      <trkpt lat="42.93031" lon="0.29379">
        <ele>1161.4</ele>
        <time>2021-05-29T06:28:29Z</time>
      </trkpt>
      <trkpt lat="42.9303" lon="0.29379">
        <ele>1161.6</ele>
        <time>2021-05-29T06:28:30Z</time>
      </trkpt>
      <trkpt lat="42.93027" lon="0.29379">
        <ele>1161.6</ele>
        <time>2021-05-29T06:28:31Z</time>
      </trkpt>
      <trkpt lat="42.93025" lon="0.2938">
        <ele>1161.8</ele>
        <time>2021-05-29T06:28:32Z</time>
      </trkpt>
      <trkpt lat="42.93022" lon="0.29379">
        <ele>1162</ele>
        <time>2021-05-29T06:28:33Z</time>
      </trkpt>
      <trkpt lat="42.9302" lon="0.29378">
        <ele>1162</ele>
        <time>2021-05-29T06:28:34Z</time>
      </trkpt>
      <trkpt lat="42.93018" lon="0.29378">
        <ele>1162.2</ele>
        <time>2021-05-29T06:28:35Z</time>
      </trkpt>
      <trkpt lat="42.93016" lon="0.29377">
        <ele>1162.2</ele>
        <time>2021-05-29T06:28:36Z</time>
      </trkpt>
      <trkpt lat="42.93014" lon="0.29377">
        <ele>1162.6</ele>
        <time>2021-05-29T06:28:37Z</time>
      </trkpt>
      <trkpt lat="42.93012" lon="0.29376">
        <ele>1162.6</ele>
        <time>2021-05-29T06:28:38Z</time>
      </trkpt>
      <trkpt lat="42.93009" lon="0.29376">
        <ele>1162.8</ele>
        <time>2021-05-29T06:28:39Z</time>
      </trkpt>
      <trkpt lat="42.93006" lon="0.29376">
        <ele>1163</ele>
        <time>2021-05-29T06:28:40Z</time>
      </trkpt>
      <trkpt lat="42.93004" lon="0.29375">
        <ele>1163</ele>
        <time>2021-05-29T06:28:41Z</time>
      </trkpt>
      <trkpt lat="42.93001" lon="0.29375">
        <ele>1163</ele>
        <time>2021-05-29T06:28:42Z</time>
      </trkpt>
      <trkpt lat="42.92998" lon="0.29375">
        <ele>1163.2</ele>
        <time>2021-05-29T06:28:43Z</time>
      </trkpt>
      <trkpt lat="42.92996" lon="0.29374">
        <ele>1163.4</ele>
        <time>2021-05-29T06:28:44Z</time>
      </trkpt>
      <trkpt lat="42.92994" lon="0.29373">
        <ele>1163.6</ele>
        <time>2021-05-29T06:28:45Z</time>
      </trkpt>
      <trkpt lat="42.92992" lon="0.29373">
        <ele>1163.8</ele>
        <time>2021-05-29T06:28:46Z</time>
      </trkpt>
      <trkpt lat="42.9299" lon="0.29372">
        <ele>1163.8</ele>
        <time>2021-05-29T06:28:47Z</time>
      </trkpt>
      <trkpt lat="42.92986" lon="0.29371">
        <ele>1164</ele>
        <time>2021-05-29T06:28:48Z</time>
      </trkpt>
      <trkpt lat="42.92985" lon="0.29371">
        <ele>1164</ele>
        <time>2021-05-29T06:28:49Z</time>
      </trkpt>
      <trkpt lat="42.92983" lon="0.2937">
        <ele>1164</ele>
        <time>2021-05-29T06:28:50Z</time>
      </trkpt>
      <trkpt lat="42.92981" lon="0.29369">
        <ele>1164</ele>
        <time>2021-05-29T06:28:51Z</time>
      </trkpt>
      <trkpt lat="42.92979" lon="0.29368">
        <ele>1164.2</ele>
        <time>2021-05-29T06:28:52Z</time>
      </trkpt>
      <trkpt lat="42.92977" lon="0.29369">
        <ele>1164.2</ele>
        <time>2021-05-29T06:28:53Z</time>
      </trkpt>
      <trkpt lat="42.92975" lon="0.29369">
        <ele>1164.4</ele>
        <time>2021-05-29T06:28:54Z</time>
      </trkpt>
      <trkpt lat="42.92973" lon="0.29369">
        <ele>1164.6</ele>
        <time>2021-05-29T06:28:55Z</time>
      </trkpt>
      <trkpt lat="42.92972" lon="0.29368">
        <ele>1164.6</ele>
        <time>2021-05-29T06:28:56Z</time>
      </trkpt>
      <trkpt lat="42.9297" lon="0.29368">
        <ele>1164.8</ele>
        <time>2021-05-29T06:28:57Z</time>
      </trkpt>
      <trkpt lat="42.92968" lon="0.29368">
        <ele>1165</ele>
        <time>2021-05-29T06:28:58Z</time>
      </trkpt>
      <trkpt lat="42.92966" lon="0.29367">
        <ele>1165.2</ele>
        <time>2021-05-29T06:28:59Z</time>
      </trkpt>
      <trkpt lat="42.92964" lon="0.29367">
        <ele>1165.2</ele>
        <time>2021-05-29T06:29:00Z</time>
      </trkpt>
      <trkpt lat="42.92962" lon="0.29366">
        <ele>1165.4</ele>
        <time>2021-05-29T06:29:01Z</time>
      </trkpt>
      <trkpt lat="42.9296" lon="0.29366">
        <ele>1165.6</ele>
        <time>2021-05-29T06:29:02Z</time>
      </trkpt>
      <trkpt lat="42.92958" lon="0.29365">
        <ele>1165.8</ele>
        <time>2021-05-29T06:29:03Z</time>
      </trkpt>
      <trkpt lat="42.92955" lon="0.29365">
        <ele>1166</ele>
        <time>2021-05-29T06:29:04Z</time>
      </trkpt>
      <trkpt lat="42.92953" lon="0.29366">
        <ele>1166.2</ele>
        <time>2021-05-29T06:29:05Z</time>
      </trkpt>
      <trkpt lat="42.9295" lon="0.29367">
        <ele>1166.4</ele>
        <time>2021-05-29T06:29:06Z</time>
      </trkpt>
      <trkpt lat="42.92948" lon="0.29367">
        <ele>1166.6</ele>
        <time>2021-05-29T06:29:07Z</time>
      </trkpt>
      <trkpt lat="42.92945" lon="0.29367">
        <ele>1166.6</ele>
        <time>2021-05-29T06:29:08Z</time>
      </trkpt>
      <trkpt lat="42.92943" lon="0.29367">
        <ele>1166.8</ele>
        <time>2021-05-29T06:29:09Z</time>
      </trkpt>
      <trkpt lat="42.9294" lon="0.29367">
        <ele>1166.8</ele>
        <time>2021-05-29T06:29:10Z</time>
      </trkpt>
      <trkpt lat="42.92937" lon="0.29368">
        <ele>1167</ele>
        <time>2021-05-29T06:29:11Z</time>
      </trkpt>
      <trkpt lat="42.92936" lon="0.29368">
        <ele>1167.4</ele>
        <time>2021-05-29T06:29:12Z</time>
      </trkpt>
      <trkpt lat="42.92934" lon="0.29368">
        <ele>1167.4</ele>
        <time>2021-05-29T06:29:13Z</time>
      </trkpt>
      <trkpt lat="42.92933" lon="0.29368">
        <ele>1167.6</ele>
        <time>2021-05-29T06:29:14Z</time>
      </trkpt>
      <trkpt lat="42.92931" lon="0.29368">
        <ele>1167.8</ele>
        <time>2021-05-29T06:29:15Z</time>
      </trkpt>
      <trkpt lat="42.92929" lon="0.29368">
        <ele>1167.8</ele>
        <time>2021-05-29T06:29:16Z</time>
      </trkpt>
      <trkpt lat="42.92927" lon="0.29367">
        <ele>1168</ele>
        <time>2021-05-29T06:29:17Z</time>
      </trkpt>
      <trkpt lat="42.92925" lon="0.29367">
        <ele>1168</ele>
        <time>2021-05-29T06:29:18Z</time>
      </trkpt>
      <trkpt lat="42.92923" lon="0.29366">
        <ele>1168.2</ele>
        <time>2021-05-29T06:29:19Z</time>
      </trkpt>
      <trkpt lat="42.9292" lon="0.29365">
        <ele>1168.4</ele>
        <time>2021-05-29T06:29:20Z</time>
      </trkpt>
      <trkpt lat="42.92919" lon="0.29365">
        <ele>1168.6</ele>
        <time>2021-05-29T06:29:21Z</time>
      </trkpt>
      <trkpt lat="42.92917" lon="0.29364">
        <ele>1169</ele>
        <time>2021-05-29T06:29:22Z</time>
      </trkpt>
      <trkpt lat="42.92915" lon="0.29363">
        <ele>1169</ele>
        <time>2021-05-29T06:29:23Z</time>
      </trkpt>
      <trkpt lat="42.92912" lon="0.29362">
        <ele>1169.2</ele>
        <time>2021-05-29T06:29:24Z</time>
      </trkpt>
      <trkpt lat="42.9291" lon="0.29362">
        <ele>1169.4</ele>
        <time>2021-05-29T06:29:25Z</time>
      </trkpt>
      <trkpt lat="42.92907" lon="0.29362">
        <ele>1169.8</ele>
        <time>2021-05-29T06:29:26Z</time>
      </trkpt>
      <trkpt lat="42.92905" lon="0.29362">
        <ele>1169.8</ele>
        <time>2021-05-29T06:29:27Z</time>
      </trkpt>
      <trkpt lat="42.92903" lon="0.29362">
        <ele>1170</ele>
        <time>2021-05-29T06:29:28Z</time>
      </trkpt>
      <trkpt lat="42.92902" lon="0.29361">
        <ele>1170.4</ele>
        <time>2021-05-29T06:29:29Z</time>
      </trkpt>
      <trkpt lat="42.92901" lon="0.29361">
        <ele>1170.6</ele>
        <time>2021-05-29T06:29:30Z</time>
      </trkpt>
      <trkpt lat="42.92899" lon="0.29361">
        <ele>1170.6</ele>
        <time>2021-05-29T06:29:31Z</time>
      </trkpt>
      <trkpt lat="42.92897" lon="0.2936">
        <ele>1170.8</ele>
        <time>2021-05-29T06:29:32Z</time>
      </trkpt>
      <trkpt lat="42.92896" lon="0.29359">
        <ele>1171</ele>
        <time>2021-05-29T06:29:33Z</time>
      </trkpt>
      <trkpt lat="42.92894" lon="0.29359">
        <ele>1171.2</ele>
        <time>2021-05-29T06:29:34Z</time>
      </trkpt>
      <trkpt lat="42.92892" lon="0.29359">
        <ele>1171.4</ele>
        <time>2021-05-29T06:29:35Z</time>
      </trkpt>
      <trkpt lat="42.9289" lon="0.29358">
        <ele>1171.4</ele>
        <time>2021-05-29T06:29:36Z</time>
      </trkpt>
      <trkpt lat="42.92888" lon="0.29357">
        <ele>1171.6</ele>
        <time>2021-05-29T06:29:37Z</time>
      </trkpt>
      <trkpt lat="42.92885" lon="0.29356">
        <ele>1171.8</ele>
        <time>2021-05-29T06:29:38Z</time>
      </trkpt>
      <trkpt lat="42.92883" lon="0.29356">
        <ele>1172</ele>
        <time>2021-05-29T06:29:39Z</time>
      </trkpt>
      <trkpt lat="42.92881" lon="0.29355">
        <ele>1172.2</ele>
        <time>2021-05-29T06:29:40Z</time>
      </trkpt>
      <trkpt lat="42.92879" lon="0.29353">
        <ele>1172.4</ele>
        <time>2021-05-29T06:29:41Z</time>
      </trkpt>
      <trkpt lat="42.92876" lon="0.29354">
        <ele>1172.6</ele>
        <time>2021-05-29T06:29:42Z</time>
      </trkpt>
      <trkpt lat="42.92873" lon="0.29354">
        <ele>1172.8</ele>
        <time>2021-05-29T06:29:43Z</time>
      </trkpt>
      <trkpt lat="42.92871" lon="0.29355">
        <ele>1173</ele>
        <time>2021-05-29T06:29:44Z</time>
      </trkpt>
      <trkpt lat="42.92869" lon="0.29354">
        <ele>1173.2</ele>
        <time>2021-05-29T06:29:45Z</time>
      </trkpt>
      <trkpt lat="42.92866" lon="0.29354">
        <ele>1173.4</ele>
        <time>2021-05-29T06:29:46Z</time>
      </trkpt>
      <trkpt lat="42.92864" lon="0.29354">
        <ele>1173.4</ele>
        <time>2021-05-29T06:29:47Z</time>
      </trkpt>
      <trkpt lat="42.92863" lon="0.29353">
        <ele>1173.8</ele>
        <time>2021-05-29T06:29:48Z</time>
      </trkpt>
      <trkpt lat="42.92862" lon="0.29353">
        <ele>1174</ele>
        <time>2021-05-29T06:29:49Z</time>
      </trkpt>
      <trkpt lat="42.9286" lon="0.29352">
        <ele>1174.2</ele>
        <time>2021-05-29T06:29:50Z</time>
      </trkpt>
      <trkpt lat="42.92858" lon="0.29351">
        <ele>1174.2</ele>
        <time>2021-05-29T06:29:51Z</time>
      </trkpt>
      <trkpt lat="42.92856" lon="0.29351">
        <ele>1174.6</ele>
        <time>2021-05-29T06:29:52Z</time>
      </trkpt>
      <trkpt lat="42.92854" lon="0.29351">
        <ele>1174.6</ele>
        <time>2021-05-29T06:29:53Z</time>
      </trkpt>
      <trkpt lat="42.92852" lon="0.29351">
        <ele>1174.8</ele>
        <time>2021-05-29T06:29:54Z</time>
      </trkpt>
      <trkpt lat="42.9285" lon="0.29352">
        <ele>1174.8</ele>
        <time>2021-05-29T06:29:55Z</time>
      </trkpt>
      <trkpt lat="42.92847" lon="0.29352">
        <ele>1175</ele>
        <time>2021-05-29T06:29:56Z</time>
      </trkpt>
      <trkpt lat="42.92845" lon="0.29352">
        <ele>1175.2</ele>
        <time>2021-05-29T06:29:57Z</time>
      </trkpt>
      <trkpt lat="42.92843" lon="0.29352">
        <ele>1175.4</ele>
        <time>2021-05-29T06:29:58Z</time>
      </trkpt>
      <trkpt lat="42.92841" lon="0.29352">
        <ele>1175.6</ele>
        <time>2021-05-29T06:29:59Z</time>
      </trkpt>
      <trkpt lat="42.92839" lon="0.29353">
        <ele>1175.8</ele>
        <time>2021-05-29T06:30:00Z</time>
      </trkpt>
      <trkpt lat="42.92837" lon="0.29354">
        <ele>1176</ele>
        <time>2021-05-29T06:30:01Z</time>
      </trkpt>
      <trkpt lat="42.92836" lon="0.29354">
        <ele>1176.4</ele>
        <time>2021-05-29T06:30:02Z</time>
      </trkpt>
      <trkpt lat="42.92833" lon="0.29355">
        <ele>1176.6</ele>
        <time>2021-05-29T06:30:03Z</time>
      </trkpt>
      <trkpt lat="42.92832" lon="0.29355">
        <ele>1176.8</ele>
        <time>2021-05-29T06:30:04Z</time>
      </trkpt>
      <trkpt lat="42.92829" lon="0.29356">
        <ele>1177</ele>
        <time>2021-05-29T06:30:05Z</time>
      </trkpt>
      <trkpt lat="42.92828" lon="0.29356">
        <ele>1177.2</ele>
        <time>2021-05-29T06:30:06Z</time>
      </trkpt>
      <trkpt lat="42.92826" lon="0.29356">
        <ele>1177.4</ele>
        <time>2021-05-29T06:30:07Z</time>
      </trkpt>
      <trkpt lat="42.92824" lon="0.29357">
        <ele>1177.6</ele>
        <time>2021-05-29T06:30:08Z</time>
      </trkpt>
      <trkpt lat="42.92823" lon="0.29357">
        <ele>1177.8</ele>
        <time>2021-05-29T06:30:09Z</time>
      </trkpt>
      <trkpt lat="42.92822" lon="0.29357">
        <ele>1178</ele>
        <time>2021-05-29T06:30:10Z</time>
      </trkpt>
      <trkpt lat="42.9282" lon="0.29356">
        <ele>1178.2</ele>
        <time>2021-05-29T06:30:11Z</time>
      </trkpt>
      <trkpt lat="42.92818" lon="0.29357">
        <ele>1178.4</ele>
        <time>2021-05-29T06:30:12Z</time>
      </trkpt>
      <trkpt lat="42.92816" lon="0.29357">
        <ele>1178.8</ele>
        <time>2021-05-29T06:30:13Z</time>
      </trkpt>
      <trkpt lat="42.92815" lon="0.29357">
        <ele>1178.8</ele>
        <time>2021-05-29T06:30:14Z</time>
      </trkpt>
      <trkpt lat="42.92814" lon="0.29357">
        <ele>1179.2</ele>
        <time>2021-05-29T06:30:15Z</time>
      </trkpt>
      <trkpt lat="42.92812" lon="0.29356">
        <ele>1179.4</ele>
        <time>2021-05-29T06:30:16Z</time>
      </trkpt>
      <trkpt lat="42.9281" lon="0.29357">
        <ele>1179.6</ele>
        <time>2021-05-29T06:30:17Z</time>
      </trkpt>
      <trkpt lat="42.92809" lon="0.29357">
        <ele>1179.8</ele>
        <time>2021-05-29T06:30:18Z</time>
      </trkpt>
      <trkpt lat="42.92807" lon="0.29358">
        <ele>1180.2</ele>
        <time>2021-05-29T06:30:19Z</time>
      </trkpt>
      <trkpt lat="42.92805" lon="0.29357">
        <ele>1180.4</ele>
        <time>2021-05-29T06:30:20Z</time>
      </trkpt>
      <trkpt lat="42.92803" lon="0.29357">
        <ele>1180.4</ele>
        <time>2021-05-29T06:30:21Z</time>
      </trkpt>
      <trkpt lat="42.92802" lon="0.29357">
        <ele>1180.6</ele>
        <time>2021-05-29T06:30:22Z</time>
      </trkpt>
      <trkpt lat="42.92801" lon="0.29358">
        <ele>1180.8</ele>
        <time>2021-05-29T06:30:23Z</time>
      </trkpt>
      <trkpt lat="42.92799" lon="0.29357">
        <ele>1181</ele>
        <time>2021-05-29T06:30:24Z</time>
      </trkpt>
      <trkpt lat="42.92796" lon="0.29357">
        <ele>1181.2</ele>
        <time>2021-05-29T06:30:25Z</time>
      </trkpt>
      <trkpt lat="42.92795" lon="0.29357">
        <ele>1181.6</ele>
        <time>2021-05-29T06:30:26Z</time>
      </trkpt>
      <trkpt lat="42.92794" lon="0.29357">
        <ele>1181.8</ele>
        <time>2021-05-29T06:30:27Z</time>
      </trkpt>
      <trkpt lat="42.92793" lon="0.29357">
        <ele>1182</ele>
        <time>2021-05-29T06:30:28Z</time>
      </trkpt>
      <trkpt lat="42.92793" lon="0.29357">
        <ele>1182</ele>
        <time>2021-05-29T06:30:29Z</time>
      </trkpt>
      <trkpt lat="42.92792" lon="0.29357">
        <ele>1182.2</ele>
        <time>2021-05-29T06:30:30Z</time>
      </trkpt>
      <trkpt lat="42.9279" lon="0.29358">
        <ele>1182.4</ele>
        <time>2021-05-29T06:30:31Z</time>
      </trkpt>
      <trkpt lat="42.92788" lon="0.29358">
        <ele>1182.8</ele>
        <time>2021-05-29T06:30:32Z</time>
      </trkpt>
      <trkpt lat="42.92785" lon="0.29358">
        <ele>1183</ele>
        <time>2021-05-29T06:30:33Z</time>
      </trkpt>
      <trkpt lat="42.92783" lon="0.29357">
        <ele>1183</ele>
        <time>2021-05-29T06:30:34Z</time>
      </trkpt>
      <trkpt lat="42.92781" lon="0.29356">
        <ele>1183.2</ele>
        <time>2021-05-29T06:30:35Z</time>
      </trkpt>
      <trkpt lat="42.92779" lon="0.29355">
        <ele>1183.6</ele>
        <time>2021-05-29T06:30:36Z</time>
      </trkpt>
      <trkpt lat="42.92776" lon="0.29356">
        <ele>1183.8</ele>
        <time>2021-05-29T06:30:37Z</time>
      </trkpt>
      <trkpt lat="42.92774" lon="0.29356">
        <ele>1183.8</ele>
        <time>2021-05-29T06:30:38Z</time>
      </trkpt>
      <trkpt lat="42.92773" lon="0.29356">
        <ele>1184.2</ele>
        <time>2021-05-29T06:30:39Z</time>
      </trkpt>
      <trkpt lat="42.92771" lon="0.29355">
        <ele>1184.2</ele>
        <time>2021-05-29T06:30:40Z</time>
      </trkpt>
      <trkpt lat="42.9277" lon="0.29355">
        <ele>1184.4</ele>
        <time>2021-05-29T06:30:41Z</time>
      </trkpt>
      <trkpt lat="42.92768" lon="0.29354">
        <ele>1184.6</ele>
        <time>2021-05-29T06:30:42Z</time>
      </trkpt>
      <trkpt lat="42.92766" lon="0.29354">
        <ele>1185</ele>
        <time>2021-05-29T06:30:43Z</time>
      </trkpt>
      <trkpt lat="42.92763" lon="0.29354">
        <ele>1185.2</ele>
        <time>2021-05-29T06:30:44Z</time>
      </trkpt>
      <trkpt lat="42.92762" lon="0.29354">
        <ele>1185.4</ele>
        <time>2021-05-29T06:30:45Z</time>
      </trkpt>
      <trkpt lat="42.9276" lon="0.29354">
        <ele>1185.6</ele>
        <time>2021-05-29T06:30:46Z</time>
      </trkpt>
      <trkpt lat="42.92757" lon="0.29353">
        <ele>1185.8</ele>
        <time>2021-05-29T06:30:47Z</time>
      </trkpt>
      <trkpt lat="42.92755" lon="0.29352">
        <ele>1186</ele>
        <time>2021-05-29T06:30:48Z</time>
      </trkpt>
      <trkpt lat="42.92753" lon="0.29351">
        <ele>1186</ele>
        <time>2021-05-29T06:30:49Z</time>
      </trkpt>
      <trkpt lat="42.92751" lon="0.2935">
        <ele>1186</ele>
        <time>2021-05-29T06:30:50Z</time>
      </trkpt>
      <trkpt lat="42.92749" lon="0.2935">
        <ele>1186.4</ele>
        <time>2021-05-29T06:30:51Z</time>
      </trkpt>
      <trkpt lat="42.92747" lon="0.29349">
        <ele>1186.4</ele>
        <time>2021-05-29T06:30:52Z</time>
      </trkpt>
      <trkpt lat="42.92745" lon="0.29349">
        <ele>1186.8</ele>
        <time>2021-05-29T06:30:53Z</time>
      </trkpt>
      <trkpt lat="42.92744" lon="0.29349">
        <ele>1186.8</ele>
        <time>2021-05-29T06:30:54Z</time>
      </trkpt>
      <trkpt lat="42.92743" lon="0.29349">
        <ele>1187</ele>
        <time>2021-05-29T06:30:55Z</time>
      </trkpt>
      <trkpt lat="42.92741" lon="0.29348">
        <ele>1187.2</ele>
        <time>2021-05-29T06:30:56Z</time>
      </trkpt>
      <trkpt lat="42.9274" lon="0.29348">
        <ele>1187.2</ele>
        <time>2021-05-29T06:30:57Z</time>
      </trkpt>
      <trkpt lat="42.92738" lon="0.29347">
        <ele>1187.4</ele>
        <time>2021-05-29T06:30:58Z</time>
      </trkpt>
      <trkpt lat="42.92736" lon="0.29346">
        <ele>1187.6</ele>
        <time>2021-05-29T06:30:59Z</time>
      </trkpt>
      <trkpt lat="42.92735" lon="0.29346">
        <ele>1187.8</ele>
        <time>2021-05-29T06:31:00Z</time>
      </trkpt>
      <trkpt lat="42.92733" lon="0.29345">
        <ele>1188</ele>
        <time>2021-05-29T06:31:01Z</time>
      </trkpt>
      <trkpt lat="42.92731" lon="0.29345">
        <ele>1188.2</ele>
        <time>2021-05-29T06:31:02Z</time>
      </trkpt>
      <trkpt lat="42.92729" lon="0.29344">
        <ele>1188.4</ele>
        <time>2021-05-29T06:31:03Z</time>
      </trkpt>
      <trkpt lat="42.92726" lon="0.29343">
        <ele>1188.4</ele>
        <time>2021-05-29T06:31:04Z</time>
      </trkpt>
      <trkpt lat="42.92725" lon="0.29342">
        <ele>1188.6</ele>
        <time>2021-05-29T06:31:05Z</time>
      </trkpt>
      <trkpt lat="42.92723" lon="0.29342">
        <ele>1188.6</ele>
        <time>2021-05-29T06:31:06Z</time>
      </trkpt>
      <trkpt lat="42.9272" lon="0.29341">
        <ele>1188.8</ele>
        <time>2021-05-29T06:31:07Z</time>
      </trkpt>
      <trkpt lat="42.92719" lon="0.29341">
        <ele>1188.8</ele>
        <time>2021-05-29T06:31:08Z</time>
      </trkpt>
      <trkpt lat="42.92717" lon="0.29341">
        <ele>1188.8</ele>
        <time>2021-05-29T06:31:09Z</time>
      </trkpt>
      <trkpt lat="42.92715" lon="0.2934">
        <ele>1189</ele>
        <time>2021-05-29T06:31:10Z</time>
      </trkpt>
      <trkpt lat="42.92713" lon="0.29339">
        <ele>1189</ele>
        <time>2021-05-29T06:31:11Z</time>
      </trkpt>
      <trkpt lat="42.92711" lon="0.29338">
        <ele>1189</ele>
        <time>2021-05-29T06:31:12Z</time>
      </trkpt>
      <trkpt lat="42.9271" lon="0.29337">
        <ele>1189.2</ele>
        <time>2021-05-29T06:31:13Z</time>
      </trkpt>
      <trkpt lat="42.92708" lon="0.29337">
        <ele>1189.4</ele>
        <time>2021-05-29T06:31:14Z</time>
      </trkpt>
      <trkpt lat="42.92705" lon="0.29336">
        <ele>1189.4</ele>
        <time>2021-05-29T06:31:15Z</time>
      </trkpt>
      <trkpt lat="42.92704" lon="0.29336">
        <ele>1189.4</ele>
        <time>2021-05-29T06:31:16Z</time>
      </trkpt>
      <trkpt lat="42.92703" lon="0.29335">
        <ele>1189.6</ele>
        <time>2021-05-29T06:31:17Z</time>
      </trkpt>
      <trkpt lat="42.92702" lon="0.29335">
        <ele>1189.8</ele>
        <time>2021-05-29T06:31:18Z</time>
      </trkpt>
      <trkpt lat="42.92702" lon="0.29335">
        <ele>1189.8</ele>
        <time>2021-05-29T06:31:19Z</time>
      </trkpt>
      <trkpt lat="42.92702" lon="0.29335">
        <ele>1190</ele>
        <time>2021-05-29T06:31:20Z</time>
      </trkpt>
      <trkpt lat="42.92701" lon="0.29334">
        <ele>1190</ele>
        <time>2021-05-29T06:31:21Z</time>
      </trkpt>
      <trkpt lat="42.92697" lon="0.29333">
        <ele>1190.2</ele>
        <time>2021-05-29T06:31:22Z</time>
      </trkpt>
      <trkpt lat="42.92695" lon="0.29332">
        <ele>1190.4</ele>
        <time>2021-05-29T06:31:23Z</time>
      </trkpt>
      <trkpt lat="42.92692" lon="0.29331">
        <ele>1190.4</ele>
        <time>2021-05-29T06:31:24Z</time>
      </trkpt>
      <trkpt lat="42.92691" lon="0.2933">
        <ele>1190.6</ele>
        <time>2021-05-29T06:31:25Z</time>
      </trkpt>
      <trkpt lat="42.9269" lon="0.29329">
        <ele>1190.6</ele>
        <time>2021-05-29T06:31:26Z</time>
      </trkpt>
      <trkpt lat="42.92688" lon="0.29328">
        <ele>1190.8</ele>
        <time>2021-05-29T06:31:27Z</time>
      </trkpt>
      <trkpt lat="42.92686" lon="0.29327">
        <ele>1191</ele>
        <time>2021-05-29T06:31:28Z</time>
      </trkpt>
      <trkpt lat="42.92685" lon="0.29327">
        <ele>1191</ele>
        <time>2021-05-29T06:31:29Z</time>
      </trkpt>
      <trkpt lat="42.92684" lon="0.29325">
        <ele>1191.2</ele>
        <time>2021-05-29T06:31:30Z</time>
      </trkpt>
      <trkpt lat="42.92683" lon="0.29324">
        <ele>1191.4</ele>
        <time>2021-05-29T06:31:31Z</time>
      </trkpt>
      <trkpt lat="42.9268" lon="0.29324">
        <ele>1191.6</ele>
        <time>2021-05-29T06:31:32Z</time>
      </trkpt>
      <trkpt lat="42.92678" lon="0.29325">
        <ele>1191.8</ele>
        <time>2021-05-29T06:31:33Z</time>
      </trkpt>
      <trkpt lat="42.92675" lon="0.29325">
        <ele>1192</ele>
        <time>2021-05-29T06:31:34Z</time>
      </trkpt>
      <trkpt lat="42.92673" lon="0.29325">
        <ele>1192</ele>
        <time>2021-05-29T06:31:35Z</time>
      </trkpt>
      <trkpt lat="42.92671" lon="0.29325">
        <ele>1192.2</ele>
        <time>2021-05-29T06:31:36Z</time>
      </trkpt>
      <trkpt lat="42.92668" lon="0.29325">
        <ele>1192.2</ele>
        <time>2021-05-29T06:31:37Z</time>
      </trkpt>
      <trkpt lat="42.92666" lon="0.29325">
        <ele>1192.6</ele>
        <time>2021-05-29T06:31:38Z</time>
      </trkpt>
      <trkpt lat="42.92664" lon="0.29324">
        <ele>1192.6</ele>
        <time>2021-05-29T06:31:39Z</time>
      </trkpt>
      <trkpt lat="42.92662" lon="0.29324">
        <ele>1192.8</ele>
        <time>2021-05-29T06:31:40Z</time>
      </trkpt>
      <trkpt lat="42.9266" lon="0.29324">
        <ele>1193</ele>
        <time>2021-05-29T06:31:41Z</time>
      </trkpt>
      <trkpt lat="42.92658" lon="0.29324">
        <ele>1193.2</ele>
        <time>2021-05-29T06:31:42Z</time>
      </trkpt>
      <trkpt lat="42.92656" lon="0.29323">
        <ele>1193.4</ele>
        <time>2021-05-29T06:31:43Z</time>
      </trkpt>
      <trkpt lat="42.92653" lon="0.29323">
        <ele>1193.6</ele>
        <time>2021-05-29T06:31:44Z</time>
      </trkpt>
      <trkpt lat="42.92652" lon="0.29322">
        <ele>1193.8</ele>
        <time>2021-05-29T06:31:45Z</time>
      </trkpt>
      <trkpt lat="42.9265" lon="0.29321">
        <ele>1194</ele>
        <time>2021-05-29T06:31:46Z</time>
      </trkpt>
      <trkpt lat="42.92649" lon="0.2932">
        <ele>1194.4</ele>
        <time>2021-05-29T06:31:47Z</time>
      </trkpt>
      <trkpt lat="42.92647" lon="0.2932">
        <ele>1194.2</ele>
        <time>2021-05-29T06:31:48Z</time>
      </trkpt>
      <trkpt lat="42.92646" lon="0.29319">
        <ele>1194.4</ele>
        <time>2021-05-29T06:31:49Z</time>
      </trkpt>
      <trkpt lat="42.92645" lon="0.29319">
        <ele>1194.4</ele>
        <time>2021-05-29T06:31:50Z</time>
      </trkpt>
      <trkpt lat="42.92644" lon="0.29319">
        <ele>1194.8</ele>
        <time>2021-05-29T06:31:51Z</time>
      </trkpt>
      <trkpt lat="42.92643" lon="0.2932">
        <ele>1194.8</ele>
        <time>2021-05-29T06:31:52Z</time>
      </trkpt>
      <trkpt lat="42.92641" lon="0.2932">
        <ele>1195.2</ele>
        <time>2021-05-29T06:31:53Z</time>
      </trkpt>
      <trkpt lat="42.92639" lon="0.29319">
        <ele>1195.2</ele>
        <time>2021-05-29T06:31:54Z</time>
      </trkpt>
      <trkpt lat="42.92637" lon="0.29318">
        <ele>1195.4</ele>
        <time>2021-05-29T06:31:55Z</time>
      </trkpt>
      <trkpt lat="42.92635" lon="0.29318">
        <ele>1195.4</ele>
        <time>2021-05-29T06:31:56Z</time>
      </trkpt>
      <trkpt lat="42.92633" lon="0.29317">
        <ele>1195.8</ele>
        <time>2021-05-29T06:31:57Z</time>
      </trkpt>
      <trkpt lat="42.92632" lon="0.29317">
        <ele>1195.8</ele>
        <time>2021-05-29T06:31:58Z</time>
      </trkpt>
      <trkpt lat="42.92631" lon="0.29316">
        <ele>1196</ele>
        <time>2021-05-29T06:31:59Z</time>
      </trkpt>
      <trkpt lat="42.92629" lon="0.29316">
        <ele>1196.2</ele>
        <time>2021-05-29T06:32:00Z</time>
      </trkpt>
      <trkpt lat="42.92628" lon="0.29316">
        <ele>1196.4</ele>
        <time>2021-05-29T06:32:01Z</time>
      </trkpt>
      <trkpt lat="42.92626" lon="0.29315">
        <ele>1196.4</ele>
        <time>2021-05-29T06:32:02Z</time>
      </trkpt>
      <trkpt lat="42.92625" lon="0.29315">
        <ele>1196.4</ele>
        <time>2021-05-29T06:32:03Z</time>
      </trkpt>
      <trkpt lat="42.92623" lon="0.29314">
        <ele>1196.6</ele>
        <time>2021-05-29T06:32:04Z</time>
      </trkpt>
      <trkpt lat="42.92622" lon="0.29314">
        <ele>1196.6</ele>
        <time>2021-05-29T06:32:05Z</time>
      </trkpt>
      <trkpt lat="42.9262" lon="0.29314">
        <ele>1196.8</ele>
        <time>2021-05-29T06:32:06Z</time>
      </trkpt>
      <trkpt lat="42.92619" lon="0.29313">
        <ele>1197</ele>
        <time>2021-05-29T06:32:07Z</time>
      </trkpt>
      <trkpt lat="42.92619" lon="0.29313">
        <ele>1197.4</ele>
        <time>2021-05-29T06:32:08Z</time>
      </trkpt>
      <trkpt lat="42.92618" lon="0.29313">
        <ele>1197.6</ele>
        <time>2021-05-29T06:32:09Z</time>
      </trkpt>
      <trkpt lat="42.92617" lon="0.29313">
        <ele>1197.8</ele>
        <time>2021-05-29T06:32:10Z</time>
      </trkpt>
      <trkpt lat="42.92616" lon="0.29312">
        <ele>1198</ele>
        <time>2021-05-29T06:32:11Z</time>
      </trkpt>
      <trkpt lat="42.92615" lon="0.29312">
        <ele>1198.2</ele>
        <time>2021-05-29T06:32:12Z</time>
      </trkpt>
      <trkpt lat="42.92613" lon="0.29312">
        <ele>1198.4</ele>
        <time>2021-05-29T06:32:13Z</time>
      </trkpt>
      <trkpt lat="42.92611" lon="0.29311">
        <ele>1198.6</ele>
        <time>2021-05-29T06:32:14Z</time>
      </trkpt>
      <trkpt lat="42.92609" lon="0.29309">
        <ele>1198.8</ele>
        <time>2021-05-29T06:32:15Z</time>
      </trkpt>
      <trkpt lat="42.92606" lon="0.29308">
        <ele>1199</ele>
        <time>2021-05-29T06:32:16Z</time>
      </trkpt>
      <trkpt lat="42.92603" lon="0.29306">
        <ele>1199.2</ele>
        <time>2021-05-29T06:32:17Z</time>
      </trkpt>
      <trkpt lat="42.92601" lon="0.29304">
        <ele>1199.2</ele>
        <time>2021-05-29T06:32:18Z</time>
      </trkpt>
      <trkpt lat="42.926" lon="0.29303">
        <ele>1199.4</ele>
        <time>2021-05-29T06:32:19Z</time>
      </trkpt>
      <trkpt lat="42.92597" lon="0.29302">
        <ele>1199.4</ele>
        <time>2021-05-29T06:32:20Z</time>
      </trkpt>
      <trkpt lat="42.92595" lon="0.29301">
        <ele>1199.4</ele>
        <time>2021-05-29T06:32:21Z</time>
      </trkpt>
      <trkpt lat="42.92593" lon="0.293">
        <ele>1199.6</ele>
        <time>2021-05-29T06:32:22Z</time>
      </trkpt>
      <trkpt lat="42.92591" lon="0.29299">
        <ele>1199.8</ele>
        <time>2021-05-29T06:32:23Z</time>
      </trkpt>
      <trkpt lat="42.92589" lon="0.29299">
        <ele>1200</ele>
        <time>2021-05-29T06:32:24Z</time>
      </trkpt>
      <trkpt lat="42.92588" lon="0.29299">
        <ele>1200.2</ele>
        <time>2021-05-29T06:32:25Z</time>
      </trkpt>
      <trkpt lat="42.92587" lon="0.29299">
        <ele>1200.4</ele>
        <time>2021-05-29T06:32:26Z</time>
      </trkpt>
      <trkpt lat="42.92586" lon="0.29298">
        <ele>1200.6</ele>
        <time>2021-05-29T06:32:27Z</time>
      </trkpt>
      <trkpt lat="42.92584" lon="0.29298">
        <ele>1200.8</ele>
        <time>2021-05-29T06:32:28Z</time>
      </trkpt>
      <trkpt lat="42.92581" lon="0.29296">
        <ele>1200.8</ele>
        <time>2021-05-29T06:32:29Z</time>
      </trkpt>
      <trkpt lat="42.92579" lon="0.29295">
        <ele>1200.8</ele>
        <time>2021-05-29T06:32:30Z</time>
      </trkpt>
      <trkpt lat="42.92578" lon="0.29294">
        <ele>1201.2</ele>
        <time>2021-05-29T06:32:31Z</time>
      </trkpt>
      <trkpt lat="42.92577" lon="0.29293">
        <ele>1201.2</ele>
        <time>2021-05-29T06:32:32Z</time>
      </trkpt>
      <trkpt lat="42.92575" lon="0.29292">
        <ele>1201.4</ele>
        <time>2021-05-29T06:32:33Z</time>
      </trkpt>
      <trkpt lat="42.92573" lon="0.29292">
        <ele>1201.6</ele>
        <time>2021-05-29T06:32:34Z</time>
      </trkpt>
      <trkpt lat="42.92572" lon="0.29291">
        <ele>1201.8</ele>
        <time>2021-05-29T06:32:35Z</time>
      </trkpt>
      <trkpt lat="42.92571" lon="0.29291">
        <ele>1202</ele>
        <time>2021-05-29T06:32:36Z</time>
      </trkpt>
      <trkpt lat="42.92569" lon="0.2929">
        <ele>1202</ele>
        <time>2021-05-29T06:32:37Z</time>
      </trkpt>
      <trkpt lat="42.92568" lon="0.2929">
        <ele>1202.2</ele>
        <time>2021-05-29T06:32:38Z</time>
      </trkpt>
      <trkpt lat="42.92568" lon="0.29289">
        <ele>1202.4</ele>
        <time>2021-05-29T06:32:39Z</time>
      </trkpt>
      <trkpt lat="42.92566" lon="0.29289">
        <ele>1202.4</ele>
        <time>2021-05-29T06:32:40Z</time>
      </trkpt>
      <trkpt lat="42.92565" lon="0.29288">
        <ele>1202.6</ele>
        <time>2021-05-29T06:32:41Z</time>
      </trkpt>
      <trkpt lat="42.92563" lon="0.29287">
        <ele>1202.8</ele>
        <time>2021-05-29T06:32:42Z</time>
      </trkpt>
      <trkpt lat="42.92561" lon="0.29287">
        <ele>1203</ele>
        <time>2021-05-29T06:32:43Z</time>
      </trkpt>
      <trkpt lat="42.9256" lon="0.29287">
        <ele>1203.2</ele>
        <time>2021-05-29T06:32:44Z</time>
      </trkpt>
      <trkpt lat="42.9256" lon="0.29287">
        <ele>1203.2</ele>
        <time>2021-05-29T06:32:45Z</time>
      </trkpt>
      <trkpt lat="42.92559" lon="0.29286">
        <ele>1203.4</ele>
        <time>2021-05-29T06:32:46Z</time>
      </trkpt>
      <trkpt lat="42.92558" lon="0.29285">
        <ele>1203.4</ele>
        <time>2021-05-29T06:32:47Z</time>
      </trkpt>
      <trkpt lat="42.92555" lon="0.29284">
        <ele>1203.8</ele>
        <time>2021-05-29T06:32:48Z</time>
      </trkpt>
      <trkpt lat="42.92553" lon="0.29283">
        <ele>1203.8</ele>
        <time>2021-05-29T06:32:49Z</time>
      </trkpt>
      <trkpt lat="42.92551" lon="0.29283">
        <ele>1204</ele>
        <time>2021-05-29T06:32:50Z</time>
      </trkpt>
      <trkpt lat="42.92548" lon="0.29282">
        <ele>1204.2</ele>
        <time>2021-05-29T06:32:51Z</time>
      </trkpt>
      <trkpt lat="42.92547" lon="0.29282">
        <ele>1204.4</ele>
        <time>2021-05-29T06:32:52Z</time>
      </trkpt>
      <trkpt lat="42.92546" lon="0.2928">
        <ele>1204.6</ele>
        <time>2021-05-29T06:32:53Z</time>
      </trkpt>
      <trkpt lat="42.92544" lon="0.2928">
        <ele>1204.8</ele>
        <time>2021-05-29T06:32:54Z</time>
      </trkpt>
      <trkpt lat="42.92542" lon="0.29279">
        <ele>1204.8</ele>
        <time>2021-05-29T06:32:55Z</time>
      </trkpt>
      <trkpt lat="42.92539" lon="0.29279">
        <ele>1205</ele>
        <time>2021-05-29T06:32:56Z</time>
      </trkpt>
      <trkpt lat="42.92537" lon="0.29278">
        <ele>1205.2</ele>
        <time>2021-05-29T06:32:57Z</time>
      </trkpt>
      <trkpt lat="42.92535" lon="0.29277">
        <ele>1205.4</ele>
        <time>2021-05-29T06:32:58Z</time>
      </trkpt>
      <trkpt lat="42.92533" lon="0.29275">
        <ele>1205.6</ele>
        <time>2021-05-29T06:32:59Z</time>
      </trkpt>
      <trkpt lat="42.92531" lon="0.29274">
        <ele>1205.8</ele>
        <time>2021-05-29T06:33:00Z</time>
      </trkpt>
      <trkpt lat="42.92528" lon="0.29274">
        <ele>1206</ele>
        <time>2021-05-29T06:33:01Z</time>
      </trkpt>
      <trkpt lat="42.92525" lon="0.29275">
        <ele>1206.2</ele>
        <time>2021-05-29T06:33:02Z</time>
      </trkpt>
      <trkpt lat="42.92523" lon="0.29276">
        <ele>1206.4</ele>
        <time>2021-05-29T06:33:03Z</time>
      </trkpt>
      <trkpt lat="42.92522" lon="0.29276">
        <ele>1206.6</ele>
        <time>2021-05-29T06:33:04Z</time>
      </trkpt>
      <trkpt lat="42.92519" lon="0.29276">
        <ele>1206.8</ele>
        <time>2021-05-29T06:33:05Z</time>
      </trkpt>
      <trkpt lat="42.92517" lon="0.29277">
        <ele>1206.8</ele>
        <time>2021-05-29T06:33:06Z</time>
      </trkpt>
      <trkpt lat="42.92517" lon="0.29277">
        <ele>1207</ele>
        <time>2021-05-29T06:33:07Z</time>
      </trkpt>
      <trkpt lat="42.92516" lon="0.29277">
        <ele>1207</ele>
        <time>2021-05-29T06:33:08Z</time>
      </trkpt>
      <trkpt lat="42.92513" lon="0.29279">
        <ele>1207.2</ele>
        <time>2021-05-29T06:33:09Z</time>
      </trkpt>
      <trkpt lat="42.92512" lon="0.2928">
        <ele>1207.2</ele>
        <time>2021-05-29T06:33:10Z</time>
      </trkpt>
      <trkpt lat="42.9251" lon="0.29281">
        <ele>1207.4</ele>
        <time>2021-05-29T06:33:11Z</time>
      </trkpt>
      <trkpt lat="42.92507" lon="0.29281">
        <ele>1207.6</ele>
        <time>2021-05-29T06:33:12Z</time>
      </trkpt>
      <trkpt lat="42.92505" lon="0.29281">
        <ele>1207.8</ele>
        <time>2021-05-29T06:33:13Z</time>
      </trkpt>
      <trkpt lat="42.92504" lon="0.29281">
        <ele>1207.8</ele>
        <time>2021-05-29T06:33:14Z</time>
      </trkpt>
      <trkpt lat="42.92503" lon="0.29281">
        <ele>1208</ele>
        <time>2021-05-29T06:33:15Z</time>
      </trkpt>
      <trkpt lat="42.92503" lon="0.29279">
        <ele>1208</ele>
        <time>2021-05-29T06:33:16Z</time>
      </trkpt>
      <trkpt lat="42.92502" lon="0.29278">
        <ele>1208.2</ele>
        <time>2021-05-29T06:33:17Z</time>
      </trkpt>
      <trkpt lat="42.92499" lon="0.29279">
        <ele>1208.2</ele>
        <time>2021-05-29T06:33:18Z</time>
      </trkpt>
      <trkpt lat="42.92497" lon="0.29278">
        <ele>1208.4</ele>
        <time>2021-05-29T06:33:19Z</time>
      </trkpt>
      <trkpt lat="42.92495" lon="0.29278">
        <ele>1208.6</ele>
        <time>2021-05-29T06:33:20Z</time>
      </trkpt>
      <trkpt lat="42.92494" lon="0.29278">
        <ele>1208.6</ele>
        <time>2021-05-29T06:33:21Z</time>
      </trkpt>
      <trkpt lat="42.92494" lon="0.29278">
        <ele>1209</ele>
        <time>2021-05-29T06:33:22Z</time>
      </trkpt>
      <trkpt lat="42.92491" lon="0.29278">
        <ele>1209</ele>
        <time>2021-05-29T06:33:23Z</time>
      </trkpt>
      <trkpt lat="42.92489" lon="0.29279">
        <ele>1209.2</ele>
        <time>2021-05-29T06:33:24Z</time>
      </trkpt>
      <trkpt lat="42.92486" lon="0.2928">
        <ele>1209.4</ele>
        <time>2021-05-29T06:33:25Z</time>
      </trkpt>
      <trkpt lat="42.92484" lon="0.29281">
        <ele>1209.6</ele>
        <time>2021-05-29T06:33:26Z</time>
      </trkpt>
      <trkpt lat="42.92482" lon="0.29281">
        <ele>1209.6</ele>
        <time>2021-05-29T06:33:27Z</time>
      </trkpt>
      <trkpt lat="42.9248" lon="0.29282">
        <ele>1209.8</ele>
        <time>2021-05-29T06:33:28Z</time>
      </trkpt>
      <trkpt lat="42.92478" lon="0.29282">
        <ele>1209.8</ele>
        <time>2021-05-29T06:33:29Z</time>
      </trkpt>
      <trkpt lat="42.92477" lon="0.29282">
        <ele>1210</ele>
        <time>2021-05-29T06:33:30Z</time>
      </trkpt>
      <trkpt lat="42.92474" lon="0.29282">
        <ele>1210.2</ele>
        <time>2021-05-29T06:33:31Z</time>
      </trkpt>
      <trkpt lat="42.92471" lon="0.29283">
        <ele>1210.4</ele>
        <time>2021-05-29T06:33:32Z</time>
      </trkpt>
      <trkpt lat="42.92469" lon="0.29283">
        <ele>1210.6</ele>
        <time>2021-05-29T06:33:33Z</time>
      </trkpt>
      <trkpt lat="42.92468" lon="0.29284">
        <ele>1210.8</ele>
        <time>2021-05-29T06:33:34Z</time>
      </trkpt>
      <trkpt lat="42.92466" lon="0.29285">
        <ele>1210.8</ele>
        <time>2021-05-29T06:33:35Z</time>
      </trkpt>
      <trkpt lat="42.92463" lon="0.29286">
        <ele>1211</ele>
        <time>2021-05-29T06:33:36Z</time>
      </trkpt>
      <trkpt lat="42.9246" lon="0.29287">
        <ele>1211.2</ele>
        <time>2021-05-29T06:33:37Z</time>
      </trkpt>
      <trkpt lat="42.92458" lon="0.29287">
        <ele>1211.4</ele>
        <time>2021-05-29T06:33:38Z</time>
      </trkpt>
      <trkpt lat="42.92455" lon="0.29288">
        <ele>1211.4</ele>
        <time>2021-05-29T06:33:39Z</time>
      </trkpt>
      <trkpt lat="42.92453" lon="0.29289">
        <ele>1211.4</ele>
        <time>2021-05-29T06:33:40Z</time>
      </trkpt>
      <trkpt lat="42.92452" lon="0.2929">
        <ele>1211.6</ele>
        <time>2021-05-29T06:33:41Z</time>
      </trkpt>
      <trkpt lat="42.92452" lon="0.2929">
        <ele>1211.6</ele>
        <time>2021-05-29T06:33:42Z</time>
      </trkpt>
      <trkpt lat="42.92451" lon="0.2929">
        <ele>1212</ele>
        <time>2021-05-29T06:33:43Z</time>
      </trkpt>
      <trkpt lat="42.92449" lon="0.29291">
        <ele>1212</ele>
        <time>2021-05-29T06:33:44Z</time>
      </trkpt>
      <trkpt lat="42.92448" lon="0.29291">
        <ele>1212.4</ele>
        <time>2021-05-29T06:33:45Z</time>
      </trkpt>
      <trkpt lat="42.92448" lon="0.29293">
        <ele>1212.4</ele>
        <time>2021-05-29T06:33:46Z</time>
      </trkpt>
      <trkpt lat="42.92446" lon="0.29293">
        <ele>1212.8</ele>
        <time>2021-05-29T06:33:47Z</time>
      </trkpt>
      <trkpt lat="42.92446" lon="0.29294">
        <ele>1213</ele>
        <time>2021-05-29T06:33:48Z</time>
      </trkpt>
      <trkpt lat="42.92444" lon="0.29293">
        <ele>1213.2</ele>
        <time>2021-05-29T06:33:49Z</time>
      </trkpt>
      <trkpt lat="42.92442" lon="0.29294">
        <ele>1213.4</ele>
        <time>2021-05-29T06:33:50Z</time>
      </trkpt>
      <trkpt lat="42.9244" lon="0.29295">
        <ele>1213.6</ele>
        <time>2021-05-29T06:33:51Z</time>
      </trkpt>
      <trkpt lat="42.92438" lon="0.29295">
        <ele>1213.6</ele>
        <time>2021-05-29T06:33:52Z</time>
      </trkpt>
      <trkpt lat="42.92435" lon="0.29296">
        <ele>1213.8</ele>
        <time>2021-05-29T06:33:53Z</time>
      </trkpt>
      <trkpt lat="42.92432" lon="0.29297">
        <ele>1214</ele>
        <time>2021-05-29T06:33:54Z</time>
      </trkpt>
      <trkpt lat="42.92431" lon="0.29297">
        <ele>1214</ele>
        <time>2021-05-29T06:33:55Z</time>
      </trkpt>
      <trkpt lat="42.9243" lon="0.29297">
        <ele>1214.2</ele>
        <time>2021-05-29T06:33:56Z</time>
      </trkpt>
      <trkpt lat="42.92428" lon="0.29297">
        <ele>1214.2</ele>
        <time>2021-05-29T06:33:57Z</time>
      </trkpt>
      <trkpt lat="42.92425" lon="0.29297">
        <ele>1214.4</ele>
        <time>2021-05-29T06:33:58Z</time>
      </trkpt>
      <trkpt lat="42.92423" lon="0.29298">
        <ele>1214.6</ele>
        <time>2021-05-29T06:33:59Z</time>
      </trkpt>
      <trkpt lat="42.92421" lon="0.29299">
        <ele>1214.8</ele>
        <time>2021-05-29T06:34:00Z</time>
      </trkpt>
      <trkpt lat="42.9242" lon="0.293">
        <ele>1215</ele>
        <time>2021-05-29T06:34:01Z</time>
      </trkpt>
      <trkpt lat="42.92418" lon="0.29302">
        <ele>1215</ele>
        <time>2021-05-29T06:34:02Z</time>
      </trkpt>
      <trkpt lat="42.92416" lon="0.29302">
        <ele>1215</ele>
        <time>2021-05-29T06:34:03Z</time>
      </trkpt>
      <trkpt lat="42.92414" lon="0.29303">
        <ele>1215.2</ele>
        <time>2021-05-29T06:34:04Z</time>
      </trkpt>
      <trkpt lat="42.92412" lon="0.29303">
        <ele>1215.4</ele>
        <time>2021-05-29T06:34:05Z</time>
      </trkpt>
      <trkpt lat="42.92411" lon="0.29304">
        <ele>1215.4</ele>
        <time>2021-05-29T06:34:06Z</time>
      </trkpt>
      <trkpt lat="42.92409" lon="0.29303">
        <ele>1215.6</ele>
        <time>2021-05-29T06:34:07Z</time>
      </trkpt>
      <trkpt lat="42.92407" lon="0.29304">
        <ele>1215.8</ele>
        <time>2021-05-29T06:34:08Z</time>
      </trkpt>
      <trkpt lat="42.92405" lon="0.29303">
        <ele>1215.8</ele>
        <time>2021-05-29T06:34:09Z</time>
      </trkpt>
      <trkpt lat="42.92403" lon="0.29303">
        <ele>1216</ele>
        <time>2021-05-29T06:34:10Z</time>
      </trkpt>
      <trkpt lat="42.92401" lon="0.29304">
        <ele>1216.4</ele>
        <time>2021-05-29T06:34:11Z</time>
      </trkpt>
      <trkpt lat="42.92399" lon="0.29305">
        <ele>1216.6</ele>
        <time>2021-05-29T06:34:12Z</time>
      </trkpt>
      <trkpt lat="42.92397" lon="0.29307">
        <ele>1216.8</ele>
        <time>2021-05-29T06:34:13Z</time>
      </trkpt>
      <trkpt lat="42.92395" lon="0.29308">
        <ele>1217</ele>
        <time>2021-05-29T06:34:14Z</time>
      </trkpt>
      <trkpt lat="42.92393" lon="0.29309">
        <ele>1217</ele>
        <time>2021-05-29T06:34:15Z</time>
      </trkpt>
      <trkpt lat="42.92392" lon="0.2931">
        <ele>1217.2</ele>
        <time>2021-05-29T06:34:16Z</time>
      </trkpt>
      <trkpt lat="42.9239" lon="0.29311">
        <ele>1217.2</ele>
        <time>2021-05-29T06:34:17Z</time>
      </trkpt>
      <trkpt lat="42.92387" lon="0.29312">
        <ele>1217.2</ele>
        <time>2021-05-29T06:34:18Z</time>
      </trkpt>
      <trkpt lat="42.92385" lon="0.29312">
        <ele>1217.4</ele>
        <time>2021-05-29T06:34:19Z</time>
      </trkpt>
      <trkpt lat="42.92382" lon="0.29312">
        <ele>1217.4</ele>
        <time>2021-05-29T06:34:20Z</time>
      </trkpt>
      <trkpt lat="42.9238" lon="0.29313">
        <ele>1217.6</ele>
        <time>2021-05-29T06:34:21Z</time>
      </trkpt>
      <trkpt lat="42.92379" lon="0.29314">
        <ele>1217.6</ele>
        <time>2021-05-29T06:34:22Z</time>
      </trkpt>
      <trkpt lat="42.92378" lon="0.29315">
        <ele>1217.8</ele>
        <time>2021-05-29T06:34:23Z</time>
      </trkpt>
      <trkpt lat="42.92376" lon="0.29316">
        <ele>1218</ele>
        <time>2021-05-29T06:34:24Z</time>
      </trkpt>
      <trkpt lat="42.92374" lon="0.29316">
        <ele>1218.2</ele>
        <time>2021-05-29T06:34:25Z</time>
      </trkpt>
      <trkpt lat="42.92373" lon="0.29317">
        <ele>1218.4</ele>
        <time>2021-05-29T06:34:26Z</time>
      </trkpt>
      <trkpt lat="42.92371" lon="0.29318">
        <ele>1218.6</ele>
        <time>2021-05-29T06:34:27Z</time>
      </trkpt>
      <trkpt lat="42.92369" lon="0.29318">
        <ele>1218.6</ele>
        <time>2021-05-29T06:34:28Z</time>
      </trkpt>
      <trkpt lat="42.92367" lon="0.29318">
        <ele>1218.8</ele>
        <time>2021-05-29T06:34:29Z</time>
      </trkpt>
      <trkpt lat="42.92365" lon="0.29318">
        <ele>1219</ele>
        <time>2021-05-29T06:34:30Z</time>
      </trkpt>
      <trkpt lat="42.92363" lon="0.29319">
        <ele>1219.2</ele>
        <time>2021-05-29T06:34:31Z</time>
      </trkpt>
      <trkpt lat="42.9236" lon="0.29319">
        <ele>1219.6</ele>
        <time>2021-05-29T06:34:32Z</time>
      </trkpt>
      <trkpt lat="42.92358" lon="0.29319">
        <ele>1219.6</ele>
        <time>2021-05-29T06:34:33Z</time>
      </trkpt>
      <trkpt lat="42.92356" lon="0.2932">
        <ele>1219.8</ele>
        <time>2021-05-29T06:34:34Z</time>
      </trkpt>
      <trkpt lat="42.92354" lon="0.29321">
        <ele>1219.8</ele>
        <time>2021-05-29T06:34:35Z</time>
      </trkpt>
      <trkpt lat="42.92352" lon="0.29321">
        <ele>1220</ele>
        <time>2021-05-29T06:34:36Z</time>
      </trkpt>
      <trkpt lat="42.9235" lon="0.29322">
        <ele>1220.2</ele>
        <time>2021-05-29T06:34:37Z</time>
      </trkpt>
      <trkpt lat="42.92349" lon="0.29324">
        <ele>1220.4</ele>
        <time>2021-05-29T06:34:38Z</time>
      </trkpt>
      <trkpt lat="42.92348" lon="0.29326">
        <ele>1220.4</ele>
        <time>2021-05-29T06:34:39Z</time>
      </trkpt>
      <trkpt lat="42.92348" lon="0.29328">
        <ele>1220.6</ele>
        <time>2021-05-29T06:34:40Z</time>
      </trkpt>
      <trkpt lat="42.92348" lon="0.2933">
        <ele>1220.6</ele>
        <time>2021-05-29T06:34:41Z</time>
      </trkpt>
      <trkpt lat="42.92348" lon="0.29332">
        <ele>1220.8</ele>
        <time>2021-05-29T06:34:42Z</time>
      </trkpt>
      <trkpt lat="42.92348" lon="0.29334">
        <ele>1221</ele>
        <time>2021-05-29T06:34:43Z</time>
      </trkpt>
      <trkpt lat="42.92349" lon="0.29334">
        <ele>1221</ele>
        <time>2021-05-29T06:34:44Z</time>
      </trkpt>
      <trkpt lat="42.92349" lon="0.29335">
        <ele>1221.2</ele>
        <time>2021-05-29T06:34:45Z</time>
      </trkpt>
      <trkpt lat="42.9235" lon="0.29335">
        <ele>1221.2</ele>
        <time>2021-05-29T06:34:46Z</time>
      </trkpt>
      <trkpt lat="42.92349" lon="0.29335">
        <ele>1221.4</ele>
        <time>2021-05-29T06:34:47Z</time>
      </trkpt>
      <trkpt lat="42.9235" lon="0.29335">
        <ele>1221.8</ele>
        <time>2021-05-29T06:34:48Z</time>
      </trkpt>
      <trkpt lat="42.9235" lon="0.29335">
        <ele>1222</ele>
        <time>2021-05-29T06:34:49Z</time>
      </trkpt>
      <trkpt lat="42.9235" lon="0.29335">
        <ele>1222</ele>
        <time>2021-05-29T06:34:50Z</time>
      </trkpt>
      <trkpt lat="42.92351" lon="0.29336">
        <ele>1222</ele>
        <time>2021-05-29T06:34:51Z</time>
      </trkpt>
      <trkpt lat="42.92351" lon="0.29336">
        <ele>1222</ele>
        <time>2021-05-29T06:34:52Z</time>
      </trkpt>
      <trkpt lat="42.92351" lon="0.29336">
        <ele>1222</ele>
        <time>2021-05-29T06:34:53Z</time>
      </trkpt>
      <trkpt lat="42.92351" lon="0.29336">
        <ele>1222</ele>
        <time>2021-05-29T06:34:54Z</time>
      </trkpt>
      <trkpt lat="42.92351" lon="0.29336">
        <ele>1222</ele>
        <time>2021-05-29T06:34:55Z</time>
      </trkpt>
      <trkpt lat="42.92351" lon="0.29336">
        <ele>1221.8</ele>
        <time>2021-05-29T06:34:56Z</time>
      </trkpt>
      <trkpt lat="42.92351" lon="0.29336">
        <ele>1221.4</ele>
        <time>2021-05-29T06:35:04Z</time>
      </trkpt>
      <trkpt lat="42.92351" lon="0.29335">
        <ele>1221.2</ele>
        <time>2021-05-29T06:35:37Z</time>
      </trkpt>
      <trkpt lat="42.92351" lon="0.29335">
        <ele>1221.2</ele>
        <time>2021-05-29T06:36:06Z</time>
      </trkpt>
      <trkpt lat="42.92351" lon="0.29335">
        <ele>1221.8</ele>
        <time>2021-05-29T06:36:34Z</time>
      </trkpt>
      <trkpt lat="42.92351" lon="0.29335">
        <ele>1222</ele>
        <time>2021-05-29T06:36:38Z</time>
      </trkpt>
      <trkpt lat="42.92351" lon="0.29334">
        <ele>1221.8</ele>
        <time>2021-05-29T06:36:46Z</time>
      </trkpt>
      <trkpt lat="42.92357" lon="0.29333">
        <ele>1221.8</ele>
        <time>2021-05-29T06:36:49Z</time>
      </trkpt>
      <trkpt lat="42.92364" lon="0.29333">
        <ele>1222</ele>
        <time>2021-05-29T06:36:52Z</time>
      </trkpt>
      <trkpt lat="42.92366" lon="0.29333">
        <ele>1222</ele>
        <time>2021-05-29T06:36:53Z</time>
      </trkpt>
      <trkpt lat="42.92368" lon="0.29332">
        <ele>1222</ele>
        <time>2021-05-29T06:36:54Z</time>
      </trkpt>
      <trkpt lat="42.92371" lon="0.29333">
        <ele>1222.2</ele>
        <time>2021-05-29T06:36:56Z</time>
      </trkpt>
      <trkpt lat="42.92377" lon="0.29334">
        <ele>1222.4</ele>
        <time>2021-05-29T06:36:59Z</time>
      </trkpt>
      <trkpt lat="42.92378" lon="0.29335">
        <ele>1222.4</ele>
        <time>2021-05-29T06:37:00Z</time>
      </trkpt>
      <trkpt lat="42.9238" lon="0.29336">
        <ele>1222.6</ele>
        <time>2021-05-29T06:37:01Z</time>
      </trkpt>
      <trkpt lat="42.92382" lon="0.29337">
        <ele>1222.6</ele>
        <time>2021-05-29T06:37:02Z</time>
      </trkpt>
      <trkpt lat="42.92384" lon="0.29338">
        <ele>1222.8</ele>
        <time>2021-05-29T06:37:03Z</time>
      </trkpt>
      <trkpt lat="42.92386" lon="0.2934">
        <ele>1222.8</ele>
        <time>2021-05-29T06:37:05Z</time>
      </trkpt>
      <trkpt lat="42.92387" lon="0.29341">
        <ele>1223.2</ele>
        <time>2021-05-29T06:37:06Z</time>
      </trkpt>
      <trkpt lat="42.9239" lon="0.29343">
        <ele>1223.6</ele>
        <time>2021-05-29T06:37:08Z</time>
      </trkpt>
      <trkpt lat="42.92398" lon="0.29349">
        <ele>1224.6</ele>
        <time>2021-05-29T06:37:13Z</time>
      </trkpt>
      <trkpt lat="42.92401" lon="0.29352">
        <ele>1225</ele>
        <time>2021-05-29T06:37:15Z</time>
      </trkpt>
      <trkpt lat="42.92402" lon="0.29352">
        <ele>1225.2</ele>
        <time>2021-05-29T06:37:16Z</time>
      </trkpt>
      <trkpt lat="42.92403" lon="0.29353">
        <ele>1225.6</ele>
        <time>2021-05-29T06:37:17Z</time>
      </trkpt>
      <trkpt lat="42.92405" lon="0.29354">
        <ele>1225.8</ele>
        <time>2021-05-29T06:37:18Z</time>
      </trkpt>
      <trkpt lat="42.92406" lon="0.29354">
        <ele>1226.4</ele>
        <time>2021-05-29T06:37:19Z</time>
      </trkpt>
      <trkpt lat="42.92407" lon="0.29354">
        <ele>1226.4</ele>
        <time>2021-05-29T06:37:20Z</time>
      </trkpt>
      <trkpt lat="42.92408" lon="0.29355">
        <ele>1226.8</ele>
        <time>2021-05-29T06:37:21Z</time>
      </trkpt>
      <trkpt lat="42.92408" lon="0.29354">
        <ele>1226.8</ele>
        <time>2021-05-29T06:37:22Z</time>
      </trkpt>
      <trkpt lat="42.92409" lon="0.29355">
        <ele>1227.2</ele>
        <time>2021-05-29T06:37:23Z</time>
      </trkpt>
      <trkpt lat="42.92411" lon="0.29356">
        <ele>1227</ele>
        <time>2021-05-29T06:37:24Z</time>
      </trkpt>
      <trkpt lat="42.92413" lon="0.29357">
        <ele>1227.4</ele>
        <time>2021-05-29T06:37:25Z</time>
      </trkpt>
      <trkpt lat="42.92413" lon="0.29357">
        <ele>1227.6</ele>
        <time>2021-05-29T06:37:26Z</time>
      </trkpt>
      <trkpt lat="42.92413" lon="0.29357">
        <ele>1228</ele>
        <time>2021-05-29T06:37:27Z</time>
      </trkpt>
      <trkpt lat="42.92414" lon="0.29357">
        <ele>1228</ele>
        <time>2021-05-29T06:37:28Z</time>
      </trkpt>
      <trkpt lat="42.92415" lon="0.29358">
        <ele>1228.4</ele>
        <time>2021-05-29T06:37:29Z</time>
      </trkpt>
      <trkpt lat="42.92417" lon="0.29358">
        <ele>1228.6</ele>
        <time>2021-05-29T06:37:30Z</time>
      </trkpt>
      <trkpt lat="42.9242" lon="0.2936">
        <ele>1228.8</ele>
        <time>2021-05-29T06:37:31Z</time>
      </trkpt>
      <trkpt lat="42.92421" lon="0.29361">
        <ele>1228.8</ele>
        <time>2021-05-29T06:37:32Z</time>
      </trkpt>
      <trkpt lat="42.92422" lon="0.29362">
        <ele>1229.2</ele>
        <time>2021-05-29T06:37:33Z</time>
      </trkpt>
      <trkpt lat="42.92425" lon="0.29363">
        <ele>1229.2</ele>
        <time>2021-05-29T06:37:34Z</time>
      </trkpt>
      <trkpt lat="42.92427" lon="0.29364">
        <ele>1229.6</ele>
        <time>2021-05-29T06:37:35Z</time>
      </trkpt>
      <trkpt lat="42.92429" lon="0.29366">
        <ele>1230</ele>
        <time>2021-05-29T06:37:36Z</time>
      </trkpt>
      <trkpt lat="42.92432" lon="0.29367">
        <ele>1230</ele>
        <time>2021-05-29T06:37:37Z</time>
      </trkpt>
      <trkpt lat="42.92435" lon="0.29368">
        <ele>1230.4</ele>
        <time>2021-05-29T06:37:38Z</time>
      </trkpt>
      <trkpt lat="42.92435" lon="0.29369">
        <ele>1230.4</ele>
        <time>2021-05-29T06:37:39Z</time>
      </trkpt>
      <trkpt lat="42.92437" lon="0.2937">
        <ele>1230.8</ele>
        <time>2021-05-29T06:37:40Z</time>
      </trkpt>
      <trkpt lat="42.92438" lon="0.29372">
        <ele>1231</ele>
        <time>2021-05-29T06:37:41Z</time>
      </trkpt>
      <trkpt lat="42.9244" lon="0.29374">
        <ele>1231</ele>
        <time>2021-05-29T06:37:42Z</time>
      </trkpt>
      <trkpt lat="42.92441" lon="0.29375">
        <ele>1231.2</ele>
        <time>2021-05-29T06:37:43Z</time>
      </trkpt>
      <trkpt lat="42.92442" lon="0.29376">
        <ele>1231.4</ele>
        <time>2021-05-29T06:37:44Z</time>
      </trkpt>
      <trkpt lat="42.92444" lon="0.29377">
        <ele>1231.6</ele>
        <time>2021-05-29T06:37:45Z</time>
      </trkpt>
      <trkpt lat="42.92446" lon="0.29379">
        <ele>1232</ele>
        <time>2021-05-29T06:37:46Z</time>
      </trkpt>
      <trkpt lat="42.92447" lon="0.29381">
        <ele>1232.2</ele>
        <time>2021-05-29T06:37:47Z</time>
      </trkpt>
      <trkpt lat="42.92449" lon="0.29384">
        <ele>1232.4</ele>
        <time>2021-05-29T06:37:48Z</time>
      </trkpt>
      <trkpt lat="42.92451" lon="0.29388">
        <ele>1232.6</ele>
        <time>2021-05-29T06:37:49Z</time>
      </trkpt>
      <trkpt lat="42.92451" lon="0.29388">
        <ele>1232.8</ele>
        <time>2021-05-29T06:37:50Z</time>
      </trkpt>
      <trkpt lat="42.92451" lon="0.29388">
        <ele>1233</ele>
        <time>2021-05-29T06:37:51Z</time>
      </trkpt>
      <trkpt lat="42.92453" lon="0.2939">
        <ele>1233.2</ele>
        <time>2021-05-29T06:37:52Z</time>
      </trkpt>
      <trkpt lat="42.92454" lon="0.29392">
        <ele>1233.4</ele>
        <time>2021-05-29T06:37:53Z</time>
      </trkpt>
      <trkpt lat="42.92455" lon="0.29393">
        <ele>1233.6</ele>
        <time>2021-05-29T06:37:54Z</time>
      </trkpt>
      <trkpt lat="42.92457" lon="0.29395">
        <ele>1234</ele>
        <time>2021-05-29T06:37:55Z</time>
      </trkpt>
      <trkpt lat="42.92457" lon="0.29396">
        <ele>1234.2</ele>
        <time>2021-05-29T06:37:56Z</time>
      </trkpt>
      <trkpt lat="42.92458" lon="0.29397">
        <ele>1234.4</ele>
        <time>2021-05-29T06:37:57Z</time>
      </trkpt>
      <trkpt lat="42.92459" lon="0.29399">
        <ele>1234.4</ele>
        <time>2021-05-29T06:37:58Z</time>
      </trkpt>
      <trkpt lat="42.9246" lon="0.29401">
        <ele>1234.6</ele>
        <time>2021-05-29T06:37:59Z</time>
      </trkpt>
      <trkpt lat="42.92461" lon="0.29402">
        <ele>1234.8</ele>
        <time>2021-05-29T06:38:00Z</time>
      </trkpt>
      <trkpt lat="42.92463" lon="0.29403">
        <ele>1235.2</ele>
        <time>2021-05-29T06:38:01Z</time>
      </trkpt>
      <trkpt lat="42.92464" lon="0.29404">
        <ele>1235.4</ele>
        <time>2021-05-29T06:38:02Z</time>
      </trkpt>
      <trkpt lat="42.92464" lon="0.29404">
        <ele>1235.6</ele>
        <time>2021-05-29T06:38:03Z</time>
      </trkpt>
      <trkpt lat="42.92465" lon="0.29405">
        <ele>1235.8</ele>
        <time>2021-05-29T06:38:04Z</time>
      </trkpt>
      <trkpt lat="42.92466" lon="0.29406">
        <ele>1236</ele>
        <time>2021-05-29T06:38:05Z</time>
      </trkpt>
      <trkpt lat="42.92467" lon="0.29407">
        <ele>1236</ele>
        <time>2021-05-29T06:38:06Z</time>
      </trkpt>
      <trkpt lat="42.92469" lon="0.29408">
        <ele>1236.4</ele>
        <time>2021-05-29T06:38:07Z</time>
      </trkpt>
      <trkpt lat="42.9247" lon="0.2941">
        <ele>1236.6</ele>
        <time>2021-05-29T06:38:08Z</time>
      </trkpt>
      <trkpt lat="42.92473" lon="0.29412">
        <ele>1236.6</ele>
        <time>2021-05-29T06:38:09Z</time>
      </trkpt>
      <trkpt lat="42.92474" lon="0.29414">
        <ele>1236.8</ele>
        <time>2021-05-29T06:38:10Z</time>
      </trkpt>
      <trkpt lat="42.92476" lon="0.29415">
        <ele>1236.8</ele>
        <time>2021-05-29T06:38:11Z</time>
      </trkpt>
      <trkpt lat="42.92477" lon="0.29418">
        <ele>1237</ele>
        <time>2021-05-29T06:38:12Z</time>
      </trkpt>
      <trkpt lat="42.92478" lon="0.29419">
        <ele>1237.2</ele>
        <time>2021-05-29T06:38:13Z</time>
      </trkpt>
      <trkpt lat="42.92479" lon="0.29421">
        <ele>1237.4</ele>
        <time>2021-05-29T06:38:14Z</time>
      </trkpt>
      <trkpt lat="42.9248" lon="0.29422">
        <ele>1237.4</ele>
        <time>2021-05-29T06:38:15Z</time>
      </trkpt>
      <trkpt lat="42.9248" lon="0.29423">
        <ele>1237.8</ele>
        <time>2021-05-29T06:38:16Z</time>
      </trkpt>
      <trkpt lat="42.92482" lon="0.29424">
        <ele>1237.8</ele>
        <time>2021-05-29T06:38:17Z</time>
      </trkpt>
      <trkpt lat="42.92483" lon="0.29425">
        <ele>1238.2</ele>
        <time>2021-05-29T06:38:18Z</time>
      </trkpt>
      <trkpt lat="42.92484" lon="0.29426">
        <ele>1238.4</ele>
        <time>2021-05-29T06:38:19Z</time>
      </trkpt>
      <trkpt lat="42.92486" lon="0.29428">
        <ele>1238.6</ele>
        <time>2021-05-29T06:38:20Z</time>
      </trkpt>
      <trkpt lat="42.92487" lon="0.29429">
        <ele>1238.8</ele>
        <time>2021-05-29T06:38:21Z</time>
      </trkpt>
      <trkpt lat="42.92488" lon="0.2943">
        <ele>1239.2</ele>
        <time>2021-05-29T06:38:22Z</time>
      </trkpt>
      <trkpt lat="42.92488" lon="0.29431">
        <ele>1239.4</ele>
        <time>2021-05-29T06:38:23Z</time>
      </trkpt>
      <trkpt lat="42.92488" lon="0.29431">
        <ele>1240</ele>
        <time>2021-05-29T06:38:24Z</time>
      </trkpt>
      <trkpt lat="42.92488" lon="0.29431">
        <ele>1240.2</ele>
        <time>2021-05-29T06:38:25Z</time>
      </trkpt>
      <trkpt lat="42.92489" lon="0.29431">
        <ele>1240.2</ele>
        <time>2021-05-29T06:38:26Z</time>
      </trkpt>
      <trkpt lat="42.9249" lon="0.29433">
        <ele>1240.2</ele>
        <time>2021-05-29T06:38:27Z</time>
      </trkpt>
      <trkpt lat="42.92492" lon="0.29434">
        <ele>1240.4</ele>
        <time>2021-05-29T06:38:28Z</time>
      </trkpt>
      <trkpt lat="42.92493" lon="0.29436">
        <ele>1240.4</ele>
        <time>2021-05-29T06:38:29Z</time>
      </trkpt>
      <trkpt lat="42.92495" lon="0.29437">
        <ele>1240.8</ele>
        <time>2021-05-29T06:38:30Z</time>
      </trkpt>
      <trkpt lat="42.92496" lon="0.29438">
        <ele>1241.2</ele>
        <time>2021-05-29T06:38:31Z</time>
      </trkpt>
      <trkpt lat="42.92497" lon="0.29439">
        <ele>1241.2</ele>
        <time>2021-05-29T06:38:32Z</time>
      </trkpt>
      <trkpt lat="42.92499" lon="0.29441">
        <ele>1241.6</ele>
        <time>2021-05-29T06:38:33Z</time>
      </trkpt>
      <trkpt lat="42.92501" lon="0.29443">
        <ele>1241.6</ele>
        <time>2021-05-29T06:38:34Z</time>
      </trkpt>
      <trkpt lat="42.92501" lon="0.29443">
        <ele>1241.8</ele>
        <time>2021-05-29T06:38:35Z</time>
      </trkpt>
      <trkpt lat="42.92502" lon="0.29445">
        <ele>1242</ele>
        <time>2021-05-29T06:38:36Z</time>
      </trkpt>
      <trkpt lat="42.92505" lon="0.29446">
        <ele>1242.2</ele>
        <time>2021-05-29T06:38:37Z</time>
      </trkpt>
      <trkpt lat="42.92505" lon="0.29447">
        <ele>1242.2</ele>
        <time>2021-05-29T06:38:38Z</time>
      </trkpt>
      <trkpt lat="42.92506" lon="0.29447">
        <ele>1242.6</ele>
        <time>2021-05-29T06:38:39Z</time>
      </trkpt>
      <trkpt lat="42.92508" lon="0.29448">
        <ele>1242.6</ele>
        <time>2021-05-29T06:38:40Z</time>
      </trkpt>
      <trkpt lat="42.9251" lon="0.2945">
        <ele>1243</ele>
        <time>2021-05-29T06:38:41Z</time>
      </trkpt>
      <trkpt lat="42.92511" lon="0.29451">
        <ele>1243.2</ele>
        <time>2021-05-29T06:38:42Z</time>
      </trkpt>
      <trkpt lat="42.92511" lon="0.29453">
        <ele>1243.2</ele>
        <time>2021-05-29T06:38:43Z</time>
      </trkpt>
      <trkpt lat="42.92511" lon="0.29455">
        <ele>1243.4</ele>
        <time>2021-05-29T06:38:44Z</time>
      </trkpt>
      <trkpt lat="42.92512" lon="0.29457">
        <ele>1243.6</ele>
        <time>2021-05-29T06:38:45Z</time>
      </trkpt>
      <trkpt lat="42.92514" lon="0.29459">
        <ele>1243.8</ele>
        <time>2021-05-29T06:38:46Z</time>
      </trkpt>
      <trkpt lat="42.92516" lon="0.2946">
        <ele>1244</ele>
        <time>2021-05-29T06:38:47Z</time>
      </trkpt>
      <trkpt lat="42.92517" lon="0.29461">
        <ele>1244.2</ele>
        <time>2021-05-29T06:38:48Z</time>
      </trkpt>
      <trkpt lat="42.92521" lon="0.29462">
        <ele>1244.4</ele>
        <time>2021-05-29T06:38:49Z</time>
      </trkpt>
      <trkpt lat="42.92525" lon="0.29463">
        <ele>1244.6</ele>
        <time>2021-05-29T06:38:50Z</time>
      </trkpt>
      <trkpt lat="42.92528" lon="0.29466">
        <ele>1244.6</ele>
        <time>2021-05-29T06:38:51Z</time>
      </trkpt>
      <trkpt lat="42.92529" lon="0.29469">
        <ele>1245</ele>
        <time>2021-05-29T06:38:52Z</time>
      </trkpt>
      <trkpt lat="42.92531" lon="0.2947">
        <ele>1244.8</ele>
        <time>2021-05-29T06:38:53Z</time>
      </trkpt>
      <trkpt lat="42.92532" lon="0.2947">
        <ele>1245.2</ele>
        <time>2021-05-29T06:38:54Z</time>
      </trkpt>
      <trkpt lat="42.92533" lon="0.2947">
        <ele>1245.4</ele>
        <time>2021-05-29T06:38:55Z</time>
      </trkpt>
      <trkpt lat="42.92534" lon="0.2947">
        <ele>1245.6</ele>
        <time>2021-05-29T06:38:56Z</time>
      </trkpt>
      <trkpt lat="42.92535" lon="0.29471">
        <ele>1245.6</ele>
        <time>2021-05-29T06:38:57Z</time>
      </trkpt>
      <trkpt lat="42.92536" lon="0.29473">
        <ele>1245.8</ele>
        <time>2021-05-29T06:38:58Z</time>
      </trkpt>
      <trkpt lat="42.92537" lon="0.29473">
        <ele>1246</ele>
        <time>2021-05-29T06:38:59Z</time>
      </trkpt>
      <trkpt lat="42.92536" lon="0.29474">
        <ele>1246.2</ele>
        <time>2021-05-29T06:39:00Z</time>
      </trkpt>
      <trkpt lat="42.92538" lon="0.29475">
        <ele>1246.2</ele>
        <time>2021-05-29T06:39:01Z</time>
      </trkpt>
      <trkpt lat="42.9254" lon="0.29476">
        <ele>1246.4</ele>
        <time>2021-05-29T06:39:02Z</time>
      </trkpt>
      <trkpt lat="42.92542" lon="0.29477">
        <ele>1246.6</ele>
        <time>2021-05-29T06:39:03Z</time>
      </trkpt>
      <trkpt lat="42.92543" lon="0.29478">
        <ele>1247</ele>
        <time>2021-05-29T06:39:04Z</time>
      </trkpt>
      <trkpt lat="42.92545" lon="0.29479">
        <ele>1247</ele>
        <time>2021-05-29T06:39:05Z</time>
      </trkpt>
      <trkpt lat="42.92546" lon="0.2948">
        <ele>1247.4</ele>
        <time>2021-05-29T06:39:06Z</time>
      </trkpt>
      <trkpt lat="42.92546" lon="0.2948">
        <ele>1247.4</ele>
        <time>2021-05-29T06:39:07Z</time>
      </trkpt>
      <trkpt lat="42.92547" lon="0.29481">
        <ele>1247.8</ele>
        <time>2021-05-29T06:39:08Z</time>
      </trkpt>
      <trkpt lat="42.92547" lon="0.29481">
        <ele>1248</ele>
        <time>2021-05-29T06:39:09Z</time>
      </trkpt>
      <trkpt lat="42.92548" lon="0.29482">
        <ele>1248</ele>
        <time>2021-05-29T06:39:10Z</time>
      </trkpt>
      <trkpt lat="42.92549" lon="0.29484">
        <ele>1248.2</ele>
        <time>2021-05-29T06:39:11Z</time>
      </trkpt>
      <trkpt lat="42.9255" lon="0.29484">
        <ele>1248.4</ele>
        <time>2021-05-29T06:39:12Z</time>
      </trkpt>
      <trkpt lat="42.92551" lon="0.29486">
        <ele>1248.8</ele>
        <time>2021-05-29T06:39:13Z</time>
      </trkpt>
      <trkpt lat="42.92551" lon="0.29487">
        <ele>1249</ele>
        <time>2021-05-29T06:39:14Z</time>
      </trkpt>
      <trkpt lat="42.92553" lon="0.29488">
        <ele>1249.2</ele>
        <time>2021-05-29T06:39:15Z</time>
      </trkpt>
      <trkpt lat="42.92555" lon="0.29489">
        <ele>1249.2</ele>
        <time>2021-05-29T06:39:16Z</time>
      </trkpt>
      <trkpt lat="42.92558" lon="0.2949">
        <ele>1249.6</ele>
        <time>2021-05-29T06:39:17Z</time>
      </trkpt>
      <trkpt lat="42.92559" lon="0.29491">
        <ele>1249.6</ele>
        <time>2021-05-29T06:39:18Z</time>
      </trkpt>
      <trkpt lat="42.9256" lon="0.29492">
        <ele>1249.8</ele>
        <time>2021-05-29T06:39:19Z</time>
      </trkpt>
      <trkpt lat="42.9256" lon="0.29493">
        <ele>1250</ele>
        <time>2021-05-29T06:39:20Z</time>
      </trkpt>
      <trkpt lat="42.92562" lon="0.29494">
        <ele>1250.2</ele>
        <time>2021-05-29T06:39:21Z</time>
      </trkpt>
      <trkpt lat="42.92563" lon="0.29496">
        <ele>1250.4</ele>
        <time>2021-05-29T06:39:22Z</time>
      </trkpt>
      <trkpt lat="42.92564" lon="0.29498">
        <ele>1250.6</ele>
        <time>2021-05-29T06:39:23Z</time>
      </trkpt>
      <trkpt lat="42.92566" lon="0.29499">
        <ele>1250.6</ele>
        <time>2021-05-29T06:39:24Z</time>
      </trkpt>
      <trkpt lat="42.92568" lon="0.29501">
        <ele>1250.8</ele>
        <time>2021-05-29T06:39:25Z</time>
      </trkpt>
      <trkpt lat="42.9257" lon="0.29502">
        <ele>1251</ele>
        <time>2021-05-29T06:39:26Z</time>
      </trkpt>
      <trkpt lat="42.92571" lon="0.29504">
        <ele>1251.2</ele>
        <time>2021-05-29T06:39:27Z</time>
      </trkpt>
      <trkpt lat="42.92572" lon="0.29504">
        <ele>1251.4</ele>
        <time>2021-05-29T06:39:28Z</time>
      </trkpt>
      <trkpt lat="42.92573" lon="0.29505">
        <ele>1251.6</ele>
        <time>2021-05-29T06:39:29Z</time>
      </trkpt>
      <trkpt lat="42.92575" lon="0.29505">
        <ele>1251.8</ele>
        <time>2021-05-29T06:39:30Z</time>
      </trkpt>
      <trkpt lat="42.92577" lon="0.29506">
        <ele>1252</ele>
        <time>2021-05-29T06:39:31Z</time>
      </trkpt>
      <trkpt lat="42.92579" lon="0.29507">
        <ele>1252.2</ele>
        <time>2021-05-29T06:39:32Z</time>
      </trkpt>
      <trkpt lat="42.9258" lon="0.29507">
        <ele>1252.4</ele>
        <time>2021-05-29T06:39:33Z</time>
      </trkpt>
      <trkpt lat="42.92583" lon="0.29508">
        <ele>1252.6</ele>
        <time>2021-05-29T06:39:34Z</time>
      </trkpt>
      <trkpt lat="42.92586" lon="0.29509">
        <ele>1252.6</ele>
        <time>2021-05-29T06:39:35Z</time>
      </trkpt>
      <trkpt lat="42.92589" lon="0.2951">
        <ele>1252.8</ele>
        <time>2021-05-29T06:39:36Z</time>
      </trkpt>
      <trkpt lat="42.9259" lon="0.29512">
        <ele>1253</ele>
        <time>2021-05-29T06:39:37Z</time>
      </trkpt>
      <trkpt lat="42.9259" lon="0.29513">
        <ele>1253</ele>
        <time>2021-05-29T06:39:38Z</time>
      </trkpt>
      <trkpt lat="42.92591" lon="0.29514">
        <ele>1253</ele>
        <time>2021-05-29T06:39:39Z</time>
      </trkpt>
      <trkpt lat="42.92593" lon="0.29515">
        <ele>1253.4</ele>
        <time>2021-05-29T06:39:40Z</time>
      </trkpt>
      <trkpt lat="42.92595" lon="0.29517">
        <ele>1253.6</ele>
        <time>2021-05-29T06:39:41Z</time>
      </trkpt>
      <trkpt lat="42.92595" lon="0.29518">
        <ele>1253.8</ele>
        <time>2021-05-29T06:39:42Z</time>
      </trkpt>
      <trkpt lat="42.92596" lon="0.29518">
        <ele>1253.8</ele>
        <time>2021-05-29T06:39:43Z</time>
      </trkpt>
      <trkpt lat="42.92598" lon="0.29519">
        <ele>1253.8</ele>
        <time>2021-05-29T06:39:44Z</time>
      </trkpt>
      <trkpt lat="42.92599" lon="0.2952">
        <ele>1254</ele>
        <time>2021-05-29T06:39:45Z</time>
      </trkpt>
      <trkpt lat="42.92601" lon="0.29521">
        <ele>1254.2</ele>
        <time>2021-05-29T06:39:46Z</time>
      </trkpt>
      <trkpt lat="42.92602" lon="0.29521">
        <ele>1254.4</ele>
        <time>2021-05-29T06:39:47Z</time>
      </trkpt>
      <trkpt lat="42.92603" lon="0.29521">
        <ele>1254.6</ele>
        <time>2021-05-29T06:39:48Z</time>
      </trkpt>
      <trkpt lat="42.92605" lon="0.29523">
        <ele>1254.6</ele>
        <time>2021-05-29T06:39:49Z</time>
      </trkpt>
      <trkpt lat="42.92607" lon="0.29524">
        <ele>1254.8</ele>
        <time>2021-05-29T06:39:50Z</time>
      </trkpt>
      <trkpt lat="42.92609" lon="0.29525">
        <ele>1255</ele>
        <time>2021-05-29T06:39:51Z</time>
      </trkpt>
      <trkpt lat="42.9261" lon="0.29525">
        <ele>1255.2</ele>
        <time>2021-05-29T06:39:52Z</time>
      </trkpt>
      <trkpt lat="42.9261" lon="0.29526">
        <ele>1255.4</ele>
        <time>2021-05-29T06:39:53Z</time>
      </trkpt>
      <trkpt lat="42.92612" lon="0.29527">
        <ele>1255.6</ele>
        <time>2021-05-29T06:39:54Z</time>
      </trkpt>
      <trkpt lat="42.92614" lon="0.29528">
        <ele>1255.8</ele>
        <time>2021-05-29T06:39:55Z</time>
      </trkpt>
      <trkpt lat="42.92616" lon="0.29529">
        <ele>1255.6</ele>
        <time>2021-05-29T06:39:56Z</time>
      </trkpt>
      <trkpt lat="42.92617" lon="0.2953">
        <ele>1255.8</ele>
        <time>2021-05-29T06:39:57Z</time>
      </trkpt>
      <trkpt lat="42.92618" lon="0.29531">
        <ele>1256</ele>
        <time>2021-05-29T06:39:58Z</time>
      </trkpt>
      <trkpt lat="42.9262" lon="0.29531">
        <ele>1256.2</ele>
        <time>2021-05-29T06:39:59Z</time>
      </trkpt>
      <trkpt lat="42.92623" lon="0.29532">
        <ele>1256.2</ele>
        <time>2021-05-29T06:40:00Z</time>
      </trkpt>
      <trkpt lat="42.92625" lon="0.29532">
        <ele>1256.6</ele>
        <time>2021-05-29T06:40:01Z</time>
      </trkpt>
      <trkpt lat="42.92626" lon="0.29533">
        <ele>1256.8</ele>
        <time>2021-05-29T06:40:02Z</time>
      </trkpt>
      <trkpt lat="42.92628" lon="0.29534">
        <ele>1257</ele>
        <time>2021-05-29T06:40:03Z</time>
      </trkpt>
      <trkpt lat="42.92629" lon="0.29535">
        <ele>1257.2</ele>
        <time>2021-05-29T06:40:04Z</time>
      </trkpt>
      <trkpt lat="42.9263" lon="0.29536">
        <ele>1257.4</ele>
        <time>2021-05-29T06:40:05Z</time>
      </trkpt>
      <trkpt lat="42.92631" lon="0.29537">
        <ele>1257.8</ele>
        <time>2021-05-29T06:40:06Z</time>
      </trkpt>
      <trkpt lat="42.92632" lon="0.29538">
        <ele>1258</ele>
        <time>2021-05-29T06:40:07Z</time>
      </trkpt>
      <trkpt lat="42.92634" lon="0.29538">
        <ele>1258.2</ele>
        <time>2021-05-29T06:40:08Z</time>
      </trkpt>
      <trkpt lat="42.92636" lon="0.29539">
        <ele>1258.4</ele>
        <time>2021-05-29T06:40:09Z</time>
      </trkpt>
      <trkpt lat="42.92637" lon="0.2954">
        <ele>1258.6</ele>
        <time>2021-05-29T06:40:10Z</time>
      </trkpt>
      <trkpt lat="42.92638" lon="0.29541">
        <ele>1258.6</ele>
        <time>2021-05-29T06:40:11Z</time>
      </trkpt>
      <trkpt lat="42.92638" lon="0.29541">
        <ele>1258.8</ele>
        <time>2021-05-29T06:40:12Z</time>
      </trkpt>
      <trkpt lat="42.9264" lon="0.29541">
        <ele>1259</ele>
        <time>2021-05-29T06:40:13Z</time>
      </trkpt>
      <trkpt lat="42.92641" lon="0.29542">
        <ele>1259.4</ele>
        <time>2021-05-29T06:40:14Z</time>
      </trkpt>
      <trkpt lat="42.92643" lon="0.29543">
        <ele>1259.4</ele>
        <time>2021-05-29T06:40:15Z</time>
      </trkpt>
      <trkpt lat="42.92643" lon="0.29543">
        <ele>1259.8</ele>
        <time>2021-05-29T06:40:16Z</time>
      </trkpt>
      <trkpt lat="42.92643" lon="0.29543">
        <ele>1259.8</ele>
        <time>2021-05-29T06:40:17Z</time>
      </trkpt>
      <trkpt lat="42.92645" lon="0.29543">
        <ele>1260.2</ele>
        <time>2021-05-29T06:40:18Z</time>
      </trkpt>
      <trkpt lat="42.92646" lon="0.29544">
        <ele>1260.4</ele>
        <time>2021-05-29T06:40:19Z</time>
      </trkpt>
      <trkpt lat="42.92648" lon="0.29545">
        <ele>1260.6</ele>
        <time>2021-05-29T06:40:20Z</time>
      </trkpt>
      <trkpt lat="42.9265" lon="0.29546">
        <ele>1260.8</ele>
        <time>2021-05-29T06:40:21Z</time>
      </trkpt>
      <trkpt lat="42.92652" lon="0.29548">
        <ele>1261.2</ele>
        <time>2021-05-29T06:40:22Z</time>
      </trkpt>
      <trkpt lat="42.92654" lon="0.29549">
        <ele>1261.2</ele>
        <time>2021-05-29T06:40:23Z</time>
      </trkpt>
      <trkpt lat="42.92657" lon="0.2955">
        <ele>1261.4</ele>
        <time>2021-05-29T06:40:24Z</time>
      </trkpt>
      <trkpt lat="42.92659" lon="0.29551">
        <ele>1261.8</ele>
        <time>2021-05-29T06:40:25Z</time>
      </trkpt>
      <trkpt lat="42.9266" lon="0.29552">
        <ele>1262</ele>
        <time>2021-05-29T06:40:26Z</time>
      </trkpt>
      <trkpt lat="42.92661" lon="0.29554">
        <ele>1262.2</ele>
        <time>2021-05-29T06:40:27Z</time>
      </trkpt>
      <trkpt lat="42.92662" lon="0.29555">
        <ele>1262.2</ele>
        <time>2021-05-29T06:40:28Z</time>
      </trkpt>
      <trkpt lat="42.92663" lon="0.29557">
        <ele>1262.6</ele>
        <time>2021-05-29T06:40:29Z</time>
      </trkpt>
      <trkpt lat="42.92665" lon="0.29557">
        <ele>1262.6</ele>
        <time>2021-05-29T06:40:30Z</time>
      </trkpt>
      <trkpt lat="42.92666" lon="0.29558">
        <ele>1262.8</ele>
        <time>2021-05-29T06:40:31Z</time>
      </trkpt>
      <trkpt lat="42.92667" lon="0.29558">
        <ele>1262.8</ele>
        <time>2021-05-29T06:40:32Z</time>
      </trkpt>
      <trkpt lat="42.92667" lon="0.29559">
        <ele>1263</ele>
        <time>2021-05-29T06:40:33Z</time>
      </trkpt>
      <trkpt lat="42.92668" lon="0.29559">
        <ele>1263</ele>
        <time>2021-05-29T06:40:34Z</time>
      </trkpt>
      <trkpt lat="42.92669" lon="0.2956">
        <ele>1263.4</ele>
        <time>2021-05-29T06:40:35Z</time>
      </trkpt>
      <trkpt lat="42.92671" lon="0.29561">
        <ele>1263.4</ele>
        <time>2021-05-29T06:40:36Z</time>
      </trkpt>
      <trkpt lat="42.92673" lon="0.29561">
        <ele>1264</ele>
        <time>2021-05-29T06:40:37Z</time>
      </trkpt>
      <trkpt lat="42.92674" lon="0.29562">
        <ele>1264.2</ele>
        <time>2021-05-29T06:40:38Z</time>
      </trkpt>
      <trkpt lat="42.92675" lon="0.29563">
        <ele>1264.2</ele>
        <time>2021-05-29T06:40:39Z</time>
      </trkpt>
      <trkpt lat="42.92675" lon="0.29563">
        <ele>1264.4</ele>
        <time>2021-05-29T06:40:40Z</time>
      </trkpt>
      <trkpt lat="42.92675" lon="0.29563">
        <ele>1264.6</ele>
        <time>2021-05-29T06:40:41Z</time>
      </trkpt>
      <trkpt lat="42.92675" lon="0.29565">
        <ele>1264.6</ele>
        <time>2021-05-29T06:40:42Z</time>
      </trkpt>
      <trkpt lat="42.92678" lon="0.29566">
        <ele>1264.8</ele>
        <time>2021-05-29T06:40:43Z</time>
      </trkpt>
      <trkpt lat="42.92681" lon="0.29568">
        <ele>1265</ele>
        <time>2021-05-29T06:40:44Z</time>
      </trkpt>
      <trkpt lat="42.92684" lon="0.2957">
        <ele>1265.2</ele>
        <time>2021-05-29T06:40:45Z</time>
      </trkpt>
      <trkpt lat="42.92689" lon="0.29572">
        <ele>1265.4</ele>
        <time>2021-05-29T06:40:46Z</time>
      </trkpt>
      <trkpt lat="42.9269" lon="0.29573">
        <ele>1265.6</ele>
        <time>2021-05-29T06:40:47Z</time>
      </trkpt>
      <trkpt lat="42.9269" lon="0.29574">
        <ele>1265.8</ele>
        <time>2021-05-29T06:40:48Z</time>
      </trkpt>
      <trkpt lat="42.92691" lon="0.29576">
        <ele>1266</ele>
        <time>2021-05-29T06:40:49Z</time>
      </trkpt>
      <trkpt lat="42.92694" lon="0.29577">
        <ele>1266.4</ele>
        <time>2021-05-29T06:40:50Z</time>
      </trkpt>
      <trkpt lat="42.92696" lon="0.29577">
        <ele>1266.4</ele>
        <time>2021-05-29T06:40:51Z</time>
      </trkpt>
      <trkpt lat="42.92699" lon="0.29579">
        <ele>1266.8</ele>
        <time>2021-05-29T06:40:52Z</time>
      </trkpt>
      <trkpt lat="42.92699" lon="0.2958">
        <ele>1266.8</ele>
        <time>2021-05-29T06:40:53Z</time>
      </trkpt>
      <trkpt lat="42.92699" lon="0.2958">
        <ele>1267</ele>
        <time>2021-05-29T06:40:54Z</time>
      </trkpt>
      <trkpt lat="42.927" lon="0.2958">
        <ele>1267</ele>
        <time>2021-05-29T06:40:55Z</time>
      </trkpt>
      <trkpt lat="42.92701" lon="0.2958">
        <ele>1267.4</ele>
        <time>2021-05-29T06:40:56Z</time>
      </trkpt>
      <trkpt lat="42.92703" lon="0.29581">
        <ele>1267.4</ele>
        <time>2021-05-29T06:40:57Z</time>
      </trkpt>
      <trkpt lat="42.92705" lon="0.29584">
        <ele>1267.8</ele>
        <time>2021-05-29T06:40:58Z</time>
      </trkpt>
      <trkpt lat="42.92706" lon="0.29585">
        <ele>1267.8</ele>
        <time>2021-05-29T06:40:59Z</time>
      </trkpt>
      <trkpt lat="42.92708" lon="0.29586">
        <ele>1268</ele>
        <time>2021-05-29T06:41:00Z</time>
      </trkpt>
      <trkpt lat="42.92709" lon="0.29588">
        <ele>1268</ele>
        <time>2021-05-29T06:41:01Z</time>
      </trkpt>
      <trkpt lat="42.92711" lon="0.29589">
        <ele>1268.4</ele>
        <time>2021-05-29T06:41:02Z</time>
      </trkpt>
      <trkpt lat="42.92711" lon="0.2959">
        <ele>1268.4</ele>
        <time>2021-05-29T06:41:03Z</time>
      </trkpt>
      <trkpt lat="42.92711" lon="0.29592">
        <ele>1268.6</ele>
        <time>2021-05-29T06:41:04Z</time>
      </trkpt>
      <trkpt lat="42.92712" lon="0.29594">
        <ele>1268.8</ele>
        <time>2021-05-29T06:41:05Z</time>
      </trkpt>
      <trkpt lat="42.92713" lon="0.29596">
        <ele>1268.8</ele>
        <time>2021-05-29T06:41:06Z</time>
      </trkpt>
      <trkpt lat="42.92713" lon="0.29597">
        <ele>1269</ele>
        <time>2021-05-29T06:41:07Z</time>
      </trkpt>
      <trkpt lat="42.92713" lon="0.29599">
        <ele>1269</ele>
        <time>2021-05-29T06:41:08Z</time>
      </trkpt>
      <trkpt lat="42.92714" lon="0.29601">
        <ele>1269</ele>
        <time>2021-05-29T06:41:09Z</time>
      </trkpt>
      <trkpt lat="42.92715" lon="0.29602">
        <ele>1269.2</ele>
        <time>2021-05-29T06:41:10Z</time>
      </trkpt>
      <trkpt lat="42.92716" lon="0.29604">
        <ele>1269.4</ele>
        <time>2021-05-29T06:41:11Z</time>
      </trkpt>
      <trkpt lat="42.92717" lon="0.29606">
        <ele>1269.6</ele>
        <time>2021-05-29T06:41:12Z</time>
      </trkpt>
      <trkpt lat="42.92718" lon="0.29608">
        <ele>1269.8</ele>
        <time>2021-05-29T06:41:13Z</time>
      </trkpt>
      <trkpt lat="42.92718" lon="0.2961">
        <ele>1270</ele>
        <time>2021-05-29T06:41:14Z</time>
      </trkpt>
      <trkpt lat="42.92719" lon="0.29612">
        <ele>1270.2</ele>
        <time>2021-05-29T06:41:15Z</time>
      </trkpt>
      <trkpt lat="42.9272" lon="0.29614">
        <ele>1270.2</ele>
        <time>2021-05-29T06:41:16Z</time>
      </trkpt>
      <trkpt lat="42.9272" lon="0.29616">
        <ele>1270.4</ele>
        <time>2021-05-29T06:41:17Z</time>
      </trkpt>
      <trkpt lat="42.9272" lon="0.29619">
        <ele>1270.6</ele>
        <time>2021-05-29T06:41:18Z</time>
      </trkpt>
      <trkpt lat="42.9272" lon="0.29622">
        <ele>1270.6</ele>
        <time>2021-05-29T06:41:19Z</time>
      </trkpt>
      <trkpt lat="42.9272" lon="0.29624">
        <ele>1270.8</ele>
        <time>2021-05-29T06:41:20Z</time>
      </trkpt>
      <trkpt lat="42.92718" lon="0.29625">
        <ele>1270.8</ele>
        <time>2021-05-29T06:41:21Z</time>
      </trkpt>
      <trkpt lat="42.92717" lon="0.29626">
        <ele>1270.8</ele>
        <time>2021-05-29T06:41:22Z</time>
      </trkpt>
      <trkpt lat="42.92716" lon="0.29627">
        <ele>1271</ele>
        <time>2021-05-29T06:41:23Z</time>
      </trkpt>
      <trkpt lat="42.92715" lon="0.29629">
        <ele>1271</ele>
        <time>2021-05-29T06:41:24Z</time>
      </trkpt>
      <trkpt lat="42.92713" lon="0.2963">
        <ele>1271.2</ele>
        <time>2021-05-29T06:41:25Z</time>
      </trkpt>
      <trkpt lat="42.92712" lon="0.29631">
        <ele>1271.2</ele>
        <time>2021-05-29T06:41:26Z</time>
      </trkpt>
      <trkpt lat="42.92711" lon="0.29632">
        <ele>1271.4</ele>
        <time>2021-05-29T06:41:27Z</time>
      </trkpt>
      <trkpt lat="42.9271" lon="0.29634">
        <ele>1271.6</ele>
        <time>2021-05-29T06:41:28Z</time>
      </trkpt>
      <trkpt lat="42.92708" lon="0.29635">
        <ele>1271.6</ele>
        <time>2021-05-29T06:41:29Z</time>
      </trkpt>
      <trkpt lat="42.92706" lon="0.29636">
        <ele>1271.6</ele>
        <time>2021-05-29T06:41:30Z</time>
      </trkpt>
      <trkpt lat="42.92704" lon="0.29638">
        <ele>1271.8</ele>
        <time>2021-05-29T06:41:31Z</time>
      </trkpt>
      <trkpt lat="42.92702" lon="0.29639">
        <ele>1271.8</ele>
        <time>2021-05-29T06:41:32Z</time>
      </trkpt>
      <trkpt lat="42.927" lon="0.2964">
        <ele>1271.8</ele>
        <time>2021-05-29T06:41:33Z</time>
      </trkpt>
      <trkpt lat="42.92698" lon="0.29641">
        <ele>1271.8</ele>
        <time>2021-05-29T06:41:34Z</time>
      </trkpt>
      <trkpt lat="42.92697" lon="0.29642">
        <ele>1271.8</ele>
        <time>2021-05-29T06:41:35Z</time>
      </trkpt>
      <trkpt lat="42.92695" lon="0.29643">
        <ele>1272</ele>
        <time>2021-05-29T06:41:36Z</time>
      </trkpt>
      <trkpt lat="42.92693" lon="0.29645">
        <ele>1272</ele>
        <time>2021-05-29T06:41:37Z</time>
      </trkpt>
      <trkpt lat="42.9269" lon="0.29646">
        <ele>1272</ele>
        <time>2021-05-29T06:41:38Z</time>
      </trkpt>
      <trkpt lat="42.92688" lon="0.29647">
        <ele>1272</ele>
        <time>2021-05-29T06:41:39Z</time>
      </trkpt>
      <trkpt lat="42.92685" lon="0.29648">
        <ele>1272</ele>
        <time>2021-05-29T06:41:40Z</time>
      </trkpt>
      <trkpt lat="42.92676" lon="0.29654">
        <ele>1272</ele>
        <time>2021-05-29T06:41:44Z</time>
      </trkpt>
      <trkpt lat="42.92674" lon="0.29655">
        <ele>1272</ele>
        <time>2021-05-29T06:41:45Z</time>
      </trkpt>
      <trkpt lat="42.92672" lon="0.29657">
        <ele>1272</ele>
        <time>2021-05-29T06:41:46Z</time>
      </trkpt>
      <trkpt lat="42.9267" lon="0.29658">
        <ele>1272</ele>
        <time>2021-05-29T06:41:47Z</time>
      </trkpt>
      <trkpt lat="42.92662" lon="0.29665">
        <ele>1272.2</ele>
        <time>2021-05-29T06:41:50Z</time>
      </trkpt>
      <trkpt lat="42.92656" lon="0.29669">
        <ele>1272.2</ele>
        <time>2021-05-29T06:41:52Z</time>
      </trkpt>
      <trkpt lat="42.92651" lon="0.29674">
        <ele>1272.4</ele>
        <time>2021-05-29T06:41:54Z</time>
      </trkpt>
      <trkpt lat="42.9265" lon="0.29677">
        <ele>1272.6</ele>
        <time>2021-05-29T06:41:55Z</time>
      </trkpt>
      <trkpt lat="42.92647" lon="0.29681">
        <ele>1272.6</ele>
        <time>2021-05-29T06:41:56Z</time>
      </trkpt>
      <trkpt lat="42.92633" lon="0.29699">
        <ele>1273</ele>
        <time>2021-05-29T06:42:02Z</time>
      </trkpt>
      <trkpt lat="42.9263" lon="0.29703">
        <ele>1273</ele>
        <time>2021-05-29T06:42:03Z</time>
      </trkpt>
      <trkpt lat="42.92628" lon="0.29705">
        <ele>1273</ele>
        <time>2021-05-29T06:42:04Z</time>
      </trkpt>
      <trkpt lat="42.92614" lon="0.29722">
        <ele>1273.4</ele>
        <time>2021-05-29T06:42:09Z</time>
      </trkpt>
      <trkpt lat="42.9261" lon="0.29731">
        <ele>1273.6</ele>
        <time>2021-05-29T06:42:11Z</time>
      </trkpt>
      <trkpt lat="42.92602" lon="0.29744">
        <ele>1273.8</ele>
        <time>2021-05-29T06:42:14Z</time>
      </trkpt>
      <trkpt lat="42.926" lon="0.29747">
        <ele>1274</ele>
        <time>2021-05-29T06:42:15Z</time>
      </trkpt>
      <trkpt lat="42.92597" lon="0.2975">
        <ele>1274</ele>
        <time>2021-05-29T06:42:16Z</time>
      </trkpt>
      <trkpt lat="42.92595" lon="0.29754">
        <ele>1273.8</ele>
        <time>2021-05-29T06:42:17Z</time>
      </trkpt>
      <trkpt lat="42.92593" lon="0.29757">
        <ele>1274</ele>
        <time>2021-05-29T06:42:18Z</time>
      </trkpt>
      <trkpt lat="42.92591" lon="0.2976">
        <ele>1274</ele>
        <time>2021-05-29T06:42:19Z</time>
      </trkpt>
      <trkpt lat="42.92589" lon="0.29764">
        <ele>1274</ele>
        <time>2021-05-29T06:42:20Z</time>
      </trkpt>
      <trkpt lat="42.92573" lon="0.29782">
        <ele>1274.2</ele>
        <time>2021-05-29T06:42:25Z</time>
      </trkpt>
      <trkpt lat="42.92566" lon="0.2979">
        <ele>1274.2</ele>
        <time>2021-05-29T06:42:27Z</time>
      </trkpt>
      <trkpt lat="42.92557" lon="0.29805">
        <ele>1274.6</ele>
        <time>2021-05-29T06:42:31Z</time>
      </trkpt>
      <trkpt lat="42.92546" lon="0.2982">
        <ele>1274.8</ele>
        <time>2021-05-29T06:42:35Z</time>
      </trkpt>
      <trkpt lat="42.92543" lon="0.29825">
        <ele>1274.8</ele>
        <time>2021-05-29T06:42:36Z</time>
      </trkpt>
      <trkpt lat="42.92532" lon="0.29843">
        <ele>1275</ele>
        <time>2021-05-29T06:42:41Z</time>
      </trkpt>
      <trkpt lat="42.92525" lon="0.2985">
        <ele>1275.2</ele>
        <time>2021-05-29T06:42:43Z</time>
      </trkpt>
      <trkpt lat="42.92521" lon="0.29854">
        <ele>1275</ele>
        <time>2021-05-29T06:42:44Z</time>
      </trkpt>
      <trkpt lat="42.92514" lon="0.29861">
        <ele>1275.2</ele>
        <time>2021-05-29T06:42:46Z</time>
      </trkpt>
      <trkpt lat="42.92512" lon="0.29866">
        <ele>1275.2</ele>
        <time>2021-05-29T06:42:47Z</time>
      </trkpt>
      <trkpt lat="42.92511" lon="0.29872">
        <ele>1275</ele>
        <time>2021-05-29T06:42:48Z</time>
      </trkpt>
      <trkpt lat="42.92512" lon="0.29878">
        <ele>1275</ele>
        <time>2021-05-29T06:42:49Z</time>
      </trkpt>
      <trkpt lat="42.92511" lon="0.29881">
        <ele>1275</ele>
        <time>2021-05-29T06:42:50Z</time>
      </trkpt>
      <trkpt lat="42.9251" lon="0.29884">
        <ele>1275</ele>
        <time>2021-05-29T06:42:51Z</time>
      </trkpt>
      <trkpt lat="42.92504" lon="0.29908">
        <ele>1275.2</ele>
        <time>2021-05-29T06:42:55Z</time>
      </trkpt>
      <trkpt lat="42.92503" lon="0.29915">
        <ele>1275.2</ele>
        <time>2021-05-29T06:42:56Z</time>
      </trkpt>
      <trkpt lat="42.92503" lon="0.2992">
        <ele>1275.4</ele>
        <time>2021-05-29T06:42:57Z</time>
      </trkpt>
      <trkpt lat="42.92506" lon="0.29935">
        <ele>1275.6</ele>
        <time>2021-05-29T06:43:00Z</time>
      </trkpt>
      <trkpt lat="42.92507" lon="0.2994">
        <ele>1275.4</ele>
        <time>2021-05-29T06:43:01Z</time>
      </trkpt>
      <trkpt lat="42.92508" lon="0.29945">
        <ele>1275.4</ele>
        <time>2021-05-29T06:43:02Z</time>
      </trkpt>
      <trkpt lat="42.92506" lon="0.29951">
        <ele>1275.4</ele>
        <time>2021-05-29T06:43:03Z</time>
      </trkpt>
      <trkpt lat="42.92504" lon="0.29957">
        <ele>1275.4</ele>
        <time>2021-05-29T06:43:04Z</time>
      </trkpt>
      <trkpt lat="42.92502" lon="0.29961">
        <ele>1275.4</ele>
        <time>2021-05-29T06:43:05Z</time>
      </trkpt>
      <trkpt lat="42.925" lon="0.29966">
        <ele>1275.6</ele>
        <time>2021-05-29T06:43:06Z</time>
      </trkpt>
      <trkpt lat="42.92501" lon="0.29971">
        <ele>1275.6</ele>
        <time>2021-05-29T06:43:07Z</time>
      </trkpt>
      <trkpt lat="42.92501" lon="0.29975">
        <ele>1275.8</ele>
        <time>2021-05-29T06:43:08Z</time>
      </trkpt>
      <trkpt lat="42.92501" lon="0.29979">
        <ele>1275.8</ele>
        <time>2021-05-29T06:43:09Z</time>
      </trkpt>
      <trkpt lat="42.92501" lon="0.29984">
        <ele>1276</ele>
        <time>2021-05-29T06:43:10Z</time>
      </trkpt>
      <trkpt lat="42.92499" lon="0.29989">
        <ele>1276</ele>
        <time>2021-05-29T06:43:11Z</time>
      </trkpt>
      <trkpt lat="42.92498" lon="0.29994">
        <ele>1276.2</ele>
        <time>2021-05-29T06:43:12Z</time>
      </trkpt>
      <trkpt lat="42.92497" lon="0.29998">
        <ele>1276.2</ele>
        <time>2021-05-29T06:43:13Z</time>
      </trkpt>
      <trkpt lat="42.92496" lon="0.30004">
        <ele>1276.4</ele>
        <time>2021-05-29T06:43:14Z</time>
      </trkpt>
      <trkpt lat="42.92496" lon="0.30007">
        <ele>1276.4</ele>
        <time>2021-05-29T06:43:15Z</time>
      </trkpt>
      <trkpt lat="42.92495" lon="0.30011">
        <ele>1276.6</ele>
        <time>2021-05-29T06:43:16Z</time>
      </trkpt>
      <trkpt lat="42.92494" lon="0.30014">
        <ele>1276.8</ele>
        <time>2021-05-29T06:43:17Z</time>
      </trkpt>
      <trkpt lat="42.92492" lon="0.30018">
        <ele>1276.8</ele>
        <time>2021-05-29T06:43:18Z</time>
      </trkpt>
      <trkpt lat="42.92491" lon="0.30022">
        <ele>1276.8</ele>
        <time>2021-05-29T06:43:19Z</time>
      </trkpt>
      <trkpt lat="42.92488" lon="0.30037">
        <ele>1277</ele>
        <time>2021-05-29T06:43:22Z</time>
      </trkpt>
      <trkpt lat="42.92488" lon="0.3004">
        <ele>1277.2</ele>
        <time>2021-05-29T06:43:23Z</time>
      </trkpt>
      <trkpt lat="42.92487" lon="0.30044">
        <ele>1277.4</ele>
        <time>2021-05-29T06:43:24Z</time>
      </trkpt>
      <trkpt lat="42.92487" lon="0.30048">
        <ele>1277.6</ele>
        <time>2021-05-29T06:43:25Z</time>
      </trkpt>
      <trkpt lat="42.92485" lon="0.30056">
        <ele>1277.8</ele>
        <time>2021-05-29T06:43:27Z</time>
      </trkpt>
      <trkpt lat="42.92484" lon="0.30059">
        <ele>1278.2</ele>
        <time>2021-05-29T06:43:28Z</time>
      </trkpt>
      <trkpt lat="42.92483" lon="0.30064">
        <ele>1278.4</ele>
        <time>2021-05-29T06:43:29Z</time>
      </trkpt>
      <trkpt lat="42.92482" lon="0.30067">
        <ele>1278.6</ele>
        <time>2021-05-29T06:43:30Z</time>
      </trkpt>
      <trkpt lat="42.9248" lon="0.3007">
        <ele>1278.6</ele>
        <time>2021-05-29T06:43:31Z</time>
      </trkpt>
      <trkpt lat="42.92479" lon="0.30073">
        <ele>1278.8</ele>
        <time>2021-05-29T06:43:32Z</time>
      </trkpt>
      <trkpt lat="42.92478" lon="0.30078">
        <ele>1278.8</ele>
        <time>2021-05-29T06:43:33Z</time>
      </trkpt>
      <trkpt lat="42.92478" lon="0.30081">
        <ele>1279</ele>
        <time>2021-05-29T06:43:34Z</time>
      </trkpt>
      <trkpt lat="42.92478" lon="0.30084">
        <ele>1279</ele>
        <time>2021-05-29T06:43:35Z</time>
      </trkpt>
      <trkpt lat="42.92477" lon="0.30088">
        <ele>1279</ele>
        <time>2021-05-29T06:43:36Z</time>
      </trkpt>
      <trkpt lat="42.92476" lon="0.30091">
        <ele>1279.2</ele>
        <time>2021-05-29T06:43:37Z</time>
      </trkpt>
      <trkpt lat="42.92475" lon="0.30094">
        <ele>1279.4</ele>
        <time>2021-05-29T06:43:38Z</time>
      </trkpt>
      <trkpt lat="42.92476" lon="0.30098">
        <ele>1279.4</ele>
        <time>2021-05-29T06:43:39Z</time>
      </trkpt>
      <trkpt lat="42.92477" lon="0.30101">
        <ele>1279.8</ele>
        <time>2021-05-29T06:43:40Z</time>
      </trkpt>
      <trkpt lat="42.92477" lon="0.30105">
        <ele>1279.8</ele>
        <time>2021-05-29T06:43:41Z</time>
      </trkpt>
      <trkpt lat="42.92474" lon="0.30109">
        <ele>1280</ele>
        <time>2021-05-29T06:43:42Z</time>
      </trkpt>
      <trkpt lat="42.92472" lon="0.30112">
        <ele>1280.4</ele>
        <time>2021-05-29T06:43:43Z</time>
      </trkpt>
      <trkpt lat="42.92471" lon="0.30115">
        <ele>1280.8</ele>
        <time>2021-05-29T06:43:44Z</time>
      </trkpt>
      <trkpt lat="42.9247" lon="0.30118">
        <ele>1281</ele>
        <time>2021-05-29T06:43:45Z</time>
      </trkpt>
      <trkpt lat="42.9247" lon="0.30121">
        <ele>1281.2</ele>
        <time>2021-05-29T06:43:46Z</time>
      </trkpt>
      <trkpt lat="42.9247" lon="0.30123">
        <ele>1281.2</ele>
        <time>2021-05-29T06:43:47Z</time>
      </trkpt>
      <trkpt lat="42.92469" lon="0.30125">
        <ele>1281.4</ele>
        <time>2021-05-29T06:43:48Z</time>
      </trkpt>
      <trkpt lat="42.92468" lon="0.30126">
        <ele>1281.6</ele>
        <time>2021-05-29T06:43:49Z</time>
      </trkpt>
      <trkpt lat="42.92466" lon="0.30129">
        <ele>1281.8</ele>
        <time>2021-05-29T06:43:50Z</time>
      </trkpt>
      <trkpt lat="42.92465" lon="0.30132">
        <ele>1282</ele>
        <time>2021-05-29T06:43:51Z</time>
      </trkpt>
      <trkpt lat="42.92465" lon="0.30134">
        <ele>1282</ele>
        <time>2021-05-29T06:43:52Z</time>
      </trkpt>
      <trkpt lat="42.92464" lon="0.30137">
        <ele>1282.2</ele>
        <time>2021-05-29T06:43:53Z</time>
      </trkpt>
      <trkpt lat="42.92463" lon="0.30139">
        <ele>1282.2</ele>
        <time>2021-05-29T06:43:54Z</time>
      </trkpt>
      <trkpt lat="42.92461" lon="0.30142">
        <ele>1282.4</ele>
        <time>2021-05-29T06:43:55Z</time>
      </trkpt>
      <trkpt lat="42.9246" lon="0.30145">
        <ele>1282.4</ele>
        <time>2021-05-29T06:43:56Z</time>
      </trkpt>
      <trkpt lat="42.92459" lon="0.30147">
        <ele>1282.8</ele>
        <time>2021-05-29T06:43:57Z</time>
      </trkpt>
      <trkpt lat="42.92459" lon="0.30148">
        <ele>1282.8</ele>
        <time>2021-05-29T06:43:58Z</time>
      </trkpt>
      <trkpt lat="42.92458" lon="0.30149">
        <ele>1283</ele>
        <time>2021-05-29T06:43:59Z</time>
      </trkpt>
      <trkpt lat="42.92457" lon="0.30151">
        <ele>1283</ele>
        <time>2021-05-29T06:44:00Z</time>
      </trkpt>
      <trkpt lat="42.92457" lon="0.30151">
        <ele>1283.4</ele>
        <time>2021-05-29T06:44:01Z</time>
      </trkpt>
      <trkpt lat="42.92457" lon="0.30153">
        <ele>1283.6</ele>
        <time>2021-05-29T06:44:02Z</time>
      </trkpt>
      <trkpt lat="42.92457" lon="0.30155">
        <ele>1283.8</ele>
        <time>2021-05-29T06:44:03Z</time>
      </trkpt>
      <trkpt lat="42.92457" lon="0.30157">
        <ele>1284</ele>
        <time>2021-05-29T06:44:04Z</time>
      </trkpt>
      <trkpt lat="42.92457" lon="0.3016">
        <ele>1284</ele>
        <time>2021-05-29T06:44:05Z</time>
      </trkpt>
      <trkpt lat="42.92457" lon="0.30162">
        <ele>1284.2</ele>
        <time>2021-05-29T06:44:06Z</time>
      </trkpt>
      <trkpt lat="42.92457" lon="0.30164">
        <ele>1284.4</ele>
        <time>2021-05-29T06:44:07Z</time>
      </trkpt>
      <trkpt lat="42.92458" lon="0.30166">
        <ele>1284.6</ele>
        <time>2021-05-29T06:44:08Z</time>
      </trkpt>
      <trkpt lat="42.92459" lon="0.30169">
        <ele>1284.6</ele>
        <time>2021-05-29T06:44:09Z</time>
      </trkpt>
      <trkpt lat="42.9246" lon="0.30172">
        <ele>1284.8</ele>
        <time>2021-05-29T06:44:10Z</time>
      </trkpt>
      <trkpt lat="42.92462" lon="0.30175">
        <ele>1285</ele>
        <time>2021-05-29T06:44:11Z</time>
      </trkpt>
      <trkpt lat="42.92462" lon="0.30179">
        <ele>1285.2</ele>
        <time>2021-05-29T06:44:12Z</time>
      </trkpt>
      <trkpt lat="42.92461" lon="0.30182">
        <ele>1285.2</ele>
        <time>2021-05-29T06:44:13Z</time>
      </trkpt>
      <trkpt lat="42.92461" lon="0.30184">
        <ele>1285.6</ele>
        <time>2021-05-29T06:44:14Z</time>
      </trkpt>
      <trkpt lat="42.92464" lon="0.30185">
        <ele>1285.6</ele>
        <time>2021-05-29T06:44:15Z</time>
      </trkpt>
      <trkpt lat="42.92466" lon="0.30186">
        <ele>1286</ele>
        <time>2021-05-29T06:44:16Z</time>
      </trkpt>
      <trkpt lat="42.92467" lon="0.30188">
        <ele>1286</ele>
        <time>2021-05-29T06:44:17Z</time>
      </trkpt>
      <trkpt lat="42.9247" lon="0.3019">
        <ele>1286.4</ele>
        <time>2021-05-29T06:44:18Z</time>
      </trkpt>
      <trkpt lat="42.92473" lon="0.30191">
        <ele>1286.4</ele>
        <time>2021-05-29T06:44:19Z</time>
      </trkpt>
      <trkpt lat="42.92475" lon="0.30194">
        <ele>1286.8</ele>
        <time>2021-05-29T06:44:20Z</time>
      </trkpt>
      <trkpt lat="42.92475" lon="0.30197">
        <ele>1286.8</ele>
        <time>2021-05-29T06:44:21Z</time>
      </trkpt>
      <trkpt lat="42.92474" lon="0.30199">
        <ele>1287</ele>
        <time>2021-05-29T06:44:22Z</time>
      </trkpt>
      <trkpt lat="42.92473" lon="0.30201">
        <ele>1287</ele>
        <time>2021-05-29T06:44:23Z</time>
      </trkpt>
      <trkpt lat="42.92473" lon="0.30202">
        <ele>1287.2</ele>
        <time>2021-05-29T06:44:24Z</time>
      </trkpt>
      <trkpt lat="42.92473" lon="0.30204">
        <ele>1287.4</ele>
        <time>2021-05-29T06:44:25Z</time>
      </trkpt>
      <trkpt lat="42.92474" lon="0.30205">
        <ele>1287.6</ele>
        <time>2021-05-29T06:44:26Z</time>
      </trkpt>
      <trkpt lat="42.92475" lon="0.30206">
        <ele>1287.6</ele>
        <time>2021-05-29T06:44:27Z</time>
      </trkpt>
      <trkpt lat="42.92477" lon="0.30207">
        <ele>1288.2</ele>
        <time>2021-05-29T06:44:28Z</time>
      </trkpt>
      <trkpt lat="42.92479" lon="0.30208">
        <ele>1288.8</ele>
        <time>2021-05-29T06:44:29Z</time>
      </trkpt>
      <trkpt lat="42.9248" lon="0.30209">
        <ele>1289</ele>
        <time>2021-05-29T06:44:30Z</time>
      </trkpt>
      <trkpt lat="42.92481" lon="0.3021">
        <ele>1289.2</ele>
        <time>2021-05-29T06:44:31Z</time>
      </trkpt>
      <trkpt lat="42.92483" lon="0.30211">
        <ele>1289.2</ele>
        <time>2021-05-29T06:44:32Z</time>
      </trkpt>
      <trkpt lat="42.92483" lon="0.30212">
        <ele>1289.4</ele>
        <time>2021-05-29T06:44:33Z</time>
      </trkpt>
      <trkpt lat="42.92485" lon="0.30212">
        <ele>1289.4</ele>
        <time>2021-05-29T06:44:34Z</time>
      </trkpt>
      <trkpt lat="42.92485" lon="0.30213">
        <ele>1289.6</ele>
        <time>2021-05-29T06:44:35Z</time>
      </trkpt>
      <trkpt lat="42.92486" lon="0.30213">
        <ele>1289.8</ele>
        <time>2021-05-29T06:44:36Z</time>
      </trkpt>
      <trkpt lat="42.92487" lon="0.30214">
        <ele>1290</ele>
        <time>2021-05-29T06:44:37Z</time>
      </trkpt>
      <trkpt lat="42.92488" lon="0.30214">
        <ele>1290.2</ele>
        <time>2021-05-29T06:44:38Z</time>
      </trkpt>
      <trkpt lat="42.92488" lon="0.30214">
        <ele>1290.2</ele>
        <time>2021-05-29T06:44:39Z</time>
      </trkpt>
      <trkpt lat="42.92489" lon="0.30215">
        <ele>1290.4</ele>
        <time>2021-05-29T06:44:40Z</time>
      </trkpt>
      <trkpt lat="42.92491" lon="0.30216">
        <ele>1290.8</ele>
        <time>2021-05-29T06:44:41Z</time>
      </trkpt>
      <trkpt lat="42.92493" lon="0.30216">
        <ele>1290.8</ele>
        <time>2021-05-29T06:44:42Z</time>
      </trkpt>
      <trkpt lat="42.92496" lon="0.30218">
        <ele>1291.2</ele>
        <time>2021-05-29T06:44:43Z</time>
      </trkpt>
      <trkpt lat="42.92498" lon="0.30218">
        <ele>1291.2</ele>
        <time>2021-05-29T06:44:44Z</time>
      </trkpt>
      <trkpt lat="42.92501" lon="0.30219">
        <ele>1291.4</ele>
        <time>2021-05-29T06:44:45Z</time>
      </trkpt>
      <trkpt lat="42.92503" lon="0.30219">
        <ele>1291.6</ele>
        <time>2021-05-29T06:44:46Z</time>
      </trkpt>
      <trkpt lat="42.92504" lon="0.30219">
        <ele>1291.8</ele>
        <time>2021-05-29T06:44:47Z</time>
      </trkpt>
      <trkpt lat="42.92505" lon="0.30219">
        <ele>1292.2</ele>
        <time>2021-05-29T06:44:48Z</time>
      </trkpt>
      <trkpt lat="42.92506" lon="0.30219">
        <ele>1292.4</ele>
        <time>2021-05-29T06:44:49Z</time>
      </trkpt>
      <trkpt lat="42.92506" lon="0.3022">
        <ele>1292.6</ele>
        <time>2021-05-29T06:44:50Z</time>
      </trkpt>
      <trkpt lat="42.92509" lon="0.3022">
        <ele>1292.6</ele>
        <time>2021-05-29T06:44:51Z</time>
      </trkpt>
      <trkpt lat="42.92511" lon="0.30221">
        <ele>1292.8</ele>
        <time>2021-05-29T06:44:52Z</time>
      </trkpt>
      <trkpt lat="42.92513" lon="0.30221">
        <ele>1293</ele>
        <time>2021-05-29T06:44:53Z</time>
      </trkpt>
      <trkpt lat="42.92516" lon="0.30221">
        <ele>1293.2</ele>
        <time>2021-05-29T06:44:54Z</time>
      </trkpt>
      <trkpt lat="42.92518" lon="0.30221">
        <ele>1293.4</ele>
        <time>2021-05-29T06:44:55Z</time>
      </trkpt>
      <trkpt lat="42.9252" lon="0.3022">
        <ele>1293.6</ele>
        <time>2021-05-29T06:44:56Z</time>
      </trkpt>
      <trkpt lat="42.92521" lon="0.3022">
        <ele>1293.8</ele>
        <time>2021-05-29T06:44:57Z</time>
      </trkpt>
      <trkpt lat="42.92522" lon="0.3022">
        <ele>1294</ele>
        <time>2021-05-29T06:44:58Z</time>
      </trkpt>
      <trkpt lat="42.92522" lon="0.3022">
        <ele>1294</ele>
        <time>2021-05-29T06:44:59Z</time>
      </trkpt>
      <trkpt lat="42.92523" lon="0.3022">
        <ele>1294.2</ele>
        <time>2021-05-29T06:45:00Z</time>
      </trkpt>
      <trkpt lat="42.92525" lon="0.3022">
        <ele>1294.4</ele>
        <time>2021-05-29T06:45:01Z</time>
      </trkpt>
      <trkpt lat="42.92528" lon="0.3022">
        <ele>1294.4</ele>
        <time>2021-05-29T06:45:02Z</time>
      </trkpt>
      <trkpt lat="42.9253" lon="0.3022">
        <ele>1294.4</ele>
        <time>2021-05-29T06:45:03Z</time>
      </trkpt>
      <trkpt lat="42.92531" lon="0.3022">
        <ele>1294.6</ele>
        <time>2021-05-29T06:45:04Z</time>
      </trkpt>
      <trkpt lat="42.92531" lon="0.3022">
        <ele>1294.8</ele>
        <time>2021-05-29T06:45:05Z</time>
      </trkpt>
      <trkpt lat="42.92532" lon="0.3022">
        <ele>1295.2</ele>
        <time>2021-05-29T06:45:06Z</time>
      </trkpt>
      <trkpt lat="42.92535" lon="0.30221">
        <ele>1295.2</ele>
        <time>2021-05-29T06:45:07Z</time>
      </trkpt>
      <trkpt lat="42.92538" lon="0.30221">
        <ele>1295.6</ele>
        <time>2021-05-29T06:45:08Z</time>
      </trkpt>
      <trkpt lat="42.92539" lon="0.3022">
        <ele>1295.8</ele>
        <time>2021-05-29T06:45:09Z</time>
      </trkpt>
      <trkpt lat="42.9254" lon="0.3022">
        <ele>1296</ele>
        <time>2021-05-29T06:45:10Z</time>
      </trkpt>
      <trkpt lat="42.92541" lon="0.30219">
        <ele>1296.2</ele>
        <time>2021-05-29T06:45:11Z</time>
      </trkpt>
      <trkpt lat="42.92542" lon="0.30219">
        <ele>1296.4</ele>
        <time>2021-05-29T06:45:12Z</time>
      </trkpt>
      <trkpt lat="42.92543" lon="0.30219">
        <ele>1296.4</ele>
        <time>2021-05-29T06:45:13Z</time>
      </trkpt>
      <trkpt lat="42.92545" lon="0.3022">
        <ele>1296.6</ele>
        <time>2021-05-29T06:45:14Z</time>
      </trkpt>
      <trkpt lat="42.92548" lon="0.3022">
        <ele>1297</ele>
        <time>2021-05-29T06:45:15Z</time>
      </trkpt>
      <trkpt lat="42.92551" lon="0.3022">
        <ele>1297</ele>
        <time>2021-05-29T06:45:16Z</time>
      </trkpt>
      <trkpt lat="42.92554" lon="0.30219">
        <ele>1297.4</ele>
        <time>2021-05-29T06:45:17Z</time>
      </trkpt>
      <trkpt lat="42.92556" lon="0.30218">
        <ele>1297.4</ele>
        <time>2021-05-29T06:45:18Z</time>
      </trkpt>
      <trkpt lat="42.9256" lon="0.30217">
        <ele>1297.8</ele>
        <time>2021-05-29T06:45:19Z</time>
      </trkpt>
      <trkpt lat="42.92562" lon="0.30217">
        <ele>1297.8</ele>
        <time>2021-05-29T06:45:20Z</time>
      </trkpt>
      <trkpt lat="42.92564" lon="0.30218">
        <ele>1298</ele>
        <time>2021-05-29T06:45:21Z</time>
      </trkpt>
      <trkpt lat="42.92566" lon="0.30217">
        <ele>1298</ele>
        <time>2021-05-29T06:45:22Z</time>
      </trkpt>
      <trkpt lat="42.92567" lon="0.30218">
        <ele>1298.2</ele>
        <time>2021-05-29T06:45:23Z</time>
      </trkpt>
      <trkpt lat="42.92568" lon="0.30219">
        <ele>1298.4</ele>
        <time>2021-05-29T06:45:24Z</time>
      </trkpt>
      <trkpt lat="42.9257" lon="0.30219">
        <ele>1298.6</ele>
        <time>2021-05-29T06:45:25Z</time>
      </trkpt>
      <trkpt lat="42.92571" lon="0.30219">
        <ele>1298.8</ele>
        <time>2021-05-29T06:45:26Z</time>
      </trkpt>
      <trkpt lat="42.92572" lon="0.30219">
        <ele>1299</ele>
        <time>2021-05-29T06:45:27Z</time>
      </trkpt>
      <trkpt lat="42.92573" lon="0.30219">
        <ele>1299</ele>
        <time>2021-05-29T06:45:28Z</time>
      </trkpt>
      <trkpt lat="42.92574" lon="0.30219">
        <ele>1299</ele>
        <time>2021-05-29T06:45:29Z</time>
      </trkpt>
      <trkpt lat="42.92575" lon="0.3022">
        <ele>1299.4</ele>
        <time>2021-05-29T06:45:30Z</time>
      </trkpt>
      <trkpt lat="42.92575" lon="0.30219">
        <ele>1299.4</ele>
        <time>2021-05-29T06:45:31Z</time>
      </trkpt>
      <trkpt lat="42.92577" lon="0.3022">
        <ele>1299.8</ele>
        <time>2021-05-29T06:45:32Z</time>
      </trkpt>
      <trkpt lat="42.92578" lon="0.30221">
        <ele>1299.8</ele>
        <time>2021-05-29T06:45:33Z</time>
      </trkpt>
      <trkpt lat="42.92579" lon="0.30221">
        <ele>1300</ele>
        <time>2021-05-29T06:45:34Z</time>
      </trkpt>
      <trkpt lat="42.9258" lon="0.30222">
        <ele>1300.2</ele>
        <time>2021-05-29T06:45:35Z</time>
      </trkpt>
      <trkpt lat="42.92582" lon="0.30223">
        <ele>1300.4</ele>
        <time>2021-05-29T06:45:36Z</time>
      </trkpt>
      <trkpt lat="42.92582" lon="0.30223">
        <ele>1300.6</ele>
        <time>2021-05-29T06:45:37Z</time>
      </trkpt>
      <trkpt lat="42.92584" lon="0.30223">
        <ele>1300.8</ele>
        <time>2021-05-29T06:45:38Z</time>
      </trkpt>
      <trkpt lat="42.92585" lon="0.30224">
        <ele>1301</ele>
        <time>2021-05-29T06:45:39Z</time>
      </trkpt>
      <trkpt lat="42.92587" lon="0.30224">
        <ele>1301.2</ele>
        <time>2021-05-29T06:45:40Z</time>
      </trkpt>
      <trkpt lat="42.9259" lon="0.30224">
        <ele>1301.4</ele>
        <time>2021-05-29T06:45:41Z</time>
      </trkpt>
      <trkpt lat="42.92591" lon="0.30224">
        <ele>1301.6</ele>
        <time>2021-05-29T06:45:42Z</time>
      </trkpt>
      <trkpt lat="42.92593" lon="0.30223">
        <ele>1301.8</ele>
        <time>2021-05-29T06:45:43Z</time>
      </trkpt>
      <trkpt lat="42.92594" lon="0.30224">
        <ele>1301.8</ele>
        <time>2021-05-29T06:45:44Z</time>
      </trkpt>
      <trkpt lat="42.92597" lon="0.30224">
        <ele>1302</ele>
        <time>2021-05-29T06:45:45Z</time>
      </trkpt>
      <trkpt lat="42.92599" lon="0.30224">
        <ele>1302</ele>
        <time>2021-05-29T06:45:46Z</time>
      </trkpt>
      <trkpt lat="42.926" lon="0.30225">
        <ele>1302.2</ele>
        <time>2021-05-29T06:45:47Z</time>
      </trkpt>
      <trkpt lat="42.92601" lon="0.30225">
        <ele>1302.4</ele>
        <time>2021-05-29T06:45:48Z</time>
      </trkpt>
      <trkpt lat="42.92601" lon="0.30226">
        <ele>1302.6</ele>
        <time>2021-05-29T06:45:49Z</time>
      </trkpt>
      <trkpt lat="42.92603" lon="0.30226">
        <ele>1302.8</ele>
        <time>2021-05-29T06:45:50Z</time>
      </trkpt>
      <trkpt lat="42.92606" lon="0.30227">
        <ele>1303</ele>
        <time>2021-05-29T06:45:51Z</time>
      </trkpt>
      <trkpt lat="42.92608" lon="0.30227">
        <ele>1303</ele>
        <time>2021-05-29T06:45:52Z</time>
      </trkpt>
      <trkpt lat="42.92609" lon="0.30227">
        <ele>1303.4</ele>
        <time>2021-05-29T06:45:53Z</time>
      </trkpt>
      <trkpt lat="42.9261" lon="0.30227">
        <ele>1303.6</ele>
        <time>2021-05-29T06:45:54Z</time>
      </trkpt>
      <trkpt lat="42.92612" lon="0.30228">
        <ele>1303.8</ele>
        <time>2021-05-29T06:45:55Z</time>
      </trkpt>
      <trkpt lat="42.92615" lon="0.30228">
        <ele>1303.8</ele>
        <time>2021-05-29T06:45:56Z</time>
      </trkpt>
      <trkpt lat="42.92617" lon="0.30228">
        <ele>1304</ele>
        <time>2021-05-29T06:45:57Z</time>
      </trkpt>
      <trkpt lat="42.92619" lon="0.30228">
        <ele>1304</ele>
        <time>2021-05-29T06:45:58Z</time>
      </trkpt>
      <trkpt lat="42.92621" lon="0.30227">
        <ele>1304.2</ele>
        <time>2021-05-29T06:45:59Z</time>
      </trkpt>
      <trkpt lat="42.92622" lon="0.30226">
        <ele>1304.2</ele>
        <time>2021-05-29T06:46:00Z</time>
      </trkpt>
      <trkpt lat="42.92623" lon="0.30226">
        <ele>1304.4</ele>
        <time>2021-05-29T06:46:01Z</time>
      </trkpt>
      <trkpt lat="42.92625" lon="0.30227">
        <ele>1304.6</ele>
        <time>2021-05-29T06:46:02Z</time>
      </trkpt>
      <trkpt lat="42.92628" lon="0.30229">
        <ele>1304.8</ele>
        <time>2021-05-29T06:46:03Z</time>
      </trkpt>
      <trkpt lat="42.92632" lon="0.3023">
        <ele>1304.8</ele>
        <time>2021-05-29T06:46:04Z</time>
      </trkpt>
      <trkpt lat="42.92634" lon="0.3023">
        <ele>1305</ele>
        <time>2021-05-29T06:46:05Z</time>
      </trkpt>
      <trkpt lat="42.92635" lon="0.3023">
        <ele>1305</ele>
        <time>2021-05-29T06:46:06Z</time>
      </trkpt>
      <trkpt lat="42.92635" lon="0.3023">
        <ele>1305.2</ele>
        <time>2021-05-29T06:46:07Z</time>
      </trkpt>
      <trkpt lat="42.92637" lon="0.30231">
        <ele>1305.4</ele>
        <time>2021-05-29T06:46:08Z</time>
      </trkpt>
      <trkpt lat="42.92637" lon="0.30232">
        <ele>1305.8</ele>
        <time>2021-05-29T06:46:09Z</time>
      </trkpt>
      <trkpt lat="42.92639" lon="0.30233">
        <ele>1306</ele>
        <time>2021-05-29T06:46:10Z</time>
      </trkpt>
      <trkpt lat="42.92641" lon="0.30234">
        <ele>1306.2</ele>
        <time>2021-05-29T06:46:11Z</time>
      </trkpt>
      <trkpt lat="42.92642" lon="0.30234">
        <ele>1306.2</ele>
        <time>2021-05-29T06:46:12Z</time>
      </trkpt>
      <trkpt lat="42.92644" lon="0.30233">
        <ele>1306.4</ele>
        <time>2021-05-29T06:46:13Z</time>
      </trkpt>
      <trkpt lat="42.92645" lon="0.30233">
        <ele>1306.6</ele>
        <time>2021-05-29T06:46:14Z</time>
      </trkpt>
      <trkpt lat="42.92647" lon="0.30233">
        <ele>1306.6</ele>
        <time>2021-05-29T06:46:15Z</time>
      </trkpt>
      <trkpt lat="42.92647" lon="0.30234">
        <ele>1306.8</ele>
        <time>2021-05-29T06:46:16Z</time>
      </trkpt>
      <trkpt lat="42.92647" lon="0.30234">
        <ele>1307</ele>
        <time>2021-05-29T06:46:17Z</time>
      </trkpt>
      <trkpt lat="42.92647" lon="0.30234">
        <ele>1307</ele>
        <time>2021-05-29T06:46:18Z</time>
      </trkpt>
      <trkpt lat="42.92649" lon="0.30235">
        <ele>1307.2</ele>
        <time>2021-05-29T06:46:19Z</time>
      </trkpt>
      <trkpt lat="42.9265" lon="0.30236">
        <ele>1307.4</ele>
        <time>2021-05-29T06:46:20Z</time>
      </trkpt>
      <trkpt lat="42.92651" lon="0.30236">
        <ele>1307.4</ele>
        <time>2021-05-29T06:46:21Z</time>
      </trkpt>
      <trkpt lat="42.92653" lon="0.30237">
        <ele>1307.6</ele>
        <time>2021-05-29T06:46:22Z</time>
      </trkpt>
      <trkpt lat="42.92655" lon="0.30237">
        <ele>1307.8</ele>
        <time>2021-05-29T06:46:23Z</time>
      </trkpt>
      <trkpt lat="42.92656" lon="0.30239">
        <ele>1308</ele>
        <time>2021-05-29T06:46:24Z</time>
      </trkpt>
      <trkpt lat="42.92658" lon="0.3024">
        <ele>1308</ele>
        <time>2021-05-29T06:46:25Z</time>
      </trkpt>
      <trkpt lat="42.9266" lon="0.30241">
        <ele>1308.2</ele>
        <time>2021-05-29T06:46:26Z</time>
      </trkpt>
      <trkpt lat="42.92662" lon="0.30242">
        <ele>1308.4</ele>
        <time>2021-05-29T06:46:27Z</time>
      </trkpt>
      <trkpt lat="42.92663" lon="0.30243">
        <ele>1308.6</ele>
        <time>2021-05-29T06:46:28Z</time>
      </trkpt>
      <trkpt lat="42.92664" lon="0.30242">
        <ele>1308.8</ele>
        <time>2021-05-29T06:46:29Z</time>
      </trkpt>
      <trkpt lat="42.92666" lon="0.30243">
        <ele>1309.2</ele>
        <time>2021-05-29T06:46:30Z</time>
      </trkpt>
      <trkpt lat="42.92667" lon="0.30243">
        <ele>1309.4</ele>
        <time>2021-05-29T06:46:31Z</time>
      </trkpt>
      <trkpt lat="42.92669" lon="0.30244">
        <ele>1309.4</ele>
        <time>2021-05-29T06:46:32Z</time>
      </trkpt>
      <trkpt lat="42.9267" lon="0.30245">
        <ele>1309.6</ele>
        <time>2021-05-29T06:46:33Z</time>
      </trkpt>
      <trkpt lat="42.92671" lon="0.30246">
        <ele>1309.8</ele>
        <time>2021-05-29T06:46:34Z</time>
      </trkpt>
      <trkpt lat="42.92672" lon="0.30247">
        <ele>1310</ele>
        <time>2021-05-29T06:46:35Z</time>
      </trkpt>
      <trkpt lat="42.92672" lon="0.30248">
        <ele>1310</ele>
        <time>2021-05-29T06:46:36Z</time>
      </trkpt>
      <trkpt lat="42.92673" lon="0.30248">
        <ele>1310.2</ele>
        <time>2021-05-29T06:46:37Z</time>
      </trkpt>
      <trkpt lat="42.92675" lon="0.3025">
        <ele>1310.4</ele>
        <time>2021-05-29T06:46:38Z</time>
      </trkpt>
      <trkpt lat="42.92676" lon="0.30251">
        <ele>1310.6</ele>
        <time>2021-05-29T06:46:39Z</time>
      </trkpt>
      <trkpt lat="42.92677" lon="0.30253">
        <ele>1310.8</ele>
        <time>2021-05-29T06:46:40Z</time>
      </trkpt>
      <trkpt lat="42.92678" lon="0.30255">
        <ele>1311</ele>
        <time>2021-05-29T06:46:41Z</time>
      </trkpt>
      <trkpt lat="42.9268" lon="0.30256">
        <ele>1311</ele>
        <time>2021-05-29T06:46:42Z</time>
      </trkpt>
      <trkpt lat="42.92681" lon="0.30258">
        <ele>1311</ele>
        <time>2021-05-29T06:46:43Z</time>
      </trkpt>
      <trkpt lat="42.92681" lon="0.30259">
        <ele>1311.2</ele>
        <time>2021-05-29T06:46:44Z</time>
      </trkpt>
      <trkpt lat="42.92682" lon="0.3026">
        <ele>1311.6</ele>
        <time>2021-05-29T06:46:45Z</time>
      </trkpt>
      <trkpt lat="42.92682" lon="0.3026">
        <ele>1311.6</ele>
        <time>2021-05-29T06:46:46Z</time>
      </trkpt>
      <trkpt lat="42.92682" lon="0.30261">
        <ele>1311.6</ele>
        <time>2021-05-29T06:46:47Z</time>
      </trkpt>
      <trkpt lat="42.92684" lon="0.30262">
        <ele>1311.8</ele>
        <time>2021-05-29T06:46:48Z</time>
      </trkpt>
      <trkpt lat="42.92685" lon="0.30264">
        <ele>1312.2</ele>
        <time>2021-05-29T06:46:49Z</time>
      </trkpt>
      <trkpt lat="42.92686" lon="0.30266">
        <ele>1312.4</ele>
        <time>2021-05-29T06:46:50Z</time>
      </trkpt>
      <trkpt lat="42.92687" lon="0.30267">
        <ele>1312.6</ele>
        <time>2021-05-29T06:46:51Z</time>
      </trkpt>
      <trkpt lat="42.92688" lon="0.30269">
        <ele>1313</ele>
        <time>2021-05-29T06:46:52Z</time>
      </trkpt>
      <trkpt lat="42.92689" lon="0.30271">
        <ele>1313.2</ele>
        <time>2021-05-29T06:46:53Z</time>
      </trkpt>
      <trkpt lat="42.92691" lon="0.30274">
        <ele>1313.4</ele>
        <time>2021-05-29T06:46:54Z</time>
      </trkpt>
      <trkpt lat="42.92692" lon="0.30276">
        <ele>1313.6</ele>
        <time>2021-05-29T06:46:55Z</time>
      </trkpt>
      <trkpt lat="42.92693" lon="0.30277">
        <ele>1313.8</ele>
        <time>2021-05-29T06:46:56Z</time>
      </trkpt>
      <trkpt lat="42.92693" lon="0.30279">
        <ele>1314</ele>
        <time>2021-05-29T06:46:57Z</time>
      </trkpt>
      <trkpt lat="42.92694" lon="0.30281">
        <ele>1314.2</ele>
        <time>2021-05-29T06:46:58Z</time>
      </trkpt>
      <trkpt lat="42.92697" lon="0.30286">
        <ele>1314.2</ele>
        <time>2021-05-29T06:46:59Z</time>
      </trkpt>
      <trkpt lat="42.92698" lon="0.30288">
        <ele>1314.6</ele>
        <time>2021-05-29T06:47:00Z</time>
      </trkpt>
      <trkpt lat="42.92699" lon="0.3029">
        <ele>1314.6</ele>
        <time>2021-05-29T06:47:01Z</time>
      </trkpt>
      <trkpt lat="42.927" lon="0.30292">
        <ele>1315</ele>
        <time>2021-05-29T06:47:02Z</time>
      </trkpt>
      <trkpt lat="42.927" lon="0.30294">
        <ele>1315.2</ele>
        <time>2021-05-29T06:47:03Z</time>
      </trkpt>
      <trkpt lat="42.92702" lon="0.30296">
        <ele>1315.4</ele>
        <time>2021-05-29T06:47:04Z</time>
      </trkpt>
      <trkpt lat="42.92703" lon="0.30299">
        <ele>1315.6</ele>
        <time>2021-05-29T06:47:05Z</time>
      </trkpt>
      <trkpt lat="42.92704" lon="0.30302">
        <ele>1315.8</ele>
        <time>2021-05-29T06:47:06Z</time>
      </trkpt>
      <trkpt lat="42.92705" lon="0.30305">
        <ele>1315.8</ele>
        <time>2021-05-29T06:47:07Z</time>
      </trkpt>
      <trkpt lat="42.92707" lon="0.30307">
        <ele>1316.2</ele>
        <time>2021-05-29T06:47:08Z</time>
      </trkpt>
      <trkpt lat="42.92707" lon="0.30309">
        <ele>1316.2</ele>
        <time>2021-05-29T06:47:09Z</time>
      </trkpt>
      <trkpt lat="42.92708" lon="0.30311">
        <ele>1316.4</ele>
        <time>2021-05-29T06:47:10Z</time>
      </trkpt>
      <trkpt lat="42.92708" lon="0.30312">
        <ele>1316.6</ele>
        <time>2021-05-29T06:47:11Z</time>
      </trkpt>
      <trkpt lat="42.92708" lon="0.30314">
        <ele>1316.8</ele>
        <time>2021-05-29T06:47:12Z</time>
      </trkpt>
      <trkpt lat="42.92709" lon="0.30315">
        <ele>1317.2</ele>
        <time>2021-05-29T06:47:13Z</time>
      </trkpt>
      <trkpt lat="42.92708" lon="0.30318">
        <ele>1317.2</ele>
        <time>2021-05-29T06:47:14Z</time>
      </trkpt>
      <trkpt lat="42.92708" lon="0.3032">
        <ele>1317.4</ele>
        <time>2021-05-29T06:47:15Z</time>
      </trkpt>
      <trkpt lat="42.92707" lon="0.30322">
        <ele>1317.6</ele>
        <time>2021-05-29T06:47:16Z</time>
      </trkpt>
      <trkpt lat="42.92706" lon="0.30325">
        <ele>1317.8</ele>
        <time>2021-05-29T06:47:17Z</time>
      </trkpt>
      <trkpt lat="42.92707" lon="0.30327">
        <ele>1317.8</ele>
        <time>2021-05-29T06:47:18Z</time>
      </trkpt>
      <trkpt lat="42.92708" lon="0.30329">
        <ele>1318</ele>
        <time>2021-05-29T06:47:19Z</time>
      </trkpt>
      <trkpt lat="42.9271" lon="0.3033">
        <ele>1318.2</ele>
        <time>2021-05-29T06:47:20Z</time>
      </trkpt>
      <trkpt lat="42.92712" lon="0.30331">
        <ele>1318.4</ele>
        <time>2021-05-29T06:47:21Z</time>
      </trkpt>
      <trkpt lat="42.92714" lon="0.30332">
        <ele>1318.6</ele>
        <time>2021-05-29T06:47:22Z</time>
      </trkpt>
      <trkpt lat="42.92715" lon="0.30334">
        <ele>1318.8</ele>
        <time>2021-05-29T06:47:23Z</time>
      </trkpt>
      <trkpt lat="42.92716" lon="0.30335">
        <ele>1318.8</ele>
        <time>2021-05-29T06:47:24Z</time>
      </trkpt>
      <trkpt lat="42.92716" lon="0.30338">
        <ele>1319.2</ele>
        <time>2021-05-29T06:47:25Z</time>
      </trkpt>
      <trkpt lat="42.92716" lon="0.3034">
        <ele>1319.4</ele>
        <time>2021-05-29T06:47:26Z</time>
      </trkpt>
      <trkpt lat="42.92715" lon="0.30343">
        <ele>1319.8</ele>
        <time>2021-05-29T06:47:27Z</time>
      </trkpt>
      <trkpt lat="42.92715" lon="0.30346">
        <ele>1319.8</ele>
        <time>2021-05-29T06:47:28Z</time>
      </trkpt>
      <trkpt lat="42.92714" lon="0.30348">
        <ele>1320</ele>
        <time>2021-05-29T06:47:29Z</time>
      </trkpt>
      <trkpt lat="42.92713" lon="0.3035">
        <ele>1320.2</ele>
        <time>2021-05-29T06:47:30Z</time>
      </trkpt>
      <trkpt lat="42.92713" lon="0.30353">
        <ele>1320.2</ele>
        <time>2021-05-29T06:47:31Z</time>
      </trkpt>
      <trkpt lat="42.92712" lon="0.30355">
        <ele>1320.6</ele>
        <time>2021-05-29T06:47:32Z</time>
      </trkpt>
      <trkpt lat="42.92713" lon="0.30357">
        <ele>1320.6</ele>
        <time>2021-05-29T06:47:33Z</time>
      </trkpt>
      <trkpt lat="42.92713" lon="0.3036">
        <ele>1321</ele>
        <time>2021-05-29T06:47:34Z</time>
      </trkpt>
      <trkpt lat="42.92713" lon="0.30362">
        <ele>1321.2</ele>
        <time>2021-05-29T06:47:35Z</time>
      </trkpt>
      <trkpt lat="42.92713" lon="0.30364">
        <ele>1321.4</ele>
        <time>2021-05-29T06:47:36Z</time>
      </trkpt>
      <trkpt lat="42.92711" lon="0.30366">
        <ele>1321.4</ele>
        <time>2021-05-29T06:47:37Z</time>
      </trkpt>
      <trkpt lat="42.9271" lon="0.30367">
        <ele>1321.4</ele>
        <time>2021-05-29T06:47:38Z</time>
      </trkpt>
      <trkpt lat="42.92709" lon="0.30369">
        <ele>1321.4</ele>
        <time>2021-05-29T06:47:39Z</time>
      </trkpt>
      <trkpt lat="42.9271" lon="0.30371">
        <ele>1321.6</ele>
        <time>2021-05-29T06:47:40Z</time>
      </trkpt>
      <trkpt lat="42.92711" lon="0.30374">
        <ele>1321.8</ele>
        <time>2021-05-29T06:47:41Z</time>
      </trkpt>
      <trkpt lat="42.92712" lon="0.30377">
        <ele>1322</ele>
        <time>2021-05-29T06:47:42Z</time>
      </trkpt>
      <trkpt lat="42.92711" lon="0.3038">
        <ele>1322</ele>
        <time>2021-05-29T06:47:43Z</time>
      </trkpt>
      <trkpt lat="42.92712" lon="0.30381">
        <ele>1322.4</ele>
        <time>2021-05-29T06:47:44Z</time>
      </trkpt>
      <trkpt lat="42.92711" lon="0.30383">
        <ele>1322.4</ele>
        <time>2021-05-29T06:47:45Z</time>
      </trkpt>
      <trkpt lat="42.92712" lon="0.30385">
        <ele>1322.8</ele>
        <time>2021-05-29T06:47:46Z</time>
      </trkpt>
      <trkpt lat="42.92713" lon="0.30386">
        <ele>1322.8</ele>
        <time>2021-05-29T06:47:47Z</time>
      </trkpt>
      <trkpt lat="42.92711" lon="0.30386">
        <ele>1323</ele>
        <time>2021-05-29T06:47:48Z</time>
      </trkpt>
      <trkpt lat="42.92711" lon="0.30388">
        <ele>1323</ele>
        <time>2021-05-29T06:47:49Z</time>
      </trkpt>
      <trkpt lat="42.92712" lon="0.30392">
        <ele>1323.2</ele>
        <time>2021-05-29T06:47:50Z</time>
      </trkpt>
      <trkpt lat="42.92712" lon="0.30394">
        <ele>1323.2</ele>
        <time>2021-05-29T06:47:51Z</time>
      </trkpt>
      <trkpt lat="42.9271" lon="0.30395">
        <ele>1323.6</ele>
        <time>2021-05-29T06:47:52Z</time>
      </trkpt>
      <trkpt lat="42.92712" lon="0.30397">
        <ele>1323.8</ele>
        <time>2021-05-29T06:47:53Z</time>
      </trkpt>
      <trkpt lat="42.92712" lon="0.304">
        <ele>1323.8</ele>
        <time>2021-05-29T06:47:54Z</time>
      </trkpt>
      <trkpt lat="42.92711" lon="0.30403">
        <ele>1324.2</ele>
        <time>2021-05-29T06:47:55Z</time>
      </trkpt>
      <trkpt lat="42.92711" lon="0.30405">
        <ele>1324.4</ele>
        <time>2021-05-29T06:47:56Z</time>
      </trkpt>
      <trkpt lat="42.92711" lon="0.30407">
        <ele>1324.6</ele>
        <time>2021-05-29T06:47:57Z</time>
      </trkpt>
      <trkpt lat="42.92711" lon="0.30408">
        <ele>1324.8</ele>
        <time>2021-05-29T06:47:58Z</time>
      </trkpt>
      <trkpt lat="42.9271" lon="0.3041">
        <ele>1325</ele>
        <time>2021-05-29T06:47:59Z</time>
      </trkpt>
      <trkpt lat="42.9271" lon="0.30411">
        <ele>1325</ele>
        <time>2021-05-29T06:48:00Z</time>
      </trkpt>
      <trkpt lat="42.9271" lon="0.30413">
        <ele>1325.2</ele>
        <time>2021-05-29T06:48:01Z</time>
      </trkpt>
      <trkpt lat="42.92709" lon="0.30415">
        <ele>1325.4</ele>
        <time>2021-05-29T06:48:02Z</time>
      </trkpt>
      <trkpt lat="42.92709" lon="0.30417">
        <ele>1325.6</ele>
        <time>2021-05-29T06:48:03Z</time>
      </trkpt>
      <trkpt lat="42.9271" lon="0.30419">
        <ele>1325.8</ele>
        <time>2021-05-29T06:48:04Z</time>
      </trkpt>
      <trkpt lat="42.9271" lon="0.3042">
        <ele>1326</ele>
        <time>2021-05-29T06:48:05Z</time>
      </trkpt>
      <trkpt lat="42.9271" lon="0.3042">
        <ele>1326.2</ele>
        <time>2021-05-29T06:48:06Z</time>
      </trkpt>
      <trkpt lat="42.9271" lon="0.30421">
        <ele>1326.2</ele>
        <time>2021-05-29T06:48:07Z</time>
      </trkpt>
      <trkpt lat="42.92711" lon="0.30422">
        <ele>1326.4</ele>
        <time>2021-05-29T06:48:08Z</time>
      </trkpt>
      <trkpt lat="42.92711" lon="0.30422">
        <ele>1326.6</ele>
        <time>2021-05-29T06:48:09Z</time>
      </trkpt>
      <trkpt lat="42.92712" lon="0.30423">
        <ele>1326.6</ele>
        <time>2021-05-29T06:48:10Z</time>
      </trkpt>
      <trkpt lat="42.92714" lon="0.30425">
        <ele>1326.8</ele>
        <time>2021-05-29T06:48:11Z</time>
      </trkpt>
      <trkpt lat="42.92714" lon="0.30427">
        <ele>1327</ele>
        <time>2021-05-29T06:48:12Z</time>
      </trkpt>
      <trkpt lat="42.92715" lon="0.30429">
        <ele>1327.2</ele>
        <time>2021-05-29T06:48:13Z</time>
      </trkpt>
      <trkpt lat="42.92715" lon="0.30431">
        <ele>1327.4</ele>
        <time>2021-05-29T06:48:14Z</time>
      </trkpt>
      <trkpt lat="42.92715" lon="0.30434">
        <ele>1327.4</ele>
        <time>2021-05-29T06:48:15Z</time>
      </trkpt>
      <trkpt lat="42.92715" lon="0.30438">
        <ele>1327.8</ele>
        <time>2021-05-29T06:48:16Z</time>
      </trkpt>
      <trkpt lat="42.92715" lon="0.30441">
        <ele>1328</ele>
        <time>2021-05-29T06:48:17Z</time>
      </trkpt>
      <trkpt lat="42.92715" lon="0.30444">
        <ele>1328.2</ele>
        <time>2021-05-29T06:48:18Z</time>
      </trkpt>
      <trkpt lat="42.92715" lon="0.30447">
        <ele>1328.4</ele>
        <time>2021-05-29T06:48:19Z</time>
      </trkpt>
      <trkpt lat="42.92716" lon="0.30451">
        <ele>1328.4</ele>
        <time>2021-05-29T06:48:20Z</time>
      </trkpt>
      <trkpt lat="42.92716" lon="0.30453">
        <ele>1328.6</ele>
        <time>2021-05-29T06:48:21Z</time>
      </trkpt>
      <trkpt lat="42.92716" lon="0.30456">
        <ele>1329</ele>
        <time>2021-05-29T06:48:22Z</time>
      </trkpt>
      <trkpt lat="42.92716" lon="0.30458">
        <ele>1329</ele>
        <time>2021-05-29T06:48:23Z</time>
      </trkpt>
      <trkpt lat="42.92717" lon="0.3046">
        <ele>1329.2</ele>
        <time>2021-05-29T06:48:24Z</time>
      </trkpt>
      <trkpt lat="42.92717" lon="0.30463">
        <ele>1329.2</ele>
        <time>2021-05-29T06:48:25Z</time>
      </trkpt>
      <trkpt lat="42.92718" lon="0.30466">
        <ele>1329.4</ele>
        <time>2021-05-29T06:48:26Z</time>
      </trkpt>
      <trkpt lat="42.92719" lon="0.30469">
        <ele>1329.6</ele>
        <time>2021-05-29T06:48:27Z</time>
      </trkpt>
      <trkpt lat="42.9272" lon="0.30471">
        <ele>1329.8</ele>
        <time>2021-05-29T06:48:28Z</time>
      </trkpt>
      <trkpt lat="42.92719" lon="0.30474">
        <ele>1330</ele>
        <time>2021-05-29T06:48:29Z</time>
      </trkpt>
      <trkpt lat="42.92719" lon="0.30476">
        <ele>1330.2</ele>
        <time>2021-05-29T06:48:30Z</time>
      </trkpt>
      <trkpt lat="42.92719" lon="0.30478">
        <ele>1330.4</ele>
        <time>2021-05-29T06:48:31Z</time>
      </trkpt>
      <trkpt lat="42.92719" lon="0.3048">
        <ele>1330.6</ele>
        <time>2021-05-29T06:48:32Z</time>
      </trkpt>
      <trkpt lat="42.92719" lon="0.30482">
        <ele>1330.8</ele>
        <time>2021-05-29T06:48:33Z</time>
      </trkpt>
      <trkpt lat="42.92719" lon="0.30483">
        <ele>1331</ele>
        <time>2021-05-29T06:48:34Z</time>
      </trkpt>
      <trkpt lat="42.92718" lon="0.30483">
        <ele>1331.2</ele>
        <time>2021-05-29T06:48:35Z</time>
      </trkpt>
      <trkpt lat="42.92717" lon="0.30485">
        <ele>1331.4</ele>
        <time>2021-05-29T06:48:36Z</time>
      </trkpt>
      <trkpt lat="42.9272" lon="0.30488">
        <ele>1331.6</ele>
        <time>2021-05-29T06:48:37Z</time>
      </trkpt>
      <trkpt lat="42.92718" lon="0.30492">
        <ele>1331.8</ele>
        <time>2021-05-29T06:48:38Z</time>
      </trkpt>
      <trkpt lat="42.92721" lon="0.30494">
        <ele>1332</ele>
        <time>2021-05-29T06:48:39Z</time>
      </trkpt>
      <trkpt lat="42.92723" lon="0.30496">
        <ele>1332</ele>
        <time>2021-05-29T06:48:40Z</time>
      </trkpt>
      <trkpt lat="42.92723" lon="0.30498">
        <ele>1332.4</ele>
        <time>2021-05-29T06:48:41Z</time>
      </trkpt>
      <trkpt lat="42.92723" lon="0.305">
        <ele>1332.6</ele>
        <time>2021-05-29T06:48:42Z</time>
      </trkpt>
      <trkpt lat="42.92721" lon="0.30503">
        <ele>1332.8</ele>
        <time>2021-05-29T06:48:43Z</time>
      </trkpt>
      <trkpt lat="42.92721" lon="0.30506">
        <ele>1333</ele>
        <time>2021-05-29T06:48:44Z</time>
      </trkpt>
      <trkpt lat="42.92719" lon="0.30509">
        <ele>1333.4</ele>
        <time>2021-05-29T06:48:45Z</time>
      </trkpt>
      <trkpt lat="42.9272" lon="0.30512">
        <ele>1333.4</ele>
        <time>2021-05-29T06:48:46Z</time>
      </trkpt>
      <trkpt lat="42.92721" lon="0.30514">
        <ele>1333.8</ele>
        <time>2021-05-29T06:48:47Z</time>
      </trkpt>
      <trkpt lat="42.92721" lon="0.30516">
        <ele>1333.8</ele>
        <time>2021-05-29T06:48:48Z</time>
      </trkpt>
      <trkpt lat="42.92721" lon="0.30518">
        <ele>1334.2</ele>
        <time>2021-05-29T06:48:49Z</time>
      </trkpt>
      <trkpt lat="42.92719" lon="0.3052">
        <ele>1334.6</ele>
        <time>2021-05-29T06:48:50Z</time>
      </trkpt>
      <trkpt lat="42.9272" lon="0.30524">
        <ele>1334.8</ele>
        <time>2021-05-29T06:48:51Z</time>
      </trkpt>
      <trkpt lat="42.92718" lon="0.30527">
        <ele>1335</ele>
        <time>2021-05-29T06:48:52Z</time>
      </trkpt>
      <trkpt lat="42.92717" lon="0.30529">
        <ele>1335.2</ele>
        <time>2021-05-29T06:48:53Z</time>
      </trkpt>
      <trkpt lat="42.92717" lon="0.30531">
        <ele>1335</ele>
        <time>2021-05-29T06:48:54Z</time>
      </trkpt>
      <trkpt lat="42.92716" lon="0.30533">
        <ele>1335.4</ele>
        <time>2021-05-29T06:48:55Z</time>
      </trkpt>
      <trkpt lat="42.92715" lon="0.30535">
        <ele>1335.6</ele>
        <time>2021-05-29T06:48:56Z</time>
      </trkpt>
      <trkpt lat="42.92714" lon="0.30536">
        <ele>1335.4</ele>
        <time>2021-05-29T06:48:57Z</time>
      </trkpt>
      <trkpt lat="42.92713" lon="0.30538">
        <ele>1335.6</ele>
        <time>2021-05-29T06:48:58Z</time>
      </trkpt>
      <trkpt lat="42.92713" lon="0.3054">
        <ele>1335.8</ele>
        <time>2021-05-29T06:48:59Z</time>
      </trkpt>
      <trkpt lat="42.92712" lon="0.30542">
        <ele>1336</ele>
        <time>2021-05-29T06:49:00Z</time>
      </trkpt>
      <trkpt lat="42.92712" lon="0.30544">
        <ele>1336.2</ele>
        <time>2021-05-29T06:49:01Z</time>
      </trkpt>
      <trkpt lat="42.92712" lon="0.30545">
        <ele>1336.4</ele>
        <time>2021-05-29T06:49:02Z</time>
      </trkpt>
      <trkpt lat="42.92711" lon="0.30547">
        <ele>1336.4</ele>
        <time>2021-05-29T06:49:03Z</time>
      </trkpt>
      <trkpt lat="42.92711" lon="0.30549">
        <ele>1336.8</ele>
        <time>2021-05-29T06:49:04Z</time>
      </trkpt>
      <trkpt lat="42.92711" lon="0.30551">
        <ele>1336.8</ele>
        <time>2021-05-29T06:49:05Z</time>
      </trkpt>
      <trkpt lat="42.9271" lon="0.30552">
        <ele>1337</ele>
        <time>2021-05-29T06:49:06Z</time>
      </trkpt>
      <trkpt lat="42.92709" lon="0.30553">
        <ele>1337.2</ele>
        <time>2021-05-29T06:49:07Z</time>
      </trkpt>
      <trkpt lat="42.92709" lon="0.30555">
        <ele>1337.4</ele>
        <time>2021-05-29T06:49:08Z</time>
      </trkpt>
      <trkpt lat="42.92708" lon="0.30556">
        <ele>1337.6</ele>
        <time>2021-05-29T06:49:09Z</time>
      </trkpt>
      <trkpt lat="42.92708" lon="0.30558">
        <ele>1338</ele>
        <time>2021-05-29T06:49:10Z</time>
      </trkpt>
      <trkpt lat="42.92708" lon="0.3056">
        <ele>1338.2</ele>
        <time>2021-05-29T06:49:11Z</time>
      </trkpt>
      <trkpt lat="42.92707" lon="0.30562">
        <ele>1338.2</ele>
        <time>2021-05-29T06:49:12Z</time>
      </trkpt>
      <trkpt lat="42.92706" lon="0.30564">
        <ele>1338.6</ele>
        <time>2021-05-29T06:49:13Z</time>
      </trkpt>
      <trkpt lat="42.92705" lon="0.30565">
        <ele>1338.6</ele>
        <time>2021-05-29T06:49:14Z</time>
      </trkpt>
      <trkpt lat="42.92704" lon="0.30567">
        <ele>1338.8</ele>
        <time>2021-05-29T06:49:15Z</time>
      </trkpt>
      <trkpt lat="42.92702" lon="0.30568">
        <ele>1339</ele>
        <time>2021-05-29T06:49:16Z</time>
      </trkpt>
      <trkpt lat="42.92701" lon="0.30569">
        <ele>1339</ele>
        <time>2021-05-29T06:49:17Z</time>
      </trkpt>
      <trkpt lat="42.92699" lon="0.30571">
        <ele>1339</ele>
        <time>2021-05-29T06:49:18Z</time>
      </trkpt>
      <trkpt lat="42.92697" lon="0.30572">
        <ele>1339.4</ele>
        <time>2021-05-29T06:49:19Z</time>
      </trkpt>
      <trkpt lat="42.92696" lon="0.30574">
        <ele>1339.4</ele>
        <time>2021-05-29T06:49:20Z</time>
      </trkpt>
      <trkpt lat="42.92694" lon="0.30575">
        <ele>1339.6</ele>
        <time>2021-05-29T06:49:21Z</time>
      </trkpt>
      <trkpt lat="42.92692" lon="0.30575">
        <ele>1339.8</ele>
        <time>2021-05-29T06:49:22Z</time>
      </trkpt>
      <trkpt lat="42.9269" lon="0.30576">
        <ele>1340</ele>
        <time>2021-05-29T06:49:23Z</time>
      </trkpt>
      <trkpt lat="42.92689" lon="0.30578">
        <ele>1340</ele>
        <time>2021-05-29T06:49:24Z</time>
      </trkpt>
      <trkpt lat="42.92688" lon="0.3058">
        <ele>1340.6</ele>
        <time>2021-05-29T06:49:25Z</time>
      </trkpt>
      <trkpt lat="42.92688" lon="0.30582">
        <ele>1340.6</ele>
        <time>2021-05-29T06:49:26Z</time>
      </trkpt>
      <trkpt lat="42.92687" lon="0.30584">
        <ele>1340.8</ele>
        <time>2021-05-29T06:49:27Z</time>
      </trkpt>
      <trkpt lat="42.92686" lon="0.30586">
        <ele>1341</ele>
        <time>2021-05-29T06:49:28Z</time>
      </trkpt>
      <trkpt lat="42.92686" lon="0.30588">
        <ele>1341.2</ele>
        <time>2021-05-29T06:49:29Z</time>
      </trkpt>
      <trkpt lat="42.92684" lon="0.30589">
        <ele>1341.4</ele>
        <time>2021-05-29T06:49:30Z</time>
      </trkpt>
      <trkpt lat="42.92682" lon="0.30591">
        <ele>1341.4</ele>
        <time>2021-05-29T06:49:31Z</time>
      </trkpt>
      <trkpt lat="42.9268" lon="0.30593">
        <ele>1341.6</ele>
        <time>2021-05-29T06:49:32Z</time>
      </trkpt>
      <trkpt lat="42.92679" lon="0.30594">
        <ele>1341.8</ele>
        <time>2021-05-29T06:49:33Z</time>
      </trkpt>
      <trkpt lat="42.92678" lon="0.30595">
        <ele>1342</ele>
        <time>2021-05-29T06:49:34Z</time>
      </trkpt>
      <trkpt lat="42.92677" lon="0.30596">
        <ele>1341.8</ele>
        <time>2021-05-29T06:49:35Z</time>
      </trkpt>
      <trkpt lat="42.92677" lon="0.30598">
        <ele>1342</ele>
        <time>2021-05-29T06:49:36Z</time>
      </trkpt>
      <trkpt lat="42.92677" lon="0.30598">
        <ele>1342</ele>
        <time>2021-05-29T06:49:37Z</time>
      </trkpt>
      <trkpt lat="42.92676" lon="0.30599">
        <ele>1342.2</ele>
        <time>2021-05-29T06:49:38Z</time>
      </trkpt>
      <trkpt lat="42.92675" lon="0.306">
        <ele>1342.4</ele>
        <time>2021-05-29T06:49:39Z</time>
      </trkpt>
      <trkpt lat="42.92675" lon="0.30602">
        <ele>1342.4</ele>
        <time>2021-05-29T06:49:40Z</time>
      </trkpt>
      <trkpt lat="42.92674" lon="0.30604">
        <ele>1342.6</ele>
        <time>2021-05-29T06:49:41Z</time>
      </trkpt>
      <trkpt lat="42.92673" lon="0.30606">
        <ele>1342.8</ele>
        <time>2021-05-29T06:49:42Z</time>
      </trkpt>
      <trkpt lat="42.92672" lon="0.30608">
        <ele>1343</ele>
        <time>2021-05-29T06:49:43Z</time>
      </trkpt>
      <trkpt lat="42.92671" lon="0.3061">
        <ele>1343.2</ele>
        <time>2021-05-29T06:49:44Z</time>
      </trkpt>
      <trkpt lat="42.92669" lon="0.30611">
        <ele>1343.4</ele>
        <time>2021-05-29T06:49:45Z</time>
      </trkpt>
      <trkpt lat="42.92665" lon="0.30611">
        <ele>1343.6</ele>
        <time>2021-05-29T06:49:46Z</time>
      </trkpt>
      <trkpt lat="42.92663" lon="0.30612">
        <ele>1343.6</ele>
        <time>2021-05-29T06:49:47Z</time>
      </trkpt>
      <trkpt lat="42.92661" lon="0.30613">
        <ele>1343.8</ele>
        <time>2021-05-29T06:49:48Z</time>
      </trkpt>
      <trkpt lat="42.92659" lon="0.30615">
        <ele>1344</ele>
        <time>2021-05-29T06:49:49Z</time>
      </trkpt>
      <trkpt lat="42.92658" lon="0.30616">
        <ele>1344.2</ele>
        <time>2021-05-29T06:49:50Z</time>
      </trkpt>
      <trkpt lat="42.92657" lon="0.30618">
        <ele>1344.6</ele>
        <time>2021-05-29T06:49:51Z</time>
      </trkpt>
      <trkpt lat="42.92656" lon="0.30618">
        <ele>1344.6</ele>
        <time>2021-05-29T06:49:52Z</time>
      </trkpt>
      <trkpt lat="42.92655" lon="0.30619">
        <ele>1345</ele>
        <time>2021-05-29T06:49:53Z</time>
      </trkpt>
      <trkpt lat="42.92655" lon="0.30619">
        <ele>1345.2</ele>
        <time>2021-05-29T06:49:54Z</time>
      </trkpt>
      <trkpt lat="42.92655" lon="0.30621">
        <ele>1345.6</ele>
        <time>2021-05-29T06:49:55Z</time>
      </trkpt>
      <trkpt lat="42.92655" lon="0.30622">
        <ele>1345.4</ele>
        <time>2021-05-29T06:49:56Z</time>
      </trkpt>
      <trkpt lat="42.92654" lon="0.30624">
        <ele>1345.8</ele>
        <time>2021-05-29T06:49:57Z</time>
      </trkpt>
      <trkpt lat="42.92653" lon="0.30626">
        <ele>1345.8</ele>
        <time>2021-05-29T06:49:58Z</time>
      </trkpt>
      <trkpt lat="42.92653" lon="0.30628">
        <ele>1346</ele>
        <time>2021-05-29T06:49:59Z</time>
      </trkpt>
      <trkpt lat="42.92652" lon="0.3063">
        <ele>1346.2</ele>
        <time>2021-05-29T06:50:00Z</time>
      </trkpt>
      <trkpt lat="42.92651" lon="0.30631">
        <ele>1346.4</ele>
        <time>2021-05-29T06:50:01Z</time>
      </trkpt>
      <trkpt lat="42.9265" lon="0.30632">
        <ele>1346.6</ele>
        <time>2021-05-29T06:50:02Z</time>
      </trkpt>
      <trkpt lat="42.92649" lon="0.30634">
        <ele>1346.8</ele>
        <time>2021-05-29T06:50:03Z</time>
      </trkpt>
      <trkpt lat="42.92648" lon="0.30635">
        <ele>1346.8</ele>
        <time>2021-05-29T06:50:04Z</time>
      </trkpt>
      <trkpt lat="42.92646" lon="0.30636">
        <ele>1347.2</ele>
        <time>2021-05-29T06:50:05Z</time>
      </trkpt>
      <trkpt lat="42.92646" lon="0.30637">
        <ele>1347.2</ele>
        <time>2021-05-29T06:50:06Z</time>
      </trkpt>
      <trkpt lat="42.92646" lon="0.30639">
        <ele>1347.4</ele>
        <time>2021-05-29T06:50:07Z</time>
      </trkpt>
      <trkpt lat="42.92646" lon="0.30639">
        <ele>1347.4</ele>
        <time>2021-05-29T06:50:08Z</time>
      </trkpt>
      <trkpt lat="42.92646" lon="0.3064">
        <ele>1347.6</ele>
        <time>2021-05-29T06:50:09Z</time>
      </trkpt>
      <trkpt lat="42.92644" lon="0.30642">
        <ele>1347.6</ele>
        <time>2021-05-29T06:50:10Z</time>
      </trkpt>
      <trkpt lat="42.92643" lon="0.30644">
        <ele>1348</ele>
        <time>2021-05-29T06:50:11Z</time>
      </trkpt>
      <trkpt lat="42.92642" lon="0.30646">
        <ele>1348.4</ele>
        <time>2021-05-29T06:50:12Z</time>
      </trkpt>
      <trkpt lat="42.92642" lon="0.30647">
        <ele>1348.4</ele>
        <time>2021-05-29T06:50:13Z</time>
      </trkpt>
      <trkpt lat="42.92641" lon="0.30649">
        <ele>1348.6</ele>
        <time>2021-05-29T06:50:14Z</time>
      </trkpt>
      <trkpt lat="42.92641" lon="0.3065">
        <ele>1348.8</ele>
        <time>2021-05-29T06:50:15Z</time>
      </trkpt>
      <trkpt lat="42.9264" lon="0.30652">
        <ele>1349</ele>
        <time>2021-05-29T06:50:16Z</time>
      </trkpt>
      <trkpt lat="42.9264" lon="0.30653">
        <ele>1349</ele>
        <time>2021-05-29T06:50:17Z</time>
      </trkpt>
      <trkpt lat="42.92639" lon="0.30655">
        <ele>1349.2</ele>
        <time>2021-05-29T06:50:18Z</time>
      </trkpt>
      <trkpt lat="42.92639" lon="0.30657">
        <ele>1349.4</ele>
        <time>2021-05-29T06:50:19Z</time>
      </trkpt>
      <trkpt lat="42.92638" lon="0.30658">
        <ele>1349.6</ele>
        <time>2021-05-29T06:50:20Z</time>
      </trkpt>
      <trkpt lat="42.92638" lon="0.3066">
        <ele>1349.6</ele>
        <time>2021-05-29T06:50:21Z</time>
      </trkpt>
      <trkpt lat="42.92637" lon="0.30661">
        <ele>1349.8</ele>
        <time>2021-05-29T06:50:22Z</time>
      </trkpt>
      <trkpt lat="42.92637" lon="0.30662">
        <ele>1349.8</ele>
        <time>2021-05-29T06:50:23Z</time>
      </trkpt>
      <trkpt lat="42.92636" lon="0.30663">
        <ele>1350</ele>
        <time>2021-05-29T06:50:24Z</time>
      </trkpt>
      <trkpt lat="42.92634" lon="0.30665">
        <ele>1350</ele>
        <time>2021-05-29T06:50:25Z</time>
      </trkpt>
      <trkpt lat="42.92632" lon="0.30666">
        <ele>1350</ele>
        <time>2021-05-29T06:50:26Z</time>
      </trkpt>
      <trkpt lat="42.9263" lon="0.30666">
        <ele>1350.2</ele>
        <time>2021-05-29T06:50:27Z</time>
      </trkpt>
      <trkpt lat="42.92627" lon="0.30667">
        <ele>1350.6</ele>
        <time>2021-05-29T06:50:28Z</time>
      </trkpt>
      <trkpt lat="42.92625" lon="0.30669">
        <ele>1350.6</ele>
        <time>2021-05-29T06:50:29Z</time>
      </trkpt>
      <trkpt lat="42.92625" lon="0.3067">
        <ele>1350.8</ele>
        <time>2021-05-29T06:50:30Z</time>
      </trkpt>
      <trkpt lat="42.92624" lon="0.30673">
        <ele>1351.2</ele>
        <time>2021-05-29T06:50:31Z</time>
      </trkpt>
      <trkpt lat="42.92623" lon="0.30674">
        <ele>1351.4</ele>
        <time>2021-05-29T06:50:32Z</time>
      </trkpt>
      <trkpt lat="42.92623" lon="0.30676">
        <ele>1352</ele>
        <time>2021-05-29T06:50:33Z</time>
      </trkpt>
      <trkpt lat="42.92621" lon="0.30677">
        <ele>1352</ele>
        <time>2021-05-29T06:50:34Z</time>
      </trkpt>
      <trkpt lat="42.92621" lon="0.30679">
        <ele>1352.2</ele>
        <time>2021-05-29T06:50:35Z</time>
      </trkpt>
      <trkpt lat="42.9262" lon="0.30681">
        <ele>1352.2</ele>
        <time>2021-05-29T06:50:36Z</time>
      </trkpt>
      <trkpt lat="42.92619" lon="0.30683">
        <ele>1352.4</ele>
        <time>2021-05-29T06:50:37Z</time>
      </trkpt>
      <trkpt lat="42.92618" lon="0.30685">
        <ele>1352.6</ele>
        <time>2021-05-29T06:50:38Z</time>
      </trkpt>
      <trkpt lat="42.92616" lon="0.30686">
        <ele>1352.8</ele>
        <time>2021-05-29T06:50:39Z</time>
      </trkpt>
      <trkpt lat="42.92615" lon="0.30686">
        <ele>1352.8</ele>
        <time>2021-05-29T06:50:40Z</time>
      </trkpt>
      <trkpt lat="42.92614" lon="0.30688">
        <ele>1353</ele>
        <time>2021-05-29T06:50:41Z</time>
      </trkpt>
      <trkpt lat="42.92614" lon="0.3069">
        <ele>1353</ele>
        <time>2021-05-29T06:50:42Z</time>
      </trkpt>
      <trkpt lat="42.92615" lon="0.30691">
        <ele>1353.2</ele>
        <time>2021-05-29T06:50:43Z</time>
      </trkpt>
      <trkpt lat="42.92615" lon="0.30693">
        <ele>1353.4</ele>
        <time>2021-05-29T06:50:44Z</time>
      </trkpt>
      <trkpt lat="42.92615" lon="0.30694">
        <ele>1353.6</ele>
        <time>2021-05-29T06:50:45Z</time>
      </trkpt>
      <trkpt lat="42.92614" lon="0.30696">
        <ele>1353.6</ele>
        <time>2021-05-29T06:50:46Z</time>
      </trkpt>
      <trkpt lat="42.92614" lon="0.30698">
        <ele>1353.8</ele>
        <time>2021-05-29T06:50:47Z</time>
      </trkpt>
      <trkpt lat="42.92613" lon="0.30699">
        <ele>1353.8</ele>
        <time>2021-05-29T06:50:48Z</time>
      </trkpt>
      <trkpt lat="42.92613" lon="0.30699">
        <ele>1354</ele>
        <time>2021-05-29T06:50:49Z</time>
      </trkpt>
      <trkpt lat="42.92613" lon="0.307">
        <ele>1354.2</ele>
        <time>2021-05-29T06:50:50Z</time>
      </trkpt>
      <trkpt lat="42.92612" lon="0.30701">
        <ele>1354.4</ele>
        <time>2021-05-29T06:50:51Z</time>
      </trkpt>
      <trkpt lat="42.92611" lon="0.30703">
        <ele>1354.6</ele>
        <time>2021-05-29T06:50:52Z</time>
      </trkpt>
      <trkpt lat="42.92607" lon="0.30703">
        <ele>1354.6</ele>
        <time>2021-05-29T06:50:53Z</time>
      </trkpt>
      <trkpt lat="42.92605" lon="0.30705">
        <ele>1354.8</ele>
        <time>2021-05-29T06:50:54Z</time>
      </trkpt>
      <trkpt lat="42.92605" lon="0.30706">
        <ele>1355</ele>
        <time>2021-05-29T06:50:55Z</time>
      </trkpt>
      <trkpt lat="42.92605" lon="0.30707">
        <ele>1355.2</ele>
        <time>2021-05-29T06:50:56Z</time>
      </trkpt>
      <trkpt lat="42.92605" lon="0.30708">
        <ele>1355.4</ele>
        <time>2021-05-29T06:50:57Z</time>
      </trkpt>
      <trkpt lat="42.92603" lon="0.3071">
        <ele>1355.6</ele>
        <time>2021-05-29T06:50:58Z</time>
      </trkpt>
      <trkpt lat="42.92601" lon="0.30711">
        <ele>1355.8</ele>
        <time>2021-05-29T06:50:59Z</time>
      </trkpt>
      <trkpt lat="42.926" lon="0.30712">
        <ele>1356</ele>
        <time>2021-05-29T06:51:00Z</time>
      </trkpt>
      <trkpt lat="42.92598" lon="0.30714">
        <ele>1356.2</ele>
        <time>2021-05-29T06:51:01Z</time>
      </trkpt>
      <trkpt lat="42.92598" lon="0.30715">
        <ele>1356.4</ele>
        <time>2021-05-29T06:51:02Z</time>
      </trkpt>
      <trkpt lat="42.92597" lon="0.30716">
        <ele>1356.4</ele>
        <time>2021-05-29T06:51:03Z</time>
      </trkpt>
      <trkpt lat="42.92595" lon="0.30717">
        <ele>1356.4</ele>
        <time>2021-05-29T06:51:04Z</time>
      </trkpt>
      <trkpt lat="42.92594" lon="0.30718">
        <ele>1356.6</ele>
        <time>2021-05-29T06:51:05Z</time>
      </trkpt>
      <trkpt lat="42.92592" lon="0.3072">
        <ele>1356.8</ele>
        <time>2021-05-29T06:51:06Z</time>
      </trkpt>
      <trkpt lat="42.92592" lon="0.30721">
        <ele>1356.8</ele>
        <time>2021-05-29T06:51:07Z</time>
      </trkpt>
      <trkpt lat="42.92591" lon="0.30721">
        <ele>1357</ele>
        <time>2021-05-29T06:51:08Z</time>
      </trkpt>
      <trkpt lat="42.92591" lon="0.30721">
        <ele>1356.8</ele>
        <time>2021-05-29T06:51:09Z</time>
      </trkpt>
      <trkpt lat="42.92591" lon="0.30721">
        <ele>1357</ele>
        <time>2021-05-29T06:51:10Z</time>
      </trkpt>
      <trkpt lat="42.92591" lon="0.3072">
        <ele>1357.4</ele>
        <time>2021-05-29T06:51:11Z</time>
      </trkpt>
      <trkpt lat="42.9259" lon="0.30721">
        <ele>1357.6</ele>
        <time>2021-05-29T06:51:12Z</time>
      </trkpt>
      <trkpt lat="42.9259" lon="0.30722">
        <ele>1358</ele>
        <time>2021-05-29T06:51:13Z</time>
      </trkpt>
      <trkpt lat="42.9259" lon="0.30723">
        <ele>1358</ele>
        <time>2021-05-29T06:51:14Z</time>
      </trkpt>
      <trkpt lat="42.92589" lon="0.30724">
        <ele>1358.2</ele>
        <time>2021-05-29T06:51:15Z</time>
      </trkpt>
      <trkpt lat="42.92588" lon="0.30725">
        <ele>1358.4</ele>
        <time>2021-05-29T06:51:16Z</time>
      </trkpt>
      <trkpt lat="42.92586" lon="0.30725">
        <ele>1358.4</ele>
        <time>2021-05-29T06:51:17Z</time>
      </trkpt>
      <trkpt lat="42.92584" lon="0.30726">
        <ele>1358.6</ele>
        <time>2021-05-29T06:51:18Z</time>
      </trkpt>
      <trkpt lat="42.92581" lon="0.30727">
        <ele>1358.8</ele>
        <time>2021-05-29T06:51:19Z</time>
      </trkpt>
      <trkpt lat="42.9258" lon="0.30729">
        <ele>1359</ele>
        <time>2021-05-29T06:51:20Z</time>
      </trkpt>
      <trkpt lat="42.9258" lon="0.30731">
        <ele>1359.2</ele>
        <time>2021-05-29T06:51:21Z</time>
      </trkpt>
      <trkpt lat="42.92579" lon="0.30733">
        <ele>1359.4</ele>
        <time>2021-05-29T06:51:22Z</time>
      </trkpt>
      <trkpt lat="42.92576" lon="0.30733">
        <ele>1359.8</ele>
        <time>2021-05-29T06:51:23Z</time>
      </trkpt>
      <trkpt lat="42.92573" lon="0.30731">
        <ele>1359.8</ele>
        <time>2021-05-29T06:51:24Z</time>
      </trkpt>
      <trkpt lat="42.92571" lon="0.30732">
        <ele>1360.2</ele>
        <time>2021-05-29T06:51:25Z</time>
      </trkpt>
      <trkpt lat="42.92568" lon="0.30732">
        <ele>1360.2</ele>
        <time>2021-05-29T06:51:26Z</time>
      </trkpt>
      <trkpt lat="42.92568" lon="0.30733">
        <ele>1360.6</ele>
        <time>2021-05-29T06:51:27Z</time>
      </trkpt>
      <trkpt lat="42.92568" lon="0.30733">
        <ele>1360.6</ele>
        <time>2021-05-29T06:51:28Z</time>
      </trkpt>
      <trkpt lat="42.92567" lon="0.30734">
        <ele>1360.8</ele>
        <time>2021-05-29T06:51:29Z</time>
      </trkpt>
      <trkpt lat="42.92565" lon="0.30735">
        <ele>1361</ele>
        <time>2021-05-29T06:51:30Z</time>
      </trkpt>
      <trkpt lat="42.92563" lon="0.30734">
        <ele>1361</ele>
        <time>2021-05-29T06:51:31Z</time>
      </trkpt>
      <trkpt lat="42.92562" lon="0.30734">
        <ele>1361.2</ele>
        <time>2021-05-29T06:51:32Z</time>
      </trkpt>
      <trkpt lat="42.92561" lon="0.30735">
        <ele>1361.2</ele>
        <time>2021-05-29T06:51:33Z</time>
      </trkpt>
      <trkpt lat="42.9256" lon="0.30735">
        <ele>1361.6</ele>
        <time>2021-05-29T06:51:34Z</time>
      </trkpt>
      <trkpt lat="42.92559" lon="0.30736">
        <ele>1361.6</ele>
        <time>2021-05-29T06:51:35Z</time>
      </trkpt>
      <trkpt lat="42.92559" lon="0.30737">
        <ele>1362</ele>
        <time>2021-05-29T06:51:36Z</time>
      </trkpt>
      <trkpt lat="42.92557" lon="0.30738">
        <ele>1362</ele>
        <time>2021-05-29T06:51:37Z</time>
      </trkpt>
      <trkpt lat="42.92556" lon="0.30739">
        <ele>1362.2</ele>
        <time>2021-05-29T06:51:38Z</time>
      </trkpt>
      <trkpt lat="42.92555" lon="0.3074">
        <ele>1362.2</ele>
        <time>2021-05-29T06:51:39Z</time>
      </trkpt>
      <trkpt lat="42.92553" lon="0.3074">
        <ele>1362.4</ele>
        <time>2021-05-29T06:51:40Z</time>
      </trkpt>
      <trkpt lat="42.92551" lon="0.30741">
        <ele>1362.6</ele>
        <time>2021-05-29T06:51:41Z</time>
      </trkpt>
      <trkpt lat="42.92549" lon="0.30741">
        <ele>1362.6</ele>
        <time>2021-05-29T06:51:42Z</time>
      </trkpt>
      <trkpt lat="42.92548" lon="0.30741">
        <ele>1362.8</ele>
        <time>2021-05-29T06:51:43Z</time>
      </trkpt>
      <trkpt lat="42.92546" lon="0.30742">
        <ele>1363</ele>
        <time>2021-05-29T06:51:44Z</time>
      </trkpt>
      <trkpt lat="42.92544" lon="0.30742">
        <ele>1363.2</ele>
        <time>2021-05-29T06:51:45Z</time>
      </trkpt>
      <trkpt lat="42.92543" lon="0.30743">
        <ele>1363.4</ele>
        <time>2021-05-29T06:51:46Z</time>
      </trkpt>
      <trkpt lat="42.92542" lon="0.30743">
        <ele>1363.6</ele>
        <time>2021-05-29T06:51:47Z</time>
      </trkpt>
      <trkpt lat="42.9254" lon="0.30744">
        <ele>1363.8</ele>
        <time>2021-05-29T06:51:48Z</time>
      </trkpt>
      <trkpt lat="42.92539" lon="0.30745">
        <ele>1363.8</ele>
        <time>2021-05-29T06:51:49Z</time>
      </trkpt>
      <trkpt lat="42.92538" lon="0.30746">
        <ele>1364</ele>
        <time>2021-05-29T06:51:50Z</time>
      </trkpt>
      <trkpt lat="42.92537" lon="0.30747">
        <ele>1364.2</ele>
        <time>2021-05-29T06:51:51Z</time>
      </trkpt>
      <trkpt lat="42.92537" lon="0.30747">
        <ele>1364.2</ele>
        <time>2021-05-29T06:51:52Z</time>
      </trkpt>
      <trkpt lat="42.92535" lon="0.30748">
        <ele>1364.4</ele>
        <time>2021-05-29T06:51:53Z</time>
      </trkpt>
      <trkpt lat="42.92534" lon="0.30749">
        <ele>1364.6</ele>
        <time>2021-05-29T06:51:54Z</time>
      </trkpt>
      <trkpt lat="42.92533" lon="0.3075">
        <ele>1364.8</ele>
        <time>2021-05-29T06:51:55Z</time>
      </trkpt>
      <trkpt lat="42.92531" lon="0.3075">
        <ele>1364.8</ele>
        <time>2021-05-29T06:51:56Z</time>
      </trkpt>
      <trkpt lat="42.92529" lon="0.30752">
        <ele>1365</ele>
        <time>2021-05-29T06:51:57Z</time>
      </trkpt>
      <trkpt lat="42.92527" lon="0.30753">
        <ele>1365</ele>
        <time>2021-05-29T06:51:58Z</time>
      </trkpt>
      <trkpt lat="42.92526" lon="0.30754">
        <ele>1365</ele>
        <time>2021-05-29T06:51:59Z</time>
      </trkpt>
      <trkpt lat="42.92525" lon="0.30755">
        <ele>1365.2</ele>
        <time>2021-05-29T06:52:00Z</time>
      </trkpt>
      <trkpt lat="42.92524" lon="0.30756">
        <ele>1365.2</ele>
        <time>2021-05-29T06:52:01Z</time>
      </trkpt>
      <trkpt lat="42.92523" lon="0.30757">
        <ele>1365.4</ele>
        <time>2021-05-29T06:52:02Z</time>
      </trkpt>
      <trkpt lat="42.92522" lon="0.30758">
        <ele>1365.6</ele>
        <time>2021-05-29T06:52:03Z</time>
      </trkpt>
      <trkpt lat="42.92521" lon="0.30759">
        <ele>1365.6</ele>
        <time>2021-05-29T06:52:04Z</time>
      </trkpt>
      <trkpt lat="42.92521" lon="0.3076">
        <ele>1366</ele>
        <time>2021-05-29T06:52:05Z</time>
      </trkpt>
      <trkpt lat="42.92518" lon="0.30761">
        <ele>1366</ele>
        <time>2021-05-29T06:52:06Z</time>
      </trkpt>
      <trkpt lat="42.92515" lon="0.30762">
        <ele>1366.2</ele>
        <time>2021-05-29T06:52:07Z</time>
      </trkpt>
      <trkpt lat="42.92514" lon="0.30761">
        <ele>1366.4</ele>
        <time>2021-05-29T06:52:08Z</time>
      </trkpt>
      <trkpt lat="42.92512" lon="0.30761">
        <ele>1366.6</ele>
        <time>2021-05-29T06:52:09Z</time>
      </trkpt>
      <trkpt lat="42.92509" lon="0.30762">
        <ele>1366.6</ele>
        <time>2021-05-29T06:52:10Z</time>
      </trkpt>
      <trkpt lat="42.92507" lon="0.30763">
        <ele>1366.8</ele>
        <time>2021-05-29T06:52:11Z</time>
      </trkpt>
      <trkpt lat="42.92506" lon="0.30765">
        <ele>1367.2</ele>
        <time>2021-05-29T06:52:12Z</time>
      </trkpt>
      <trkpt lat="42.92505" lon="0.30765">
        <ele>1367.4</ele>
        <time>2021-05-29T06:52:13Z</time>
      </trkpt>
      <trkpt lat="42.92505" lon="0.30766">
        <ele>1367.6</ele>
        <time>2021-05-29T06:52:14Z</time>
      </trkpt>
      <trkpt lat="42.92504" lon="0.30767">
        <ele>1367.6</ele>
        <time>2021-05-29T06:52:15Z</time>
      </trkpt>
      <trkpt lat="42.92503" lon="0.30768">
        <ele>1367.8</ele>
        <time>2021-05-29T06:52:16Z</time>
      </trkpt>
      <trkpt lat="42.92502" lon="0.30769">
        <ele>1368</ele>
        <time>2021-05-29T06:52:17Z</time>
      </trkpt>
      <trkpt lat="42.92501" lon="0.30769">
        <ele>1368.2</ele>
        <time>2021-05-29T06:52:18Z</time>
      </trkpt>
      <trkpt lat="42.925" lon="0.3077">
        <ele>1368.4</ele>
        <time>2021-05-29T06:52:19Z</time>
      </trkpt>
      <trkpt lat="42.92499" lon="0.3077">
        <ele>1368.6</ele>
        <time>2021-05-29T06:52:20Z</time>
      </trkpt>
      <trkpt lat="42.92498" lon="0.30771">
        <ele>1368.6</ele>
        <time>2021-05-29T06:52:21Z</time>
      </trkpt>
      <trkpt lat="42.92497" lon="0.30771">
        <ele>1368.8</ele>
        <time>2021-05-29T06:52:22Z</time>
      </trkpt>
      <trkpt lat="42.92496" lon="0.30772">
        <ele>1369</ele>
        <time>2021-05-29T06:52:23Z</time>
      </trkpt>
      <trkpt lat="42.92495" lon="0.30773">
        <ele>1369.2</ele>
        <time>2021-05-29T06:52:24Z</time>
      </trkpt>
      <trkpt lat="42.92494" lon="0.30774">
        <ele>1369.4</ele>
        <time>2021-05-29T06:52:25Z</time>
      </trkpt>
      <trkpt lat="42.92494" lon="0.30775">
        <ele>1369.4</ele>
        <time>2021-05-29T06:52:26Z</time>
      </trkpt>
      <trkpt lat="42.92494" lon="0.30776">
        <ele>1369.6</ele>
        <time>2021-05-29T06:52:27Z</time>
      </trkpt>
      <trkpt lat="42.92493" lon="0.30777">
        <ele>1369.8</ele>
        <time>2021-05-29T06:52:28Z</time>
      </trkpt>
      <trkpt lat="42.92492" lon="0.30778">
        <ele>1370</ele>
        <time>2021-05-29T06:52:29Z</time>
      </trkpt>
      <trkpt lat="42.92491" lon="0.30779">
        <ele>1370</ele>
        <time>2021-05-29T06:52:30Z</time>
      </trkpt>
      <trkpt lat="42.9249" lon="0.30781">
        <ele>1370.4</ele>
        <time>2021-05-29T06:52:31Z</time>
      </trkpt>
      <trkpt lat="42.92489" lon="0.30781">
        <ele>1370.6</ele>
        <time>2021-05-29T06:52:32Z</time>
      </trkpt>
      <trkpt lat="42.92488" lon="0.30782">
        <ele>1371</ele>
        <time>2021-05-29T06:52:33Z</time>
      </trkpt>
      <trkpt lat="42.92487" lon="0.30784">
        <ele>1370.8</ele>
        <time>2021-05-29T06:52:34Z</time>
      </trkpt>
      <trkpt lat="42.92487" lon="0.30785">
        <ele>1371</ele>
        <time>2021-05-29T06:52:35Z</time>
      </trkpt>
      <trkpt lat="42.92487" lon="0.30786">
        <ele>1371</ele>
        <time>2021-05-29T06:52:36Z</time>
      </trkpt>
      <trkpt lat="42.92487" lon="0.30787">
        <ele>1371.2</ele>
        <time>2021-05-29T06:52:37Z</time>
      </trkpt>
      <trkpt lat="42.92487" lon="0.30787">
        <ele>1371.4</ele>
        <time>2021-05-29T06:52:38Z</time>
      </trkpt>
      <trkpt lat="42.92488" lon="0.30788">
        <ele>1371.6</ele>
        <time>2021-05-29T06:52:39Z</time>
      </trkpt>
      <trkpt lat="42.92489" lon="0.3079">
        <ele>1371.8</ele>
        <time>2021-05-29T06:52:40Z</time>
      </trkpt>
      <trkpt lat="42.92489" lon="0.30792">
        <ele>1372</ele>
        <time>2021-05-29T06:52:41Z</time>
      </trkpt>
      <trkpt lat="42.9249" lon="0.30792">
        <ele>1372</ele>
        <time>2021-05-29T06:52:42Z</time>
      </trkpt>
      <trkpt lat="42.92491" lon="0.30792">
        <ele>1372.2</ele>
        <time>2021-05-29T06:52:43Z</time>
      </trkpt>
      <trkpt lat="42.92494" lon="0.30793">
        <ele>1372.4</ele>
        <time>2021-05-29T06:52:44Z</time>
      </trkpt>
      <trkpt lat="42.92495" lon="0.30795">
        <ele>1372.6</ele>
        <time>2021-05-29T06:52:45Z</time>
      </trkpt>
      <trkpt lat="42.92497" lon="0.30798">
        <ele>1372.6</ele>
        <time>2021-05-29T06:52:46Z</time>
      </trkpt>
      <trkpt lat="42.92499" lon="0.30799">
        <ele>1372.6</ele>
        <time>2021-05-29T06:52:47Z</time>
      </trkpt>
      <trkpt lat="42.92501" lon="0.308">
        <ele>1373</ele>
        <time>2021-05-29T06:52:48Z</time>
      </trkpt>
      <trkpt lat="42.92502" lon="0.30802">
        <ele>1372.8</ele>
        <time>2021-05-29T06:52:49Z</time>
      </trkpt>
      <trkpt lat="42.92504" lon="0.30803">
        <ele>1373.2</ele>
        <time>2021-05-29T06:52:50Z</time>
      </trkpt>
      <trkpt lat="42.92506" lon="0.30803">
        <ele>1373.4</ele>
        <time>2021-05-29T06:52:51Z</time>
      </trkpt>
      <trkpt lat="42.92508" lon="0.30804">
        <ele>1373.6</ele>
        <time>2021-05-29T06:52:52Z</time>
      </trkpt>
      <trkpt lat="42.9251" lon="0.30806">
        <ele>1373.8</ele>
        <time>2021-05-29T06:52:53Z</time>
      </trkpt>
      <trkpt lat="42.92511" lon="0.30807">
        <ele>1374.2</ele>
        <time>2021-05-29T06:52:54Z</time>
      </trkpt>
      <trkpt lat="42.92508" lon="0.30811">
        <ele>1374.2</ele>
        <time>2021-05-29T06:52:55Z</time>
      </trkpt>
      <trkpt lat="42.92507" lon="0.30814">
        <ele>1374.4</ele>
        <time>2021-05-29T06:52:56Z</time>
      </trkpt>
      <trkpt lat="42.92508" lon="0.30816">
        <ele>1374.6</ele>
        <time>2021-05-29T06:52:57Z</time>
      </trkpt>
      <trkpt lat="42.92509" lon="0.30819">
        <ele>1374.8</ele>
        <time>2021-05-29T06:52:58Z</time>
      </trkpt>
      <trkpt lat="42.9251" lon="0.30821">
        <ele>1374.8</ele>
        <time>2021-05-29T06:52:59Z</time>
      </trkpt>
      <trkpt lat="42.9251" lon="0.30823">
        <ele>1375</ele>
        <time>2021-05-29T06:53:00Z</time>
      </trkpt>
      <trkpt lat="42.9251" lon="0.30823">
        <ele>1375.2</ele>
        <time>2021-05-29T06:53:01Z</time>
      </trkpt>
      <trkpt lat="42.92511" lon="0.30825">
        <ele>1375.4</ele>
        <time>2021-05-29T06:53:02Z</time>
      </trkpt>
      <trkpt lat="42.92513" lon="0.30828">
        <ele>1375.4</ele>
        <time>2021-05-29T06:53:03Z</time>
      </trkpt>
      <trkpt lat="42.92514" lon="0.30829">
        <ele>1375.4</ele>
        <time>2021-05-29T06:53:04Z</time>
      </trkpt>
      <trkpt lat="42.92515" lon="0.30831">
        <ele>1375.6</ele>
        <time>2021-05-29T06:53:05Z</time>
      </trkpt>
      <trkpt lat="42.92515" lon="0.30831">
        <ele>1375.8</ele>
        <time>2021-05-29T06:53:06Z</time>
      </trkpt>
      <trkpt lat="42.92515" lon="0.30831">
        <ele>1375.8</ele>
        <time>2021-05-29T06:53:07Z</time>
      </trkpt>
      <trkpt lat="42.92515" lon="0.30831">
        <ele>1376</ele>
        <time>2021-05-29T06:53:08Z</time>
      </trkpt>
      <trkpt lat="42.92516" lon="0.30834">
        <ele>1376.2</ele>
        <time>2021-05-29T06:53:09Z</time>
      </trkpt>
      <trkpt lat="42.92517" lon="0.30837">
        <ele>1376.2</ele>
        <time>2021-05-29T06:53:10Z</time>
      </trkpt>
      <trkpt lat="42.92519" lon="0.30842">
        <ele>1376.4</ele>
        <time>2021-05-29T06:53:11Z</time>
      </trkpt>
      <trkpt lat="42.9252" lon="0.30844">
        <ele>1376.6</ele>
        <time>2021-05-29T06:53:12Z</time>
      </trkpt>
      <trkpt lat="42.9252" lon="0.30847">
        <ele>1377</ele>
        <time>2021-05-29T06:53:13Z</time>
      </trkpt>
      <trkpt lat="42.92521" lon="0.30848">
        <ele>1377</ele>
        <time>2021-05-29T06:53:14Z</time>
      </trkpt>
      <trkpt lat="42.92519" lon="0.30849">
        <ele>1377.2</ele>
        <time>2021-05-29T06:53:15Z</time>
      </trkpt>
      <trkpt lat="42.9252" lon="0.30851">
        <ele>1377.2</ele>
        <time>2021-05-29T06:53:16Z</time>
      </trkpt>
      <trkpt lat="42.92523" lon="0.30855">
        <ele>1377.4</ele>
        <time>2021-05-29T06:53:17Z</time>
      </trkpt>
      <trkpt lat="42.92524" lon="0.30858">
        <ele>1377.6</ele>
        <time>2021-05-29T06:53:18Z</time>
      </trkpt>
      <trkpt lat="42.92524" lon="0.30859">
        <ele>1377.8</ele>
        <time>2021-05-29T06:53:19Z</time>
      </trkpt>
      <trkpt lat="42.92524" lon="0.30861">
        <ele>1378</ele>
        <time>2021-05-29T06:53:20Z</time>
      </trkpt>
      <trkpt lat="42.92524" lon="0.30861">
        <ele>1378.2</ele>
        <time>2021-05-29T06:53:21Z</time>
      </trkpt>
      <trkpt lat="42.92521" lon="0.30862">
        <ele>1378.2</ele>
        <time>2021-05-29T06:53:22Z</time>
      </trkpt>
      <trkpt lat="42.9252" lon="0.30865">
        <ele>1378.4</ele>
        <time>2021-05-29T06:53:23Z</time>
      </trkpt>
      <trkpt lat="42.92521" lon="0.30868">
        <ele>1378.6</ele>
        <time>2021-05-29T06:53:24Z</time>
      </trkpt>
      <trkpt lat="42.92521" lon="0.30868">
        <ele>1378.8</ele>
        <time>2021-05-29T06:53:25Z</time>
      </trkpt>
      <trkpt lat="42.92522" lon="0.30871">
        <ele>1378.6</ele>
        <time>2021-05-29T06:53:26Z</time>
      </trkpt>
      <trkpt lat="42.92522" lon="0.30871">
        <ele>1378.8</ele>
        <time>2021-05-29T06:53:27Z</time>
      </trkpt>
      <trkpt lat="42.92524" lon="0.30873">
        <ele>1379.2</ele>
        <time>2021-05-29T06:53:28Z</time>
      </trkpt>
      <trkpt lat="42.92524" lon="0.30874">
        <ele>1379.2</ele>
        <time>2021-05-29T06:53:29Z</time>
      </trkpt>
      <trkpt lat="42.92524" lon="0.30875">
        <ele>1379.4</ele>
        <time>2021-05-29T06:53:30Z</time>
      </trkpt>
      <trkpt lat="42.92525" lon="0.30876">
        <ele>1379.6</ele>
        <time>2021-05-29T06:53:31Z</time>
      </trkpt>
      <trkpt lat="42.92525" lon="0.30876">
        <ele>1379.8</ele>
        <time>2021-05-29T06:53:32Z</time>
      </trkpt>
      <trkpt lat="42.92526" lon="0.30877">
        <ele>1379.8</ele>
        <time>2021-05-29T06:53:33Z</time>
      </trkpt>
      <trkpt lat="42.92529" lon="0.30879">
        <ele>1380</ele>
        <time>2021-05-29T06:53:34Z</time>
      </trkpt>
      <trkpt lat="42.92531" lon="0.30881">
        <ele>1380</ele>
        <time>2021-05-29T06:53:35Z</time>
      </trkpt>
      <trkpt lat="42.92528" lon="0.30886">
        <ele>1380.4</ele>
        <time>2021-05-29T06:53:36Z</time>
      </trkpt>
      <trkpt lat="42.9253" lon="0.30889">
        <ele>1380.4</ele>
        <time>2021-05-29T06:53:37Z</time>
      </trkpt>
      <trkpt lat="42.92532" lon="0.30891">
        <ele>1380.6</ele>
        <time>2021-05-29T06:53:38Z</time>
      </trkpt>
      <trkpt lat="42.92533" lon="0.30893">
        <ele>1380.6</ele>
        <time>2021-05-29T06:53:39Z</time>
      </trkpt>
      <trkpt lat="42.92535" lon="0.30895">
        <ele>1380.8</ele>
        <time>2021-05-29T06:53:40Z</time>
      </trkpt>
      <trkpt lat="42.92534" lon="0.30896">
        <ele>1380.8</ele>
        <time>2021-05-29T06:53:41Z</time>
      </trkpt>
      <trkpt lat="42.92534" lon="0.30896">
        <ele>1381</ele>
        <time>2021-05-29T06:53:42Z</time>
      </trkpt>
      <trkpt lat="42.92534" lon="0.30896">
        <ele>1381.2</ele>
        <time>2021-05-29T06:53:43Z</time>
      </trkpt>
      <trkpt lat="42.92534" lon="0.30899">
        <ele>1381.4</ele>
        <time>2021-05-29T06:53:44Z</time>
      </trkpt>
      <trkpt lat="42.92535" lon="0.30901">
        <ele>1381.4</ele>
        <time>2021-05-29T06:53:45Z</time>
      </trkpt>
      <trkpt lat="42.92535" lon="0.30902">
        <ele>1381.6</ele>
        <time>2021-05-29T06:53:46Z</time>
      </trkpt>
      <trkpt lat="42.92536" lon="0.30904">
        <ele>1381.8</ele>
        <time>2021-05-29T06:53:47Z</time>
      </trkpt>
      <trkpt lat="42.92536" lon="0.30905">
        <ele>1382</ele>
        <time>2021-05-29T06:53:48Z</time>
      </trkpt>
      <trkpt lat="42.92536" lon="0.30908">
        <ele>1382.2</ele>
        <time>2021-05-29T06:53:49Z</time>
      </trkpt>
      <trkpt lat="42.92534" lon="0.30912">
        <ele>1382.4</ele>
        <time>2021-05-29T06:53:50Z</time>
      </trkpt>
      <trkpt lat="42.92534" lon="0.30912">
        <ele>1382.6</ele>
        <time>2021-05-29T06:53:51Z</time>
      </trkpt>
      <trkpt lat="42.92534" lon="0.30912">
        <ele>1382.8</ele>
        <time>2021-05-29T06:53:52Z</time>
      </trkpt>
      <trkpt lat="42.92534" lon="0.30912">
        <ele>1382.8</ele>
        <time>2021-05-29T06:53:53Z</time>
      </trkpt>
      <trkpt lat="42.92534" lon="0.30912">
        <ele>1383</ele>
        <time>2021-05-29T06:53:54Z</time>
      </trkpt>
      <trkpt lat="42.92535" lon="0.30916">
        <ele>1383.2</ele>
        <time>2021-05-29T06:53:55Z</time>
      </trkpt>
      <trkpt lat="42.92537" lon="0.30919">
        <ele>1383.2</ele>
        <time>2021-05-29T06:53:56Z</time>
      </trkpt>
      <trkpt lat="42.92539" lon="0.30922">
        <ele>1383.4</ele>
        <time>2021-05-29T06:53:57Z</time>
      </trkpt>
      <trkpt lat="42.92538" lon="0.30927">
        <ele>1383.6</ele>
        <time>2021-05-29T06:53:58Z</time>
      </trkpt>
      <trkpt lat="42.92536" lon="0.3093">
        <ele>1383.8</ele>
        <time>2021-05-29T06:53:59Z</time>
      </trkpt>
      <trkpt lat="42.92536" lon="0.30934">
        <ele>1384</ele>
        <time>2021-05-29T06:54:00Z</time>
      </trkpt>
      <trkpt lat="42.92536" lon="0.30934">
        <ele>1384.2</ele>
        <time>2021-05-29T06:54:01Z</time>
      </trkpt>
      <trkpt lat="42.92537" lon="0.30935">
        <ele>1384.2</ele>
        <time>2021-05-29T06:54:02Z</time>
      </trkpt>
      <trkpt lat="42.9254" lon="0.30935">
        <ele>1384.4</ele>
        <time>2021-05-29T06:54:03Z</time>
      </trkpt>
      <trkpt lat="42.9254" lon="0.30936">
        <ele>1384.4</ele>
        <time>2021-05-29T06:54:04Z</time>
      </trkpt>
      <trkpt lat="42.92541" lon="0.30937">
        <ele>1384.4</ele>
        <time>2021-05-29T06:54:05Z</time>
      </trkpt>
      <trkpt lat="42.92542" lon="0.3094">
        <ele>1384.8</ele>
        <time>2021-05-29T06:54:06Z</time>
      </trkpt>
      <trkpt lat="42.92545" lon="0.30943">
        <ele>1385</ele>
        <time>2021-05-29T06:54:07Z</time>
      </trkpt>
      <trkpt lat="42.92547" lon="0.30945">
        <ele>1385.4</ele>
        <time>2021-05-29T06:54:08Z</time>
      </trkpt>
      <trkpt lat="42.92551" lon="0.30947">
        <ele>1385.6</ele>
        <time>2021-05-29T06:54:09Z</time>
      </trkpt>
      <trkpt lat="42.92552" lon="0.30948">
        <ele>1385.8</ele>
        <time>2021-05-29T06:54:10Z</time>
      </trkpt>
      <trkpt lat="42.92552" lon="0.30949">
        <ele>1386</ele>
        <time>2021-05-29T06:54:11Z</time>
      </trkpt>
      <trkpt lat="42.92552" lon="0.30949">
        <ele>1386.2</ele>
        <time>2021-05-29T06:54:12Z</time>
      </trkpt>
      <trkpt lat="42.92552" lon="0.3095">
        <ele>1386.2</ele>
        <time>2021-05-29T06:54:13Z</time>
      </trkpt>
      <trkpt lat="42.92552" lon="0.3095">
        <ele>1386.4</ele>
        <time>2021-05-29T06:54:14Z</time>
      </trkpt>
      <trkpt lat="42.92553" lon="0.30951">
        <ele>1386.4</ele>
        <time>2021-05-29T06:54:15Z</time>
      </trkpt>
      <trkpt lat="42.92553" lon="0.30953">
        <ele>1386.6</ele>
        <time>2021-05-29T06:54:16Z</time>
      </trkpt>
      <trkpt lat="42.92554" lon="0.30955">
        <ele>1386.8</ele>
        <time>2021-05-29T06:54:17Z</time>
      </trkpt>
      <trkpt lat="42.92555" lon="0.30957">
        <ele>1387</ele>
        <time>2021-05-29T06:54:18Z</time>
      </trkpt>
      <trkpt lat="42.92555" lon="0.30958">
        <ele>1387.2</ele>
        <time>2021-05-29T06:54:19Z</time>
      </trkpt>
      <trkpt lat="42.92555" lon="0.30958">
        <ele>1387.4</ele>
        <time>2021-05-29T06:54:20Z</time>
      </trkpt>
      <trkpt lat="42.92555" lon="0.30958">
        <ele>1387.6</ele>
        <time>2021-05-29T06:54:21Z</time>
      </trkpt>
      <trkpt lat="42.92556" lon="0.30959">
        <ele>1387.8</ele>
        <time>2021-05-29T06:54:22Z</time>
      </trkpt>
      <trkpt lat="42.92556" lon="0.3096">
        <ele>1388</ele>
        <time>2021-05-29T06:54:23Z</time>
      </trkpt>
      <trkpt lat="42.92556" lon="0.30961">
        <ele>1388.2</ele>
        <time>2021-05-29T06:54:24Z</time>
      </trkpt>
      <trkpt lat="42.92556" lon="0.30961">
        <ele>1388.2</ele>
        <time>2021-05-29T06:54:25Z</time>
      </trkpt>
      <trkpt lat="42.92557" lon="0.30963">
        <ele>1388.4</ele>
        <time>2021-05-29T06:54:26Z</time>
      </trkpt>
      <trkpt lat="42.92559" lon="0.30965">
        <ele>1388.6</ele>
        <time>2021-05-29T06:54:27Z</time>
      </trkpt>
      <trkpt lat="42.92561" lon="0.30967">
        <ele>1388.8</ele>
        <time>2021-05-29T06:54:28Z</time>
      </trkpt>
      <trkpt lat="42.92562" lon="0.30969">
        <ele>1388.8</ele>
        <time>2021-05-29T06:54:29Z</time>
      </trkpt>
      <trkpt lat="42.92564" lon="0.30971">
        <ele>1389</ele>
        <time>2021-05-29T06:54:30Z</time>
      </trkpt>
      <trkpt lat="42.92566" lon="0.30974">
        <ele>1389.2</ele>
        <time>2021-05-29T06:54:31Z</time>
      </trkpt>
      <trkpt lat="42.92566" lon="0.30975">
        <ele>1389.2</ele>
        <time>2021-05-29T06:54:32Z</time>
      </trkpt>
      <trkpt lat="42.92567" lon="0.30977">
        <ele>1389.4</ele>
        <time>2021-05-29T06:54:33Z</time>
      </trkpt>
      <trkpt lat="42.92567" lon="0.30977">
        <ele>1389.6</ele>
        <time>2021-05-29T06:54:34Z</time>
      </trkpt>
      <trkpt lat="42.92566" lon="0.30979">
        <ele>1389.8</ele>
        <time>2021-05-29T06:54:35Z</time>
      </trkpt>
      <trkpt lat="42.92566" lon="0.30981">
        <ele>1389.8</ele>
        <time>2021-05-29T06:54:36Z</time>
      </trkpt>
      <trkpt lat="42.92566" lon="0.30981">
        <ele>1390</ele>
        <time>2021-05-29T06:54:37Z</time>
      </trkpt>
      <trkpt lat="42.92566" lon="0.30981">
        <ele>1390.2</ele>
        <time>2021-05-29T06:54:38Z</time>
      </trkpt>
      <trkpt lat="42.92567" lon="0.30982">
        <ele>1390.4</ele>
        <time>2021-05-29T06:54:39Z</time>
      </trkpt>
      <trkpt lat="42.92568" lon="0.30985">
        <ele>1390.6</ele>
        <time>2021-05-29T06:54:40Z</time>
      </trkpt>
      <trkpt lat="42.92569" lon="0.30988">
        <ele>1390.8</ele>
        <time>2021-05-29T06:54:41Z</time>
      </trkpt>
      <trkpt lat="42.92569" lon="0.30991">
        <ele>1390.8</ele>
        <time>2021-05-29T06:54:42Z</time>
      </trkpt>
      <trkpt lat="42.9257" lon="0.30994">
        <ele>1390.8</ele>
        <time>2021-05-29T06:54:43Z</time>
      </trkpt>
      <trkpt lat="42.92571" lon="0.30994">
        <ele>1391</ele>
        <time>2021-05-29T06:54:44Z</time>
      </trkpt>
      <trkpt lat="42.92572" lon="0.30994">
        <ele>1391</ele>
        <time>2021-05-29T06:54:45Z</time>
      </trkpt>
      <trkpt lat="42.92572" lon="0.30995">
        <ele>1391.2</ele>
        <time>2021-05-29T06:54:46Z</time>
      </trkpt>
      <trkpt lat="42.92573" lon="0.30996">
        <ele>1391.4</ele>
        <time>2021-05-29T06:54:47Z</time>
      </trkpt>
      <trkpt lat="42.92573" lon="0.30996">
        <ele>1391.4</ele>
        <time>2021-05-29T06:54:48Z</time>
      </trkpt>
      <trkpt lat="42.92573" lon="0.30996">
        <ele>1391.6</ele>
        <time>2021-05-29T06:54:49Z</time>
      </trkpt>
      <trkpt lat="42.92573" lon="0.30996">
        <ele>1391.6</ele>
        <time>2021-05-29T06:54:50Z</time>
      </trkpt>
      <trkpt lat="42.92574" lon="0.30997">
        <ele>1391.8</ele>
        <time>2021-05-29T06:54:51Z</time>
      </trkpt>
      <trkpt lat="42.92576" lon="0.30998">
        <ele>1392</ele>
        <time>2021-05-29T06:54:52Z</time>
      </trkpt>
      <trkpt lat="42.92577" lon="0.30999">
        <ele>1392</ele>
        <time>2021-05-29T06:54:53Z</time>
      </trkpt>
      <trkpt lat="42.92579" lon="0.31001">
        <ele>1392.2</ele>
        <time>2021-05-29T06:54:54Z</time>
      </trkpt>
      <trkpt lat="42.92579" lon="0.31001">
        <ele>1392.4</ele>
        <time>2021-05-29T06:54:55Z</time>
      </trkpt>
      <trkpt lat="42.92579" lon="0.31001">
        <ele>1392.4</ele>
        <time>2021-05-29T06:54:56Z</time>
      </trkpt>
      <trkpt lat="42.92581" lon="0.31002">
        <ele>1392.6</ele>
        <time>2021-05-29T06:54:57Z</time>
      </trkpt>
      <trkpt lat="42.92583" lon="0.31002">
        <ele>1392.6</ele>
        <time>2021-05-29T06:54:58Z</time>
      </trkpt>
      <trkpt lat="42.92584" lon="0.31003">
        <ele>1392.8</ele>
        <time>2021-05-29T06:54:59Z</time>
      </trkpt>
      <trkpt lat="42.92585" lon="0.31004">
        <ele>1392.8</ele>
        <time>2021-05-29T06:55:00Z</time>
      </trkpt>
      <trkpt lat="42.92587" lon="0.31005">
        <ele>1393</ele>
        <time>2021-05-29T06:55:01Z</time>
      </trkpt>
      <trkpt lat="42.92587" lon="0.31005">
        <ele>1393.2</ele>
        <time>2021-05-29T06:55:02Z</time>
      </trkpt>
      <trkpt lat="42.92587" lon="0.31005">
        <ele>1393.4</ele>
        <time>2021-05-29T06:55:03Z</time>
      </trkpt>
      <trkpt lat="42.92587" lon="0.31005">
        <ele>1393.4</ele>
        <time>2021-05-29T06:55:04Z</time>
      </trkpt>
      <trkpt lat="42.92589" lon="0.31007">
        <ele>1393.8</ele>
        <time>2021-05-29T06:55:05Z</time>
      </trkpt>
      <trkpt lat="42.92591" lon="0.31008">
        <ele>1393.8</ele>
        <time>2021-05-29T06:55:06Z</time>
      </trkpt>
      <trkpt lat="42.92592" lon="0.3101">
        <ele>1394</ele>
        <time>2021-05-29T06:55:07Z</time>
      </trkpt>
      <trkpt lat="42.92594" lon="0.31011">
        <ele>1394</ele>
        <time>2021-05-29T06:55:08Z</time>
      </trkpt>
      <trkpt lat="42.92596" lon="0.31012">
        <ele>1394.2</ele>
        <time>2021-05-29T06:55:09Z</time>
      </trkpt>
      <trkpt lat="42.92598" lon="0.31014">
        <ele>1394.2</ele>
        <time>2021-05-29T06:55:10Z</time>
      </trkpt>
      <trkpt lat="42.926" lon="0.31015">
        <ele>1394.2</ele>
        <time>2021-05-29T06:55:11Z</time>
      </trkpt>
      <trkpt lat="42.92601" lon="0.31016">
        <ele>1394.4</ele>
        <time>2021-05-29T06:55:12Z</time>
      </trkpt>
      <trkpt lat="42.92601" lon="0.31016">
        <ele>1394.4</ele>
        <time>2021-05-29T06:55:13Z</time>
      </trkpt>
      <trkpt lat="42.92601" lon="0.31017">
        <ele>1394.4</ele>
        <time>2021-05-29T06:55:14Z</time>
      </trkpt>
      <trkpt lat="42.92602" lon="0.31019">
        <ele>1394.6</ele>
        <time>2021-05-29T06:55:15Z</time>
      </trkpt>
      <trkpt lat="42.92604" lon="0.31021">
        <ele>1394.6</ele>
        <time>2021-05-29T06:55:16Z</time>
      </trkpt>
      <trkpt lat="42.92606" lon="0.31022">
        <ele>1394.6</ele>
        <time>2021-05-29T06:55:17Z</time>
      </trkpt>
      <trkpt lat="42.92609" lon="0.31024">
        <ele>1394.8</ele>
        <time>2021-05-29T06:55:18Z</time>
      </trkpt>
      <trkpt lat="42.92611" lon="0.31026">
        <ele>1394.8</ele>
        <time>2021-05-29T06:55:19Z</time>
      </trkpt>
      <trkpt lat="42.92613" lon="0.31026">
        <ele>1394.6</ele>
        <time>2021-05-29T06:55:20Z</time>
      </trkpt>
      <trkpt lat="42.92616" lon="0.31028">
        <ele>1394.6</ele>
        <time>2021-05-29T06:55:21Z</time>
      </trkpt>
      <trkpt lat="42.92619" lon="0.31031">
        <ele>1394.6</ele>
        <time>2021-05-29T06:55:22Z</time>
      </trkpt>
      <trkpt lat="42.92621" lon="0.31034">
        <ele>1394.8</ele>
        <time>2021-05-29T06:55:23Z</time>
      </trkpt>
      <trkpt lat="42.92623" lon="0.31037">
        <ele>1394.8</ele>
        <time>2021-05-29T06:55:24Z</time>
      </trkpt>
      <trkpt lat="42.92625" lon="0.31039">
        <ele>1394.8</ele>
        <time>2021-05-29T06:55:25Z</time>
      </trkpt>
      <trkpt lat="42.92627" lon="0.31041">
        <ele>1394.8</ele>
        <time>2021-05-29T06:55:26Z</time>
      </trkpt>
      <trkpt lat="42.9263" lon="0.31043">
        <ele>1394.8</ele>
        <time>2021-05-29T06:55:28Z</time>
      </trkpt>
      <trkpt lat="42.92632" lon="0.31044">
        <ele>1394.8</ele>
        <time>2021-05-29T06:55:29Z</time>
      </trkpt>
      <trkpt lat="42.92636" lon="0.31047">
        <ele>1395</ele>
        <time>2021-05-29T06:55:32Z</time>
      </trkpt>
      <trkpt lat="42.92638" lon="0.31049">
        <ele>1395.2</ele>
        <time>2021-05-29T06:55:35Z</time>
      </trkpt>
      <trkpt lat="42.92639" lon="0.3105">
        <ele>1395.2</ele>
        <time>2021-05-29T06:55:36Z</time>
      </trkpt>
      <trkpt lat="42.92639" lon="0.31052">
        <ele>1395.4</ele>
        <time>2021-05-29T06:55:37Z</time>
      </trkpt>
      <trkpt lat="42.9264" lon="0.31053">
        <ele>1395.4</ele>
        <time>2021-05-29T06:55:38Z</time>
      </trkpt>
      <trkpt lat="42.9264" lon="0.31054">
        <ele>1395.6</ele>
        <time>2021-05-29T06:55:39Z</time>
      </trkpt>
      <trkpt lat="42.92642" lon="0.31055">
        <ele>1395.8</ele>
        <time>2021-05-29T06:55:40Z</time>
      </trkpt>
      <trkpt lat="42.92643" lon="0.31057">
        <ele>1395.8</ele>
        <time>2021-05-29T06:55:41Z</time>
      </trkpt>
      <trkpt lat="42.92647" lon="0.3106">
        <ele>1396.2</ele>
        <time>2021-05-29T06:55:44Z</time>
      </trkpt>
      <trkpt lat="42.9265" lon="0.31062">
        <ele>1396.4</ele>
        <time>2021-05-29T06:55:46Z</time>
      </trkpt>
      <trkpt lat="42.92651" lon="0.31063">
        <ele>1396.6</ele>
        <time>2021-05-29T06:55:47Z</time>
      </trkpt>
      <trkpt lat="42.92657" lon="0.31068">
        <ele>1397.2</ele>
        <time>2021-05-29T06:55:52Z</time>
      </trkpt>
      <trkpt lat="42.92658" lon="0.31069">
        <ele>1397.6</ele>
        <time>2021-05-29T06:55:54Z</time>
      </trkpt>
      <trkpt lat="42.92661" lon="0.31071">
        <ele>1397.6</ele>
        <time>2021-05-29T06:55:56Z</time>
      </trkpt>
      <trkpt lat="42.92662" lon="0.31072">
        <ele>1397.6</ele>
        <time>2021-05-29T06:55:57Z</time>
      </trkpt>
      <trkpt lat="42.92663" lon="0.31073">
        <ele>1397.8</ele>
        <time>2021-05-29T06:55:58Z</time>
      </trkpt>
      <trkpt lat="42.92665" lon="0.31074">
        <ele>1398</ele>
        <time>2021-05-29T06:55:59Z</time>
      </trkpt>
      <trkpt lat="42.92667" lon="0.31076">
        <ele>1398.2</ele>
        <time>2021-05-29T06:56:00Z</time>
      </trkpt>
      <trkpt lat="42.92669" lon="0.31078">
        <ele>1398.4</ele>
        <time>2021-05-29T06:56:01Z</time>
      </trkpt>
      <trkpt lat="42.92671" lon="0.31079">
        <ele>1398.4</ele>
        <time>2021-05-29T06:56:02Z</time>
      </trkpt>
      <trkpt lat="42.92672" lon="0.31079">
        <ele>1398.6</ele>
        <time>2021-05-29T06:56:03Z</time>
      </trkpt>
      <trkpt lat="42.92672" lon="0.31079">
        <ele>1398.8</ele>
        <time>2021-05-29T06:56:04Z</time>
      </trkpt>
      <trkpt lat="42.92674" lon="0.31079">
        <ele>1398.8</ele>
        <time>2021-05-29T06:56:05Z</time>
      </trkpt>
      <trkpt lat="42.92675" lon="0.3108">
        <ele>1399</ele>
        <time>2021-05-29T06:56:06Z</time>
      </trkpt>
      <trkpt lat="42.92677" lon="0.31081">
        <ele>1399</ele>
        <time>2021-05-29T06:56:07Z</time>
      </trkpt>
      <trkpt lat="42.92678" lon="0.31082">
        <ele>1399</ele>
        <time>2021-05-29T06:56:08Z</time>
      </trkpt>
      <trkpt lat="42.9268" lon="0.31084">
        <ele>1399.2</ele>
        <time>2021-05-29T06:56:09Z</time>
      </trkpt>
      <trkpt lat="42.92682" lon="0.31085">
        <ele>1399.4</ele>
        <time>2021-05-29T06:56:10Z</time>
      </trkpt>
      <trkpt lat="42.92684" lon="0.31086">
        <ele>1399.4</ele>
        <time>2021-05-29T06:56:11Z</time>
      </trkpt>
      <trkpt lat="42.92685" lon="0.31087">
        <ele>1399.6</ele>
        <time>2021-05-29T06:56:12Z</time>
      </trkpt>
      <trkpt lat="42.92687" lon="0.31088">
        <ele>1399.8</ele>
        <time>2021-05-29T06:56:13Z</time>
      </trkpt>
      <trkpt lat="42.92688" lon="0.31089">
        <ele>1399.8</ele>
        <time>2021-05-29T06:56:14Z</time>
      </trkpt>
      <trkpt lat="42.92689" lon="0.3109">
        <ele>1400</ele>
        <time>2021-05-29T06:56:15Z</time>
      </trkpt>
      <trkpt lat="42.92691" lon="0.31091">
        <ele>1400.2</ele>
        <time>2021-05-29T06:56:16Z</time>
      </trkpt>
      <trkpt lat="42.92693" lon="0.31093">
        <ele>1400.2</ele>
        <time>2021-05-29T06:56:17Z</time>
      </trkpt>
      <trkpt lat="42.92694" lon="0.31094">
        <ele>1400.4</ele>
        <time>2021-05-29T06:56:18Z</time>
      </trkpt>
      <trkpt lat="42.92695" lon="0.31094">
        <ele>1400.4</ele>
        <time>2021-05-29T06:56:19Z</time>
      </trkpt>
      <trkpt lat="42.92696" lon="0.31096">
        <ele>1400.6</ele>
        <time>2021-05-29T06:56:20Z</time>
      </trkpt>
      <trkpt lat="42.92697" lon="0.31097">
        <ele>1400.8</ele>
        <time>2021-05-29T06:56:21Z</time>
      </trkpt>
      <trkpt lat="42.92698" lon="0.31098">
        <ele>1400.8</ele>
        <time>2021-05-29T06:56:22Z</time>
      </trkpt>
      <trkpt lat="42.927" lon="0.31099">
        <ele>1401</ele>
        <time>2021-05-29T06:56:23Z</time>
      </trkpt>
      <trkpt lat="42.92701" lon="0.31101">
        <ele>1400.8</ele>
        <time>2021-05-29T06:56:24Z</time>
      </trkpt>
      <trkpt lat="42.92702" lon="0.31102">
        <ele>1401</ele>
        <time>2021-05-29T06:56:25Z</time>
      </trkpt>
      <trkpt lat="42.92704" lon="0.31103">
        <ele>1401</ele>
        <time>2021-05-29T06:56:26Z</time>
      </trkpt>
      <trkpt lat="42.92705" lon="0.31105">
        <ele>1401.2</ele>
        <time>2021-05-29T06:56:27Z</time>
      </trkpt>
      <trkpt lat="42.92705" lon="0.31105">
        <ele>1401.2</ele>
        <time>2021-05-29T06:56:28Z</time>
      </trkpt>
      <trkpt lat="42.92706" lon="0.31106">
        <ele>1401.4</ele>
        <time>2021-05-29T06:56:29Z</time>
      </trkpt>
      <trkpt lat="42.92707" lon="0.31107">
        <ele>1401.6</ele>
        <time>2021-05-29T06:56:30Z</time>
      </trkpt>
      <trkpt lat="42.92709" lon="0.31109">
        <ele>1401.8</ele>
        <time>2021-05-29T06:56:31Z</time>
      </trkpt>
      <trkpt lat="42.92711" lon="0.31111">
        <ele>1401.8</ele>
        <time>2021-05-29T06:56:32Z</time>
      </trkpt>
      <trkpt lat="42.92713" lon="0.31112">
        <ele>1402</ele>
        <time>2021-05-29T06:56:33Z</time>
      </trkpt>
      <trkpt lat="42.92715" lon="0.31114">
        <ele>1402</ele>
        <time>2021-05-29T06:56:34Z</time>
      </trkpt>
      <trkpt lat="42.92716" lon="0.31116">
        <ele>1402.2</ele>
        <time>2021-05-29T06:56:35Z</time>
      </trkpt>
      <trkpt lat="42.92719" lon="0.31118">
        <ele>1402.4</ele>
        <time>2021-05-29T06:56:36Z</time>
      </trkpt>
      <trkpt lat="42.9272" lon="0.3112">
        <ele>1402.6</ele>
        <time>2021-05-29T06:56:37Z</time>
      </trkpt>
      <trkpt lat="42.92721" lon="0.31122">
        <ele>1402.6</ele>
        <time>2021-05-29T06:56:38Z</time>
      </trkpt>
      <trkpt lat="42.92723" lon="0.31124">
        <ele>1402.8</ele>
        <time>2021-05-29T06:56:39Z</time>
      </trkpt>
      <trkpt lat="42.92724" lon="0.31126">
        <ele>1402.8</ele>
        <time>2021-05-29T06:56:40Z</time>
      </trkpt>
      <trkpt lat="42.92725" lon="0.31128">
        <ele>1403</ele>
        <time>2021-05-29T06:56:41Z</time>
      </trkpt>
      <trkpt lat="42.92727" lon="0.3113">
        <ele>1403.2</ele>
        <time>2021-05-29T06:56:42Z</time>
      </trkpt>
      <trkpt lat="42.92727" lon="0.31132">
        <ele>1403.2</ele>
        <time>2021-05-29T06:56:43Z</time>
      </trkpt>
      <trkpt lat="42.92727" lon="0.31133">
        <ele>1403.4</ele>
        <time>2021-05-29T06:56:44Z</time>
      </trkpt>
      <trkpt lat="42.92728" lon="0.31135">
        <ele>1403.6</ele>
        <time>2021-05-29T06:56:45Z</time>
      </trkpt>
      <trkpt lat="42.92728" lon="0.31136">
        <ele>1403.6</ele>
        <time>2021-05-29T06:56:46Z</time>
      </trkpt>
      <trkpt lat="42.92729" lon="0.31137">
        <ele>1403.8</ele>
        <time>2021-05-29T06:56:47Z</time>
      </trkpt>
      <trkpt lat="42.92729" lon="0.31138">
        <ele>1404</ele>
        <time>2021-05-29T06:56:48Z</time>
      </trkpt>
      <trkpt lat="42.9273" lon="0.3114">
        <ele>1404.2</ele>
        <time>2021-05-29T06:56:49Z</time>
      </trkpt>
      <trkpt lat="42.92731" lon="0.31141">
        <ele>1404.4</ele>
        <time>2021-05-29T06:56:50Z</time>
      </trkpt>
      <trkpt lat="42.92731" lon="0.31143">
        <ele>1404.4</ele>
        <time>2021-05-29T06:56:51Z</time>
      </trkpt>
      <trkpt lat="42.92731" lon="0.31145">
        <ele>1404.6</ele>
        <time>2021-05-29T06:56:52Z</time>
      </trkpt>
      <trkpt lat="42.92731" lon="0.31145">
        <ele>1404.8</ele>
        <time>2021-05-29T06:56:53Z</time>
      </trkpt>
      <trkpt lat="42.92731" lon="0.31145">
        <ele>1405.2</ele>
        <time>2021-05-29T06:56:54Z</time>
      </trkpt>
      <trkpt lat="42.9273" lon="0.31146">
        <ele>1405.2</ele>
        <time>2021-05-29T06:56:55Z</time>
      </trkpt>
      <trkpt lat="42.9273" lon="0.31146">
        <ele>1405.4</ele>
        <time>2021-05-29T06:56:56Z</time>
      </trkpt>
      <trkpt lat="42.9273" lon="0.31146">
        <ele>1405.4</ele>
        <time>2021-05-29T06:56:57Z</time>
      </trkpt>
      <trkpt lat="42.9273" lon="0.31146">
        <ele>1405.6</ele>
        <time>2021-05-29T06:56:58Z</time>
      </trkpt>
      <trkpt lat="42.92731" lon="0.31147">
        <ele>1405.6</ele>
        <time>2021-05-29T06:56:59Z</time>
      </trkpt>
      <trkpt lat="42.92731" lon="0.31148">
        <ele>1405.8</ele>
        <time>2021-05-29T06:57:00Z</time>
      </trkpt>
      <trkpt lat="42.92731" lon="0.31148">
        <ele>1406</ele>
        <time>2021-05-29T06:57:01Z</time>
      </trkpt>
      <trkpt lat="42.92731" lon="0.31149">
        <ele>1406</ele>
        <time>2021-05-29T06:57:02Z</time>
      </trkpt>
      <trkpt lat="42.92732" lon="0.31151">
        <ele>1406.2</ele>
        <time>2021-05-29T06:57:03Z</time>
      </trkpt>
      <trkpt lat="42.92734" lon="0.31154">
        <ele>1406.2</ele>
        <time>2021-05-29T06:57:04Z</time>
      </trkpt>
      <trkpt lat="42.92735" lon="0.31156">
        <ele>1406.4</ele>
        <time>2021-05-29T06:57:05Z</time>
      </trkpt>
      <trkpt lat="42.92735" lon="0.31158">
        <ele>1406.6</ele>
        <time>2021-05-29T06:57:06Z</time>
      </trkpt>
      <trkpt lat="42.92735" lon="0.3116">
        <ele>1406.8</ele>
        <time>2021-05-29T06:57:07Z</time>
      </trkpt>
      <trkpt lat="42.92735" lon="0.3116">
        <ele>1406.8</ele>
        <time>2021-05-29T06:57:08Z</time>
      </trkpt>
      <trkpt lat="42.92735" lon="0.31162">
        <ele>1407</ele>
        <time>2021-05-29T06:57:09Z</time>
      </trkpt>
      <trkpt lat="42.92735" lon="0.31165">
        <ele>1407.2</ele>
        <time>2021-05-29T06:57:10Z</time>
      </trkpt>
      <trkpt lat="42.92735" lon="0.31169">
        <ele>1407.4</ele>
        <time>2021-05-29T06:57:11Z</time>
      </trkpt>
      <trkpt lat="42.92735" lon="0.31172">
        <ele>1407.4</ele>
        <time>2021-05-29T06:57:12Z</time>
      </trkpt>
      <trkpt lat="42.92734" lon="0.31174">
        <ele>1407.8</ele>
        <time>2021-05-29T06:57:13Z</time>
      </trkpt>
      <trkpt lat="42.92733" lon="0.31176">
        <ele>1407.8</ele>
        <time>2021-05-29T06:57:14Z</time>
      </trkpt>
      <trkpt lat="42.92734" lon="0.31177">
        <ele>1408</ele>
        <time>2021-05-29T06:57:15Z</time>
      </trkpt>
      <trkpt lat="42.92735" lon="0.31179">
        <ele>1408</ele>
        <time>2021-05-29T06:57:16Z</time>
      </trkpt>
      <trkpt lat="42.92735" lon="0.31181">
        <ele>1408.2</ele>
        <time>2021-05-29T06:57:17Z</time>
      </trkpt>
      <trkpt lat="42.92735" lon="0.31182">
        <ele>1408.2</ele>
        <time>2021-05-29T06:57:18Z</time>
      </trkpt>
      <trkpt lat="42.92735" lon="0.31182">
        <ele>1408.4</ele>
        <time>2021-05-29T06:57:19Z</time>
      </trkpt>
      <trkpt lat="42.92735" lon="0.31182">
        <ele>1408.6</ele>
        <time>2021-05-29T06:57:20Z</time>
      </trkpt>
      <trkpt lat="42.92735" lon="0.31185">
        <ele>1408.8</ele>
        <time>2021-05-29T06:57:21Z</time>
      </trkpt>
      <trkpt lat="42.92736" lon="0.3119">
        <ele>1409</ele>
        <time>2021-05-29T06:57:22Z</time>
      </trkpt>
      <trkpt lat="42.92736" lon="0.3119">
        <ele>1409</ele>
        <time>2021-05-29T06:57:23Z</time>
      </trkpt>
      <trkpt lat="42.92736" lon="0.31193">
        <ele>1409.2</ele>
        <time>2021-05-29T06:57:24Z</time>
      </trkpt>
      <trkpt lat="42.92736" lon="0.31196">
        <ele>1409.2</ele>
        <time>2021-05-29T06:57:25Z</time>
      </trkpt>
      <trkpt lat="42.92736" lon="0.31199">
        <ele>1409.4</ele>
        <time>2021-05-29T06:57:26Z</time>
      </trkpt>
      <trkpt lat="42.92736" lon="0.312">
        <ele>1409.6</ele>
        <time>2021-05-29T06:57:27Z</time>
      </trkpt>
      <trkpt lat="42.92736" lon="0.312">
        <ele>1409.6</ele>
        <time>2021-05-29T06:57:28Z</time>
      </trkpt>
      <trkpt lat="42.92738" lon="0.31203">
        <ele>1409.8</ele>
        <time>2021-05-29T06:57:29Z</time>
      </trkpt>
      <trkpt lat="42.92739" lon="0.31206">
        <ele>1410</ele>
        <time>2021-05-29T06:57:30Z</time>
      </trkpt>
      <trkpt lat="42.9274" lon="0.31209">
        <ele>1410.2</ele>
        <time>2021-05-29T06:57:31Z</time>
      </trkpt>
      <trkpt lat="42.92743" lon="0.31211">
        <ele>1410.2</ele>
        <time>2021-05-29T06:57:32Z</time>
      </trkpt>
      <trkpt lat="42.92744" lon="0.31212">
        <ele>1410.4</ele>
        <time>2021-05-29T06:57:33Z</time>
      </trkpt>
      <trkpt lat="42.92744" lon="0.31212">
        <ele>1410.4</ele>
        <time>2021-05-29T06:57:34Z</time>
      </trkpt>
      <trkpt lat="42.92745" lon="0.31216">
        <ele>1410.4</ele>
        <time>2021-05-29T06:57:35Z</time>
      </trkpt>
      <trkpt lat="42.92748" lon="0.31219">
        <ele>1410.6</ele>
        <time>2021-05-29T06:57:36Z</time>
      </trkpt>
      <trkpt lat="42.9275" lon="0.31221">
        <ele>1410.6</ele>
        <time>2021-05-29T06:57:37Z</time>
      </trkpt>
      <trkpt lat="42.92751" lon="0.31224">
        <ele>1410.8</ele>
        <time>2021-05-29T06:57:38Z</time>
      </trkpt>
      <trkpt lat="42.92751" lon="0.31224">
        <ele>1410.8</ele>
        <time>2021-05-29T06:57:39Z</time>
      </trkpt>
      <trkpt lat="42.92751" lon="0.31224">
        <ele>1411.2</ele>
        <time>2021-05-29T06:57:40Z</time>
      </trkpt>
      <trkpt lat="42.92751" lon="0.31224">
        <ele>1411.4</ele>
        <time>2021-05-29T06:57:41Z</time>
      </trkpt>
      <trkpt lat="42.92751" lon="0.31224">
        <ele>1411.4</ele>
        <time>2021-05-29T06:57:42Z</time>
      </trkpt>
      <trkpt lat="42.92751" lon="0.31224">
        <ele>1411.6</ele>
        <time>2021-05-29T06:57:43Z</time>
      </trkpt>
      <trkpt lat="42.92751" lon="0.31224">
        <ele>1411.6</ele>
        <time>2021-05-29T06:57:44Z</time>
      </trkpt>
      <trkpt lat="42.9275" lon="0.31226">
        <ele>1411.6</ele>
        <time>2021-05-29T06:57:45Z</time>
      </trkpt>
      <trkpt lat="42.9275" lon="0.31227">
        <ele>1411.8</ele>
        <time>2021-05-29T06:57:46Z</time>
      </trkpt>
      <trkpt lat="42.92749" lon="0.31229">
        <ele>1411.8</ele>
        <time>2021-05-29T06:57:47Z</time>
      </trkpt>
      <trkpt lat="42.92749" lon="0.31231">
        <ele>1412</ele>
        <time>2021-05-29T06:57:48Z</time>
      </trkpt>
      <trkpt lat="42.9275" lon="0.31232">
        <ele>1412</ele>
        <time>2021-05-29T06:57:49Z</time>
      </trkpt>
      <trkpt lat="42.9275" lon="0.31234">
        <ele>1412</ele>
        <time>2021-05-29T06:57:50Z</time>
      </trkpt>
      <trkpt lat="42.92751" lon="0.31237">
        <ele>1412.2</ele>
        <time>2021-05-29T06:57:51Z</time>
      </trkpt>
      <trkpt lat="42.92752" lon="0.3124">
        <ele>1412.2</ele>
        <time>2021-05-29T06:57:52Z</time>
      </trkpt>
      <trkpt lat="42.92754" lon="0.31243">
        <ele>1412.2</ele>
        <time>2021-05-29T06:57:53Z</time>
      </trkpt>
      <trkpt lat="42.92755" lon="0.31245">
        <ele>1412.2</ele>
        <time>2021-05-29T06:57:54Z</time>
      </trkpt>
      <trkpt lat="42.92757" lon="0.31247">
        <ele>1412.4</ele>
        <time>2021-05-29T06:57:55Z</time>
      </trkpt>
      <trkpt lat="42.92759" lon="0.31249">
        <ele>1412.4</ele>
        <time>2021-05-29T06:57:56Z</time>
      </trkpt>
      <trkpt lat="42.9276" lon="0.3125">
        <ele>1412.4</ele>
        <time>2021-05-29T06:57:57Z</time>
      </trkpt>
      <trkpt lat="42.92761" lon="0.31252">
        <ele>1412.4</ele>
        <time>2021-05-29T06:57:58Z</time>
      </trkpt>
      <trkpt lat="42.92763" lon="0.31254">
        <ele>1412.6</ele>
        <time>2021-05-29T06:57:59Z</time>
      </trkpt>
      <trkpt lat="42.92758" lon="0.31264">
        <ele>1412.8</ele>
        <time>2021-05-29T06:58:01Z</time>
      </trkpt>
      <trkpt lat="42.92757" lon="0.31267">
        <ele>1412.8</ele>
        <time>2021-05-29T06:58:02Z</time>
      </trkpt>
      <trkpt lat="42.92759" lon="0.31271">
        <ele>1413</ele>
        <time>2021-05-29T06:58:04Z</time>
      </trkpt>
      <trkpt lat="42.9276" lon="0.31272">
        <ele>1413</ele>
        <time>2021-05-29T06:58:05Z</time>
      </trkpt>
      <trkpt lat="42.9276" lon="0.31273">
        <ele>1413</ele>
        <time>2021-05-29T06:58:06Z</time>
      </trkpt>
      <trkpt lat="42.92762" lon="0.31275">
        <ele>1413</ele>
        <time>2021-05-29T06:58:07Z</time>
      </trkpt>
      <trkpt lat="42.92765" lon="0.31282">
        <ele>1413</ele>
        <time>2021-05-29T06:58:09Z</time>
      </trkpt>
      <trkpt lat="42.92767" lon="0.31285">
        <ele>1413</ele>
        <time>2021-05-29T06:58:10Z</time>
      </trkpt>
      <trkpt lat="42.9277" lon="0.31287">
        <ele>1413</ele>
        <time>2021-05-29T06:58:11Z</time>
      </trkpt>
      <trkpt lat="42.92778" lon="0.31292">
        <ele>1413</ele>
        <time>2021-05-29T06:58:13Z</time>
      </trkpt>
      <trkpt lat="42.92781" lon="0.31294">
        <ele>1413.2</ele>
        <time>2021-05-29T06:58:14Z</time>
      </trkpt>
      <trkpt lat="42.92785" lon="0.31296">
        <ele>1413</ele>
        <time>2021-05-29T06:58:16Z</time>
      </trkpt>
      <trkpt lat="42.92786" lon="0.31298">
        <ele>1413</ele>
        <time>2021-05-29T06:58:17Z</time>
      </trkpt>
      <trkpt lat="42.9279" lon="0.313">
        <ele>1413</ele>
        <time>2021-05-29T06:58:18Z</time>
      </trkpt>
      <trkpt lat="42.92792" lon="0.31302">
        <ele>1413</ele>
        <time>2021-05-29T06:58:19Z</time>
      </trkpt>
      <trkpt lat="42.92795" lon="0.31304">
        <ele>1413</ele>
        <time>2021-05-29T06:58:20Z</time>
      </trkpt>
      <trkpt lat="42.92795" lon="0.31307">
        <ele>1413</ele>
        <time>2021-05-29T06:58:21Z</time>
      </trkpt>
      <trkpt lat="42.92796" lon="0.31309">
        <ele>1413</ele>
        <time>2021-05-29T06:58:22Z</time>
      </trkpt>
      <trkpt lat="42.92795" lon="0.31312">
        <ele>1413</ele>
        <time>2021-05-29T06:58:23Z</time>
      </trkpt>
      <trkpt lat="42.92795" lon="0.31313">
        <ele>1413</ele>
        <time>2021-05-29T06:58:24Z</time>
      </trkpt>
      <trkpt lat="42.92796" lon="0.31314">
        <ele>1413.2</ele>
        <time>2021-05-29T06:58:25Z</time>
      </trkpt>
      <trkpt lat="42.92798" lon="0.31316">
        <ele>1413.2</ele>
        <time>2021-05-29T06:58:26Z</time>
      </trkpt>
      <trkpt lat="42.928" lon="0.31317">
        <ele>1413.2</ele>
        <time>2021-05-29T06:58:27Z</time>
      </trkpt>
      <trkpt lat="42.92802" lon="0.3132">
        <ele>1413.2</ele>
        <time>2021-05-29T06:58:28Z</time>
      </trkpt>
      <trkpt lat="42.92805" lon="0.31322">
        <ele>1413.2</ele>
        <time>2021-05-29T06:58:29Z</time>
      </trkpt>
      <trkpt lat="42.92808" lon="0.31324">
        <ele>1413.2</ele>
        <time>2021-05-29T06:58:30Z</time>
      </trkpt>
      <trkpt lat="42.92817" lon="0.31332">
        <ele>1413.2</ele>
        <time>2021-05-29T06:58:33Z</time>
      </trkpt>
      <trkpt lat="42.92824" lon="0.31336">
        <ele>1413.4</ele>
        <time>2021-05-29T06:58:35Z</time>
      </trkpt>
      <trkpt lat="42.92826" lon="0.31337">
        <ele>1413.4</ele>
        <time>2021-05-29T06:58:36Z</time>
      </trkpt>
      <trkpt lat="42.92829" lon="0.31339">
        <ele>1413.6</ele>
        <time>2021-05-29T06:58:37Z</time>
      </trkpt>
      <trkpt lat="42.92831" lon="0.31341">
        <ele>1413.6</ele>
        <time>2021-05-29T06:58:38Z</time>
      </trkpt>
      <trkpt lat="42.92832" lon="0.31344">
        <ele>1413.6</ele>
        <time>2021-05-29T06:58:39Z</time>
      </trkpt>
      <trkpt lat="42.92833" lon="0.31345">
        <ele>1413.6</ele>
        <time>2021-05-29T06:58:40Z</time>
      </trkpt>
      <trkpt lat="42.92835" lon="0.31347">
        <ele>1413.8</ele>
        <time>2021-05-29T06:58:41Z</time>
      </trkpt>
      <trkpt lat="42.92835" lon="0.3135">
        <ele>1413.8</ele>
        <time>2021-05-29T06:58:42Z</time>
      </trkpt>
      <trkpt lat="42.92836" lon="0.31352">
        <ele>1413.8</ele>
        <time>2021-05-29T06:58:43Z</time>
      </trkpt>
      <trkpt lat="42.92838" lon="0.31353">
        <ele>1413.8</ele>
        <time>2021-05-29T06:58:44Z</time>
      </trkpt>
      <trkpt lat="42.92841" lon="0.31354">
        <ele>1413.8</ele>
        <time>2021-05-29T06:58:45Z</time>
      </trkpt>
      <trkpt lat="42.92844" lon="0.31355">
        <ele>1413.8</ele>
        <time>2021-05-29T06:58:46Z</time>
      </trkpt>
      <trkpt lat="42.92851" lon="0.31361">
        <ele>1413.8</ele>
        <time>2021-05-29T06:58:49Z</time>
      </trkpt>
      <trkpt lat="42.92853" lon="0.31364">
        <ele>1413.8</ele>
        <time>2021-05-29T06:58:50Z</time>
      </trkpt>
      <trkpt lat="42.92858" lon="0.31368">
        <ele>1413.8</ele>
        <time>2021-05-29T06:58:52Z</time>
      </trkpt>
      <trkpt lat="42.9286" lon="0.31372">
        <ele>1414</ele>
        <time>2021-05-29T06:58:54Z</time>
      </trkpt>
      <trkpt lat="42.92862" lon="0.31373">
        <ele>1414</ele>
        <time>2021-05-29T06:58:55Z</time>
      </trkpt>
      <trkpt lat="42.92863" lon="0.31374">
        <ele>1414</ele>
        <time>2021-05-29T06:58:56Z</time>
      </trkpt>
      <trkpt lat="42.92865" lon="0.31376">
        <ele>1414</ele>
        <time>2021-05-29T06:58:57Z</time>
      </trkpt>
      <trkpt lat="42.92867" lon="0.31378">
        <ele>1414.2</ele>
        <time>2021-05-29T06:58:58Z</time>
      </trkpt>
      <trkpt lat="42.92871" lon="0.31381">
        <ele>1414.2</ele>
        <time>2021-05-29T06:59:00Z</time>
      </trkpt>
      <trkpt lat="42.92872" lon="0.31382">
        <ele>1414.2</ele>
        <time>2021-05-29T06:59:01Z</time>
      </trkpt>
      <trkpt lat="42.92873" lon="0.31382">
        <ele>1414.2</ele>
        <time>2021-05-29T06:59:02Z</time>
      </trkpt>
      <trkpt lat="42.92875" lon="0.31383">
        <ele>1414.2</ele>
        <time>2021-05-29T06:59:03Z</time>
      </trkpt>
      <trkpt lat="42.92877" lon="0.31383">
        <ele>1414.2</ele>
        <time>2021-05-29T06:59:04Z</time>
      </trkpt>
      <trkpt lat="42.9288" lon="0.31383">
        <ele>1414.2</ele>
        <time>2021-05-29T06:59:05Z</time>
      </trkpt>
      <trkpt lat="42.92883" lon="0.31384">
        <ele>1414.4</ele>
        <time>2021-05-29T06:59:06Z</time>
      </trkpt>
      <trkpt lat="42.92886" lon="0.31384">
        <ele>1414.4</ele>
        <time>2021-05-29T06:59:07Z</time>
      </trkpt>
      <trkpt lat="42.92889" lon="0.31383">
        <ele>1414.4</ele>
        <time>2021-05-29T06:59:08Z</time>
      </trkpt>
      <trkpt lat="42.92895" lon="0.31382">
        <ele>1414.6</ele>
        <time>2021-05-29T06:59:11Z</time>
      </trkpt>
      <trkpt lat="42.929" lon="0.31382">
        <ele>1414.8</ele>
        <time>2021-05-29T06:59:13Z</time>
      </trkpt>
      <trkpt lat="42.92902" lon="0.31384">
        <ele>1414.8</ele>
        <time>2021-05-29T06:59:14Z</time>
      </trkpt>
      <trkpt lat="42.92905" lon="0.31385">
        <ele>1415</ele>
        <time>2021-05-29T06:59:15Z</time>
      </trkpt>
      <trkpt lat="42.92908" lon="0.31386">
        <ele>1415</ele>
        <time>2021-05-29T06:59:16Z</time>
      </trkpt>
      <trkpt lat="42.92911" lon="0.31382">
        <ele>1415</ele>
        <time>2021-05-29T06:59:17Z</time>
      </trkpt>
      <trkpt lat="42.92913" lon="0.31381">
        <ele>1415.2</ele>
        <time>2021-05-29T06:59:18Z</time>
      </trkpt>
      <trkpt lat="42.92916" lon="0.31379">
        <ele>1415.2</ele>
        <time>2021-05-29T06:59:19Z</time>
      </trkpt>
      <trkpt lat="42.9292" lon="0.31379">
        <ele>1415.4</ele>
        <time>2021-05-29T06:59:20Z</time>
      </trkpt>
      <trkpt lat="42.92925" lon="0.3138">
        <ele>1415.4</ele>
        <time>2021-05-29T06:59:21Z</time>
      </trkpt>
      <trkpt lat="42.9293" lon="0.31382">
        <ele>1415.4</ele>
        <time>2021-05-29T06:59:22Z</time>
      </trkpt>
      <trkpt lat="42.92932" lon="0.31382">
        <ele>1415.4</ele>
        <time>2021-05-29T06:59:23Z</time>
      </trkpt>
      <trkpt lat="42.92936" lon="0.31383">
        <ele>1415.4</ele>
        <time>2021-05-29T06:59:24Z</time>
      </trkpt>
      <trkpt lat="42.9294" lon="0.31384">
        <ele>1415.4</ele>
        <time>2021-05-29T06:59:25Z</time>
      </trkpt>
      <trkpt lat="42.9296" lon="0.31397">
        <ele>1415.4</ele>
        <time>2021-05-29T06:59:29Z</time>
      </trkpt>
      <trkpt lat="42.92968" lon="0.314">
        <ele>1415.2</ele>
        <time>2021-05-29T06:59:31Z</time>
      </trkpt>
      <trkpt lat="42.92978" lon="0.31404">
        <ele>1415</ele>
        <time>2021-05-29T06:59:33Z</time>
      </trkpt>
      <trkpt lat="42.92987" lon="0.31413">
        <ele>1414.4</ele>
        <time>2021-05-29T06:59:35Z</time>
      </trkpt>
      <trkpt lat="42.92991" lon="0.31419">
        <ele>1414.2</ele>
        <time>2021-05-29T06:59:36Z</time>
      </trkpt>
      <trkpt lat="42.92995" lon="0.31425">
        <ele>1414</ele>
        <time>2021-05-29T06:59:37Z</time>
      </trkpt>
      <trkpt lat="42.93001" lon="0.31431">
        <ele>1413.6</ele>
        <time>2021-05-29T06:59:38Z</time>
      </trkpt>
      <trkpt lat="42.93007" lon="0.31435">
        <ele>1413</ele>
        <time>2021-05-29T06:59:39Z</time>
      </trkpt>
      <trkpt lat="42.93014" lon="0.31439">
        <ele>1412.8</ele>
        <time>2021-05-29T06:59:40Z</time>
      </trkpt>
      <trkpt lat="42.93029" lon="0.31448">
        <ele>1412</ele>
        <time>2021-05-29T06:59:42Z</time>
      </trkpt>
      <trkpt lat="42.93036" lon="0.31452">
        <ele>1411.8</ele>
        <time>2021-05-29T06:59:43Z</time>
      </trkpt>
      <trkpt lat="42.93049" lon="0.31462">
        <ele>1411.6</ele>
        <time>2021-05-29T06:59:45Z</time>
      </trkpt>
      <trkpt lat="42.93056" lon="0.31467">
        <ele>1411.2</ele>
        <time>2021-05-29T06:59:46Z</time>
      </trkpt>
      <trkpt lat="42.93064" lon="0.3147">
        <ele>1410.8</ele>
        <time>2021-05-29T06:59:47Z</time>
      </trkpt>
      <trkpt lat="42.9307" lon="0.31472">
        <ele>1410.6</ele>
        <time>2021-05-29T06:59:48Z</time>
      </trkpt>
      <trkpt lat="42.93076" lon="0.31472">
        <ele>1410.2</ele>
        <time>2021-05-29T06:59:49Z</time>
      </trkpt>
      <trkpt lat="42.93082" lon="0.3147">
        <ele>1410</ele>
        <time>2021-05-29T06:59:50Z</time>
      </trkpt>
      <trkpt lat="42.93087" lon="0.31463">
        <ele>1409.4</ele>
        <time>2021-05-29T06:59:51Z</time>
      </trkpt>
      <trkpt lat="42.93099" lon="0.31441">
        <ele>1408.2</ele>
        <time>2021-05-29T06:59:54Z</time>
      </trkpt>
      <trkpt lat="42.93103" lon="0.31433">
        <ele>1407.6</ele>
        <time>2021-05-29T06:59:55Z</time>
      </trkpt>
      <trkpt lat="42.93108" lon="0.31428">
        <ele>1407.4</ele>
        <time>2021-05-29T06:59:56Z</time>
      </trkpt>
      <trkpt lat="42.93114" lon="0.31421">
        <ele>1407.2</ele>
        <time>2021-05-29T06:59:57Z</time>
      </trkpt>
      <trkpt lat="42.93119" lon="0.31415">
        <ele>1406.8</ele>
        <time>2021-05-29T06:59:58Z</time>
      </trkpt>
      <trkpt lat="42.93128" lon="0.314">
        <ele>1406.6</ele>
        <time>2021-05-29T07:00:00Z</time>
      </trkpt>
      <trkpt lat="42.93131" lon="0.31388">
        <ele>1406.4</ele>
        <time>2021-05-29T07:00:01Z</time>
      </trkpt>
      <trkpt lat="42.93133" lon="0.31378">
        <ele>1406.2</ele>
        <time>2021-05-29T07:00:02Z</time>
      </trkpt>
      <trkpt lat="42.93135" lon="0.3137">
        <ele>1406.2</ele>
        <time>2021-05-29T07:00:03Z</time>
      </trkpt>
      <trkpt lat="42.93138" lon="0.31364">
        <ele>1405.6</ele>
        <time>2021-05-29T07:00:04Z</time>
      </trkpt>
      <trkpt lat="42.93149" lon="0.31347">
        <ele>1404.8</ele>
        <time>2021-05-29T07:00:06Z</time>
      </trkpt>
      <trkpt lat="42.93157" lon="0.31342">
        <ele>1404.4</ele>
        <time>2021-05-29T07:00:07Z</time>
      </trkpt>
      <trkpt lat="42.93168" lon="0.31336">
        <ele>1403.8</ele>
        <time>2021-05-29T07:00:08Z</time>
      </trkpt>
      <trkpt lat="42.93179" lon="0.31329">
        <ele>1403.4</ele>
        <time>2021-05-29T07:00:09Z</time>
      </trkpt>
      <trkpt lat="42.93186" lon="0.31322">
        <ele>1403</ele>
        <time>2021-05-29T07:00:10Z</time>
      </trkpt>
      <trkpt lat="42.93197" lon="0.31308">
        <ele>1401.8</ele>
        <time>2021-05-29T07:00:12Z</time>
      </trkpt>
      <trkpt lat="42.93204" lon="0.31301">
        <ele>1401.2</ele>
        <time>2021-05-29T07:00:13Z</time>
      </trkpt>
      <trkpt lat="42.93215" lon="0.31292">
        <ele>1400.6</ele>
        <time>2021-05-29T07:00:14Z</time>
      </trkpt>
      <trkpt lat="42.93224" lon="0.31285">
        <ele>1399.4</ele>
        <time>2021-05-29T07:00:15Z</time>
      </trkpt>
      <trkpt lat="42.9324" lon="0.31272">
        <ele>1398</ele>
        <time>2021-05-29T07:00:17Z</time>
      </trkpt>
      <trkpt lat="42.93259" lon="0.31257">
        <ele>1396</ele>
        <time>2021-05-29T07:00:19Z</time>
      </trkpt>
      <trkpt lat="42.93268" lon="0.31249">
        <ele>1395.6</ele>
        <time>2021-05-29T07:00:20Z</time>
      </trkpt>
      <trkpt lat="42.93277" lon="0.3124">
        <ele>1394.6</ele>
        <time>2021-05-29T07:00:21Z</time>
      </trkpt>
      <trkpt lat="42.93284" lon="0.31233">
        <ele>1393.8</ele>
        <time>2021-05-29T07:00:22Z</time>
      </trkpt>
      <trkpt lat="42.93291" lon="0.31227">
        <ele>1393</ele>
        <time>2021-05-29T07:00:23Z</time>
      </trkpt>
      <trkpt lat="42.93297" lon="0.3122">
        <ele>1392.6</ele>
        <time>2021-05-29T07:00:24Z</time>
      </trkpt>
      <trkpt lat="42.93302" lon="0.31213">
        <ele>1391</ele>
        <time>2021-05-29T07:00:25Z</time>
      </trkpt>
      <trkpt lat="42.93306" lon="0.31206">
        <ele>1390</ele>
        <time>2021-05-29T07:00:26Z</time>
      </trkpt>
      <trkpt lat="42.9331" lon="0.31201">
        <ele>1388.8</ele>
        <time>2021-05-29T07:00:27Z</time>
      </trkpt>
      <trkpt lat="42.93315" lon="0.31191">
        <ele>1388.4</ele>
        <time>2021-05-29T07:00:28Z</time>
      </trkpt>
      <trkpt lat="42.9332" lon="0.3118">
        <ele>1387.4</ele>
        <time>2021-05-29T07:00:29Z</time>
      </trkpt>
      <trkpt lat="42.93322" lon="0.31173">
        <ele>1387</ele>
        <time>2021-05-29T07:00:30Z</time>
      </trkpt>
      <trkpt lat="42.93327" lon="0.31158">
        <ele>1386.2</ele>
        <time>2021-05-29T07:00:32Z</time>
      </trkpt>
      <trkpt lat="42.93329" lon="0.31151">
        <ele>1386</ele>
        <time>2021-05-29T07:00:33Z</time>
      </trkpt>
      <trkpt lat="42.9333" lon="0.31145">
        <ele>1386</ele>
        <time>2021-05-29T07:00:34Z</time>
      </trkpt>
      <trkpt lat="42.93333" lon="0.31141">
        <ele>1386</ele>
        <time>2021-05-29T07:00:35Z</time>
      </trkpt>
      <trkpt lat="42.93334" lon="0.31138">
        <ele>1386</ele>
        <time>2021-05-29T07:00:36Z</time>
      </trkpt>
      <trkpt lat="42.93335" lon="0.31135">
        <ele>1386</ele>
        <time>2021-05-29T07:00:37Z</time>
      </trkpt>
      <trkpt lat="42.93336" lon="0.31132">
        <ele>1386.2</ele>
        <time>2021-05-29T07:00:38Z</time>
      </trkpt>
      <trkpt lat="42.93338" lon="0.31129">
        <ele>1386.4</ele>
        <time>2021-05-29T07:00:39Z</time>
      </trkpt>
      <trkpt lat="42.93338" lon="0.31124">
        <ele>1386.4</ele>
        <time>2021-05-29T07:00:40Z</time>
      </trkpt>
      <trkpt lat="42.93337" lon="0.31116">
        <ele>1386.8</ele>
        <time>2021-05-29T07:00:42Z</time>
      </trkpt>
      <trkpt lat="42.93338" lon="0.31112">
        <ele>1387</ele>
        <time>2021-05-29T07:00:43Z</time>
      </trkpt>
      <trkpt lat="42.9334" lon="0.31108">
        <ele>1387</ele>
        <time>2021-05-29T07:00:44Z</time>
      </trkpt>
      <trkpt lat="42.93341" lon="0.31104">
        <ele>1387.2</ele>
        <time>2021-05-29T07:00:45Z</time>
      </trkpt>
      <trkpt lat="42.93341" lon="0.31101">
        <ele>1387.4</ele>
        <time>2021-05-29T07:00:46Z</time>
      </trkpt>
      <trkpt lat="42.9334" lon="0.31098">
        <ele>1387.4</ele>
        <time>2021-05-29T07:00:47Z</time>
      </trkpt>
      <trkpt lat="42.93337" lon="0.31096">
        <ele>1387.8</ele>
        <time>2021-05-29T07:00:48Z</time>
      </trkpt>
      <trkpt lat="42.93336" lon="0.31093">
        <ele>1388</ele>
        <time>2021-05-29T07:00:49Z</time>
      </trkpt>
      <trkpt lat="42.93337" lon="0.3109">
        <ele>1388.2</ele>
        <time>2021-05-29T07:00:50Z</time>
      </trkpt>
      <trkpt lat="42.93338" lon="0.31087">
        <ele>1388.4</ele>
        <time>2021-05-29T07:00:51Z</time>
      </trkpt>
      <trkpt lat="42.93339" lon="0.31085">
        <ele>1388.6</ele>
        <time>2021-05-29T07:00:52Z</time>
      </trkpt>
      <trkpt lat="42.9334" lon="0.31084">
        <ele>1388.6</ele>
        <time>2021-05-29T07:00:53Z</time>
      </trkpt>
      <trkpt lat="42.9334" lon="0.31083">
        <ele>1389</ele>
        <time>2021-05-29T07:00:54Z</time>
      </trkpt>
      <trkpt lat="42.93341" lon="0.31082">
        <ele>1389.2</ele>
        <time>2021-05-29T07:00:55Z</time>
      </trkpt>
      <trkpt lat="42.93342" lon="0.3108">
        <ele>1389.4</ele>
        <time>2021-05-29T07:00:56Z</time>
      </trkpt>
      <trkpt lat="42.93344" lon="0.31079">
        <ele>1389.8</ele>
        <time>2021-05-29T07:00:57Z</time>
      </trkpt>
      <trkpt lat="42.93345" lon="0.31079">
        <ele>1390</ele>
        <time>2021-05-29T07:00:58Z</time>
      </trkpt>
      <trkpt lat="42.93347" lon="0.31078">
        <ele>1390.2</ele>
        <time>2021-05-29T07:00:59Z</time>
      </trkpt>
      <trkpt lat="42.93348" lon="0.31078">
        <ele>1390.2</ele>
        <time>2021-05-29T07:01:00Z</time>
      </trkpt>
      <trkpt lat="42.9335" lon="0.31077">
        <ele>1390.4</ele>
        <time>2021-05-29T07:01:01Z</time>
      </trkpt>
      <trkpt lat="42.93356" lon="0.31076">
        <ele>1390.6</ele>
        <time>2021-05-29T07:01:04Z</time>
      </trkpt>
      <trkpt lat="42.9336" lon="0.31076">
        <ele>1390.8</ele>
        <time>2021-05-29T07:01:06Z</time>
      </trkpt>
      <trkpt lat="42.93361" lon="0.31076">
        <ele>1391</ele>
        <time>2021-05-29T07:01:07Z</time>
      </trkpt>
      <trkpt lat="42.93361" lon="0.31076">
        <ele>1391</ele>
        <time>2021-05-29T07:01:08Z</time>
      </trkpt>
      <trkpt lat="42.93363" lon="0.31076">
        <ele>1391.2</ele>
        <time>2021-05-29T07:01:09Z</time>
      </trkpt>
      <trkpt lat="42.93364" lon="0.31077">
        <ele>1391.4</ele>
        <time>2021-05-29T07:01:10Z</time>
      </trkpt>
      <trkpt lat="42.93366" lon="0.31078">
        <ele>1391.6</ele>
        <time>2021-05-29T07:01:11Z</time>
      </trkpt>
      <trkpt lat="42.93367" lon="0.31079">
        <ele>1391.6</ele>
        <time>2021-05-29T07:01:12Z</time>
      </trkpt>
      <trkpt lat="42.93369" lon="0.3108">
        <ele>1391.8</ele>
        <time>2021-05-29T07:01:13Z</time>
      </trkpt>
      <trkpt lat="42.9337" lon="0.31081">
        <ele>1391.8</ele>
        <time>2021-05-29T07:01:14Z</time>
      </trkpt>
      <trkpt lat="42.93372" lon="0.31082">
        <ele>1392</ele>
        <time>2021-05-29T07:01:15Z</time>
      </trkpt>
      <trkpt lat="42.93373" lon="0.31083">
        <ele>1392.2</ele>
        <time>2021-05-29T07:01:16Z</time>
      </trkpt>
      <trkpt lat="42.93375" lon="0.31085">
        <ele>1392.2</ele>
        <time>2021-05-29T07:01:17Z</time>
      </trkpt>
      <trkpt lat="42.93376" lon="0.31086">
        <ele>1392.4</ele>
        <time>2021-05-29T07:01:18Z</time>
      </trkpt>
      <trkpt lat="42.93378" lon="0.31088">
        <ele>1392.6</ele>
        <time>2021-05-29T07:01:19Z</time>
      </trkpt>
      <trkpt lat="42.93379" lon="0.31089">
        <ele>1392.6</ele>
        <time>2021-05-29T07:01:20Z</time>
      </trkpt>
      <trkpt lat="42.9338" lon="0.31091">
        <ele>1392.8</ele>
        <time>2021-05-29T07:01:21Z</time>
      </trkpt>
      <trkpt lat="42.93381" lon="0.31093">
        <ele>1393</ele>
        <time>2021-05-29T07:01:22Z</time>
      </trkpt>
      <trkpt lat="42.93382" lon="0.31095">
        <ele>1393</ele>
        <time>2021-05-29T07:01:23Z</time>
      </trkpt>
      <trkpt lat="42.93382" lon="0.31096">
        <ele>1393.2</ele>
        <time>2021-05-29T07:01:24Z</time>
      </trkpt>
      <trkpt lat="42.93383" lon="0.31098">
        <ele>1393.2</ele>
        <time>2021-05-29T07:01:25Z</time>
      </trkpt>
      <trkpt lat="42.93384" lon="0.31099">
        <ele>1393.4</ele>
        <time>2021-05-29T07:01:26Z</time>
      </trkpt>
      <trkpt lat="42.93385" lon="0.31101">
        <ele>1393.4</ele>
        <time>2021-05-29T07:01:27Z</time>
      </trkpt>
      <trkpt lat="42.93386" lon="0.31102">
        <ele>1393.6</ele>
        <time>2021-05-29T07:01:28Z</time>
      </trkpt>
      <trkpt lat="42.93387" lon="0.31104">
        <ele>1393.6</ele>
        <time>2021-05-29T07:01:29Z</time>
      </trkpt>
      <trkpt lat="42.93388" lon="0.31105">
        <ele>1393.8</ele>
        <time>2021-05-29T07:01:30Z</time>
      </trkpt>
      <trkpt lat="42.93388" lon="0.31106">
        <ele>1393.8</ele>
        <time>2021-05-29T07:01:31Z</time>
      </trkpt>
      <trkpt lat="42.93388" lon="0.31107">
        <ele>1394</ele>
        <time>2021-05-29T07:01:32Z</time>
      </trkpt>
      <trkpt lat="42.93389" lon="0.31109">
        <ele>1394.2</ele>
        <time>2021-05-29T07:01:33Z</time>
      </trkpt>
      <trkpt lat="42.9339" lon="0.31111">
        <ele>1394.4</ele>
        <time>2021-05-29T07:01:34Z</time>
      </trkpt>
      <trkpt lat="42.93391" lon="0.31113">
        <ele>1394.6</ele>
        <time>2021-05-29T07:01:35Z</time>
      </trkpt>
      <trkpt lat="42.93391" lon="0.31115">
        <ele>1394.6</ele>
        <time>2021-05-29T07:01:36Z</time>
      </trkpt>
      <trkpt lat="42.93391" lon="0.31116">
        <ele>1394.8</ele>
        <time>2021-05-29T07:01:37Z</time>
      </trkpt>
      <trkpt lat="42.93391" lon="0.31117">
        <ele>1394.8</ele>
        <time>2021-05-29T07:01:38Z</time>
      </trkpt>
      <trkpt lat="42.93392" lon="0.31119">
        <ele>1395.2</ele>
        <time>2021-05-29T07:01:39Z</time>
      </trkpt>
      <trkpt lat="42.93392" lon="0.31122">
        <ele>1395.2</ele>
        <time>2021-05-29T07:01:40Z</time>
      </trkpt>
      <trkpt lat="42.93393" lon="0.31124">
        <ele>1395.4</ele>
        <time>2021-05-29T07:01:41Z</time>
      </trkpt>
      <trkpt lat="42.93393" lon="0.31126">
        <ele>1395.6</ele>
        <time>2021-05-29T07:01:42Z</time>
      </trkpt>
      <trkpt lat="42.93393" lon="0.31129">
        <ele>1395.6</ele>
        <time>2021-05-29T07:01:43Z</time>
      </trkpt>
      <trkpt lat="42.93394" lon="0.31131">
        <ele>1395.8</ele>
        <time>2021-05-29T07:01:44Z</time>
      </trkpt>
      <trkpt lat="42.93394" lon="0.31135">
        <ele>1395.8</ele>
        <time>2021-05-29T07:01:45Z</time>
      </trkpt>
      <trkpt lat="42.93393" lon="0.31137">
        <ele>1396</ele>
        <time>2021-05-29T07:01:46Z</time>
      </trkpt>
      <trkpt lat="42.93392" lon="0.31137">
        <ele>1396.2</ele>
        <time>2021-05-29T07:01:47Z</time>
      </trkpt>
      <trkpt lat="42.93392" lon="0.31138">
        <ele>1396.4</ele>
        <time>2021-05-29T07:01:48Z</time>
      </trkpt>
      <trkpt lat="42.93392" lon="0.31139">
        <ele>1396.4</ele>
        <time>2021-05-29T07:01:49Z</time>
      </trkpt>
      <trkpt lat="42.93392" lon="0.31141">
        <ele>1396.6</ele>
        <time>2021-05-29T07:01:50Z</time>
      </trkpt>
      <trkpt lat="42.93394" lon="0.31144">
        <ele>1396.8</ele>
        <time>2021-05-29T07:01:51Z</time>
      </trkpt>
      <trkpt lat="42.93395" lon="0.31146">
        <ele>1396.8</ele>
        <time>2021-05-29T07:01:52Z</time>
      </trkpt>
      <trkpt lat="42.93396" lon="0.31148">
        <ele>1397</ele>
        <time>2021-05-29T07:01:53Z</time>
      </trkpt>
      <trkpt lat="42.93397" lon="0.3115">
        <ele>1397.2</ele>
        <time>2021-05-29T07:01:54Z</time>
      </trkpt>
      <trkpt lat="42.93398" lon="0.31152">
        <ele>1397.4</ele>
        <time>2021-05-29T07:01:55Z</time>
      </trkpt>
      <trkpt lat="42.93398" lon="0.31153">
        <ele>1397.6</ele>
        <time>2021-05-29T07:01:56Z</time>
      </trkpt>
      <trkpt lat="42.93399" lon="0.31156">
        <ele>1397.6</ele>
        <time>2021-05-29T07:01:57Z</time>
      </trkpt>
      <trkpt lat="42.934" lon="0.31157">
        <ele>1397.8</ele>
        <time>2021-05-29T07:01:58Z</time>
      </trkpt>
      <trkpt lat="42.93401" lon="0.31159">
        <ele>1397.8</ele>
        <time>2021-05-29T07:01:59Z</time>
      </trkpt>
      <trkpt lat="42.93402" lon="0.31159">
        <ele>1398.2</ele>
        <time>2021-05-29T07:02:00Z</time>
      </trkpt>
      <trkpt lat="42.93402" lon="0.31159">
        <ele>1398.2</ele>
        <time>2021-05-29T07:02:01Z</time>
      </trkpt>
      <trkpt lat="42.93402" lon="0.31162">
        <ele>1398.4</ele>
        <time>2021-05-29T07:02:02Z</time>
      </trkpt>
      <trkpt lat="42.93403" lon="0.31163">
        <ele>1398.4</ele>
        <time>2021-05-29T07:02:03Z</time>
      </trkpt>
      <trkpt lat="42.93403" lon="0.31166">
        <ele>1398.6</ele>
        <time>2021-05-29T07:02:04Z</time>
      </trkpt>
      <trkpt lat="42.93404" lon="0.31167">
        <ele>1398.6</ele>
        <time>2021-05-29T07:02:05Z</time>
      </trkpt>
      <trkpt lat="42.93405" lon="0.31169">
        <ele>1398.8</ele>
        <time>2021-05-29T07:02:06Z</time>
      </trkpt>
      <trkpt lat="42.93405" lon="0.31171">
        <ele>1398.8</ele>
        <time>2021-05-29T07:02:07Z</time>
      </trkpt>
      <trkpt lat="42.93406" lon="0.31173">
        <ele>1399</ele>
        <time>2021-05-29T07:02:08Z</time>
      </trkpt>
      <trkpt lat="42.93407" lon="0.31174">
        <ele>1399</ele>
        <time>2021-05-29T07:02:09Z</time>
      </trkpt>
      <trkpt lat="42.93407" lon="0.31177">
        <ele>1399.2</ele>
        <time>2021-05-29T07:02:10Z</time>
      </trkpt>
      <trkpt lat="42.93408" lon="0.3118">
        <ele>1399.4</ele>
        <time>2021-05-29T07:02:11Z</time>
      </trkpt>
      <trkpt lat="42.93409" lon="0.31183">
        <ele>1399.4</ele>
        <time>2021-05-29T07:02:12Z</time>
      </trkpt>
      <trkpt lat="42.9341" lon="0.31186">
        <ele>1399.4</ele>
        <time>2021-05-29T07:02:13Z</time>
      </trkpt>
      <trkpt lat="42.93411" lon="0.31188">
        <ele>1399.6</ele>
        <time>2021-05-29T07:02:14Z</time>
      </trkpt>
      <trkpt lat="42.93411" lon="0.3119">
        <ele>1399.8</ele>
        <time>2021-05-29T07:02:15Z</time>
      </trkpt>
      <trkpt lat="42.93412" lon="0.31192">
        <ele>1400</ele>
        <time>2021-05-29T07:02:16Z</time>
      </trkpt>
      <trkpt lat="42.93413" lon="0.31194">
        <ele>1400.2</ele>
        <time>2021-05-29T07:02:17Z</time>
      </trkpt>
      <trkpt lat="42.93413" lon="0.31195">
        <ele>1400.2</ele>
        <time>2021-05-29T07:02:18Z</time>
      </trkpt>
      <trkpt lat="42.93415" lon="0.312">
        <ele>1400.6</ele>
        <time>2021-05-29T07:02:19Z</time>
      </trkpt>
      <trkpt lat="42.93415" lon="0.31203">
        <ele>1400.6</ele>
        <time>2021-05-29T07:02:20Z</time>
      </trkpt>
      <trkpt lat="42.93416" lon="0.31207">
        <ele>1400.8</ele>
        <time>2021-05-29T07:02:21Z</time>
      </trkpt>
      <trkpt lat="42.93417" lon="0.3121">
        <ele>1400.8</ele>
        <time>2021-05-29T07:02:22Z</time>
      </trkpt>
      <trkpt lat="42.93418" lon="0.31213">
        <ele>1401</ele>
        <time>2021-05-29T07:02:23Z</time>
      </trkpt>
      <trkpt lat="42.93419" lon="0.31214">
        <ele>1401</ele>
        <time>2021-05-29T07:02:24Z</time>
      </trkpt>
      <trkpt lat="42.9342" lon="0.31215">
        <ele>1401.2</ele>
        <time>2021-05-29T07:02:25Z</time>
      </trkpt>
      <trkpt lat="42.93421" lon="0.31216">
        <ele>1401.4</ele>
        <time>2021-05-29T07:02:26Z</time>
      </trkpt>
      <trkpt lat="42.93422" lon="0.31217">
        <ele>1401.4</ele>
        <time>2021-05-29T07:02:27Z</time>
      </trkpt>
      <trkpt lat="42.93422" lon="0.3122">
        <ele>1401.6</ele>
        <time>2021-05-29T07:02:28Z</time>
      </trkpt>
      <trkpt lat="42.93423" lon="0.31223">
        <ele>1402</ele>
        <time>2021-05-29T07:02:29Z</time>
      </trkpt>
      <trkpt lat="42.93424" lon="0.31226">
        <ele>1402</ele>
        <time>2021-05-29T07:02:30Z</time>
      </trkpt>
      <trkpt lat="42.93424" lon="0.31228">
        <ele>1402.2</ele>
        <time>2021-05-29T07:02:31Z</time>
      </trkpt>
      <trkpt lat="42.93424" lon="0.3123">
        <ele>1402.2</ele>
        <time>2021-05-29T07:02:32Z</time>
      </trkpt>
      <trkpt lat="42.93424" lon="0.31231">
        <ele>1402.4</ele>
        <time>2021-05-29T07:02:33Z</time>
      </trkpt>
      <trkpt lat="42.93425" lon="0.31233">
        <ele>1402.6</ele>
        <time>2021-05-29T07:02:34Z</time>
      </trkpt>
      <trkpt lat="42.93426" lon="0.31235">
        <ele>1402.8</ele>
        <time>2021-05-29T07:02:35Z</time>
      </trkpt>
      <trkpt lat="42.93427" lon="0.31237">
        <ele>1403</ele>
        <time>2021-05-29T07:02:36Z</time>
      </trkpt>
      <trkpt lat="42.93429" lon="0.31239">
        <ele>1403</ele>
        <time>2021-05-29T07:02:37Z</time>
      </trkpt>
      <trkpt lat="42.9343" lon="0.3124">
        <ele>1403.2</ele>
        <time>2021-05-29T07:02:38Z</time>
      </trkpt>
      <trkpt lat="42.93431" lon="0.31241">
        <ele>1403.4</ele>
        <time>2021-05-29T07:02:39Z</time>
      </trkpt>
      <trkpt lat="42.93432" lon="0.31242">
        <ele>1403.6</ele>
        <time>2021-05-29T07:02:40Z</time>
      </trkpt>
      <trkpt lat="42.93432" lon="0.31244">
        <ele>1403.8</ele>
        <time>2021-05-29T07:02:41Z</time>
      </trkpt>
      <trkpt lat="42.93433" lon="0.31246">
        <ele>1404.2</ele>
        <time>2021-05-29T07:02:42Z</time>
      </trkpt>
      <trkpt lat="42.93434" lon="0.31247">
        <ele>1404.2</ele>
        <time>2021-05-29T07:02:43Z</time>
      </trkpt>
      <trkpt lat="42.93434" lon="0.31249">
        <ele>1404.4</ele>
        <time>2021-05-29T07:02:44Z</time>
      </trkpt>
      <trkpt lat="42.93436" lon="0.31251">
        <ele>1404.4</ele>
        <time>2021-05-29T07:02:45Z</time>
      </trkpt>
      <trkpt lat="42.93437" lon="0.31253">
        <ele>1404.6</ele>
        <time>2021-05-29T07:02:46Z</time>
      </trkpt>
      <trkpt lat="42.93438" lon="0.31255">
        <ele>1404.6</ele>
        <time>2021-05-29T07:02:47Z</time>
      </trkpt>
      <trkpt lat="42.93439" lon="0.31256">
        <ele>1404.8</ele>
        <time>2021-05-29T07:02:48Z</time>
      </trkpt>
      <trkpt lat="42.93441" lon="0.31258">
        <ele>1404.8</ele>
        <time>2021-05-29T07:02:49Z</time>
      </trkpt>
      <trkpt lat="42.93442" lon="0.3126">
        <ele>1405</ele>
        <time>2021-05-29T07:02:50Z</time>
      </trkpt>
      <trkpt lat="42.93445" lon="0.31261">
        <ele>1405.2</ele>
        <time>2021-05-29T07:02:51Z</time>
      </trkpt>
      <trkpt lat="42.93447" lon="0.31263">
        <ele>1405.4</ele>
        <time>2021-05-29T07:02:52Z</time>
      </trkpt>
      <trkpt lat="42.93448" lon="0.31264">
        <ele>1405.6</ele>
        <time>2021-05-29T07:02:53Z</time>
      </trkpt>
      <trkpt lat="42.93448" lon="0.31265">
        <ele>1405.8</ele>
        <time>2021-05-29T07:02:54Z</time>
      </trkpt>
      <trkpt lat="42.93449" lon="0.31265">
        <ele>1406</ele>
        <time>2021-05-29T07:02:55Z</time>
      </trkpt>
      <trkpt lat="42.93449" lon="0.31267">
        <ele>1406</ele>
        <time>2021-05-29T07:02:56Z</time>
      </trkpt>
      <trkpt lat="42.9345" lon="0.31268">
        <ele>1406.2</ele>
        <time>2021-05-29T07:02:57Z</time>
      </trkpt>
      <trkpt lat="42.93451" lon="0.3127">
        <ele>1406.4</ele>
        <time>2021-05-29T07:02:58Z</time>
      </trkpt>
      <trkpt lat="42.93451" lon="0.31273">
        <ele>1406.6</ele>
        <time>2021-05-29T07:02:59Z</time>
      </trkpt>
      <trkpt lat="42.93451" lon="0.31275">
        <ele>1406.6</ele>
        <time>2021-05-29T07:03:00Z</time>
      </trkpt>
      <trkpt lat="42.93451" lon="0.31277">
        <ele>1406.8</ele>
        <time>2021-05-29T07:03:01Z</time>
      </trkpt>
      <trkpt lat="42.93451" lon="0.31277">
        <ele>1406.8</ele>
        <time>2021-05-29T07:03:02Z</time>
      </trkpt>
      <trkpt lat="42.93452" lon="0.31278">
        <ele>1406.8</ele>
        <time>2021-05-29T07:03:03Z</time>
      </trkpt>
      <trkpt lat="42.93453" lon="0.31281">
        <ele>1407</ele>
        <time>2021-05-29T07:03:04Z</time>
      </trkpt>
      <trkpt lat="42.93455" lon="0.31282">
        <ele>1407.4</ele>
        <time>2021-05-29T07:03:05Z</time>
      </trkpt>
      <trkpt lat="42.93456" lon="0.31282">
        <ele>1407.4</ele>
        <time>2021-05-29T07:03:06Z</time>
      </trkpt>
      <trkpt lat="42.93458" lon="0.31284">
        <ele>1407.6</ele>
        <time>2021-05-29T07:03:07Z</time>
      </trkpt>
      <trkpt lat="42.93461" lon="0.31287">
        <ele>1407.8</ele>
        <time>2021-05-29T07:03:08Z</time>
      </trkpt>
      <trkpt lat="42.93463" lon="0.3129">
        <ele>1408</ele>
        <time>2021-05-29T07:03:09Z</time>
      </trkpt>
      <trkpt lat="42.93463" lon="0.31292">
        <ele>1408</ele>
        <time>2021-05-29T07:03:10Z</time>
      </trkpt>
      <trkpt lat="42.93465" lon="0.31293">
        <ele>1408.2</ele>
        <time>2021-05-29T07:03:11Z</time>
      </trkpt>
      <trkpt lat="42.93466" lon="0.31295">
        <ele>1408.2</ele>
        <time>2021-05-29T07:03:12Z</time>
      </trkpt>
      <trkpt lat="42.93468" lon="0.31297">
        <ele>1408.4</ele>
        <time>2021-05-29T07:03:13Z</time>
      </trkpt>
      <trkpt lat="42.93472" lon="0.31299">
        <ele>1408.6</ele>
        <time>2021-05-29T07:03:14Z</time>
      </trkpt>
      <trkpt lat="42.93477" lon="0.31303">
        <ele>1408.6</ele>
        <time>2021-05-29T07:03:15Z</time>
      </trkpt>
      <trkpt lat="42.9348" lon="0.31305">
        <ele>1408.8</ele>
        <time>2021-05-29T07:03:16Z</time>
      </trkpt>
      <trkpt lat="42.93481" lon="0.31307">
        <ele>1409</ele>
        <time>2021-05-29T07:03:17Z</time>
      </trkpt>
      <trkpt lat="42.93481" lon="0.31308">
        <ele>1409.2</ele>
        <time>2021-05-29T07:03:18Z</time>
      </trkpt>
      <trkpt lat="42.93482" lon="0.31311">
        <ele>1409.2</ele>
        <time>2021-05-29T07:03:19Z</time>
      </trkpt>
      <trkpt lat="42.93483" lon="0.31314">
        <ele>1409.2</ele>
        <time>2021-05-29T07:03:20Z</time>
      </trkpt>
      <trkpt lat="42.93482" lon="0.31316">
        <ele>1409.4</ele>
        <time>2021-05-29T07:03:21Z</time>
      </trkpt>
      <trkpt lat="42.9348" lon="0.31317">
        <ele>1409.6</ele>
        <time>2021-05-29T07:03:22Z</time>
      </trkpt>
      <trkpt lat="42.9348" lon="0.31319">
        <ele>1409.6</ele>
        <time>2021-05-29T07:03:23Z</time>
      </trkpt>
      <trkpt lat="42.9348" lon="0.31321">
        <ele>1409.8</ele>
        <time>2021-05-29T07:03:24Z</time>
      </trkpt>
      <trkpt lat="42.93481" lon="0.31322">
        <ele>1409.8</ele>
        <time>2021-05-29T07:03:25Z</time>
      </trkpt>
      <trkpt lat="42.93482" lon="0.31325">
        <ele>1410</ele>
        <time>2021-05-29T07:03:26Z</time>
      </trkpt>
      <trkpt lat="42.93481" lon="0.31327">
        <ele>1410</ele>
        <time>2021-05-29T07:03:27Z</time>
      </trkpt>
      <trkpt lat="42.9348" lon="0.31329">
        <ele>1410.2</ele>
        <time>2021-05-29T07:03:28Z</time>
      </trkpt>
      <trkpt lat="42.93479" lon="0.31332">
        <ele>1410.4</ele>
        <time>2021-05-29T07:03:29Z</time>
      </trkpt>
      <trkpt lat="42.9348" lon="0.31334">
        <ele>1410.6</ele>
        <time>2021-05-29T07:03:30Z</time>
      </trkpt>
      <trkpt lat="42.93481" lon="0.31336">
        <ele>1410.6</ele>
        <time>2021-05-29T07:03:31Z</time>
      </trkpt>
      <trkpt lat="42.93482" lon="0.31338">
        <ele>1410.8</ele>
        <time>2021-05-29T07:03:32Z</time>
      </trkpt>
      <trkpt lat="42.93483" lon="0.3134">
        <ele>1411</ele>
        <time>2021-05-29T07:03:33Z</time>
      </trkpt>
      <trkpt lat="42.93484" lon="0.31342">
        <ele>1411</ele>
        <time>2021-05-29T07:03:34Z</time>
      </trkpt>
      <trkpt lat="42.93484" lon="0.31344">
        <ele>1411.2</ele>
        <time>2021-05-29T07:03:35Z</time>
      </trkpt>
      <trkpt lat="42.93484" lon="0.31347">
        <ele>1411.4</ele>
        <time>2021-05-29T07:03:36Z</time>
      </trkpt>
      <trkpt lat="42.93484" lon="0.3135">
        <ele>1411.6</ele>
        <time>2021-05-29T07:03:37Z</time>
      </trkpt>
      <trkpt lat="42.93485" lon="0.31353">
        <ele>1411.6</ele>
        <time>2021-05-29T07:03:38Z</time>
      </trkpt>
      <trkpt lat="42.93484" lon="0.31355">
        <ele>1411.8</ele>
        <time>2021-05-29T07:03:39Z</time>
      </trkpt>
      <trkpt lat="42.93483" lon="0.31357">
        <ele>1411.8</ele>
        <time>2021-05-29T07:03:40Z</time>
      </trkpt>
      <trkpt lat="42.93483" lon="0.3136">
        <ele>1412</ele>
        <time>2021-05-29T07:03:41Z</time>
      </trkpt>
      <trkpt lat="42.93483" lon="0.31362">
        <ele>1412</ele>
        <time>2021-05-29T07:03:42Z</time>
      </trkpt>
      <trkpt lat="42.93483" lon="0.31365">
        <ele>1412.2</ele>
        <time>2021-05-29T07:03:43Z</time>
      </trkpt>
      <trkpt lat="42.93483" lon="0.31367">
        <ele>1412.2</ele>
        <time>2021-05-29T07:03:44Z</time>
      </trkpt>
      <trkpt lat="42.93483" lon="0.31369">
        <ele>1412.4</ele>
        <time>2021-05-29T07:03:45Z</time>
      </trkpt>
      <trkpt lat="42.93484" lon="0.31372">
        <ele>1412.4</ele>
        <time>2021-05-29T07:03:46Z</time>
      </trkpt>
      <trkpt lat="42.93484" lon="0.31374">
        <ele>1412.6</ele>
        <time>2021-05-29T07:03:47Z</time>
      </trkpt>
      <trkpt lat="42.93484" lon="0.31376">
        <ele>1412.8</ele>
        <time>2021-05-29T07:03:48Z</time>
      </trkpt>
      <trkpt lat="42.93485" lon="0.31379">
        <ele>1412.8</ele>
        <time>2021-05-29T07:03:49Z</time>
      </trkpt>
      <trkpt lat="42.93484" lon="0.31381">
        <ele>1413</ele>
        <time>2021-05-29T07:03:50Z</time>
      </trkpt>
      <trkpt lat="42.93482" lon="0.31384">
        <ele>1413.2</ele>
        <time>2021-05-29T07:03:51Z</time>
      </trkpt>
      <trkpt lat="42.9348" lon="0.31386">
        <ele>1413.4</ele>
        <time>2021-05-29T07:03:52Z</time>
      </trkpt>
      <trkpt lat="42.9348" lon="0.31388">
        <ele>1413.8</ele>
        <time>2021-05-29T07:03:53Z</time>
      </trkpt>
      <trkpt lat="42.9348" lon="0.31388">
        <ele>1413.8</ele>
        <time>2021-05-29T07:03:54Z</time>
      </trkpt>
      <trkpt lat="42.9348" lon="0.31389">
        <ele>1414</ele>
        <time>2021-05-29T07:03:55Z</time>
      </trkpt>
      <trkpt lat="42.93479" lon="0.31391">
        <ele>1414.2</ele>
        <time>2021-05-29T07:03:56Z</time>
      </trkpt>
      <trkpt lat="42.93478" lon="0.31393">
        <ele>1414.2</ele>
        <time>2021-05-29T07:03:57Z</time>
      </trkpt>
      <trkpt lat="42.93479" lon="0.31395">
        <ele>1414.4</ele>
        <time>2021-05-29T07:03:58Z</time>
      </trkpt>
      <trkpt lat="42.93478" lon="0.31397">
        <ele>1414.4</ele>
        <time>2021-05-29T07:03:59Z</time>
      </trkpt>
      <trkpt lat="42.93477" lon="0.31399">
        <ele>1414.8</ele>
        <time>2021-05-29T07:04:00Z</time>
      </trkpt>
      <trkpt lat="42.93477" lon="0.31402">
        <ele>1415</ele>
        <time>2021-05-29T07:04:01Z</time>
      </trkpt>
      <trkpt lat="42.93477" lon="0.31404">
        <ele>1415</ele>
        <time>2021-05-29T07:04:02Z</time>
      </trkpt>
      <trkpt lat="42.93478" lon="0.31406">
        <ele>1415.2</ele>
        <time>2021-05-29T07:04:03Z</time>
      </trkpt>
      <trkpt lat="42.93477" lon="0.31408">
        <ele>1415.2</ele>
        <time>2021-05-29T07:04:04Z</time>
      </trkpt>
      <trkpt lat="42.93477" lon="0.3141">
        <ele>1415.4</ele>
        <time>2021-05-29T07:04:05Z</time>
      </trkpt>
      <trkpt lat="42.93477" lon="0.31412">
        <ele>1415.6</ele>
        <time>2021-05-29T07:04:06Z</time>
      </trkpt>
      <trkpt lat="42.93477" lon="0.31414">
        <ele>1415.6</ele>
        <time>2021-05-29T07:04:07Z</time>
      </trkpt>
      <trkpt lat="42.93476" lon="0.31415">
        <ele>1416</ele>
        <time>2021-05-29T07:04:08Z</time>
      </trkpt>
      <trkpt lat="42.93478" lon="0.31417">
        <ele>1416</ele>
        <time>2021-05-29T07:04:09Z</time>
      </trkpt>
      <trkpt lat="42.9348" lon="0.31419">
        <ele>1416.2</ele>
        <time>2021-05-29T07:04:10Z</time>
      </trkpt>
      <trkpt lat="42.93479" lon="0.31421">
        <ele>1416.2</ele>
        <time>2021-05-29T07:04:11Z</time>
      </trkpt>
      <trkpt lat="42.93479" lon="0.31423">
        <ele>1416.4</ele>
        <time>2021-05-29T07:04:12Z</time>
      </trkpt>
      <trkpt lat="42.93478" lon="0.31426">
        <ele>1416.4</ele>
        <time>2021-05-29T07:04:13Z</time>
      </trkpt>
      <trkpt lat="42.93477" lon="0.31429">
        <ele>1416.8</ele>
        <time>2021-05-29T07:04:14Z</time>
      </trkpt>
      <trkpt lat="42.93475" lon="0.31431">
        <ele>1417.2</ele>
        <time>2021-05-29T07:04:15Z</time>
      </trkpt>
      <trkpt lat="42.93475" lon="0.31433">
        <ele>1417.4</ele>
        <time>2021-05-29T07:04:16Z</time>
      </trkpt>
      <trkpt lat="42.93477" lon="0.31436">
        <ele>1417.4</ele>
        <time>2021-05-29T07:04:17Z</time>
      </trkpt>
      <trkpt lat="42.93479" lon="0.31438">
        <ele>1417.6</ele>
        <time>2021-05-29T07:04:18Z</time>
      </trkpt>
      <trkpt lat="42.93482" lon="0.3144">
        <ele>1417.6</ele>
        <time>2021-05-29T07:04:19Z</time>
      </trkpt>
      <trkpt lat="42.93485" lon="0.31443">
        <ele>1417.8</ele>
        <time>2021-05-29T07:04:20Z</time>
      </trkpt>
      <trkpt lat="42.93483" lon="0.31445">
        <ele>1417.8</ele>
        <time>2021-05-29T07:04:21Z</time>
      </trkpt>
      <trkpt lat="42.93481" lon="0.31447">
        <ele>1418</ele>
        <time>2021-05-29T07:04:22Z</time>
      </trkpt>
      <trkpt lat="42.93479" lon="0.31449">
        <ele>1418.2</ele>
        <time>2021-05-29T07:04:23Z</time>
      </trkpt>
      <trkpt lat="42.93479" lon="0.31451">
        <ele>1418.2</ele>
        <time>2021-05-29T07:04:24Z</time>
      </trkpt>
      <trkpt lat="42.93478" lon="0.31453">
        <ele>1418.4</ele>
        <time>2021-05-29T07:04:25Z</time>
      </trkpt>
      <trkpt lat="42.93477" lon="0.31455">
        <ele>1418.6</ele>
        <time>2021-05-29T07:04:26Z</time>
      </trkpt>
      <trkpt lat="42.93477" lon="0.31457">
        <ele>1418.6</ele>
        <time>2021-05-29T07:04:27Z</time>
      </trkpt>
      <trkpt lat="42.93476" lon="0.31459">
        <ele>1418.6</ele>
        <time>2021-05-29T07:04:28Z</time>
      </trkpt>
      <trkpt lat="42.93476" lon="0.31461">
        <ele>1418.8</ele>
        <time>2021-05-29T07:04:29Z</time>
      </trkpt>
      <trkpt lat="42.93477" lon="0.31463">
        <ele>1419</ele>
        <time>2021-05-29T07:04:30Z</time>
      </trkpt>
      <trkpt lat="42.93476" lon="0.31465">
        <ele>1419.2</ele>
        <time>2021-05-29T07:04:31Z</time>
      </trkpt>
      <trkpt lat="42.93476" lon="0.31467">
        <ele>1419.2</ele>
        <time>2021-05-29T07:04:32Z</time>
      </trkpt>
      <trkpt lat="42.93477" lon="0.31468">
        <ele>1419.4</ele>
        <time>2021-05-29T07:04:33Z</time>
      </trkpt>
      <trkpt lat="42.93478" lon="0.3147">
        <ele>1419.8</ele>
        <time>2021-05-29T07:04:34Z</time>
      </trkpt>
      <trkpt lat="42.93478" lon="0.31471">
        <ele>1419.8</ele>
        <time>2021-05-29T07:04:35Z</time>
      </trkpt>
      <trkpt lat="42.93477" lon="0.31473">
        <ele>1420.2</ele>
        <time>2021-05-29T07:04:36Z</time>
      </trkpt>
      <trkpt lat="42.93477" lon="0.31475">
        <ele>1420.2</ele>
        <time>2021-05-29T07:04:37Z</time>
      </trkpt>
      <trkpt lat="42.93477" lon="0.31477">
        <ele>1420.4</ele>
        <time>2021-05-29T07:04:38Z</time>
      </trkpt>
      <trkpt lat="42.93478" lon="0.3148">
        <ele>1420.6</ele>
        <time>2021-05-29T07:04:39Z</time>
      </trkpt>
      <trkpt lat="42.93478" lon="0.3148">
        <ele>1420.6</ele>
        <time>2021-05-29T07:04:40Z</time>
      </trkpt>
      <trkpt lat="42.93476" lon="0.31481">
        <ele>1420.8</ele>
        <time>2021-05-29T07:04:41Z</time>
      </trkpt>
      <trkpt lat="42.93474" lon="0.31483">
        <ele>1420.8</ele>
        <time>2021-05-29T07:04:42Z</time>
      </trkpt>
      <trkpt lat="42.93473" lon="0.31486">
        <ele>1421</ele>
        <time>2021-05-29T07:04:43Z</time>
      </trkpt>
      <trkpt lat="42.93473" lon="0.31488">
        <ele>1421</ele>
        <time>2021-05-29T07:04:44Z</time>
      </trkpt>
      <trkpt lat="42.93474" lon="0.3149">
        <ele>1421</ele>
        <time>2021-05-29T07:04:45Z</time>
      </trkpt>
      <trkpt lat="42.93475" lon="0.31493">
        <ele>1421.2</ele>
        <time>2021-05-29T07:04:46Z</time>
      </trkpt>
      <trkpt lat="42.93475" lon="0.31495">
        <ele>1421.4</ele>
        <time>2021-05-29T07:04:47Z</time>
      </trkpt>
      <trkpt lat="42.9348" lon="0.31498">
        <ele>1421.6</ele>
        <time>2021-05-29T07:04:48Z</time>
      </trkpt>
      <trkpt lat="42.93482" lon="0.31501">
        <ele>1421.6</ele>
        <time>2021-05-29T07:04:49Z</time>
      </trkpt>
      <trkpt lat="42.93484" lon="0.31504">
        <ele>1421.8</ele>
        <time>2021-05-29T07:04:50Z</time>
      </trkpt>
      <trkpt lat="42.93485" lon="0.31507">
        <ele>1422</ele>
        <time>2021-05-29T07:04:51Z</time>
      </trkpt>
      <trkpt lat="42.93485" lon="0.31509">
        <ele>1422.2</ele>
        <time>2021-05-29T07:04:52Z</time>
      </trkpt>
      <trkpt lat="42.93486" lon="0.31511">
        <ele>1422.2</ele>
        <time>2021-05-29T07:04:53Z</time>
      </trkpt>
      <trkpt lat="42.93484" lon="0.31513">
        <ele>1422.4</ele>
        <time>2021-05-29T07:04:54Z</time>
      </trkpt>
      <trkpt lat="42.93481" lon="0.31514">
        <ele>1422.8</ele>
        <time>2021-05-29T07:04:55Z</time>
      </trkpt>
      <trkpt lat="42.93483" lon="0.31517">
        <ele>1422.8</ele>
        <time>2021-05-29T07:04:56Z</time>
      </trkpt>
      <trkpt lat="42.93486" lon="0.31519">
        <ele>1423</ele>
        <time>2021-05-29T07:04:57Z</time>
      </trkpt>
      <trkpt lat="42.93486" lon="0.31522">
        <ele>1423</ele>
        <time>2021-05-29T07:04:58Z</time>
      </trkpt>
      <trkpt lat="42.93484" lon="0.31525">
        <ele>1423.2</ele>
        <time>2021-05-29T07:04:59Z</time>
      </trkpt>
      <trkpt lat="42.93484" lon="0.31528">
        <ele>1423.2</ele>
        <time>2021-05-29T07:05:00Z</time>
      </trkpt>
      <trkpt lat="42.93483" lon="0.3153">
        <ele>1423.4</ele>
        <time>2021-05-29T07:05:01Z</time>
      </trkpt>
      <trkpt lat="42.93481" lon="0.31532">
        <ele>1423.6</ele>
        <time>2021-05-29T07:05:02Z</time>
      </trkpt>
      <trkpt lat="42.9348" lon="0.31534">
        <ele>1423.8</ele>
        <time>2021-05-29T07:05:03Z</time>
      </trkpt>
      <trkpt lat="42.93479" lon="0.31536">
        <ele>1423.8</ele>
        <time>2021-05-29T07:05:04Z</time>
      </trkpt>
      <trkpt lat="42.93479" lon="0.31538">
        <ele>1424</ele>
        <time>2021-05-29T07:05:05Z</time>
      </trkpt>
      <trkpt lat="42.93478" lon="0.3154">
        <ele>1424</ele>
        <time>2021-05-29T07:05:06Z</time>
      </trkpt>
      <trkpt lat="42.9348" lon="0.31543">
        <ele>1424.2</ele>
        <time>2021-05-29T07:05:07Z</time>
      </trkpt>
      <trkpt lat="42.93482" lon="0.31545">
        <ele>1424.4</ele>
        <time>2021-05-29T07:05:08Z</time>
      </trkpt>
      <trkpt lat="42.93483" lon="0.31547">
        <ele>1424.4</ele>
        <time>2021-05-29T07:05:09Z</time>
      </trkpt>
      <trkpt lat="42.93483" lon="0.31549">
        <ele>1424.4</ele>
        <time>2021-05-29T07:05:10Z</time>
      </trkpt>
      <trkpt lat="42.93483" lon="0.31551">
        <ele>1424.6</ele>
        <time>2021-05-29T07:05:11Z</time>
      </trkpt>
      <trkpt lat="42.93482" lon="0.31553">
        <ele>1424.6</ele>
        <time>2021-05-29T07:05:12Z</time>
      </trkpt>
      <trkpt lat="42.93481" lon="0.31556">
        <ele>1424.8</ele>
        <time>2021-05-29T07:05:13Z</time>
      </trkpt>
      <trkpt lat="42.93481" lon="0.31558">
        <ele>1425</ele>
        <time>2021-05-29T07:05:14Z</time>
      </trkpt>
      <trkpt lat="42.9348" lon="0.3156">
        <ele>1425</ele>
        <time>2021-05-29T07:05:15Z</time>
      </trkpt>
      <trkpt lat="42.93479" lon="0.31562">
        <ele>1425.2</ele>
        <time>2021-05-29T07:05:16Z</time>
      </trkpt>
      <trkpt lat="42.93479" lon="0.31564">
        <ele>1425.2</ele>
        <time>2021-05-29T07:05:17Z</time>
      </trkpt>
      <trkpt lat="42.93481" lon="0.31567">
        <ele>1425.4</ele>
        <time>2021-05-29T07:05:18Z</time>
      </trkpt>
      <trkpt lat="42.9348" lon="0.31569">
        <ele>1425.4</ele>
        <time>2021-05-29T07:05:19Z</time>
      </trkpt>
      <trkpt lat="42.93478" lon="0.31571">
        <ele>1425.6</ele>
        <time>2021-05-29T07:05:20Z</time>
      </trkpt>
      <trkpt lat="42.93477" lon="0.31573">
        <ele>1425.6</ele>
        <time>2021-05-29T07:05:21Z</time>
      </trkpt>
      <trkpt lat="42.93477" lon="0.31575">
        <ele>1425.8</ele>
        <time>2021-05-29T07:05:22Z</time>
      </trkpt>
      <trkpt lat="42.93477" lon="0.31578">
        <ele>1426</ele>
        <time>2021-05-29T07:05:23Z</time>
      </trkpt>
      <trkpt lat="42.93477" lon="0.3158">
        <ele>1426</ele>
        <time>2021-05-29T07:05:24Z</time>
      </trkpt>
      <trkpt lat="42.93477" lon="0.31581">
        <ele>1426.2</ele>
        <time>2021-05-29T07:05:25Z</time>
      </trkpt>
      <trkpt lat="42.93477" lon="0.31582">
        <ele>1426.4</ele>
        <time>2021-05-29T07:05:26Z</time>
      </trkpt>
      <trkpt lat="42.93477" lon="0.31584">
        <ele>1426.4</ele>
        <time>2021-05-29T07:05:27Z</time>
      </trkpt>
      <trkpt lat="42.93477" lon="0.31587">
        <ele>1426.6</ele>
        <time>2021-05-29T07:05:28Z</time>
      </trkpt>
      <trkpt lat="42.93476" lon="0.31589">
        <ele>1426.6</ele>
        <time>2021-05-29T07:05:29Z</time>
      </trkpt>
      <trkpt lat="42.93475" lon="0.31591">
        <ele>1426.6</ele>
        <time>2021-05-29T07:05:30Z</time>
      </trkpt>
      <trkpt lat="42.93475" lon="0.31594">
        <ele>1426.8</ele>
        <time>2021-05-29T07:05:31Z</time>
      </trkpt>
      <trkpt lat="42.93475" lon="0.31597">
        <ele>1427</ele>
        <time>2021-05-29T07:05:32Z</time>
      </trkpt>
      <trkpt lat="42.93475" lon="0.31599">
        <ele>1427</ele>
        <time>2021-05-29T07:05:33Z</time>
      </trkpt>
      <trkpt lat="42.93475" lon="0.31601">
        <ele>1427.2</ele>
        <time>2021-05-29T07:05:34Z</time>
      </trkpt>
      <trkpt lat="42.93474" lon="0.31604">
        <ele>1427.4</ele>
        <time>2021-05-29T07:05:35Z</time>
      </trkpt>
      <trkpt lat="42.93473" lon="0.31605">
        <ele>1427.6</ele>
        <time>2021-05-29T07:05:36Z</time>
      </trkpt>
      <trkpt lat="42.93477" lon="0.31607">
        <ele>1427.6</ele>
        <time>2021-05-29T07:05:37Z</time>
      </trkpt>
      <trkpt lat="42.93479" lon="0.3161">
        <ele>1427.8</ele>
        <time>2021-05-29T07:05:38Z</time>
      </trkpt>
      <trkpt lat="42.93479" lon="0.31613">
        <ele>1427.8</ele>
        <time>2021-05-29T07:05:39Z</time>
      </trkpt>
      <trkpt lat="42.93479" lon="0.31615">
        <ele>1428</ele>
        <time>2021-05-29T07:05:40Z</time>
      </trkpt>
      <trkpt lat="42.9348" lon="0.31618">
        <ele>1428.4</ele>
        <time>2021-05-29T07:05:41Z</time>
      </trkpt>
      <trkpt lat="42.9348" lon="0.3162">
        <ele>1428.6</ele>
        <time>2021-05-29T07:05:42Z</time>
      </trkpt>
      <trkpt lat="42.93479" lon="0.31622">
        <ele>1429</ele>
        <time>2021-05-29T07:05:43Z</time>
      </trkpt>
      <trkpt lat="42.93478" lon="0.31624">
        <ele>1429</ele>
        <time>2021-05-29T07:05:44Z</time>
      </trkpt>
      <trkpt lat="42.93477" lon="0.31626">
        <ele>1429.2</ele>
        <time>2021-05-29T07:05:45Z</time>
      </trkpt>
      <trkpt lat="42.93476" lon="0.31627">
        <ele>1429.2</ele>
        <time>2021-05-29T07:05:46Z</time>
      </trkpt>
      <trkpt lat="42.93475" lon="0.31629">
        <ele>1429.2</ele>
        <time>2021-05-29T07:05:47Z</time>
      </trkpt>
      <trkpt lat="42.93474" lon="0.3163">
        <ele>1429.4</ele>
        <time>2021-05-29T07:05:48Z</time>
      </trkpt>
      <trkpt lat="42.93473" lon="0.31632">
        <ele>1429.4</ele>
        <time>2021-05-29T07:05:49Z</time>
      </trkpt>
      <trkpt lat="42.93471" lon="0.31634">
        <ele>1429.6</ele>
        <time>2021-05-29T07:05:50Z</time>
      </trkpt>
      <trkpt lat="42.9347" lon="0.31635">
        <ele>1430</ele>
        <time>2021-05-29T07:05:51Z</time>
      </trkpt>
      <trkpt lat="42.93469" lon="0.31637">
        <ele>1430</ele>
        <time>2021-05-29T07:05:52Z</time>
      </trkpt>
      <trkpt lat="42.93469" lon="0.31638">
        <ele>1430.2</ele>
        <time>2021-05-29T07:05:53Z</time>
      </trkpt>
      <trkpt lat="42.93468" lon="0.3164">
        <ele>1430.4</ele>
        <time>2021-05-29T07:05:54Z</time>
      </trkpt>
      <trkpt lat="42.93467" lon="0.31642">
        <ele>1430.8</ele>
        <time>2021-05-29T07:05:55Z</time>
      </trkpt>
      <trkpt lat="42.93466" lon="0.31644">
        <ele>1431</ele>
        <time>2021-05-29T07:05:56Z</time>
      </trkpt>
      <trkpt lat="42.93465" lon="0.31646">
        <ele>1431</ele>
        <time>2021-05-29T07:05:57Z</time>
      </trkpt>
      <trkpt lat="42.93464" lon="0.31648">
        <ele>1431.2</ele>
        <time>2021-05-29T07:05:58Z</time>
      </trkpt>
      <trkpt lat="42.93462" lon="0.3165">
        <ele>1431.2</ele>
        <time>2021-05-29T07:05:59Z</time>
      </trkpt>
      <trkpt lat="42.93461" lon="0.31652">
        <ele>1431.4</ele>
        <time>2021-05-29T07:06:00Z</time>
      </trkpt>
      <trkpt lat="42.93459" lon="0.31654">
        <ele>1431.4</ele>
        <time>2021-05-29T07:06:01Z</time>
      </trkpt>
      <trkpt lat="42.93458" lon="0.31655">
        <ele>1431.4</ele>
        <time>2021-05-29T07:06:02Z</time>
      </trkpt>
      <trkpt lat="42.93456" lon="0.31657">
        <ele>1431.6</ele>
        <time>2021-05-29T07:06:03Z</time>
      </trkpt>
      <trkpt lat="42.93455" lon="0.31658">
        <ele>1431.6</ele>
        <time>2021-05-29T07:06:04Z</time>
      </trkpt>
      <trkpt lat="42.93452" lon="0.3166">
        <ele>1431.6</ele>
        <time>2021-05-29T07:06:05Z</time>
      </trkpt>
      <trkpt lat="42.93451" lon="0.31663">
        <ele>1431.8</ele>
        <time>2021-05-29T07:06:06Z</time>
      </trkpt>
      <trkpt lat="42.93451" lon="0.31664">
        <ele>1431.8</ele>
        <time>2021-05-29T07:06:07Z</time>
      </trkpt>
      <trkpt lat="42.9345" lon="0.31668">
        <ele>1432</ele>
        <time>2021-05-29T07:06:08Z</time>
      </trkpt>
      <trkpt lat="42.9345" lon="0.3167">
        <ele>1432.2</ele>
        <time>2021-05-29T07:06:09Z</time>
      </trkpt>
      <trkpt lat="42.9345" lon="0.31671">
        <ele>1432.4</ele>
        <time>2021-05-29T07:06:10Z</time>
      </trkpt>
      <trkpt lat="42.93449" lon="0.31673">
        <ele>1432.6</ele>
        <time>2021-05-29T07:06:11Z</time>
      </trkpt>
      <trkpt lat="42.93449" lon="0.31675">
        <ele>1432.6</ele>
        <time>2021-05-29T07:06:12Z</time>
      </trkpt>
      <trkpt lat="42.93449" lon="0.31676">
        <ele>1432.8</ele>
        <time>2021-05-29T07:06:13Z</time>
      </trkpt>
      <trkpt lat="42.93448" lon="0.31677">
        <ele>1433</ele>
        <time>2021-05-29T07:06:14Z</time>
      </trkpt>
      <trkpt lat="42.93449" lon="0.31678">
        <ele>1433.2</ele>
        <time>2021-05-29T07:06:15Z</time>
      </trkpt>
      <trkpt lat="42.9345" lon="0.31679">
        <ele>1433</ele>
        <time>2021-05-29T07:06:16Z</time>
      </trkpt>
      <trkpt lat="42.93452" lon="0.3168">
        <ele>1433.2</ele>
        <time>2021-05-29T07:06:17Z</time>
      </trkpt>
      <trkpt lat="42.93453" lon="0.31682">
        <ele>1433.2</ele>
        <time>2021-05-29T07:06:18Z</time>
      </trkpt>
      <trkpt lat="42.93455" lon="0.31683">
        <ele>1433.6</ele>
        <time>2021-05-29T07:06:19Z</time>
      </trkpt>
      <trkpt lat="42.93455" lon="0.31684">
        <ele>1433.8</ele>
        <time>2021-05-29T07:06:20Z</time>
      </trkpt>
      <trkpt lat="42.93454" lon="0.31684">
        <ele>1433.8</ele>
        <time>2021-05-29T07:06:21Z</time>
      </trkpt>
      <trkpt lat="42.93454" lon="0.31684">
        <ele>1434</ele>
        <time>2021-05-29T07:06:22Z</time>
      </trkpt>
      <trkpt lat="42.93454" lon="0.31684">
        <ele>1434.2</ele>
        <time>2021-05-29T07:06:23Z</time>
      </trkpt>
      <trkpt lat="42.93455" lon="0.31685">
        <ele>1434.2</ele>
        <time>2021-05-29T07:06:24Z</time>
      </trkpt>
      <trkpt lat="42.93454" lon="0.31687">
        <ele>1434.2</ele>
        <time>2021-05-29T07:06:25Z</time>
      </trkpt>
      <trkpt lat="42.93454" lon="0.31688">
        <ele>1434.6</ele>
        <time>2021-05-29T07:06:26Z</time>
      </trkpt>
      <trkpt lat="42.93454" lon="0.31689">
        <ele>1434.8</ele>
        <time>2021-05-29T07:06:27Z</time>
      </trkpt>
      <trkpt lat="42.93454" lon="0.3169">
        <ele>1435</ele>
        <time>2021-05-29T07:06:28Z</time>
      </trkpt>
      <trkpt lat="42.93454" lon="0.31692">
        <ele>1435.2</ele>
        <time>2021-05-29T07:06:29Z</time>
      </trkpt>
      <trkpt lat="42.93457" lon="0.31693">
        <ele>1435.4</ele>
        <time>2021-05-29T07:06:30Z</time>
      </trkpt>
      <trkpt lat="42.93456" lon="0.31695">
        <ele>1435.6</ele>
        <time>2021-05-29T07:06:31Z</time>
      </trkpt>
      <trkpt lat="42.93454" lon="0.31698">
        <ele>1435.8</ele>
        <time>2021-05-29T07:06:32Z</time>
      </trkpt>
      <trkpt lat="42.93456" lon="0.317">
        <ele>1436</ele>
        <time>2021-05-29T07:06:33Z</time>
      </trkpt>
      <trkpt lat="42.93456" lon="0.31701">
        <ele>1436.4</ele>
        <time>2021-05-29T07:06:34Z</time>
      </trkpt>
      <trkpt lat="42.93456" lon="0.31701">
        <ele>1436.6</ele>
        <time>2021-05-29T07:06:35Z</time>
      </trkpt>
      <trkpt lat="42.93457" lon="0.31702">
        <ele>1436.8</ele>
        <time>2021-05-29T07:06:36Z</time>
      </trkpt>
      <trkpt lat="42.93459" lon="0.31705">
        <ele>1437</ele>
        <time>2021-05-29T07:06:37Z</time>
      </trkpt>
      <trkpt lat="42.9346" lon="0.31706">
        <ele>1437.2</ele>
        <time>2021-05-29T07:06:38Z</time>
      </trkpt>
      <trkpt lat="42.9346" lon="0.31706">
        <ele>1437.2</ele>
        <time>2021-05-29T07:06:39Z</time>
      </trkpt>
      <trkpt lat="42.9346" lon="0.31706">
        <ele>1437.4</ele>
        <time>2021-05-29T07:06:40Z</time>
      </trkpt>
      <trkpt lat="42.93461" lon="0.31708">
        <ele>1437.4</ele>
        <time>2021-05-29T07:06:41Z</time>
      </trkpt>
      <trkpt lat="42.93464" lon="0.31711">
        <ele>1437.6</ele>
        <time>2021-05-29T07:06:42Z</time>
      </trkpt>
      <trkpt lat="42.93466" lon="0.31715">
        <ele>1437.8</ele>
        <time>2021-05-29T07:06:43Z</time>
      </trkpt>
      <trkpt lat="42.93466" lon="0.31716">
        <ele>1438</ele>
        <time>2021-05-29T07:06:44Z</time>
      </trkpt>
      <trkpt lat="42.93465" lon="0.31718">
        <ele>1438</ele>
        <time>2021-05-29T07:06:45Z</time>
      </trkpt>
      <trkpt lat="42.93465" lon="0.31718">
        <ele>1438</ele>
        <time>2021-05-29T07:06:46Z</time>
      </trkpt>
      <trkpt lat="42.93466" lon="0.3172">
        <ele>1438.2</ele>
        <time>2021-05-29T07:06:47Z</time>
      </trkpt>
      <trkpt lat="42.93467" lon="0.31723">
        <ele>1438.2</ele>
        <time>2021-05-29T07:06:48Z</time>
      </trkpt>
      <trkpt lat="42.9347" lon="0.31728">
        <ele>1438.4</ele>
        <time>2021-05-29T07:06:49Z</time>
      </trkpt>
      <trkpt lat="42.93468" lon="0.31732">
        <ele>1438.6</ele>
        <time>2021-05-29T07:06:50Z</time>
      </trkpt>
      <trkpt lat="42.93466" lon="0.31736">
        <ele>1438.8</ele>
        <time>2021-05-29T07:06:51Z</time>
      </trkpt>
      <trkpt lat="42.93461" lon="0.31741">
        <ele>1438.8</ele>
        <time>2021-05-29T07:06:52Z</time>
      </trkpt>
      <trkpt lat="42.93453" lon="0.31746">
        <ele>1439</ele>
        <time>2021-05-29T07:06:53Z</time>
      </trkpt>
      <trkpt lat="42.93451" lon="0.31751">
        <ele>1439.2</ele>
        <time>2021-05-29T07:06:54Z</time>
      </trkpt>
      <trkpt lat="42.93451" lon="0.31752">
        <ele>1439.4</ele>
        <time>2021-05-29T07:06:55Z</time>
      </trkpt>
      <trkpt lat="42.93453" lon="0.31754">
        <ele>1439.4</ele>
        <time>2021-05-29T07:06:56Z</time>
      </trkpt>
      <trkpt lat="42.93457" lon="0.31757">
        <ele>1439.6</ele>
        <time>2021-05-29T07:06:57Z</time>
      </trkpt>
      <trkpt lat="42.9346" lon="0.31761">
        <ele>1439.6</ele>
        <time>2021-05-29T07:06:58Z</time>
      </trkpt>
      <trkpt lat="42.9346" lon="0.31762">
        <ele>1440</ele>
        <time>2021-05-29T07:06:59Z</time>
      </trkpt>
      <trkpt lat="42.93463" lon="0.31762">
        <ele>1440</ele>
        <time>2021-05-29T07:07:00Z</time>
      </trkpt>
      <trkpt lat="42.93466" lon="0.31764">
        <ele>1440.2</ele>
        <time>2021-05-29T07:07:01Z</time>
      </trkpt>
      <trkpt lat="42.93469" lon="0.31765">
        <ele>1440.4</ele>
        <time>2021-05-29T07:07:02Z</time>
      </trkpt>
      <trkpt lat="42.93474" lon="0.31766">
        <ele>1440.4</ele>
        <time>2021-05-29T07:07:03Z</time>
      </trkpt>
      <trkpt lat="42.93478" lon="0.31768">
        <ele>1440.6</ele>
        <time>2021-05-29T07:07:04Z</time>
      </trkpt>
      <trkpt lat="42.93483" lon="0.31769">
        <ele>1440.8</ele>
        <time>2021-05-29T07:07:05Z</time>
      </trkpt>
      <trkpt lat="42.93488" lon="0.3177">
        <ele>1440.8</ele>
        <time>2021-05-29T07:07:06Z</time>
      </trkpt>
      <trkpt lat="42.93491" lon="0.31772">
        <ele>1440.8</ele>
        <time>2021-05-29T07:07:07Z</time>
      </trkpt>
      <trkpt lat="42.93491" lon="0.31774">
        <ele>1441</ele>
        <time>2021-05-29T07:07:08Z</time>
      </trkpt>
      <trkpt lat="42.9349" lon="0.31776">
        <ele>1441</ele>
        <time>2021-05-29T07:07:09Z</time>
      </trkpt>
      <trkpt lat="42.93491" lon="0.31778">
        <ele>1441</ele>
        <time>2021-05-29T07:07:10Z</time>
      </trkpt>
      <trkpt lat="42.93491" lon="0.3178">
        <ele>1441.2</ele>
        <time>2021-05-29T07:07:11Z</time>
      </trkpt>
      <trkpt lat="42.93488" lon="0.31784">
        <ele>1441.4</ele>
        <time>2021-05-29T07:07:12Z</time>
      </trkpt>
      <trkpt lat="42.93487" lon="0.31788">
        <ele>1441.6</ele>
        <time>2021-05-29T07:07:13Z</time>
      </trkpt>
      <trkpt lat="42.93484" lon="0.3179">
        <ele>1441.6</ele>
        <time>2021-05-29T07:07:14Z</time>
      </trkpt>
      <trkpt lat="42.93483" lon="0.31793">
        <ele>1441.8</ele>
        <time>2021-05-29T07:07:15Z</time>
      </trkpt>
      <trkpt lat="42.93483" lon="0.31795">
        <ele>1441.8</ele>
        <time>2021-05-29T07:07:16Z</time>
      </trkpt>
      <trkpt lat="42.93484" lon="0.31798">
        <ele>1442</ele>
        <time>2021-05-29T07:07:17Z</time>
      </trkpt>
      <trkpt lat="42.93483" lon="0.31799">
        <ele>1442</ele>
        <time>2021-05-29T07:07:18Z</time>
      </trkpt>
      <trkpt lat="42.93482" lon="0.31801">
        <ele>1442</ele>
        <time>2021-05-29T07:07:19Z</time>
      </trkpt>
      <trkpt lat="42.93482" lon="0.31803">
        <ele>1442.2</ele>
        <time>2021-05-29T07:07:20Z</time>
      </trkpt>
      <trkpt lat="42.93482" lon="0.31805">
        <ele>1442.4</ele>
        <time>2021-05-29T07:07:21Z</time>
      </trkpt>
      <trkpt lat="42.93484" lon="0.31807">
        <ele>1442.4</ele>
        <time>2021-05-29T07:07:22Z</time>
      </trkpt>
      <trkpt lat="42.93485" lon="0.31809">
        <ele>1442.6</ele>
        <time>2021-05-29T07:07:23Z</time>
      </trkpt>
      <trkpt lat="42.93486" lon="0.3181">
        <ele>1442.6</ele>
        <time>2021-05-29T07:07:24Z</time>
      </trkpt>
      <trkpt lat="42.93486" lon="0.31811">
        <ele>1442.8</ele>
        <time>2021-05-29T07:07:25Z</time>
      </trkpt>
      <trkpt lat="42.93487" lon="0.31812">
        <ele>1442.8</ele>
        <time>2021-05-29T07:07:26Z</time>
      </trkpt>
      <trkpt lat="42.93487" lon="0.31813">
        <ele>1443</ele>
        <time>2021-05-29T07:07:27Z</time>
      </trkpt>
      <trkpt lat="42.93487" lon="0.31813">
        <ele>1443</ele>
        <time>2021-05-29T07:07:28Z</time>
      </trkpt>
      <trkpt lat="42.93488" lon="0.31814">
        <ele>1443</ele>
        <time>2021-05-29T07:07:29Z</time>
      </trkpt>
      <trkpt lat="42.93489" lon="0.31816">
        <ele>1443.2</ele>
        <time>2021-05-29T07:07:30Z</time>
      </trkpt>
      <trkpt lat="42.93489" lon="0.31818">
        <ele>1443.2</ele>
        <time>2021-05-29T07:07:31Z</time>
      </trkpt>
      <trkpt lat="42.93489" lon="0.31819">
        <ele>1443.4</ele>
        <time>2021-05-29T07:07:32Z</time>
      </trkpt>
      <trkpt lat="42.93491" lon="0.3182">
        <ele>1443.6</ele>
        <time>2021-05-29T07:07:33Z</time>
      </trkpt>
      <trkpt lat="42.93492" lon="0.31821">
        <ele>1443.8</ele>
        <time>2021-05-29T07:07:34Z</time>
      </trkpt>
      <trkpt lat="42.93493" lon="0.31822">
        <ele>1444</ele>
        <time>2021-05-29T07:07:35Z</time>
      </trkpt>
      <trkpt lat="42.93495" lon="0.31824">
        <ele>1444</ele>
        <time>2021-05-29T07:07:36Z</time>
      </trkpt>
      <trkpt lat="42.93496" lon="0.31826">
        <ele>1444.2</ele>
        <time>2021-05-29T07:07:37Z</time>
      </trkpt>
      <trkpt lat="42.93498" lon="0.31827">
        <ele>1444.4</ele>
        <time>2021-05-29T07:07:38Z</time>
      </trkpt>
      <trkpt lat="42.935" lon="0.31829">
        <ele>1444.4</ele>
        <time>2021-05-29T07:07:39Z</time>
      </trkpt>
      <trkpt lat="42.93504" lon="0.3183">
        <ele>1444.6</ele>
        <time>2021-05-29T07:07:40Z</time>
      </trkpt>
      <trkpt lat="42.93506" lon="0.31831">
        <ele>1444.8</ele>
        <time>2021-05-29T07:07:41Z</time>
      </trkpt>
      <trkpt lat="42.93507" lon="0.31833">
        <ele>1444.8</ele>
        <time>2021-05-29T07:07:42Z</time>
      </trkpt>
      <trkpt lat="42.93512" lon="0.31835">
        <ele>1445.2</ele>
        <time>2021-05-29T07:07:43Z</time>
      </trkpt>
      <trkpt lat="42.93515" lon="0.31837">
        <ele>1445.2</ele>
        <time>2021-05-29T07:07:44Z</time>
      </trkpt>
      <trkpt lat="42.93516" lon="0.31838">
        <ele>1445.4</ele>
        <time>2021-05-29T07:07:45Z</time>
      </trkpt>
      <trkpt lat="42.93515" lon="0.31839">
        <ele>1445.6</ele>
        <time>2021-05-29T07:07:46Z</time>
      </trkpt>
      <trkpt lat="42.93514" lon="0.3184">
        <ele>1445.8</ele>
        <time>2021-05-29T07:07:47Z</time>
      </trkpt>
      <trkpt lat="42.93514" lon="0.31841">
        <ele>1445.8</ele>
        <time>2021-05-29T07:07:48Z</time>
      </trkpt>
      <trkpt lat="42.93515" lon="0.31843">
        <ele>1446</ele>
        <time>2021-05-29T07:07:49Z</time>
      </trkpt>
      <trkpt lat="42.93516" lon="0.31844">
        <ele>1446.2</ele>
        <time>2021-05-29T07:07:50Z</time>
      </trkpt>
      <trkpt lat="42.93516" lon="0.31846">
        <ele>1446.4</ele>
        <time>2021-05-29T07:07:51Z</time>
      </trkpt>
      <trkpt lat="42.93517" lon="0.31847">
        <ele>1446.6</ele>
        <time>2021-05-29T07:07:52Z</time>
      </trkpt>
      <trkpt lat="42.93518" lon="0.31848">
        <ele>1446.8</ele>
        <time>2021-05-29T07:07:53Z</time>
      </trkpt>
      <trkpt lat="42.93519" lon="0.3185">
        <ele>1446.8</ele>
        <time>2021-05-29T07:07:54Z</time>
      </trkpt>
      <trkpt lat="42.93521" lon="0.31852">
        <ele>1447</ele>
        <time>2021-05-29T07:07:55Z</time>
      </trkpt>
      <trkpt lat="42.93521" lon="0.31854">
        <ele>1447</ele>
        <time>2021-05-29T07:07:56Z</time>
      </trkpt>
      <trkpt lat="42.93522" lon="0.31855">
        <ele>1447.2</ele>
        <time>2021-05-29T07:07:57Z</time>
      </trkpt>
      <trkpt lat="42.93522" lon="0.31857">
        <ele>1447.2</ele>
        <time>2021-05-29T07:07:58Z</time>
      </trkpt>
      <trkpt lat="42.93522" lon="0.31859">
        <ele>1447.4</ele>
        <time>2021-05-29T07:07:59Z</time>
      </trkpt>
      <trkpt lat="42.93522" lon="0.31861">
        <ele>1447.6</ele>
        <time>2021-05-29T07:08:00Z</time>
      </trkpt>
      <trkpt lat="42.93523" lon="0.31862">
        <ele>1447.8</ele>
        <time>2021-05-29T07:08:01Z</time>
      </trkpt>
      <trkpt lat="42.93524" lon="0.31864">
        <ele>1448</ele>
        <time>2021-05-29T07:08:02Z</time>
      </trkpt>
      <trkpt lat="42.93525" lon="0.31865">
        <ele>1448</ele>
        <time>2021-05-29T07:08:03Z</time>
      </trkpt>
      <trkpt lat="42.93525" lon="0.31866">
        <ele>1448</ele>
        <time>2021-05-29T07:08:04Z</time>
      </trkpt>
      <trkpt lat="42.93525" lon="0.31867">
        <ele>1448</ele>
        <time>2021-05-29T07:08:05Z</time>
      </trkpt>
      <trkpt lat="42.93526" lon="0.31869">
        <ele>1448.2</ele>
        <time>2021-05-29T07:08:06Z</time>
      </trkpt>
      <trkpt lat="42.93526" lon="0.31871">
        <ele>1448.2</ele>
        <time>2021-05-29T07:08:07Z</time>
      </trkpt>
      <trkpt lat="42.93527" lon="0.31874">
        <ele>1448.4</ele>
        <time>2021-05-29T07:08:08Z</time>
      </trkpt>
      <trkpt lat="42.93527" lon="0.31876">
        <ele>1448.6</ele>
        <time>2021-05-29T07:08:09Z</time>
      </trkpt>
      <trkpt lat="42.93528" lon="0.31878">
        <ele>1448.6</ele>
        <time>2021-05-29T07:08:10Z</time>
      </trkpt>
      <trkpt lat="42.93528" lon="0.3188">
        <ele>1448.6</ele>
        <time>2021-05-29T07:08:11Z</time>
      </trkpt>
      <trkpt lat="42.93529" lon="0.31882">
        <ele>1448.8</ele>
        <time>2021-05-29T07:08:12Z</time>
      </trkpt>
      <trkpt lat="42.93529" lon="0.31884">
        <ele>1449</ele>
        <time>2021-05-29T07:08:13Z</time>
      </trkpt>
      <trkpt lat="42.9353" lon="0.31886">
        <ele>1449</ele>
        <time>2021-05-29T07:08:14Z</time>
      </trkpt>
      <trkpt lat="42.93532" lon="0.31889">
        <ele>1449.2</ele>
        <time>2021-05-29T07:08:15Z</time>
      </trkpt>
      <trkpt lat="42.93533" lon="0.31891">
        <ele>1449.4</ele>
        <time>2021-05-29T07:08:16Z</time>
      </trkpt>
      <trkpt lat="42.93534" lon="0.31893">
        <ele>1449.4</ele>
        <time>2021-05-29T07:08:17Z</time>
      </trkpt>
      <trkpt lat="42.93535" lon="0.31895">
        <ele>1449.4</ele>
        <time>2021-05-29T07:08:18Z</time>
      </trkpt>
      <trkpt lat="42.93536" lon="0.31897">
        <ele>1449.6</ele>
        <time>2021-05-29T07:08:19Z</time>
      </trkpt>
      <trkpt lat="42.93538" lon="0.319">
        <ele>1449.6</ele>
        <time>2021-05-29T07:08:20Z</time>
      </trkpt>
      <trkpt lat="42.93539" lon="0.31902">
        <ele>1449.8</ele>
        <time>2021-05-29T07:08:21Z</time>
      </trkpt>
      <trkpt lat="42.9354" lon="0.31904">
        <ele>1450</ele>
        <time>2021-05-29T07:08:22Z</time>
      </trkpt>
      <trkpt lat="42.93542" lon="0.31906">
        <ele>1450</ele>
        <time>2021-05-29T07:08:23Z</time>
      </trkpt>
      <trkpt lat="42.93544" lon="0.31907">
        <ele>1450</ele>
        <time>2021-05-29T07:08:24Z</time>
      </trkpt>
      <trkpt lat="42.93547" lon="0.31908">
        <ele>1450.2</ele>
        <time>2021-05-29T07:08:25Z</time>
      </trkpt>
      <trkpt lat="42.93549" lon="0.3191">
        <ele>1450.2</ele>
        <time>2021-05-29T07:08:26Z</time>
      </trkpt>
      <trkpt lat="42.93553" lon="0.31912">
        <ele>1450.4</ele>
        <time>2021-05-29T07:08:27Z</time>
      </trkpt>
      <trkpt lat="42.93554" lon="0.31915">
        <ele>1450.4</ele>
        <time>2021-05-29T07:08:28Z</time>
      </trkpt>
      <trkpt lat="42.93554" lon="0.31919">
        <ele>1450.4</ele>
        <time>2021-05-29T07:08:29Z</time>
      </trkpt>
      <trkpt lat="42.93556" lon="0.31923">
        <ele>1450.6</ele>
        <time>2021-05-29T07:08:30Z</time>
      </trkpt>
      <trkpt lat="42.93554" lon="0.31926">
        <ele>1450.8</ele>
        <time>2021-05-29T07:08:31Z</time>
      </trkpt>
      <trkpt lat="42.93555" lon="0.31929">
        <ele>1450.8</ele>
        <time>2021-05-29T07:08:32Z</time>
      </trkpt>
      <trkpt lat="42.93556" lon="0.31932">
        <ele>1450.8</ele>
        <time>2021-05-29T07:08:33Z</time>
      </trkpt>
      <trkpt lat="42.93557" lon="0.31933">
        <ele>1451</ele>
        <time>2021-05-29T07:08:34Z</time>
      </trkpt>
      <trkpt lat="42.93559" lon="0.31936">
        <ele>1451</ele>
        <time>2021-05-29T07:08:35Z</time>
      </trkpt>
      <trkpt lat="42.9356" lon="0.31939">
        <ele>1451.2</ele>
        <time>2021-05-29T07:08:36Z</time>
      </trkpt>
      <trkpt lat="42.93564" lon="0.31948">
        <ele>1451.4</ele>
        <time>2021-05-29T07:08:39Z</time>
      </trkpt>
      <trkpt lat="42.93565" lon="0.31949">
        <ele>1451.6</ele>
        <time>2021-05-29T07:08:40Z</time>
      </trkpt>
      <trkpt lat="42.93566" lon="0.31951">
        <ele>1451.6</ele>
        <time>2021-05-29T07:08:41Z</time>
      </trkpt>
      <trkpt lat="42.93568" lon="0.31956">
        <ele>1451.6</ele>
        <time>2021-05-29T07:08:43Z</time>
      </trkpt>
      <trkpt lat="42.93573" lon="0.31963">
        <ele>1451.8</ele>
        <time>2021-05-29T07:08:46Z</time>
      </trkpt>
      <trkpt lat="42.93574" lon="0.31969">
        <ele>1451.8</ele>
        <time>2021-05-29T07:08:48Z</time>
      </trkpt>
      <trkpt lat="42.93574" lon="0.31972">
        <ele>1451.8</ele>
        <time>2021-05-29T07:08:49Z</time>
      </trkpt>
      <trkpt lat="42.93575" lon="0.31975">
        <ele>1451.8</ele>
        <time>2021-05-29T07:08:50Z</time>
      </trkpt>
      <trkpt lat="42.93577" lon="0.31977">
        <ele>1451.8</ele>
        <time>2021-05-29T07:08:51Z</time>
      </trkpt>
      <trkpt lat="42.93579" lon="0.3198">
        <ele>1452</ele>
        <time>2021-05-29T07:08:53Z</time>
      </trkpt>
      <trkpt lat="42.93581" lon="0.31982">
        <ele>1452</ele>
        <time>2021-05-29T07:08:54Z</time>
      </trkpt>
      <trkpt lat="42.93584" lon="0.31984">
        <ele>1452</ele>
        <time>2021-05-29T07:08:55Z</time>
      </trkpt>
      <trkpt lat="42.93586" lon="0.31985">
        <ele>1452</ele>
        <time>2021-05-29T07:08:56Z</time>
      </trkpt>
      <trkpt lat="42.93594" lon="0.31991">
        <ele>1452.4</ele>
        <time>2021-05-29T07:08:59Z</time>
      </trkpt>
      <trkpt lat="42.93597" lon="0.31993">
        <ele>1452.4</ele>
        <time>2021-05-29T07:09:00Z</time>
      </trkpt>
      <trkpt lat="42.93604" lon="0.31999">
        <ele>1452.6</ele>
        <time>2021-05-29T07:09:03Z</time>
      </trkpt>
      <trkpt lat="42.93606" lon="0.32002">
        <ele>1452.6</ele>
        <time>2021-05-29T07:09:04Z</time>
      </trkpt>
      <trkpt lat="42.93609" lon="0.32003">
        <ele>1452.4</ele>
        <time>2021-05-29T07:09:05Z</time>
      </trkpt>
      <trkpt lat="42.9361" lon="0.32004">
        <ele>1452.6</ele>
        <time>2021-05-29T07:09:06Z</time>
      </trkpt>
      <trkpt lat="42.93612" lon="0.32005">
        <ele>1452.6</ele>
        <time>2021-05-29T07:09:07Z</time>
      </trkpt>
      <trkpt lat="42.93614" lon="0.32007">
        <ele>1452.6</ele>
        <time>2021-05-29T07:09:08Z</time>
      </trkpt>
      <trkpt lat="42.93617" lon="0.32009">
        <ele>1452.8</ele>
        <time>2021-05-29T07:09:10Z</time>
      </trkpt>
      <trkpt lat="42.93619" lon="0.32011">
        <ele>1452.8</ele>
        <time>2021-05-29T07:09:11Z</time>
      </trkpt>
      <trkpt lat="42.93621" lon="0.32013">
        <ele>1452.8</ele>
        <time>2021-05-29T07:09:12Z</time>
      </trkpt>
      <trkpt lat="42.93622" lon="0.32015">
        <ele>1453</ele>
        <time>2021-05-29T07:09:13Z</time>
      </trkpt>
      <trkpt lat="42.93624" lon="0.32015">
        <ele>1453</ele>
        <time>2021-05-29T07:09:14Z</time>
      </trkpt>
      <trkpt lat="42.93625" lon="0.32017">
        <ele>1453.2</ele>
        <time>2021-05-29T07:09:15Z</time>
      </trkpt>
      <trkpt lat="42.93626" lon="0.32019">
        <ele>1453.2</ele>
        <time>2021-05-29T07:09:16Z</time>
      </trkpt>
      <trkpt lat="42.93627" lon="0.3202">
        <ele>1453.4</ele>
        <time>2021-05-29T07:09:17Z</time>
      </trkpt>
      <trkpt lat="42.93631" lon="0.32022">
        <ele>1453.6</ele>
        <time>2021-05-29T07:09:19Z</time>
      </trkpt>
      <trkpt lat="42.93633" lon="0.32023">
        <ele>1453.8</ele>
        <time>2021-05-29T07:09:20Z</time>
      </trkpt>
      <trkpt lat="42.93635" lon="0.32024">
        <ele>1454</ele>
        <time>2021-05-29T07:09:21Z</time>
      </trkpt>
      <trkpt lat="42.93641" lon="0.32025">
        <ele>1454.2</ele>
        <time>2021-05-29T07:09:23Z</time>
      </trkpt>
      <trkpt lat="42.93645" lon="0.32024">
        <ele>1454.4</ele>
        <time>2021-05-29T07:09:25Z</time>
      </trkpt>
      <trkpt lat="42.93647" lon="0.32022">
        <ele>1454.6</ele>
        <time>2021-05-29T07:09:26Z</time>
      </trkpt>
      <trkpt lat="42.93649" lon="0.32021">
        <ele>1454.6</ele>
        <time>2021-05-29T07:09:27Z</time>
      </trkpt>
      <trkpt lat="42.93651" lon="0.32019">
        <ele>1454.8</ele>
        <time>2021-05-29T07:09:28Z</time>
      </trkpt>
      <trkpt lat="42.9366" lon="0.32016">
        <ele>1455.2</ele>
        <time>2021-05-29T07:09:32Z</time>
      </trkpt>
      <trkpt lat="42.93663" lon="0.32016">
        <ele>1455.4</ele>
        <time>2021-05-29T07:09:33Z</time>
      </trkpt>
      <trkpt lat="42.93664" lon="0.32016">
        <ele>1455.4</ele>
        <time>2021-05-29T07:09:34Z</time>
      </trkpt>
      <trkpt lat="42.93665" lon="0.32015">
        <ele>1455.6</ele>
        <time>2021-05-29T07:09:35Z</time>
      </trkpt>
      <trkpt lat="42.93666" lon="0.32013">
        <ele>1455.6</ele>
        <time>2021-05-29T07:09:36Z</time>
      </trkpt>
      <trkpt lat="42.93668" lon="0.32012">
        <ele>1455.6</ele>
        <time>2021-05-29T07:09:37Z</time>
      </trkpt>
      <trkpt lat="42.93669" lon="0.32012">
        <ele>1455.6</ele>
        <time>2021-05-29T07:09:38Z</time>
      </trkpt>
      <trkpt lat="42.9367" lon="0.32012">
        <ele>1455.8</ele>
        <time>2021-05-29T07:09:39Z</time>
      </trkpt>
      <trkpt lat="42.93671" lon="0.32012">
        <ele>1455.8</ele>
        <time>2021-05-29T07:09:40Z</time>
      </trkpt>
      <trkpt lat="42.93672" lon="0.32011">
        <ele>1456</ele>
        <time>2021-05-29T07:09:41Z</time>
      </trkpt>
      <trkpt lat="42.93673" lon="0.32012">
        <ele>1456</ele>
        <time>2021-05-29T07:09:42Z</time>
      </trkpt>
      <trkpt lat="42.93675" lon="0.32011">
        <ele>1456.2</ele>
        <time>2021-05-29T07:09:43Z</time>
      </trkpt>
      <trkpt lat="42.93676" lon="0.32011">
        <ele>1456.2</ele>
        <time>2021-05-29T07:09:44Z</time>
      </trkpt>
      <trkpt lat="42.93678" lon="0.32011">
        <ele>1456.6</ele>
        <time>2021-05-29T07:09:45Z</time>
      </trkpt>
      <trkpt lat="42.9368" lon="0.3201">
        <ele>1456.6</ele>
        <time>2021-05-29T07:09:46Z</time>
      </trkpt>
      <trkpt lat="42.93682" lon="0.3201">
        <ele>1456.8</ele>
        <time>2021-05-29T07:09:47Z</time>
      </trkpt>
      <trkpt lat="42.93684" lon="0.3201">
        <ele>1456.8</ele>
        <time>2021-05-29T07:09:48Z</time>
      </trkpt>
      <trkpt lat="42.93686" lon="0.32009">
        <ele>1456.8</ele>
        <time>2021-05-29T07:09:49Z</time>
      </trkpt>
      <trkpt lat="42.93688" lon="0.32007">
        <ele>1457</ele>
        <time>2021-05-29T07:09:50Z</time>
      </trkpt>
      <trkpt lat="42.9369" lon="0.32006">
        <ele>1457.2</ele>
        <time>2021-05-29T07:09:51Z</time>
      </trkpt>
      <trkpt lat="42.93692" lon="0.32006">
        <ele>1457.2</ele>
        <time>2021-05-29T07:09:52Z</time>
      </trkpt>
      <trkpt lat="42.93694" lon="0.32006">
        <ele>1457.4</ele>
        <time>2021-05-29T07:09:53Z</time>
      </trkpt>
      <trkpt lat="42.93696" lon="0.32006">
        <ele>1457.6</ele>
        <time>2021-05-29T07:09:54Z</time>
      </trkpt>
      <trkpt lat="42.93696" lon="0.32006">
        <ele>1457.6</ele>
        <time>2021-05-29T07:09:55Z</time>
      </trkpt>
      <trkpt lat="42.93698" lon="0.32005">
        <ele>1457.8</ele>
        <time>2021-05-29T07:09:56Z</time>
      </trkpt>
      <trkpt lat="42.93701" lon="0.32004">
        <ele>1457.8</ele>
        <time>2021-05-29T07:09:57Z</time>
      </trkpt>
      <trkpt lat="42.93703" lon="0.32002">
        <ele>1458</ele>
        <time>2021-05-29T07:09:58Z</time>
      </trkpt>
      <trkpt lat="42.93705" lon="0.32001">
        <ele>1458.2</ele>
        <time>2021-05-29T07:09:59Z</time>
      </trkpt>
      <trkpt lat="42.93708" lon="0.31999">
        <ele>1458.2</ele>
        <time>2021-05-29T07:10:00Z</time>
      </trkpt>
      <trkpt lat="42.9371" lon="0.31999">
        <ele>1458.4</ele>
        <time>2021-05-29T07:10:01Z</time>
      </trkpt>
      <trkpt lat="42.93713" lon="0.31998">
        <ele>1458.6</ele>
        <time>2021-05-29T07:10:02Z</time>
      </trkpt>
      <trkpt lat="42.93716" lon="0.31996">
        <ele>1458.6</ele>
        <time>2021-05-29T07:10:03Z</time>
      </trkpt>
      <trkpt lat="42.93719" lon="0.31995">
        <ele>1458.8</ele>
        <time>2021-05-29T07:10:04Z</time>
      </trkpt>
      <trkpt lat="42.93721" lon="0.31995">
        <ele>1458.8</ele>
        <time>2021-05-29T07:10:06Z</time>
      </trkpt>
      <trkpt lat="42.93724" lon="0.31995">
        <ele>1459</ele>
        <time>2021-05-29T07:10:07Z</time>
      </trkpt>
      <trkpt lat="42.93727" lon="0.31995">
        <ele>1459</ele>
        <time>2021-05-29T07:10:08Z</time>
      </trkpt>
      <trkpt lat="42.93729" lon="0.31995">
        <ele>1459</ele>
        <time>2021-05-29T07:10:09Z</time>
      </trkpt>
      <trkpt lat="42.93732" lon="0.31996">
        <ele>1459.2</ele>
        <time>2021-05-29T07:10:10Z</time>
      </trkpt>
      <trkpt lat="42.93735" lon="0.31996">
        <ele>1459.4</ele>
        <time>2021-05-29T07:10:11Z</time>
      </trkpt>
      <trkpt lat="42.93738" lon="0.31996">
        <ele>1459.4</ele>
        <time>2021-05-29T07:10:12Z</time>
      </trkpt>
      <trkpt lat="42.9374" lon="0.31997">
        <ele>1459.6</ele>
        <time>2021-05-29T07:10:13Z</time>
      </trkpt>
      <trkpt lat="42.93742" lon="0.31998">
        <ele>1459.6</ele>
        <time>2021-05-29T07:10:14Z</time>
      </trkpt>
      <trkpt lat="42.93744" lon="0.31999">
        <ele>1459.6</ele>
        <time>2021-05-29T07:10:15Z</time>
      </trkpt>
      <trkpt lat="42.93746" lon="0.31998">
        <ele>1459.8</ele>
        <time>2021-05-29T07:10:16Z</time>
      </trkpt>
      <trkpt lat="42.93749" lon="0.31996">
        <ele>1460</ele>
        <time>2021-05-29T07:10:17Z</time>
      </trkpt>
      <trkpt lat="42.93752" lon="0.31996">
        <ele>1460</ele>
        <time>2021-05-29T07:10:18Z</time>
      </trkpt>
      <trkpt lat="42.93754" lon="0.31996">
        <ele>1460</ele>
        <time>2021-05-29T07:10:19Z</time>
      </trkpt>
      <trkpt lat="42.93755" lon="0.31997">
        <ele>1460.2</ele>
        <time>2021-05-29T07:10:20Z</time>
      </trkpt>
      <trkpt lat="42.93756" lon="0.31996">
        <ele>1460.4</ele>
        <time>2021-05-29T07:10:21Z</time>
      </trkpt>
      <trkpt lat="42.93757" lon="0.31996">
        <ele>1460.6</ele>
        <time>2021-05-29T07:10:22Z</time>
      </trkpt>
      <trkpt lat="42.93759" lon="0.31995">
        <ele>1460.6</ele>
        <time>2021-05-29T07:10:23Z</time>
      </trkpt>
      <trkpt lat="42.93761" lon="0.31994">
        <ele>1460.8</ele>
        <time>2021-05-29T07:10:24Z</time>
      </trkpt>
      <trkpt lat="42.93762" lon="0.31994">
        <ele>1460.8</ele>
        <time>2021-05-29T07:10:25Z</time>
      </trkpt>
      <trkpt lat="42.93764" lon="0.31994">
        <ele>1461</ele>
        <time>2021-05-29T07:10:26Z</time>
      </trkpt>
      <trkpt lat="42.93765" lon="0.31994">
        <ele>1461.2</ele>
        <time>2021-05-29T07:10:27Z</time>
      </trkpt>
      <trkpt lat="42.93767" lon="0.31995">
        <ele>1461.2</ele>
        <time>2021-05-29T07:10:28Z</time>
      </trkpt>
      <trkpt lat="42.93769" lon="0.31995">
        <ele>1461.4</ele>
        <time>2021-05-29T07:10:29Z</time>
      </trkpt>
      <trkpt lat="42.93771" lon="0.31996">
        <ele>1461.4</ele>
        <time>2021-05-29T07:10:30Z</time>
      </trkpt>
      <trkpt lat="42.93773" lon="0.31997">
        <ele>1461.6</ele>
        <time>2021-05-29T07:10:31Z</time>
      </trkpt>
      <trkpt lat="42.93774" lon="0.31997">
        <ele>1461.6</ele>
        <time>2021-05-29T07:10:32Z</time>
      </trkpt>
      <trkpt lat="42.93776" lon="0.31998">
        <ele>1461.8</ele>
        <time>2021-05-29T07:10:33Z</time>
      </trkpt>
      <trkpt lat="42.93778" lon="0.32">
        <ele>1462</ele>
        <time>2021-05-29T07:10:34Z</time>
      </trkpt>
      <trkpt lat="42.9378" lon="0.32001">
        <ele>1462</ele>
        <time>2021-05-29T07:10:35Z</time>
      </trkpt>
      <trkpt lat="42.93782" lon="0.32002">
        <ele>1462</ele>
        <time>2021-05-29T07:10:36Z</time>
      </trkpt>
      <trkpt lat="42.93783" lon="0.32003">
        <ele>1462.2</ele>
        <time>2021-05-29T07:10:37Z</time>
      </trkpt>
      <trkpt lat="42.93785" lon="0.32003">
        <ele>1462.2</ele>
        <time>2021-05-29T07:10:38Z</time>
      </trkpt>
      <trkpt lat="42.93787" lon="0.32005">
        <ele>1462.2</ele>
        <time>2021-05-29T07:10:39Z</time>
      </trkpt>
      <trkpt lat="42.93789" lon="0.32005">
        <ele>1462.4</ele>
        <time>2021-05-29T07:10:40Z</time>
      </trkpt>
      <trkpt lat="42.9379" lon="0.32006">
        <ele>1462.6</ele>
        <time>2021-05-29T07:10:41Z</time>
      </trkpt>
      <trkpt lat="42.93791" lon="0.32005">
        <ele>1462.6</ele>
        <time>2021-05-29T07:10:42Z</time>
      </trkpt>
      <trkpt lat="42.93793" lon="0.32006">
        <ele>1462.8</ele>
        <time>2021-05-29T07:10:43Z</time>
      </trkpt>
      <trkpt lat="42.93795" lon="0.32007">
        <ele>1463</ele>
        <time>2021-05-29T07:10:44Z</time>
      </trkpt>
      <trkpt lat="42.93797" lon="0.32008">
        <ele>1463</ele>
        <time>2021-05-29T07:10:45Z</time>
      </trkpt>
      <trkpt lat="42.93799" lon="0.3201">
        <ele>1463.2</ele>
        <time>2021-05-29T07:10:46Z</time>
      </trkpt>
      <trkpt lat="42.938" lon="0.32012">
        <ele>1463.4</ele>
        <time>2021-05-29T07:10:47Z</time>
      </trkpt>
      <trkpt lat="42.93802" lon="0.32013">
        <ele>1463.4</ele>
        <time>2021-05-29T07:10:48Z</time>
      </trkpt>
      <trkpt lat="42.93803" lon="0.32014">
        <ele>1463.6</ele>
        <time>2021-05-29T07:10:49Z</time>
      </trkpt>
      <trkpt lat="42.93805" lon="0.32016">
        <ele>1463.8</ele>
        <time>2021-05-29T07:10:50Z</time>
      </trkpt>
      <trkpt lat="42.93807" lon="0.32017">
        <ele>1463.8</ele>
        <time>2021-05-29T07:10:51Z</time>
      </trkpt>
      <trkpt lat="42.93809" lon="0.32018">
        <ele>1464</ele>
        <time>2021-05-29T07:10:52Z</time>
      </trkpt>
      <trkpt lat="42.93811" lon="0.32019">
        <ele>1464</ele>
        <time>2021-05-29T07:10:53Z</time>
      </trkpt>
      <trkpt lat="42.93813" lon="0.32019">
        <ele>1464.2</ele>
        <time>2021-05-29T07:10:54Z</time>
      </trkpt>
      <trkpt lat="42.93816" lon="0.32019">
        <ele>1464.2</ele>
        <time>2021-05-29T07:10:55Z</time>
      </trkpt>
      <trkpt lat="42.93818" lon="0.3202">
        <ele>1464.4</ele>
        <time>2021-05-29T07:10:56Z</time>
      </trkpt>
      <trkpt lat="42.93821" lon="0.32022">
        <ele>1464.4</ele>
        <time>2021-05-29T07:10:57Z</time>
      </trkpt>
      <trkpt lat="42.93823" lon="0.32025">
        <ele>1464.6</ele>
        <time>2021-05-29T07:10:58Z</time>
      </trkpt>
      <trkpt lat="42.93824" lon="0.32027">
        <ele>1464.8</ele>
        <time>2021-05-29T07:10:59Z</time>
      </trkpt>
      <trkpt lat="42.93828" lon="0.32029">
        <ele>1464.8</ele>
        <time>2021-05-29T07:11:00Z</time>
      </trkpt>
      <trkpt lat="42.93831" lon="0.32031">
        <ele>1465</ele>
        <time>2021-05-29T07:11:01Z</time>
      </trkpt>
      <trkpt lat="42.93831" lon="0.32032">
        <ele>1465.2</ele>
        <time>2021-05-29T07:11:02Z</time>
      </trkpt>
      <trkpt lat="42.93831" lon="0.32031">
        <ele>1465.4</ele>
        <time>2021-05-29T07:11:03Z</time>
      </trkpt>
      <trkpt lat="42.93831" lon="0.32032">
        <ele>1465.4</ele>
        <time>2021-05-29T07:11:04Z</time>
      </trkpt>
      <trkpt lat="42.93835" lon="0.32035">
        <ele>1465.6</ele>
        <time>2021-05-29T07:11:05Z</time>
      </trkpt>
      <trkpt lat="42.93838" lon="0.32036">
        <ele>1465.8</ele>
        <time>2021-05-29T07:11:06Z</time>
      </trkpt>
      <trkpt lat="42.93838" lon="0.32036">
        <ele>1465.8</ele>
        <time>2021-05-29T07:11:07Z</time>
      </trkpt>
      <trkpt lat="42.93838" lon="0.32037">
        <ele>1466</ele>
        <time>2021-05-29T07:11:08Z</time>
      </trkpt>
      <trkpt lat="42.93839" lon="0.32039">
        <ele>1466</ele>
        <time>2021-05-29T07:11:09Z</time>
      </trkpt>
      <trkpt lat="42.9384" lon="0.32041">
        <ele>1466</ele>
        <time>2021-05-29T07:11:10Z</time>
      </trkpt>
      <trkpt lat="42.93841" lon="0.32044">
        <ele>1466.2</ele>
        <time>2021-05-29T07:11:11Z</time>
      </trkpt>
      <trkpt lat="42.93842" lon="0.32046">
        <ele>1466.2</ele>
        <time>2021-05-29T07:11:12Z</time>
      </trkpt>
      <trkpt lat="42.93844" lon="0.32048">
        <ele>1466.4</ele>
        <time>2021-05-29T07:11:13Z</time>
      </trkpt>
      <trkpt lat="42.93846" lon="0.3205">
        <ele>1466.6</ele>
        <time>2021-05-29T07:11:14Z</time>
      </trkpt>
      <trkpt lat="42.93847" lon="0.32052">
        <ele>1466.8</ele>
        <time>2021-05-29T07:11:15Z</time>
      </trkpt>
      <trkpt lat="42.93848" lon="0.32053">
        <ele>1466.8</ele>
        <time>2021-05-29T07:11:16Z</time>
      </trkpt>
      <trkpt lat="42.93849" lon="0.32055">
        <ele>1467</ele>
        <time>2021-05-29T07:11:17Z</time>
      </trkpt>
      <trkpt lat="42.9385" lon="0.32056">
        <ele>1467</ele>
        <time>2021-05-29T07:11:18Z</time>
      </trkpt>
      <trkpt lat="42.93851" lon="0.32058">
        <ele>1467.2</ele>
        <time>2021-05-29T07:11:19Z</time>
      </trkpt>
      <trkpt lat="42.93852" lon="0.3206">
        <ele>1467.4</ele>
        <time>2021-05-29T07:11:20Z</time>
      </trkpt>
      <trkpt lat="42.93852" lon="0.32062">
        <ele>1467.6</ele>
        <time>2021-05-29T07:11:21Z</time>
      </trkpt>
      <trkpt lat="42.93853" lon="0.32064">
        <ele>1467.4</ele>
        <time>2021-05-29T07:11:22Z</time>
      </trkpt>
      <trkpt lat="42.93855" lon="0.32066">
        <ele>1467.6</ele>
        <time>2021-05-29T07:11:23Z</time>
      </trkpt>
      <trkpt lat="42.93856" lon="0.32069">
        <ele>1467.6</ele>
        <time>2021-05-29T07:11:24Z</time>
      </trkpt>
      <trkpt lat="42.93858" lon="0.32071">
        <ele>1467.8</ele>
        <time>2021-05-29T07:11:25Z</time>
      </trkpt>
      <trkpt lat="42.9386" lon="0.32073">
        <ele>1467.8</ele>
        <time>2021-05-29T07:11:26Z</time>
      </trkpt>
      <trkpt lat="42.93861" lon="0.32076">
        <ele>1468</ele>
        <time>2021-05-29T07:11:27Z</time>
      </trkpt>
      <trkpt lat="42.93863" lon="0.32078">
        <ele>1468.2</ele>
        <time>2021-05-29T07:11:28Z</time>
      </trkpt>
      <trkpt lat="42.93865" lon="0.32081">
        <ele>1468.4</ele>
        <time>2021-05-29T07:11:29Z</time>
      </trkpt>
      <trkpt lat="42.93867" lon="0.32083">
        <ele>1468.6</ele>
        <time>2021-05-29T07:11:30Z</time>
      </trkpt>
      <trkpt lat="42.9387" lon="0.32085">
        <ele>1468.8</ele>
        <time>2021-05-29T07:11:31Z</time>
      </trkpt>
      <trkpt lat="42.93873" lon="0.32088">
        <ele>1468.8</ele>
        <time>2021-05-29T07:11:32Z</time>
      </trkpt>
      <trkpt lat="42.93876" lon="0.32091">
        <ele>1469</ele>
        <time>2021-05-29T07:11:33Z</time>
      </trkpt>
      <trkpt lat="42.93879" lon="0.32094">
        <ele>1469</ele>
        <time>2021-05-29T07:11:34Z</time>
      </trkpt>
      <trkpt lat="42.93879" lon="0.32097">
        <ele>1469.2</ele>
        <time>2021-05-29T07:11:35Z</time>
      </trkpt>
      <trkpt lat="42.93881" lon="0.32098">
        <ele>1469.2</ele>
        <time>2021-05-29T07:11:36Z</time>
      </trkpt>
      <trkpt lat="42.93883" lon="0.32099">
        <ele>1469.2</ele>
        <time>2021-05-29T07:11:37Z</time>
      </trkpt>
      <trkpt lat="42.93885" lon="0.321">
        <ele>1469.2</ele>
        <time>2021-05-29T07:11:38Z</time>
      </trkpt>
      <trkpt lat="42.93887" lon="0.32102">
        <ele>1469.2</ele>
        <time>2021-05-29T07:11:39Z</time>
      </trkpt>
      <trkpt lat="42.93889" lon="0.32104">
        <ele>1469.2</ele>
        <time>2021-05-29T07:11:40Z</time>
      </trkpt>
      <trkpt lat="42.93891" lon="0.32106">
        <ele>1469.4</ele>
        <time>2021-05-29T07:11:41Z</time>
      </trkpt>
      <trkpt lat="42.93891" lon="0.32107">
        <ele>1469.4</ele>
        <time>2021-05-29T07:11:42Z</time>
      </trkpt>
      <trkpt lat="42.93892" lon="0.32109">
        <ele>1469.4</ele>
        <time>2021-05-29T07:11:43Z</time>
      </trkpt>
      <trkpt lat="42.93894" lon="0.32112">
        <ele>1469.6</ele>
        <time>2021-05-29T07:11:44Z</time>
      </trkpt>
      <trkpt lat="42.93898" lon="0.32115">
        <ele>1469.6</ele>
        <time>2021-05-29T07:11:45Z</time>
      </trkpt>
      <trkpt lat="42.93902" lon="0.32118">
        <ele>1469.6</ele>
        <time>2021-05-29T07:11:46Z</time>
      </trkpt>
      <trkpt lat="42.93905" lon="0.32122">
        <ele>1469.6</ele>
        <time>2021-05-29T07:11:47Z</time>
      </trkpt>
      <trkpt lat="42.93908" lon="0.32124">
        <ele>1469.6</ele>
        <time>2021-05-29T07:11:48Z</time>
      </trkpt>
      <trkpt lat="42.93907" lon="0.32124">
        <ele>1469.8</ele>
        <time>2021-05-29T07:11:50Z</time>
      </trkpt>
      <trkpt lat="42.93907" lon="0.32126">
        <ele>1469.8</ele>
        <time>2021-05-29T07:11:51Z</time>
      </trkpt>
      <trkpt lat="42.9391" lon="0.32128">
        <ele>1470</ele>
        <time>2021-05-29T07:11:52Z</time>
      </trkpt>
      <trkpt lat="42.93911" lon="0.3213">
        <ele>1470.2</ele>
        <time>2021-05-29T07:11:53Z</time>
      </trkpt>
      <trkpt lat="42.93912" lon="0.32133">
        <ele>1470.4</ele>
        <time>2021-05-29T07:11:54Z</time>
      </trkpt>
      <trkpt lat="42.93913" lon="0.32135">
        <ele>1470.4</ele>
        <time>2021-05-29T07:11:55Z</time>
      </trkpt>
      <trkpt lat="42.93914" lon="0.32136">
        <ele>1470.6</ele>
        <time>2021-05-29T07:11:56Z</time>
      </trkpt>
      <trkpt lat="42.93914" lon="0.32138">
        <ele>1470.6</ele>
        <time>2021-05-29T07:11:57Z</time>
      </trkpt>
      <trkpt lat="42.93917" lon="0.3214">
        <ele>1470.6</ele>
        <time>2021-05-29T07:11:58Z</time>
      </trkpt>
      <trkpt lat="42.9392" lon="0.32141">
        <ele>1470.8</ele>
        <time>2021-05-29T07:11:59Z</time>
      </trkpt>
      <trkpt lat="42.93921" lon="0.32144">
        <ele>1470.8</ele>
        <time>2021-05-29T07:12:00Z</time>
      </trkpt>
      <trkpt lat="42.93922" lon="0.32145">
        <ele>1471</ele>
        <time>2021-05-29T07:12:01Z</time>
      </trkpt>
      <trkpt lat="42.93921" lon="0.32145">
        <ele>1471</ele>
        <time>2021-05-29T07:12:02Z</time>
      </trkpt>
      <trkpt lat="42.93923" lon="0.32147">
        <ele>1471</ele>
        <time>2021-05-29T07:12:03Z</time>
      </trkpt>
      <trkpt lat="42.93922" lon="0.32149">
        <ele>1471.2</ele>
        <time>2021-05-29T07:12:04Z</time>
      </trkpt>
      <trkpt lat="42.93922" lon="0.32151">
        <ele>1471.2</ele>
        <time>2021-05-29T07:12:05Z</time>
      </trkpt>
      <trkpt lat="42.93922" lon="0.32153">
        <ele>1471.4</ele>
        <time>2021-05-29T07:12:06Z</time>
      </trkpt>
      <trkpt lat="42.93923" lon="0.32155">
        <ele>1471.8</ele>
        <time>2021-05-29T07:12:07Z</time>
      </trkpt>
      <trkpt lat="42.93924" lon="0.32157">
        <ele>1471.8</ele>
        <time>2021-05-29T07:12:08Z</time>
      </trkpt>
      <trkpt lat="42.93927" lon="0.32158">
        <ele>1472</ele>
        <time>2021-05-29T07:12:09Z</time>
      </trkpt>
      <trkpt lat="42.93929" lon="0.3216">
        <ele>1472</ele>
        <time>2021-05-29T07:12:10Z</time>
      </trkpt>
      <trkpt lat="42.9393" lon="0.32161">
        <ele>1472.2</ele>
        <time>2021-05-29T07:12:11Z</time>
      </trkpt>
      <trkpt lat="42.93931" lon="0.32162">
        <ele>1472.2</ele>
        <time>2021-05-29T07:12:12Z</time>
      </trkpt>
      <trkpt lat="42.93932" lon="0.32164">
        <ele>1472.4</ele>
        <time>2021-05-29T07:12:13Z</time>
      </trkpt>
      <trkpt lat="42.93934" lon="0.32166">
        <ele>1472.4</ele>
        <time>2021-05-29T07:12:14Z</time>
      </trkpt>
      <trkpt lat="42.93936" lon="0.32167">
        <ele>1472.6</ele>
        <time>2021-05-29T07:12:15Z</time>
      </trkpt>
      <trkpt lat="42.93938" lon="0.32168">
        <ele>1472.8</ele>
        <time>2021-05-29T07:12:16Z</time>
      </trkpt>
      <trkpt lat="42.9394" lon="0.32169">
        <ele>1472.8</ele>
        <time>2021-05-29T07:12:17Z</time>
      </trkpt>
      <trkpt lat="42.93941" lon="0.3217">
        <ele>1473</ele>
        <time>2021-05-29T07:12:18Z</time>
      </trkpt>
      <trkpt lat="42.93942" lon="0.3217">
        <ele>1473.2</ele>
        <time>2021-05-29T07:12:19Z</time>
      </trkpt>
      <trkpt lat="42.93943" lon="0.32171">
        <ele>1473.4</ele>
        <time>2021-05-29T07:12:20Z</time>
      </trkpt>
      <trkpt lat="42.93943" lon="0.32171">
        <ele>1473.4</ele>
        <time>2021-05-29T07:12:21Z</time>
      </trkpt>
      <trkpt lat="42.93945" lon="0.32171">
        <ele>1473.4</ele>
        <time>2021-05-29T07:12:22Z</time>
      </trkpt>
      <trkpt lat="42.93947" lon="0.32171">
        <ele>1473.6</ele>
        <time>2021-05-29T07:12:23Z</time>
      </trkpt>
      <trkpt lat="42.93948" lon="0.32172">
        <ele>1473.6</ele>
        <time>2021-05-29T07:12:24Z</time>
      </trkpt>
      <trkpt lat="42.9395" lon="0.32173">
        <ele>1473.6</ele>
        <time>2021-05-29T07:12:25Z</time>
      </trkpt>
      <trkpt lat="42.93952" lon="0.32175">
        <ele>1473.8</ele>
        <time>2021-05-29T07:12:26Z</time>
      </trkpt>
      <trkpt lat="42.93954" lon="0.32176">
        <ele>1474</ele>
        <time>2021-05-29T07:12:27Z</time>
      </trkpt>
      <trkpt lat="42.93956" lon="0.32177">
        <ele>1474.2</ele>
        <time>2021-05-29T07:12:28Z</time>
      </trkpt>
      <trkpt lat="42.93958" lon="0.32177">
        <ele>1474.2</ele>
        <time>2021-05-29T07:12:29Z</time>
      </trkpt>
      <trkpt lat="42.93959" lon="0.32177">
        <ele>1474.4</ele>
        <time>2021-05-29T07:12:30Z</time>
      </trkpt>
      <trkpt lat="42.93962" lon="0.32178">
        <ele>1474.8</ele>
        <time>2021-05-29T07:12:33Z</time>
      </trkpt>
      <trkpt lat="42.93965" lon="0.32179">
        <ele>1475.2</ele>
        <time>2021-05-29T07:12:34Z</time>
      </trkpt>
      <trkpt lat="42.93967" lon="0.32179">
        <ele>1475.2</ele>
        <time>2021-05-29T07:12:35Z</time>
      </trkpt>
      <trkpt lat="42.9397" lon="0.3218">
        <ele>1475.4</ele>
        <time>2021-05-29T07:12:36Z</time>
      </trkpt>
      <trkpt lat="42.93972" lon="0.3218">
        <ele>1475.4</ele>
        <time>2021-05-29T07:12:37Z</time>
      </trkpt>
      <trkpt lat="42.93975" lon="0.32181">
        <ele>1475.4</ele>
        <time>2021-05-29T07:12:38Z</time>
      </trkpt>
      <trkpt lat="42.93977" lon="0.3218">
        <ele>1475.6</ele>
        <time>2021-05-29T07:12:39Z</time>
      </trkpt>
      <trkpt lat="42.9398" lon="0.32181">
        <ele>1475.6</ele>
        <time>2021-05-29T07:12:40Z</time>
      </trkpt>
      <trkpt lat="42.93982" lon="0.32181">
        <ele>1475.6</ele>
        <time>2021-05-29T07:12:41Z</time>
      </trkpt>
      <trkpt lat="42.93985" lon="0.32182">
        <ele>1475.8</ele>
        <time>2021-05-29T07:12:42Z</time>
      </trkpt>
      <trkpt lat="42.93987" lon="0.32182">
        <ele>1475.8</ele>
        <time>2021-05-29T07:12:43Z</time>
      </trkpt>
      <trkpt lat="42.9399" lon="0.32183">
        <ele>1475.8</ele>
        <time>2021-05-29T07:12:44Z</time>
      </trkpt>
      <trkpt lat="42.93993" lon="0.32184">
        <ele>1476</ele>
        <time>2021-05-29T07:12:45Z</time>
      </trkpt>
      <trkpt lat="42.93995" lon="0.32186">
        <ele>1476.2</ele>
        <time>2021-05-29T07:12:46Z</time>
      </trkpt>
      <trkpt lat="42.93997" lon="0.32186">
        <ele>1476.4</ele>
        <time>2021-05-29T07:12:47Z</time>
      </trkpt>
      <trkpt lat="42.93998" lon="0.32183">
        <ele>1476.6</ele>
        <time>2021-05-29T07:12:48Z</time>
      </trkpt>
      <trkpt lat="42.94" lon="0.3218">
        <ele>1476.6</ele>
        <time>2021-05-29T07:12:49Z</time>
      </trkpt>
      <trkpt lat="42.94001" lon="0.32178">
        <ele>1476.8</ele>
        <time>2021-05-29T07:12:50Z</time>
      </trkpt>
      <trkpt lat="42.94003" lon="0.32175">
        <ele>1476.8</ele>
        <time>2021-05-29T07:12:51Z</time>
      </trkpt>
      <trkpt lat="42.94005" lon="0.32175">
        <ele>1477</ele>
        <time>2021-05-29T07:12:52Z</time>
      </trkpt>
      <trkpt lat="42.94007" lon="0.32175">
        <ele>1477.2</ele>
        <time>2021-05-29T07:12:53Z</time>
      </trkpt>
      <trkpt lat="42.9401" lon="0.32176">
        <ele>1477.4</ele>
        <time>2021-05-29T07:12:54Z</time>
      </trkpt>
      <trkpt lat="42.94013" lon="0.32177">
        <ele>1477.6</ele>
        <time>2021-05-29T07:12:55Z</time>
      </trkpt>
      <trkpt lat="42.94013" lon="0.32177">
        <ele>1477.8</ele>
        <time>2021-05-29T07:12:56Z</time>
      </trkpt>
      <trkpt lat="42.94015" lon="0.32177">
        <ele>1478</ele>
        <time>2021-05-29T07:12:57Z</time>
      </trkpt>
      <trkpt lat="42.94017" lon="0.32178">
        <ele>1478.2</ele>
        <time>2021-05-29T07:12:58Z</time>
      </trkpt>
      <trkpt lat="42.94018" lon="0.32177">
        <ele>1478.2</ele>
        <time>2021-05-29T07:12:59Z</time>
      </trkpt>
      <trkpt lat="42.9402" lon="0.32177">
        <ele>1478.4</ele>
        <time>2021-05-29T07:13:00Z</time>
      </trkpt>
      <trkpt lat="42.94022" lon="0.32177">
        <ele>1478.6</ele>
        <time>2021-05-29T07:13:01Z</time>
      </trkpt>
      <trkpt lat="42.94023" lon="0.32177">
        <ele>1478.6</ele>
        <time>2021-05-29T07:13:02Z</time>
      </trkpt>
      <trkpt lat="42.94024" lon="0.32177">
        <ele>1478.6</ele>
        <time>2021-05-29T07:13:03Z</time>
      </trkpt>
      <trkpt lat="42.94025" lon="0.32176">
        <ele>1478.8</ele>
        <time>2021-05-29T07:13:04Z</time>
      </trkpt>
      <trkpt lat="42.94027" lon="0.32175">
        <ele>1478.8</ele>
        <time>2021-05-29T07:13:05Z</time>
      </trkpt>
      <trkpt lat="42.94029" lon="0.32174">
        <ele>1479</ele>
        <time>2021-05-29T07:13:06Z</time>
      </trkpt>
      <trkpt lat="42.94031" lon="0.32173">
        <ele>1479.2</ele>
        <time>2021-05-29T07:13:07Z</time>
      </trkpt>
      <trkpt lat="42.94032" lon="0.32172">
        <ele>1479.6</ele>
        <time>2021-05-29T07:13:08Z</time>
      </trkpt>
      <trkpt lat="42.94034" lon="0.32171">
        <ele>1479.6</ele>
        <time>2021-05-29T07:13:09Z</time>
      </trkpt>
      <trkpt lat="42.94034" lon="0.32171">
        <ele>1480</ele>
        <time>2021-05-29T07:13:10Z</time>
      </trkpt>
      <trkpt lat="42.94035" lon="0.32171">
        <ele>1480</ele>
        <time>2021-05-29T07:13:11Z</time>
      </trkpt>
      <trkpt lat="42.94037" lon="0.3217">
        <ele>1480</ele>
        <time>2021-05-29T07:13:12Z</time>
      </trkpt>
      <trkpt lat="42.94038" lon="0.32169">
        <ele>1480</ele>
        <time>2021-05-29T07:13:13Z</time>
      </trkpt>
      <trkpt lat="42.94041" lon="0.32168">
        <ele>1480.2</ele>
        <time>2021-05-29T07:13:14Z</time>
      </trkpt>
      <trkpt lat="42.94043" lon="0.32167">
        <ele>1480.2</ele>
        <time>2021-05-29T07:13:15Z</time>
      </trkpt>
      <trkpt lat="42.94045" lon="0.32166">
        <ele>1480.6</ele>
        <time>2021-05-29T07:13:16Z</time>
      </trkpt>
      <trkpt lat="42.94047" lon="0.32166">
        <ele>1480.6</ele>
        <time>2021-05-29T07:13:17Z</time>
      </trkpt>
      <trkpt lat="42.94049" lon="0.32165">
        <ele>1480.8</ele>
        <time>2021-05-29T07:13:18Z</time>
      </trkpt>
      <trkpt lat="42.94051" lon="0.32166">
        <ele>1481</ele>
        <time>2021-05-29T07:13:19Z</time>
      </trkpt>
      <trkpt lat="42.94052" lon="0.32166">
        <ele>1481.2</ele>
        <time>2021-05-29T07:13:20Z</time>
      </trkpt>
      <trkpt lat="42.94053" lon="0.32166">
        <ele>1481.4</ele>
        <time>2021-05-29T07:13:21Z</time>
      </trkpt>
      <trkpt lat="42.94055" lon="0.32167">
        <ele>1481.4</ele>
        <time>2021-05-29T07:13:22Z</time>
      </trkpt>
      <trkpt lat="42.94056" lon="0.32167">
        <ele>1481.6</ele>
        <time>2021-05-29T07:13:23Z</time>
      </trkpt>
      <trkpt lat="42.94059" lon="0.32167">
        <ele>1481.6</ele>
        <time>2021-05-29T07:13:24Z</time>
      </trkpt>
      <trkpt lat="42.9406" lon="0.32167">
        <ele>1481.6</ele>
        <time>2021-05-29T07:13:25Z</time>
      </trkpt>
      <trkpt lat="42.94062" lon="0.32166">
        <ele>1481.8</ele>
        <time>2021-05-29T07:13:26Z</time>
      </trkpt>
      <trkpt lat="42.94064" lon="0.32166">
        <ele>1481.8</ele>
        <time>2021-05-29T07:13:27Z</time>
      </trkpt>
      <trkpt lat="42.94065" lon="0.32167">
        <ele>1481.8</ele>
        <time>2021-05-29T07:13:28Z</time>
      </trkpt>
      <trkpt lat="42.94067" lon="0.32167">
        <ele>1481.8</ele>
        <time>2021-05-29T07:13:29Z</time>
      </trkpt>
      <trkpt lat="42.94069" lon="0.32168">
        <ele>1482</ele>
        <time>2021-05-29T07:13:30Z</time>
      </trkpt>
      <trkpt lat="42.94071" lon="0.32169">
        <ele>1482</ele>
        <time>2021-05-29T07:13:31Z</time>
      </trkpt>
      <trkpt lat="42.94072" lon="0.3217">
        <ele>1482</ele>
        <time>2021-05-29T07:13:32Z</time>
      </trkpt>
      <trkpt lat="42.94073" lon="0.3217">
        <ele>1482.2</ele>
        <time>2021-05-29T07:13:33Z</time>
      </trkpt>
      <trkpt lat="42.94073" lon="0.3217">
        <ele>1482</ele>
        <time>2021-05-29T07:13:34Z</time>
      </trkpt>
      <trkpt lat="42.94074" lon="0.3217">
        <ele>1482.2</ele>
        <time>2021-05-29T07:13:35Z</time>
      </trkpt>
      <trkpt lat="42.94075" lon="0.32171">
        <ele>1482.2</ele>
        <time>2021-05-29T07:13:36Z</time>
      </trkpt>
      <trkpt lat="42.94076" lon="0.32172">
        <ele>1482.2</ele>
        <time>2021-05-29T07:13:37Z</time>
      </trkpt>
      <trkpt lat="42.94077" lon="0.32173">
        <ele>1482.2</ele>
        <time>2021-05-29T07:13:38Z</time>
      </trkpt>
      <trkpt lat="42.9408" lon="0.32174">
        <ele>1482.4</ele>
        <time>2021-05-29T07:13:40Z</time>
      </trkpt>
      <trkpt lat="42.9409" lon="0.32182">
        <ele>1482.2</ele>
        <time>2021-05-29T07:13:47Z</time>
      </trkpt>
      <trkpt lat="42.94101" lon="0.32201">
        <ele>1481.8</ele>
        <time>2021-05-29T07:13:52Z</time>
      </trkpt>
      <trkpt lat="42.94103" lon="0.32205">
        <ele>1481.8</ele>
        <time>2021-05-29T07:13:53Z</time>
      </trkpt>
      <trkpt lat="42.94108" lon="0.3222">
        <ele>1481.6</ele>
        <time>2021-05-29T07:13:56Z</time>
      </trkpt>
      <trkpt lat="42.94108" lon="0.32226">
        <ele>1481.6</ele>
        <time>2021-05-29T07:13:57Z</time>
      </trkpt>
      <trkpt lat="42.9411" lon="0.32237">
        <ele>1481.6</ele>
        <time>2021-05-29T07:13:59Z</time>
      </trkpt>
      <trkpt lat="42.94112" lon="0.32244">
        <ele>1481.4</ele>
        <time>2021-05-29T07:14:00Z</time>
      </trkpt>
      <trkpt lat="42.94121" lon="0.3225">
        <ele>1481.4</ele>
        <time>2021-05-29T07:14:01Z</time>
      </trkpt>
      <trkpt lat="42.94124" lon="0.32258">
        <ele>1481.2</ele>
        <time>2021-05-29T07:14:02Z</time>
      </trkpt>
      <trkpt lat="42.94123" lon="0.32264">
        <ele>1481.2</ele>
        <time>2021-05-29T07:14:03Z</time>
      </trkpt>
      <trkpt lat="42.94125" lon="0.32272">
        <ele>1481</ele>
        <time>2021-05-29T07:14:04Z</time>
      </trkpt>
      <trkpt lat="42.94123" lon="0.32279">
        <ele>1481</ele>
        <time>2021-05-29T07:14:05Z</time>
      </trkpt>
      <trkpt lat="42.94122" lon="0.32286">
        <ele>1481</ele>
        <time>2021-05-29T07:14:06Z</time>
      </trkpt>
      <trkpt lat="42.94123" lon="0.32294">
        <ele>1480.8</ele>
        <time>2021-05-29T07:14:07Z</time>
      </trkpt>
      <trkpt lat="42.94125" lon="0.32301">
        <ele>1480.6</ele>
        <time>2021-05-29T07:14:08Z</time>
      </trkpt>
      <trkpt lat="42.94127" lon="0.32309">
        <ele>1480.6</ele>
        <time>2021-05-29T07:14:09Z</time>
      </trkpt>
      <trkpt lat="42.94129" lon="0.32316">
        <ele>1480.4</ele>
        <time>2021-05-29T07:14:10Z</time>
      </trkpt>
      <trkpt lat="42.94131" lon="0.32324">
        <ele>1480</ele>
        <time>2021-05-29T07:14:11Z</time>
      </trkpt>
      <trkpt lat="42.94132" lon="0.32332">
        <ele>1479.6</ele>
        <time>2021-05-29T07:14:12Z</time>
      </trkpt>
      <trkpt lat="42.94132" lon="0.3234">
        <ele>1479.4</ele>
        <time>2021-05-29T07:14:13Z</time>
      </trkpt>
      <trkpt lat="42.94137" lon="0.32364">
        <ele>1479</ele>
        <time>2021-05-29T07:14:16Z</time>
      </trkpt>
      <trkpt lat="42.94143" lon="0.32408">
        <ele>1478.4</ele>
        <time>2021-05-29T07:14:21Z</time>
      </trkpt>
      <trkpt lat="42.94147" lon="0.32463">
        <ele>1478</ele>
        <time>2021-05-29T07:14:27Z</time>
      </trkpt>
      <trkpt lat="42.94154" lon="0.32507">
        <ele>1477.4</ele>
        <time>2021-05-29T07:14:32Z</time>
      </trkpt>
      <trkpt lat="42.94162" lon="0.32543">
        <ele>1476.6</ele>
        <time>2021-05-29T07:14:36Z</time>
      </trkpt>
      <trkpt lat="42.9417" lon="0.32588">
        <ele>1476.6</ele>
        <time>2021-05-29T07:14:41Z</time>
      </trkpt>
      <trkpt lat="42.94173" lon="0.32605">
        <ele>1476.4</ele>
        <time>2021-05-29T07:14:43Z</time>
      </trkpt>
      <trkpt lat="42.94176" lon="0.32621">
        <ele>1476.4</ele>
        <time>2021-05-29T07:14:45Z</time>
      </trkpt>
      <trkpt lat="42.94178" lon="0.32628">
        <ele>1476.2</ele>
        <time>2021-05-29T07:14:46Z</time>
      </trkpt>
      <trkpt lat="42.94179" lon="0.32635">
        <ele>1476.2</ele>
        <time>2021-05-29T07:14:47Z</time>
      </trkpt>
      <trkpt lat="42.94181" lon="0.32641">
        <ele>1476</ele>
        <time>2021-05-29T07:14:48Z</time>
      </trkpt>
      <trkpt lat="42.94183" lon="0.32646">
        <ele>1475.8</ele>
        <time>2021-05-29T07:14:49Z</time>
      </trkpt>
      <trkpt lat="42.94184" lon="0.32652">
        <ele>1475.6</ele>
        <time>2021-05-29T07:14:50Z</time>
      </trkpt>
      <trkpt lat="42.94186" lon="0.32659">
        <ele>1475.4</ele>
        <time>2021-05-29T07:14:51Z</time>
      </trkpt>
      <trkpt lat="42.9419" lon="0.32672">
        <ele>1475</ele>
        <time>2021-05-29T07:14:53Z</time>
      </trkpt>
      <trkpt lat="42.94198" lon="0.32701">
        <ele>1474.8</ele>
        <time>2021-05-29T07:14:57Z</time>
      </trkpt>
      <trkpt lat="42.94199" lon="0.32709">
        <ele>1474.8</ele>
        <time>2021-05-29T07:14:58Z</time>
      </trkpt>
      <trkpt lat="42.94205" lon="0.3272">
        <ele>1474.6</ele>
        <time>2021-05-29T07:15:00Z</time>
      </trkpt>
      <trkpt lat="42.9421" lon="0.32724">
        <ele>1474.6</ele>
        <time>2021-05-29T07:15:01Z</time>
      </trkpt>
      <trkpt lat="42.94214" lon="0.32727">
        <ele>1474.6</ele>
        <time>2021-05-29T07:15:02Z</time>
      </trkpt>
      <trkpt lat="42.94218" lon="0.32729">
        <ele>1474.4</ele>
        <time>2021-05-29T07:15:03Z</time>
      </trkpt>
      <trkpt lat="42.94221" lon="0.32732">
        <ele>1474.2</ele>
        <time>2021-05-29T07:15:04Z</time>
      </trkpt>
      <trkpt lat="42.94224" lon="0.32734">
        <ele>1474.2</ele>
        <time>2021-05-29T07:15:05Z</time>
      </trkpt>
      <trkpt lat="42.94226" lon="0.32737">
        <ele>1473.8</ele>
        <time>2021-05-29T07:15:06Z</time>
      </trkpt>
      <trkpt lat="42.94228" lon="0.32738">
        <ele>1473.6</ele>
        <time>2021-05-29T07:15:07Z</time>
      </trkpt>
      <trkpt lat="42.94229" lon="0.32739">
        <ele>1473</ele>
        <time>2021-05-29T07:15:08Z</time>
      </trkpt>
      <trkpt lat="42.94231" lon="0.3274">
        <ele>1473</ele>
        <time>2021-05-29T07:15:09Z</time>
      </trkpt>
      <trkpt lat="42.94233" lon="0.32741">
        <ele>1472.8</ele>
        <time>2021-05-29T07:15:10Z</time>
      </trkpt>
      <trkpt lat="42.94236" lon="0.32741">
        <ele>1472.4</ele>
        <time>2021-05-29T07:15:12Z</time>
      </trkpt>
      <trkpt lat="42.94238" lon="0.3274">
        <ele>1472.4</ele>
        <time>2021-05-29T07:15:13Z</time>
      </trkpt>
      <trkpt lat="42.94239" lon="0.32738">
        <ele>1472.4</ele>
        <time>2021-05-29T07:15:14Z</time>
      </trkpt>
      <trkpt lat="42.9424" lon="0.32735">
        <ele>1472.2</ele>
        <time>2021-05-29T07:15:15Z</time>
      </trkpt>
      <trkpt lat="42.94241" lon="0.32728">
        <ele>1472.2</ele>
        <time>2021-05-29T07:15:17Z</time>
      </trkpt>
      <trkpt lat="42.94243" lon="0.32725">
        <ele>1472.2</ele>
        <time>2021-05-29T07:15:18Z</time>
      </trkpt>
      <trkpt lat="42.94245" lon="0.32722">
        <ele>1472.2</ele>
        <time>2021-05-29T07:15:19Z</time>
      </trkpt>
      <trkpt lat="42.94248" lon="0.32718">
        <ele>1472.2</ele>
        <time>2021-05-29T07:15:20Z</time>
      </trkpt>
      <trkpt lat="42.94251" lon="0.32714">
        <ele>1472.2</ele>
        <time>2021-05-29T07:15:21Z</time>
      </trkpt>
      <trkpt lat="42.94268" lon="0.32696">
        <ele>1472</ele>
        <time>2021-05-29T07:15:25Z</time>
      </trkpt>
      <trkpt lat="42.94273" lon="0.32691">
        <ele>1472.2</ele>
        <time>2021-05-29T07:15:26Z</time>
      </trkpt>
      <trkpt lat="42.94298" lon="0.32656">
        <ele>1471</ele>
        <time>2021-05-29T07:15:31Z</time>
      </trkpt>
      <trkpt lat="42.94313" lon="0.32629">
        <ele>1469.8</ele>
        <time>2021-05-29T07:15:34Z</time>
      </trkpt>
      <trkpt lat="42.94317" lon="0.32618">
        <ele>1469.2</ele>
        <time>2021-05-29T07:15:35Z</time>
      </trkpt>
      <trkpt lat="42.94324" lon="0.32595">
        <ele>1468.2</ele>
        <time>2021-05-29T07:15:37Z</time>
      </trkpt>
      <trkpt lat="42.94327" lon="0.32583">
        <ele>1468</ele>
        <time>2021-05-29T07:15:38Z</time>
      </trkpt>
      <trkpt lat="42.94329" lon="0.32571">
        <ele>1467.2</ele>
        <time>2021-05-29T07:15:39Z</time>
      </trkpt>
      <trkpt lat="42.94332" lon="0.32559">
        <ele>1466.8</ele>
        <time>2021-05-29T07:15:40Z</time>
      </trkpt>
      <trkpt lat="42.94334" lon="0.32546">
        <ele>1466</ele>
        <time>2021-05-29T07:15:41Z</time>
      </trkpt>
      <trkpt lat="42.94339" lon="0.32518">
        <ele>1464.8</ele>
        <time>2021-05-29T07:15:43Z</time>
      </trkpt>
      <trkpt lat="42.94341" lon="0.32503">
        <ele>1464.2</ele>
        <time>2021-05-29T07:15:44Z</time>
      </trkpt>
      <trkpt lat="42.94346" lon="0.32476">
        <ele>1462.8</ele>
        <time>2021-05-29T07:15:46Z</time>
      </trkpt>
      <trkpt lat="42.94348" lon="0.32463">
        <ele>1462.4</ele>
        <time>2021-05-29T07:15:47Z</time>
      </trkpt>
      <trkpt lat="42.94354" lon="0.32436">
        <ele>1461.4</ele>
        <time>2021-05-29T07:15:49Z</time>
      </trkpt>
      <trkpt lat="42.94356" lon="0.32422">
        <ele>1460</ele>
        <time>2021-05-29T07:15:50Z</time>
      </trkpt>
      <trkpt lat="42.94359" lon="0.32393">
        <ele>1458.4</ele>
        <time>2021-05-29T07:15:52Z</time>
      </trkpt>
      <trkpt lat="42.94359" lon="0.32378">
        <ele>1458</ele>
        <time>2021-05-29T07:15:53Z</time>
      </trkpt>
      <trkpt lat="42.9436" lon="0.32362">
        <ele>1457.2</ele>
        <time>2021-05-29T07:15:54Z</time>
      </trkpt>
      <trkpt lat="42.94364" lon="0.32331">
        <ele>1455.2</ele>
        <time>2021-05-29T07:15:56Z</time>
      </trkpt>
      <trkpt lat="42.94368" lon="0.32317">
        <ele>1454.6</ele>
        <time>2021-05-29T07:15:57Z</time>
      </trkpt>
      <trkpt lat="42.94372" lon="0.32303">
        <ele>1453.4</ele>
        <time>2021-05-29T07:15:58Z</time>
      </trkpt>
      <trkpt lat="42.94377" lon="0.32291">
        <ele>1452.6</ele>
        <time>2021-05-29T07:15:59Z</time>
      </trkpt>
      <trkpt lat="42.94384" lon="0.3228">
        <ele>1451.8</ele>
        <time>2021-05-29T07:16:00Z</time>
      </trkpt>
      <trkpt lat="42.94397" lon="0.32256">
        <ele>1450.4</ele>
        <time>2021-05-29T07:16:02Z</time>
      </trkpt>
      <trkpt lat="42.94409" lon="0.32231">
        <ele>1449</ele>
        <time>2021-05-29T07:16:04Z</time>
      </trkpt>
      <trkpt lat="42.94419" lon="0.32205">
        <ele>1447.6</ele>
        <time>2021-05-29T07:16:06Z</time>
      </trkpt>
      <trkpt lat="42.94424" lon="0.32192">
        <ele>1446</ele>
        <time>2021-05-29T07:16:07Z</time>
      </trkpt>
      <trkpt lat="42.94436" lon="0.32165">
        <ele>1444.4</ele>
        <time>2021-05-29T07:16:09Z</time>
      </trkpt>
      <trkpt lat="42.9444" lon="0.32155">
        <ele>1444</ele>
        <time>2021-05-29T07:16:10Z</time>
      </trkpt>
      <trkpt lat="42.94445" lon="0.32144">
        <ele>1442.6</ele>
        <time>2021-05-29T07:16:11Z</time>
      </trkpt>
      <trkpt lat="42.94451" lon="0.3213">
        <ele>1442</ele>
        <time>2021-05-29T07:16:12Z</time>
      </trkpt>
      <trkpt lat="42.94455" lon="0.3212">
        <ele>1441.2</ele>
        <time>2021-05-29T07:16:13Z</time>
      </trkpt>
      <trkpt lat="42.9446" lon="0.32112">
        <ele>1440.8</ele>
        <time>2021-05-29T07:16:14Z</time>
      </trkpt>
      <trkpt lat="42.94466" lon="0.32104">
        <ele>1439.8</ele>
        <time>2021-05-29T07:16:15Z</time>
      </trkpt>
      <trkpt lat="42.94472" lon="0.32096">
        <ele>1439.4</ele>
        <time>2021-05-29T07:16:16Z</time>
      </trkpt>
      <trkpt lat="42.94479" lon="0.32089">
        <ele>1438.6</ele>
        <time>2021-05-29T07:16:17Z</time>
      </trkpt>
      <trkpt lat="42.94483" lon="0.32085">
        <ele>1438.4</ele>
        <time>2021-05-29T07:16:18Z</time>
      </trkpt>
      <trkpt lat="42.94487" lon="0.3208">
        <ele>1438.2</ele>
        <time>2021-05-29T07:16:19Z</time>
      </trkpt>
      <trkpt lat="42.9449" lon="0.32076">
        <ele>1438.2</ele>
        <time>2021-05-29T07:16:20Z</time>
      </trkpt>
      <trkpt lat="42.94491" lon="0.32073">
        <ele>1438.2</ele>
        <time>2021-05-29T07:16:21Z</time>
      </trkpt>
      <trkpt lat="42.94493" lon="0.32071">
        <ele>1438.2</ele>
        <time>2021-05-29T07:16:22Z</time>
      </trkpt>
      <trkpt lat="42.94494" lon="0.32069">
        <ele>1438.2</ele>
        <time>2021-05-29T07:16:23Z</time>
      </trkpt>
      <trkpt lat="42.94495" lon="0.32067">
        <ele>1438.2</ele>
        <time>2021-05-29T07:16:24Z</time>
      </trkpt>
      <trkpt lat="42.94496" lon="0.32066">
        <ele>1438.2</ele>
        <time>2021-05-29T07:16:25Z</time>
      </trkpt>
      <trkpt lat="42.94497" lon="0.32064">
        <ele>1438.4</ele>
        <time>2021-05-29T07:16:26Z</time>
      </trkpt>
      <trkpt lat="42.94497" lon="0.32062">
        <ele>1438.6</ele>
        <time>2021-05-29T07:16:27Z</time>
      </trkpt>
      <trkpt lat="42.94502" lon="0.32046">
        <ele>1439.2</ele>
        <time>2021-05-29T07:16:32Z</time>
      </trkpt>
      <trkpt lat="42.94503" lon="0.32044">
        <ele>1439.4</ele>
        <time>2021-05-29T07:16:33Z</time>
      </trkpt>
      <trkpt lat="42.94504" lon="0.32042">
        <ele>1439.4</ele>
        <time>2021-05-29T07:16:34Z</time>
      </trkpt>
      <trkpt lat="42.94507" lon="0.32039">
        <ele>1439.4</ele>
        <time>2021-05-29T07:16:35Z</time>
      </trkpt>
      <trkpt lat="42.94511" lon="0.32034">
        <ele>1439.6</ele>
        <time>2021-05-29T07:16:37Z</time>
      </trkpt>
      <trkpt lat="42.94513" lon="0.3203">
        <ele>1439.6</ele>
        <time>2021-05-29T07:16:38Z</time>
      </trkpt>
      <trkpt lat="42.94516" lon="0.32025">
        <ele>1439.6</ele>
        <time>2021-05-29T07:16:39Z</time>
      </trkpt>
      <trkpt lat="42.94526" lon="0.32012">
        <ele>1439.8</ele>
        <time>2021-05-29T07:16:42Z</time>
      </trkpt>
      <trkpt lat="42.94534" lon="0.32006">
        <ele>1439.6</ele>
        <time>2021-05-29T07:16:45Z</time>
      </trkpt>
      <trkpt lat="42.94536" lon="0.32005">
        <ele>1439.6</ele>
        <time>2021-05-29T07:16:46Z</time>
      </trkpt>
      <trkpt lat="42.94538" lon="0.32004">
        <ele>1439.6</ele>
        <time>2021-05-29T07:16:47Z</time>
      </trkpt>
      <trkpt lat="42.9454" lon="0.32002">
        <ele>1439.6</ele>
        <time>2021-05-29T07:16:48Z</time>
      </trkpt>
      <trkpt lat="42.94541" lon="0.32">
        <ele>1439.6</ele>
        <time>2021-05-29T07:16:49Z</time>
      </trkpt>
      <trkpt lat="42.94542" lon="0.31998">
        <ele>1439.4</ele>
        <time>2021-05-29T07:16:50Z</time>
      </trkpt>
      <trkpt lat="42.94544" lon="0.31997">
        <ele>1439.6</ele>
        <time>2021-05-29T07:16:51Z</time>
      </trkpt>
      <trkpt lat="42.94544" lon="0.31995">
        <ele>1439.6</ele>
        <time>2021-05-29T07:16:52Z</time>
      </trkpt>
      <trkpt lat="42.94545" lon="0.31993">
        <ele>1439.6</ele>
        <time>2021-05-29T07:16:53Z</time>
      </trkpt>
      <trkpt lat="42.94546" lon="0.31991">
        <ele>1439.6</ele>
        <time>2021-05-29T07:16:54Z</time>
      </trkpt>
      <trkpt lat="42.94552" lon="0.31984">
        <ele>1439.6</ele>
        <time>2021-05-29T07:16:57Z</time>
      </trkpt>
      <trkpt lat="42.94554" lon="0.31982">
        <ele>1439.6</ele>
        <time>2021-05-29T07:16:58Z</time>
      </trkpt>
      <trkpt lat="42.94556" lon="0.3198">
        <ele>1439.6</ele>
        <time>2021-05-29T07:16:59Z</time>
      </trkpt>
      <trkpt lat="42.94558" lon="0.31977">
        <ele>1439.6</ele>
        <time>2021-05-29T07:17:00Z</time>
      </trkpt>
      <trkpt lat="42.94565" lon="0.31965">
        <ele>1439.8</ele>
        <time>2021-05-29T07:17:04Z</time>
      </trkpt>
      <trkpt lat="42.94575" lon="0.31951">
        <ele>1440</ele>
        <time>2021-05-29T07:17:08Z</time>
      </trkpt>
      <trkpt lat="42.94578" lon="0.31948">
        <ele>1439.8</ele>
        <time>2021-05-29T07:17:09Z</time>
      </trkpt>
      <trkpt lat="42.94581" lon="0.31944">
        <ele>1440</ele>
        <time>2021-05-29T07:17:10Z</time>
      </trkpt>
      <trkpt lat="42.94585" lon="0.31935">
        <ele>1440</ele>
        <time>2021-05-29T07:17:12Z</time>
      </trkpt>
      <trkpt lat="42.94587" lon="0.31929">
        <ele>1439.8</ele>
        <time>2021-05-29T07:17:13Z</time>
      </trkpt>
      <trkpt lat="42.94591" lon="0.3192">
        <ele>1439.6</ele>
        <time>2021-05-29T07:17:15Z</time>
      </trkpt>
      <trkpt lat="42.94593" lon="0.31916">
        <ele>1439.6</ele>
        <time>2021-05-29T07:17:16Z</time>
      </trkpt>
      <trkpt lat="42.94594" lon="0.31914">
        <ele>1439.6</ele>
        <time>2021-05-29T07:17:17Z</time>
      </trkpt>
      <trkpt lat="42.94595" lon="0.31912">
        <ele>1439.4</ele>
        <time>2021-05-29T07:17:18Z</time>
      </trkpt>
      <trkpt lat="42.94597" lon="0.3191">
        <ele>1439.4</ele>
        <time>2021-05-29T07:17:19Z</time>
      </trkpt>
      <trkpt lat="42.94599" lon="0.31909">
        <ele>1439.6</ele>
        <time>2021-05-29T07:17:20Z</time>
      </trkpt>
      <trkpt lat="42.94599" lon="0.31908">
        <ele>1439.6</ele>
        <time>2021-05-29T07:17:21Z</time>
      </trkpt>
      <trkpt lat="42.94601" lon="0.31907">
        <ele>1439.8</ele>
        <time>2021-05-29T07:17:22Z</time>
      </trkpt>
      <trkpt lat="42.94601" lon="0.31907">
        <ele>1439.8</ele>
        <time>2021-05-29T07:17:23Z</time>
      </trkpt>
      <trkpt lat="42.94601" lon="0.31906">
        <ele>1439.8</ele>
        <time>2021-05-29T07:17:24Z</time>
      </trkpt>
      <trkpt lat="42.94602" lon="0.31905">
        <ele>1439.8</ele>
        <time>2021-05-29T07:17:25Z</time>
      </trkpt>
      <trkpt lat="42.94603" lon="0.31903">
        <ele>1439.8</ele>
        <time>2021-05-29T07:17:26Z</time>
      </trkpt>
      <trkpt lat="42.94605" lon="0.31898">
        <ele>1440.2</ele>
        <time>2021-05-29T07:17:28Z</time>
      </trkpt>
      <trkpt lat="42.94606" lon="0.31895">
        <ele>1440.4</ele>
        <time>2021-05-29T07:17:29Z</time>
      </trkpt>
      <trkpt lat="42.9461" lon="0.31886">
        <ele>1440.6</ele>
        <time>2021-05-29T07:17:32Z</time>
      </trkpt>
      <trkpt lat="42.94612" lon="0.31883">
        <ele>1440.6</ele>
        <time>2021-05-29T07:17:33Z</time>
      </trkpt>
      <trkpt lat="42.94627" lon="0.31866">
        <ele>1440.8</ele>
        <time>2021-05-29T07:17:41Z</time>
      </trkpt>
      <trkpt lat="42.94635" lon="0.31854">
        <ele>1441.2</ele>
        <time>2021-05-29T07:17:45Z</time>
      </trkpt>
      <trkpt lat="42.94637" lon="0.3185">
        <ele>1441.2</ele>
        <time>2021-05-29T07:17:46Z</time>
      </trkpt>
      <trkpt lat="42.94641" lon="0.31844">
        <ele>1441.2</ele>
        <time>2021-05-29T07:17:48Z</time>
      </trkpt>
      <trkpt lat="42.94651" lon="0.3183">
        <ele>1441.6</ele>
        <time>2021-05-29T07:17:53Z</time>
      </trkpt>
      <trkpt lat="42.94653" lon="0.31827">
        <ele>1441.4</ele>
        <time>2021-05-29T07:17:54Z</time>
      </trkpt>
      <trkpt lat="42.94658" lon="0.31823">
        <ele>1441.4</ele>
        <time>2021-05-29T07:17:56Z</time>
      </trkpt>
      <trkpt lat="42.9466" lon="0.31821">
        <ele>1441.4</ele>
        <time>2021-05-29T07:17:57Z</time>
      </trkpt>
      <trkpt lat="42.94663" lon="0.31819">
        <ele>1441.2</ele>
        <time>2021-05-29T07:17:58Z</time>
      </trkpt>
      <trkpt lat="42.94665" lon="0.31818">
        <ele>1441.4</ele>
        <time>2021-05-29T07:17:59Z</time>
      </trkpt>
      <trkpt lat="42.94668" lon="0.31816">
        <ele>1441.2</ele>
        <time>2021-05-29T07:18:00Z</time>
      </trkpt>
      <trkpt lat="42.94671" lon="0.31815">
        <ele>1441.2</ele>
        <time>2021-05-29T07:18:01Z</time>
      </trkpt>
      <trkpt lat="42.94673" lon="0.31815">
        <ele>1441.4</ele>
        <time>2021-05-29T07:18:02Z</time>
      </trkpt>
      <trkpt lat="42.94679" lon="0.31814">
        <ele>1441.4</ele>
        <time>2021-05-29T07:18:04Z</time>
      </trkpt>
      <trkpt lat="42.94685" lon="0.31811">
        <ele>1441.2</ele>
        <time>2021-05-29T07:18:06Z</time>
      </trkpt>
      <trkpt lat="42.94688" lon="0.31809">
        <ele>1441.4</ele>
        <time>2021-05-29T07:18:07Z</time>
      </trkpt>
      <trkpt lat="42.9469" lon="0.31807">
        <ele>1441.2</ele>
        <time>2021-05-29T07:18:08Z</time>
      </trkpt>
      <trkpt lat="42.94691" lon="0.31804">
        <ele>1441</ele>
        <time>2021-05-29T07:18:09Z</time>
      </trkpt>
      <trkpt lat="42.94692" lon="0.31802">
        <ele>1441</ele>
        <time>2021-05-29T07:18:10Z</time>
      </trkpt>
      <trkpt lat="42.94692" lon="0.318">
        <ele>1440.8</ele>
        <time>2021-05-29T07:18:11Z</time>
      </trkpt>
      <trkpt lat="42.94693" lon="0.31798">
        <ele>1440.8</ele>
        <time>2021-05-29T07:18:12Z</time>
      </trkpt>
      <trkpt lat="42.94694" lon="0.31796">
        <ele>1440.6</ele>
        <time>2021-05-29T07:18:13Z</time>
      </trkpt>
      <trkpt lat="42.94694" lon="0.31794">
        <ele>1440.6</ele>
        <time>2021-05-29T07:18:14Z</time>
      </trkpt>
      <trkpt lat="42.94694" lon="0.31793">
        <ele>1440.4</ele>
        <time>2021-05-29T07:18:15Z</time>
      </trkpt>
      <trkpt lat="42.94694" lon="0.31792">
        <ele>1440.4</ele>
        <time>2021-05-29T07:18:16Z</time>
      </trkpt>
      <trkpt lat="42.94694" lon="0.31792">
        <ele>1440.4</ele>
        <time>2021-05-29T07:18:17Z</time>
      </trkpt>
      <trkpt lat="42.94694" lon="0.31789">
        <ele>1440.4</ele>
        <time>2021-05-29T07:18:20Z</time>
      </trkpt>
      <trkpt lat="42.94695" lon="0.31787">
        <ele>1440.4</ele>
        <time>2021-05-29T07:18:22Z</time>
      </trkpt>
      <trkpt lat="42.94695" lon="0.31787">
        <ele>1440.2</ele>
        <time>2021-05-29T07:18:23Z</time>
      </trkpt>
      <trkpt lat="42.94695" lon="0.31787">
        <ele>1440.2</ele>
        <time>2021-05-29T07:18:24Z</time>
      </trkpt>
      <trkpt lat="42.94695" lon="0.31781">
        <ele>1440</ele>
        <time>2021-05-29T07:18:27Z</time>
      </trkpt>
      <trkpt lat="42.94693" lon="0.31776">
        <ele>1439.8</ele>
        <time>2021-05-29T07:18:29Z</time>
      </trkpt>
      <trkpt lat="42.94692" lon="0.31774">
        <ele>1439.6</ele>
        <time>2021-05-29T07:18:30Z</time>
      </trkpt>
      <trkpt lat="42.94692" lon="0.3177">
        <ele>1439.4</ele>
        <time>2021-05-29T07:18:31Z</time>
      </trkpt>
      <trkpt lat="42.94692" lon="0.31763">
        <ele>1439</ele>
        <time>2021-05-29T07:18:33Z</time>
      </trkpt>
      <trkpt lat="42.94692" lon="0.31759">
        <ele>1438.8</ele>
        <time>2021-05-29T07:18:34Z</time>
      </trkpt>
      <trkpt lat="42.94692" lon="0.31752">
        <ele>1438.8</ele>
        <time>2021-05-29T07:18:35Z</time>
      </trkpt>
      <trkpt lat="42.94693" lon="0.3175">
        <ele>1438.4</ele>
        <time>2021-05-29T07:18:36Z</time>
      </trkpt>
      <trkpt lat="42.94695" lon="0.31744">
        <ele>1438.4</ele>
        <time>2021-05-29T07:18:37Z</time>
      </trkpt>
      <trkpt lat="42.94696" lon="0.31741">
        <ele>1438</ele>
        <time>2021-05-29T07:18:38Z</time>
      </trkpt>
      <trkpt lat="42.94698" lon="0.31736">
        <ele>1438</ele>
        <time>2021-05-29T07:18:39Z</time>
      </trkpt>
      <trkpt lat="42.947" lon="0.31721">
        <ele>1437.4</ele>
        <time>2021-05-29T07:18:42Z</time>
      </trkpt>
      <trkpt lat="42.947" lon="0.31713">
        <ele>1437</ele>
        <time>2021-05-29T07:18:43Z</time>
      </trkpt>
      <trkpt lat="42.947" lon="0.31709">
        <ele>1436.8</ele>
        <time>2021-05-29T07:18:44Z</time>
      </trkpt>
      <trkpt lat="42.94699" lon="0.31704">
        <ele>1436.6</ele>
        <time>2021-05-29T07:18:45Z</time>
      </trkpt>
      <trkpt lat="42.94697" lon="0.31702">
        <ele>1436.6</ele>
        <time>2021-05-29T07:18:46Z</time>
      </trkpt>
      <trkpt lat="42.9469" lon="0.31697">
        <ele>1436.4</ele>
        <time>2021-05-29T07:18:48Z</time>
      </trkpt>
      <trkpt lat="42.94687" lon="0.31686">
        <ele>1436.4</ele>
        <time>2021-05-29T07:18:50Z</time>
      </trkpt>
      <trkpt lat="42.94687" lon="0.31683">
        <ele>1436.4</ele>
        <time>2021-05-29T07:18:51Z</time>
      </trkpt>
      <trkpt lat="42.94687" lon="0.31681">
        <ele>1436.4</ele>
        <time>2021-05-29T07:18:52Z</time>
      </trkpt>
      <trkpt lat="42.94687" lon="0.31679">
        <ele>1436.4</ele>
        <time>2021-05-29T07:18:53Z</time>
      </trkpt>
      <trkpt lat="42.94687" lon="0.31674">
        <ele>1436.6</ele>
        <time>2021-05-29T07:18:55Z</time>
      </trkpt>
      <trkpt lat="42.94688" lon="0.31669">
        <ele>1437.2</ele>
        <time>2021-05-29T07:18:57Z</time>
      </trkpt>
      <trkpt lat="42.94685" lon="0.31668">
        <ele>1437.2</ele>
        <time>2021-05-29T07:18:58Z</time>
      </trkpt>
      <trkpt lat="42.94685" lon="0.31666">
        <ele>1437.4</ele>
        <time>2021-05-29T07:18:59Z</time>
      </trkpt>
      <trkpt lat="42.94685" lon="0.31664">
        <ele>1437.8</ele>
        <time>2021-05-29T07:19:00Z</time>
      </trkpt>
      <trkpt lat="42.94685" lon="0.31663">
        <ele>1437.8</ele>
        <time>2021-05-29T07:19:01Z</time>
      </trkpt>
      <trkpt lat="42.94685" lon="0.3166">
        <ele>1438.2</ele>
        <time>2021-05-29T07:19:02Z</time>
      </trkpt>
      <trkpt lat="42.94684" lon="0.31658">
        <ele>1438.2</ele>
        <time>2021-05-29T07:19:03Z</time>
      </trkpt>
      <trkpt lat="42.94683" lon="0.31655">
        <ele>1438.4</ele>
        <time>2021-05-29T07:19:04Z</time>
      </trkpt>
      <trkpt lat="42.94682" lon="0.31651">
        <ele>1438.6</ele>
        <time>2021-05-29T07:19:05Z</time>
      </trkpt>
      <trkpt lat="42.9468" lon="0.31647">
        <ele>1438.6</ele>
        <time>2021-05-29T07:19:06Z</time>
      </trkpt>
      <trkpt lat="42.94679" lon="0.31643">
        <ele>1438.8</ele>
        <time>2021-05-29T07:19:07Z</time>
      </trkpt>
      <trkpt lat="42.9468" lon="0.31641">
        <ele>1439</ele>
        <time>2021-05-29T07:19:08Z</time>
      </trkpt>
      <trkpt lat="42.9468" lon="0.31639">
        <ele>1439</ele>
        <time>2021-05-29T07:19:09Z</time>
      </trkpt>
      <trkpt lat="42.9468" lon="0.31637">
        <ele>1439.2</ele>
        <time>2021-05-29T07:19:10Z</time>
      </trkpt>
      <trkpt lat="42.94679" lon="0.31636">
        <ele>1439.2</ele>
        <time>2021-05-29T07:19:11Z</time>
      </trkpt>
      <trkpt lat="42.94679" lon="0.31634">
        <ele>1439.2</ele>
        <time>2021-05-29T07:19:12Z</time>
      </trkpt>
      <trkpt lat="42.9468" lon="0.31633">
        <ele>1439.4</ele>
        <time>2021-05-29T07:19:13Z</time>
      </trkpt>
      <trkpt lat="42.94681" lon="0.31632">
        <ele>1439.4</ele>
        <time>2021-05-29T07:19:14Z</time>
      </trkpt>
      <trkpt lat="42.94681" lon="0.3163">
        <ele>1439.6</ele>
        <time>2021-05-29T07:19:15Z</time>
      </trkpt>
      <trkpt lat="42.94681" lon="0.31629">
        <ele>1439.8</ele>
        <time>2021-05-29T07:19:16Z</time>
      </trkpt>
      <trkpt lat="42.94681" lon="0.31627">
        <ele>1440</ele>
        <time>2021-05-29T07:19:17Z</time>
      </trkpt>
      <trkpt lat="42.94681" lon="0.31625">
        <ele>1440</ele>
        <time>2021-05-29T07:19:18Z</time>
      </trkpt>
      <trkpt lat="42.94681" lon="0.3162">
        <ele>1440.2</ele>
        <time>2021-05-29T07:19:20Z</time>
      </trkpt>
      <trkpt lat="42.94679" lon="0.31618">
        <ele>1440.2</ele>
        <time>2021-05-29T07:19:21Z</time>
      </trkpt>
      <trkpt lat="42.94678" lon="0.31615">
        <ele>1440.2</ele>
        <time>2021-05-29T07:19:22Z</time>
      </trkpt>
      <trkpt lat="42.94677" lon="0.31612">
        <ele>1440.4</ele>
        <time>2021-05-29T07:19:23Z</time>
      </trkpt>
      <trkpt lat="42.94676" lon="0.31609">
        <ele>1440.4</ele>
        <time>2021-05-29T07:19:24Z</time>
      </trkpt>
      <trkpt lat="42.94675" lon="0.31605">
        <ele>1440.4</ele>
        <time>2021-05-29T07:19:25Z</time>
      </trkpt>
      <trkpt lat="42.94674" lon="0.31602">
        <ele>1440.4</ele>
        <time>2021-05-29T07:19:26Z</time>
      </trkpt>
      <trkpt lat="42.94673" lon="0.31599">
        <ele>1440.4</ele>
        <time>2021-05-29T07:19:27Z</time>
      </trkpt>
      <trkpt lat="42.94668" lon="0.3159">
        <ele>1440.4</ele>
        <time>2021-05-29T07:19:30Z</time>
      </trkpt>
      <trkpt lat="42.94661" lon="0.31577">
        <ele>1440.6</ele>
        <time>2021-05-29T07:19:36Z</time>
      </trkpt>
      <trkpt lat="42.94658" lon="0.31575">
        <ele>1440.6</ele>
        <time>2021-05-29T07:19:37Z</time>
      </trkpt>
      <trkpt lat="42.94657" lon="0.31573">
        <ele>1440.6</ele>
        <time>2021-05-29T07:19:38Z</time>
      </trkpt>
      <trkpt lat="42.94656" lon="0.31571">
        <ele>1441.2</ele>
        <time>2021-05-29T07:19:39Z</time>
      </trkpt>
      <trkpt lat="42.94655" lon="0.3157">
        <ele>1441.4</ele>
        <time>2021-05-29T07:19:40Z</time>
      </trkpt>
      <trkpt lat="42.94653" lon="0.31568">
        <ele>1441.4</ele>
        <time>2021-05-29T07:19:41Z</time>
      </trkpt>
      <trkpt lat="42.9465" lon="0.31564">
        <ele>1441.8</ele>
        <time>2021-05-29T07:19:43Z</time>
      </trkpt>
      <trkpt lat="42.94648" lon="0.3156">
        <ele>1442.2</ele>
        <time>2021-05-29T07:19:45Z</time>
      </trkpt>
      <trkpt lat="42.94644" lon="0.31555">
        <ele>1442.8</ele>
        <time>2021-05-29T07:19:48Z</time>
      </trkpt>
      <trkpt lat="42.94643" lon="0.31553">
        <ele>1442.8</ele>
        <time>2021-05-29T07:19:49Z</time>
      </trkpt>
      <trkpt lat="42.94642" lon="0.31552">
        <ele>1443</ele>
        <time>2021-05-29T07:19:50Z</time>
      </trkpt>
      <trkpt lat="42.94641" lon="0.3155">
        <ele>1443</ele>
        <time>2021-05-29T07:19:51Z</time>
      </trkpt>
      <trkpt lat="42.9464" lon="0.31549">
        <ele>1443.2</ele>
        <time>2021-05-29T07:19:52Z</time>
      </trkpt>
      <trkpt lat="42.94639" lon="0.31547">
        <ele>1443.2</ele>
        <time>2021-05-29T07:19:53Z</time>
      </trkpt>
      <trkpt lat="42.94638" lon="0.31545">
        <ele>1443.2</ele>
        <time>2021-05-29T07:19:54Z</time>
      </trkpt>
      <trkpt lat="42.94638" lon="0.31544">
        <ele>1443.4</ele>
        <time>2021-05-29T07:19:55Z</time>
      </trkpt>
      <trkpt lat="42.94637" lon="0.31543">
        <ele>1443.4</ele>
        <time>2021-05-29T07:19:56Z</time>
      </trkpt>
      <trkpt lat="42.94637" lon="0.31543">
        <ele>1443.8</ele>
        <time>2021-05-29T07:20:04Z</time>
      </trkpt>
      <trkpt lat="42.94634" lon="0.31536">
        <ele>1443.8</ele>
        <time>2021-05-29T07:20:30Z</time>
      </trkpt>
      <trkpt lat="42.9463" lon="0.31529">
        <ele>1444</ele>
        <time>2021-05-29T07:20:33Z</time>
      </trkpt>
      <trkpt lat="42.94626" lon="0.31518">
        <ele>1444</ele>
        <time>2021-05-29T07:20:37Z</time>
      </trkpt>
      <trkpt lat="42.94619" lon="0.31502">
        <ele>1444</ele>
        <time>2021-05-29T07:20:43Z</time>
      </trkpt>
      <trkpt lat="42.94611" lon="0.31487">
        <ele>1444.4</ele>
        <time>2021-05-29T07:20:49Z</time>
      </trkpt>
      <trkpt lat="42.946" lon="0.31461">
        <ele>1444.8</ele>
        <time>2021-05-29T07:20:59Z</time>
      </trkpt>
      <trkpt lat="42.94599" lon="0.31458">
        <ele>1445</ele>
        <time>2021-05-29T07:21:00Z</time>
      </trkpt>
      <trkpt lat="42.94598" lon="0.31456">
        <ele>1445</ele>
        <time>2021-05-29T07:21:01Z</time>
      </trkpt>
      <trkpt lat="42.94598" lon="0.31453">
        <ele>1445.2</ele>
        <time>2021-05-29T07:21:02Z</time>
      </trkpt>
      <trkpt lat="42.94598" lon="0.31451">
        <ele>1445.2</ele>
        <time>2021-05-29T07:21:03Z</time>
      </trkpt>
      <trkpt lat="42.94597" lon="0.31448">
        <ele>1445.2</ele>
        <time>2021-05-29T07:21:04Z</time>
      </trkpt>
      <trkpt lat="42.94597" lon="0.31446">
        <ele>1445.4</ele>
        <time>2021-05-29T07:21:05Z</time>
      </trkpt>
      <trkpt lat="42.94596" lon="0.31443">
        <ele>1445.4</ele>
        <time>2021-05-29T07:21:06Z</time>
      </trkpt>
      <trkpt lat="42.94595" lon="0.31438">
        <ele>1445.6</ele>
        <time>2021-05-29T07:21:08Z</time>
      </trkpt>
      <trkpt lat="42.94594" lon="0.3143">
        <ele>1446</ele>
        <time>2021-05-29T07:21:11Z</time>
      </trkpt>
      <trkpt lat="42.94594" lon="0.31428">
        <ele>1446.2</ele>
        <time>2021-05-29T07:21:12Z</time>
      </trkpt>
      <trkpt lat="42.94594" lon="0.31426">
        <ele>1446.2</ele>
        <time>2021-05-29T07:21:13Z</time>
      </trkpt>
      <trkpt lat="42.94591" lon="0.31418">
        <ele>1446.6</ele>
        <time>2021-05-29T07:21:16Z</time>
      </trkpt>
      <trkpt lat="42.9459" lon="0.31409">
        <ele>1447</ele>
        <time>2021-05-29T07:21:19Z</time>
      </trkpt>
      <trkpt lat="42.94588" lon="0.31392">
        <ele>1447.8</ele>
        <time>2021-05-29T07:21:25Z</time>
      </trkpt>
      <trkpt lat="42.94588" lon="0.31387">
        <ele>1448</ele>
        <time>2021-05-29T07:21:27Z</time>
      </trkpt>
      <trkpt lat="42.94587" lon="0.31384">
        <ele>1448</ele>
        <time>2021-05-29T07:21:28Z</time>
      </trkpt>
      <trkpt lat="42.94587" lon="0.31381">
        <ele>1448.2</ele>
        <time>2021-05-29T07:21:29Z</time>
      </trkpt>
      <trkpt lat="42.94586" lon="0.31378">
        <ele>1448.2</ele>
        <time>2021-05-29T07:21:30Z</time>
      </trkpt>
      <trkpt lat="42.94586" lon="0.31376">
        <ele>1448.4</ele>
        <time>2021-05-29T07:21:31Z</time>
      </trkpt>
      <trkpt lat="42.94586" lon="0.31373">
        <ele>1448.4</ele>
        <time>2021-05-29T07:21:32Z</time>
      </trkpt>
      <trkpt lat="42.94586" lon="0.3137">
        <ele>1448.4</ele>
        <time>2021-05-29T07:21:33Z</time>
      </trkpt>
      <trkpt lat="42.94586" lon="0.31368">
        <ele>1448.6</ele>
        <time>2021-05-29T07:21:34Z</time>
      </trkpt>
      <trkpt lat="42.94585" lon="0.31365">
        <ele>1448.8</ele>
        <time>2021-05-29T07:21:35Z</time>
      </trkpt>
      <trkpt lat="42.94585" lon="0.31363">
        <ele>1449</ele>
        <time>2021-05-29T07:21:36Z</time>
      </trkpt>
      <trkpt lat="42.94585" lon="0.3136">
        <ele>1449.2</ele>
        <time>2021-05-29T07:21:37Z</time>
      </trkpt>
      <trkpt lat="42.94584" lon="0.31357">
        <ele>1449.4</ele>
        <time>2021-05-29T07:21:38Z</time>
      </trkpt>
      <trkpt lat="42.94584" lon="0.31354">
        <ele>1449.4</ele>
        <time>2021-05-29T07:21:39Z</time>
      </trkpt>
      <trkpt lat="42.94584" lon="0.31351">
        <ele>1449.6</ele>
        <time>2021-05-29T07:21:40Z</time>
      </trkpt>
      <trkpt lat="42.94584" lon="0.31348">
        <ele>1449.6</ele>
        <time>2021-05-29T07:21:41Z</time>
      </trkpt>
      <trkpt lat="42.94584" lon="0.31345">
        <ele>1449.6</ele>
        <time>2021-05-29T07:21:42Z</time>
      </trkpt>
      <trkpt lat="42.94583" lon="0.31341">
        <ele>1449.8</ele>
        <time>2021-05-29T07:21:43Z</time>
      </trkpt>
      <trkpt lat="42.94582" lon="0.31337">
        <ele>1449.8</ele>
        <time>2021-05-29T07:21:44Z</time>
      </trkpt>
      <trkpt lat="42.94582" lon="0.31334">
        <ele>1449.8</ele>
        <time>2021-05-29T07:21:45Z</time>
      </trkpt>
      <trkpt lat="42.94582" lon="0.3133">
        <ele>1449.8</ele>
        <time>2021-05-29T07:21:46Z</time>
      </trkpt>
      <trkpt lat="42.94581" lon="0.31327">
        <ele>1449.8</ele>
        <time>2021-05-29T07:21:47Z</time>
      </trkpt>
      <trkpt lat="42.94581" lon="0.31323">
        <ele>1449.8</ele>
        <time>2021-05-29T07:21:48Z</time>
      </trkpt>
      <trkpt lat="42.9458" lon="0.3132">
        <ele>1449.8</ele>
        <time>2021-05-29T07:21:49Z</time>
      </trkpt>
      <trkpt lat="42.94575" lon="0.31299">
        <ele>1449.4</ele>
        <time>2021-05-29T07:21:55Z</time>
      </trkpt>
      <trkpt lat="42.94565" lon="0.31278">
        <ele>1449.4</ele>
        <time>2021-05-29T07:22:02Z</time>
      </trkpt>
      <trkpt lat="42.94563" lon="0.31272">
        <ele>1449.4</ele>
        <time>2021-05-29T07:22:04Z</time>
      </trkpt>
      <trkpt lat="42.94562" lon="0.31269">
        <ele>1449.4</ele>
        <time>2021-05-29T07:22:05Z</time>
      </trkpt>
      <trkpt lat="42.94561" lon="0.31267">
        <ele>1449.6</ele>
        <time>2021-05-29T07:22:06Z</time>
      </trkpt>
      <trkpt lat="42.9456" lon="0.31264">
        <ele>1449.6</ele>
        <time>2021-05-29T07:22:07Z</time>
      </trkpt>
      <trkpt lat="42.94559" lon="0.31261">
        <ele>1449.6</ele>
        <time>2021-05-29T07:22:08Z</time>
      </trkpt>
      <trkpt lat="42.94559" lon="0.31259">
        <ele>1450</ele>
        <time>2021-05-29T07:22:09Z</time>
      </trkpt>
      <trkpt lat="42.94558" lon="0.31256">
        <ele>1450</ele>
        <time>2021-05-29T07:22:10Z</time>
      </trkpt>
      <trkpt lat="42.94558" lon="0.31254">
        <ele>1450.4</ele>
        <time>2021-05-29T07:22:11Z</time>
      </trkpt>
      <trkpt lat="42.94557" lon="0.31252">
        <ele>1450.6</ele>
        <time>2021-05-29T07:22:12Z</time>
      </trkpt>
      <trkpt lat="42.94557" lon="0.31249">
        <ele>1450.8</ele>
        <time>2021-05-29T07:22:13Z</time>
      </trkpt>
      <trkpt lat="42.94557" lon="0.31247">
        <ele>1451</ele>
        <time>2021-05-29T07:22:14Z</time>
      </trkpt>
      <trkpt lat="42.94556" lon="0.31245">
        <ele>1451.4</ele>
        <time>2021-05-29T07:22:15Z</time>
      </trkpt>
      <trkpt lat="42.94556" lon="0.31242">
        <ele>1451.4</ele>
        <time>2021-05-29T07:22:16Z</time>
      </trkpt>
      <trkpt lat="42.94555" lon="0.3124">
        <ele>1451.6</ele>
        <time>2021-05-29T07:22:17Z</time>
      </trkpt>
      <trkpt lat="42.94555" lon="0.31238">
        <ele>1451.8</ele>
        <time>2021-05-29T07:22:18Z</time>
      </trkpt>
      <trkpt lat="42.94554" lon="0.31235">
        <ele>1452</ele>
        <time>2021-05-29T07:22:19Z</time>
      </trkpt>
      <trkpt lat="42.94553" lon="0.31233">
        <ele>1452.2</ele>
        <time>2021-05-29T07:22:20Z</time>
      </trkpt>
      <trkpt lat="42.94552" lon="0.31227">
        <ele>1452.4</ele>
        <time>2021-05-29T07:22:22Z</time>
      </trkpt>
      <trkpt lat="42.94551" lon="0.31224">
        <ele>1452.6</ele>
        <time>2021-05-29T07:22:23Z</time>
      </trkpt>
      <trkpt lat="42.9455" lon="0.31222">
        <ele>1452.6</ele>
        <time>2021-05-29T07:22:24Z</time>
      </trkpt>
      <trkpt lat="42.9455" lon="0.31219">
        <ele>1452.8</ele>
        <time>2021-05-29T07:22:25Z</time>
      </trkpt>
      <trkpt lat="42.94549" lon="0.31217">
        <ele>1452.8</ele>
        <time>2021-05-29T07:22:26Z</time>
      </trkpt>
      <trkpt lat="42.94549" lon="0.31214">
        <ele>1453</ele>
        <time>2021-05-29T07:22:27Z</time>
      </trkpt>
      <trkpt lat="42.94548" lon="0.31212">
        <ele>1453</ele>
        <time>2021-05-29T07:22:28Z</time>
      </trkpt>
      <trkpt lat="42.94547" lon="0.31209">
        <ele>1453</ele>
        <time>2021-05-29T07:22:29Z</time>
      </trkpt>
      <trkpt lat="42.94546" lon="0.31207">
        <ele>1453.2</ele>
        <time>2021-05-29T07:22:30Z</time>
      </trkpt>
      <trkpt lat="42.94546" lon="0.31205">
        <ele>1453.4</ele>
        <time>2021-05-29T07:22:31Z</time>
      </trkpt>
      <trkpt lat="42.94546" lon="0.31203">
        <ele>1453.4</ele>
        <time>2021-05-29T07:22:32Z</time>
      </trkpt>
      <trkpt lat="42.94545" lon="0.31201">
        <ele>1453.6</ele>
        <time>2021-05-29T07:22:33Z</time>
      </trkpt>
      <trkpt lat="42.94544" lon="0.31199">
        <ele>1453.6</ele>
        <time>2021-05-29T07:22:34Z</time>
      </trkpt>
      <trkpt lat="42.94544" lon="0.31197">
        <ele>1453.8</ele>
        <time>2021-05-29T07:22:35Z</time>
      </trkpt>
      <trkpt lat="42.94544" lon="0.31195">
        <ele>1454</ele>
        <time>2021-05-29T07:22:36Z</time>
      </trkpt>
      <trkpt lat="42.94543" lon="0.31193">
        <ele>1454</ele>
        <time>2021-05-29T07:22:37Z</time>
      </trkpt>
      <trkpt lat="42.94543" lon="0.3119">
        <ele>1454</ele>
        <time>2021-05-29T07:22:38Z</time>
      </trkpt>
      <trkpt lat="42.94543" lon="0.31188">
        <ele>1454.2</ele>
        <time>2021-05-29T07:22:39Z</time>
      </trkpt>
      <trkpt lat="42.94543" lon="0.31186">
        <ele>1454.2</ele>
        <time>2021-05-29T07:22:40Z</time>
      </trkpt>
      <trkpt lat="42.94543" lon="0.31183">
        <ele>1454.4</ele>
        <time>2021-05-29T07:22:41Z</time>
      </trkpt>
      <trkpt lat="42.94542" lon="0.31181">
        <ele>1454.4</ele>
        <time>2021-05-29T07:22:42Z</time>
      </trkpt>
      <trkpt lat="42.94542" lon="0.31179">
        <ele>1454.6</ele>
        <time>2021-05-29T07:22:43Z</time>
      </trkpt>
      <trkpt lat="42.94542" lon="0.31178">
        <ele>1454.6</ele>
        <time>2021-05-29T07:22:44Z</time>
      </trkpt>
      <trkpt lat="42.94542" lon="0.31175">
        <ele>1454.8</ele>
        <time>2021-05-29T07:22:45Z</time>
      </trkpt>
      <trkpt lat="42.94542" lon="0.31173">
        <ele>1455</ele>
        <time>2021-05-29T07:22:46Z</time>
      </trkpt>
      <trkpt lat="42.94542" lon="0.31171">
        <ele>1455</ele>
        <time>2021-05-29T07:22:47Z</time>
      </trkpt>
      <trkpt lat="42.94542" lon="0.31169">
        <ele>1455.2</ele>
        <time>2021-05-29T07:22:48Z</time>
      </trkpt>
      <trkpt lat="42.94541" lon="0.31167">
        <ele>1455.4</ele>
        <time>2021-05-29T07:22:49Z</time>
      </trkpt>
      <trkpt lat="42.94541" lon="0.31165">
        <ele>1455.6</ele>
        <time>2021-05-29T07:22:50Z</time>
      </trkpt>
      <trkpt lat="42.94541" lon="0.31163">
        <ele>1455.8</ele>
        <time>2021-05-29T07:22:51Z</time>
      </trkpt>
      <trkpt lat="42.94541" lon="0.3116">
        <ele>1455.8</ele>
        <time>2021-05-29T07:22:52Z</time>
      </trkpt>
      <trkpt lat="42.94541" lon="0.31158">
        <ele>1456</ele>
        <time>2021-05-29T07:22:53Z</time>
      </trkpt>
      <trkpt lat="42.94541" lon="0.31156">
        <ele>1456</ele>
        <time>2021-05-29T07:22:54Z</time>
      </trkpt>
      <trkpt lat="42.94541" lon="0.31154">
        <ele>1456.2</ele>
        <time>2021-05-29T07:22:55Z</time>
      </trkpt>
      <trkpt lat="42.94541" lon="0.31152">
        <ele>1456.4</ele>
        <time>2021-05-29T07:22:56Z</time>
      </trkpt>
      <trkpt lat="42.94541" lon="0.31151">
        <ele>1456.6</ele>
        <time>2021-05-29T07:22:57Z</time>
      </trkpt>
      <trkpt lat="42.94541" lon="0.31149">
        <ele>1456.6</ele>
        <time>2021-05-29T07:22:58Z</time>
      </trkpt>
      <trkpt lat="42.94541" lon="0.31147">
        <ele>1456.8</ele>
        <time>2021-05-29T07:22:59Z</time>
      </trkpt>
      <trkpt lat="42.94541" lon="0.31145">
        <ele>1456.8</ele>
        <time>2021-05-29T07:23:00Z</time>
      </trkpt>
      <trkpt lat="42.94541" lon="0.31143">
        <ele>1457</ele>
        <time>2021-05-29T07:23:01Z</time>
      </trkpt>
      <trkpt lat="42.9454" lon="0.31141">
        <ele>1457</ele>
        <time>2021-05-29T07:23:02Z</time>
      </trkpt>
      <trkpt lat="42.9454" lon="0.3114">
        <ele>1457.2</ele>
        <time>2021-05-29T07:23:03Z</time>
      </trkpt>
      <trkpt lat="42.94539" lon="0.31138">
        <ele>1457.6</ele>
        <time>2021-05-29T07:23:04Z</time>
      </trkpt>
      <trkpt lat="42.94539" lon="0.31136">
        <ele>1457.6</ele>
        <time>2021-05-29T07:23:05Z</time>
      </trkpt>
      <trkpt lat="42.94539" lon="0.31134">
        <ele>1457.8</ele>
        <time>2021-05-29T07:23:06Z</time>
      </trkpt>
      <trkpt lat="42.94538" lon="0.31132">
        <ele>1458</ele>
        <time>2021-05-29T07:23:07Z</time>
      </trkpt>
      <trkpt lat="42.94538" lon="0.3113">
        <ele>1458.2</ele>
        <time>2021-05-29T07:23:08Z</time>
      </trkpt>
      <trkpt lat="42.94538" lon="0.31129">
        <ele>1458.2</ele>
        <time>2021-05-29T07:23:09Z</time>
      </trkpt>
      <trkpt lat="42.94538" lon="0.31127">
        <ele>1458.4</ele>
        <time>2021-05-29T07:23:10Z</time>
      </trkpt>
      <trkpt lat="42.94537" lon="0.31125">
        <ele>1458.4</ele>
        <time>2021-05-29T07:23:11Z</time>
      </trkpt>
      <trkpt lat="42.94537" lon="0.31123">
        <ele>1458.6</ele>
        <time>2021-05-29T07:23:12Z</time>
      </trkpt>
      <trkpt lat="42.94537" lon="0.31121">
        <ele>1458.8</ele>
        <time>2021-05-29T07:23:13Z</time>
      </trkpt>
      <trkpt lat="42.94537" lon="0.31119">
        <ele>1459</ele>
        <time>2021-05-29T07:23:14Z</time>
      </trkpt>
      <trkpt lat="42.94536" lon="0.31117">
        <ele>1459</ele>
        <time>2021-05-29T07:23:15Z</time>
      </trkpt>
      <trkpt lat="42.94536" lon="0.31115">
        <ele>1459</ele>
        <time>2021-05-29T07:23:16Z</time>
      </trkpt>
      <trkpt lat="42.94536" lon="0.31114">
        <ele>1459.2</ele>
        <time>2021-05-29T07:23:17Z</time>
      </trkpt>
      <trkpt lat="42.94535" lon="0.31112">
        <ele>1459.4</ele>
        <time>2021-05-29T07:23:18Z</time>
      </trkpt>
      <trkpt lat="42.94535" lon="0.3111">
        <ele>1459.6</ele>
        <time>2021-05-29T07:23:19Z</time>
      </trkpt>
      <trkpt lat="42.94534" lon="0.31108">
        <ele>1459.6</ele>
        <time>2021-05-29T07:23:20Z</time>
      </trkpt>
      <trkpt lat="42.94534" lon="0.31106">
        <ele>1459.8</ele>
        <time>2021-05-29T07:23:21Z</time>
      </trkpt>
      <trkpt lat="42.94534" lon="0.31104">
        <ele>1460</ele>
        <time>2021-05-29T07:23:22Z</time>
      </trkpt>
      <trkpt lat="42.94533" lon="0.31103">
        <ele>1460.2</ele>
        <time>2021-05-29T07:23:23Z</time>
      </trkpt>
      <trkpt lat="42.94533" lon="0.31101">
        <ele>1460.4</ele>
        <time>2021-05-29T07:23:24Z</time>
      </trkpt>
      <trkpt lat="42.94533" lon="0.31099">
        <ele>1460.8</ele>
        <time>2021-05-29T07:23:25Z</time>
      </trkpt>
      <trkpt lat="42.94533" lon="0.31097">
        <ele>1461</ele>
        <time>2021-05-29T07:23:26Z</time>
      </trkpt>
      <trkpt lat="42.94533" lon="0.31095">
        <ele>1461.2</ele>
        <time>2021-05-29T07:23:27Z</time>
      </trkpt>
      <trkpt lat="42.94534" lon="0.31094">
        <ele>1461.2</ele>
        <time>2021-05-29T07:23:28Z</time>
      </trkpt>
      <trkpt lat="42.94534" lon="0.31092">
        <ele>1461.4</ele>
        <time>2021-05-29T07:23:29Z</time>
      </trkpt>
      <trkpt lat="42.94534" lon="0.3109">
        <ele>1461.6</ele>
        <time>2021-05-29T07:23:30Z</time>
      </trkpt>
      <trkpt lat="42.94535" lon="0.31089">
        <ele>1461.8</ele>
        <time>2021-05-29T07:23:31Z</time>
      </trkpt>
      <trkpt lat="42.94535" lon="0.31087">
        <ele>1462</ele>
        <time>2021-05-29T07:23:32Z</time>
      </trkpt>
      <trkpt lat="42.94535" lon="0.31085">
        <ele>1462.2</ele>
        <time>2021-05-29T07:23:33Z</time>
      </trkpt>
      <trkpt lat="42.94536" lon="0.31083">
        <ele>1462.4</ele>
        <time>2021-05-29T07:23:34Z</time>
      </trkpt>
      <trkpt lat="42.94537" lon="0.31082">
        <ele>1462.6</ele>
        <time>2021-05-29T07:23:35Z</time>
      </trkpt>
      <trkpt lat="42.94537" lon="0.3108">
        <ele>1462.8</ele>
        <time>2021-05-29T07:23:36Z</time>
      </trkpt>
      <trkpt lat="42.94537" lon="0.31079">
        <ele>1463</ele>
        <time>2021-05-29T07:23:37Z</time>
      </trkpt>
      <trkpt lat="42.94538" lon="0.31077">
        <ele>1463.2</ele>
        <time>2021-05-29T07:23:38Z</time>
      </trkpt>
      <trkpt lat="42.94538" lon="0.31075">
        <ele>1463.4</ele>
        <time>2021-05-29T07:23:39Z</time>
      </trkpt>
      <trkpt lat="42.94537" lon="0.31074">
        <ele>1463.6</ele>
        <time>2021-05-29T07:23:40Z</time>
      </trkpt>
      <trkpt lat="42.94537" lon="0.31072">
        <ele>1463.8</ele>
        <time>2021-05-29T07:23:41Z</time>
      </trkpt>
      <trkpt lat="42.94537" lon="0.31071">
        <ele>1464</ele>
        <time>2021-05-29T07:23:42Z</time>
      </trkpt>
      <trkpt lat="42.94537" lon="0.31069">
        <ele>1464</ele>
        <time>2021-05-29T07:23:43Z</time>
      </trkpt>
      <trkpt lat="42.94538" lon="0.31068">
        <ele>1464.4</ele>
        <time>2021-05-29T07:23:44Z</time>
      </trkpt>
      <trkpt lat="42.94538" lon="0.31066">
        <ele>1464.4</ele>
        <time>2021-05-29T07:23:45Z</time>
      </trkpt>
      <trkpt lat="42.94538" lon="0.31065">
        <ele>1464.8</ele>
        <time>2021-05-29T07:23:46Z</time>
      </trkpt>
      <trkpt lat="42.94538" lon="0.31063">
        <ele>1464.8</ele>
        <time>2021-05-29T07:23:47Z</time>
      </trkpt>
      <trkpt lat="42.94538" lon="0.31061">
        <ele>1465</ele>
        <time>2021-05-29T07:23:48Z</time>
      </trkpt>
      <trkpt lat="42.94538" lon="0.3106">
        <ele>1465.2</ele>
        <time>2021-05-29T07:23:49Z</time>
      </trkpt>
      <trkpt lat="42.94538" lon="0.31058">
        <ele>1465.4</ele>
        <time>2021-05-29T07:23:50Z</time>
      </trkpt>
      <trkpt lat="42.94538" lon="0.31057">
        <ele>1465.6</ele>
        <time>2021-05-29T07:23:51Z</time>
      </trkpt>
      <trkpt lat="42.94538" lon="0.31055">
        <ele>1465.6</ele>
        <time>2021-05-29T07:23:52Z</time>
      </trkpt>
      <trkpt lat="42.94539" lon="0.31054">
        <ele>1465.8</ele>
        <time>2021-05-29T07:23:53Z</time>
      </trkpt>
      <trkpt lat="42.94539" lon="0.31052">
        <ele>1465.8</ele>
        <time>2021-05-29T07:23:54Z</time>
      </trkpt>
      <trkpt lat="42.94539" lon="0.31051">
        <ele>1466.2</ele>
        <time>2021-05-29T07:23:55Z</time>
      </trkpt>
      <trkpt lat="42.9454" lon="0.31049">
        <ele>1466.2</ele>
        <time>2021-05-29T07:23:56Z</time>
      </trkpt>
      <trkpt lat="42.9454" lon="0.31048">
        <ele>1466.4</ele>
        <time>2021-05-29T07:23:57Z</time>
      </trkpt>
      <trkpt lat="42.94541" lon="0.31046">
        <ele>1466.6</ele>
        <time>2021-05-29T07:23:58Z</time>
      </trkpt>
      <trkpt lat="42.94541" lon="0.31045">
        <ele>1466.8</ele>
        <time>2021-05-29T07:23:59Z</time>
      </trkpt>
      <trkpt lat="42.94542" lon="0.31043">
        <ele>1467</ele>
        <time>2021-05-29T07:24:00Z</time>
      </trkpt>
      <trkpt lat="42.94542" lon="0.31041">
        <ele>1467.2</ele>
        <time>2021-05-29T07:24:01Z</time>
      </trkpt>
      <trkpt lat="42.94543" lon="0.3104">
        <ele>1467.2</ele>
        <time>2021-05-29T07:24:02Z</time>
      </trkpt>
      <trkpt lat="42.94543" lon="0.31038">
        <ele>1467.6</ele>
        <time>2021-05-29T07:24:03Z</time>
      </trkpt>
      <trkpt lat="42.94544" lon="0.31037">
        <ele>1467.6</ele>
        <time>2021-05-29T07:24:04Z</time>
      </trkpt>
      <trkpt lat="42.94545" lon="0.31036">
        <ele>1468</ele>
        <time>2021-05-29T07:24:05Z</time>
      </trkpt>
      <trkpt lat="42.94545" lon="0.31034">
        <ele>1468</ele>
        <time>2021-05-29T07:24:06Z</time>
      </trkpt>
      <trkpt lat="42.94546" lon="0.31033">
        <ele>1468.2</ele>
        <time>2021-05-29T07:24:07Z</time>
      </trkpt>
      <trkpt lat="42.94547" lon="0.31032">
        <ele>1468.4</ele>
        <time>2021-05-29T07:24:08Z</time>
      </trkpt>
      <trkpt lat="42.94548" lon="0.3103">
        <ele>1468.8</ele>
        <time>2021-05-29T07:24:09Z</time>
      </trkpt>
      <trkpt lat="42.94549" lon="0.31028">
        <ele>1468.8</ele>
        <time>2021-05-29T07:24:10Z</time>
      </trkpt>
      <trkpt lat="42.94549" lon="0.31027">
        <ele>1469</ele>
        <time>2021-05-29T07:24:11Z</time>
      </trkpt>
      <trkpt lat="42.94549" lon="0.31026">
        <ele>1469.2</ele>
        <time>2021-05-29T07:24:12Z</time>
      </trkpt>
      <trkpt lat="42.9455" lon="0.31024">
        <ele>1469.4</ele>
        <time>2021-05-29T07:24:13Z</time>
      </trkpt>
      <trkpt lat="42.9455" lon="0.31023">
        <ele>1469.4</ele>
        <time>2021-05-29T07:24:14Z</time>
      </trkpt>
      <trkpt lat="42.9455" lon="0.31021">
        <ele>1469.6</ele>
        <time>2021-05-29T07:24:15Z</time>
      </trkpt>
      <trkpt lat="42.94551" lon="0.3102">
        <ele>1469.8</ele>
        <time>2021-05-29T07:24:16Z</time>
      </trkpt>
      <trkpt lat="42.94552" lon="0.31018">
        <ele>1469.8</ele>
        <time>2021-05-29T07:24:17Z</time>
      </trkpt>
      <trkpt lat="42.94552" lon="0.31017">
        <ele>1470</ele>
        <time>2021-05-29T07:24:18Z</time>
      </trkpt>
      <trkpt lat="42.94553" lon="0.31016">
        <ele>1470.2</ele>
        <time>2021-05-29T07:24:19Z</time>
      </trkpt>
      <trkpt lat="42.94554" lon="0.31015">
        <ele>1470.4</ele>
        <time>2021-05-29T07:24:20Z</time>
      </trkpt>
      <trkpt lat="42.94554" lon="0.31014">
        <ele>1470.4</ele>
        <time>2021-05-29T07:24:21Z</time>
      </trkpt>
      <trkpt lat="42.94555" lon="0.31012">
        <ele>1470.6</ele>
        <time>2021-05-29T07:24:22Z</time>
      </trkpt>
      <trkpt lat="42.94556" lon="0.31011">
        <ele>1470.6</ele>
        <time>2021-05-29T07:24:23Z</time>
      </trkpt>
      <trkpt lat="42.94556" lon="0.31009">
        <ele>1470.8</ele>
        <time>2021-05-29T07:24:24Z</time>
      </trkpt>
      <trkpt lat="42.94557" lon="0.31008">
        <ele>1470.8</ele>
        <time>2021-05-29T07:24:25Z</time>
      </trkpt>
      <trkpt lat="42.94557" lon="0.31007">
        <ele>1471</ele>
        <time>2021-05-29T07:24:26Z</time>
      </trkpt>
      <trkpt lat="42.94558" lon="0.31005">
        <ele>1471</ele>
        <time>2021-05-29T07:24:27Z</time>
      </trkpt>
      <trkpt lat="42.94559" lon="0.31004">
        <ele>1471.4</ele>
        <time>2021-05-29T07:24:28Z</time>
      </trkpt>
      <trkpt lat="42.94559" lon="0.31002">
        <ele>1471.4</ele>
        <time>2021-05-29T07:24:29Z</time>
      </trkpt>
      <trkpt lat="42.94559" lon="0.31">
        <ele>1471.4</ele>
        <time>2021-05-29T07:24:30Z</time>
      </trkpt>
      <trkpt lat="42.9456" lon="0.30999">
        <ele>1471.6</ele>
        <time>2021-05-29T07:24:31Z</time>
      </trkpt>
      <trkpt lat="42.9456" lon="0.30997">
        <ele>1471.8</ele>
        <time>2021-05-29T07:24:32Z</time>
      </trkpt>
      <trkpt lat="42.94561" lon="0.30995">
        <ele>1471.8</ele>
        <time>2021-05-29T07:24:33Z</time>
      </trkpt>
      <trkpt lat="42.94561" lon="0.30994">
        <ele>1472</ele>
        <time>2021-05-29T07:24:34Z</time>
      </trkpt>
      <trkpt lat="42.94561" lon="0.30992">
        <ele>1472.2</ele>
        <time>2021-05-29T07:24:35Z</time>
      </trkpt>
      <trkpt lat="42.94562" lon="0.30991">
        <ele>1472.2</ele>
        <time>2021-05-29T07:24:36Z</time>
      </trkpt>
      <trkpt lat="42.94563" lon="0.3099">
        <ele>1472.4</ele>
        <time>2021-05-29T07:24:37Z</time>
      </trkpt>
      <trkpt lat="42.94564" lon="0.30989">
        <ele>1472.4</ele>
        <time>2021-05-29T07:24:38Z</time>
      </trkpt>
      <trkpt lat="42.94564" lon="0.30987">
        <ele>1472.8</ele>
        <time>2021-05-29T07:24:39Z</time>
      </trkpt>
      <trkpt lat="42.94565" lon="0.30985">
        <ele>1472.8</ele>
        <time>2021-05-29T07:24:40Z</time>
      </trkpt>
      <trkpt lat="42.94566" lon="0.30984">
        <ele>1473</ele>
        <time>2021-05-29T07:24:41Z</time>
      </trkpt>
      <trkpt lat="42.94566" lon="0.30982">
        <ele>1473.2</ele>
        <time>2021-05-29T07:24:42Z</time>
      </trkpt>
      <trkpt lat="42.94567" lon="0.3098">
        <ele>1473.4</ele>
        <time>2021-05-29T07:24:43Z</time>
      </trkpt>
      <trkpt lat="42.94568" lon="0.30978">
        <ele>1473.4</ele>
        <time>2021-05-29T07:24:44Z</time>
      </trkpt>
      <trkpt lat="42.94568" lon="0.30977">
        <ele>1473.6</ele>
        <time>2021-05-29T07:24:45Z</time>
      </trkpt>
      <trkpt lat="42.94568" lon="0.30975">
        <ele>1473.8</ele>
        <time>2021-05-29T07:24:46Z</time>
      </trkpt>
      <trkpt lat="42.94569" lon="0.30973">
        <ele>1473.8</ele>
        <time>2021-05-29T07:24:47Z</time>
      </trkpt>
      <trkpt lat="42.94569" lon="0.30971">
        <ele>1474</ele>
        <time>2021-05-29T07:24:48Z</time>
      </trkpt>
      <trkpt lat="42.9457" lon="0.3097">
        <ele>1474.2</ele>
        <time>2021-05-29T07:24:49Z</time>
      </trkpt>
      <trkpt lat="42.9457" lon="0.30968">
        <ele>1474.2</ele>
        <time>2021-05-29T07:24:50Z</time>
      </trkpt>
      <trkpt lat="42.94571" lon="0.30966">
        <ele>1474.2</ele>
        <time>2021-05-29T07:24:51Z</time>
      </trkpt>
      <trkpt lat="42.94572" lon="0.30965">
        <ele>1474.4</ele>
        <time>2021-05-29T07:24:52Z</time>
      </trkpt>
      <trkpt lat="42.94573" lon="0.30963">
        <ele>1474.4</ele>
        <time>2021-05-29T07:24:53Z</time>
      </trkpt>
      <trkpt lat="42.94573" lon="0.30962">
        <ele>1474.8</ele>
        <time>2021-05-29T07:24:54Z</time>
      </trkpt>
      <trkpt lat="42.94574" lon="0.3096">
        <ele>1474.8</ele>
        <time>2021-05-29T07:24:55Z</time>
      </trkpt>
      <trkpt lat="42.94575" lon="0.30958">
        <ele>1474.8</ele>
        <time>2021-05-29T07:24:56Z</time>
      </trkpt>
      <trkpt lat="42.94575" lon="0.30957">
        <ele>1474.8</ele>
        <time>2021-05-29T07:24:57Z</time>
      </trkpt>
      <trkpt lat="42.94576" lon="0.30955">
        <ele>1474.8</ele>
        <time>2021-05-29T07:24:58Z</time>
      </trkpt>
      <trkpt lat="42.94576" lon="0.30954">
        <ele>1475</ele>
        <time>2021-05-29T07:24:59Z</time>
      </trkpt>
      <trkpt lat="42.94577" lon="0.30953">
        <ele>1475</ele>
        <time>2021-05-29T07:25:00Z</time>
      </trkpt>
      <trkpt lat="42.94577" lon="0.30951">
        <ele>1475.4</ele>
        <time>2021-05-29T07:25:01Z</time>
      </trkpt>
      <trkpt lat="42.94578" lon="0.3095">
        <ele>1475.4</ele>
        <time>2021-05-29T07:25:02Z</time>
      </trkpt>
      <trkpt lat="42.94578" lon="0.30948">
        <ele>1475.4</ele>
        <time>2021-05-29T07:25:03Z</time>
      </trkpt>
      <trkpt lat="42.9458" lon="0.30946">
        <ele>1475.4</ele>
        <time>2021-05-29T07:25:04Z</time>
      </trkpt>
      <trkpt lat="42.94581" lon="0.30944">
        <ele>1475.4</ele>
        <time>2021-05-29T07:25:05Z</time>
      </trkpt>
      <trkpt lat="42.94581" lon="0.30943">
        <ele>1475.6</ele>
        <time>2021-05-29T07:25:06Z</time>
      </trkpt>
      <trkpt lat="42.94582" lon="0.30941">
        <ele>1475.6</ele>
        <time>2021-05-29T07:25:07Z</time>
      </trkpt>
      <trkpt lat="42.94583" lon="0.30939">
        <ele>1475.8</ele>
        <time>2021-05-29T07:25:08Z</time>
      </trkpt>
      <trkpt lat="42.94583" lon="0.30937">
        <ele>1475.8</ele>
        <time>2021-05-29T07:25:09Z</time>
      </trkpt>
      <trkpt lat="42.94584" lon="0.30935">
        <ele>1475.8</ele>
        <time>2021-05-29T07:25:10Z</time>
      </trkpt>
      <trkpt lat="42.94584" lon="0.30933">
        <ele>1476</ele>
        <time>2021-05-29T07:25:11Z</time>
      </trkpt>
      <trkpt lat="42.94585" lon="0.30931">
        <ele>1476</ele>
        <time>2021-05-29T07:25:12Z</time>
      </trkpt>
      <trkpt lat="42.94586" lon="0.3093">
        <ele>1476.2</ele>
        <time>2021-05-29T07:25:13Z</time>
      </trkpt>
      <trkpt lat="42.94589" lon="0.30922">
        <ele>1476.6</ele>
        <time>2021-05-29T07:25:18Z</time>
      </trkpt>
      <trkpt lat="42.9459" lon="0.3092">
        <ele>1476.6</ele>
        <time>2021-05-29T07:25:19Z</time>
      </trkpt>
      <trkpt lat="42.9459" lon="0.30919">
        <ele>1476.6</ele>
        <time>2021-05-29T07:25:20Z</time>
      </trkpt>
      <trkpt lat="42.94591" lon="0.30917">
        <ele>1476.8</ele>
        <time>2021-05-29T07:25:21Z</time>
      </trkpt>
      <trkpt lat="42.94592" lon="0.30916">
        <ele>1476.8</ele>
        <time>2021-05-29T07:25:22Z</time>
      </trkpt>
      <trkpt lat="42.94596" lon="0.3091">
        <ele>1477.4</ele>
        <time>2021-05-29T07:25:26Z</time>
      </trkpt>
      <trkpt lat="42.94597" lon="0.30908">
        <ele>1477.4</ele>
        <time>2021-05-29T07:25:27Z</time>
      </trkpt>
      <trkpt lat="42.94598" lon="0.30906">
        <ele>1477.4</ele>
        <time>2021-05-29T07:25:29Z</time>
      </trkpt>
      <trkpt lat="42.94599" lon="0.30905">
        <ele>1477.6</ele>
        <time>2021-05-29T07:25:30Z</time>
      </trkpt>
      <trkpt lat="42.94602" lon="0.309">
        <ele>1478</ele>
        <time>2021-05-29T07:25:33Z</time>
      </trkpt>
      <trkpt lat="42.94603" lon="0.30899">
        <ele>1478</ele>
        <time>2021-05-29T07:25:34Z</time>
      </trkpt>
      <trkpt lat="42.94605" lon="0.30896">
        <ele>1478.2</ele>
        <time>2021-05-29T07:25:36Z</time>
      </trkpt>
      <trkpt lat="42.94605" lon="0.30895">
        <ele>1478.4</ele>
        <time>2021-05-29T07:25:37Z</time>
      </trkpt>
      <trkpt lat="42.94608" lon="0.30888">
        <ele>1478.8</ele>
        <time>2021-05-29T07:25:41Z</time>
      </trkpt>
      <trkpt lat="42.9461" lon="0.30885">
        <ele>1478.8</ele>
        <time>2021-05-29T07:25:43Z</time>
      </trkpt>
      <trkpt lat="42.94611" lon="0.30884">
        <ele>1479</ele>
        <time>2021-05-29T07:25:44Z</time>
      </trkpt>
      <trkpt lat="42.94614" lon="0.3088">
        <ele>1479.2</ele>
        <time>2021-05-29T07:25:47Z</time>
      </trkpt>
      <trkpt lat="42.94615" lon="0.30879">
        <ele>1479.4</ele>
        <time>2021-05-29T07:25:48Z</time>
      </trkpt>
      <trkpt lat="42.94616" lon="0.30873">
        <ele>1480.2</ele>
        <time>2021-05-29T07:25:52Z</time>
      </trkpt>
      <trkpt lat="42.94617" lon="0.30872">
        <ele>1480.4</ele>
        <time>2021-05-29T07:25:53Z</time>
      </trkpt>
      <trkpt lat="42.94617" lon="0.30872">
        <ele>1480.6</ele>
        <time>2021-05-29T07:25:55Z</time>
      </trkpt>
      <trkpt lat="42.94617" lon="0.30872">
        <ele>1480.6</ele>
        <time>2021-05-29T07:26:23Z</time>
      </trkpt>
      <trkpt lat="42.9462" lon="0.30867">
        <ele>1480.6</ele>
        <time>2021-05-29T07:26:26Z</time>
      </trkpt>
      <trkpt lat="42.94623" lon="0.30864">
        <ele>1480.6</ele>
        <time>2021-05-29T07:26:28Z</time>
      </trkpt>
      <trkpt lat="42.94624" lon="0.30862">
        <ele>1480.8</ele>
        <time>2021-05-29T07:26:29Z</time>
      </trkpt>
      <trkpt lat="42.94624" lon="0.3086">
        <ele>1481</ele>
        <time>2021-05-29T07:26:30Z</time>
      </trkpt>
      <trkpt lat="42.94627" lon="0.30855">
        <ele>1481.2</ele>
        <time>2021-05-29T07:26:33Z</time>
      </trkpt>
      <trkpt lat="42.9463" lon="0.30851">
        <ele>1481.6</ele>
        <time>2021-05-29T07:26:36Z</time>
      </trkpt>
      <trkpt lat="42.94631" lon="0.30849">
        <ele>1481.6</ele>
        <time>2021-05-29T07:26:37Z</time>
      </trkpt>
      <trkpt lat="42.94632" lon="0.30847">
        <ele>1481.8</ele>
        <time>2021-05-29T07:26:38Z</time>
      </trkpt>
      <trkpt lat="42.94633" lon="0.30845">
        <ele>1482</ele>
        <time>2021-05-29T07:26:39Z</time>
      </trkpt>
      <trkpt lat="42.94634" lon="0.30844">
        <ele>1482</ele>
        <time>2021-05-29T07:26:40Z</time>
      </trkpt>
      <trkpt lat="42.94634" lon="0.30842">
        <ele>1482.2</ele>
        <time>2021-05-29T07:26:41Z</time>
      </trkpt>
      <trkpt lat="42.94636" lon="0.30839">
        <ele>1482.4</ele>
        <time>2021-05-29T07:26:43Z</time>
      </trkpt>
      <trkpt lat="42.94636" lon="0.30837">
        <ele>1482.6</ele>
        <time>2021-05-29T07:26:44Z</time>
      </trkpt>
      <trkpt lat="42.94637" lon="0.30835">
        <ele>1482.6</ele>
        <time>2021-05-29T07:26:45Z</time>
      </trkpt>
      <trkpt lat="42.94638" lon="0.30834">
        <ele>1482.6</ele>
        <time>2021-05-29T07:26:46Z</time>
      </trkpt>
      <trkpt lat="42.94638" lon="0.30832">
        <ele>1482.8</ele>
        <time>2021-05-29T07:26:47Z</time>
      </trkpt>
      <trkpt lat="42.94639" lon="0.3083">
        <ele>1482.8</ele>
        <time>2021-05-29T07:26:48Z</time>
      </trkpt>
      <trkpt lat="42.9464" lon="0.30828">
        <ele>1483</ele>
        <time>2021-05-29T07:26:49Z</time>
      </trkpt>
      <trkpt lat="42.94641" lon="0.30826">
        <ele>1483.2</ele>
        <time>2021-05-29T07:26:51Z</time>
      </trkpt>
      <trkpt lat="42.94642" lon="0.30825">
        <ele>1483.2</ele>
        <time>2021-05-29T07:26:52Z</time>
      </trkpt>
      <trkpt lat="42.94644" lon="0.30822">
        <ele>1483.6</ele>
        <time>2021-05-29T07:26:54Z</time>
      </trkpt>
      <trkpt lat="42.94644" lon="0.30821">
        <ele>1483.6</ele>
        <time>2021-05-29T07:26:55Z</time>
      </trkpt>
      <trkpt lat="42.94645" lon="0.30821">
        <ele>1483.8</ele>
        <time>2021-05-29T07:26:56Z</time>
      </trkpt>
      <trkpt lat="42.94646" lon="0.30819">
        <ele>1483.8</ele>
        <time>2021-05-29T07:26:57Z</time>
      </trkpt>
      <trkpt lat="42.94651" lon="0.30814">
        <ele>1484.4</ele>
        <time>2021-05-29T07:27:01Z</time>
      </trkpt>
      <trkpt lat="42.94652" lon="0.30813">
        <ele>1484.8</ele>
        <time>2021-05-29T07:27:02Z</time>
      </trkpt>
      <trkpt lat="42.94652" lon="0.30812">
        <ele>1485</ele>
        <time>2021-05-29T07:27:03Z</time>
      </trkpt>
      <trkpt lat="42.94654" lon="0.3081">
        <ele>1485</ele>
        <time>2021-05-29T07:27:04Z</time>
      </trkpt>
      <trkpt lat="42.94655" lon="0.30808">
        <ele>1485</ele>
        <time>2021-05-29T07:27:05Z</time>
      </trkpt>
      <trkpt lat="42.94656" lon="0.30807">
        <ele>1485</ele>
        <time>2021-05-29T07:27:06Z</time>
      </trkpt>
      <trkpt lat="42.94657" lon="0.30806">
        <ele>1485.2</ele>
        <time>2021-05-29T07:27:07Z</time>
      </trkpt>
      <trkpt lat="42.94658" lon="0.30805">
        <ele>1485.2</ele>
        <time>2021-05-29T07:27:08Z</time>
      </trkpt>
      <trkpt lat="42.94659" lon="0.30804">
        <ele>1485.4</ele>
        <time>2021-05-29T07:27:09Z</time>
      </trkpt>
      <trkpt lat="42.9466" lon="0.30803">
        <ele>1485.6</ele>
        <time>2021-05-29T07:27:10Z</time>
      </trkpt>
      <trkpt lat="42.94662" lon="0.30802">
        <ele>1485.6</ele>
        <time>2021-05-29T07:27:11Z</time>
      </trkpt>
      <trkpt lat="42.94663" lon="0.30801">
        <ele>1485.8</ele>
        <time>2021-05-29T07:27:12Z</time>
      </trkpt>
      <trkpt lat="42.94664" lon="0.308">
        <ele>1486</ele>
        <time>2021-05-29T07:27:13Z</time>
      </trkpt>
      <trkpt lat="42.94666" lon="0.30799">
        <ele>1486</ele>
        <time>2021-05-29T07:27:14Z</time>
      </trkpt>
      <trkpt lat="42.94667" lon="0.30798">
        <ele>1486</ele>
        <time>2021-05-29T07:27:15Z</time>
      </trkpt>
      <trkpt lat="42.94668" lon="0.30796">
        <ele>1486.2</ele>
        <time>2021-05-29T07:27:16Z</time>
      </trkpt>
      <trkpt lat="42.94668" lon="0.30795">
        <ele>1486.2</ele>
        <time>2021-05-29T07:27:17Z</time>
      </trkpt>
      <trkpt lat="42.94669" lon="0.30794">
        <ele>1486.4</ele>
        <time>2021-05-29T07:27:18Z</time>
      </trkpt>
      <trkpt lat="42.9467" lon="0.30793">
        <ele>1486.4</ele>
        <time>2021-05-29T07:27:19Z</time>
      </trkpt>
      <trkpt lat="42.94671" lon="0.30792">
        <ele>1486.4</ele>
        <time>2021-05-29T07:27:20Z</time>
      </trkpt>
      <trkpt lat="42.94671" lon="0.30791">
        <ele>1486.6</ele>
        <time>2021-05-29T07:27:21Z</time>
      </trkpt>
      <trkpt lat="42.94672" lon="0.3079">
        <ele>1486.6</ele>
        <time>2021-05-29T07:27:22Z</time>
      </trkpt>
      <trkpt lat="42.94673" lon="0.30789">
        <ele>1486.6</ele>
        <time>2021-05-29T07:27:23Z</time>
      </trkpt>
      <trkpt lat="42.94674" lon="0.30789">
        <ele>1486.6</ele>
        <time>2021-05-29T07:27:24Z</time>
      </trkpt>
      <trkpt lat="42.94675" lon="0.30788">
        <ele>1486.6</ele>
        <time>2021-05-29T07:27:25Z</time>
      </trkpt>
      <trkpt lat="42.94676" lon="0.30788">
        <ele>1486.8</ele>
        <time>2021-05-29T07:27:26Z</time>
      </trkpt>
      <trkpt lat="42.94676" lon="0.30788">
        <ele>1486.8</ele>
        <time>2021-05-29T07:27:27Z</time>
      </trkpt>
      <trkpt lat="42.94677" lon="0.30788">
        <ele>1486.8</ele>
        <time>2021-05-29T07:27:33Z</time>
      </trkpt>
      <trkpt lat="42.94678" lon="0.30788">
        <ele>1487</ele>
        <time>2021-05-29T07:27:36Z</time>
      </trkpt>
      <trkpt lat="42.94679" lon="0.30787">
        <ele>1487</ele>
        <time>2021-05-29T07:27:37Z</time>
      </trkpt>
      <trkpt lat="42.94679" lon="0.30787">
        <ele>1487.4</ele>
        <time>2021-05-29T07:27:43Z</time>
      </trkpt>
      <trkpt lat="42.94685" lon="0.30781">
        <ele>1487.6</ele>
        <time>2021-05-29T07:27:53Z</time>
      </trkpt>
      <trkpt lat="42.94691" lon="0.30776">
        <ele>1487.4</ele>
        <time>2021-05-29T07:27:56Z</time>
      </trkpt>
      <trkpt lat="42.94693" lon="0.30776">
        <ele>1487.4</ele>
        <time>2021-05-29T07:27:57Z</time>
      </trkpt>
      <trkpt lat="42.94699" lon="0.30772">
        <ele>1487.4</ele>
        <time>2021-05-29T07:28:00Z</time>
      </trkpt>
      <trkpt lat="42.94704" lon="0.3077">
        <ele>1487.4</ele>
        <time>2021-05-29T07:28:03Z</time>
      </trkpt>
      <trkpt lat="42.94706" lon="0.30769">
        <ele>1487.4</ele>
        <time>2021-05-29T07:28:04Z</time>
      </trkpt>
      <trkpt lat="42.94707" lon="0.30768">
        <ele>1487.4</ele>
        <time>2021-05-29T07:28:05Z</time>
      </trkpt>
      <trkpt lat="42.94709" lon="0.30767">
        <ele>1487.4</ele>
        <time>2021-05-29T07:28:06Z</time>
      </trkpt>
      <trkpt lat="42.94711" lon="0.30766">
        <ele>1487.4</ele>
        <time>2021-05-29T07:28:07Z</time>
      </trkpt>
      <trkpt lat="42.94717" lon="0.30764">
        <ele>1487.4</ele>
        <time>2021-05-29T07:28:10Z</time>
      </trkpt>
      <trkpt lat="42.94725" lon="0.30762">
        <ele>1487.2</ele>
        <time>2021-05-29T07:28:14Z</time>
      </trkpt>
      <trkpt lat="42.94729" lon="0.30762">
        <ele>1487</ele>
        <time>2021-05-29T07:28:16Z</time>
      </trkpt>
      <trkpt lat="42.9473" lon="0.30761">
        <ele>1487</ele>
        <time>2021-05-29T07:28:17Z</time>
      </trkpt>
      <trkpt lat="42.94732" lon="0.3076">
        <ele>1487.2</ele>
        <time>2021-05-29T07:28:18Z</time>
      </trkpt>
      <trkpt lat="42.94733" lon="0.3076">
        <ele>1487.4</ele>
        <time>2021-05-29T07:28:19Z</time>
      </trkpt>
      <trkpt lat="42.94735" lon="0.3076">
        <ele>1487.4</ele>
        <time>2021-05-29T07:28:20Z</time>
      </trkpt>
      <trkpt lat="42.94737" lon="0.3076">
        <ele>1487.4</ele>
        <time>2021-05-29T07:28:21Z</time>
      </trkpt>
      <trkpt lat="42.94738" lon="0.3076">
        <ele>1487.4</ele>
        <time>2021-05-29T07:28:22Z</time>
      </trkpt>
      <trkpt lat="42.94739" lon="0.3076">
        <ele>1487.4</ele>
        <time>2021-05-29T07:28:23Z</time>
      </trkpt>
      <trkpt lat="42.94741" lon="0.30759">
        <ele>1487.4</ele>
        <time>2021-05-29T07:28:24Z</time>
      </trkpt>
      <trkpt lat="42.94742" lon="0.30759">
        <ele>1487.6</ele>
        <time>2021-05-29T07:28:25Z</time>
      </trkpt>
      <trkpt lat="42.94744" lon="0.30759">
        <ele>1487.4</ele>
        <time>2021-05-29T07:28:26Z</time>
      </trkpt>
      <trkpt lat="42.94746" lon="0.30758">
        <ele>1487.6</ele>
        <time>2021-05-29T07:28:27Z</time>
      </trkpt>
      <trkpt lat="42.94747" lon="0.30758">
        <ele>1487.6</ele>
        <time>2021-05-29T07:28:28Z</time>
      </trkpt>
      <trkpt lat="42.94749" lon="0.30758">
        <ele>1487.6</ele>
        <time>2021-05-29T07:28:29Z</time>
      </trkpt>
      <trkpt lat="42.94754" lon="0.30757">
        <ele>1487.8</ele>
        <time>2021-05-29T07:28:32Z</time>
      </trkpt>
      <trkpt lat="42.94757" lon="0.30758">
        <ele>1488</ele>
        <time>2021-05-29T07:28:34Z</time>
      </trkpt>
      <trkpt lat="42.9476" lon="0.30758">
        <ele>1488.2</ele>
        <time>2021-05-29T07:28:36Z</time>
      </trkpt>
      <trkpt lat="42.94762" lon="0.30758">
        <ele>1488.2</ele>
        <time>2021-05-29T07:28:37Z</time>
      </trkpt>
      <trkpt lat="42.94763" lon="0.30758">
        <ele>1488.4</ele>
        <time>2021-05-29T07:28:38Z</time>
      </trkpt>
      <trkpt lat="42.94764" lon="0.30758">
        <ele>1488.4</ele>
        <time>2021-05-29T07:28:39Z</time>
      </trkpt>
      <trkpt lat="42.94765" lon="0.30758">
        <ele>1488.4</ele>
        <time>2021-05-29T07:28:40Z</time>
      </trkpt>
      <trkpt lat="42.94766" lon="0.30758">
        <ele>1488.4</ele>
        <time>2021-05-29T07:28:41Z</time>
      </trkpt>
      <trkpt lat="42.94767" lon="0.30757">
        <ele>1488.4</ele>
        <time>2021-05-29T07:28:42Z</time>
      </trkpt>
      <trkpt lat="42.94768" lon="0.30758">
        <ele>1488.6</ele>
        <time>2021-05-29T07:28:43Z</time>
      </trkpt>
      <trkpt lat="42.9477" lon="0.30758">
        <ele>1488.6</ele>
        <time>2021-05-29T07:28:44Z</time>
      </trkpt>
      <trkpt lat="42.94771" lon="0.30758">
        <ele>1488.6</ele>
        <time>2021-05-29T07:28:45Z</time>
      </trkpt>
      <trkpt lat="42.94772" lon="0.30759">
        <ele>1488.6</ele>
        <time>2021-05-29T07:28:46Z</time>
      </trkpt>
      <trkpt lat="42.94773" lon="0.3076">
        <ele>1488.6</ele>
        <time>2021-05-29T07:28:47Z</time>
      </trkpt>
      <trkpt lat="42.94775" lon="0.30761">
        <ele>1488.6</ele>
        <time>2021-05-29T07:28:48Z</time>
      </trkpt>
      <trkpt lat="42.94777" lon="0.30761">
        <ele>1488.8</ele>
        <time>2021-05-29T07:28:50Z</time>
      </trkpt>
      <trkpt lat="42.94778" lon="0.30761">
        <ele>1489</ele>
        <time>2021-05-29T07:28:51Z</time>
      </trkpt>
      <trkpt lat="42.94784" lon="0.30762">
        <ele>1489.6</ele>
        <time>2021-05-29T07:28:54Z</time>
      </trkpt>
      <trkpt lat="42.94785" lon="0.30762">
        <ele>1489.8</ele>
        <time>2021-05-29T07:28:55Z</time>
      </trkpt>
      <trkpt lat="42.948" lon="0.30757">
        <ele>1490.2</ele>
        <time>2021-05-29T07:29:01Z</time>
      </trkpt>
      <trkpt lat="42.94802" lon="0.30758">
        <ele>1490.2</ele>
        <time>2021-05-29T07:29:02Z</time>
      </trkpt>
      <trkpt lat="42.94805" lon="0.30758">
        <ele>1490.2</ele>
        <time>2021-05-29T07:29:03Z</time>
      </trkpt>
      <trkpt lat="42.94815" lon="0.30759">
        <ele>1490.2</ele>
        <time>2021-05-29T07:29:06Z</time>
      </trkpt>
      <trkpt lat="42.94826" lon="0.30757">
        <ele>1490</ele>
        <time>2021-05-29T07:29:09Z</time>
      </trkpt>
      <trkpt lat="42.94834" lon="0.30758">
        <ele>1489.8</ele>
        <time>2021-05-29T07:29:11Z</time>
      </trkpt>
      <trkpt lat="42.94853" lon="0.30761">
        <ele>1489.4</ele>
        <time>2021-05-29T07:29:16Z</time>
      </trkpt>
      <trkpt lat="42.94869" lon="0.30768">
        <ele>1489.2</ele>
        <time>2021-05-29T07:29:21Z</time>
      </trkpt>
      <trkpt lat="42.94887" lon="0.30775">
        <ele>1489</ele>
        <time>2021-05-29T07:29:26Z</time>
      </trkpt>
      <trkpt lat="42.9489" lon="0.30776">
        <ele>1489</ele>
        <time>2021-05-29T07:29:27Z</time>
      </trkpt>
      <trkpt lat="42.94893" lon="0.30777">
        <ele>1489</ele>
        <time>2021-05-29T07:29:28Z</time>
      </trkpt>
      <trkpt lat="42.94896" lon="0.30779">
        <ele>1489</ele>
        <time>2021-05-29T07:29:29Z</time>
      </trkpt>
      <trkpt lat="42.94908" lon="0.30784">
        <ele>1489</ele>
        <time>2021-05-29T07:29:32Z</time>
      </trkpt>
      <trkpt lat="42.94921" lon="0.30791">
        <ele>1488.8</ele>
        <time>2021-05-29T07:29:36Z</time>
      </trkpt>
      <trkpt lat="42.94924" lon="0.30794">
        <ele>1488.8</ele>
        <time>2021-05-29T07:29:37Z</time>
      </trkpt>
      <trkpt lat="42.94928" lon="0.30796">
        <ele>1488.8</ele>
        <time>2021-05-29T07:29:38Z</time>
      </trkpt>
      <trkpt lat="42.94947" lon="0.30809">
        <ele>1488.6</ele>
        <time>2021-05-29T07:29:42Z</time>
      </trkpt>
      <trkpt lat="42.9496" lon="0.30817">
        <ele>1488.4</ele>
        <time>2021-05-29T07:29:44Z</time>
      </trkpt>
      <trkpt lat="42.94969" lon="0.30826">
        <ele>1488</ele>
        <time>2021-05-29T07:29:46Z</time>
      </trkpt>
      <trkpt lat="42.94972" lon="0.30829">
        <ele>1487.6</ele>
        <time>2021-05-29T07:29:47Z</time>
      </trkpt>
      <trkpt lat="42.94975" lon="0.30833">
        <ele>1487.4</ele>
        <time>2021-05-29T07:29:48Z</time>
      </trkpt>
      <trkpt lat="42.94977" lon="0.30835">
        <ele>1487</ele>
        <time>2021-05-29T07:29:49Z</time>
      </trkpt>
      <trkpt lat="42.9498" lon="0.30837">
        <ele>1486.6</ele>
        <time>2021-05-29T07:29:50Z</time>
      </trkpt>
      <trkpt lat="42.94984" lon="0.3084">
        <ele>1486.4</ele>
        <time>2021-05-29T07:29:51Z</time>
      </trkpt>
      <trkpt lat="42.94987" lon="0.30842">
        <ele>1486.2</ele>
        <time>2021-05-29T07:29:52Z</time>
      </trkpt>
      <trkpt lat="42.9499" lon="0.30845">
        <ele>1486</ele>
        <time>2021-05-29T07:29:53Z</time>
      </trkpt>
      <trkpt lat="42.94992" lon="0.30848">
        <ele>1485.8</ele>
        <time>2021-05-29T07:29:54Z</time>
      </trkpt>
      <trkpt lat="42.94995" lon="0.30851">
        <ele>1485.8</ele>
        <time>2021-05-29T07:29:55Z</time>
      </trkpt>
      <trkpt lat="42.94998" lon="0.30854">
        <ele>1485.6</ele>
        <time>2021-05-29T07:29:56Z</time>
      </trkpt>
      <trkpt lat="42.95005" lon="0.3086">
        <ele>1485.4</ele>
        <time>2021-05-29T07:29:59Z</time>
      </trkpt>
      <trkpt lat="42.95007" lon="0.30866">
        <ele>1485.4</ele>
        <time>2021-05-29T07:30:01Z</time>
      </trkpt>
      <trkpt lat="42.9501" lon="0.30869">
        <ele>1485.2</ele>
        <time>2021-05-29T07:30:02Z</time>
      </trkpt>
      <trkpt lat="42.95013" lon="0.30871">
        <ele>1485.2</ele>
        <time>2021-05-29T07:30:03Z</time>
      </trkpt>
      <trkpt lat="42.95015" lon="0.30873">
        <ele>1485</ele>
        <time>2021-05-29T07:30:04Z</time>
      </trkpt>
      <trkpt lat="42.95016" lon="0.30874">
        <ele>1484.8</ele>
        <time>2021-05-29T07:30:05Z</time>
      </trkpt>
      <trkpt lat="42.95017" lon="0.30876">
        <ele>1484.2</ele>
        <time>2021-05-29T07:30:07Z</time>
      </trkpt>
      <trkpt lat="42.95018" lon="0.30876">
        <ele>1484</ele>
        <time>2021-05-29T07:30:08Z</time>
      </trkpt>
      <trkpt lat="42.95018" lon="0.30876">
        <ele>1484</ele>
        <time>2021-05-29T07:30:09Z</time>
      </trkpt>
      <trkpt lat="42.95019" lon="0.30878">
        <ele>1483.8</ele>
        <time>2021-05-29T07:30:10Z</time>
      </trkpt>
      <trkpt lat="42.95024" lon="0.30882">
        <ele>1483.8</ele>
        <time>2021-05-29T07:30:13Z</time>
      </trkpt>
      <trkpt lat="42.95026" lon="0.30884">
        <ele>1483.8</ele>
        <time>2021-05-29T07:30:14Z</time>
      </trkpt>
      <trkpt lat="42.95029" lon="0.30885">
        <ele>1483.6</ele>
        <time>2021-05-29T07:30:15Z</time>
      </trkpt>
      <trkpt lat="42.95033" lon="0.30886">
        <ele>1483.4</ele>
        <time>2021-05-29T07:30:17Z</time>
      </trkpt>
      <trkpt lat="42.95035" lon="0.30887">
        <ele>1483.4</ele>
        <time>2021-05-29T07:30:18Z</time>
      </trkpt>
      <trkpt lat="42.95036" lon="0.30887">
        <ele>1483.2</ele>
        <time>2021-05-29T07:30:19Z</time>
      </trkpt>
      <trkpt lat="42.9504" lon="0.30889">
        <ele>1483.2</ele>
        <time>2021-05-29T07:30:21Z</time>
      </trkpt>
      <trkpt lat="42.95041" lon="0.30889">
        <ele>1483.2</ele>
        <time>2021-05-29T07:30:22Z</time>
      </trkpt>
      <trkpt lat="42.95042" lon="0.30889">
        <ele>1483</ele>
        <time>2021-05-29T07:30:23Z</time>
      </trkpt>
      <trkpt lat="42.95043" lon="0.3089">
        <ele>1483</ele>
        <time>2021-05-29T07:30:24Z</time>
      </trkpt>
      <trkpt lat="42.95044" lon="0.3089">
        <ele>1482.8</ele>
        <time>2021-05-29T07:30:25Z</time>
      </trkpt>
      <trkpt lat="42.95045" lon="0.30891">
        <ele>1483</ele>
        <time>2021-05-29T07:30:26Z</time>
      </trkpt>
      <trkpt lat="42.95048" lon="0.30895">
        <ele>1483</ele>
        <time>2021-05-29T07:30:28Z</time>
      </trkpt>
      <trkpt lat="42.9505" lon="0.30897">
        <ele>1483</ele>
        <time>2021-05-29T07:30:29Z</time>
      </trkpt>
      <trkpt lat="42.95051" lon="0.30897">
        <ele>1483.2</ele>
        <time>2021-05-29T07:30:30Z</time>
      </trkpt>
      <trkpt lat="42.95052" lon="0.30898">
        <ele>1483.2</ele>
        <time>2021-05-29T07:30:31Z</time>
      </trkpt>
      <trkpt lat="42.95052" lon="0.30899">
        <ele>1483.2</ele>
        <time>2021-05-29T07:30:33Z</time>
      </trkpt>
      <trkpt lat="42.95052" lon="0.30899">
        <ele>1483.4</ele>
        <time>2021-05-29T07:30:34Z</time>
      </trkpt>
      <trkpt lat="42.95052" lon="0.30899">
        <ele>1483.4</ele>
        <time>2021-05-29T07:30:38Z</time>
      </trkpt>
      <trkpt lat="42.95052" lon="0.30899">
        <ele>1483.4</ele>
        <time>2021-05-29T07:30:44Z</time>
      </trkpt>
      <trkpt lat="42.95052" lon="0.30899">
        <ele>1483.8</ele>
        <time>2021-05-29T07:30:59Z</time>
      </trkpt>
      <trkpt lat="42.95057" lon="0.30897">
        <ele>1484</ele>
        <time>2021-05-29T07:31:01Z</time>
      </trkpt>
      <trkpt lat="42.95058" lon="0.30897">
        <ele>1484.2</ele>
        <time>2021-05-29T07:31:02Z</time>
      </trkpt>
      <trkpt lat="42.95058" lon="0.30897">
        <ele>1484.4</ele>
        <time>2021-05-29T07:31:03Z</time>
      </trkpt>
      <trkpt lat="42.95059" lon="0.30897">
        <ele>1485.2</ele>
        <time>2021-05-29T07:31:06Z</time>
      </trkpt>
      <trkpt lat="42.95059" lon="0.30896">
        <ele>1486</ele>
        <time>2021-05-29T07:31:08Z</time>
      </trkpt>
      <trkpt lat="42.95064" lon="0.30895">
        <ele>1486.6</ele>
        <time>2021-05-29T07:31:11Z</time>
      </trkpt>
      <trkpt lat="42.95066" lon="0.30893">
        <ele>1486.8</ele>
        <time>2021-05-29T07:31:12Z</time>
      </trkpt>
      <trkpt lat="42.95068" lon="0.3089">
        <ele>1487</ele>
        <time>2021-05-29T07:31:13Z</time>
      </trkpt>
      <trkpt lat="42.95071" lon="0.30888">
        <ele>1487.2</ele>
        <time>2021-05-29T07:31:14Z</time>
      </trkpt>
      <trkpt lat="42.95074" lon="0.30886">
        <ele>1487.2</ele>
        <time>2021-05-29T07:31:15Z</time>
      </trkpt>
      <trkpt lat="42.95077" lon="0.30883">
        <ele>1487.6</ele>
        <time>2021-05-29T07:31:16Z</time>
      </trkpt>
      <trkpt lat="42.9508" lon="0.30881">
        <ele>1487.8</ele>
        <time>2021-05-29T07:31:17Z</time>
      </trkpt>
      <trkpt lat="42.95082" lon="0.30879">
        <ele>1488</ele>
        <time>2021-05-29T07:31:18Z</time>
      </trkpt>
      <trkpt lat="42.95084" lon="0.30878">
        <ele>1488.2</ele>
        <time>2021-05-29T07:31:19Z</time>
      </trkpt>
      <trkpt lat="42.95086" lon="0.30876">
        <ele>1488.4</ele>
        <time>2021-05-29T07:31:20Z</time>
      </trkpt>
      <trkpt lat="42.95087" lon="0.30874">
        <ele>1488.4</ele>
        <time>2021-05-29T07:31:21Z</time>
      </trkpt>
      <trkpt lat="42.95089" lon="0.30872">
        <ele>1488.6</ele>
        <time>2021-05-29T07:31:22Z</time>
      </trkpt>
      <trkpt lat="42.95091" lon="0.3087">
        <ele>1488.6</ele>
        <time>2021-05-29T07:31:23Z</time>
      </trkpt>
      <trkpt lat="42.95093" lon="0.30869">
        <ele>1488.6</ele>
        <time>2021-05-29T07:31:24Z</time>
      </trkpt>
      <trkpt lat="42.95093" lon="0.30869">
        <ele>1488.8</ele>
        <time>2021-05-29T07:31:25Z</time>
      </trkpt>
      <trkpt lat="42.95095" lon="0.30868">
        <ele>1488.8</ele>
        <time>2021-05-29T07:31:26Z</time>
      </trkpt>
      <trkpt lat="42.95097" lon="0.30866">
        <ele>1489</ele>
        <time>2021-05-29T07:31:27Z</time>
      </trkpt>
      <trkpt lat="42.951" lon="0.30865">
        <ele>1489</ele>
        <time>2021-05-29T07:31:28Z</time>
      </trkpt>
      <trkpt lat="42.95102" lon="0.30863">
        <ele>1489.2</ele>
        <time>2021-05-29T07:31:29Z</time>
      </trkpt>
      <trkpt lat="42.95103" lon="0.30862">
        <ele>1489.2</ele>
        <time>2021-05-29T07:31:30Z</time>
      </trkpt>
      <trkpt lat="42.95104" lon="0.3086">
        <ele>1489.2</ele>
        <time>2021-05-29T07:31:31Z</time>
      </trkpt>
      <trkpt lat="42.95107" lon="0.30857">
        <ele>1489.4</ele>
        <time>2021-05-29T07:31:32Z</time>
      </trkpt>
      <trkpt lat="42.95109" lon="0.30855">
        <ele>1489.6</ele>
        <time>2021-05-29T07:31:33Z</time>
      </trkpt>
      <trkpt lat="42.9511" lon="0.30854">
        <ele>1489.6</ele>
        <time>2021-05-29T07:31:34Z</time>
      </trkpt>
      <trkpt lat="42.9511" lon="0.30854">
        <ele>1489.8</ele>
        <time>2021-05-29T07:31:35Z</time>
      </trkpt>
      <trkpt lat="42.9511" lon="0.30854">
        <ele>1489.8</ele>
        <time>2021-05-29T07:31:36Z</time>
      </trkpt>
      <trkpt lat="42.95112" lon="0.30854">
        <ele>1489.6</ele>
        <time>2021-05-29T07:31:37Z</time>
      </trkpt>
      <trkpt lat="42.95113" lon="0.30853">
        <ele>1489.8</ele>
        <time>2021-05-29T07:31:38Z</time>
      </trkpt>
      <trkpt lat="42.95114" lon="0.30853">
        <ele>1490</ele>
        <time>2021-05-29T07:31:39Z</time>
      </trkpt>
      <trkpt lat="42.95116" lon="0.30853">
        <ele>1490</ele>
        <time>2021-05-29T07:31:40Z</time>
      </trkpt>
      <trkpt lat="42.95118" lon="0.30851">
        <ele>1490.4</ele>
        <time>2021-05-29T07:31:41Z</time>
      </trkpt>
      <trkpt lat="42.9512" lon="0.30849">
        <ele>1490.6</ele>
        <time>2021-05-29T07:31:42Z</time>
      </trkpt>
      <trkpt lat="42.95123" lon="0.30846">
        <ele>1490.6</ele>
        <time>2021-05-29T07:31:43Z</time>
      </trkpt>
      <trkpt lat="42.95124" lon="0.30845">
        <ele>1490.8</ele>
        <time>2021-05-29T07:31:44Z</time>
      </trkpt>
      <trkpt lat="42.95126" lon="0.30845">
        <ele>1491</ele>
        <time>2021-05-29T07:31:45Z</time>
      </trkpt>
      <trkpt lat="42.95127" lon="0.30844">
        <ele>1491</ele>
        <time>2021-05-29T07:31:46Z</time>
      </trkpt>
      <trkpt lat="42.95128" lon="0.30845">
        <ele>1491.2</ele>
        <time>2021-05-29T07:31:47Z</time>
      </trkpt>
      <trkpt lat="42.95129" lon="0.30844">
        <ele>1491.2</ele>
        <time>2021-05-29T07:31:48Z</time>
      </trkpt>
      <trkpt lat="42.9513" lon="0.30843">
        <ele>1491.4</ele>
        <time>2021-05-29T07:31:49Z</time>
      </trkpt>
      <trkpt lat="42.95131" lon="0.30843">
        <ele>1491.6</ele>
        <time>2021-05-29T07:31:50Z</time>
      </trkpt>
      <trkpt lat="42.95131" lon="0.30843">
        <ele>1491.8</ele>
        <time>2021-05-29T07:31:51Z</time>
      </trkpt>
      <trkpt lat="42.95131" lon="0.30843">
        <ele>1492</ele>
        <time>2021-05-29T07:31:52Z</time>
      </trkpt>
      <trkpt lat="42.95132" lon="0.30842">
        <ele>1492.2</ele>
        <time>2021-05-29T07:31:53Z</time>
      </trkpt>
      <trkpt lat="42.95134" lon="0.3084">
        <ele>1492.4</ele>
        <time>2021-05-29T07:31:54Z</time>
      </trkpt>
      <trkpt lat="42.95136" lon="0.30839">
        <ele>1492.6</ele>
        <time>2021-05-29T07:31:55Z</time>
      </trkpt>
      <trkpt lat="42.95136" lon="0.30839">
        <ele>1493</ele>
        <time>2021-05-29T07:31:56Z</time>
      </trkpt>
      <trkpt lat="42.95138" lon="0.30839">
        <ele>1493.2</ele>
        <time>2021-05-29T07:31:57Z</time>
      </trkpt>
      <trkpt lat="42.95139" lon="0.30839">
        <ele>1493.8</ele>
        <time>2021-05-29T07:31:58Z</time>
      </trkpt>
      <trkpt lat="42.95141" lon="0.30839">
        <ele>1494</ele>
        <time>2021-05-29T07:31:59Z</time>
      </trkpt>
      <trkpt lat="42.95143" lon="0.30839">
        <ele>1494.4</ele>
        <time>2021-05-29T07:32:00Z</time>
      </trkpt>
      <trkpt lat="42.95144" lon="0.30838">
        <ele>1494.4</ele>
        <time>2021-05-29T07:32:01Z</time>
      </trkpt>
      <trkpt lat="42.95145" lon="0.30837">
        <ele>1494.6</ele>
        <time>2021-05-29T07:32:02Z</time>
      </trkpt>
      <trkpt lat="42.95146" lon="0.30837">
        <ele>1494.6</ele>
        <time>2021-05-29T07:32:03Z</time>
      </trkpt>
      <trkpt lat="42.95148" lon="0.30836">
        <ele>1494.8</ele>
        <time>2021-05-29T07:32:04Z</time>
      </trkpt>
      <trkpt lat="42.9515" lon="0.30837">
        <ele>1495</ele>
        <time>2021-05-29T07:32:05Z</time>
      </trkpt>
      <trkpt lat="42.95153" lon="0.30837">
        <ele>1495</ele>
        <time>2021-05-29T07:32:06Z</time>
      </trkpt>
      <trkpt lat="42.95155" lon="0.30836">
        <ele>1495.2</ele>
        <time>2021-05-29T07:32:07Z</time>
      </trkpt>
      <trkpt lat="42.95156" lon="0.30836">
        <ele>1495.2</ele>
        <time>2021-05-29T07:32:08Z</time>
      </trkpt>
      <trkpt lat="42.95157" lon="0.30834">
        <ele>1495.2</ele>
        <time>2021-05-29T07:32:09Z</time>
      </trkpt>
      <trkpt lat="42.95158" lon="0.30835">
        <ele>1495.4</ele>
        <time>2021-05-29T07:32:10Z</time>
      </trkpt>
      <trkpt lat="42.9516" lon="0.30834">
        <ele>1495.4</ele>
        <time>2021-05-29T07:32:11Z</time>
      </trkpt>
      <trkpt lat="42.95161" lon="0.30833">
        <ele>1495.8</ele>
        <time>2021-05-29T07:32:12Z</time>
      </trkpt>
      <trkpt lat="42.95162" lon="0.30834">
        <ele>1495.8</ele>
        <time>2021-05-29T07:32:13Z</time>
      </trkpt>
      <trkpt lat="42.95163" lon="0.30834">
        <ele>1495.8</ele>
        <time>2021-05-29T07:32:14Z</time>
      </trkpt>
      <trkpt lat="42.95164" lon="0.30834">
        <ele>1496.2</ele>
        <time>2021-05-29T07:32:15Z</time>
      </trkpt>
      <trkpt lat="42.95166" lon="0.30834">
        <ele>1496.4</ele>
        <time>2021-05-29T07:32:16Z</time>
      </trkpt>
      <trkpt lat="42.95167" lon="0.30834">
        <ele>1496.6</ele>
        <time>2021-05-29T07:32:17Z</time>
      </trkpt>
      <trkpt lat="42.95167" lon="0.30833">
        <ele>1496.6</ele>
        <time>2021-05-29T07:32:18Z</time>
      </trkpt>
      <trkpt lat="42.95168" lon="0.30833">
        <ele>1496.8</ele>
        <time>2021-05-29T07:32:19Z</time>
      </trkpt>
      <trkpt lat="42.95169" lon="0.30832">
        <ele>1496.8</ele>
        <time>2021-05-29T07:32:20Z</time>
      </trkpt>
      <trkpt lat="42.9517" lon="0.30832">
        <ele>1497</ele>
        <time>2021-05-29T07:32:21Z</time>
      </trkpt>
      <trkpt lat="42.95172" lon="0.30831">
        <ele>1497</ele>
        <time>2021-05-29T07:32:22Z</time>
      </trkpt>
      <trkpt lat="42.95173" lon="0.30831">
        <ele>1497</ele>
        <time>2021-05-29T07:32:23Z</time>
      </trkpt>
      <trkpt lat="42.95174" lon="0.30831">
        <ele>1497.2</ele>
        <time>2021-05-29T07:32:24Z</time>
      </trkpt>
      <trkpt lat="42.95175" lon="0.30831">
        <ele>1497.2</ele>
        <time>2021-05-29T07:32:25Z</time>
      </trkpt>
      <trkpt lat="42.95177" lon="0.3083">
        <ele>1497.2</ele>
        <time>2021-05-29T07:32:26Z</time>
      </trkpt>
      <trkpt lat="42.95179" lon="0.3083">
        <ele>1497.2</ele>
        <time>2021-05-29T07:32:27Z</time>
      </trkpt>
      <trkpt lat="42.95181" lon="0.30829">
        <ele>1497.2</ele>
        <time>2021-05-29T07:32:28Z</time>
      </trkpt>
      <trkpt lat="42.95183" lon="0.30828">
        <ele>1497.2</ele>
        <time>2021-05-29T07:32:29Z</time>
      </trkpt>
      <trkpt lat="42.95184" lon="0.30827">
        <ele>1497.4</ele>
        <time>2021-05-29T07:32:30Z</time>
      </trkpt>
      <trkpt lat="42.95186" lon="0.30826">
        <ele>1497.4</ele>
        <time>2021-05-29T07:32:31Z</time>
      </trkpt>
      <trkpt lat="42.95188" lon="0.30826">
        <ele>1497.6</ele>
        <time>2021-05-29T07:32:32Z</time>
      </trkpt>
      <trkpt lat="42.9519" lon="0.30826">
        <ele>1497.6</ele>
        <time>2021-05-29T07:32:33Z</time>
      </trkpt>
      <trkpt lat="42.95191" lon="0.30826">
        <ele>1497.6</ele>
        <time>2021-05-29T07:32:34Z</time>
      </trkpt>
      <trkpt lat="42.95191" lon="0.30826">
        <ele>1497.6</ele>
        <time>2021-05-29T07:32:35Z</time>
      </trkpt>
      <trkpt lat="42.95191" lon="0.30826">
        <ele>1497.6</ele>
        <time>2021-05-29T07:32:36Z</time>
      </trkpt>
      <trkpt lat="42.95192" lon="0.30827">
        <ele>1497.6</ele>
        <time>2021-05-29T07:32:37Z</time>
      </trkpt>
      <trkpt lat="42.95196" lon="0.30825">
        <ele>1497.6</ele>
        <time>2021-05-29T07:32:40Z</time>
      </trkpt>
      <trkpt lat="42.95197" lon="0.30825">
        <ele>1497.6</ele>
        <time>2021-05-29T07:32:41Z</time>
      </trkpt>
      <trkpt lat="42.952" lon="0.30826">
        <ele>1497.4</ele>
        <time>2021-05-29T07:32:43Z</time>
      </trkpt>
      <trkpt lat="42.95202" lon="0.30827">
        <ele>1497.4</ele>
        <time>2021-05-29T07:32:44Z</time>
      </trkpt>
      <trkpt lat="42.95205" lon="0.30828">
        <ele>1497.4</ele>
        <time>2021-05-29T07:32:45Z</time>
      </trkpt>
      <trkpt lat="42.95208" lon="0.30829">
        <ele>1497.4</ele>
        <time>2021-05-29T07:32:46Z</time>
      </trkpt>
      <trkpt lat="42.95215" lon="0.30828">
        <ele>1497.4</ele>
        <time>2021-05-29T07:32:49Z</time>
      </trkpt>
      <trkpt lat="42.95216" lon="0.30828">
        <ele>1497.4</ele>
        <time>2021-05-29T07:32:50Z</time>
      </trkpt>
      <trkpt lat="42.95216" lon="0.30828">
        <ele>1497.4</ele>
        <time>2021-05-29T07:32:51Z</time>
      </trkpt>
      <trkpt lat="42.95217" lon="0.30828">
        <ele>1497.2</ele>
        <time>2021-05-29T07:32:56Z</time>
      </trkpt>
      <trkpt lat="42.95218" lon="0.30829">
        <ele>1497.2</ele>
        <time>2021-05-29T07:32:59Z</time>
      </trkpt>
      <trkpt lat="42.95219" lon="0.30829">
        <ele>1497.2</ele>
        <time>2021-05-29T07:33:00Z</time>
      </trkpt>
      <trkpt lat="42.9522" lon="0.3083">
        <ele>1497.2</ele>
        <time>2021-05-29T07:33:01Z</time>
      </trkpt>
      <trkpt lat="42.9522" lon="0.3083">
        <ele>1497.2</ele>
        <time>2021-05-29T07:33:02Z</time>
      </trkpt>
      <trkpt lat="42.9522" lon="0.3083">
        <ele>1497.2</ele>
        <time>2021-05-29T07:33:08Z</time>
      </trkpt>
      <trkpt lat="42.9522" lon="0.3083">
        <ele>1497.2</ele>
        <time>2021-05-29T07:33:10Z</time>
      </trkpt>
      <trkpt lat="42.95221" lon="0.30831">
        <ele>1497.2</ele>
        <time>2021-05-29T07:33:11Z</time>
      </trkpt>
      <trkpt lat="42.95224" lon="0.30833">
        <ele>1497.2</ele>
        <time>2021-05-29T07:33:13Z</time>
      </trkpt>
      <trkpt lat="42.95226" lon="0.30834">
        <ele>1497.2</ele>
        <time>2021-05-29T07:33:14Z</time>
      </trkpt>
      <trkpt lat="42.95234" lon="0.30839">
        <ele>1497.4</ele>
        <time>2021-05-29T07:33:18Z</time>
      </trkpt>
      <trkpt lat="42.95236" lon="0.3084">
        <ele>1497.4</ele>
        <time>2021-05-29T07:33:19Z</time>
      </trkpt>
      <trkpt lat="42.95237" lon="0.30841">
        <ele>1497.6</ele>
        <time>2021-05-29T07:33:20Z</time>
      </trkpt>
      <trkpt lat="42.95239" lon="0.30841">
        <ele>1497.6</ele>
        <time>2021-05-29T07:33:21Z</time>
      </trkpt>
      <trkpt lat="42.9524" lon="0.30841">
        <ele>1497.6</ele>
        <time>2021-05-29T07:33:22Z</time>
      </trkpt>
      <trkpt lat="42.95241" lon="0.30842">
        <ele>1497.6</ele>
        <time>2021-05-29T07:33:23Z</time>
      </trkpt>
      <trkpt lat="42.95243" lon="0.30842">
        <ele>1497.6</ele>
        <time>2021-05-29T07:33:24Z</time>
      </trkpt>
      <trkpt lat="42.95245" lon="0.30843">
        <ele>1497.8</ele>
        <time>2021-05-29T07:33:25Z</time>
      </trkpt>
      <trkpt lat="42.95252" lon="0.30846">
        <ele>1498</ele>
        <time>2021-05-29T07:33:28Z</time>
      </trkpt>
      <trkpt lat="42.95254" lon="0.30847">
        <ele>1498.2</ele>
        <time>2021-05-29T07:33:29Z</time>
      </trkpt>
      <trkpt lat="42.95256" lon="0.30846">
        <ele>1498.4</ele>
        <time>2021-05-29T07:33:30Z</time>
      </trkpt>
      <trkpt lat="42.95258" lon="0.30845">
        <ele>1498.4</ele>
        <time>2021-05-29T07:33:31Z</time>
      </trkpt>
      <trkpt lat="42.9526" lon="0.30844">
        <ele>1498.6</ele>
        <time>2021-05-29T07:33:32Z</time>
      </trkpt>
      <trkpt lat="42.95262" lon="0.30844">
        <ele>1498.6</ele>
        <time>2021-05-29T07:33:33Z</time>
      </trkpt>
      <trkpt lat="42.95264" lon="0.30844">
        <ele>1498.6</ele>
        <time>2021-05-29T07:33:34Z</time>
      </trkpt>
      <trkpt lat="42.95276" lon="0.30848">
        <ele>1498.6</ele>
        <time>2021-05-29T07:33:39Z</time>
      </trkpt>
      <trkpt lat="42.95278" lon="0.30849">
        <ele>1498.6</ele>
        <time>2021-05-29T07:33:40Z</time>
      </trkpt>
      <trkpt lat="42.95281" lon="0.30849">
        <ele>1498.8</ele>
        <time>2021-05-29T07:33:41Z</time>
      </trkpt>
      <trkpt lat="42.95283" lon="0.3085">
        <ele>1498.8</ele>
        <time>2021-05-29T07:33:42Z</time>
      </trkpt>
      <trkpt lat="42.95285" lon="0.30852">
        <ele>1498.8</ele>
        <time>2021-05-29T07:33:43Z</time>
      </trkpt>
      <trkpt lat="42.95286" lon="0.30853">
        <ele>1498.8</ele>
        <time>2021-05-29T07:33:44Z</time>
      </trkpt>
      <trkpt lat="42.95288" lon="0.30854">
        <ele>1499</ele>
        <time>2021-05-29T07:33:45Z</time>
      </trkpt>
      <trkpt lat="42.9529" lon="0.30854">
        <ele>1499</ele>
        <time>2021-05-29T07:33:46Z</time>
      </trkpt>
      <trkpt lat="42.95292" lon="0.30855">
        <ele>1499</ele>
        <time>2021-05-29T07:33:47Z</time>
      </trkpt>
      <trkpt lat="42.95294" lon="0.30856">
        <ele>1499</ele>
        <time>2021-05-29T07:33:48Z</time>
      </trkpt>
      <trkpt lat="42.95295" lon="0.30858">
        <ele>1499</ele>
        <time>2021-05-29T07:33:49Z</time>
      </trkpt>
      <trkpt lat="42.95295" lon="0.30859">
        <ele>1499</ele>
        <time>2021-05-29T07:33:50Z</time>
      </trkpt>
      <trkpt lat="42.95295" lon="0.3086">
        <ele>1499</ele>
        <time>2021-05-29T07:33:51Z</time>
      </trkpt>
      <trkpt lat="42.95295" lon="0.30861">
        <ele>1499</ele>
        <time>2021-05-29T07:33:52Z</time>
      </trkpt>
      <trkpt lat="42.95294" lon="0.3086">
        <ele>1499</ele>
        <time>2021-05-29T07:33:53Z</time>
      </trkpt>
      <trkpt lat="42.95294" lon="0.30861">
        <ele>1499</ele>
        <time>2021-05-29T07:33:54Z</time>
      </trkpt>
      <trkpt lat="42.95294" lon="0.30861">
        <ele>1499</ele>
        <time>2021-05-29T07:33:55Z</time>
      </trkpt>
      <trkpt lat="42.95295" lon="0.30861">
        <ele>1499</ele>
        <time>2021-05-29T07:34:02Z</time>
      </trkpt>
      <trkpt lat="42.95295" lon="0.30862">
        <ele>1499.2</ele>
        <time>2021-05-29T07:34:03Z</time>
      </trkpt>
      <trkpt lat="42.95295" lon="0.30862">
        <ele>1499.2</ele>
        <time>2021-05-29T07:34:05Z</time>
      </trkpt>
      <trkpt lat="42.95296" lon="0.30862">
        <ele>1499</ele>
        <time>2021-05-29T07:34:10Z</time>
      </trkpt>
      <trkpt lat="42.95296" lon="0.30862">
        <ele>1499</ele>
        <time>2021-05-29T07:34:14Z</time>
      </trkpt>
      <trkpt lat="42.95296" lon="0.30862">
        <ele>1499.2</ele>
        <time>2021-05-29T07:34:15Z</time>
      </trkpt>
      <trkpt lat="42.95298" lon="0.30865">
        <ele>1499.2</ele>
        <time>2021-05-29T07:34:17Z</time>
      </trkpt>
      <trkpt lat="42.95299" lon="0.30866">
        <ele>1499.2</ele>
        <time>2021-05-29T07:34:18Z</time>
      </trkpt>
      <trkpt lat="42.95303" lon="0.3087">
        <ele>1499.4</ele>
        <time>2021-05-29T07:34:20Z</time>
      </trkpt>
      <trkpt lat="42.95306" lon="0.30874">
        <ele>1499.4</ele>
        <time>2021-05-29T07:34:22Z</time>
      </trkpt>
      <trkpt lat="42.95308" lon="0.30877">
        <ele>1499.4</ele>
        <time>2021-05-29T07:34:23Z</time>
      </trkpt>
      <trkpt lat="42.95313" lon="0.30884">
        <ele>1499.6</ele>
        <time>2021-05-29T07:34:26Z</time>
      </trkpt>
      <trkpt lat="42.95315" lon="0.30888">
        <ele>1499.6</ele>
        <time>2021-05-29T07:34:27Z</time>
      </trkpt>
      <trkpt lat="42.95319" lon="0.30892">
        <ele>1499.8</ele>
        <time>2021-05-29T07:34:29Z</time>
      </trkpt>
      <trkpt lat="42.95322" lon="0.30895">
        <ele>1499.8</ele>
        <time>2021-05-29T07:34:31Z</time>
      </trkpt>
      <trkpt lat="42.95332" lon="0.30909">
        <ele>1500</ele>
        <time>2021-05-29T07:34:37Z</time>
      </trkpt>
      <trkpt lat="42.95339" lon="0.30924">
        <ele>1500</ele>
        <time>2021-05-29T07:34:42Z</time>
      </trkpt>
      <trkpt lat="42.95343" lon="0.3093">
        <ele>1500</ele>
        <time>2021-05-29T07:34:44Z</time>
      </trkpt>
      <trkpt lat="42.95343" lon="0.30931">
        <ele>1499.8</ele>
        <time>2021-05-29T07:34:45Z</time>
      </trkpt>
      <trkpt lat="42.95344" lon="0.30933">
        <ele>1499.8</ele>
        <time>2021-05-29T07:34:46Z</time>
      </trkpt>
      <trkpt lat="42.95346" lon="0.30934">
        <ele>1499.6</ele>
        <time>2021-05-29T07:34:47Z</time>
      </trkpt>
      <trkpt lat="42.95356" lon="0.30952">
        <ele>1499.2</ele>
        <time>2021-05-29T07:34:53Z</time>
      </trkpt>
      <trkpt lat="42.95358" lon="0.30957">
        <ele>1499.2</ele>
        <time>2021-05-29T07:34:54Z</time>
      </trkpt>
      <trkpt lat="42.95366" lon="0.30976">
        <ele>1499</ele>
        <time>2021-05-29T07:34:58Z</time>
      </trkpt>
      <trkpt lat="42.95368" lon="0.3098">
        <ele>1498.8</ele>
        <time>2021-05-29T07:34:59Z</time>
      </trkpt>
      <trkpt lat="42.95381" lon="0.31004">
        <ele>1498.4</ele>
        <time>2021-05-29T07:35:03Z</time>
      </trkpt>
      <trkpt lat="42.95384" lon="0.3101">
        <ele>1498.2</ele>
        <time>2021-05-29T07:35:04Z</time>
      </trkpt>
      <trkpt lat="42.95389" lon="0.31023">
        <ele>1498</ele>
        <time>2021-05-29T07:35:06Z</time>
      </trkpt>
      <trkpt lat="42.95391" lon="0.31029">
        <ele>1497.8</ele>
        <time>2021-05-29T07:35:07Z</time>
      </trkpt>
      <trkpt lat="42.95392" lon="0.31034">
        <ele>1497.6</ele>
        <time>2021-05-29T07:35:08Z</time>
      </trkpt>
      <trkpt lat="42.95393" lon="0.31039">
        <ele>1497.4</ele>
        <time>2021-05-29T07:35:09Z</time>
      </trkpt>
      <trkpt lat="42.95394" lon="0.31045">
        <ele>1496.8</ele>
        <time>2021-05-29T07:35:10Z</time>
      </trkpt>
      <trkpt lat="42.95396" lon="0.3105">
        <ele>1496.6</ele>
        <time>2021-05-29T07:35:11Z</time>
      </trkpt>
      <trkpt lat="42.95397" lon="0.31056">
        <ele>1496.2</ele>
        <time>2021-05-29T07:35:12Z</time>
      </trkpt>
      <trkpt lat="42.95399" lon="0.3106">
        <ele>1495.6</ele>
        <time>2021-05-29T07:35:13Z</time>
      </trkpt>
      <trkpt lat="42.95403" lon="0.31065">
        <ele>1495.2</ele>
        <time>2021-05-29T07:35:14Z</time>
      </trkpt>
      <trkpt lat="42.95406" lon="0.31068">
        <ele>1495</ele>
        <time>2021-05-29T07:35:15Z</time>
      </trkpt>
      <trkpt lat="42.95409" lon="0.3107">
        <ele>1494.6</ele>
        <time>2021-05-29T07:35:16Z</time>
      </trkpt>
      <trkpt lat="42.95411" lon="0.31072">
        <ele>1494.2</ele>
        <time>2021-05-29T07:35:17Z</time>
      </trkpt>
      <trkpt lat="42.95413" lon="0.31073">
        <ele>1494</ele>
        <time>2021-05-29T07:35:18Z</time>
      </trkpt>
      <trkpt lat="42.95415" lon="0.31075">
        <ele>1493.8</ele>
        <time>2021-05-29T07:35:19Z</time>
      </trkpt>
      <trkpt lat="42.95422" lon="0.31079">
        <ele>1493.8</ele>
        <time>2021-05-29T07:35:21Z</time>
      </trkpt>
      <trkpt lat="42.95426" lon="0.31081">
        <ele>1493.8</ele>
        <time>2021-05-29T07:35:22Z</time>
      </trkpt>
      <trkpt lat="42.95433" lon="0.31089">
        <ele>1493.6</ele>
        <time>2021-05-29T07:35:24Z</time>
      </trkpt>
      <trkpt lat="42.95436" lon="0.31093">
        <ele>1493.4</ele>
        <time>2021-05-29T07:35:25Z</time>
      </trkpt>
      <trkpt lat="42.9544" lon="0.31097">
        <ele>1493.4</ele>
        <time>2021-05-29T07:35:26Z</time>
      </trkpt>
      <trkpt lat="42.95448" lon="0.31109">
        <ele>1493</ele>
        <time>2021-05-29T07:35:29Z</time>
      </trkpt>
      <trkpt lat="42.95451" lon="0.31113">
        <ele>1493</ele>
        <time>2021-05-29T07:35:30Z</time>
      </trkpt>
      <trkpt lat="42.95453" lon="0.31118">
        <ele>1493</ele>
        <time>2021-05-29T07:35:31Z</time>
      </trkpt>
      <trkpt lat="42.95455" lon="0.31121">
        <ele>1492.8</ele>
        <time>2021-05-29T07:35:32Z</time>
      </trkpt>
      <trkpt lat="42.95458" lon="0.31125">
        <ele>1492.8</ele>
        <time>2021-05-29T07:35:33Z</time>
      </trkpt>
      <trkpt lat="42.95473" lon="0.31144">
        <ele>1492.8</ele>
        <time>2021-05-29T07:35:38Z</time>
      </trkpt>
      <trkpt lat="42.95476" lon="0.31154">
        <ele>1492.6</ele>
        <time>2021-05-29T07:35:40Z</time>
      </trkpt>
      <trkpt lat="42.95479" lon="0.31159">
        <ele>1492.4</ele>
        <time>2021-05-29T07:35:41Z</time>
      </trkpt>
      <trkpt lat="42.95482" lon="0.31163">
        <ele>1492.4</ele>
        <time>2021-05-29T07:35:42Z</time>
      </trkpt>
      <trkpt lat="42.95486" lon="0.31166">
        <ele>1492.4</ele>
        <time>2021-05-29T07:35:43Z</time>
      </trkpt>
      <trkpt lat="42.9549" lon="0.3117">
        <ele>1492.4</ele>
        <time>2021-05-29T07:35:44Z</time>
      </trkpt>
      <trkpt lat="42.95493" lon="0.31173">
        <ele>1492.2</ele>
        <time>2021-05-29T07:35:45Z</time>
      </trkpt>
      <trkpt lat="42.95495" lon="0.31177">
        <ele>1492.2</ele>
        <time>2021-05-29T07:35:46Z</time>
      </trkpt>
      <trkpt lat="42.95495" lon="0.31181">
        <ele>1492.2</ele>
        <time>2021-05-29T07:35:47Z</time>
      </trkpt>
      <trkpt lat="42.95495" lon="0.31183">
        <ele>1492.2</ele>
        <time>2021-05-29T07:35:48Z</time>
      </trkpt>
      <trkpt lat="42.95496" lon="0.31185">
        <ele>1492.2</ele>
        <time>2021-05-29T07:35:49Z</time>
      </trkpt>
      <trkpt lat="42.95497" lon="0.31187">
        <ele>1492.2</ele>
        <time>2021-05-29T07:35:50Z</time>
      </trkpt>
      <trkpt lat="42.95499" lon="0.31189">
        <ele>1492.2</ele>
        <time>2021-05-29T07:35:51Z</time>
      </trkpt>
      <trkpt lat="42.95499" lon="0.31191">
        <ele>1492.2</ele>
        <time>2021-05-29T07:35:52Z</time>
      </trkpt>
      <trkpt lat="42.955" lon="0.31194">
        <ele>1492.2</ele>
        <time>2021-05-29T07:35:53Z</time>
      </trkpt>
      <trkpt lat="42.955" lon="0.31196">
        <ele>1492.4</ele>
        <time>2021-05-29T07:35:54Z</time>
      </trkpt>
      <trkpt lat="42.95501" lon="0.31199">
        <ele>1492.4</ele>
        <time>2021-05-29T07:35:55Z</time>
      </trkpt>
      <trkpt lat="42.95501" lon="0.31202">
        <ele>1492.6</ele>
        <time>2021-05-29T07:35:56Z</time>
      </trkpt>
      <trkpt lat="42.95502" lon="0.31204">
        <ele>1492.8</ele>
        <time>2021-05-29T07:35:57Z</time>
      </trkpt>
      <trkpt lat="42.95502" lon="0.31206">
        <ele>1492.8</ele>
        <time>2021-05-29T07:35:58Z</time>
      </trkpt>
      <trkpt lat="42.95502" lon="0.31208">
        <ele>1493</ele>
        <time>2021-05-29T07:35:59Z</time>
      </trkpt>
      <trkpt lat="42.95503" lon="0.31211">
        <ele>1493</ele>
        <time>2021-05-29T07:36:00Z</time>
      </trkpt>
      <trkpt lat="42.95504" lon="0.31213">
        <ele>1493.4</ele>
        <time>2021-05-29T07:36:01Z</time>
      </trkpt>
      <trkpt lat="42.95506" lon="0.31218">
        <ele>1493.6</ele>
        <time>2021-05-29T07:36:03Z</time>
      </trkpt>
      <trkpt lat="42.95506" lon="0.3122">
        <ele>1493.6</ele>
        <time>2021-05-29T07:36:04Z</time>
      </trkpt>
      <trkpt lat="42.95507" lon="0.31221">
        <ele>1494</ele>
        <time>2021-05-29T07:36:05Z</time>
      </trkpt>
      <trkpt lat="42.95508" lon="0.31223">
        <ele>1493.8</ele>
        <time>2021-05-29T07:36:06Z</time>
      </trkpt>
      <trkpt lat="42.95509" lon="0.31224">
        <ele>1494.2</ele>
        <time>2021-05-29T07:36:07Z</time>
      </trkpt>
      <trkpt lat="42.95512" lon="0.31225">
        <ele>1494.4</ele>
        <time>2021-05-29T07:36:09Z</time>
      </trkpt>
      <trkpt lat="42.95513" lon="0.31226">
        <ele>1494.6</ele>
        <time>2021-05-29T07:36:10Z</time>
      </trkpt>
      <trkpt lat="42.95513" lon="0.31226">
        <ele>1494.8</ele>
        <time>2021-05-29T07:36:11Z</time>
      </trkpt>
      <trkpt lat="42.95515" lon="0.31226">
        <ele>1494.8</ele>
        <time>2021-05-29T07:36:12Z</time>
      </trkpt>
      <trkpt lat="42.95516" lon="0.31226">
        <ele>1495</ele>
        <time>2021-05-29T07:36:13Z</time>
      </trkpt>
      <trkpt lat="42.95518" lon="0.31225">
        <ele>1495</ele>
        <time>2021-05-29T07:36:14Z</time>
      </trkpt>
      <trkpt lat="42.95519" lon="0.31224">
        <ele>1495.2</ele>
        <time>2021-05-29T07:36:15Z</time>
      </trkpt>
      <trkpt lat="42.95521" lon="0.31222">
        <ele>1495.2</ele>
        <time>2021-05-29T07:36:16Z</time>
      </trkpt>
      <trkpt lat="42.95522" lon="0.3122">
        <ele>1495.2</ele>
        <time>2021-05-29T07:36:17Z</time>
      </trkpt>
      <trkpt lat="42.95523" lon="0.31218">
        <ele>1495.2</ele>
        <time>2021-05-29T07:36:18Z</time>
      </trkpt>
      <trkpt lat="42.95525" lon="0.31216">
        <ele>1495.2</ele>
        <time>2021-05-29T07:36:19Z</time>
      </trkpt>
      <trkpt lat="42.95527" lon="0.31213">
        <ele>1495.2</ele>
        <time>2021-05-29T07:36:20Z</time>
      </trkpt>
      <trkpt lat="42.95528" lon="0.31211">
        <ele>1495.2</ele>
        <time>2021-05-29T07:36:21Z</time>
      </trkpt>
      <trkpt lat="42.95529" lon="0.31208">
        <ele>1495.2</ele>
        <time>2021-05-29T07:36:22Z</time>
      </trkpt>
      <trkpt lat="42.9553" lon="0.31204">
        <ele>1495</ele>
        <time>2021-05-29T07:36:23Z</time>
      </trkpt>
      <trkpt lat="42.95531" lon="0.31201">
        <ele>1495</ele>
        <time>2021-05-29T07:36:24Z</time>
      </trkpt>
      <trkpt lat="42.95531" lon="0.31199">
        <ele>1495</ele>
        <time>2021-05-29T07:36:25Z</time>
      </trkpt>
      <trkpt lat="42.95532" lon="0.31196">
        <ele>1494.8</ele>
        <time>2021-05-29T07:36:26Z</time>
      </trkpt>
      <trkpt lat="42.95532" lon="0.31189">
        <ele>1494</ele>
        <time>2021-05-29T07:36:28Z</time>
      </trkpt>
      <trkpt lat="42.95532" lon="0.31186">
        <ele>1493.6</ele>
        <time>2021-05-29T07:36:29Z</time>
      </trkpt>
      <trkpt lat="42.95532" lon="0.31183">
        <ele>1492.6</ele>
        <time>2021-05-29T07:36:30Z</time>
      </trkpt>
      <trkpt lat="42.95533" lon="0.3118">
        <ele>1492</ele>
        <time>2021-05-29T07:36:31Z</time>
      </trkpt>
      <trkpt lat="42.95533" lon="0.31177">
        <ele>1491.2</ele>
        <time>2021-05-29T07:36:32Z</time>
      </trkpt>
      <trkpt lat="42.95533" lon="0.31176">
        <ele>1490.6</ele>
        <time>2021-05-29T07:36:33Z</time>
      </trkpt>
      <trkpt lat="42.95533" lon="0.31176">
        <ele>1489</ele>
        <time>2021-05-29T07:36:34Z</time>
      </trkpt>
      <trkpt lat="42.95533" lon="0.31176">
        <ele>1487.8</ele>
        <time>2021-05-29T07:36:35Z</time>
      </trkpt>
      <trkpt lat="42.95533" lon="0.31176">
        <ele>1486.2</ele>
        <time>2021-05-29T07:36:37Z</time>
      </trkpt>
      <trkpt lat="42.95534" lon="0.31172">
        <ele>1485.2</ele>
        <time>2021-05-29T07:36:40Z</time>
      </trkpt>
      <trkpt lat="42.95534" lon="0.31168">
        <ele>1485.2</ele>
        <time>2021-05-29T07:36:41Z</time>
      </trkpt>
      <trkpt lat="42.95534" lon="0.31165">
        <ele>1485.2</ele>
        <time>2021-05-29T07:36:42Z</time>
      </trkpt>
      <trkpt lat="42.95533" lon="0.31149">
        <ele>1484.6</ele>
        <time>2021-05-29T07:36:46Z</time>
      </trkpt>
      <trkpt lat="42.95533" lon="0.31146">
        <ele>1484.6</ele>
        <time>2021-05-29T07:36:47Z</time>
      </trkpt>
      <trkpt lat="42.95532" lon="0.31143">
        <ele>1484.2</ele>
        <time>2021-05-29T07:36:48Z</time>
      </trkpt>
      <trkpt lat="42.95532" lon="0.31139">
        <ele>1483.6</ele>
        <time>2021-05-29T07:36:49Z</time>
      </trkpt>
      <trkpt lat="42.95531" lon="0.31133">
        <ele>1482</ele>
        <time>2021-05-29T07:36:51Z</time>
      </trkpt>
      <trkpt lat="42.95531" lon="0.31128">
        <ele>1480.2</ele>
        <time>2021-05-29T07:36:53Z</time>
      </trkpt>
      <trkpt lat="42.95531" lon="0.31123">
        <ele>1479</ele>
        <time>2021-05-29T07:36:54Z</time>
      </trkpt>
      <trkpt lat="42.95531" lon="0.31119">
        <ele>1478.6</ele>
        <time>2021-05-29T07:36:55Z</time>
      </trkpt>
      <trkpt lat="42.95532" lon="0.31116">
        <ele>1477.8</ele>
        <time>2021-05-29T07:36:56Z</time>
      </trkpt>
      <trkpt lat="42.95531" lon="0.31113">
        <ele>1477.6</ele>
        <time>2021-05-29T07:36:57Z</time>
      </trkpt>
      <trkpt lat="42.9553" lon="0.3111">
        <ele>1476.6</ele>
        <time>2021-05-29T07:36:58Z</time>
      </trkpt>
      <trkpt lat="42.95531" lon="0.31107">
        <ele>1476.4</ele>
        <time>2021-05-29T07:36:59Z</time>
      </trkpt>
      <trkpt lat="42.9553" lon="0.31105">
        <ele>1475.8</ele>
        <time>2021-05-29T07:37:00Z</time>
      </trkpt>
      <trkpt lat="42.95531" lon="0.31104">
        <ele>1475.8</ele>
        <time>2021-05-29T07:37:01Z</time>
      </trkpt>
      <trkpt lat="42.95531" lon="0.31101">
        <ele>1475</ele>
        <time>2021-05-29T07:37:02Z</time>
      </trkpt>
      <trkpt lat="42.95531" lon="0.31098">
        <ele>1474.6</ele>
        <time>2021-05-29T07:37:03Z</time>
      </trkpt>
      <trkpt lat="42.95529" lon="0.31097">
        <ele>1473.8</ele>
        <time>2021-05-29T07:37:04Z</time>
      </trkpt>
      <trkpt lat="42.95529" lon="0.31096">
        <ele>1473.6</ele>
        <time>2021-05-29T07:37:05Z</time>
      </trkpt>
      <trkpt lat="42.95529" lon="0.31096">
        <ele>1473.2</ele>
        <time>2021-05-29T07:37:06Z</time>
      </trkpt>
      <trkpt lat="42.95529" lon="0.31094">
        <ele>1473</ele>
        <time>2021-05-29T07:37:07Z</time>
      </trkpt>
      <trkpt lat="42.95529" lon="0.31093">
        <ele>1472.6</ele>
        <time>2021-05-29T07:37:08Z</time>
      </trkpt>
      <trkpt lat="42.95528" lon="0.31085">
        <ele>1471.4</ele>
        <time>2021-05-29T07:37:11Z</time>
      </trkpt>
      <trkpt lat="42.95528" lon="0.3108">
        <ele>1469.8</ele>
        <time>2021-05-29T07:37:13Z</time>
      </trkpt>
      <trkpt lat="42.95528" lon="0.31074">
        <ele>1468.4</ele>
        <time>2021-05-29T07:37:15Z</time>
      </trkpt>
      <trkpt lat="42.95529" lon="0.31072">
        <ele>1467.6</ele>
        <time>2021-05-29T07:37:16Z</time>
      </trkpt>
      <trkpt lat="42.95529" lon="0.3107">
        <ele>1467</ele>
        <time>2021-05-29T07:37:17Z</time>
      </trkpt>
      <trkpt lat="42.9553" lon="0.31061">
        <ele>1465.6</ele>
        <time>2021-05-29T07:37:20Z</time>
      </trkpt>
      <trkpt lat="42.9553" lon="0.31057">
        <ele>1464.6</ele>
        <time>2021-05-29T07:37:21Z</time>
      </trkpt>
      <trkpt lat="42.9553" lon="0.31053">
        <ele>1464.2</ele>
        <time>2021-05-29T07:37:22Z</time>
      </trkpt>
      <trkpt lat="42.9553" lon="0.31049">
        <ele>1463.4</ele>
        <time>2021-05-29T07:37:23Z</time>
      </trkpt>
      <trkpt lat="42.95528" lon="0.31039">
        <ele>1461.8</ele>
        <time>2021-05-29T07:37:26Z</time>
      </trkpt>
      <trkpt lat="42.95528" lon="0.31035">
        <ele>1460.2</ele>
        <time>2021-05-29T07:37:27Z</time>
      </trkpt>
      <trkpt lat="42.95528" lon="0.31032">
        <ele>1459.8</ele>
        <time>2021-05-29T07:37:28Z</time>
      </trkpt>
      <trkpt lat="42.95528" lon="0.31028">
        <ele>1458.8</ele>
        <time>2021-05-29T07:37:29Z</time>
      </trkpt>
      <trkpt lat="42.95528" lon="0.3102">
        <ele>1457.2</ele>
        <time>2021-05-29T07:37:31Z</time>
      </trkpt>
      <trkpt lat="42.95529" lon="0.31014">
        <ele>1456.2</ele>
        <time>2021-05-29T07:37:33Z</time>
      </trkpt>
      <trkpt lat="42.95531" lon="0.31004">
        <ele>1454.8</ele>
        <time>2021-05-29T07:37:35Z</time>
      </trkpt>
      <trkpt lat="42.95532" lon="0.31">
        <ele>1454</ele>
        <time>2021-05-29T07:37:36Z</time>
      </trkpt>
      <trkpt lat="42.95533" lon="0.30996">
        <ele>1453.6</ele>
        <time>2021-05-29T07:37:37Z</time>
      </trkpt>
      <trkpt lat="42.95535" lon="0.30985">
        <ele>1452.6</ele>
        <time>2021-05-29T07:37:39Z</time>
      </trkpt>
      <trkpt lat="42.95536" lon="0.30981">
        <ele>1451.4</ele>
        <time>2021-05-29T07:37:40Z</time>
      </trkpt>
      <trkpt lat="42.95536" lon="0.30978">
        <ele>1451</ele>
        <time>2021-05-29T07:37:41Z</time>
      </trkpt>
      <trkpt lat="42.95537" lon="0.30976">
        <ele>1450</ele>
        <time>2021-05-29T07:37:42Z</time>
      </trkpt>
      <trkpt lat="42.95538" lon="0.30974">
        <ele>1449.2</ele>
        <time>2021-05-29T07:37:43Z</time>
      </trkpt>
      <trkpt lat="42.95539" lon="0.30968">
        <ele>1448.2</ele>
        <time>2021-05-29T07:37:44Z</time>
      </trkpt>
      <trkpt lat="42.95539" lon="0.30961">
        <ele>1448</ele>
        <time>2021-05-29T07:37:45Z</time>
      </trkpt>
      <trkpt lat="42.95538" lon="0.30956">
        <ele>1447.2</ele>
        <time>2021-05-29T07:37:46Z</time>
      </trkpt>
      <trkpt lat="42.95538" lon="0.30949">
        <ele>1445.8</ele>
        <time>2021-05-29T07:37:48Z</time>
      </trkpt>
      <trkpt lat="42.95539" lon="0.30946">
        <ele>1445.4</ele>
        <time>2021-05-29T07:37:49Z</time>
      </trkpt>
      <trkpt lat="42.95538" lon="0.30942">
        <ele>1444.4</ele>
        <time>2021-05-29T07:37:50Z</time>
      </trkpt>
      <trkpt lat="42.95537" lon="0.30937">
        <ele>1443.8</ele>
        <time>2021-05-29T07:37:51Z</time>
      </trkpt>
      <trkpt lat="42.95536" lon="0.30932">
        <ele>1442.6</ele>
        <time>2021-05-29T07:37:52Z</time>
      </trkpt>
      <trkpt lat="42.95535" lon="0.30928">
        <ele>1441</ele>
        <time>2021-05-29T07:37:53Z</time>
      </trkpt>
      <trkpt lat="42.95534" lon="0.30925">
        <ele>1440.6</ele>
        <time>2021-05-29T07:37:54Z</time>
      </trkpt>
      <trkpt lat="42.95532" lon="0.30924">
        <ele>1439.4</ele>
        <time>2021-05-29T07:37:55Z</time>
      </trkpt>
      <trkpt lat="42.95531" lon="0.30922">
        <ele>1438.8</ele>
        <time>2021-05-29T07:37:56Z</time>
      </trkpt>
      <trkpt lat="42.9553" lon="0.3092">
        <ele>1437.8</ele>
        <time>2021-05-29T07:37:57Z</time>
      </trkpt>
      <trkpt lat="42.95528" lon="0.30919">
        <ele>1437.4</ele>
        <time>2021-05-29T07:37:58Z</time>
      </trkpt>
      <trkpt lat="42.95526" lon="0.30917">
        <ele>1436.6</ele>
        <time>2021-05-29T07:37:59Z</time>
      </trkpt>
      <trkpt lat="42.95524" lon="0.30917">
        <ele>1436.2</ele>
        <time>2021-05-29T07:38:00Z</time>
      </trkpt>
      <trkpt lat="42.95522" lon="0.30917">
        <ele>1435.6</ele>
        <time>2021-05-29T07:38:01Z</time>
      </trkpt>
      <trkpt lat="42.95521" lon="0.30916">
        <ele>1435.2</ele>
        <time>2021-05-29T07:38:02Z</time>
      </trkpt>
      <trkpt lat="42.95516" lon="0.30909">
        <ele>1433.8</ele>
        <time>2021-05-29T07:38:05Z</time>
      </trkpt>
      <trkpt lat="42.95517" lon="0.30907">
        <ele>1432.6</ele>
        <time>2021-05-29T07:38:07Z</time>
      </trkpt>
      <trkpt lat="42.95517" lon="0.30907">
        <ele>1431.4</ele>
        <time>2021-05-29T07:38:11Z</time>
      </trkpt>
      <trkpt lat="42.95517" lon="0.30907">
        <ele>1431</ele>
        <time>2021-05-29T07:38:12Z</time>
      </trkpt>
      <trkpt lat="42.95517" lon="0.30907">
        <ele>1431</ele>
        <time>2021-05-29T07:38:22Z</time>
      </trkpt>
      <trkpt lat="42.95518" lon="0.30909">
        <ele>1431</ele>
        <time>2021-05-29T07:38:47Z</time>
      </trkpt>
      <trkpt lat="42.95518" lon="0.30911">
        <ele>1431</ele>
        <time>2021-05-29T07:38:48Z</time>
      </trkpt>
      <trkpt lat="42.95519" lon="0.30912">
        <ele>1431.2</ele>
        <time>2021-05-29T07:38:49Z</time>
      </trkpt>
      <trkpt lat="42.9552" lon="0.30913">
        <ele>1431.2</ele>
        <time>2021-05-29T07:38:50Z</time>
      </trkpt>
      <trkpt lat="42.9552" lon="0.30914">
        <ele>1431.2</ele>
        <time>2021-05-29T07:38:51Z</time>
      </trkpt>
      <trkpt lat="42.95521" lon="0.30914">
        <ele>1431.4</ele>
        <time>2021-05-29T07:38:54Z</time>
      </trkpt>
      <trkpt lat="42.95521" lon="0.30914">
        <ele>1432.2</ele>
        <time>2021-05-29T07:39:00Z</time>
      </trkpt>
      <trkpt lat="42.95521" lon="0.30915">
        <ele>1432.4</ele>
        <time>2021-05-29T07:39:02Z</time>
      </trkpt>
      <trkpt lat="42.95521" lon="0.30915">
        <ele>1433</ele>
        <time>2021-05-29T07:39:06Z</time>
      </trkpt>
      <trkpt lat="42.95521" lon="0.30915">
        <ele>1433.2</ele>
        <time>2021-05-29T07:39:07Z</time>
      </trkpt>
      <trkpt lat="42.95522" lon="0.30915">
        <ele>1434.2</ele>
        <time>2021-05-29T07:39:11Z</time>
      </trkpt>
      <trkpt lat="42.95522" lon="0.30915">
        <ele>1435.4</ele>
        <time>2021-05-29T07:39:17Z</time>
      </trkpt>
      <trkpt lat="42.95524" lon="0.30918">
        <ele>1436.4</ele>
        <time>2021-05-29T07:39:23Z</time>
      </trkpt>
      <trkpt lat="42.95527" lon="0.3092">
        <ele>1437.4</ele>
        <time>2021-05-29T07:39:30Z</time>
      </trkpt>
      <trkpt lat="42.95527" lon="0.3092">
        <ele>1438.2</ele>
        <time>2021-05-29T07:39:35Z</time>
      </trkpt>
      <trkpt lat="42.95527" lon="0.3092">
        <ele>1438.4</ele>
        <time>2021-05-29T07:39:36Z</time>
      </trkpt>
      <trkpt lat="42.95527" lon="0.3092">
        <ele>1439.6</ele>
        <time>2021-05-29T07:39:41Z</time>
      </trkpt>
      <trkpt lat="42.95528" lon="0.30921">
        <ele>1440</ele>
        <time>2021-05-29T07:39:43Z</time>
      </trkpt>
      <trkpt lat="42.95528" lon="0.30924">
        <ele>1440.4</ele>
        <time>2021-05-29T07:39:44Z</time>
      </trkpt>
      <trkpt lat="42.95528" lon="0.30927">
        <ele>1440.6</ele>
        <time>2021-05-29T07:39:45Z</time>
      </trkpt>
      <trkpt lat="42.95529" lon="0.3093">
        <ele>1440.8</ele>
        <time>2021-05-29T07:39:46Z</time>
      </trkpt>
      <trkpt lat="42.95529" lon="0.30932">
        <ele>1441</ele>
        <time>2021-05-29T07:39:47Z</time>
      </trkpt>
      <trkpt lat="42.9553" lon="0.30934">
        <ele>1441</ele>
        <time>2021-05-29T07:39:48Z</time>
      </trkpt>
      <trkpt lat="42.9553" lon="0.30935">
        <ele>1441.4</ele>
        <time>2021-05-29T07:39:49Z</time>
      </trkpt>
      <trkpt lat="42.9553" lon="0.30939">
        <ele>1441.8</ele>
        <time>2021-05-29T07:39:51Z</time>
      </trkpt>
      <trkpt lat="42.9553" lon="0.3094">
        <ele>1441.8</ele>
        <time>2021-05-29T07:39:52Z</time>
      </trkpt>
      <trkpt lat="42.9553" lon="0.30941">
        <ele>1442</ele>
        <time>2021-05-29T07:39:53Z</time>
      </trkpt>
      <trkpt lat="42.9553" lon="0.30942">
        <ele>1442.2</ele>
        <time>2021-05-29T07:39:54Z</time>
      </trkpt>
      <trkpt lat="42.95531" lon="0.30943">
        <ele>1442.4</ele>
        <time>2021-05-29T07:39:55Z</time>
      </trkpt>
      <trkpt lat="42.95531" lon="0.30944">
        <ele>1442.8</ele>
        <time>2021-05-29T07:39:57Z</time>
      </trkpt>
      <trkpt lat="42.95531" lon="0.30944">
        <ele>1442.8</ele>
        <time>2021-05-29T07:39:58Z</time>
      </trkpt>
      <trkpt lat="42.95531" lon="0.30944">
        <ele>1443.2</ele>
        <time>2021-05-29T07:39:59Z</time>
      </trkpt>
      <trkpt lat="42.95531" lon="0.30944">
        <ele>1443.2</ele>
        <time>2021-05-29T07:40:00Z</time>
      </trkpt>
      <trkpt lat="42.95531" lon="0.30944">
        <ele>1443.6</ele>
        <time>2021-05-29T07:40:01Z</time>
      </trkpt>
      <trkpt lat="42.95531" lon="0.30944">
        <ele>1443.6</ele>
        <time>2021-05-29T07:40:02Z</time>
      </trkpt>
      <trkpt lat="42.95531" lon="0.30945">
        <ele>1443.8</ele>
        <time>2021-05-29T07:40:03Z</time>
      </trkpt>
      <trkpt lat="42.95532" lon="0.30948">
        <ele>1444</ele>
        <time>2021-05-29T07:40:04Z</time>
      </trkpt>
      <trkpt lat="42.95532" lon="0.30948">
        <ele>1444.2</ele>
        <time>2021-05-29T07:40:05Z</time>
      </trkpt>
      <trkpt lat="42.95532" lon="0.30948">
        <ele>1444.8</ele>
        <time>2021-05-29T07:40:10Z</time>
      </trkpt>
      <trkpt lat="42.95532" lon="0.30948">
        <ele>1444.8</ele>
        <time>2021-05-29T07:40:11Z</time>
      </trkpt>
      <trkpt lat="42.95532" lon="0.30949">
        <ele>1445.2</ele>
        <time>2021-05-29T07:40:16Z</time>
      </trkpt>
      <trkpt lat="42.95532" lon="0.3095">
        <ele>1445.2</ele>
        <time>2021-05-29T07:40:17Z</time>
      </trkpt>
      <trkpt lat="42.95532" lon="0.3095">
        <ele>1445.4</ele>
        <time>2021-05-29T07:40:20Z</time>
      </trkpt>
      <trkpt lat="42.95532" lon="0.30953">
        <ele>1445.6</ele>
        <time>2021-05-29T07:40:22Z</time>
      </trkpt>
      <trkpt lat="42.95532" lon="0.30955">
        <ele>1445.8</ele>
        <time>2021-05-29T07:40:23Z</time>
      </trkpt>
      <trkpt lat="42.95531" lon="0.30957">
        <ele>1446.2</ele>
        <time>2021-05-29T07:40:24Z</time>
      </trkpt>
      <trkpt lat="42.95531" lon="0.30959">
        <ele>1446.4</ele>
        <time>2021-05-29T07:40:25Z</time>
      </trkpt>
      <trkpt lat="42.95531" lon="0.30961">
        <ele>1446.4</ele>
        <time>2021-05-29T07:40:26Z</time>
      </trkpt>
      <trkpt lat="42.9553" lon="0.30963">
        <ele>1446.8</ele>
        <time>2021-05-29T07:40:27Z</time>
      </trkpt>
      <trkpt lat="42.9553" lon="0.30965">
        <ele>1446.8</ele>
        <time>2021-05-29T07:40:28Z</time>
      </trkpt>
      <trkpt lat="42.9553" lon="0.30966">
        <ele>1447</ele>
        <time>2021-05-29T07:40:29Z</time>
      </trkpt>
      <trkpt lat="42.9553" lon="0.30969">
        <ele>1447.2</ele>
        <time>2021-05-29T07:40:30Z</time>
      </trkpt>
      <trkpt lat="42.9553" lon="0.30971">
        <ele>1447.4</ele>
        <time>2021-05-29T07:40:31Z</time>
      </trkpt>
      <trkpt lat="42.9553" lon="0.30972">
        <ele>1447.6</ele>
        <time>2021-05-29T07:40:32Z</time>
      </trkpt>
      <trkpt lat="42.95529" lon="0.30974">
        <ele>1448</ele>
        <time>2021-05-29T07:40:33Z</time>
      </trkpt>
      <trkpt lat="42.95529" lon="0.30974">
        <ele>1448</ele>
        <time>2021-05-29T07:40:34Z</time>
      </trkpt>
      <trkpt lat="42.95529" lon="0.30974">
        <ele>1448.2</ele>
        <time>2021-05-29T07:40:35Z</time>
      </trkpt>
      <trkpt lat="42.95529" lon="0.30974">
        <ele>1448.4</ele>
        <time>2021-05-29T07:40:36Z</time>
      </trkpt>
      <trkpt lat="42.95529" lon="0.30974">
        <ele>1448.6</ele>
        <time>2021-05-29T07:40:37Z</time>
      </trkpt>
      <trkpt lat="42.95529" lon="0.30974">
        <ele>1448.8</ele>
        <time>2021-05-29T07:40:38Z</time>
      </trkpt>
      <trkpt lat="42.95529" lon="0.30976">
        <ele>1449</ele>
        <time>2021-05-29T07:40:39Z</time>
      </trkpt>
      <trkpt lat="42.95529" lon="0.30978">
        <ele>1449.2</ele>
        <time>2021-05-29T07:40:40Z</time>
      </trkpt>
      <trkpt lat="42.9553" lon="0.30982">
        <ele>1449.4</ele>
        <time>2021-05-29T07:40:41Z</time>
      </trkpt>
      <trkpt lat="42.9553" lon="0.30985">
        <ele>1449.6</ele>
        <time>2021-05-29T07:40:42Z</time>
      </trkpt>
      <trkpt lat="42.95531" lon="0.30986">
        <ele>1449.8</ele>
        <time>2021-05-29T07:40:43Z</time>
      </trkpt>
      <trkpt lat="42.95531" lon="0.30987">
        <ele>1450</ele>
        <time>2021-05-29T07:40:44Z</time>
      </trkpt>
      <trkpt lat="42.95531" lon="0.30988">
        <ele>1450.2</ele>
        <time>2021-05-29T07:40:45Z</time>
      </trkpt>
      <trkpt lat="42.95531" lon="0.30988">
        <ele>1450.4</ele>
        <time>2021-05-29T07:40:46Z</time>
      </trkpt>
      <trkpt lat="42.95529" lon="0.30989">
        <ele>1450.6</ele>
        <time>2021-05-29T07:40:47Z</time>
      </trkpt>
      <trkpt lat="42.95528" lon="0.30992">
        <ele>1450.6</ele>
        <time>2021-05-29T07:40:48Z</time>
      </trkpt>
      <trkpt lat="42.95528" lon="0.30992">
        <ele>1450.8</ele>
        <time>2021-05-29T07:40:49Z</time>
      </trkpt>
      <trkpt lat="42.95528" lon="0.30992">
        <ele>1450.8</ele>
        <time>2021-05-29T07:40:50Z</time>
      </trkpt>
      <trkpt lat="42.95528" lon="0.30992">
        <ele>1451</ele>
        <time>2021-05-29T07:40:51Z</time>
      </trkpt>
      <trkpt lat="42.95527" lon="0.30993">
        <ele>1451.2</ele>
        <time>2021-05-29T07:40:52Z</time>
      </trkpt>
      <trkpt lat="42.95527" lon="0.30994">
        <ele>1451.4</ele>
        <time>2021-05-29T07:40:53Z</time>
      </trkpt>
      <trkpt lat="42.95526" lon="0.30995">
        <ele>1451.6</ele>
        <time>2021-05-29T07:40:54Z</time>
      </trkpt>
      <trkpt lat="42.95526" lon="0.30995">
        <ele>1451.8</ele>
        <time>2021-05-29T07:40:55Z</time>
      </trkpt>
      <trkpt lat="42.95526" lon="0.30996">
        <ele>1452</ele>
        <time>2021-05-29T07:40:56Z</time>
      </trkpt>
      <trkpt lat="42.95526" lon="0.30997">
        <ele>1452</ele>
        <time>2021-05-29T07:40:57Z</time>
      </trkpt>
      <trkpt lat="42.95526" lon="0.30997">
        <ele>1452.2</ele>
        <time>2021-05-29T07:40:58Z</time>
      </trkpt>
      <trkpt lat="42.95526" lon="0.30998">
        <ele>1452.2</ele>
        <time>2021-05-29T07:40:59Z</time>
      </trkpt>
      <trkpt lat="42.95526" lon="0.30998">
        <ele>1452.2</ele>
        <time>2021-05-29T07:41:00Z</time>
      </trkpt>
      <trkpt lat="42.95526" lon="0.30998">
        <ele>1452.2</ele>
        <time>2021-05-29T07:41:01Z</time>
      </trkpt>
      <trkpt lat="42.95526" lon="0.30998">
        <ele>1452.6</ele>
        <time>2021-05-29T07:41:02Z</time>
      </trkpt>
      <trkpt lat="42.95526" lon="0.30998">
        <ele>1453</ele>
        <time>2021-05-29T07:41:03Z</time>
      </trkpt>
      <trkpt lat="42.95526" lon="0.30998">
        <ele>1453</ele>
        <time>2021-05-29T07:41:04Z</time>
      </trkpt>
      <trkpt lat="42.95526" lon="0.30998">
        <ele>1453.2</ele>
        <time>2021-05-29T07:41:05Z</time>
      </trkpt>
      <trkpt lat="42.95526" lon="0.30998">
        <ele>1453.2</ele>
        <time>2021-05-29T07:41:06Z</time>
      </trkpt>
      <trkpt lat="42.95526" lon="0.31">
        <ele>1453.4</ele>
        <time>2021-05-29T07:41:07Z</time>
      </trkpt>
      <trkpt lat="42.95527" lon="0.31003">
        <ele>1453.6</ele>
        <time>2021-05-29T07:41:08Z</time>
      </trkpt>
      <trkpt lat="42.95527" lon="0.31004">
        <ele>1453.8</ele>
        <time>2021-05-29T07:41:09Z</time>
      </trkpt>
      <trkpt lat="42.95527" lon="0.31004">
        <ele>1454.4</ele>
        <time>2021-05-29T07:41:12Z</time>
      </trkpt>
      <trkpt lat="42.95527" lon="0.31004">
        <ele>1455.4</ele>
        <time>2021-05-29T07:41:20Z</time>
      </trkpt>
      <trkpt lat="42.95527" lon="0.31005">
        <ele>1456</ele>
        <time>2021-05-29T07:41:22Z</time>
      </trkpt>
      <trkpt lat="42.95527" lon="0.31007">
        <ele>1456</ele>
        <time>2021-05-29T07:41:23Z</time>
      </trkpt>
      <trkpt lat="42.95527" lon="0.31008">
        <ele>1456.4</ele>
        <time>2021-05-29T07:41:24Z</time>
      </trkpt>
      <trkpt lat="42.95528" lon="0.31014">
        <ele>1457.2</ele>
        <time>2021-05-29T07:41:31Z</time>
      </trkpt>
      <trkpt lat="42.95528" lon="0.31017">
        <ele>1457.4</ele>
        <time>2021-05-29T07:41:33Z</time>
      </trkpt>
      <trkpt lat="42.95528" lon="0.31017">
        <ele>1457.6</ele>
        <time>2021-05-29T07:41:34Z</time>
      </trkpt>
      <trkpt lat="42.95528" lon="0.31017">
        <ele>1457.8</ele>
        <time>2021-05-29T07:41:37Z</time>
      </trkpt>
      <trkpt lat="42.95528" lon="0.31017">
        <ele>1458</ele>
        <time>2021-05-29T07:41:38Z</time>
      </trkpt>
      <trkpt lat="42.95528" lon="0.3102">
        <ele>1458</ele>
        <time>2021-05-29T07:41:39Z</time>
      </trkpt>
      <trkpt lat="42.95528" lon="0.31022">
        <ele>1458</ele>
        <time>2021-05-29T07:41:40Z</time>
      </trkpt>
      <trkpt lat="42.95528" lon="0.31026">
        <ele>1458</ele>
        <time>2021-05-29T07:41:41Z</time>
      </trkpt>
      <trkpt lat="42.95528" lon="0.31028">
        <ele>1458</ele>
        <time>2021-05-29T07:41:42Z</time>
      </trkpt>
      <trkpt lat="42.95528" lon="0.3103">
        <ele>1458.2</ele>
        <time>2021-05-29T07:41:43Z</time>
      </trkpt>
      <trkpt lat="42.95528" lon="0.31032">
        <ele>1458.4</ele>
        <time>2021-05-29T07:41:44Z</time>
      </trkpt>
      <trkpt lat="42.95528" lon="0.31032">
        <ele>1458.4</ele>
        <time>2021-05-29T07:41:45Z</time>
      </trkpt>
      <trkpt lat="42.95528" lon="0.31034">
        <ele>1458.6</ele>
        <time>2021-05-29T07:41:46Z</time>
      </trkpt>
      <trkpt lat="42.95528" lon="0.31036">
        <ele>1458.8</ele>
        <time>2021-05-29T07:41:47Z</time>
      </trkpt>
      <trkpt lat="42.95529" lon="0.31038">
        <ele>1458.8</ele>
        <time>2021-05-29T07:41:48Z</time>
      </trkpt>
      <trkpt lat="42.95529" lon="0.31039">
        <ele>1459</ele>
        <time>2021-05-29T07:41:49Z</time>
      </trkpt>
      <trkpt lat="42.95528" lon="0.31039">
        <ele>1459.2</ele>
        <time>2021-05-29T07:41:50Z</time>
      </trkpt>
      <trkpt lat="42.95528" lon="0.31039">
        <ele>1459.4</ele>
        <time>2021-05-29T07:41:51Z</time>
      </trkpt>
      <trkpt lat="42.95527" lon="0.3104">
        <ele>1459.4</ele>
        <time>2021-05-29T07:41:52Z</time>
      </trkpt>
      <trkpt lat="42.95527" lon="0.31041">
        <ele>1459.8</ele>
        <time>2021-05-29T07:41:53Z</time>
      </trkpt>
      <trkpt lat="42.95528" lon="0.31042">
        <ele>1459.8</ele>
        <time>2021-05-29T07:41:54Z</time>
      </trkpt>
      <trkpt lat="42.95527" lon="0.31042">
        <ele>1460</ele>
        <time>2021-05-29T07:41:55Z</time>
      </trkpt>
      <trkpt lat="42.95527" lon="0.31042">
        <ele>1460.2</ele>
        <time>2021-05-29T07:41:56Z</time>
      </trkpt>
      <trkpt lat="42.95527" lon="0.31042">
        <ele>1460.2</ele>
        <time>2021-05-29T07:41:57Z</time>
      </trkpt>
      <trkpt lat="42.95527" lon="0.31042">
        <ele>1460.4</ele>
        <time>2021-05-29T07:41:58Z</time>
      </trkpt>
      <trkpt lat="42.95527" lon="0.31042">
        <ele>1460.6</ele>
        <time>2021-05-29T07:41:59Z</time>
      </trkpt>
      <trkpt lat="42.95527" lon="0.31042">
        <ele>1460.8</ele>
        <time>2021-05-29T07:42:00Z</time>
      </trkpt>
      <trkpt lat="42.95527" lon="0.31042">
        <ele>1460.8</ele>
        <time>2021-05-29T07:42:01Z</time>
      </trkpt>
      <trkpt lat="42.95527" lon="0.31042">
        <ele>1461.6</ele>
        <time>2021-05-29T07:42:06Z</time>
      </trkpt>
      <trkpt lat="42.95527" lon="0.31042">
        <ele>1462.4</ele>
        <time>2021-05-29T07:42:12Z</time>
      </trkpt>
      <trkpt lat="42.95527" lon="0.31042">
        <ele>1462.6</ele>
        <time>2021-05-29T07:42:14Z</time>
      </trkpt>
      <trkpt lat="42.95527" lon="0.31043">
        <ele>1463.8</ele>
        <time>2021-05-29T07:42:21Z</time>
      </trkpt>
      <trkpt lat="42.95527" lon="0.31043">
        <ele>1463.8</ele>
        <time>2021-05-29T07:42:22Z</time>
      </trkpt>
      <trkpt lat="42.95527" lon="0.31043">
        <ele>1464.4</ele>
        <time>2021-05-29T07:42:26Z</time>
      </trkpt>
      <trkpt lat="42.95527" lon="0.31045">
        <ele>1464.8</ele>
        <time>2021-05-29T07:42:29Z</time>
      </trkpt>
      <trkpt lat="42.95527" lon="0.31047">
        <ele>1465.8</ele>
        <time>2021-05-29T07:42:35Z</time>
      </trkpt>
      <trkpt lat="42.95526" lon="0.31052">
        <ele>1466.6</ele>
        <time>2021-05-29T07:42:40Z</time>
      </trkpt>
      <trkpt lat="42.95526" lon="0.31053">
        <ele>1466.8</ele>
        <time>2021-05-29T07:42:41Z</time>
      </trkpt>
      <trkpt lat="42.95526" lon="0.31054">
        <ele>1467</ele>
        <time>2021-05-29T07:42:42Z</time>
      </trkpt>
      <trkpt lat="42.95526" lon="0.31054">
        <ele>1467.2</ele>
        <time>2021-05-29T07:42:43Z</time>
      </trkpt>
      <trkpt lat="42.95526" lon="0.31058">
        <ele>1467.4</ele>
        <time>2021-05-29T07:42:44Z</time>
      </trkpt>
      <trkpt lat="42.95526" lon="0.31062">
        <ele>1467.4</ele>
        <time>2021-05-29T07:42:45Z</time>
      </trkpt>
      <trkpt lat="42.95525" lon="0.31063">
        <ele>1467.6</ele>
        <time>2021-05-29T07:42:46Z</time>
      </trkpt>
      <trkpt lat="42.95526" lon="0.31066">
        <ele>1467.6</ele>
        <time>2021-05-29T07:42:47Z</time>
      </trkpt>
      <trkpt lat="42.95526" lon="0.31067">
        <ele>1467.8</ele>
        <time>2021-05-29T07:42:48Z</time>
      </trkpt>
      <trkpt lat="42.95526" lon="0.31067">
        <ele>1468</ele>
        <time>2021-05-29T07:42:49Z</time>
      </trkpt>
      <trkpt lat="42.95526" lon="0.31067">
        <ele>1469</ele>
        <time>2021-05-29T07:42:54Z</time>
      </trkpt>
      <trkpt lat="42.95525" lon="0.31067">
        <ele>1469.4</ele>
        <time>2021-05-29T07:42:59Z</time>
      </trkpt>
      <trkpt lat="42.95525" lon="0.3107">
        <ele>1470</ele>
        <time>2021-05-29T07:43:14Z</time>
      </trkpt>
      <trkpt lat="42.95525" lon="0.3107">
        <ele>1470</ele>
        <time>2021-05-29T07:43:16Z</time>
      </trkpt>
      <trkpt lat="42.95525" lon="0.3107">
        <ele>1470.2</ele>
        <time>2021-05-29T07:43:19Z</time>
      </trkpt>
      <trkpt lat="42.95525" lon="0.31071">
        <ele>1471</ele>
        <time>2021-05-29T07:43:24Z</time>
      </trkpt>
      <trkpt lat="42.95525" lon="0.31073">
        <ele>1471.4</ele>
        <time>2021-05-29T07:43:26Z</time>
      </trkpt>
      <trkpt lat="42.95526" lon="0.31086">
        <ele>1472</ele>
        <time>2021-05-29T07:43:30Z</time>
      </trkpt>
      <trkpt lat="42.95526" lon="0.31087">
        <ele>1472</ele>
        <time>2021-05-29T07:43:31Z</time>
      </trkpt>
      <trkpt lat="42.95527" lon="0.31092">
        <ele>1472.2</ele>
        <time>2021-05-29T07:43:33Z</time>
      </trkpt>
      <trkpt lat="42.95527" lon="0.31095">
        <ele>1472.4</ele>
        <time>2021-05-29T07:43:34Z</time>
      </trkpt>
      <trkpt lat="42.95527" lon="0.31097">
        <ele>1472.6</ele>
        <time>2021-05-29T07:43:35Z</time>
      </trkpt>
      <trkpt lat="42.95527" lon="0.311">
        <ele>1472.8</ele>
        <time>2021-05-29T07:43:36Z</time>
      </trkpt>
      <trkpt lat="42.95527" lon="0.31103">
        <ele>1472.8</ele>
        <time>2021-05-29T07:43:37Z</time>
      </trkpt>
      <trkpt lat="42.95527" lon="0.31106">
        <ele>1473</ele>
        <time>2021-05-29T07:43:38Z</time>
      </trkpt>
      <trkpt lat="42.95528" lon="0.31108">
        <ele>1473.2</ele>
        <time>2021-05-29T07:43:39Z</time>
      </trkpt>
      <trkpt lat="42.95528" lon="0.3111">
        <ele>1473.4</ele>
        <time>2021-05-29T07:43:40Z</time>
      </trkpt>
      <trkpt lat="42.95528" lon="0.31111">
        <ele>1473.6</ele>
        <time>2021-05-29T07:43:41Z</time>
      </trkpt>
      <trkpt lat="42.95528" lon="0.31112">
        <ele>1473.8</ele>
        <time>2021-05-29T07:43:42Z</time>
      </trkpt>
      <trkpt lat="42.95528" lon="0.31113">
        <ele>1474</ele>
        <time>2021-05-29T07:43:43Z</time>
      </trkpt>
      <trkpt lat="42.95528" lon="0.31115">
        <ele>1474.2</ele>
        <time>2021-05-29T07:43:44Z</time>
      </trkpt>
      <trkpt lat="42.95528" lon="0.31116">
        <ele>1474.4</ele>
        <time>2021-05-29T07:43:45Z</time>
      </trkpt>
      <trkpt lat="42.95528" lon="0.31116">
        <ele>1474.4</ele>
        <time>2021-05-29T07:43:46Z</time>
      </trkpt>
      <trkpt lat="42.95529" lon="0.31118">
        <ele>1474.6</ele>
        <time>2021-05-29T07:43:47Z</time>
      </trkpt>
      <trkpt lat="42.95529" lon="0.3112">
        <ele>1474.8</ele>
        <time>2021-05-29T07:43:48Z</time>
      </trkpt>
      <trkpt lat="42.95529" lon="0.31121">
        <ele>1474.8</ele>
        <time>2021-05-29T07:43:49Z</time>
      </trkpt>
      <trkpt lat="42.9553" lon="0.31122">
        <ele>1475</ele>
        <time>2021-05-29T07:43:50Z</time>
      </trkpt>
      <trkpt lat="42.9553" lon="0.31123">
        <ele>1475.2</ele>
        <time>2021-05-29T07:43:51Z</time>
      </trkpt>
      <trkpt lat="42.9553" lon="0.31124">
        <ele>1475.2</ele>
        <time>2021-05-29T07:43:52Z</time>
      </trkpt>
      <trkpt lat="42.9553" lon="0.31126">
        <ele>1475.4</ele>
        <time>2021-05-29T07:43:53Z</time>
      </trkpt>
      <trkpt lat="42.95529" lon="0.31127">
        <ele>1475.6</ele>
        <time>2021-05-29T07:43:54Z</time>
      </trkpt>
      <trkpt lat="42.95529" lon="0.31128">
        <ele>1475.8</ele>
        <time>2021-05-29T07:43:55Z</time>
      </trkpt>
      <trkpt lat="42.95529" lon="0.31129">
        <ele>1476</ele>
        <time>2021-05-29T07:43:56Z</time>
      </trkpt>
      <trkpt lat="42.95529" lon="0.3113">
        <ele>1476.2</ele>
        <time>2021-05-29T07:43:57Z</time>
      </trkpt>
      <trkpt lat="42.95529" lon="0.3113">
        <ele>1476.4</ele>
        <time>2021-05-29T07:43:58Z</time>
      </trkpt>
      <trkpt lat="42.95529" lon="0.3113">
        <ele>1476.6</ele>
        <time>2021-05-29T07:43:59Z</time>
      </trkpt>
      <trkpt lat="42.9553" lon="0.31131">
        <ele>1476.8</ele>
        <time>2021-05-29T07:44:00Z</time>
      </trkpt>
      <trkpt lat="42.9553" lon="0.31132">
        <ele>1477</ele>
        <time>2021-05-29T07:44:01Z</time>
      </trkpt>
      <trkpt lat="42.9553" lon="0.31132">
        <ele>1477</ele>
        <time>2021-05-29T07:44:02Z</time>
      </trkpt>
      <trkpt lat="42.9553" lon="0.31132">
        <ele>1477</ele>
        <time>2021-05-29T07:44:03Z</time>
      </trkpt>
      <trkpt lat="42.9553" lon="0.31133">
        <ele>1477.4</ele>
        <time>2021-05-29T07:44:04Z</time>
      </trkpt>
      <trkpt lat="42.9553" lon="0.31133">
        <ele>1477.4</ele>
        <time>2021-05-29T07:44:05Z</time>
      </trkpt>
      <trkpt lat="42.9553" lon="0.31134">
        <ele>1477.6</ele>
        <time>2021-05-29T07:44:06Z</time>
      </trkpt>
      <trkpt lat="42.95531" lon="0.31134">
        <ele>1477.8</ele>
        <time>2021-05-29T07:44:07Z</time>
      </trkpt>
      <trkpt lat="42.95531" lon="0.31134">
        <ele>1477.8</ele>
        <time>2021-05-29T07:44:08Z</time>
      </trkpt>
      <trkpt lat="42.95531" lon="0.31134">
        <ele>1478</ele>
        <time>2021-05-29T07:44:09Z</time>
      </trkpt>
      <trkpt lat="42.95531" lon="0.31134">
        <ele>1478.4</ele>
        <time>2021-05-29T07:44:11Z</time>
      </trkpt>
      <trkpt lat="42.95531" lon="0.31134">
        <ele>1478.8</ele>
        <time>2021-05-29T07:44:13Z</time>
      </trkpt>
      <trkpt lat="42.95531" lon="0.31134">
        <ele>1479.2</ele>
        <time>2021-05-29T07:44:14Z</time>
      </trkpt>
      <trkpt lat="42.95531" lon="0.31136">
        <ele>1479.4</ele>
        <time>2021-05-29T07:44:15Z</time>
      </trkpt>
      <trkpt lat="42.95531" lon="0.31137">
        <ele>1479.6</ele>
        <time>2021-05-29T07:44:16Z</time>
      </trkpt>
      <trkpt lat="42.95531" lon="0.31139">
        <ele>1479.8</ele>
        <time>2021-05-29T07:44:17Z</time>
      </trkpt>
      <trkpt lat="42.95532" lon="0.3114">
        <ele>1479.8</ele>
        <time>2021-05-29T07:44:18Z</time>
      </trkpt>
      <trkpt lat="42.95532" lon="0.31141">
        <ele>1479.8</ele>
        <time>2021-05-29T07:44:19Z</time>
      </trkpt>
      <trkpt lat="42.95532" lon="0.31142">
        <ele>1480</ele>
        <time>2021-05-29T07:44:20Z</time>
      </trkpt>
      <trkpt lat="42.95532" lon="0.31143">
        <ele>1480.2</ele>
        <time>2021-05-29T07:44:21Z</time>
      </trkpt>
      <trkpt lat="42.95533" lon="0.31144">
        <ele>1480.4</ele>
        <time>2021-05-29T07:44:22Z</time>
      </trkpt>
      <trkpt lat="42.95533" lon="0.31145">
        <ele>1480.6</ele>
        <time>2021-05-29T07:44:23Z</time>
      </trkpt>
      <trkpt lat="42.95533" lon="0.31145">
        <ele>1480.8</ele>
        <time>2021-05-29T07:44:24Z</time>
      </trkpt>
      <trkpt lat="42.95533" lon="0.31145">
        <ele>1481</ele>
        <time>2021-05-29T07:44:25Z</time>
      </trkpt>
      <trkpt lat="42.95533" lon="0.31145">
        <ele>1481</ele>
        <time>2021-05-29T07:44:26Z</time>
      </trkpt>
      <trkpt lat="42.95533" lon="0.31145">
        <ele>1481.4</ele>
        <time>2021-05-29T07:44:27Z</time>
      </trkpt>
      <trkpt lat="42.95533" lon="0.31145">
        <ele>1481.6</ele>
        <time>2021-05-29T07:44:29Z</time>
      </trkpt>
      <trkpt lat="42.95533" lon="0.31145">
        <ele>1481.6</ele>
        <time>2021-05-29T07:44:30Z</time>
      </trkpt>
      <trkpt lat="42.95533" lon="0.31145">
        <ele>1482</ele>
        <time>2021-05-29T07:44:32Z</time>
      </trkpt>
      <trkpt lat="42.95532" lon="0.31142">
        <ele>1482.6</ele>
        <time>2021-05-29T07:45:51Z</time>
      </trkpt>
      <trkpt lat="42.95534" lon="0.31138">
        <ele>1482.6</ele>
        <time>2021-05-29T07:45:53Z</time>
      </trkpt>
      <trkpt lat="42.95536" lon="0.31135">
        <ele>1482.4</ele>
        <time>2021-05-29T07:45:54Z</time>
      </trkpt>
      <trkpt lat="42.95537" lon="0.31132">
        <ele>1482.4</ele>
        <time>2021-05-29T07:45:55Z</time>
      </trkpt>
      <trkpt lat="42.95542" lon="0.31123">
        <ele>1481.8</ele>
        <time>2021-05-29T07:45:58Z</time>
      </trkpt>
      <trkpt lat="42.95551" lon="0.31112">
        <ele>1480.4</ele>
        <time>2021-05-29T07:46:02Z</time>
      </trkpt>
      <trkpt lat="42.95553" lon="0.31108">
        <ele>1480.2</ele>
        <time>2021-05-29T07:46:03Z</time>
      </trkpt>
      <trkpt lat="42.95561" lon="0.31091">
        <ele>1479</ele>
        <time>2021-05-29T07:46:06Z</time>
      </trkpt>
      <trkpt lat="42.95563" lon="0.31085">
        <ele>1478.4</ele>
        <time>2021-05-29T07:46:07Z</time>
      </trkpt>
      <trkpt lat="42.95566" lon="0.31078">
        <ele>1477.6</ele>
        <time>2021-05-29T07:46:08Z</time>
      </trkpt>
      <trkpt lat="42.95573" lon="0.31062">
        <ele>1476.8</ele>
        <time>2021-05-29T07:46:10Z</time>
      </trkpt>
      <trkpt lat="42.95577" lon="0.31053">
        <ele>1476.4</ele>
        <time>2021-05-29T07:46:11Z</time>
      </trkpt>
      <trkpt lat="42.9558" lon="0.31043">
        <ele>1476.4</ele>
        <time>2021-05-29T07:46:12Z</time>
      </trkpt>
      <trkpt lat="42.95588" lon="0.31016">
        <ele>1475.2</ele>
        <time>2021-05-29T07:46:15Z</time>
      </trkpt>
      <trkpt lat="42.95591" lon="0.31009">
        <ele>1475</ele>
        <time>2021-05-29T07:46:16Z</time>
      </trkpt>
      <trkpt lat="42.95595" lon="0.31002">
        <ele>1474.4</ele>
        <time>2021-05-29T07:46:17Z</time>
      </trkpt>
      <trkpt lat="42.95599" lon="0.30995">
        <ele>1474</ele>
        <time>2021-05-29T07:46:18Z</time>
      </trkpt>
      <trkpt lat="42.95605" lon="0.30979">
        <ele>1473.2</ele>
        <time>2021-05-29T07:46:20Z</time>
      </trkpt>
      <trkpt lat="42.9561" lon="0.30964">
        <ele>1473</ele>
        <time>2021-05-29T07:46:22Z</time>
      </trkpt>
      <trkpt lat="42.95613" lon="0.30956">
        <ele>1472.8</ele>
        <time>2021-05-29T07:46:23Z</time>
      </trkpt>
      <trkpt lat="42.95616" lon="0.30948">
        <ele>1472.8</ele>
        <time>2021-05-29T07:46:24Z</time>
      </trkpt>
      <trkpt lat="42.95618" lon="0.30942">
        <ele>1472.4</ele>
        <time>2021-05-29T07:46:25Z</time>
      </trkpt>
      <trkpt lat="42.95618" lon="0.30938">
        <ele>1472.4</ele>
        <time>2021-05-29T07:46:26Z</time>
      </trkpt>
      <trkpt lat="42.95621" lon="0.30933">
        <ele>1472.2</ele>
        <time>2021-05-29T07:46:27Z</time>
      </trkpt>
      <trkpt lat="42.95624" lon="0.30928">
        <ele>1472</ele>
        <time>2021-05-29T07:46:28Z</time>
      </trkpt>
      <trkpt lat="42.95626" lon="0.30924">
        <ele>1472</ele>
        <time>2021-05-29T07:46:29Z</time>
      </trkpt>
      <trkpt lat="42.95628" lon="0.3092">
        <ele>1471.8</ele>
        <time>2021-05-29T07:46:30Z</time>
      </trkpt>
      <trkpt lat="42.95629" lon="0.30918">
        <ele>1471.8</ele>
        <time>2021-05-29T07:46:31Z</time>
      </trkpt>
      <trkpt lat="42.9563" lon="0.30916">
        <ele>1471.6</ele>
        <time>2021-05-29T07:46:32Z</time>
      </trkpt>
      <trkpt lat="42.9563" lon="0.30914">
        <ele>1471.6</ele>
        <time>2021-05-29T07:46:33Z</time>
      </trkpt>
      <trkpt lat="42.95631" lon="0.30913">
        <ele>1471.6</ele>
        <time>2021-05-29T07:46:34Z</time>
      </trkpt>
      <trkpt lat="42.95631" lon="0.30911">
        <ele>1471.6</ele>
        <time>2021-05-29T07:46:35Z</time>
      </trkpt>
      <trkpt lat="42.95631" lon="0.30911">
        <ele>1471.6</ele>
        <time>2021-05-29T07:46:36Z</time>
      </trkpt>
      <trkpt lat="42.95631" lon="0.3091">
        <ele>1471.6</ele>
        <time>2021-05-29T07:46:37Z</time>
      </trkpt>
      <trkpt lat="42.95631" lon="0.3091">
        <ele>1471.6</ele>
        <time>2021-05-29T07:46:38Z</time>
      </trkpt>
      <trkpt lat="42.95632" lon="0.30908">
        <ele>1471.6</ele>
        <time>2021-05-29T07:46:43Z</time>
      </trkpt>
      <trkpt lat="42.95632" lon="0.30908">
        <ele>1471.4</ele>
        <time>2021-05-29T07:46:44Z</time>
      </trkpt>
      <trkpt lat="42.95635" lon="0.30899">
        <ele>1471</ele>
        <time>2021-05-29T07:47:07Z</time>
      </trkpt>
      <trkpt lat="42.95643" lon="0.30886">
        <ele>1471</ele>
        <time>2021-05-29T07:47:12Z</time>
      </trkpt>
      <trkpt lat="42.95645" lon="0.30884">
        <ele>1471</ele>
        <time>2021-05-29T07:47:13Z</time>
      </trkpt>
      <trkpt lat="42.95654" lon="0.30872">
        <ele>1470.8</ele>
        <time>2021-05-29T07:47:18Z</time>
      </trkpt>
      <trkpt lat="42.95672" lon="0.3085">
        <ele>1470.4</ele>
        <time>2021-05-29T07:47:25Z</time>
      </trkpt>
      <trkpt lat="42.95681" lon="0.30836">
        <ele>1470.4</ele>
        <time>2021-05-29T07:47:28Z</time>
      </trkpt>
      <trkpt lat="42.95683" lon="0.30831">
        <ele>1470.2</ele>
        <time>2021-05-29T07:47:29Z</time>
      </trkpt>
      <trkpt lat="42.95688" lon="0.30819">
        <ele>1470</ele>
        <time>2021-05-29T07:47:31Z</time>
      </trkpt>
      <trkpt lat="42.9569" lon="0.30813">
        <ele>1470</ele>
        <time>2021-05-29T07:47:32Z</time>
      </trkpt>
      <trkpt lat="42.95691" lon="0.30807">
        <ele>1469.6</ele>
        <time>2021-05-29T07:47:33Z</time>
      </trkpt>
      <trkpt lat="42.95693" lon="0.30803">
        <ele>1469.6</ele>
        <time>2021-05-29T07:47:34Z</time>
      </trkpt>
      <trkpt lat="42.95694" lon="0.30799">
        <ele>1469.4</ele>
        <time>2021-05-29T07:47:35Z</time>
      </trkpt>
      <trkpt lat="42.95696" lon="0.30795">
        <ele>1469.4</ele>
        <time>2021-05-29T07:47:36Z</time>
      </trkpt>
      <trkpt lat="42.95697" lon="0.30791">
        <ele>1469.2</ele>
        <time>2021-05-29T07:47:37Z</time>
      </trkpt>
      <trkpt lat="42.95698" lon="0.30788">
        <ele>1469.2</ele>
        <time>2021-05-29T07:47:38Z</time>
      </trkpt>
      <trkpt lat="42.957" lon="0.30783">
        <ele>1469.2</ele>
        <time>2021-05-29T07:47:39Z</time>
      </trkpt>
      <trkpt lat="42.95704" lon="0.30757">
        <ele>1469.4</ele>
        <time>2021-05-29T07:47:44Z</time>
      </trkpt>
      <trkpt lat="42.95705" lon="0.30729">
        <ele>1469.8</ele>
        <time>2021-05-29T07:47:49Z</time>
      </trkpt>
      <trkpt lat="42.95705" lon="0.30694">
        <ele>1469.8</ele>
        <time>2021-05-29T07:47:56Z</time>
      </trkpt>
      <trkpt lat="42.95704" lon="0.30686">
        <ele>1469.8</ele>
        <time>2021-05-29T07:47:58Z</time>
      </trkpt>
      <trkpt lat="42.95705" lon="0.30683">
        <ele>1469.8</ele>
        <time>2021-05-29T07:47:59Z</time>
      </trkpt>
      <trkpt lat="42.95705" lon="0.3068">
        <ele>1470</ele>
        <time>2021-05-29T07:48:00Z</time>
      </trkpt>
      <trkpt lat="42.95706" lon="0.30676">
        <ele>1470</ele>
        <time>2021-05-29T07:48:01Z</time>
      </trkpt>
      <trkpt lat="42.95707" lon="0.30674">
        <ele>1470.2</ele>
        <time>2021-05-29T07:48:02Z</time>
      </trkpt>
      <trkpt lat="42.95707" lon="0.30672">
        <ele>1470.2</ele>
        <time>2021-05-29T07:48:03Z</time>
      </trkpt>
      <trkpt lat="42.95707" lon="0.30669">
        <ele>1470.2</ele>
        <time>2021-05-29T07:48:04Z</time>
      </trkpt>
      <trkpt lat="42.95708" lon="0.30667">
        <ele>1470.4</ele>
        <time>2021-05-29T07:48:05Z</time>
      </trkpt>
      <trkpt lat="42.9571" lon="0.30647">
        <ele>1470.8</ele>
        <time>2021-05-29T07:48:11Z</time>
      </trkpt>
      <trkpt lat="42.95716" lon="0.3063">
        <ele>1471.2</ele>
        <time>2021-05-29T07:48:17Z</time>
      </trkpt>
      <trkpt lat="42.95716" lon="0.30627">
        <ele>1471.2</ele>
        <time>2021-05-29T07:48:18Z</time>
      </trkpt>
      <trkpt lat="42.95716" lon="0.30622">
        <ele>1471.4</ele>
        <time>2021-05-29T07:48:20Z</time>
      </trkpt>
      <trkpt lat="42.95717" lon="0.3062">
        <ele>1471.4</ele>
        <time>2021-05-29T07:48:21Z</time>
      </trkpt>
      <trkpt lat="42.95717" lon="0.30617">
        <ele>1471.4</ele>
        <time>2021-05-29T07:48:22Z</time>
      </trkpt>
      <trkpt lat="42.95718" lon="0.30609">
        <ele>1471.4</ele>
        <time>2021-05-29T07:48:24Z</time>
      </trkpt>
      <trkpt lat="42.95724" lon="0.30591">
        <ele>1471.6</ele>
        <time>2021-05-29T07:48:28Z</time>
      </trkpt>
      <trkpt lat="42.95725" lon="0.30586">
        <ele>1471.6</ele>
        <time>2021-05-29T07:48:29Z</time>
      </trkpt>
      <trkpt lat="42.95727" lon="0.30582">
        <ele>1471.6</ele>
        <time>2021-05-29T07:48:30Z</time>
      </trkpt>
      <trkpt lat="42.95728" lon="0.30579">
        <ele>1471.6</ele>
        <time>2021-05-29T07:48:31Z</time>
      </trkpt>
      <trkpt lat="42.9573" lon="0.30576">
        <ele>1471.6</ele>
        <time>2021-05-29T07:48:32Z</time>
      </trkpt>
      <trkpt lat="42.95733" lon="0.30574">
        <ele>1471.4</ele>
        <time>2021-05-29T07:48:33Z</time>
      </trkpt>
      <trkpt lat="42.95735" lon="0.30572">
        <ele>1471.4</ele>
        <time>2021-05-29T07:48:34Z</time>
      </trkpt>
      <trkpt lat="42.95735" lon="0.3057">
        <ele>1471.4</ele>
        <time>2021-05-29T07:48:35Z</time>
      </trkpt>
      <trkpt lat="42.95736" lon="0.30568">
        <ele>1471.4</ele>
        <time>2021-05-29T07:48:36Z</time>
      </trkpt>
      <trkpt lat="42.95737" lon="0.30566">
        <ele>1471.4</ele>
        <time>2021-05-29T07:48:37Z</time>
      </trkpt>
      <trkpt lat="42.95738" lon="0.30564">
        <ele>1471.4</ele>
        <time>2021-05-29T07:48:38Z</time>
      </trkpt>
      <trkpt lat="42.95739" lon="0.3056">
        <ele>1471.2</ele>
        <time>2021-05-29T07:48:39Z</time>
      </trkpt>
      <trkpt lat="42.95752" lon="0.30536">
        <ele>1471.2</ele>
        <time>2021-05-29T07:48:45Z</time>
      </trkpt>
      <trkpt lat="42.95763" lon="0.30521">
        <ele>1471</ele>
        <time>2021-05-29T07:48:49Z</time>
      </trkpt>
      <trkpt lat="42.95766" lon="0.30517">
        <ele>1471</ele>
        <time>2021-05-29T07:48:50Z</time>
      </trkpt>
      <trkpt lat="42.95768" lon="0.30514">
        <ele>1471</ele>
        <time>2021-05-29T07:48:51Z</time>
      </trkpt>
      <trkpt lat="42.95773" lon="0.30505">
        <ele>1470.8</ele>
        <time>2021-05-29T07:48:54Z</time>
      </trkpt>
      <trkpt lat="42.95776" lon="0.30503">
        <ele>1470.8</ele>
        <time>2021-05-29T07:48:55Z</time>
      </trkpt>
      <trkpt lat="42.95778" lon="0.305">
        <ele>1470.8</ele>
        <time>2021-05-29T07:48:56Z</time>
      </trkpt>
      <trkpt lat="42.95781" lon="0.30497">
        <ele>1470.8</ele>
        <time>2021-05-29T07:48:57Z</time>
      </trkpt>
      <trkpt lat="42.95788" lon="0.3049">
        <ele>1470.8</ele>
        <time>2021-05-29T07:48:59Z</time>
      </trkpt>
      <trkpt lat="42.95791" lon="0.30487">
        <ele>1470.6</ele>
        <time>2021-05-29T07:49:00Z</time>
      </trkpt>
      <trkpt lat="42.95794" lon="0.30485">
        <ele>1470.6</ele>
        <time>2021-05-29T07:49:01Z</time>
      </trkpt>
      <trkpt lat="42.95799" lon="0.3048">
        <ele>1470.4</ele>
        <time>2021-05-29T07:49:03Z</time>
      </trkpt>
      <trkpt lat="42.95808" lon="0.30475">
        <ele>1470.2</ele>
        <time>2021-05-29T07:49:06Z</time>
      </trkpt>
      <trkpt lat="42.95813" lon="0.30473">
        <ele>1470</ele>
        <time>2021-05-29T07:49:08Z</time>
      </trkpt>
      <trkpt lat="42.95816" lon="0.30474">
        <ele>1469.8</ele>
        <time>2021-05-29T07:49:09Z</time>
      </trkpt>
      <trkpt lat="42.95819" lon="0.30474">
        <ele>1469.6</ele>
        <time>2021-05-29T07:49:10Z</time>
      </trkpt>
      <trkpt lat="42.95821" lon="0.30476">
        <ele>1469.6</ele>
        <time>2021-05-29T07:49:11Z</time>
      </trkpt>
      <trkpt lat="42.95823" lon="0.30477">
        <ele>1469.4</ele>
        <time>2021-05-29T07:49:12Z</time>
      </trkpt>
      <trkpt lat="42.95825" lon="0.30477">
        <ele>1469.2</ele>
        <time>2021-05-29T07:49:13Z</time>
      </trkpt>
      <trkpt lat="42.95827" lon="0.30477">
        <ele>1469</ele>
        <time>2021-05-29T07:49:14Z</time>
      </trkpt>
      <trkpt lat="42.95829" lon="0.30477">
        <ele>1469</ele>
        <time>2021-05-29T07:49:15Z</time>
      </trkpt>
      <trkpt lat="42.95831" lon="0.30477">
        <ele>1468.6</ele>
        <time>2021-05-29T07:49:16Z</time>
      </trkpt>
      <trkpt lat="42.95833" lon="0.30477">
        <ele>1467.8</ele>
        <time>2021-05-29T07:49:17Z</time>
      </trkpt>
      <trkpt lat="42.95835" lon="0.30477">
        <ele>1467.6</ele>
        <time>2021-05-29T07:49:18Z</time>
      </trkpt>
      <trkpt lat="42.95836" lon="0.30478">
        <ele>1466.8</ele>
        <time>2021-05-29T07:49:19Z</time>
      </trkpt>
      <trkpt lat="42.95836" lon="0.30478">
        <ele>1466.8</ele>
        <time>2021-05-29T07:49:20Z</time>
      </trkpt>
      <trkpt lat="42.95837" lon="0.30479">
        <ele>1466.2</ele>
        <time>2021-05-29T07:49:21Z</time>
      </trkpt>
      <trkpt lat="42.95842" lon="0.30484">
        <ele>1465.6</ele>
        <time>2021-05-29T07:49:23Z</time>
      </trkpt>
      <trkpt lat="42.95846" lon="0.30487">
        <ele>1465.4</ele>
        <time>2021-05-29T07:49:24Z</time>
      </trkpt>
      <trkpt lat="42.95854" lon="0.30492">
        <ele>1465</ele>
        <time>2021-05-29T07:49:26Z</time>
      </trkpt>
      <trkpt lat="42.95856" lon="0.30494">
        <ele>1464.2</ele>
        <time>2021-05-29T07:49:27Z</time>
      </trkpt>
      <trkpt lat="42.95859" lon="0.30496">
        <ele>1463.6</ele>
        <time>2021-05-29T07:49:28Z</time>
      </trkpt>
      <trkpt lat="42.95861" lon="0.30499">
        <ele>1462.6</ele>
        <time>2021-05-29T07:49:29Z</time>
      </trkpt>
      <trkpt lat="42.9587" lon="0.30505">
        <ele>1461.2</ele>
        <time>2021-05-29T07:49:31Z</time>
      </trkpt>
      <trkpt lat="42.95879" lon="0.30513">
        <ele>1460.2</ele>
        <time>2021-05-29T07:49:33Z</time>
      </trkpt>
      <trkpt lat="42.95885" lon="0.30517">
        <ele>1459.4</ele>
        <time>2021-05-29T07:49:34Z</time>
      </trkpt>
      <trkpt lat="42.95899" lon="0.3053">
        <ele>1457.6</ele>
        <time>2021-05-29T07:49:36Z</time>
      </trkpt>
      <trkpt lat="42.95913" lon="0.30542">
        <ele>1456.6</ele>
        <time>2021-05-29T07:49:38Z</time>
      </trkpt>
      <trkpt lat="42.95919" lon="0.30547">
        <ele>1456</ele>
        <time>2021-05-29T07:49:39Z</time>
      </trkpt>
      <trkpt lat="42.95924" lon="0.30552">
        <ele>1454.2</ele>
        <time>2021-05-29T07:49:40Z</time>
      </trkpt>
      <trkpt lat="42.9593" lon="0.30556">
        <ele>1453.6</ele>
        <time>2021-05-29T07:49:41Z</time>
      </trkpt>
      <trkpt lat="42.95936" lon="0.30559">
        <ele>1452.4</ele>
        <time>2021-05-29T07:49:42Z</time>
      </trkpt>
      <trkpt lat="42.95948" lon="0.30566">
        <ele>1450.6</ele>
        <time>2021-05-29T07:49:44Z</time>
      </trkpt>
      <trkpt lat="42.95964" lon="0.30576">
        <ele>1449.2</ele>
        <time>2021-05-29T07:49:46Z</time>
      </trkpt>
      <trkpt lat="42.95981" lon="0.30586">
        <ele>1447.2</ele>
        <time>2021-05-29T07:49:48Z</time>
      </trkpt>
      <trkpt lat="42.95998" lon="0.30598">
        <ele>1444.6</ele>
        <time>2021-05-29T07:49:50Z</time>
      </trkpt>
      <trkpt lat="42.96006" lon="0.30604">
        <ele>1443.8</ele>
        <time>2021-05-29T07:49:51Z</time>
      </trkpt>
      <trkpt lat="42.96014" lon="0.30611">
        <ele>1442.2</ele>
        <time>2021-05-29T07:49:52Z</time>
      </trkpt>
      <trkpt lat="42.96022" lon="0.30619">
        <ele>1439.2</ele>
        <time>2021-05-29T07:49:53Z</time>
      </trkpt>
      <trkpt lat="42.96029" lon="0.30626">
        <ele>1438.2</ele>
        <time>2021-05-29T07:49:54Z</time>
      </trkpt>
      <trkpt lat="42.96035" lon="0.30634">
        <ele>1436.8</ele>
        <time>2021-05-29T07:49:55Z</time>
      </trkpt>
      <trkpt lat="42.96041" lon="0.30641">
        <ele>1436.2</ele>
        <time>2021-05-29T07:49:56Z</time>
      </trkpt>
      <trkpt lat="42.96046" lon="0.30648">
        <ele>1434</ele>
        <time>2021-05-29T07:49:57Z</time>
      </trkpt>
      <trkpt lat="42.96051" lon="0.30654">
        <ele>1433.2</ele>
        <time>2021-05-29T07:49:58Z</time>
      </trkpt>
      <trkpt lat="42.96056" lon="0.30661">
        <ele>1431.2</ele>
        <time>2021-05-29T07:49:59Z</time>
      </trkpt>
      <trkpt lat="42.96061" lon="0.30668">
        <ele>1430.2</ele>
        <time>2021-05-29T07:50:00Z</time>
      </trkpt>
      <trkpt lat="42.96066" lon="0.30674">
        <ele>1428.8</ele>
        <time>2021-05-29T07:50:01Z</time>
      </trkpt>
      <trkpt lat="42.96071" lon="0.30681">
        <ele>1428.4</ele>
        <time>2021-05-29T07:50:02Z</time>
      </trkpt>
      <trkpt lat="42.96077" lon="0.30687">
        <ele>1427</ele>
        <time>2021-05-29T07:50:03Z</time>
      </trkpt>
      <trkpt lat="42.96082" lon="0.30694">
        <ele>1426.6</ele>
        <time>2021-05-29T07:50:04Z</time>
      </trkpt>
      <trkpt lat="42.96087" lon="0.307">
        <ele>1425.8</ele>
        <time>2021-05-29T07:50:05Z</time>
      </trkpt>
      <trkpt lat="42.96092" lon="0.30706">
        <ele>1425</ele>
        <time>2021-05-29T07:50:06Z</time>
      </trkpt>
      <trkpt lat="42.96097" lon="0.30711">
        <ele>1424</ele>
        <time>2021-05-29T07:50:07Z</time>
      </trkpt>
      <trkpt lat="42.96101" lon="0.30715">
        <ele>1423.4</ele>
        <time>2021-05-29T07:50:08Z</time>
      </trkpt>
      <trkpt lat="42.96104" lon="0.30719">
        <ele>1422.2</ele>
        <time>2021-05-29T07:50:09Z</time>
      </trkpt>
      <trkpt lat="42.96108" lon="0.30723">
        <ele>1421.8</ele>
        <time>2021-05-29T07:50:10Z</time>
      </trkpt>
      <trkpt lat="42.9611" lon="0.30725">
        <ele>1420.8</ele>
        <time>2021-05-29T07:50:11Z</time>
      </trkpt>
      <trkpt lat="42.96113" lon="0.30726">
        <ele>1419.4</ele>
        <time>2021-05-29T07:50:12Z</time>
      </trkpt>
      <trkpt lat="42.96116" lon="0.30726">
        <ele>1418.4</ele>
        <time>2021-05-29T07:50:13Z</time>
      </trkpt>
      <trkpt lat="42.96118" lon="0.30727">
        <ele>1417.4</ele>
        <time>2021-05-29T07:50:14Z</time>
      </trkpt>
      <trkpt lat="42.96121" lon="0.30728">
        <ele>1417</ele>
        <time>2021-05-29T07:50:15Z</time>
      </trkpt>
      <trkpt lat="42.96127" lon="0.30732">
        <ele>1416</ele>
        <time>2021-05-29T07:50:17Z</time>
      </trkpt>
      <trkpt lat="42.9613" lon="0.30736">
        <ele>1415.6</ele>
        <time>2021-05-29T07:50:18Z</time>
      </trkpt>
      <trkpt lat="42.96133" lon="0.30741">
        <ele>1415</ele>
        <time>2021-05-29T07:50:19Z</time>
      </trkpt>
      <trkpt lat="42.96137" lon="0.30746">
        <ele>1414.6</ele>
        <time>2021-05-29T07:50:20Z</time>
      </trkpt>
      <trkpt lat="42.96146" lon="0.30758">
        <ele>1413.6</ele>
        <time>2021-05-29T07:50:22Z</time>
      </trkpt>
      <trkpt lat="42.96151" lon="0.30765">
        <ele>1413.2</ele>
        <time>2021-05-29T07:50:23Z</time>
      </trkpt>
      <trkpt lat="42.96157" lon="0.30771">
        <ele>1412.4</ele>
        <time>2021-05-29T07:50:24Z</time>
      </trkpt>
      <trkpt lat="42.96163" lon="0.30778">
        <ele>1412.2</ele>
        <time>2021-05-29T07:50:25Z</time>
      </trkpt>
      <trkpt lat="42.96169" lon="0.30784">
        <ele>1411.4</ele>
        <time>2021-05-29T07:50:26Z</time>
      </trkpt>
      <trkpt lat="42.96176" lon="0.30791">
        <ele>1411.2</ele>
        <time>2021-05-29T07:50:27Z</time>
      </trkpt>
      <trkpt lat="42.9619" lon="0.30804">
        <ele>1409.6</ele>
        <time>2021-05-29T07:50:29Z</time>
      </trkpt>
      <trkpt lat="42.96203" lon="0.30818">
        <ele>1409</ele>
        <time>2021-05-29T07:50:31Z</time>
      </trkpt>
      <trkpt lat="42.96209" lon="0.30825">
        <ele>1409</ele>
        <time>2021-05-29T07:50:32Z</time>
      </trkpt>
      <trkpt lat="42.96223" lon="0.30838">
        <ele>1408.6</ele>
        <time>2021-05-29T07:50:34Z</time>
      </trkpt>
      <trkpt lat="42.96243" lon="0.30858">
        <ele>1407</ele>
        <time>2021-05-29T07:50:37Z</time>
      </trkpt>
      <trkpt lat="42.96256" lon="0.30871">
        <ele>1406.2</ele>
        <time>2021-05-29T07:50:39Z</time>
      </trkpt>
      <trkpt lat="42.96262" lon="0.30877">
        <ele>1406</ele>
        <time>2021-05-29T07:50:40Z</time>
      </trkpt>
      <trkpt lat="42.96269" lon="0.30882">
        <ele>1405.8</ele>
        <time>2021-05-29T07:50:41Z</time>
      </trkpt>
      <trkpt lat="42.96274" lon="0.30885">
        <ele>1405.8</ele>
        <time>2021-05-29T07:50:42Z</time>
      </trkpt>
      <trkpt lat="42.96279" lon="0.30886">
        <ele>1405</ele>
        <time>2021-05-29T07:50:43Z</time>
      </trkpt>
      <trkpt lat="42.96283" lon="0.30885">
        <ele>1404.6</ele>
        <time>2021-05-29T07:50:44Z</time>
      </trkpt>
      <trkpt lat="42.96287" lon="0.30882">
        <ele>1404.2</ele>
        <time>2021-05-29T07:50:45Z</time>
      </trkpt>
      <trkpt lat="42.96289" lon="0.30878">
        <ele>1404</ele>
        <time>2021-05-29T07:50:46Z</time>
      </trkpt>
      <trkpt lat="42.96292" lon="0.30872">
        <ele>1403.8</ele>
        <time>2021-05-29T07:50:47Z</time>
      </trkpt>
      <trkpt lat="42.96298" lon="0.30858">
        <ele>1403.6</ele>
        <time>2021-05-29T07:50:49Z</time>
      </trkpt>
      <trkpt lat="42.96301" lon="0.30851">
        <ele>1403.4</ele>
        <time>2021-05-29T07:50:50Z</time>
      </trkpt>
      <trkpt lat="42.96315" lon="0.30829">
        <ele>1403</ele>
        <time>2021-05-29T07:50:53Z</time>
      </trkpt>
      <trkpt lat="42.96327" lon="0.30815">
        <ele>1402.8</ele>
        <time>2021-05-29T07:50:55Z</time>
      </trkpt>
      <trkpt lat="42.96334" lon="0.30808">
        <ele>1402.6</ele>
        <time>2021-05-29T07:50:56Z</time>
      </trkpt>
      <trkpt lat="42.96341" lon="0.30802">
        <ele>1402.4</ele>
        <time>2021-05-29T07:50:57Z</time>
      </trkpt>
      <trkpt lat="42.96358" lon="0.30792">
        <ele>1401.6</ele>
        <time>2021-05-29T07:50:59Z</time>
      </trkpt>
      <trkpt lat="42.96385" lon="0.30777">
        <ele>1400.4</ele>
        <time>2021-05-29T07:51:02Z</time>
      </trkpt>
      <trkpt lat="42.96393" lon="0.30771">
        <ele>1400.2</ele>
        <time>2021-05-29T07:51:03Z</time>
      </trkpt>
      <trkpt lat="42.96407" lon="0.30755">
        <ele>1399.2</ele>
        <time>2021-05-29T07:51:05Z</time>
      </trkpt>
      <trkpt lat="42.96412" lon="0.30744">
        <ele>1398.8</ele>
        <time>2021-05-29T07:51:06Z</time>
      </trkpt>
      <trkpt lat="42.96414" lon="0.30732">
        <ele>1398.4</ele>
        <time>2021-05-29T07:51:07Z</time>
      </trkpt>
      <trkpt lat="42.96415" lon="0.30719">
        <ele>1398.2</ele>
        <time>2021-05-29T07:51:08Z</time>
      </trkpt>
      <trkpt lat="42.96415" lon="0.30706">
        <ele>1397.4</ele>
        <time>2021-05-29T07:51:09Z</time>
      </trkpt>
      <trkpt lat="42.96415" lon="0.30692">
        <ele>1397.2</ele>
        <time>2021-05-29T07:51:10Z</time>
      </trkpt>
      <trkpt lat="42.96415" lon="0.30679">
        <ele>1396.8</ele>
        <time>2021-05-29T07:51:11Z</time>
      </trkpt>
      <trkpt lat="42.96416" lon="0.30665">
        <ele>1396.4</ele>
        <time>2021-05-29T07:51:12Z</time>
      </trkpt>
      <trkpt lat="42.96418" lon="0.3065">
        <ele>1395.6</ele>
        <time>2021-05-29T07:51:13Z</time>
      </trkpt>
      <trkpt lat="42.96425" lon="0.30623">
        <ele>1394.8</ele>
        <time>2021-05-29T07:51:15Z</time>
      </trkpt>
      <trkpt lat="42.96427" lon="0.30608">
        <ele>1394.2</ele>
        <time>2021-05-29T07:51:16Z</time>
      </trkpt>
      <trkpt lat="42.96427" lon="0.30594">
        <ele>1392.8</ele>
        <time>2021-05-29T07:51:17Z</time>
      </trkpt>
      <trkpt lat="42.96424" lon="0.30565">
        <ele>1391.8</ele>
        <time>2021-05-29T07:51:19Z</time>
      </trkpt>
      <trkpt lat="42.96423" lon="0.30549">
        <ele>1391.4</ele>
        <time>2021-05-29T07:51:20Z</time>
      </trkpt>
      <trkpt lat="42.96423" lon="0.30533">
        <ele>1390.4</ele>
        <time>2021-05-29T07:51:21Z</time>
      </trkpt>
      <trkpt lat="42.9642" lon="0.30501">
        <ele>1389.2</ele>
        <time>2021-05-29T07:51:23Z</time>
      </trkpt>
      <trkpt lat="42.96417" lon="0.30486">
        <ele>1388.2</ele>
        <time>2021-05-29T07:51:24Z</time>
      </trkpt>
      <trkpt lat="42.96413" lon="0.30471">
        <ele>1387.8</ele>
        <time>2021-05-29T07:51:25Z</time>
      </trkpt>
      <trkpt lat="42.96411" lon="0.30458">
        <ele>1386.6</ele>
        <time>2021-05-29T07:51:26Z</time>
      </trkpt>
      <trkpt lat="42.96409" lon="0.30445">
        <ele>1386.2</ele>
        <time>2021-05-29T07:51:27Z</time>
      </trkpt>
      <trkpt lat="42.96408" lon="0.30432">
        <ele>1384.4</ele>
        <time>2021-05-29T07:51:28Z</time>
      </trkpt>
      <trkpt lat="42.96409" lon="0.3042">
        <ele>1384</ele>
        <time>2021-05-29T07:51:29Z</time>
      </trkpt>
      <trkpt lat="42.96412" lon="0.30409">
        <ele>1382.8</ele>
        <time>2021-05-29T07:51:30Z</time>
      </trkpt>
      <trkpt lat="42.96415" lon="0.30398">
        <ele>1382.6</ele>
        <time>2021-05-29T07:51:31Z</time>
      </trkpt>
      <trkpt lat="42.96418" lon="0.30388">
        <ele>1381.8</ele>
        <time>2021-05-29T07:51:32Z</time>
      </trkpt>
      <trkpt lat="42.96422" lon="0.30365">
        <ele>1380.2</ele>
        <time>2021-05-29T07:51:34Z</time>
      </trkpt>
      <trkpt lat="42.96423" lon="0.30355">
        <ele>1379.8</ele>
        <time>2021-05-29T07:51:35Z</time>
      </trkpt>
      <trkpt lat="42.96425" lon="0.30346">
        <ele>1378.6</ele>
        <time>2021-05-29T07:51:36Z</time>
      </trkpt>
      <trkpt lat="42.96428" lon="0.3034">
        <ele>1378</ele>
        <time>2021-05-29T07:51:37Z</time>
      </trkpt>
      <trkpt lat="42.96432" lon="0.30334">
        <ele>1377</ele>
        <time>2021-05-29T07:51:38Z</time>
      </trkpt>
      <trkpt lat="42.96436" lon="0.30328">
        <ele>1376</ele>
        <time>2021-05-29T07:51:39Z</time>
      </trkpt>
      <trkpt lat="42.96438" lon="0.30321">
        <ele>1375</ele>
        <time>2021-05-29T07:51:40Z</time>
      </trkpt>
      <trkpt lat="42.9644" lon="0.30315">
        <ele>1374.8</ele>
        <time>2021-05-29T07:51:41Z</time>
      </trkpt>
      <trkpt lat="42.9644" lon="0.30309">
        <ele>1374.6</ele>
        <time>2021-05-29T07:51:42Z</time>
      </trkpt>
      <trkpt lat="42.9644" lon="0.30305">
        <ele>1374.4</ele>
        <time>2021-05-29T07:51:43Z</time>
      </trkpt>
      <trkpt lat="42.9644" lon="0.30301">
        <ele>1374.4</ele>
        <time>2021-05-29T07:51:44Z</time>
      </trkpt>
      <trkpt lat="42.9644" lon="0.30297">
        <ele>1374.4</ele>
        <time>2021-05-29T07:51:45Z</time>
      </trkpt>
      <trkpt lat="42.9644" lon="0.30293">
        <ele>1374.4</ele>
        <time>2021-05-29T07:51:46Z</time>
      </trkpt>
      <trkpt lat="42.9644" lon="0.30289">
        <ele>1374.4</ele>
        <time>2021-05-29T07:51:47Z</time>
      </trkpt>
      <trkpt lat="42.9644" lon="0.30282">
        <ele>1375</ele>
        <time>2021-05-29T07:51:49Z</time>
      </trkpt>
      <trkpt lat="42.9644" lon="0.30279">
        <ele>1375.2</ele>
        <time>2021-05-29T07:51:50Z</time>
      </trkpt>
      <trkpt lat="42.9644" lon="0.30275">
        <ele>1375.8</ele>
        <time>2021-05-29T07:51:51Z</time>
      </trkpt>
      <trkpt lat="42.96441" lon="0.30272">
        <ele>1376</ele>
        <time>2021-05-29T07:51:52Z</time>
      </trkpt>
      <trkpt lat="42.96441" lon="0.30269">
        <ele>1376.6</ele>
        <time>2021-05-29T07:51:53Z</time>
      </trkpt>
      <trkpt lat="42.96441" lon="0.30265">
        <ele>1376.8</ele>
        <time>2021-05-29T07:51:54Z</time>
      </trkpt>
      <trkpt lat="42.96441" lon="0.30262">
        <ele>1377.2</ele>
        <time>2021-05-29T07:51:55Z</time>
      </trkpt>
      <trkpt lat="42.96441" lon="0.30259">
        <ele>1377.4</ele>
        <time>2021-05-29T07:51:56Z</time>
      </trkpt>
      <trkpt lat="42.96441" lon="0.30256">
        <ele>1377.8</ele>
        <time>2021-05-29T07:51:57Z</time>
      </trkpt>
      <trkpt lat="42.96441" lon="0.30252">
        <ele>1377.8</ele>
        <time>2021-05-29T07:51:58Z</time>
      </trkpt>
      <trkpt lat="42.96441" lon="0.30249">
        <ele>1378</ele>
        <time>2021-05-29T07:51:59Z</time>
      </trkpt>
      <trkpt lat="42.96441" lon="0.30235">
        <ele>1378.8</ele>
        <time>2021-05-29T07:52:03Z</time>
      </trkpt>
      <trkpt lat="42.96441" lon="0.30229">
        <ele>1379.4</ele>
        <time>2021-05-29T07:52:05Z</time>
      </trkpt>
      <trkpt lat="42.9644" lon="0.30226">
        <ele>1379.6</ele>
        <time>2021-05-29T07:52:06Z</time>
      </trkpt>
      <trkpt lat="42.9644" lon="0.30223">
        <ele>1379.8</ele>
        <time>2021-05-29T07:52:07Z</time>
      </trkpt>
      <trkpt lat="42.96439" lon="0.3022">
        <ele>1380.2</ele>
        <time>2021-05-29T07:52:08Z</time>
      </trkpt>
      <trkpt lat="42.96439" lon="0.30217">
        <ele>1380.4</ele>
        <time>2021-05-29T07:52:09Z</time>
      </trkpt>
      <trkpt lat="42.96438" lon="0.30215">
        <ele>1380.6</ele>
        <time>2021-05-29T07:52:10Z</time>
      </trkpt>
      <trkpt lat="42.96438" lon="0.30212">
        <ele>1380.8</ele>
        <time>2021-05-29T07:52:11Z</time>
      </trkpt>
      <trkpt lat="42.96437" lon="0.3021">
        <ele>1381.2</ele>
        <time>2021-05-29T07:52:12Z</time>
      </trkpt>
      <trkpt lat="42.96436" lon="0.30207">
        <ele>1381.6</ele>
        <time>2021-05-29T07:52:13Z</time>
      </trkpt>
      <trkpt lat="42.96436" lon="0.30204">
        <ele>1381.8</ele>
        <time>2021-05-29T07:52:14Z</time>
      </trkpt>
      <trkpt lat="42.96435" lon="0.30201">
        <ele>1382</ele>
        <time>2021-05-29T07:52:15Z</time>
      </trkpt>
      <trkpt lat="42.96434" lon="0.30198">
        <ele>1382.2</ele>
        <time>2021-05-29T07:52:16Z</time>
      </trkpt>
      <trkpt lat="42.96433" lon="0.30196">
        <ele>1382.4</ele>
        <time>2021-05-29T07:52:17Z</time>
      </trkpt>
      <trkpt lat="42.96432" lon="0.30193">
        <ele>1382.4</ele>
        <time>2021-05-29T07:52:18Z</time>
      </trkpt>
      <trkpt lat="42.96432" lon="0.3019">
        <ele>1382.6</ele>
        <time>2021-05-29T07:52:19Z</time>
      </trkpt>
      <trkpt lat="42.96431" lon="0.30187">
        <ele>1382.8</ele>
        <time>2021-05-29T07:52:20Z</time>
      </trkpt>
      <trkpt lat="42.9643" lon="0.30185">
        <ele>1383</ele>
        <time>2021-05-29T07:52:21Z</time>
      </trkpt>
      <trkpt lat="42.96429" lon="0.30182">
        <ele>1383.2</ele>
        <time>2021-05-29T07:52:22Z</time>
      </trkpt>
      <trkpt lat="42.96429" lon="0.3018">
        <ele>1383.4</ele>
        <time>2021-05-29T07:52:23Z</time>
      </trkpt>
      <trkpt lat="42.96428" lon="0.30177">
        <ele>1383.6</ele>
        <time>2021-05-29T07:52:24Z</time>
      </trkpt>
      <trkpt lat="42.96427" lon="0.30175">
        <ele>1384</ele>
        <time>2021-05-29T07:52:25Z</time>
      </trkpt>
      <trkpt lat="42.96426" lon="0.30172">
        <ele>1384.2</ele>
        <time>2021-05-29T07:52:26Z</time>
      </trkpt>
      <trkpt lat="42.96425" lon="0.30169">
        <ele>1384.6</ele>
        <time>2021-05-29T07:52:27Z</time>
      </trkpt>
      <trkpt lat="42.96424" lon="0.30166">
        <ele>1384.6</ele>
        <time>2021-05-29T07:52:28Z</time>
      </trkpt>
      <trkpt lat="42.96424" lon="0.30163">
        <ele>1384.8</ele>
        <time>2021-05-29T07:52:29Z</time>
      </trkpt>
      <trkpt lat="42.96424" lon="0.3016">
        <ele>1384.8</ele>
        <time>2021-05-29T07:52:30Z</time>
      </trkpt>
      <trkpt lat="42.96423" lon="0.30157">
        <ele>1385</ele>
        <time>2021-05-29T07:52:31Z</time>
      </trkpt>
      <trkpt lat="42.96423" lon="0.30154">
        <ele>1385.2</ele>
        <time>2021-05-29T07:52:32Z</time>
      </trkpt>
      <trkpt lat="42.96423" lon="0.30151">
        <ele>1385.4</ele>
        <time>2021-05-29T07:52:33Z</time>
      </trkpt>
      <trkpt lat="42.96423" lon="0.30148">
        <ele>1385.4</ele>
        <time>2021-05-29T07:52:34Z</time>
      </trkpt>
      <trkpt lat="42.96423" lon="0.30145">
        <ele>1385.6</ele>
        <time>2021-05-29T07:52:35Z</time>
      </trkpt>
      <trkpt lat="42.96423" lon="0.30143">
        <ele>1386</ele>
        <time>2021-05-29T07:52:36Z</time>
      </trkpt>
      <trkpt lat="42.96423" lon="0.3014">
        <ele>1386</ele>
        <time>2021-05-29T07:52:37Z</time>
      </trkpt>
      <trkpt lat="42.96424" lon="0.30137">
        <ele>1386.2</ele>
        <time>2021-05-29T07:52:38Z</time>
      </trkpt>
      <trkpt lat="42.96424" lon="0.30134">
        <ele>1386.4</ele>
        <time>2021-05-29T07:52:39Z</time>
      </trkpt>
      <trkpt lat="42.96424" lon="0.30131">
        <ele>1386.6</ele>
        <time>2021-05-29T07:52:40Z</time>
      </trkpt>
      <trkpt lat="42.96424" lon="0.30129">
        <ele>1386.8</ele>
        <time>2021-05-29T07:52:41Z</time>
      </trkpt>
      <trkpt lat="42.96423" lon="0.30127">
        <ele>1387</ele>
        <time>2021-05-29T07:52:42Z</time>
      </trkpt>
      <trkpt lat="42.96423" lon="0.30125">
        <ele>1387</ele>
        <time>2021-05-29T07:52:43Z</time>
      </trkpt>
      <trkpt lat="42.96422" lon="0.30122">
        <ele>1387.4</ele>
        <time>2021-05-29T07:52:44Z</time>
      </trkpt>
      <trkpt lat="42.96422" lon="0.3012">
        <ele>1387.6</ele>
        <time>2021-05-29T07:52:45Z</time>
      </trkpt>
      <trkpt lat="42.96422" lon="0.30117">
        <ele>1387.8</ele>
        <time>2021-05-29T07:52:46Z</time>
      </trkpt>
      <trkpt lat="42.96422" lon="0.30114">
        <ele>1387.8</ele>
        <time>2021-05-29T07:52:47Z</time>
      </trkpt>
      <trkpt lat="42.96422" lon="0.30112">
        <ele>1388</ele>
        <time>2021-05-29T07:52:48Z</time>
      </trkpt>
      <trkpt lat="42.96422" lon="0.3011">
        <ele>1388.2</ele>
        <time>2021-05-29T07:52:49Z</time>
      </trkpt>
      <trkpt lat="42.96422" lon="0.30108">
        <ele>1388.6</ele>
        <time>2021-05-29T07:52:50Z</time>
      </trkpt>
      <trkpt lat="42.96422" lon="0.30105">
        <ele>1388.6</ele>
        <time>2021-05-29T07:52:51Z</time>
      </trkpt>
      <trkpt lat="42.96422" lon="0.30102">
        <ele>1389</ele>
        <time>2021-05-29T07:52:52Z</time>
      </trkpt>
      <trkpt lat="42.96421" lon="0.30099">
        <ele>1389</ele>
        <time>2021-05-29T07:52:53Z</time>
      </trkpt>
      <trkpt lat="42.9642" lon="0.30097">
        <ele>1389.4</ele>
        <time>2021-05-29T07:52:54Z</time>
      </trkpt>
      <trkpt lat="42.9642" lon="0.30094">
        <ele>1389.4</ele>
        <time>2021-05-29T07:52:55Z</time>
      </trkpt>
      <trkpt lat="42.9642" lon="0.30092">
        <ele>1389.6</ele>
        <time>2021-05-29T07:52:56Z</time>
      </trkpt>
      <trkpt lat="42.9642" lon="0.30089">
        <ele>1389.6</ele>
        <time>2021-05-29T07:52:57Z</time>
      </trkpt>
      <trkpt lat="42.9642" lon="0.30087">
        <ele>1389.8</ele>
        <time>2021-05-29T07:52:58Z</time>
      </trkpt>
      <trkpt lat="42.9642" lon="0.30085">
        <ele>1389.8</ele>
        <time>2021-05-29T07:52:59Z</time>
      </trkpt>
      <trkpt lat="42.9642" lon="0.30082">
        <ele>1390</ele>
        <time>2021-05-29T07:53:00Z</time>
      </trkpt>
      <trkpt lat="42.9642" lon="0.3008">
        <ele>1390.2</ele>
        <time>2021-05-29T07:53:01Z</time>
      </trkpt>
      <trkpt lat="42.9642" lon="0.30078">
        <ele>1390.4</ele>
        <time>2021-05-29T07:53:02Z</time>
      </trkpt>
      <trkpt lat="42.96421" lon="0.30076">
        <ele>1390.6</ele>
        <time>2021-05-29T07:53:03Z</time>
      </trkpt>
      <trkpt lat="42.96421" lon="0.30073">
        <ele>1390.8</ele>
        <time>2021-05-29T07:53:04Z</time>
      </trkpt>
      <trkpt lat="42.96422" lon="0.3007">
        <ele>1391</ele>
        <time>2021-05-29T07:53:05Z</time>
      </trkpt>
      <trkpt lat="42.96422" lon="0.30067">
        <ele>1391.2</ele>
        <time>2021-05-29T07:53:06Z</time>
      </trkpt>
      <trkpt lat="42.96423" lon="0.30064">
        <ele>1391.4</ele>
        <time>2021-05-29T07:53:07Z</time>
      </trkpt>
      <trkpt lat="42.96424" lon="0.30061">
        <ele>1391.6</ele>
        <time>2021-05-29T07:53:08Z</time>
      </trkpt>
      <trkpt lat="42.96425" lon="0.30058">
        <ele>1391.8</ele>
        <time>2021-05-29T07:53:09Z</time>
      </trkpt>
      <trkpt lat="42.96425" lon="0.30055">
        <ele>1392</ele>
        <time>2021-05-29T07:53:10Z</time>
      </trkpt>
      <trkpt lat="42.96425" lon="0.30053">
        <ele>1392.2</ele>
        <time>2021-05-29T07:53:11Z</time>
      </trkpt>
      <trkpt lat="42.96426" lon="0.3005">
        <ele>1392.2</ele>
        <time>2021-05-29T07:53:12Z</time>
      </trkpt>
      <trkpt lat="42.96426" lon="0.30047">
        <ele>1392.4</ele>
        <time>2021-05-29T07:53:13Z</time>
      </trkpt>
      <trkpt lat="42.96424" lon="0.30045">
        <ele>1392.8</ele>
        <time>2021-05-29T07:53:14Z</time>
      </trkpt>
      <trkpt lat="42.96424" lon="0.30043">
        <ele>1392.8</ele>
        <time>2021-05-29T07:53:15Z</time>
      </trkpt>
      <trkpt lat="42.96422" lon="0.30041">
        <ele>1393.2</ele>
        <time>2021-05-29T07:53:16Z</time>
      </trkpt>
      <trkpt lat="42.96421" lon="0.30039">
        <ele>1393.2</ele>
        <time>2021-05-29T07:53:17Z</time>
      </trkpt>
      <trkpt lat="42.9642" lon="0.30036">
        <ele>1393.4</ele>
        <time>2021-05-29T07:53:18Z</time>
      </trkpt>
      <trkpt lat="42.9642" lon="0.30033">
        <ele>1393.6</ele>
        <time>2021-05-29T07:53:19Z</time>
      </trkpt>
      <trkpt lat="42.96419" lon="0.3003">
        <ele>1393.6</ele>
        <time>2021-05-29T07:53:20Z</time>
      </trkpt>
      <trkpt lat="42.96419" lon="0.30027">
        <ele>1393.6</ele>
        <time>2021-05-29T07:53:21Z</time>
      </trkpt>
      <trkpt lat="42.96419" lon="0.30024">
        <ele>1393.8</ele>
        <time>2021-05-29T07:53:22Z</time>
      </trkpt>
      <trkpt lat="42.96419" lon="0.30021">
        <ele>1394</ele>
        <time>2021-05-29T07:53:23Z</time>
      </trkpt>
      <trkpt lat="42.9642" lon="0.30018">
        <ele>1394.2</ele>
        <time>2021-05-29T07:53:24Z</time>
      </trkpt>
      <trkpt lat="42.9642" lon="0.30015">
        <ele>1394.4</ele>
        <time>2021-05-29T07:53:25Z</time>
      </trkpt>
      <trkpt lat="42.96419" lon="0.30012">
        <ele>1394.8</ele>
        <time>2021-05-29T07:53:26Z</time>
      </trkpt>
      <trkpt lat="42.96417" lon="0.30009">
        <ele>1394.8</ele>
        <time>2021-05-29T07:53:27Z</time>
      </trkpt>
      <trkpt lat="42.96417" lon="0.30006">
        <ele>1395</ele>
        <time>2021-05-29T07:53:28Z</time>
      </trkpt>
      <trkpt lat="42.96415" lon="0.30002">
        <ele>1395.2</ele>
        <time>2021-05-29T07:53:29Z</time>
      </trkpt>
      <trkpt lat="42.96414" lon="0.29999">
        <ele>1395.4</ele>
        <time>2021-05-29T07:53:30Z</time>
      </trkpt>
      <trkpt lat="42.96412" lon="0.29996">
        <ele>1395.4</ele>
        <time>2021-05-29T07:53:31Z</time>
      </trkpt>
      <trkpt lat="42.9641" lon="0.29993">
        <ele>1395.6</ele>
        <time>2021-05-29T07:53:32Z</time>
      </trkpt>
      <trkpt lat="42.9641" lon="0.29992">
        <ele>1395.8</ele>
        <time>2021-05-29T07:53:33Z</time>
      </trkpt>
      <trkpt lat="42.9641" lon="0.2999">
        <ele>1395.8</ele>
        <time>2021-05-29T07:53:34Z</time>
      </trkpt>
      <trkpt lat="42.9641" lon="0.29987">
        <ele>1396</ele>
        <time>2021-05-29T07:53:35Z</time>
      </trkpt>
      <trkpt lat="42.96408" lon="0.29985">
        <ele>1396</ele>
        <time>2021-05-29T07:53:36Z</time>
      </trkpt>
      <trkpt lat="42.96408" lon="0.29983">
        <ele>1396.2</ele>
        <time>2021-05-29T07:53:37Z</time>
      </trkpt>
      <trkpt lat="42.96407" lon="0.29981">
        <ele>1396.4</ele>
        <time>2021-05-29T07:53:38Z</time>
      </trkpt>
      <trkpt lat="42.96406" lon="0.2998">
        <ele>1396.6</ele>
        <time>2021-05-29T07:53:39Z</time>
      </trkpt>
      <trkpt lat="42.96405" lon="0.29977">
        <ele>1396.6</ele>
        <time>2021-05-29T07:53:40Z</time>
      </trkpt>
      <trkpt lat="42.96405" lon="0.29975">
        <ele>1397</ele>
        <time>2021-05-29T07:53:41Z</time>
      </trkpt>
      <trkpt lat="42.96404" lon="0.29973">
        <ele>1397</ele>
        <time>2021-05-29T07:53:42Z</time>
      </trkpt>
      <trkpt lat="42.96403" lon="0.29971">
        <ele>1397.4</ele>
        <time>2021-05-29T07:53:43Z</time>
      </trkpt>
      <trkpt lat="42.96403" lon="0.2997">
        <ele>1397.6</ele>
        <time>2021-05-29T07:53:44Z</time>
      </trkpt>
      <trkpt lat="42.96403" lon="0.29967">
        <ele>1397.8</ele>
        <time>2021-05-29T07:53:45Z</time>
      </trkpt>
      <trkpt lat="42.96402" lon="0.29965">
        <ele>1398</ele>
        <time>2021-05-29T07:53:46Z</time>
      </trkpt>
      <trkpt lat="42.96401" lon="0.29963">
        <ele>1398.2</ele>
        <time>2021-05-29T07:53:47Z</time>
      </trkpt>
      <trkpt lat="42.96401" lon="0.29961">
        <ele>1398.4</ele>
        <time>2021-05-29T07:53:48Z</time>
      </trkpt>
      <trkpt lat="42.96401" lon="0.29958">
        <ele>1398.4</ele>
        <time>2021-05-29T07:53:49Z</time>
      </trkpt>
      <trkpt lat="42.964" lon="0.29956">
        <ele>1398.8</ele>
        <time>2021-05-29T07:53:50Z</time>
      </trkpt>
      <trkpt lat="42.96399" lon="0.29954">
        <ele>1398.8</ele>
        <time>2021-05-29T07:53:51Z</time>
      </trkpt>
      <trkpt lat="42.964" lon="0.29951">
        <ele>1399</ele>
        <time>2021-05-29T07:53:52Z</time>
      </trkpt>
      <trkpt lat="42.96399" lon="0.29949">
        <ele>1399.2</ele>
        <time>2021-05-29T07:53:53Z</time>
      </trkpt>
      <trkpt lat="42.96398" lon="0.29947">
        <ele>1399.2</ele>
        <time>2021-05-29T07:53:54Z</time>
      </trkpt>
      <trkpt lat="42.96396" lon="0.29945">
        <ele>1399.4</ele>
        <time>2021-05-29T07:53:55Z</time>
      </trkpt>
      <trkpt lat="42.96395" lon="0.29942">
        <ele>1399.4</ele>
        <time>2021-05-29T07:53:56Z</time>
      </trkpt>
      <trkpt lat="42.96395" lon="0.2994">
        <ele>1399.4</ele>
        <time>2021-05-29T07:53:57Z</time>
      </trkpt>
      <trkpt lat="42.96394" lon="0.29938">
        <ele>1399.6</ele>
        <time>2021-05-29T07:53:58Z</time>
      </trkpt>
      <trkpt lat="42.96393" lon="0.29935">
        <ele>1399.8</ele>
        <time>2021-05-29T07:53:59Z</time>
      </trkpt>
      <trkpt lat="42.96393" lon="0.29933">
        <ele>1400</ele>
        <time>2021-05-29T07:54:00Z</time>
      </trkpt>
      <trkpt lat="42.96392" lon="0.2993">
        <ele>1400</ele>
        <time>2021-05-29T07:54:01Z</time>
      </trkpt>
      <trkpt lat="42.96392" lon="0.29928">
        <ele>1400.4</ele>
        <time>2021-05-29T07:54:02Z</time>
      </trkpt>
      <trkpt lat="42.96393" lon="0.29925">
        <ele>1400.6</ele>
        <time>2021-05-29T07:54:03Z</time>
      </trkpt>
      <trkpt lat="42.96392" lon="0.29923">
        <ele>1400.8</ele>
        <time>2021-05-29T07:54:04Z</time>
      </trkpt>
      <trkpt lat="42.96392" lon="0.2992">
        <ele>1401</ele>
        <time>2021-05-29T07:54:05Z</time>
      </trkpt>
      <trkpt lat="42.96392" lon="0.29918">
        <ele>1401.2</ele>
        <time>2021-05-29T07:54:06Z</time>
      </trkpt>
      <trkpt lat="42.96392" lon="0.29916">
        <ele>1401.2</ele>
        <time>2021-05-29T07:54:07Z</time>
      </trkpt>
      <trkpt lat="42.96392" lon="0.29913">
        <ele>1401.4</ele>
        <time>2021-05-29T07:54:08Z</time>
      </trkpt>
      <trkpt lat="42.96392" lon="0.29911">
        <ele>1401.4</ele>
        <time>2021-05-29T07:54:09Z</time>
      </trkpt>
      <trkpt lat="42.96392" lon="0.29909">
        <ele>1401.6</ele>
        <time>2021-05-29T07:54:10Z</time>
      </trkpt>
      <trkpt lat="42.96392" lon="0.29906">
        <ele>1401.8</ele>
        <time>2021-05-29T07:54:11Z</time>
      </trkpt>
      <trkpt lat="42.96392" lon="0.29904">
        <ele>1401.8</ele>
        <time>2021-05-29T07:54:12Z</time>
      </trkpt>
      <trkpt lat="42.96392" lon="0.29901">
        <ele>1402</ele>
        <time>2021-05-29T07:54:13Z</time>
      </trkpt>
      <trkpt lat="42.96393" lon="0.29899">
        <ele>1402</ele>
        <time>2021-05-29T07:54:14Z</time>
      </trkpt>
      <trkpt lat="42.96393" lon="0.29896">
        <ele>1402.2</ele>
        <time>2021-05-29T07:54:15Z</time>
      </trkpt>
      <trkpt lat="42.96393" lon="0.29893">
        <ele>1402.4</ele>
        <time>2021-05-29T07:54:16Z</time>
      </trkpt>
      <trkpt lat="42.96393" lon="0.29891">
        <ele>1402.6</ele>
        <time>2021-05-29T07:54:17Z</time>
      </trkpt>
      <trkpt lat="42.96393" lon="0.29888">
        <ele>1402.6</ele>
        <time>2021-05-29T07:54:18Z</time>
      </trkpt>
      <trkpt lat="42.96393" lon="0.29886">
        <ele>1402.8</ele>
        <time>2021-05-29T07:54:19Z</time>
      </trkpt>
      <trkpt lat="42.96393" lon="0.29883">
        <ele>1402.6</ele>
        <time>2021-05-29T07:54:20Z</time>
      </trkpt>
      <trkpt lat="42.96393" lon="0.2988">
        <ele>1402.8</ele>
        <time>2021-05-29T07:54:21Z</time>
      </trkpt>
      <trkpt lat="42.96393" lon="0.29877">
        <ele>1403</ele>
        <time>2021-05-29T07:54:22Z</time>
      </trkpt>
      <trkpt lat="42.96393" lon="0.29874">
        <ele>1403.2</ele>
        <time>2021-05-29T07:54:23Z</time>
      </trkpt>
      <trkpt lat="42.96394" lon="0.29871">
        <ele>1403.2</ele>
        <time>2021-05-29T07:54:24Z</time>
      </trkpt>
      <trkpt lat="42.96394" lon="0.29869">
        <ele>1403.4</ele>
        <time>2021-05-29T07:54:25Z</time>
      </trkpt>
      <trkpt lat="42.96394" lon="0.29866">
        <ele>1403.6</ele>
        <time>2021-05-29T07:54:26Z</time>
      </trkpt>
      <trkpt lat="42.96394" lon="0.29863">
        <ele>1403.6</ele>
        <time>2021-05-29T07:54:27Z</time>
      </trkpt>
      <trkpt lat="42.96395" lon="0.29861">
        <ele>1403.8</ele>
        <time>2021-05-29T07:54:28Z</time>
      </trkpt>
      <trkpt lat="42.96395" lon="0.29858">
        <ele>1403.8</ele>
        <time>2021-05-29T07:54:29Z</time>
      </trkpt>
      <trkpt lat="42.96395" lon="0.29855">
        <ele>1404.2</ele>
        <time>2021-05-29T07:54:30Z</time>
      </trkpt>
      <trkpt lat="42.96395" lon="0.29852">
        <ele>1404.2</ele>
        <time>2021-05-29T07:54:31Z</time>
      </trkpt>
      <trkpt lat="42.96395" lon="0.29849">
        <ele>1404.4</ele>
        <time>2021-05-29T07:54:32Z</time>
      </trkpt>
      <trkpt lat="42.96396" lon="0.29846">
        <ele>1404.4</ele>
        <time>2021-05-29T07:54:33Z</time>
      </trkpt>
      <trkpt lat="42.96397" lon="0.29844">
        <ele>1404.6</ele>
        <time>2021-05-29T07:54:34Z</time>
      </trkpt>
      <trkpt lat="42.96397" lon="0.29842">
        <ele>1404.6</ele>
        <time>2021-05-29T07:54:35Z</time>
      </trkpt>
      <trkpt lat="42.96397" lon="0.2984">
        <ele>1404.6</ele>
        <time>2021-05-29T07:54:36Z</time>
      </trkpt>
      <trkpt lat="42.96397" lon="0.29838">
        <ele>1404.8</ele>
        <time>2021-05-29T07:54:37Z</time>
      </trkpt>
      <trkpt lat="42.96397" lon="0.29836">
        <ele>1404.8</ele>
        <time>2021-05-29T07:54:38Z</time>
      </trkpt>
      <trkpt lat="42.96397" lon="0.29834">
        <ele>1404.8</ele>
        <time>2021-05-29T07:54:39Z</time>
      </trkpt>
      <trkpt lat="42.96398" lon="0.29832">
        <ele>1405</ele>
        <time>2021-05-29T07:54:40Z</time>
      </trkpt>
      <trkpt lat="42.96398" lon="0.2983">
        <ele>1405</ele>
        <time>2021-05-29T07:54:41Z</time>
      </trkpt>
      <trkpt lat="42.96399" lon="0.29828">
        <ele>1405.2</ele>
        <time>2021-05-29T07:54:42Z</time>
      </trkpt>
      <trkpt lat="42.96399" lon="0.29824">
        <ele>1405.4</ele>
        <time>2021-05-29T07:54:43Z</time>
      </trkpt>
      <trkpt lat="42.96399" lon="0.29821">
        <ele>1405.6</ele>
        <time>2021-05-29T07:54:44Z</time>
      </trkpt>
      <trkpt lat="42.96399" lon="0.29818">
        <ele>1405.6</ele>
        <time>2021-05-29T07:54:45Z</time>
      </trkpt>
      <trkpt lat="42.964" lon="0.29816">
        <ele>1405.8</ele>
        <time>2021-05-29T07:54:46Z</time>
      </trkpt>
      <trkpt lat="42.964" lon="0.29813">
        <ele>1406</ele>
        <time>2021-05-29T07:54:47Z</time>
      </trkpt>
      <trkpt lat="42.96401" lon="0.29809">
        <ele>1406</ele>
        <time>2021-05-29T07:54:48Z</time>
      </trkpt>
      <trkpt lat="42.96401" lon="0.29806">
        <ele>1406.2</ele>
        <time>2021-05-29T07:54:49Z</time>
      </trkpt>
      <trkpt lat="42.96401" lon="0.29803">
        <ele>1406.2</ele>
        <time>2021-05-29T07:54:50Z</time>
      </trkpt>
      <trkpt lat="42.96401" lon="0.298">
        <ele>1406.4</ele>
        <time>2021-05-29T07:54:51Z</time>
      </trkpt>
      <trkpt lat="42.96401" lon="0.29798">
        <ele>1406.4</ele>
        <time>2021-05-29T07:54:52Z</time>
      </trkpt>
      <trkpt lat="42.96401" lon="0.29795">
        <ele>1406.6</ele>
        <time>2021-05-29T07:54:53Z</time>
      </trkpt>
      <trkpt lat="42.96401" lon="0.29792">
        <ele>1406.6</ele>
        <time>2021-05-29T07:54:54Z</time>
      </trkpt>
      <trkpt lat="42.96401" lon="0.29789">
        <ele>1406.8</ele>
        <time>2021-05-29T07:54:55Z</time>
      </trkpt>
      <trkpt lat="42.96401" lon="0.29786">
        <ele>1406.8</ele>
        <time>2021-05-29T07:54:56Z</time>
      </trkpt>
      <trkpt lat="42.96401" lon="0.29784">
        <ele>1406.8</ele>
        <time>2021-05-29T07:54:57Z</time>
      </trkpt>
      <trkpt lat="42.96402" lon="0.29781">
        <ele>1406.8</ele>
        <time>2021-05-29T07:54:58Z</time>
      </trkpt>
      <trkpt lat="42.96402" lon="0.29778">
        <ele>1407</ele>
        <time>2021-05-29T07:54:59Z</time>
      </trkpt>
      <trkpt lat="42.96403" lon="0.29775">
        <ele>1407</ele>
        <time>2021-05-29T07:55:00Z</time>
      </trkpt>
      <trkpt lat="42.96404" lon="0.29772">
        <ele>1407.2</ele>
        <time>2021-05-29T07:55:01Z</time>
      </trkpt>
      <trkpt lat="42.96404" lon="0.29769">
        <ele>1407.2</ele>
        <time>2021-05-29T07:55:02Z</time>
      </trkpt>
      <trkpt lat="42.96404" lon="0.29765">
        <ele>1407.2</ele>
        <time>2021-05-29T07:55:03Z</time>
      </trkpt>
      <trkpt lat="42.96405" lon="0.29762">
        <ele>1407.2</ele>
        <time>2021-05-29T07:55:04Z</time>
      </trkpt>
      <trkpt lat="42.96406" lon="0.2976">
        <ele>1407.4</ele>
        <time>2021-05-29T07:55:05Z</time>
      </trkpt>
      <trkpt lat="42.96409" lon="0.29749">
        <ele>1408</ele>
        <time>2021-05-29T07:55:09Z</time>
      </trkpt>
      <trkpt lat="42.9641" lon="0.29742">
        <ele>1408.2</ele>
        <time>2021-05-29T07:55:11Z</time>
      </trkpt>
      <trkpt lat="42.96411" lon="0.29728">
        <ele>1408.8</ele>
        <time>2021-05-29T07:55:16Z</time>
      </trkpt>
      <trkpt lat="42.96412" lon="0.29725">
        <ele>1408.8</ele>
        <time>2021-05-29T07:55:17Z</time>
      </trkpt>
      <trkpt lat="42.96412" lon="0.29722">
        <ele>1408.8</ele>
        <time>2021-05-29T07:55:18Z</time>
      </trkpt>
      <trkpt lat="42.96412" lon="0.29719">
        <ele>1409</ele>
        <time>2021-05-29T07:55:19Z</time>
      </trkpt>
      <trkpt lat="42.96413" lon="0.29716">
        <ele>1409.2</ele>
        <time>2021-05-29T07:55:20Z</time>
      </trkpt>
      <trkpt lat="42.96413" lon="0.29713">
        <ele>1409.4</ele>
        <time>2021-05-29T07:55:21Z</time>
      </trkpt>
      <trkpt lat="42.96413" lon="0.29711">
        <ele>1409.4</ele>
        <time>2021-05-29T07:55:22Z</time>
      </trkpt>
      <trkpt lat="42.96414" lon="0.29708">
        <ele>1409.6</ele>
        <time>2021-05-29T07:55:23Z</time>
      </trkpt>
      <trkpt lat="42.96415" lon="0.29689">
        <ele>1410</ele>
        <time>2021-05-29T07:55:29Z</time>
      </trkpt>
      <trkpt lat="42.96417" lon="0.29678">
        <ele>1410.4</ele>
        <time>2021-05-29T07:55:33Z</time>
      </trkpt>
      <trkpt lat="42.96418" lon="0.29676">
        <ele>1410.4</ele>
        <time>2021-05-29T07:55:34Z</time>
      </trkpt>
      <trkpt lat="42.96419" lon="0.29673">
        <ele>1410.6</ele>
        <time>2021-05-29T07:55:35Z</time>
      </trkpt>
      <trkpt lat="42.96419" lon="0.29671">
        <ele>1410.6</ele>
        <time>2021-05-29T07:55:36Z</time>
      </trkpt>
      <trkpt lat="42.9642" lon="0.29668">
        <ele>1410.8</ele>
        <time>2021-05-29T07:55:37Z</time>
      </trkpt>
      <trkpt lat="42.96421" lon="0.29666">
        <ele>1410.8</ele>
        <time>2021-05-29T07:55:38Z</time>
      </trkpt>
      <trkpt lat="42.96421" lon="0.29663">
        <ele>1410.8</ele>
        <time>2021-05-29T07:55:39Z</time>
      </trkpt>
      <trkpt lat="42.96422" lon="0.29661">
        <ele>1410.8</ele>
        <time>2021-05-29T07:55:40Z</time>
      </trkpt>
      <trkpt lat="42.96423" lon="0.29659">
        <ele>1411</ele>
        <time>2021-05-29T07:55:41Z</time>
      </trkpt>
      <trkpt lat="42.96424" lon="0.29656">
        <ele>1411.2</ele>
        <time>2021-05-29T07:55:42Z</time>
      </trkpt>
      <trkpt lat="42.96425" lon="0.29654">
        <ele>1411.2</ele>
        <time>2021-05-29T07:55:43Z</time>
      </trkpt>
      <trkpt lat="42.96426" lon="0.29652">
        <ele>1411.4</ele>
        <time>2021-05-29T07:55:44Z</time>
      </trkpt>
      <trkpt lat="42.96427" lon="0.2965">
        <ele>1411.4</ele>
        <time>2021-05-29T07:55:45Z</time>
      </trkpt>
      <trkpt lat="42.96429" lon="0.29646">
        <ele>1411.8</ele>
        <time>2021-05-29T07:55:47Z</time>
      </trkpt>
      <trkpt lat="42.9643" lon="0.29644">
        <ele>1412</ele>
        <time>2021-05-29T07:55:48Z</time>
      </trkpt>
      <trkpt lat="42.96431" lon="0.29642">
        <ele>1412.2</ele>
        <time>2021-05-29T07:55:49Z</time>
      </trkpt>
      <trkpt lat="42.96432" lon="0.2964">
        <ele>1412.4</ele>
        <time>2021-05-29T07:55:50Z</time>
      </trkpt>
      <trkpt lat="42.96433" lon="0.29638">
        <ele>1412.4</ele>
        <time>2021-05-29T07:55:51Z</time>
      </trkpt>
      <trkpt lat="42.96434" lon="0.29636">
        <ele>1412.6</ele>
        <time>2021-05-29T07:55:52Z</time>
      </trkpt>
      <trkpt lat="42.96435" lon="0.29635">
        <ele>1412.6</ele>
        <time>2021-05-29T07:55:53Z</time>
      </trkpt>
      <trkpt lat="42.96436" lon="0.29633">
        <ele>1412.8</ele>
        <time>2021-05-29T07:55:54Z</time>
      </trkpt>
      <trkpt lat="42.96437" lon="0.29631">
        <ele>1412.8</ele>
        <time>2021-05-29T07:55:55Z</time>
      </trkpt>
      <trkpt lat="42.96438" lon="0.29629">
        <ele>1413</ele>
        <time>2021-05-29T07:55:56Z</time>
      </trkpt>
      <trkpt lat="42.9644" lon="0.29627">
        <ele>1413</ele>
        <time>2021-05-29T07:55:57Z</time>
      </trkpt>
      <trkpt lat="42.96441" lon="0.29625">
        <ele>1413.2</ele>
        <time>2021-05-29T07:55:58Z</time>
      </trkpt>
      <trkpt lat="42.96443" lon="0.29623">
        <ele>1413.2</ele>
        <time>2021-05-29T07:55:59Z</time>
      </trkpt>
      <trkpt lat="42.96444" lon="0.29622">
        <ele>1413.2</ele>
        <time>2021-05-29T07:56:00Z</time>
      </trkpt>
      <trkpt lat="42.96445" lon="0.29621">
        <ele>1413.6</ele>
        <time>2021-05-29T07:56:01Z</time>
      </trkpt>
      <trkpt lat="42.96446" lon="0.29619">
        <ele>1413.8</ele>
        <time>2021-05-29T07:56:02Z</time>
      </trkpt>
      <trkpt lat="42.96448" lon="0.29618">
        <ele>1414</ele>
        <time>2021-05-29T07:56:03Z</time>
      </trkpt>
      <trkpt lat="42.96449" lon="0.29617">
        <ele>1414</ele>
        <time>2021-05-29T07:56:04Z</time>
      </trkpt>
      <trkpt lat="42.96451" lon="0.29615">
        <ele>1414.2</ele>
        <time>2021-05-29T07:56:05Z</time>
      </trkpt>
      <trkpt lat="42.96453" lon="0.29614">
        <ele>1414.4</ele>
        <time>2021-05-29T07:56:06Z</time>
      </trkpt>
      <trkpt lat="42.96454" lon="0.29613">
        <ele>1414.6</ele>
        <time>2021-05-29T07:56:07Z</time>
      </trkpt>
      <trkpt lat="42.96456" lon="0.29612">
        <ele>1414.6</ele>
        <time>2021-05-29T07:56:08Z</time>
      </trkpt>
      <trkpt lat="42.96458" lon="0.2961">
        <ele>1414.8</ele>
        <time>2021-05-29T07:56:09Z</time>
      </trkpt>
      <trkpt lat="42.9646" lon="0.29609">
        <ele>1415</ele>
        <time>2021-05-29T07:56:10Z</time>
      </trkpt>
      <trkpt lat="42.96462" lon="0.29607">
        <ele>1415.2</ele>
        <time>2021-05-29T07:56:11Z</time>
      </trkpt>
      <trkpt lat="42.96463" lon="0.29606">
        <ele>1415.2</ele>
        <time>2021-05-29T07:56:12Z</time>
      </trkpt>
      <trkpt lat="42.96465" lon="0.29604">
        <ele>1415.4</ele>
        <time>2021-05-29T07:56:13Z</time>
      </trkpt>
      <trkpt lat="42.96467" lon="0.29602">
        <ele>1415.6</ele>
        <time>2021-05-29T07:56:14Z</time>
      </trkpt>
      <trkpt lat="42.96468" lon="0.296">
        <ele>1415.6</ele>
        <time>2021-05-29T07:56:15Z</time>
      </trkpt>
      <trkpt lat="42.9647" lon="0.29597">
        <ele>1415.6</ele>
        <time>2021-05-29T07:56:16Z</time>
      </trkpt>
      <trkpt lat="42.96471" lon="0.29595">
        <ele>1415.8</ele>
        <time>2021-05-29T07:56:17Z</time>
      </trkpt>
      <trkpt lat="42.96472" lon="0.29593">
        <ele>1416</ele>
        <time>2021-05-29T07:56:18Z</time>
      </trkpt>
      <trkpt lat="42.96473" lon="0.29591">
        <ele>1416</ele>
        <time>2021-05-29T07:56:19Z</time>
      </trkpt>
      <trkpt lat="42.96473" lon="0.29589">
        <ele>1416</ele>
        <time>2021-05-29T07:56:20Z</time>
      </trkpt>
      <trkpt lat="42.96474" lon="0.29587">
        <ele>1416.2</ele>
        <time>2021-05-29T07:56:21Z</time>
      </trkpt>
      <trkpt lat="42.96474" lon="0.29585">
        <ele>1416.2</ele>
        <time>2021-05-29T07:56:22Z</time>
      </trkpt>
      <trkpt lat="42.96474" lon="0.29582">
        <ele>1416.4</ele>
        <time>2021-05-29T07:56:23Z</time>
      </trkpt>
      <trkpt lat="42.96473" lon="0.2958">
        <ele>1416.6</ele>
        <time>2021-05-29T07:56:24Z</time>
      </trkpt>
      <trkpt lat="42.96473" lon="0.29577">
        <ele>1416.8</ele>
        <time>2021-05-29T07:56:25Z</time>
      </trkpt>
      <trkpt lat="42.96473" lon="0.29575">
        <ele>1416.8</ele>
        <time>2021-05-29T07:56:26Z</time>
      </trkpt>
      <trkpt lat="42.96473" lon="0.29573">
        <ele>1416.8</ele>
        <time>2021-05-29T07:56:27Z</time>
      </trkpt>
      <trkpt lat="42.96473" lon="0.2957">
        <ele>1417</ele>
        <time>2021-05-29T07:56:28Z</time>
      </trkpt>
      <trkpt lat="42.96473" lon="0.29568">
        <ele>1417.2</ele>
        <time>2021-05-29T07:56:29Z</time>
      </trkpt>
      <trkpt lat="42.96473" lon="0.29565">
        <ele>1417.4</ele>
        <time>2021-05-29T07:56:30Z</time>
      </trkpt>
      <trkpt lat="42.96473" lon="0.29563">
        <ele>1417.4</ele>
        <time>2021-05-29T07:56:31Z</time>
      </trkpt>
      <trkpt lat="42.96473" lon="0.2956">
        <ele>1417.6</ele>
        <time>2021-05-29T07:56:32Z</time>
      </trkpt>
      <trkpt lat="42.96472" lon="0.29558">
        <ele>1417.6</ele>
        <time>2021-05-29T07:56:33Z</time>
      </trkpt>
      <trkpt lat="42.96472" lon="0.29555">
        <ele>1417.8</ele>
        <time>2021-05-29T07:56:34Z</time>
      </trkpt>
      <trkpt lat="42.96472" lon="0.29553">
        <ele>1418</ele>
        <time>2021-05-29T07:56:35Z</time>
      </trkpt>
      <trkpt lat="42.96472" lon="0.29551">
        <ele>1418</ele>
        <time>2021-05-29T07:56:36Z</time>
      </trkpt>
      <trkpt lat="42.96472" lon="0.29548">
        <ele>1418.4</ele>
        <time>2021-05-29T07:56:37Z</time>
      </trkpt>
      <trkpt lat="42.96471" lon="0.29546">
        <ele>1418.4</ele>
        <time>2021-05-29T07:56:38Z</time>
      </trkpt>
      <trkpt lat="42.9647" lon="0.29543">
        <ele>1418.6</ele>
        <time>2021-05-29T07:56:39Z</time>
      </trkpt>
      <trkpt lat="42.9647" lon="0.29541">
        <ele>1418.6</ele>
        <time>2021-05-29T07:56:40Z</time>
      </trkpt>
      <trkpt lat="42.96469" lon="0.29539">
        <ele>1418.8</ele>
        <time>2021-05-29T07:56:41Z</time>
      </trkpt>
      <trkpt lat="42.96469" lon="0.29536">
        <ele>1419</ele>
        <time>2021-05-29T07:56:42Z</time>
      </trkpt>
      <trkpt lat="42.96468" lon="0.29534">
        <ele>1419.2</ele>
        <time>2021-05-29T07:56:43Z</time>
      </trkpt>
      <trkpt lat="42.96468" lon="0.29532">
        <ele>1419.2</ele>
        <time>2021-05-29T07:56:44Z</time>
      </trkpt>
      <trkpt lat="42.96467" lon="0.2953">
        <ele>1419.4</ele>
        <time>2021-05-29T07:56:45Z</time>
      </trkpt>
      <trkpt lat="42.96466" lon="0.29528">
        <ele>1419.4</ele>
        <time>2021-05-29T07:56:46Z</time>
      </trkpt>
      <trkpt lat="42.96465" lon="0.29525">
        <ele>1419.6</ele>
        <time>2021-05-29T07:56:47Z</time>
      </trkpt>
      <trkpt lat="42.96464" lon="0.29523">
        <ele>1419.8</ele>
        <time>2021-05-29T07:56:48Z</time>
      </trkpt>
      <trkpt lat="42.96464" lon="0.2952">
        <ele>1420.2</ele>
        <time>2021-05-29T07:56:49Z</time>
      </trkpt>
      <trkpt lat="42.96464" lon="0.29518">
        <ele>1420.2</ele>
        <time>2021-05-29T07:56:50Z</time>
      </trkpt>
      <trkpt lat="42.96463" lon="0.29515">
        <ele>1420.4</ele>
        <time>2021-05-29T07:56:51Z</time>
      </trkpt>
      <trkpt lat="42.96463" lon="0.29513">
        <ele>1420.4</ele>
        <time>2021-05-29T07:56:52Z</time>
      </trkpt>
      <trkpt lat="42.96462" lon="0.2951">
        <ele>1420.6</ele>
        <time>2021-05-29T07:56:53Z</time>
      </trkpt>
      <trkpt lat="42.96462" lon="0.29508">
        <ele>1420.6</ele>
        <time>2021-05-29T07:56:54Z</time>
      </trkpt>
      <trkpt lat="42.96462" lon="0.29506">
        <ele>1420.8</ele>
        <time>2021-05-29T07:56:55Z</time>
      </trkpt>
      <trkpt lat="42.96462" lon="0.29504">
        <ele>1421</ele>
        <time>2021-05-29T07:56:56Z</time>
      </trkpt>
      <trkpt lat="42.96462" lon="0.29501">
        <ele>1421.2</ele>
        <time>2021-05-29T07:56:57Z</time>
      </trkpt>
      <trkpt lat="42.96463" lon="0.29499">
        <ele>1421.4</ele>
        <time>2021-05-29T07:56:58Z</time>
      </trkpt>
      <trkpt lat="42.96464" lon="0.29497">
        <ele>1421.4</ele>
        <time>2021-05-29T07:56:59Z</time>
      </trkpt>
      <trkpt lat="42.96465" lon="0.29495">
        <ele>1421.8</ele>
        <time>2021-05-29T07:57:00Z</time>
      </trkpt>
      <trkpt lat="42.96465" lon="0.29493">
        <ele>1421.8</ele>
        <time>2021-05-29T07:57:01Z</time>
      </trkpt>
      <trkpt lat="42.96466" lon="0.29491">
        <ele>1422</ele>
        <time>2021-05-29T07:57:02Z</time>
      </trkpt>
      <trkpt lat="42.96467" lon="0.29489">
        <ele>1422.2</ele>
        <time>2021-05-29T07:57:03Z</time>
      </trkpt>
      <trkpt lat="42.96469" lon="0.29487">
        <ele>1422.4</ele>
        <time>2021-05-29T07:57:04Z</time>
      </trkpt>
      <trkpt lat="42.9647" lon="0.29486">
        <ele>1422.6</ele>
        <time>2021-05-29T07:57:05Z</time>
      </trkpt>
      <trkpt lat="42.96472" lon="0.29485">
        <ele>1422.8</ele>
        <time>2021-05-29T07:57:06Z</time>
      </trkpt>
      <trkpt lat="42.96474" lon="0.29484">
        <ele>1422.8</ele>
        <time>2021-05-29T07:57:07Z</time>
      </trkpt>
      <trkpt lat="42.96475" lon="0.29483">
        <ele>1423.2</ele>
        <time>2021-05-29T07:57:08Z</time>
      </trkpt>
      <trkpt lat="42.96477" lon="0.29483">
        <ele>1423.2</ele>
        <time>2021-05-29T07:57:09Z</time>
      </trkpt>
      <trkpt lat="42.96479" lon="0.29483">
        <ele>1423.4</ele>
        <time>2021-05-29T07:57:10Z</time>
      </trkpt>
      <trkpt lat="42.96481" lon="0.29483">
        <ele>1423.8</ele>
        <time>2021-05-29T07:57:11Z</time>
      </trkpt>
      <trkpt lat="42.96482" lon="0.29484">
        <ele>1423.8</ele>
        <time>2021-05-29T07:57:12Z</time>
      </trkpt>
      <trkpt lat="42.96484" lon="0.29485">
        <ele>1424</ele>
        <time>2021-05-29T07:57:13Z</time>
      </trkpt>
      <trkpt lat="42.96486" lon="0.29486">
        <ele>1424.2</ele>
        <time>2021-05-29T07:57:14Z</time>
      </trkpt>
      <trkpt lat="42.96488" lon="0.29488">
        <ele>1424.2</ele>
        <time>2021-05-29T07:57:15Z</time>
      </trkpt>
      <trkpt lat="42.9649" lon="0.29489">
        <ele>1424.2</ele>
        <time>2021-05-29T07:57:16Z</time>
      </trkpt>
      <trkpt lat="42.96491" lon="0.2949">
        <ele>1424.4</ele>
        <time>2021-05-29T07:57:17Z</time>
      </trkpt>
      <trkpt lat="42.96493" lon="0.29492">
        <ele>1424.4</ele>
        <time>2021-05-29T07:57:18Z</time>
      </trkpt>
      <trkpt lat="42.96494" lon="0.29494">
        <ele>1424.6</ele>
        <time>2021-05-29T07:57:19Z</time>
      </trkpt>
      <trkpt lat="42.96495" lon="0.29496">
        <ele>1424.8</ele>
        <time>2021-05-29T07:57:20Z</time>
      </trkpt>
      <trkpt lat="42.96496" lon="0.29498">
        <ele>1425</ele>
        <time>2021-05-29T07:57:21Z</time>
      </trkpt>
      <trkpt lat="42.96497" lon="0.295">
        <ele>1425</ele>
        <time>2021-05-29T07:57:22Z</time>
      </trkpt>
      <trkpt lat="42.96497" lon="0.29502">
        <ele>1425.2</ele>
        <time>2021-05-29T07:57:23Z</time>
      </trkpt>
      <trkpt lat="42.96498" lon="0.29504">
        <ele>1425.4</ele>
        <time>2021-05-29T07:57:24Z</time>
      </trkpt>
      <trkpt lat="42.96499" lon="0.29507">
        <ele>1425.6</ele>
        <time>2021-05-29T07:57:25Z</time>
      </trkpt>
      <trkpt lat="42.965" lon="0.29509">
        <ele>1425.6</ele>
        <time>2021-05-29T07:57:26Z</time>
      </trkpt>
      <trkpt lat="42.96501" lon="0.29512">
        <ele>1425.8</ele>
        <time>2021-05-29T07:57:27Z</time>
      </trkpt>
      <trkpt lat="42.96501" lon="0.29514">
        <ele>1426</ele>
        <time>2021-05-29T07:57:28Z</time>
      </trkpt>
      <trkpt lat="42.96502" lon="0.29516">
        <ele>1426.2</ele>
        <time>2021-05-29T07:57:29Z</time>
      </trkpt>
      <trkpt lat="42.96502" lon="0.29519">
        <ele>1426.4</ele>
        <time>2021-05-29T07:57:30Z</time>
      </trkpt>
      <trkpt lat="42.96502" lon="0.29521">
        <ele>1426.6</ele>
        <time>2021-05-29T07:57:31Z</time>
      </trkpt>
      <trkpt lat="42.96503" lon="0.29524">
        <ele>1426.8</ele>
        <time>2021-05-29T07:57:32Z</time>
      </trkpt>
      <trkpt lat="42.96504" lon="0.29526">
        <ele>1426.8</ele>
        <time>2021-05-29T07:57:33Z</time>
      </trkpt>
      <trkpt lat="42.96505" lon="0.29529">
        <ele>1427</ele>
        <time>2021-05-29T07:57:34Z</time>
      </trkpt>
      <trkpt lat="42.96505" lon="0.29531">
        <ele>1427</ele>
        <time>2021-05-29T07:57:35Z</time>
      </trkpt>
      <trkpt lat="42.96506" lon="0.29533">
        <ele>1427.4</ele>
        <time>2021-05-29T07:57:36Z</time>
      </trkpt>
      <trkpt lat="42.96506" lon="0.29535">
        <ele>1427.4</ele>
        <time>2021-05-29T07:57:37Z</time>
      </trkpt>
      <trkpt lat="42.96507" lon="0.29537">
        <ele>1427.6</ele>
        <time>2021-05-29T07:57:38Z</time>
      </trkpt>
      <trkpt lat="42.96507" lon="0.29539">
        <ele>1427.6</ele>
        <time>2021-05-29T07:57:39Z</time>
      </trkpt>
      <trkpt lat="42.96508" lon="0.29542">
        <ele>1427.8</ele>
        <time>2021-05-29T07:57:40Z</time>
      </trkpt>
      <trkpt lat="42.96509" lon="0.29544">
        <ele>1428</ele>
        <time>2021-05-29T07:57:41Z</time>
      </trkpt>
      <trkpt lat="42.96509" lon="0.29546">
        <ele>1428.2</ele>
        <time>2021-05-29T07:57:42Z</time>
      </trkpt>
      <trkpt lat="42.9651" lon="0.29548">
        <ele>1428.4</ele>
        <time>2021-05-29T07:57:43Z</time>
      </trkpt>
      <trkpt lat="42.9651" lon="0.29551">
        <ele>1428.6</ele>
        <time>2021-05-29T07:57:44Z</time>
      </trkpt>
      <trkpt lat="42.9651" lon="0.29553">
        <ele>1429</ele>
        <time>2021-05-29T07:57:45Z</time>
      </trkpt>
      <trkpt lat="42.96511" lon="0.29556">
        <ele>1429.2</ele>
        <time>2021-05-29T07:57:46Z</time>
      </trkpt>
      <trkpt lat="42.96512" lon="0.29558">
        <ele>1429.4</ele>
        <time>2021-05-29T07:57:47Z</time>
      </trkpt>
      <trkpt lat="42.96512" lon="0.2956">
        <ele>1429.6</ele>
        <time>2021-05-29T07:57:48Z</time>
      </trkpt>
      <trkpt lat="42.96513" lon="0.29562">
        <ele>1429.8</ele>
        <time>2021-05-29T07:57:49Z</time>
      </trkpt>
      <trkpt lat="42.96514" lon="0.29564">
        <ele>1429.8</ele>
        <time>2021-05-29T07:57:50Z</time>
      </trkpt>
      <trkpt lat="42.96514" lon="0.29567">
        <ele>1429.8</ele>
        <time>2021-05-29T07:57:51Z</time>
      </trkpt>
      <trkpt lat="42.96515" lon="0.29569">
        <ele>1430</ele>
        <time>2021-05-29T07:57:52Z</time>
      </trkpt>
      <trkpt lat="42.96516" lon="0.29571">
        <ele>1430</ele>
        <time>2021-05-29T07:57:53Z</time>
      </trkpt>
      <trkpt lat="42.96517" lon="0.29573">
        <ele>1430.2</ele>
        <time>2021-05-29T07:57:54Z</time>
      </trkpt>
      <trkpt lat="42.96517" lon="0.29575">
        <ele>1430.4</ele>
        <time>2021-05-29T07:57:55Z</time>
      </trkpt>
      <trkpt lat="42.96518" lon="0.29577">
        <ele>1430.4</ele>
        <time>2021-05-29T07:57:56Z</time>
      </trkpt>
      <trkpt lat="42.9652" lon="0.29579">
        <ele>1430.6</ele>
        <time>2021-05-29T07:57:57Z</time>
      </trkpt>
      <trkpt lat="42.96521" lon="0.29581">
        <ele>1430.6</ele>
        <time>2021-05-29T07:57:58Z</time>
      </trkpt>
      <trkpt lat="42.96523" lon="0.29582">
        <ele>1430.8</ele>
        <time>2021-05-29T07:57:59Z</time>
      </trkpt>
      <trkpt lat="42.96524" lon="0.29584">
        <ele>1430.8</ele>
        <time>2021-05-29T07:58:00Z</time>
      </trkpt>
      <trkpt lat="42.96526" lon="0.29584">
        <ele>1431</ele>
        <time>2021-05-29T07:58:01Z</time>
      </trkpt>
      <trkpt lat="42.96528" lon="0.29585">
        <ele>1431.2</ele>
        <time>2021-05-29T07:58:02Z</time>
      </trkpt>
      <trkpt lat="42.96529" lon="0.29584">
        <ele>1431.4</ele>
        <time>2021-05-29T07:58:03Z</time>
      </trkpt>
      <trkpt lat="42.96531" lon="0.29584">
        <ele>1431.6</ele>
        <time>2021-05-29T07:58:04Z</time>
      </trkpt>
      <trkpt lat="42.96532" lon="0.29583">
        <ele>1431.6</ele>
        <time>2021-05-29T07:58:05Z</time>
      </trkpt>
      <trkpt lat="42.96533" lon="0.29581">
        <ele>1431.8</ele>
        <time>2021-05-29T07:58:06Z</time>
      </trkpt>
      <trkpt lat="42.96534" lon="0.2958">
        <ele>1432</ele>
        <time>2021-05-29T07:58:07Z</time>
      </trkpt>
      <trkpt lat="42.96534" lon="0.29578">
        <ele>1432.2</ele>
        <time>2021-05-29T07:58:08Z</time>
      </trkpt>
      <trkpt lat="42.96535" lon="0.29576">
        <ele>1432.2</ele>
        <time>2021-05-29T07:58:09Z</time>
      </trkpt>
      <trkpt lat="42.96535" lon="0.29574">
        <ele>1432.4</ele>
        <time>2021-05-29T07:58:10Z</time>
      </trkpt>
      <trkpt lat="42.96535" lon="0.29572">
        <ele>1432.6</ele>
        <time>2021-05-29T07:58:11Z</time>
      </trkpt>
      <trkpt lat="42.96535" lon="0.2957">
        <ele>1432.8</ele>
        <time>2021-05-29T07:58:12Z</time>
      </trkpt>
      <trkpt lat="42.96534" lon="0.29567">
        <ele>1433</ele>
        <time>2021-05-29T07:58:13Z</time>
      </trkpt>
      <trkpt lat="42.96533" lon="0.29564">
        <ele>1433.2</ele>
        <time>2021-05-29T07:58:14Z</time>
      </trkpt>
      <trkpt lat="42.96533" lon="0.29562">
        <ele>1433.4</ele>
        <time>2021-05-29T07:58:15Z</time>
      </trkpt>
      <trkpt lat="42.96532" lon="0.29559">
        <ele>1433.6</ele>
        <time>2021-05-29T07:58:16Z</time>
      </trkpt>
      <trkpt lat="42.96532" lon="0.29556">
        <ele>1433.8</ele>
        <time>2021-05-29T07:58:17Z</time>
      </trkpt>
      <trkpt lat="42.96532" lon="0.29554">
        <ele>1434</ele>
        <time>2021-05-29T07:58:18Z</time>
      </trkpt>
      <trkpt lat="42.96531" lon="0.29551">
        <ele>1434</ele>
        <time>2021-05-29T07:58:19Z</time>
      </trkpt>
      <trkpt lat="42.96531" lon="0.29549">
        <ele>1434.2</ele>
        <time>2021-05-29T07:58:20Z</time>
      </trkpt>
      <trkpt lat="42.9653" lon="0.29546">
        <ele>1434.4</ele>
        <time>2021-05-29T07:58:21Z</time>
      </trkpt>
      <trkpt lat="42.9653" lon="0.29544">
        <ele>1434.6</ele>
        <time>2021-05-29T07:58:22Z</time>
      </trkpt>
      <trkpt lat="42.9653" lon="0.29541">
        <ele>1434.6</ele>
        <time>2021-05-29T07:58:23Z</time>
      </trkpt>
      <trkpt lat="42.96529" lon="0.29539">
        <ele>1434.6</ele>
        <time>2021-05-29T07:58:24Z</time>
      </trkpt>
      <trkpt lat="42.96529" lon="0.29536">
        <ele>1434.8</ele>
        <time>2021-05-29T07:58:25Z</time>
      </trkpt>
      <trkpt lat="42.96529" lon="0.29533">
        <ele>1434.8</ele>
        <time>2021-05-29T07:58:26Z</time>
      </trkpt>
      <trkpt lat="42.96529" lon="0.2953">
        <ele>1435</ele>
        <time>2021-05-29T07:58:27Z</time>
      </trkpt>
      <trkpt lat="42.96529" lon="0.29528">
        <ele>1435.2</ele>
        <time>2021-05-29T07:58:28Z</time>
      </trkpt>
      <trkpt lat="42.96529" lon="0.29526">
        <ele>1435.4</ele>
        <time>2021-05-29T07:58:29Z</time>
      </trkpt>
      <trkpt lat="42.96529" lon="0.29523">
        <ele>1435.2</ele>
        <time>2021-05-29T07:58:30Z</time>
      </trkpt>
      <trkpt lat="42.96529" lon="0.29521">
        <ele>1435.6</ele>
        <time>2021-05-29T07:58:31Z</time>
      </trkpt>
      <trkpt lat="42.96529" lon="0.29519">
        <ele>1435.4</ele>
        <time>2021-05-29T07:58:32Z</time>
      </trkpt>
      <trkpt lat="42.96529" lon="0.29516">
        <ele>1435.6</ele>
        <time>2021-05-29T07:58:33Z</time>
      </trkpt>
      <trkpt lat="42.9653" lon="0.29514">
        <ele>1435.6</ele>
        <time>2021-05-29T07:58:34Z</time>
      </trkpt>
      <trkpt lat="42.9653" lon="0.29512">
        <ele>1435.6</ele>
        <time>2021-05-29T07:58:35Z</time>
      </trkpt>
      <trkpt lat="42.9653" lon="0.29509">
        <ele>1435.8</ele>
        <time>2021-05-29T07:58:36Z</time>
      </trkpt>
      <trkpt lat="42.96531" lon="0.29507">
        <ele>1436</ele>
        <time>2021-05-29T07:58:37Z</time>
      </trkpt>
      <trkpt lat="42.96531" lon="0.29505">
        <ele>1436.2</ele>
        <time>2021-05-29T07:58:38Z</time>
      </trkpt>
      <trkpt lat="42.96532" lon="0.29502">
        <ele>1436.4</ele>
        <time>2021-05-29T07:58:39Z</time>
      </trkpt>
      <trkpt lat="42.96532" lon="0.295">
        <ele>1436.4</ele>
        <time>2021-05-29T07:58:40Z</time>
      </trkpt>
      <trkpt lat="42.96533" lon="0.29498">
        <ele>1436.6</ele>
        <time>2021-05-29T07:58:41Z</time>
      </trkpt>
      <trkpt lat="42.96533" lon="0.29496">
        <ele>1436.8</ele>
        <time>2021-05-29T07:58:42Z</time>
      </trkpt>
      <trkpt lat="42.96534" lon="0.29493">
        <ele>1436.8</ele>
        <time>2021-05-29T07:58:43Z</time>
      </trkpt>
      <trkpt lat="42.96534" lon="0.29491">
        <ele>1437</ele>
        <time>2021-05-29T07:58:44Z</time>
      </trkpt>
      <trkpt lat="42.96534" lon="0.29489">
        <ele>1437</ele>
        <time>2021-05-29T07:58:45Z</time>
      </trkpt>
      <trkpt lat="42.96535" lon="0.29487">
        <ele>1437.2</ele>
        <time>2021-05-29T07:58:46Z</time>
      </trkpt>
      <trkpt lat="42.96535" lon="0.29484">
        <ele>1437.2</ele>
        <time>2021-05-29T07:58:47Z</time>
      </trkpt>
      <trkpt lat="42.96535" lon="0.29482">
        <ele>1437.6</ele>
        <time>2021-05-29T07:58:48Z</time>
      </trkpt>
      <trkpt lat="42.96536" lon="0.2948">
        <ele>1437.8</ele>
        <time>2021-05-29T07:58:49Z</time>
      </trkpt>
      <trkpt lat="42.96537" lon="0.29478">
        <ele>1438</ele>
        <time>2021-05-29T07:58:50Z</time>
      </trkpt>
      <trkpt lat="42.96538" lon="0.29476">
        <ele>1438</ele>
        <time>2021-05-29T07:58:51Z</time>
      </trkpt>
      <trkpt lat="42.96539" lon="0.29475">
        <ele>1438.2</ele>
        <time>2021-05-29T07:58:52Z</time>
      </trkpt>
      <trkpt lat="42.96539" lon="0.29472">
        <ele>1438.2</ele>
        <time>2021-05-29T07:58:53Z</time>
      </trkpt>
      <trkpt lat="42.9654" lon="0.2947">
        <ele>1438.6</ele>
        <time>2021-05-29T07:58:54Z</time>
      </trkpt>
      <trkpt lat="42.96541" lon="0.29469">
        <ele>1438.8</ele>
        <time>2021-05-29T07:58:55Z</time>
      </trkpt>
      <trkpt lat="42.96542" lon="0.29467">
        <ele>1439</ele>
        <time>2021-05-29T07:58:56Z</time>
      </trkpt>
      <trkpt lat="42.96543" lon="0.29465">
        <ele>1439.2</ele>
        <time>2021-05-29T07:58:57Z</time>
      </trkpt>
      <trkpt lat="42.96544" lon="0.29463">
        <ele>1439.2</ele>
        <time>2021-05-29T07:58:58Z</time>
      </trkpt>
      <trkpt lat="42.96544" lon="0.29461">
        <ele>1439.6</ele>
        <time>2021-05-29T07:58:59Z</time>
      </trkpt>
      <trkpt lat="42.96545" lon="0.29459">
        <ele>1439.6</ele>
        <time>2021-05-29T07:59:00Z</time>
      </trkpt>
      <trkpt lat="42.96546" lon="0.29457">
        <ele>1440</ele>
        <time>2021-05-29T07:59:01Z</time>
      </trkpt>
      <trkpt lat="42.96546" lon="0.29456">
        <ele>1440.2</ele>
        <time>2021-05-29T07:59:02Z</time>
      </trkpt>
      <trkpt lat="42.96547" lon="0.29454">
        <ele>1440.6</ele>
        <time>2021-05-29T07:59:03Z</time>
      </trkpt>
      <trkpt lat="42.96548" lon="0.29452">
        <ele>1440.6</ele>
        <time>2021-05-29T07:59:04Z</time>
      </trkpt>
      <trkpt lat="42.96548" lon="0.2945">
        <ele>1440.8</ele>
        <time>2021-05-29T07:59:05Z</time>
      </trkpt>
      <trkpt lat="42.96549" lon="0.29447">
        <ele>1441</ele>
        <time>2021-05-29T07:59:06Z</time>
      </trkpt>
      <trkpt lat="42.9655" lon="0.29445">
        <ele>1441.2</ele>
        <time>2021-05-29T07:59:07Z</time>
      </trkpt>
      <trkpt lat="42.9655" lon="0.29443">
        <ele>1441.2</ele>
        <time>2021-05-29T07:59:08Z</time>
      </trkpt>
      <trkpt lat="42.96551" lon="0.29441">
        <ele>1441.4</ele>
        <time>2021-05-29T07:59:09Z</time>
      </trkpt>
      <trkpt lat="42.96551" lon="0.29439">
        <ele>1441.6</ele>
        <time>2021-05-29T07:59:10Z</time>
      </trkpt>
      <trkpt lat="42.96551" lon="0.29436">
        <ele>1441.8</ele>
        <time>2021-05-29T07:59:11Z</time>
      </trkpt>
      <trkpt lat="42.96551" lon="0.29434">
        <ele>1442</ele>
        <time>2021-05-29T07:59:12Z</time>
      </trkpt>
      <trkpt lat="42.96551" lon="0.29432">
        <ele>1442.2</ele>
        <time>2021-05-29T07:59:13Z</time>
      </trkpt>
      <trkpt lat="42.9655" lon="0.29429">
        <ele>1442.4</ele>
        <time>2021-05-29T07:59:14Z</time>
      </trkpt>
      <trkpt lat="42.96549" lon="0.29427">
        <ele>1442.4</ele>
        <time>2021-05-29T07:59:15Z</time>
      </trkpt>
      <trkpt lat="42.96548" lon="0.29426">
        <ele>1442.8</ele>
        <time>2021-05-29T07:59:16Z</time>
      </trkpt>
      <trkpt lat="42.96548" lon="0.29424">
        <ele>1442.8</ele>
        <time>2021-05-29T07:59:17Z</time>
      </trkpt>
      <trkpt lat="42.96547" lon="0.29423">
        <ele>1443.2</ele>
        <time>2021-05-29T07:59:18Z</time>
      </trkpt>
      <trkpt lat="42.96546" lon="0.29422">
        <ele>1443.2</ele>
        <time>2021-05-29T07:59:19Z</time>
      </trkpt>
      <trkpt lat="42.96545" lon="0.2942">
        <ele>1443.4</ele>
        <time>2021-05-29T07:59:20Z</time>
      </trkpt>
      <trkpt lat="42.96544" lon="0.29418">
        <ele>1443.4</ele>
        <time>2021-05-29T07:59:21Z</time>
      </trkpt>
      <trkpt lat="42.96543" lon="0.29417">
        <ele>1443.6</ele>
        <time>2021-05-29T07:59:22Z</time>
      </trkpt>
      <trkpt lat="42.96542" lon="0.29415">
        <ele>1443.6</ele>
        <time>2021-05-29T07:59:23Z</time>
      </trkpt>
      <trkpt lat="42.96541" lon="0.29413">
        <ele>1443.8</ele>
        <time>2021-05-29T07:59:24Z</time>
      </trkpt>
      <trkpt lat="42.9654" lon="0.29411">
        <ele>1444</ele>
        <time>2021-05-29T07:59:25Z</time>
      </trkpt>
      <trkpt lat="42.96539" lon="0.29409">
        <ele>1444</ele>
        <time>2021-05-29T07:59:26Z</time>
      </trkpt>
      <trkpt lat="42.96538" lon="0.29408">
        <ele>1444.2</ele>
        <time>2021-05-29T07:59:27Z</time>
      </trkpt>
      <trkpt lat="42.96537" lon="0.29406">
        <ele>1444.6</ele>
        <time>2021-05-29T07:59:28Z</time>
      </trkpt>
      <trkpt lat="42.96536" lon="0.29405">
        <ele>1444.6</ele>
        <time>2021-05-29T07:59:29Z</time>
      </trkpt>
      <trkpt lat="42.96534" lon="0.29404">
        <ele>1445</ele>
        <time>2021-05-29T07:59:30Z</time>
      </trkpt>
      <trkpt lat="42.96532" lon="0.29403">
        <ele>1445</ele>
        <time>2021-05-29T07:59:31Z</time>
      </trkpt>
      <trkpt lat="42.9653" lon="0.29402">
        <ele>1445.2</ele>
        <time>2021-05-29T07:59:32Z</time>
      </trkpt>
      <trkpt lat="42.96529" lon="0.29401">
        <ele>1445.4</ele>
        <time>2021-05-29T07:59:33Z</time>
      </trkpt>
      <trkpt lat="42.96527" lon="0.294">
        <ele>1445.8</ele>
        <time>2021-05-29T07:59:34Z</time>
      </trkpt>
      <trkpt lat="42.96526" lon="0.29399">
        <ele>1446</ele>
        <time>2021-05-29T07:59:35Z</time>
      </trkpt>
      <trkpt lat="42.96525" lon="0.29398">
        <ele>1446.2</ele>
        <time>2021-05-29T07:59:36Z</time>
      </trkpt>
      <trkpt lat="42.96523" lon="0.29397">
        <ele>1446.6</ele>
        <time>2021-05-29T07:59:37Z</time>
      </trkpt>
      <trkpt lat="42.96521" lon="0.29396">
        <ele>1446.8</ele>
        <time>2021-05-29T07:59:38Z</time>
      </trkpt>
      <trkpt lat="42.9652" lon="0.29396">
        <ele>1447</ele>
        <time>2021-05-29T07:59:39Z</time>
      </trkpt>
      <trkpt lat="42.96518" lon="0.29395">
        <ele>1447</ele>
        <time>2021-05-29T07:59:40Z</time>
      </trkpt>
      <trkpt lat="42.96516" lon="0.29395">
        <ele>1447.2</ele>
        <time>2021-05-29T07:59:41Z</time>
      </trkpt>
      <trkpt lat="42.96515" lon="0.29395">
        <ele>1447.4</ele>
        <time>2021-05-29T07:59:42Z</time>
      </trkpt>
      <trkpt lat="42.96513" lon="0.29395">
        <ele>1447.6</ele>
        <time>2021-05-29T07:59:43Z</time>
      </trkpt>
      <trkpt lat="42.96511" lon="0.29395">
        <ele>1447.6</ele>
        <time>2021-05-29T07:59:44Z</time>
      </trkpt>
      <trkpt lat="42.9651" lon="0.29395">
        <ele>1447.8</ele>
        <time>2021-05-29T07:59:45Z</time>
      </trkpt>
      <trkpt lat="42.96508" lon="0.29395">
        <ele>1447.8</ele>
        <time>2021-05-29T07:59:46Z</time>
      </trkpt>
      <trkpt lat="42.96506" lon="0.29395">
        <ele>1448.2</ele>
        <time>2021-05-29T07:59:47Z</time>
      </trkpt>
      <trkpt lat="42.96505" lon="0.29395">
        <ele>1448.6</ele>
        <time>2021-05-29T07:59:48Z</time>
      </trkpt>
      <trkpt lat="42.96503" lon="0.29395">
        <ele>1448.6</ele>
        <time>2021-05-29T07:59:49Z</time>
      </trkpt>
      <trkpt lat="42.96501" lon="0.29395">
        <ele>1449</ele>
        <time>2021-05-29T07:59:50Z</time>
      </trkpt>
      <trkpt lat="42.965" lon="0.29396">
        <ele>1449</ele>
        <time>2021-05-29T07:59:51Z</time>
      </trkpt>
      <trkpt lat="42.96498" lon="0.29396">
        <ele>1449.2</ele>
        <time>2021-05-29T07:59:52Z</time>
      </trkpt>
      <trkpt lat="42.96496" lon="0.29397">
        <ele>1449.4</ele>
        <time>2021-05-29T07:59:53Z</time>
      </trkpt>
      <trkpt lat="42.96494" lon="0.29397">
        <ele>1449.4</ele>
        <time>2021-05-29T07:59:54Z</time>
      </trkpt>
      <trkpt lat="42.96492" lon="0.29397">
        <ele>1449.6</ele>
        <time>2021-05-29T07:59:55Z</time>
      </trkpt>
      <trkpt lat="42.9649" lon="0.29397">
        <ele>1449.8</ele>
        <time>2021-05-29T07:59:56Z</time>
      </trkpt>
      <trkpt lat="42.96489" lon="0.29397">
        <ele>1450</ele>
        <time>2021-05-29T07:59:57Z</time>
      </trkpt>
      <trkpt lat="42.96487" lon="0.29397">
        <ele>1450.2</ele>
        <time>2021-05-29T07:59:58Z</time>
      </trkpt>
      <trkpt lat="42.96485" lon="0.29397">
        <ele>1450.4</ele>
        <time>2021-05-29T07:59:59Z</time>
      </trkpt>
      <trkpt lat="42.96484" lon="0.29397">
        <ele>1450.6</ele>
        <time>2021-05-29T08:00:00Z</time>
      </trkpt>
      <trkpt lat="42.96482" lon="0.29397">
        <ele>1450.6</ele>
        <time>2021-05-29T08:00:01Z</time>
      </trkpt>
      <trkpt lat="42.9648" lon="0.29396">
        <ele>1450.8</ele>
        <time>2021-05-29T08:00:02Z</time>
      </trkpt>
      <trkpt lat="42.96478" lon="0.29396">
        <ele>1450.8</ele>
        <time>2021-05-29T08:00:03Z</time>
      </trkpt>
      <trkpt lat="42.96477" lon="0.29396">
        <ele>1451</ele>
        <time>2021-05-29T08:00:04Z</time>
      </trkpt>
      <trkpt lat="42.96475" lon="0.29396">
        <ele>1451.2</ele>
        <time>2021-05-29T08:00:05Z</time>
      </trkpt>
      <trkpt lat="42.96474" lon="0.29396">
        <ele>1451.2</ele>
        <time>2021-05-29T08:00:06Z</time>
      </trkpt>
      <trkpt lat="42.96473" lon="0.29396">
        <ele>1451.4</ele>
        <time>2021-05-29T08:00:07Z</time>
      </trkpt>
      <trkpt lat="42.96471" lon="0.29395">
        <ele>1451.4</ele>
        <time>2021-05-29T08:00:08Z</time>
      </trkpt>
      <trkpt lat="42.96469" lon="0.29395">
        <ele>1451.6</ele>
        <time>2021-05-29T08:00:09Z</time>
      </trkpt>
      <trkpt lat="42.96467" lon="0.29395">
        <ele>1451.6</ele>
        <time>2021-05-29T08:00:10Z</time>
      </trkpt>
      <trkpt lat="42.96466" lon="0.29394">
        <ele>1451.8</ele>
        <time>2021-05-29T08:00:11Z</time>
      </trkpt>
      <trkpt lat="42.96464" lon="0.29394">
        <ele>1451.8</ele>
        <time>2021-05-29T08:00:12Z</time>
      </trkpt>
      <trkpt lat="42.96462" lon="0.29394">
        <ele>1452</ele>
        <time>2021-05-29T08:00:13Z</time>
      </trkpt>
      <trkpt lat="42.96461" lon="0.29393">
        <ele>1452.2</ele>
        <time>2021-05-29T08:00:14Z</time>
      </trkpt>
      <trkpt lat="42.96459" lon="0.29393">
        <ele>1452.4</ele>
        <time>2021-05-29T08:00:15Z</time>
      </trkpt>
      <trkpt lat="42.96457" lon="0.29393">
        <ele>1452.6</ele>
        <time>2021-05-29T08:00:16Z</time>
      </trkpt>
      <trkpt lat="42.96455" lon="0.29393">
        <ele>1452.8</ele>
        <time>2021-05-29T08:00:17Z</time>
      </trkpt>
      <trkpt lat="42.96454" lon="0.29393">
        <ele>1453</ele>
        <time>2021-05-29T08:00:18Z</time>
      </trkpt>
      <trkpt lat="42.96452" lon="0.29392">
        <ele>1453</ele>
        <time>2021-05-29T08:00:19Z</time>
      </trkpt>
      <trkpt lat="42.9645" lon="0.29391">
        <ele>1453.2</ele>
        <time>2021-05-29T08:00:20Z</time>
      </trkpt>
      <trkpt lat="42.96449" lon="0.2939">
        <ele>1453.4</ele>
        <time>2021-05-29T08:00:21Z</time>
      </trkpt>
      <trkpt lat="42.96447" lon="0.29389">
        <ele>1453.6</ele>
        <time>2021-05-29T08:00:22Z</time>
      </trkpt>
      <trkpt lat="42.96445" lon="0.29389">
        <ele>1453.8</ele>
        <time>2021-05-29T08:00:23Z</time>
      </trkpt>
      <trkpt lat="42.96444" lon="0.29388">
        <ele>1454</ele>
        <time>2021-05-29T08:00:24Z</time>
      </trkpt>
      <trkpt lat="42.96443" lon="0.29386">
        <ele>1454.2</ele>
        <time>2021-05-29T08:00:25Z</time>
      </trkpt>
      <trkpt lat="42.96442" lon="0.29384">
        <ele>1454.4</ele>
        <time>2021-05-29T08:00:26Z</time>
      </trkpt>
      <trkpt lat="42.96441" lon="0.29383">
        <ele>1454.4</ele>
        <time>2021-05-29T08:00:27Z</time>
      </trkpt>
      <trkpt lat="42.9644" lon="0.29381">
        <ele>1454.6</ele>
        <time>2021-05-29T08:00:28Z</time>
      </trkpt>
      <trkpt lat="42.96439" lon="0.29379">
        <ele>1454.6</ele>
        <time>2021-05-29T08:00:29Z</time>
      </trkpt>
      <trkpt lat="42.96438" lon="0.29377">
        <ele>1454.8</ele>
        <time>2021-05-29T08:00:30Z</time>
      </trkpt>
      <trkpt lat="42.96438" lon="0.29374">
        <ele>1454.8</ele>
        <time>2021-05-29T08:00:31Z</time>
      </trkpt>
      <trkpt lat="42.96437" lon="0.29372">
        <ele>1455</ele>
        <time>2021-05-29T08:00:32Z</time>
      </trkpt>
      <trkpt lat="42.96437" lon="0.2937">
        <ele>1455.2</ele>
        <time>2021-05-29T08:00:33Z</time>
      </trkpt>
      <trkpt lat="42.96437" lon="0.29368">
        <ele>1455.4</ele>
        <time>2021-05-29T08:00:34Z</time>
      </trkpt>
      <trkpt lat="42.96437" lon="0.29366">
        <ele>1455.4</ele>
        <time>2021-05-29T08:00:35Z</time>
      </trkpt>
      <trkpt lat="42.96437" lon="0.29364">
        <ele>1455.6</ele>
        <time>2021-05-29T08:00:36Z</time>
      </trkpt>
      <trkpt lat="42.96437" lon="0.29362">
        <ele>1455.8</ele>
        <time>2021-05-29T08:00:37Z</time>
      </trkpt>
      <trkpt lat="42.96436" lon="0.2936">
        <ele>1456</ele>
        <time>2021-05-29T08:00:38Z</time>
      </trkpt>
      <trkpt lat="42.96436" lon="0.29358">
        <ele>1456.2</ele>
        <time>2021-05-29T08:00:39Z</time>
      </trkpt>
      <trkpt lat="42.96435" lon="0.29356">
        <ele>1456.2</ele>
        <time>2021-05-29T08:00:40Z</time>
      </trkpt>
      <trkpt lat="42.96435" lon="0.29354">
        <ele>1456.2</ele>
        <time>2021-05-29T08:00:41Z</time>
      </trkpt>
      <trkpt lat="42.96436" lon="0.29351">
        <ele>1456.4</ele>
        <time>2021-05-29T08:00:42Z</time>
      </trkpt>
      <trkpt lat="42.96436" lon="0.29349">
        <ele>1456.6</ele>
        <time>2021-05-29T08:00:43Z</time>
      </trkpt>
      <trkpt lat="42.96436" lon="0.29347">
        <ele>1456.6</ele>
        <time>2021-05-29T08:00:44Z</time>
      </trkpt>
      <trkpt lat="42.96436" lon="0.29345">
        <ele>1457</ele>
        <time>2021-05-29T08:00:45Z</time>
      </trkpt>
      <trkpt lat="42.96436" lon="0.29343">
        <ele>1457</ele>
        <time>2021-05-29T08:00:46Z</time>
      </trkpt>
      <trkpt lat="42.96436" lon="0.2934">
        <ele>1457.4</ele>
        <time>2021-05-29T08:00:47Z</time>
      </trkpt>
      <trkpt lat="42.96436" lon="0.29338">
        <ele>1457.4</ele>
        <time>2021-05-29T08:00:48Z</time>
      </trkpt>
      <trkpt lat="42.96437" lon="0.29337">
        <ele>1457.6</ele>
        <time>2021-05-29T08:00:49Z</time>
      </trkpt>
      <trkpt lat="42.96436" lon="0.29334">
        <ele>1457.8</ele>
        <time>2021-05-29T08:00:50Z</time>
      </trkpt>
      <trkpt lat="42.96436" lon="0.29332">
        <ele>1458</ele>
        <time>2021-05-29T08:00:51Z</time>
      </trkpt>
      <trkpt lat="42.96436" lon="0.29331">
        <ele>1458</ele>
        <time>2021-05-29T08:00:52Z</time>
      </trkpt>
      <trkpt lat="42.96437" lon="0.29329">
        <ele>1458.2</ele>
        <time>2021-05-29T08:00:53Z</time>
      </trkpt>
      <trkpt lat="42.96438" lon="0.29327">
        <ele>1458.2</ele>
        <time>2021-05-29T08:00:54Z</time>
      </trkpt>
      <trkpt lat="42.96438" lon="0.29325">
        <ele>1458.4</ele>
        <time>2021-05-29T08:00:55Z</time>
      </trkpt>
      <trkpt lat="42.96438" lon="0.29323">
        <ele>1458.6</ele>
        <time>2021-05-29T08:00:56Z</time>
      </trkpt>
      <trkpt lat="42.96439" lon="0.29321">
        <ele>1458.8</ele>
        <time>2021-05-29T08:00:57Z</time>
      </trkpt>
      <trkpt lat="42.96439" lon="0.29319">
        <ele>1459.2</ele>
        <time>2021-05-29T08:00:58Z</time>
      </trkpt>
      <trkpt lat="42.96439" lon="0.29317">
        <ele>1459.2</ele>
        <time>2021-05-29T08:00:59Z</time>
      </trkpt>
      <trkpt lat="42.96439" lon="0.29314">
        <ele>1459.6</ele>
        <time>2021-05-29T08:01:00Z</time>
      </trkpt>
      <trkpt lat="42.96439" lon="0.29312">
        <ele>1459.6</ele>
        <time>2021-05-29T08:01:01Z</time>
      </trkpt>
      <trkpt lat="42.96439" lon="0.2931">
        <ele>1459.8</ele>
        <time>2021-05-29T08:01:02Z</time>
      </trkpt>
      <trkpt lat="42.96439" lon="0.29308">
        <ele>1459.8</ele>
        <time>2021-05-29T08:01:03Z</time>
      </trkpt>
      <trkpt lat="42.9644" lon="0.29306">
        <ele>1460</ele>
        <time>2021-05-29T08:01:04Z</time>
      </trkpt>
      <trkpt lat="42.9644" lon="0.29304">
        <ele>1460.2</ele>
        <time>2021-05-29T08:01:05Z</time>
      </trkpt>
      <trkpt lat="42.9644" lon="0.29302">
        <ele>1460.4</ele>
        <time>2021-05-29T08:01:06Z</time>
      </trkpt>
      <trkpt lat="42.9644" lon="0.293">
        <ele>1460.4</ele>
        <time>2021-05-29T08:01:07Z</time>
      </trkpt>
      <trkpt lat="42.9644" lon="0.29298">
        <ele>1460.6</ele>
        <time>2021-05-29T08:01:08Z</time>
      </trkpt>
      <trkpt lat="42.9644" lon="0.29296">
        <ele>1460.6</ele>
        <time>2021-05-29T08:01:09Z</time>
      </trkpt>
      <trkpt lat="42.9644" lon="0.29293">
        <ele>1461</ele>
        <time>2021-05-29T08:01:10Z</time>
      </trkpt>
      <trkpt lat="42.9644" lon="0.29291">
        <ele>1461</ele>
        <time>2021-05-29T08:01:11Z</time>
      </trkpt>
      <trkpt lat="42.96441" lon="0.29289">
        <ele>1461.2</ele>
        <time>2021-05-29T08:01:12Z</time>
      </trkpt>
      <trkpt lat="42.96441" lon="0.29287">
        <ele>1461.4</ele>
        <time>2021-05-29T08:01:13Z</time>
      </trkpt>
      <trkpt lat="42.96441" lon="0.29286">
        <ele>1461.6</ele>
        <time>2021-05-29T08:01:14Z</time>
      </trkpt>
      <trkpt lat="42.96441" lon="0.29283">
        <ele>1461.8</ele>
        <time>2021-05-29T08:01:15Z</time>
      </trkpt>
      <trkpt lat="42.9644" lon="0.29281">
        <ele>1461.8</ele>
        <time>2021-05-29T08:01:16Z</time>
      </trkpt>
      <trkpt lat="42.9644" lon="0.29279">
        <ele>1462</ele>
        <time>2021-05-29T08:01:17Z</time>
      </trkpt>
      <trkpt lat="42.9644" lon="0.29277">
        <ele>1462</ele>
        <time>2021-05-29T08:01:18Z</time>
      </trkpt>
      <trkpt lat="42.9644" lon="0.29275">
        <ele>1462.2</ele>
        <time>2021-05-29T08:01:19Z</time>
      </trkpt>
      <trkpt lat="42.96441" lon="0.29273">
        <ele>1462.2</ele>
        <time>2021-05-29T08:01:20Z</time>
      </trkpt>
      <trkpt lat="42.96441" lon="0.2927">
        <ele>1462.4</ele>
        <time>2021-05-29T08:01:21Z</time>
      </trkpt>
      <trkpt lat="42.96441" lon="0.29268">
        <ele>1462.4</ele>
        <time>2021-05-29T08:01:22Z</time>
      </trkpt>
      <trkpt lat="42.96442" lon="0.29266">
        <ele>1462.6</ele>
        <time>2021-05-29T08:01:23Z</time>
      </trkpt>
      <trkpt lat="42.96443" lon="0.29264">
        <ele>1462.8</ele>
        <time>2021-05-29T08:01:24Z</time>
      </trkpt>
      <trkpt lat="42.96443" lon="0.29262">
        <ele>1463</ele>
        <time>2021-05-29T08:01:25Z</time>
      </trkpt>
      <trkpt lat="42.96444" lon="0.29259">
        <ele>1463.2</ele>
        <time>2021-05-29T08:01:26Z</time>
      </trkpt>
      <trkpt lat="42.96445" lon="0.29257">
        <ele>1463.4</ele>
        <time>2021-05-29T08:01:27Z</time>
      </trkpt>
      <trkpt lat="42.96446" lon="0.29255">
        <ele>1463.6</ele>
        <time>2021-05-29T08:01:28Z</time>
      </trkpt>
      <trkpt lat="42.96447" lon="0.29253">
        <ele>1463.8</ele>
        <time>2021-05-29T08:01:29Z</time>
      </trkpt>
      <trkpt lat="42.96448" lon="0.29251">
        <ele>1464.2</ele>
        <time>2021-05-29T08:01:30Z</time>
      </trkpt>
      <trkpt lat="42.96449" lon="0.29249">
        <ele>1464.2</ele>
        <time>2021-05-29T08:01:31Z</time>
      </trkpt>
      <trkpt lat="42.9645" lon="0.29247">
        <ele>1464.4</ele>
        <time>2021-05-29T08:01:32Z</time>
      </trkpt>
      <trkpt lat="42.96451" lon="0.29246">
        <ele>1464.6</ele>
        <time>2021-05-29T08:01:33Z</time>
      </trkpt>
      <trkpt lat="42.96452" lon="0.29244">
        <ele>1464.8</ele>
        <time>2021-05-29T08:01:34Z</time>
      </trkpt>
      <trkpt lat="42.96453" lon="0.29242">
        <ele>1464.8</ele>
        <time>2021-05-29T08:01:35Z</time>
      </trkpt>
      <trkpt lat="42.96455" lon="0.29241">
        <ele>1465</ele>
        <time>2021-05-29T08:01:36Z</time>
      </trkpt>
      <trkpt lat="42.96456" lon="0.29239">
        <ele>1465.2</ele>
        <time>2021-05-29T08:01:37Z</time>
      </trkpt>
      <trkpt lat="42.96457" lon="0.29237">
        <ele>1465.4</ele>
        <time>2021-05-29T08:01:38Z</time>
      </trkpt>
      <trkpt lat="42.96459" lon="0.29236">
        <ele>1465.4</ele>
        <time>2021-05-29T08:01:39Z</time>
      </trkpt>
      <trkpt lat="42.9646" lon="0.29235">
        <ele>1465.6</ele>
        <time>2021-05-29T08:01:40Z</time>
      </trkpt>
      <trkpt lat="42.96461" lon="0.29234">
        <ele>1465.8</ele>
        <time>2021-05-29T08:01:41Z</time>
      </trkpt>
      <trkpt lat="42.96463" lon="0.29233">
        <ele>1465.8</ele>
        <time>2021-05-29T08:01:42Z</time>
      </trkpt>
      <trkpt lat="42.96465" lon="0.29231">
        <ele>1465.8</ele>
        <time>2021-05-29T08:01:43Z</time>
      </trkpt>
      <trkpt lat="42.96466" lon="0.2923">
        <ele>1466</ele>
        <time>2021-05-29T08:01:44Z</time>
      </trkpt>
      <trkpt lat="42.96468" lon="0.29229">
        <ele>1466.2</ele>
        <time>2021-05-29T08:01:45Z</time>
      </trkpt>
      <trkpt lat="42.96469" lon="0.29228">
        <ele>1466.2</ele>
        <time>2021-05-29T08:01:46Z</time>
      </trkpt>
      <trkpt lat="42.9647" lon="0.29227">
        <ele>1466.4</ele>
        <time>2021-05-29T08:01:47Z</time>
      </trkpt>
      <trkpt lat="42.96472" lon="0.29226">
        <ele>1466.4</ele>
        <time>2021-05-29T08:01:48Z</time>
      </trkpt>
      <trkpt lat="42.96473" lon="0.29225">
        <ele>1466.6</ele>
        <time>2021-05-29T08:01:49Z</time>
      </trkpt>
      <trkpt lat="42.96475" lon="0.29223">
        <ele>1466.6</ele>
        <time>2021-05-29T08:01:50Z</time>
      </trkpt>
      <trkpt lat="42.96476" lon="0.29222">
        <ele>1466.8</ele>
        <time>2021-05-29T08:01:51Z</time>
      </trkpt>
      <trkpt lat="42.96478" lon="0.29221">
        <ele>1466.8</ele>
        <time>2021-05-29T08:01:52Z</time>
      </trkpt>
      <trkpt lat="42.96479" lon="0.2922">
        <ele>1466.8</ele>
        <time>2021-05-29T08:01:53Z</time>
      </trkpt>
      <trkpt lat="42.96481" lon="0.29219">
        <ele>1467</ele>
        <time>2021-05-29T08:01:54Z</time>
      </trkpt>
      <trkpt lat="42.96483" lon="0.29218">
        <ele>1467</ele>
        <time>2021-05-29T08:01:55Z</time>
      </trkpt>
      <trkpt lat="42.96484" lon="0.29217">
        <ele>1467.2</ele>
        <time>2021-05-29T08:01:56Z</time>
      </trkpt>
      <trkpt lat="42.96486" lon="0.29215">
        <ele>1467.4</ele>
        <time>2021-05-29T08:01:57Z</time>
      </trkpt>
      <trkpt lat="42.96487" lon="0.29214">
        <ele>1467.4</ele>
        <time>2021-05-29T08:01:58Z</time>
      </trkpt>
      <trkpt lat="42.96489" lon="0.29213">
        <ele>1467.6</ele>
        <time>2021-05-29T08:01:59Z</time>
      </trkpt>
      <trkpt lat="42.9649" lon="0.29211">
        <ele>1467.8</ele>
        <time>2021-05-29T08:02:00Z</time>
      </trkpt>
      <trkpt lat="42.96492" lon="0.2921">
        <ele>1468</ele>
        <time>2021-05-29T08:02:01Z</time>
      </trkpt>
      <trkpt lat="42.96493" lon="0.29209">
        <ele>1468</ele>
        <time>2021-05-29T08:02:02Z</time>
      </trkpt>
      <trkpt lat="42.96495" lon="0.29208">
        <ele>1468.2</ele>
        <time>2021-05-29T08:02:03Z</time>
      </trkpt>
      <trkpt lat="42.96496" lon="0.29206">
        <ele>1468.4</ele>
        <time>2021-05-29T08:02:04Z</time>
      </trkpt>
      <trkpt lat="42.96497" lon="0.29205">
        <ele>1468.4</ele>
        <time>2021-05-29T08:02:05Z</time>
      </trkpt>
      <trkpt lat="42.96499" lon="0.29203">
        <ele>1468.4</ele>
        <time>2021-05-29T08:02:06Z</time>
      </trkpt>
      <trkpt lat="42.965" lon="0.29201">
        <ele>1468.4</ele>
        <time>2021-05-29T08:02:07Z</time>
      </trkpt>
      <trkpt lat="42.96501" lon="0.292">
        <ele>1468.6</ele>
        <time>2021-05-29T08:02:08Z</time>
      </trkpt>
      <trkpt lat="42.96503" lon="0.29198">
        <ele>1468.8</ele>
        <time>2021-05-29T08:02:09Z</time>
      </trkpt>
      <trkpt lat="42.96504" lon="0.29197">
        <ele>1468.8</ele>
        <time>2021-05-29T08:02:10Z</time>
      </trkpt>
      <trkpt lat="42.96505" lon="0.29195">
        <ele>1468.8</ele>
        <time>2021-05-29T08:02:11Z</time>
      </trkpt>
      <trkpt lat="42.96507" lon="0.29193">
        <ele>1469</ele>
        <time>2021-05-29T08:02:12Z</time>
      </trkpt>
      <trkpt lat="42.96508" lon="0.29191">
        <ele>1469</ele>
        <time>2021-05-29T08:02:13Z</time>
      </trkpt>
      <trkpt lat="42.96509" lon="0.29189">
        <ele>1469.2</ele>
        <time>2021-05-29T08:02:14Z</time>
      </trkpt>
      <trkpt lat="42.9651" lon="0.29186">
        <ele>1469.2</ele>
        <time>2021-05-29T08:02:15Z</time>
      </trkpt>
      <trkpt lat="42.96511" lon="0.29184">
        <ele>1469.4</ele>
        <time>2021-05-29T08:02:16Z</time>
      </trkpt>
      <trkpt lat="42.96513" lon="0.29182">
        <ele>1469.4</ele>
        <time>2021-05-29T08:02:17Z</time>
      </trkpt>
      <trkpt lat="42.96514" lon="0.2918">
        <ele>1469.6</ele>
        <time>2021-05-29T08:02:18Z</time>
      </trkpt>
      <trkpt lat="42.96514" lon="0.29178">
        <ele>1469.6</ele>
        <time>2021-05-29T08:02:19Z</time>
      </trkpt>
      <trkpt lat="42.96515" lon="0.29175">
        <ele>1469.8</ele>
        <time>2021-05-29T08:02:20Z</time>
      </trkpt>
      <trkpt lat="42.96516" lon="0.29173">
        <ele>1470</ele>
        <time>2021-05-29T08:02:21Z</time>
      </trkpt>
      <trkpt lat="42.96517" lon="0.2917">
        <ele>1470.2</ele>
        <time>2021-05-29T08:02:22Z</time>
      </trkpt>
      <trkpt lat="42.96517" lon="0.29168">
        <ele>1470.4</ele>
        <time>2021-05-29T08:02:23Z</time>
      </trkpt>
      <trkpt lat="42.96518" lon="0.29165">
        <ele>1470.4</ele>
        <time>2021-05-29T08:02:24Z</time>
      </trkpt>
      <trkpt lat="42.96518" lon="0.29163">
        <ele>1470.6</ele>
        <time>2021-05-29T08:02:25Z</time>
      </trkpt>
      <trkpt lat="42.96519" lon="0.2916">
        <ele>1470.6</ele>
        <time>2021-05-29T08:02:26Z</time>
      </trkpt>
      <trkpt lat="42.96519" lon="0.29157">
        <ele>1470.8</ele>
        <time>2021-05-29T08:02:27Z</time>
      </trkpt>
      <trkpt lat="42.9652" lon="0.29154">
        <ele>1470.8</ele>
        <time>2021-05-29T08:02:28Z</time>
      </trkpt>
      <trkpt lat="42.9652" lon="0.29151">
        <ele>1471</ele>
        <time>2021-05-29T08:02:29Z</time>
      </trkpt>
      <trkpt lat="42.96521" lon="0.29149">
        <ele>1471</ele>
        <time>2021-05-29T08:02:30Z</time>
      </trkpt>
      <trkpt lat="42.96521" lon="0.29146">
        <ele>1471.2</ele>
        <time>2021-05-29T08:02:31Z</time>
      </trkpt>
      <trkpt lat="42.96521" lon="0.29143">
        <ele>1471.2</ele>
        <time>2021-05-29T08:02:32Z</time>
      </trkpt>
      <trkpt lat="42.96522" lon="0.2914">
        <ele>1471.4</ele>
        <time>2021-05-29T08:02:33Z</time>
      </trkpt>
      <trkpt lat="42.96522" lon="0.29137">
        <ele>1471.4</ele>
        <time>2021-05-29T08:02:34Z</time>
      </trkpt>
      <trkpt lat="42.96522" lon="0.29134">
        <ele>1471.6</ele>
        <time>2021-05-29T08:02:35Z</time>
      </trkpt>
      <trkpt lat="42.96522" lon="0.29131">
        <ele>1471.6</ele>
        <time>2021-05-29T08:02:36Z</time>
      </trkpt>
      <trkpt lat="42.96523" lon="0.29128">
        <ele>1471.8</ele>
        <time>2021-05-29T08:02:37Z</time>
      </trkpt>
      <trkpt lat="42.96523" lon="0.29124">
        <ele>1471.8</ele>
        <time>2021-05-29T08:02:38Z</time>
      </trkpt>
      <trkpt lat="42.96524" lon="0.29121">
        <ele>1471.8</ele>
        <time>2021-05-29T08:02:39Z</time>
      </trkpt>
      <trkpt lat="42.96524" lon="0.29118">
        <ele>1471.8</ele>
        <time>2021-05-29T08:02:40Z</time>
      </trkpt>
      <trkpt lat="42.96524" lon="0.29115">
        <ele>1472</ele>
        <time>2021-05-29T08:02:41Z</time>
      </trkpt>
      <trkpt lat="42.96524" lon="0.29112">
        <ele>1472</ele>
        <time>2021-05-29T08:02:42Z</time>
      </trkpt>
      <trkpt lat="42.96525" lon="0.29108">
        <ele>1472</ele>
        <time>2021-05-29T08:02:43Z</time>
      </trkpt>
      <trkpt lat="42.96525" lon="0.29105">
        <ele>1472</ele>
        <time>2021-05-29T08:02:44Z</time>
      </trkpt>
      <trkpt lat="42.96528" lon="0.29093">
        <ele>1472.4</ele>
        <time>2021-05-29T08:02:48Z</time>
      </trkpt>
      <trkpt lat="42.9653" lon="0.29087">
        <ele>1472.6</ele>
        <time>2021-05-29T08:02:50Z</time>
      </trkpt>
      <trkpt lat="42.96533" lon="0.29078">
        <ele>1472.8</ele>
        <time>2021-05-29T08:02:53Z</time>
      </trkpt>
      <trkpt lat="42.96534" lon="0.29076">
        <ele>1472.8</ele>
        <time>2021-05-29T08:02:54Z</time>
      </trkpt>
      <trkpt lat="42.9654" lon="0.2906">
        <ele>1473.2</ele>
        <time>2021-05-29T08:02:59Z</time>
      </trkpt>
      <trkpt lat="42.96542" lon="0.29054">
        <ele>1473.4</ele>
        <time>2021-05-29T08:03:01Z</time>
      </trkpt>
      <trkpt lat="42.96548" lon="0.2904">
        <ele>1474</ele>
        <time>2021-05-29T08:03:06Z</time>
      </trkpt>
      <trkpt lat="42.96553" lon="0.29032">
        <ele>1474.2</ele>
        <time>2021-05-29T08:03:09Z</time>
      </trkpt>
      <trkpt lat="42.96555" lon="0.29026">
        <ele>1474.4</ele>
        <time>2021-05-29T08:03:11Z</time>
      </trkpt>
      <trkpt lat="42.96555" lon="0.29024">
        <ele>1474.6</ele>
        <time>2021-05-29T08:03:12Z</time>
      </trkpt>
      <trkpt lat="42.96557" lon="0.29022">
        <ele>1474.6</ele>
        <time>2021-05-29T08:03:13Z</time>
      </trkpt>
      <trkpt lat="42.96558" lon="0.2902">
        <ele>1474.8</ele>
        <time>2021-05-29T08:03:14Z</time>
      </trkpt>
      <trkpt lat="42.9656" lon="0.29017">
        <ele>1474.8</ele>
        <time>2021-05-29T08:03:15Z</time>
      </trkpt>
      <trkpt lat="42.96561" lon="0.29015">
        <ele>1475</ele>
        <time>2021-05-29T08:03:16Z</time>
      </trkpt>
      <trkpt lat="42.96563" lon="0.29012">
        <ele>1475</ele>
        <time>2021-05-29T08:03:17Z</time>
      </trkpt>
      <trkpt lat="42.96564" lon="0.2901">
        <ele>1475.2</ele>
        <time>2021-05-29T08:03:18Z</time>
      </trkpt>
      <trkpt lat="42.96566" lon="0.29008">
        <ele>1475.2</ele>
        <time>2021-05-29T08:03:19Z</time>
      </trkpt>
      <trkpt lat="42.96574" lon="0.28997">
        <ele>1475.6</ele>
        <time>2021-05-29T08:03:24Z</time>
      </trkpt>
      <trkpt lat="42.96577" lon="0.28993">
        <ele>1475.8</ele>
        <time>2021-05-29T08:03:26Z</time>
      </trkpt>
      <trkpt lat="42.96583" lon="0.28986">
        <ele>1476</ele>
        <time>2021-05-29T08:03:30Z</time>
      </trkpt>
      <trkpt lat="42.96584" lon="0.28984">
        <ele>1476</ele>
        <time>2021-05-29T08:03:31Z</time>
      </trkpt>
      <trkpt lat="42.96585" lon="0.28984">
        <ele>1476</ele>
        <time>2021-05-29T08:03:32Z</time>
      </trkpt>
      <trkpt lat="42.96585" lon="0.28983">
        <ele>1476</ele>
        <time>2021-05-29T08:03:33Z</time>
      </trkpt>
      <trkpt lat="42.96585" lon="0.28983">
        <ele>1476</ele>
        <time>2021-05-29T08:03:36Z</time>
      </trkpt>
      <trkpt lat="42.96585" lon="0.28983">
        <ele>1476.2</ele>
        <time>2021-05-29T08:04:17Z</time>
      </trkpt>
      <trkpt lat="42.96585" lon="0.28983">
        <ele>1476.2</ele>
        <time>2021-05-29T08:05:21Z</time>
      </trkpt>
      <trkpt lat="42.96588" lon="0.28976">
        <ele>1476.2</ele>
        <time>2021-05-29T08:05:25Z</time>
      </trkpt>
      <trkpt lat="42.96599" lon="0.28959">
        <ele>1475.8</ele>
        <time>2021-05-29T08:05:32Z</time>
      </trkpt>
      <trkpt lat="42.96609" lon="0.28943">
        <ele>1475.6</ele>
        <time>2021-05-29T08:05:36Z</time>
      </trkpt>
      <trkpt lat="42.96616" lon="0.28933">
        <ele>1475.4</ele>
        <time>2021-05-29T08:05:38Z</time>
      </trkpt>
      <trkpt lat="42.96632" lon="0.28913">
        <ele>1474.6</ele>
        <time>2021-05-29T08:05:42Z</time>
      </trkpt>
      <trkpt lat="42.96642" lon="0.28902">
        <ele>1474.4</ele>
        <time>2021-05-29T08:05:44Z</time>
      </trkpt>
      <trkpt lat="42.96665" lon="0.28878">
        <ele>1473.4</ele>
        <time>2021-05-29T08:05:48Z</time>
      </trkpt>
      <trkpt lat="42.96678" lon="0.28865">
        <ele>1472.6</ele>
        <time>2021-05-29T08:05:50Z</time>
      </trkpt>
      <trkpt lat="42.96685" lon="0.28857">
        <ele>1472.4</ele>
        <time>2021-05-29T08:05:51Z</time>
      </trkpt>
      <trkpt lat="42.96715" lon="0.28827">
        <ele>1471</ele>
        <time>2021-05-29T08:05:55Z</time>
      </trkpt>
      <trkpt lat="42.96731" lon="0.28811">
        <ele>1469.4</ele>
        <time>2021-05-29T08:05:57Z</time>
      </trkpt>
      <trkpt lat="42.96739" lon="0.28803">
        <ele>1469</ele>
        <time>2021-05-29T08:05:58Z</time>
      </trkpt>
      <trkpt lat="42.96757" lon="0.28786">
        <ele>1467.2</ele>
        <time>2021-05-29T08:06:00Z</time>
      </trkpt>
      <trkpt lat="42.96775" lon="0.2877">
        <ele>1465.2</ele>
        <time>2021-05-29T08:06:02Z</time>
      </trkpt>
      <trkpt lat="42.96783" lon="0.28763">
        <ele>1464</ele>
        <time>2021-05-29T08:06:03Z</time>
      </trkpt>
      <trkpt lat="42.96791" lon="0.28756">
        <ele>1462.6</ele>
        <time>2021-05-29T08:06:04Z</time>
      </trkpt>
      <trkpt lat="42.96799" lon="0.28749">
        <ele>1461.8</ele>
        <time>2021-05-29T08:06:05Z</time>
      </trkpt>
      <trkpt lat="42.96807" lon="0.28743">
        <ele>1460.8</ele>
        <time>2021-05-29T08:06:06Z</time>
      </trkpt>
      <trkpt lat="42.96815" lon="0.28737">
        <ele>1460.4</ele>
        <time>2021-05-29T08:06:07Z</time>
      </trkpt>
      <trkpt lat="42.96824" lon="0.28731">
        <ele>1459</ele>
        <time>2021-05-29T08:06:08Z</time>
      </trkpt>
      <trkpt lat="42.96842" lon="0.28718">
        <ele>1456.8</ele>
        <time>2021-05-29T08:06:10Z</time>
      </trkpt>
      <trkpt lat="42.96862" lon="0.28705">
        <ele>1455.2</ele>
        <time>2021-05-29T08:06:12Z</time>
      </trkpt>
      <trkpt lat="42.96881" lon="0.28693">
        <ele>1453.6</ele>
        <time>2021-05-29T08:06:14Z</time>
      </trkpt>
      <trkpt lat="42.96899" lon="0.28684">
        <ele>1451.8</ele>
        <time>2021-05-29T08:06:16Z</time>
      </trkpt>
      <trkpt lat="42.96908" lon="0.2868">
        <ele>1450.4</ele>
        <time>2021-05-29T08:06:17Z</time>
      </trkpt>
      <trkpt lat="42.96916" lon="0.28677">
        <ele>1450</ele>
        <time>2021-05-29T08:06:18Z</time>
      </trkpt>
      <trkpt lat="42.96925" lon="0.28675">
        <ele>1449.4</ele>
        <time>2021-05-29T08:06:19Z</time>
      </trkpt>
      <trkpt lat="42.96932" lon="0.28673">
        <ele>1449</ele>
        <time>2021-05-29T08:06:20Z</time>
      </trkpt>
      <trkpt lat="42.96938" lon="0.2867">
        <ele>1448.4</ele>
        <time>2021-05-29T08:06:21Z</time>
      </trkpt>
      <trkpt lat="42.96943" lon="0.28667">
        <ele>1447.4</ele>
        <time>2021-05-29T08:06:22Z</time>
      </trkpt>
      <trkpt lat="42.96947" lon="0.28664">
        <ele>1446.4</ele>
        <time>2021-05-29T08:06:23Z</time>
      </trkpt>
      <trkpt lat="42.96949" lon="0.2866">
        <ele>1446.2</ele>
        <time>2021-05-29T08:06:24Z</time>
      </trkpt>
      <trkpt lat="42.96949" lon="0.28656">
        <ele>1445.6</ele>
        <time>2021-05-29T08:06:25Z</time>
      </trkpt>
      <trkpt lat="42.96948" lon="0.2865">
        <ele>1445.4</ele>
        <time>2021-05-29T08:06:26Z</time>
      </trkpt>
      <trkpt lat="42.96946" lon="0.28646">
        <ele>1444.8</ele>
        <time>2021-05-29T08:06:27Z</time>
      </trkpt>
      <trkpt lat="42.96942" lon="0.28644">
        <ele>1444.6</ele>
        <time>2021-05-29T08:06:28Z</time>
      </trkpt>
      <trkpt lat="42.9693" lon="0.28645">
        <ele>1444.2</ele>
        <time>2021-05-29T08:06:30Z</time>
      </trkpt>
      <trkpt lat="42.96924" lon="0.28646">
        <ele>1443.2</ele>
        <time>2021-05-29T08:06:31Z</time>
      </trkpt>
      <trkpt lat="42.96918" lon="0.28647">
        <ele>1442.8</ele>
        <time>2021-05-29T08:06:32Z</time>
      </trkpt>
      <trkpt lat="42.96904" lon="0.28647">
        <ele>1441.8</ele>
        <time>2021-05-29T08:06:34Z</time>
      </trkpt>
      <trkpt lat="42.96897" lon="0.28646">
        <ele>1441.6</ele>
        <time>2021-05-29T08:06:35Z</time>
      </trkpt>
      <trkpt lat="42.96881" lon="0.28647">
        <ele>1440.6</ele>
        <time>2021-05-29T08:06:37Z</time>
      </trkpt>
      <trkpt lat="42.96873" lon="0.28648">
        <ele>1439.8</ele>
        <time>2021-05-29T08:06:38Z</time>
      </trkpt>
      <trkpt lat="42.96865" lon="0.28649">
        <ele>1439.4</ele>
        <time>2021-05-29T08:06:39Z</time>
      </trkpt>
      <trkpt lat="42.96846" lon="0.2865">
        <ele>1437.8</ele>
        <time>2021-05-29T08:06:41Z</time>
      </trkpt>
      <trkpt lat="42.96838" lon="0.2865">
        <ele>1436.4</ele>
        <time>2021-05-29T08:06:42Z</time>
      </trkpt>
      <trkpt lat="42.96829" lon="0.28649">
        <ele>1435.4</ele>
        <time>2021-05-29T08:06:43Z</time>
      </trkpt>
      <trkpt lat="42.9682" lon="0.28648">
        <ele>1434.2</ele>
        <time>2021-05-29T08:06:44Z</time>
      </trkpt>
      <trkpt lat="42.96812" lon="0.28646">
        <ele>1433.6</ele>
        <time>2021-05-29T08:06:45Z</time>
      </trkpt>
      <trkpt lat="42.96804" lon="0.28644">
        <ele>1432.6</ele>
        <time>2021-05-29T08:06:46Z</time>
      </trkpt>
      <trkpt lat="42.96788" lon="0.28641">
        <ele>1431</ele>
        <time>2021-05-29T08:06:48Z</time>
      </trkpt>
      <trkpt lat="42.96771" lon="0.28642">
        <ele>1429.2</ele>
        <time>2021-05-29T08:06:50Z</time>
      </trkpt>
      <trkpt lat="42.96754" lon="0.28649">
        <ele>1427.6</ele>
        <time>2021-05-29T08:06:52Z</time>
      </trkpt>
      <trkpt lat="42.96746" lon="0.28654">
        <ele>1426.8</ele>
        <time>2021-05-29T08:06:53Z</time>
      </trkpt>
      <trkpt lat="42.9674" lon="0.28659">
        <ele>1426.4</ele>
        <time>2021-05-29T08:06:54Z</time>
      </trkpt>
      <trkpt lat="42.96734" lon="0.28661">
        <ele>1425.2</ele>
        <time>2021-05-29T08:06:55Z</time>
      </trkpt>
      <trkpt lat="42.96729" lon="0.28661">
        <ele>1424.8</ele>
        <time>2021-05-29T08:06:56Z</time>
      </trkpt>
      <trkpt lat="42.96726" lon="0.28658">
        <ele>1424.4</ele>
        <time>2021-05-29T08:06:57Z</time>
      </trkpt>
      <trkpt lat="42.96724" lon="0.28653">
        <ele>1424</ele>
        <time>2021-05-29T08:06:58Z</time>
      </trkpt>
      <trkpt lat="42.96724" lon="0.28647">
        <ele>1423.4</ele>
        <time>2021-05-29T08:06:59Z</time>
      </trkpt>
      <trkpt lat="42.96727" lon="0.28641">
        <ele>1423</ele>
        <time>2021-05-29T08:07:00Z</time>
      </trkpt>
      <trkpt lat="42.96731" lon="0.28636">
        <ele>1422.2</ele>
        <time>2021-05-29T08:07:01Z</time>
      </trkpt>
      <trkpt lat="42.96742" lon="0.28629">
        <ele>1420.8</ele>
        <time>2021-05-29T08:07:03Z</time>
      </trkpt>
      <trkpt lat="42.96748" lon="0.28625">
        <ele>1420.6</ele>
        <time>2021-05-29T08:07:04Z</time>
      </trkpt>
      <trkpt lat="42.96766" lon="0.28612">
        <ele>1419</ele>
        <time>2021-05-29T08:07:07Z</time>
      </trkpt>
      <trkpt lat="42.96772" lon="0.28608">
        <ele>1418.4</ele>
        <time>2021-05-29T08:07:08Z</time>
      </trkpt>
      <trkpt lat="42.96777" lon="0.28606">
        <ele>1418.2</ele>
        <time>2021-05-29T08:07:09Z</time>
      </trkpt>
      <trkpt lat="42.96782" lon="0.28603">
        <ele>1417.6</ele>
        <time>2021-05-29T08:07:10Z</time>
      </trkpt>
      <trkpt lat="42.96786" lon="0.286">
        <ele>1417.4</ele>
        <time>2021-05-29T08:07:11Z</time>
      </trkpt>
      <trkpt lat="42.96789" lon="0.28597">
        <ele>1417</ele>
        <time>2021-05-29T08:07:12Z</time>
      </trkpt>
      <trkpt lat="42.9679" lon="0.28594">
        <ele>1416.2</ele>
        <time>2021-05-29T08:07:13Z</time>
      </trkpt>
      <trkpt lat="42.96791" lon="0.28592">
        <ele>1415.4</ele>
        <time>2021-05-29T08:07:14Z</time>
      </trkpt>
      <trkpt lat="42.96791" lon="0.2859">
        <ele>1415</ele>
        <time>2021-05-29T08:07:15Z</time>
      </trkpt>
      <trkpt lat="42.96792" lon="0.28589">
        <ele>1414.8</ele>
        <time>2021-05-29T08:07:16Z</time>
      </trkpt>
      <trkpt lat="42.96793" lon="0.28588">
        <ele>1414.6</ele>
        <time>2021-05-29T08:07:17Z</time>
      </trkpt>
      <trkpt lat="42.96794" lon="0.28587">
        <ele>1414.2</ele>
        <time>2021-05-29T08:07:18Z</time>
      </trkpt>
      <trkpt lat="42.96795" lon="0.28588">
        <ele>1414</ele>
        <time>2021-05-29T08:07:19Z</time>
      </trkpt>
      <trkpt lat="42.96797" lon="0.28591">
        <ele>1413.6</ele>
        <time>2021-05-29T08:07:21Z</time>
      </trkpt>
      <trkpt lat="42.96798" lon="0.28593">
        <ele>1413.4</ele>
        <time>2021-05-29T08:07:22Z</time>
      </trkpt>
      <trkpt lat="42.96799" lon="0.28594">
        <ele>1413.4</ele>
        <time>2021-05-29T08:07:23Z</time>
      </trkpt>
      <trkpt lat="42.96801" lon="0.28595">
        <ele>1413.4</ele>
        <time>2021-05-29T08:07:24Z</time>
      </trkpt>
      <trkpt lat="42.96802" lon="0.28595">
        <ele>1413.4</ele>
        <time>2021-05-29T08:07:25Z</time>
      </trkpt>
      <trkpt lat="42.96817" lon="0.286">
        <ele>1413.8</ele>
        <time>2021-05-29T08:07:31Z</time>
      </trkpt>
      <trkpt lat="42.96834" lon="0.286">
        <ele>1413.8</ele>
        <time>2021-05-29T08:07:36Z</time>
      </trkpt>
      <trkpt lat="42.96842" lon="0.28598">
        <ele>1414</ele>
        <time>2021-05-29T08:07:38Z</time>
      </trkpt>
      <trkpt lat="42.96847" lon="0.28595">
        <ele>1414</ele>
        <time>2021-05-29T08:07:39Z</time>
      </trkpt>
      <trkpt lat="42.96852" lon="0.28591">
        <ele>1414</ele>
        <time>2021-05-29T08:07:40Z</time>
      </trkpt>
      <trkpt lat="42.96857" lon="0.28587">
        <ele>1414</ele>
        <time>2021-05-29T08:07:41Z</time>
      </trkpt>
      <trkpt lat="42.96866" lon="0.28581">
        <ele>1414</ele>
        <time>2021-05-29T08:07:43Z</time>
      </trkpt>
      <trkpt lat="42.96877" lon="0.28576">
        <ele>1413.8</ele>
        <time>2021-05-29T08:07:45Z</time>
      </trkpt>
      <trkpt lat="42.96883" lon="0.28574">
        <ele>1413.8</ele>
        <time>2021-05-29T08:07:46Z</time>
      </trkpt>
      <trkpt lat="42.96904" lon="0.2857">
        <ele>1413.4</ele>
        <time>2021-05-29T08:07:49Z</time>
      </trkpt>
      <trkpt lat="42.96909" lon="0.28566">
        <ele>1413</ele>
        <time>2021-05-29T08:07:50Z</time>
      </trkpt>
      <trkpt lat="42.96914" lon="0.28561">
        <ele>1413</ele>
        <time>2021-05-29T08:07:51Z</time>
      </trkpt>
      <trkpt lat="42.96917" lon="0.28554">
        <ele>1412.4</ele>
        <time>2021-05-29T08:07:52Z</time>
      </trkpt>
      <trkpt lat="42.96917" lon="0.28546">
        <ele>1412</ele>
        <time>2021-05-29T08:07:53Z</time>
      </trkpt>
      <trkpt lat="42.96916" lon="0.28539">
        <ele>1411.2</ele>
        <time>2021-05-29T08:07:54Z</time>
      </trkpt>
      <trkpt lat="42.96913" lon="0.28534">
        <ele>1410.8</ele>
        <time>2021-05-29T08:07:55Z</time>
      </trkpt>
      <trkpt lat="42.96909" lon="0.2853">
        <ele>1410.6</ele>
        <time>2021-05-29T08:07:56Z</time>
      </trkpt>
      <trkpt lat="42.96906" lon="0.28527">
        <ele>1410.4</ele>
        <time>2021-05-29T08:07:57Z</time>
      </trkpt>
      <trkpt lat="42.96902" lon="0.28523">
        <ele>1410.4</ele>
        <time>2021-05-29T08:07:58Z</time>
      </trkpt>
      <trkpt lat="42.96898" lon="0.2852">
        <ele>1410.4</ele>
        <time>2021-05-29T08:07:59Z</time>
      </trkpt>
      <trkpt lat="42.96887" lon="0.28509">
        <ele>1410.2</ele>
        <time>2021-05-29T08:08:02Z</time>
      </trkpt>
      <trkpt lat="42.96883" lon="0.28506">
        <ele>1410.2</ele>
        <time>2021-05-29T08:08:03Z</time>
      </trkpt>
      <trkpt lat="42.96876" lon="0.28497">
        <ele>1410.4</ele>
        <time>2021-05-29T08:08:05Z</time>
      </trkpt>
      <trkpt lat="42.96857" lon="0.28474">
        <ele>1410.4</ele>
        <time>2021-05-29T08:08:10Z</time>
      </trkpt>
      <trkpt lat="42.9684" lon="0.28448">
        <ele>1410.6</ele>
        <time>2021-05-29T08:08:15Z</time>
      </trkpt>
      <trkpt lat="42.96838" lon="0.28442">
        <ele>1410.6</ele>
        <time>2021-05-29T08:08:16Z</time>
      </trkpt>
      <trkpt lat="42.96837" lon="0.28436">
        <ele>1410.4</ele>
        <time>2021-05-29T08:08:17Z</time>
      </trkpt>
      <trkpt lat="42.96837" lon="0.2843">
        <ele>1410.4</ele>
        <time>2021-05-29T08:08:18Z</time>
      </trkpt>
      <trkpt lat="42.96837" lon="0.28424">
        <ele>1410.4</ele>
        <time>2021-05-29T08:08:19Z</time>
      </trkpt>
      <trkpt lat="42.96837" lon="0.28417">
        <ele>1410.2</ele>
        <time>2021-05-29T08:08:20Z</time>
      </trkpt>
      <trkpt lat="42.96841" lon="0.28404">
        <ele>1410.2</ele>
        <time>2021-05-29T08:08:22Z</time>
      </trkpt>
      <trkpt lat="42.96843" lon="0.28398">
        <ele>1410.2</ele>
        <time>2021-05-29T08:08:23Z</time>
      </trkpt>
      <trkpt lat="42.96844" lon="0.28391">
        <ele>1410.2</ele>
        <time>2021-05-29T08:08:24Z</time>
      </trkpt>
      <trkpt lat="42.96844" lon="0.28383">
        <ele>1410.2</ele>
        <time>2021-05-29T08:08:25Z</time>
      </trkpt>
      <trkpt lat="42.96842" lon="0.28377">
        <ele>1410.2</ele>
        <time>2021-05-29T08:08:26Z</time>
      </trkpt>
      <trkpt lat="42.96838" lon="0.28373">
        <ele>1410.2</ele>
        <time>2021-05-29T08:08:27Z</time>
      </trkpt>
      <trkpt lat="42.96834" lon="0.28371">
        <ele>1410</ele>
        <time>2021-05-29T08:08:28Z</time>
      </trkpt>
      <trkpt lat="42.96826" lon="0.28367">
        <ele>1410</ele>
        <time>2021-05-29T08:08:30Z</time>
      </trkpt>
      <trkpt lat="42.96822" lon="0.28364">
        <ele>1410</ele>
        <time>2021-05-29T08:08:31Z</time>
      </trkpt>
      <trkpt lat="42.96818" lon="0.28361">
        <ele>1410.4</ele>
        <time>2021-05-29T08:08:32Z</time>
      </trkpt>
      <trkpt lat="42.96814" lon="0.28357">
        <ele>1410.4</ele>
        <time>2021-05-29T08:08:33Z</time>
      </trkpt>
      <trkpt lat="42.96811" lon="0.28354">
        <ele>1410.4</ele>
        <time>2021-05-29T08:08:34Z</time>
      </trkpt>
      <trkpt lat="42.96807" lon="0.2835">
        <ele>1410.6</ele>
        <time>2021-05-29T08:08:35Z</time>
      </trkpt>
      <trkpt lat="42.96804" lon="0.28346">
        <ele>1410.6</ele>
        <time>2021-05-29T08:08:36Z</time>
      </trkpt>
      <trkpt lat="42.96798" lon="0.28336">
        <ele>1410.8</ele>
        <time>2021-05-29T08:08:38Z</time>
      </trkpt>
      <trkpt lat="42.96797" lon="0.2833">
        <ele>1411</ele>
        <time>2021-05-29T08:08:39Z</time>
      </trkpt>
      <trkpt lat="42.96795" lon="0.28324">
        <ele>1411.2</ele>
        <time>2021-05-29T08:08:40Z</time>
      </trkpt>
      <trkpt lat="42.96794" lon="0.28318">
        <ele>1411.4</ele>
        <time>2021-05-29T08:08:41Z</time>
      </trkpt>
      <trkpt lat="42.96794" lon="0.28312">
        <ele>1411.6</ele>
        <time>2021-05-29T08:08:42Z</time>
      </trkpt>
      <trkpt lat="42.96795" lon="0.28289">
        <ele>1412</ele>
        <time>2021-05-29T08:08:46Z</time>
      </trkpt>
      <trkpt lat="42.96797" lon="0.28277">
        <ele>1412.4</ele>
        <time>2021-05-29T08:08:48Z</time>
      </trkpt>
      <trkpt lat="42.96797" lon="0.28271">
        <ele>1412.8</ele>
        <time>2021-05-29T08:08:49Z</time>
      </trkpt>
      <trkpt lat="42.96801" lon="0.28252">
        <ele>1413.2</ele>
        <time>2021-05-29T08:08:52Z</time>
      </trkpt>
      <trkpt lat="42.96805" lon="0.28232">
        <ele>1413.2</ele>
        <time>2021-05-29T08:08:55Z</time>
      </trkpt>
      <trkpt lat="42.96806" lon="0.28225">
        <ele>1413.2</ele>
        <time>2021-05-29T08:08:56Z</time>
      </trkpt>
      <trkpt lat="42.96807" lon="0.28218">
        <ele>1413.2</ele>
        <time>2021-05-29T08:08:57Z</time>
      </trkpt>
      <trkpt lat="42.96807" lon="0.28212">
        <ele>1413.4</ele>
        <time>2021-05-29T08:08:58Z</time>
      </trkpt>
      <trkpt lat="42.96808" lon="0.28206">
        <ele>1413.4</ele>
        <time>2021-05-29T08:08:59Z</time>
      </trkpt>
      <trkpt lat="42.96807" lon="0.282">
        <ele>1413.6</ele>
        <time>2021-05-29T08:09:00Z</time>
      </trkpt>
      <trkpt lat="42.96807" lon="0.28195">
        <ele>1413.6</ele>
        <time>2021-05-29T08:09:01Z</time>
      </trkpt>
      <trkpt lat="42.96806" lon="0.28189">
        <ele>1413.8</ele>
        <time>2021-05-29T08:09:02Z</time>
      </trkpt>
      <trkpt lat="42.96805" lon="0.28184">
        <ele>1414</ele>
        <time>2021-05-29T08:09:03Z</time>
      </trkpt>
      <trkpt lat="42.96804" lon="0.2818">
        <ele>1414.4</ele>
        <time>2021-05-29T08:09:04Z</time>
      </trkpt>
      <trkpt lat="42.96803" lon="0.28175">
        <ele>1414.6</ele>
        <time>2021-05-29T08:09:05Z</time>
      </trkpt>
      <trkpt lat="42.96802" lon="0.2817">
        <ele>1414.8</ele>
        <time>2021-05-29T08:09:06Z</time>
      </trkpt>
      <trkpt lat="42.96801" lon="0.28165">
        <ele>1414.8</ele>
        <time>2021-05-29T08:09:07Z</time>
      </trkpt>
      <trkpt lat="42.968" lon="0.2816">
        <ele>1414.8</ele>
        <time>2021-05-29T08:09:08Z</time>
      </trkpt>
      <trkpt lat="42.96799" lon="0.28156">
        <ele>1415</ele>
        <time>2021-05-29T08:09:09Z</time>
      </trkpt>
      <trkpt lat="42.96797" lon="0.28151">
        <ele>1415.2</ele>
        <time>2021-05-29T08:09:10Z</time>
      </trkpt>
      <trkpt lat="42.96796" lon="0.28147">
        <ele>1415.6</ele>
        <time>2021-05-29T08:09:11Z</time>
      </trkpt>
      <trkpt lat="42.96795" lon="0.28142">
        <ele>1415.8</ele>
        <time>2021-05-29T08:09:12Z</time>
      </trkpt>
      <trkpt lat="42.96793" lon="0.28138">
        <ele>1416.2</ele>
        <time>2021-05-29T08:09:13Z</time>
      </trkpt>
      <trkpt lat="42.96792" lon="0.28134">
        <ele>1416.4</ele>
        <time>2021-05-29T08:09:14Z</time>
      </trkpt>
      <trkpt lat="42.96791" lon="0.28129">
        <ele>1416.6</ele>
        <time>2021-05-29T08:09:15Z</time>
      </trkpt>
      <trkpt lat="42.96789" lon="0.28125">
        <ele>1416.8</ele>
        <time>2021-05-29T08:09:16Z</time>
      </trkpt>
      <trkpt lat="42.96788" lon="0.28121">
        <ele>1417</ele>
        <time>2021-05-29T08:09:17Z</time>
      </trkpt>
      <trkpt lat="42.96786" lon="0.28116">
        <ele>1417</ele>
        <time>2021-05-29T08:09:18Z</time>
      </trkpt>
      <trkpt lat="42.96784" lon="0.28112">
        <ele>1417</ele>
        <time>2021-05-29T08:09:19Z</time>
      </trkpt>
      <trkpt lat="42.96782" lon="0.28107">
        <ele>1417</ele>
        <time>2021-05-29T08:09:20Z</time>
      </trkpt>
      <trkpt lat="42.9678" lon="0.28103">
        <ele>1417.2</ele>
        <time>2021-05-29T08:09:21Z</time>
      </trkpt>
      <trkpt lat="42.96778" lon="0.28098">
        <ele>1417.2</ele>
        <time>2021-05-29T08:09:22Z</time>
      </trkpt>
      <trkpt lat="42.96775" lon="0.28094">
        <ele>1417.4</ele>
        <time>2021-05-29T08:09:23Z</time>
      </trkpt>
      <trkpt lat="42.96773" lon="0.28089">
        <ele>1417.4</ele>
        <time>2021-05-29T08:09:24Z</time>
      </trkpt>
      <trkpt lat="42.96772" lon="0.28083">
        <ele>1417.6</ele>
        <time>2021-05-29T08:09:25Z</time>
      </trkpt>
      <trkpt lat="42.9677" lon="0.28077">
        <ele>1417.8</ele>
        <time>2021-05-29T08:09:26Z</time>
      </trkpt>
      <trkpt lat="42.96769" lon="0.2807">
        <ele>1417.8</ele>
        <time>2021-05-29T08:09:27Z</time>
      </trkpt>
      <trkpt lat="42.96768" lon="0.28063">
        <ele>1417.8</ele>
        <time>2021-05-29T08:09:28Z</time>
      </trkpt>
      <trkpt lat="42.96768" lon="0.28056">
        <ele>1417.8</ele>
        <time>2021-05-29T08:09:29Z</time>
      </trkpt>
      <trkpt lat="42.96769" lon="0.28049">
        <ele>1417.8</ele>
        <time>2021-05-29T08:09:30Z</time>
      </trkpt>
      <trkpt lat="42.96771" lon="0.28041">
        <ele>1417.8</ele>
        <time>2021-05-29T08:09:31Z</time>
      </trkpt>
      <trkpt lat="42.96773" lon="0.28034">
        <ele>1417.8</ele>
        <time>2021-05-29T08:09:32Z</time>
      </trkpt>
      <trkpt lat="42.96775" lon="0.28027">
        <ele>1417.8</ele>
        <time>2021-05-29T08:09:33Z</time>
      </trkpt>
      <trkpt lat="42.96778" lon="0.2802">
        <ele>1417.8</ele>
        <time>2021-05-29T08:09:34Z</time>
      </trkpt>
      <trkpt lat="42.96781" lon="0.28013">
        <ele>1417.8</ele>
        <time>2021-05-29T08:09:35Z</time>
      </trkpt>
      <trkpt lat="42.96784" lon="0.28005">
        <ele>1417.6</ele>
        <time>2021-05-29T08:09:36Z</time>
      </trkpt>
      <trkpt lat="42.96788" lon="0.27998">
        <ele>1417.6</ele>
        <time>2021-05-29T08:09:37Z</time>
      </trkpt>
      <trkpt lat="42.96796" lon="0.27982">
        <ele>1416.8</ele>
        <time>2021-05-29T08:09:39Z</time>
      </trkpt>
      <trkpt lat="42.96799" lon="0.27974">
        <ele>1416.4</ele>
        <time>2021-05-29T08:09:40Z</time>
      </trkpt>
      <trkpt lat="42.968" lon="0.27965">
        <ele>1416.2</ele>
        <time>2021-05-29T08:09:41Z</time>
      </trkpt>
      <trkpt lat="42.968" lon="0.27956">
        <ele>1416</ele>
        <time>2021-05-29T08:09:42Z</time>
      </trkpt>
      <trkpt lat="42.96798" lon="0.27948">
        <ele>1415.6</ele>
        <time>2021-05-29T08:09:43Z</time>
      </trkpt>
      <trkpt lat="42.96795" lon="0.27941">
        <ele>1415.4</ele>
        <time>2021-05-29T08:09:44Z</time>
      </trkpt>
      <trkpt lat="42.96791" lon="0.27933">
        <ele>1414.2</ele>
        <time>2021-05-29T08:09:45Z</time>
      </trkpt>
      <trkpt lat="42.96787" lon="0.27926">
        <ele>1413.4</ele>
        <time>2021-05-29T08:09:46Z</time>
      </trkpt>
      <trkpt lat="42.96784" lon="0.27917">
        <ele>1412.4</ele>
        <time>2021-05-29T08:09:47Z</time>
      </trkpt>
      <trkpt lat="42.96779" lon="0.27897">
        <ele>1411.4</ele>
        <time>2021-05-29T08:09:49Z</time>
      </trkpt>
      <trkpt lat="42.96774" lon="0.27875">
        <ele>1410.4</ele>
        <time>2021-05-29T08:09:51Z</time>
      </trkpt>
      <trkpt lat="42.96766" lon="0.27854">
        <ele>1409.8</ele>
        <time>2021-05-29T08:09:53Z</time>
      </trkpt>
      <trkpt lat="42.96761" lon="0.27845">
        <ele>1409.4</ele>
        <time>2021-05-29T08:09:54Z</time>
      </trkpt>
      <trkpt lat="42.96755" lon="0.27836">
        <ele>1408.8</ele>
        <time>2021-05-29T08:09:55Z</time>
      </trkpt>
      <trkpt lat="42.96748" lon="0.27829">
        <ele>1408.6</ele>
        <time>2021-05-29T08:09:56Z</time>
      </trkpt>
      <trkpt lat="42.96735" lon="0.27813">
        <ele>1407.8</ele>
        <time>2021-05-29T08:09:58Z</time>
      </trkpt>
      <trkpt lat="42.96729" lon="0.27803">
        <ele>1407.2</ele>
        <time>2021-05-29T08:09:59Z</time>
      </trkpt>
      <trkpt lat="42.96725" lon="0.27792">
        <ele>1406.6</ele>
        <time>2021-05-29T08:10:00Z</time>
      </trkpt>
      <trkpt lat="42.96721" lon="0.27782">
        <ele>1406.2</ele>
        <time>2021-05-29T08:10:01Z</time>
      </trkpt>
      <trkpt lat="42.9672" lon="0.2777">
        <ele>1405.4</ele>
        <time>2021-05-29T08:10:02Z</time>
      </trkpt>
      <trkpt lat="42.9672" lon="0.2776">
        <ele>1405.2</ele>
        <time>2021-05-29T08:10:03Z</time>
      </trkpt>
      <trkpt lat="42.96722" lon="0.27748">
        <ele>1404.4</ele>
        <time>2021-05-29T08:10:04Z</time>
      </trkpt>
      <trkpt lat="42.96724" lon="0.27738">
        <ele>1404</ele>
        <time>2021-05-29T08:10:05Z</time>
      </trkpt>
      <trkpt lat="42.96725" lon="0.27726">
        <ele>1403.4</ele>
        <time>2021-05-29T08:10:06Z</time>
      </trkpt>
      <trkpt lat="42.96727" lon="0.27715">
        <ele>1403</ele>
        <time>2021-05-29T08:10:07Z</time>
      </trkpt>
      <trkpt lat="42.96728" lon="0.27704">
        <ele>1402.4</ele>
        <time>2021-05-29T08:10:08Z</time>
      </trkpt>
      <trkpt lat="42.96731" lon="0.2768">
        <ele>1401.6</ele>
        <time>2021-05-29T08:10:10Z</time>
      </trkpt>
      <trkpt lat="42.96733" lon="0.27669">
        <ele>1401.2</ele>
        <time>2021-05-29T08:10:11Z</time>
      </trkpt>
      <trkpt lat="42.96734" lon="0.27658">
        <ele>1400.6</ele>
        <time>2021-05-29T08:10:12Z</time>
      </trkpt>
      <trkpt lat="42.96736" lon="0.27649">
        <ele>1400.2</ele>
        <time>2021-05-29T08:10:13Z</time>
      </trkpt>
      <trkpt lat="42.96738" lon="0.27641">
        <ele>1399.4</ele>
        <time>2021-05-29T08:10:14Z</time>
      </trkpt>
      <trkpt lat="42.96739" lon="0.27635">
        <ele>1399</ele>
        <time>2021-05-29T08:10:15Z</time>
      </trkpt>
      <trkpt lat="42.9674" lon="0.27631">
        <ele>1398.6</ele>
        <time>2021-05-29T08:10:16Z</time>
      </trkpt>
      <trkpt lat="42.96741" lon="0.27627">
        <ele>1398</ele>
        <time>2021-05-29T08:10:17Z</time>
      </trkpt>
      <trkpt lat="42.9674" lon="0.27623">
        <ele>1397.6</ele>
        <time>2021-05-29T08:10:18Z</time>
      </trkpt>
      <trkpt lat="42.96739" lon="0.2762">
        <ele>1396.4</ele>
        <time>2021-05-29T08:10:19Z</time>
      </trkpt>
      <trkpt lat="42.96738" lon="0.27618">
        <ele>1396</ele>
        <time>2021-05-29T08:10:20Z</time>
      </trkpt>
      <trkpt lat="42.96736" lon="0.27615">
        <ele>1395.2</ele>
        <time>2021-05-29T08:10:21Z</time>
      </trkpt>
      <trkpt lat="42.96735" lon="0.27612">
        <ele>1395</ele>
        <time>2021-05-29T08:10:22Z</time>
      </trkpt>
      <trkpt lat="42.96728" lon="0.27602">
        <ele>1394.2</ele>
        <time>2021-05-29T08:10:25Z</time>
      </trkpt>
      <trkpt lat="42.96719" lon="0.2759">
        <ele>1392.6</ele>
        <time>2021-05-29T08:10:28Z</time>
      </trkpt>
      <trkpt lat="42.96712" lon="0.27583">
        <ele>1391.4</ele>
        <time>2021-05-29T08:10:30Z</time>
      </trkpt>
      <trkpt lat="42.96709" lon="0.2758">
        <ele>1391.2</ele>
        <time>2021-05-29T08:10:31Z</time>
      </trkpt>
      <trkpt lat="42.96705" lon="0.27577">
        <ele>1391</ele>
        <time>2021-05-29T08:10:32Z</time>
      </trkpt>
      <trkpt lat="42.96702" lon="0.27574">
        <ele>1390.8</ele>
        <time>2021-05-29T08:10:33Z</time>
      </trkpt>
      <trkpt lat="42.96699" lon="0.27571">
        <ele>1390.4</ele>
        <time>2021-05-29T08:10:34Z</time>
      </trkpt>
      <trkpt lat="42.96696" lon="0.27569">
        <ele>1390.4</ele>
        <time>2021-05-29T08:10:35Z</time>
      </trkpt>
      <trkpt lat="42.96693" lon="0.27567">
        <ele>1390.4</ele>
        <time>2021-05-29T08:10:36Z</time>
      </trkpt>
      <trkpt lat="42.9669" lon="0.27565">
        <ele>1390.4</ele>
        <time>2021-05-29T08:10:37Z</time>
      </trkpt>
      <trkpt lat="42.96687" lon="0.27564">
        <ele>1390.4</ele>
        <time>2021-05-29T08:10:38Z</time>
      </trkpt>
      <trkpt lat="42.96685" lon="0.27563">
        <ele>1390.4</ele>
        <time>2021-05-29T08:10:39Z</time>
      </trkpt>
      <trkpt lat="42.96682" lon="0.27562">
        <ele>1390.6</ele>
        <time>2021-05-29T08:10:40Z</time>
      </trkpt>
      <trkpt lat="42.9668" lon="0.27562">
        <ele>1390.6</ele>
        <time>2021-05-29T08:10:41Z</time>
      </trkpt>
      <trkpt lat="42.96678" lon="0.27562">
        <ele>1390.8</ele>
        <time>2021-05-29T08:10:42Z</time>
      </trkpt>
      <trkpt lat="42.96676" lon="0.27562">
        <ele>1391</ele>
        <time>2021-05-29T08:10:43Z</time>
      </trkpt>
      <trkpt lat="42.96672" lon="0.27563">
        <ele>1391.2</ele>
        <time>2021-05-29T08:10:45Z</time>
      </trkpt>
      <trkpt lat="42.96669" lon="0.27564">
        <ele>1391.6</ele>
        <time>2021-05-29T08:10:47Z</time>
      </trkpt>
      <trkpt lat="42.96667" lon="0.27564">
        <ele>1391.6</ele>
        <time>2021-05-29T08:10:48Z</time>
      </trkpt>
      <trkpt lat="42.96665" lon="0.27565">
        <ele>1391.6</ele>
        <time>2021-05-29T08:10:49Z</time>
      </trkpt>
      <trkpt lat="42.96664" lon="0.27565">
        <ele>1391.6</ele>
        <time>2021-05-29T08:10:50Z</time>
      </trkpt>
      <trkpt lat="42.96663" lon="0.27566">
        <ele>1391.6</ele>
        <time>2021-05-29T08:10:51Z</time>
      </trkpt>
      <trkpt lat="42.96661" lon="0.27566">
        <ele>1391.6</ele>
        <time>2021-05-29T08:10:52Z</time>
      </trkpt>
      <trkpt lat="42.9666" lon="0.27566">
        <ele>1391.4</ele>
        <time>2021-05-29T08:10:53Z</time>
      </trkpt>
      <trkpt lat="42.96659" lon="0.27567">
        <ele>1391.2</ele>
        <time>2021-05-29T08:10:54Z</time>
      </trkpt>
      <trkpt lat="42.96657" lon="0.27568">
        <ele>1390.6</ele>
        <time>2021-05-29T08:10:55Z</time>
      </trkpt>
      <trkpt lat="42.96653" lon="0.2757">
        <ele>1390.4</ele>
        <time>2021-05-29T08:10:57Z</time>
      </trkpt>
      <trkpt lat="42.96648" lon="0.27572">
        <ele>1390.2</ele>
        <time>2021-05-29T08:10:59Z</time>
      </trkpt>
      <trkpt lat="42.96647" lon="0.27572">
        <ele>1390</ele>
        <time>2021-05-29T08:11:00Z</time>
      </trkpt>
      <trkpt lat="42.96645" lon="0.27572">
        <ele>1389.8</ele>
        <time>2021-05-29T08:11:01Z</time>
      </trkpt>
      <trkpt lat="42.96643" lon="0.27572">
        <ele>1390</ele>
        <time>2021-05-29T08:11:02Z</time>
      </trkpt>
      <trkpt lat="42.96642" lon="0.27573">
        <ele>1390</ele>
        <time>2021-05-29T08:11:03Z</time>
      </trkpt>
      <trkpt lat="42.96642" lon="0.27573">
        <ele>1390</ele>
        <time>2021-05-29T08:11:04Z</time>
      </trkpt>
      <trkpt lat="42.96641" lon="0.27574">
        <ele>1390.2</ele>
        <time>2021-05-29T08:11:05Z</time>
      </trkpt>
      <trkpt lat="42.96639" lon="0.27574">
        <ele>1390.2</ele>
        <time>2021-05-29T08:11:06Z</time>
      </trkpt>
      <trkpt lat="42.96637" lon="0.27575">
        <ele>1390.4</ele>
        <time>2021-05-29T08:11:07Z</time>
      </trkpt>
      <trkpt lat="42.96636" lon="0.27576">
        <ele>1390.6</ele>
        <time>2021-05-29T08:11:08Z</time>
      </trkpt>
      <trkpt lat="42.96634" lon="0.27577">
        <ele>1390.8</ele>
        <time>2021-05-29T08:11:09Z</time>
      </trkpt>
      <trkpt lat="42.96632" lon="0.27577">
        <ele>1391</ele>
        <time>2021-05-29T08:11:10Z</time>
      </trkpt>
      <trkpt lat="42.96631" lon="0.27578">
        <ele>1391</ele>
        <time>2021-05-29T08:11:11Z</time>
      </trkpt>
      <trkpt lat="42.96629" lon="0.27578">
        <ele>1391.2</ele>
        <time>2021-05-29T08:11:12Z</time>
      </trkpt>
      <trkpt lat="42.96628" lon="0.27578">
        <ele>1391.2</ele>
        <time>2021-05-29T08:11:13Z</time>
      </trkpt>
      <trkpt lat="42.96626" lon="0.27578">
        <ele>1391.2</ele>
        <time>2021-05-29T08:11:14Z</time>
      </trkpt>
      <trkpt lat="42.96622" lon="0.27579">
        <ele>1391.4</ele>
        <time>2021-05-29T08:11:16Z</time>
      </trkpt>
      <trkpt lat="42.96614" lon="0.27578">
        <ele>1391.4</ele>
        <time>2021-05-29T08:11:19Z</time>
      </trkpt>
      <trkpt lat="42.9661" lon="0.27577">
        <ele>1391.6</ele>
        <time>2021-05-29T08:11:20Z</time>
      </trkpt>
      <trkpt lat="42.96606" lon="0.27576">
        <ele>1391.6</ele>
        <time>2021-05-29T08:11:21Z</time>
      </trkpt>
      <trkpt lat="42.96601" lon="0.27574">
        <ele>1391.4</ele>
        <time>2021-05-29T08:11:22Z</time>
      </trkpt>
      <trkpt lat="42.96592" lon="0.27567">
        <ele>1391.2</ele>
        <time>2021-05-29T08:11:24Z</time>
      </trkpt>
      <trkpt lat="42.96588" lon="0.27563">
        <ele>1391</ele>
        <time>2021-05-29T08:11:25Z</time>
      </trkpt>
      <trkpt lat="42.96584" lon="0.27558">
        <ele>1390.8</ele>
        <time>2021-05-29T08:11:26Z</time>
      </trkpt>
      <trkpt lat="42.96581" lon="0.27554">
        <ele>1390.6</ele>
        <time>2021-05-29T08:11:27Z</time>
      </trkpt>
      <trkpt lat="42.96579" lon="0.2755">
        <ele>1390</ele>
        <time>2021-05-29T08:11:28Z</time>
      </trkpt>
      <trkpt lat="42.96576" lon="0.27545">
        <ele>1389.6</ele>
        <time>2021-05-29T08:11:29Z</time>
      </trkpt>
      <trkpt lat="42.96574" lon="0.27541">
        <ele>1389.2</ele>
        <time>2021-05-29T08:11:30Z</time>
      </trkpt>
      <trkpt lat="42.96572" lon="0.27537">
        <ele>1389</ele>
        <time>2021-05-29T08:11:31Z</time>
      </trkpt>
      <trkpt lat="42.96571" lon="0.27533">
        <ele>1389</ele>
        <time>2021-05-29T08:11:32Z</time>
      </trkpt>
      <trkpt lat="42.9657" lon="0.27529">
        <ele>1388.6</ele>
        <time>2021-05-29T08:11:33Z</time>
      </trkpt>
      <trkpt lat="42.9657" lon="0.27525">
        <ele>1388.4</ele>
        <time>2021-05-29T08:11:34Z</time>
      </trkpt>
      <trkpt lat="42.96568" lon="0.27523">
        <ele>1388</ele>
        <time>2021-05-29T08:11:35Z</time>
      </trkpt>
      <trkpt lat="42.96566" lon="0.2752">
        <ele>1387.8</ele>
        <time>2021-05-29T08:11:36Z</time>
      </trkpt>
      <trkpt lat="42.96564" lon="0.27519">
        <ele>1387.4</ele>
        <time>2021-05-29T08:11:37Z</time>
      </trkpt>
      <trkpt lat="42.96561" lon="0.27519">
        <ele>1387.2</ele>
        <time>2021-05-29T08:11:38Z</time>
      </trkpt>
      <trkpt lat="42.96559" lon="0.27518">
        <ele>1387.2</ele>
        <time>2021-05-29T08:11:39Z</time>
      </trkpt>
      <trkpt lat="42.96557" lon="0.27518">
        <ele>1387.2</ele>
        <time>2021-05-29T08:11:40Z</time>
      </trkpt>
      <trkpt lat="42.96555" lon="0.27518">
        <ele>1387.6</ele>
        <time>2021-05-29T08:11:41Z</time>
      </trkpt>
      <trkpt lat="42.96553" lon="0.27518">
        <ele>1387.6</ele>
        <time>2021-05-29T08:11:42Z</time>
      </trkpt>
      <trkpt lat="42.96551" lon="0.27518">
        <ele>1387.6</ele>
        <time>2021-05-29T08:11:43Z</time>
      </trkpt>
      <trkpt lat="42.96549" lon="0.27518">
        <ele>1387.8</ele>
        <time>2021-05-29T08:11:44Z</time>
      </trkpt>
      <trkpt lat="42.96548" lon="0.27516">
        <ele>1387.8</ele>
        <time>2021-05-29T08:11:45Z</time>
      </trkpt>
      <trkpt lat="42.96546" lon="0.27515">
        <ele>1388</ele>
        <time>2021-05-29T08:11:46Z</time>
      </trkpt>
      <trkpt lat="42.96544" lon="0.27514">
        <ele>1388</ele>
        <time>2021-05-29T08:11:47Z</time>
      </trkpt>
      <trkpt lat="42.96543" lon="0.27513">
        <ele>1388.2</ele>
        <time>2021-05-29T08:11:48Z</time>
      </trkpt>
      <trkpt lat="42.96541" lon="0.27511">
        <ele>1388.2</ele>
        <time>2021-05-29T08:11:49Z</time>
      </trkpt>
      <trkpt lat="42.96539" lon="0.27509">
        <ele>1388.4</ele>
        <time>2021-05-29T08:11:50Z</time>
      </trkpt>
      <trkpt lat="42.96537" lon="0.27507">
        <ele>1388.4</ele>
        <time>2021-05-29T08:11:51Z</time>
      </trkpt>
      <trkpt lat="42.96532" lon="0.275">
        <ele>1388.8</ele>
        <time>2021-05-29T08:11:54Z</time>
      </trkpt>
      <trkpt lat="42.9653" lon="0.27498">
        <ele>1388.8</ele>
        <time>2021-05-29T08:11:55Z</time>
      </trkpt>
      <trkpt lat="42.96529" lon="0.27496">
        <ele>1388.8</ele>
        <time>2021-05-29T08:11:56Z</time>
      </trkpt>
      <trkpt lat="42.96524" lon="0.27486">
        <ele>1389.6</ele>
        <time>2021-05-29T08:11:59Z</time>
      </trkpt>
      <trkpt lat="42.96522" lon="0.27483">
        <ele>1389.8</ele>
        <time>2021-05-29T08:12:00Z</time>
      </trkpt>
      <trkpt lat="42.96518" lon="0.2748">
        <ele>1389.8</ele>
        <time>2021-05-29T08:12:01Z</time>
      </trkpt>
      <trkpt lat="42.96515" lon="0.27474">
        <ele>1389.8</ele>
        <time>2021-05-29T08:12:03Z</time>
      </trkpt>
      <trkpt lat="42.96514" lon="0.27471">
        <ele>1389.8</ele>
        <time>2021-05-29T08:12:04Z</time>
      </trkpt>
      <trkpt lat="42.96512" lon="0.27466">
        <ele>1390</ele>
        <time>2021-05-29T08:12:05Z</time>
      </trkpt>
      <trkpt lat="42.96511" lon="0.27461">
        <ele>1390</ele>
        <time>2021-05-29T08:12:06Z</time>
      </trkpt>
      <trkpt lat="42.96508" lon="0.27458">
        <ele>1390</ele>
        <time>2021-05-29T08:12:07Z</time>
      </trkpt>
      <trkpt lat="42.96506" lon="0.27454">
        <ele>1390</ele>
        <time>2021-05-29T08:12:08Z</time>
      </trkpt>
      <trkpt lat="42.96496" lon="0.27441">
        <ele>1390</ele>
        <time>2021-05-29T08:12:12Z</time>
      </trkpt>
      <trkpt lat="42.96494" lon="0.27439">
        <ele>1390</ele>
        <time>2021-05-29T08:12:13Z</time>
      </trkpt>
      <trkpt lat="42.96491" lon="0.27437">
        <ele>1390</ele>
        <time>2021-05-29T08:12:14Z</time>
      </trkpt>
      <trkpt lat="42.96488" lon="0.27436">
        <ele>1389.8</ele>
        <time>2021-05-29T08:12:15Z</time>
      </trkpt>
      <trkpt lat="42.96486" lon="0.27435">
        <ele>1389.8</ele>
        <time>2021-05-29T08:12:16Z</time>
      </trkpt>
      <trkpt lat="42.96482" lon="0.27432">
        <ele>1389.8</ele>
        <time>2021-05-29T08:12:18Z</time>
      </trkpt>
      <trkpt lat="42.9648" lon="0.2743">
        <ele>1390</ele>
        <time>2021-05-29T08:12:19Z</time>
      </trkpt>
      <trkpt lat="42.96479" lon="0.27428">
        <ele>1390</ele>
        <time>2021-05-29T08:12:20Z</time>
      </trkpt>
      <trkpt lat="42.96477" lon="0.27426">
        <ele>1390.2</ele>
        <time>2021-05-29T08:12:21Z</time>
      </trkpt>
      <trkpt lat="42.96476" lon="0.27424">
        <ele>1390.2</ele>
        <time>2021-05-29T08:12:22Z</time>
      </trkpt>
      <trkpt lat="42.96475" lon="0.27423">
        <ele>1390.2</ele>
        <time>2021-05-29T08:12:23Z</time>
      </trkpt>
      <trkpt lat="42.96475" lon="0.27423">
        <ele>1390.2</ele>
        <time>2021-05-29T08:12:24Z</time>
      </trkpt>
      <trkpt lat="42.96477" lon="0.27422">
        <ele>1390.2</ele>
        <time>2021-05-29T08:12:25Z</time>
      </trkpt>
      <trkpt lat="42.96477" lon="0.27422">
        <ele>1390.2</ele>
        <time>2021-05-29T08:12:26Z</time>
      </trkpt>
      <trkpt lat="42.96477" lon="0.27422">
        <ele>1390.2</ele>
        <time>2021-05-29T08:12:29Z</time>
      </trkpt>
      <trkpt lat="42.96477" lon="0.27422">
        <ele>1390</ele>
        <time>2021-05-29T08:12:32Z</time>
      </trkpt>
      <trkpt lat="42.96477" lon="0.27421">
        <ele>1390</ele>
        <time>2021-05-29T08:12:38Z</time>
      </trkpt>
      <trkpt lat="42.96476" lon="0.27421">
        <ele>1390.2</ele>
        <time>2021-05-29T08:12:46Z</time>
      </trkpt>
      <trkpt lat="42.96476" lon="0.27421">
        <ele>1390.2</ele>
        <time>2021-05-29T08:12:51Z</time>
      </trkpt>
      <trkpt lat="42.96475" lon="0.2742">
        <ele>1390.2</ele>
        <time>2021-05-29T08:12:53Z</time>
      </trkpt>
      <trkpt lat="42.96471" lon="0.27419">
        <ele>1390.4</ele>
        <time>2021-05-29T08:12:55Z</time>
      </trkpt>
      <trkpt lat="42.96469" lon="0.27417">
        <ele>1390.4</ele>
        <time>2021-05-29T08:12:56Z</time>
      </trkpt>
      <trkpt lat="42.96466" lon="0.27415">
        <ele>1390.4</ele>
        <time>2021-05-29T08:12:57Z</time>
      </trkpt>
      <trkpt lat="42.9646" lon="0.27409">
        <ele>1390.6</ele>
        <time>2021-05-29T08:12:59Z</time>
      </trkpt>
      <trkpt lat="42.96458" lon="0.27408">
        <ele>1390.8</ele>
        <time>2021-05-29T08:13:00Z</time>
      </trkpt>
      <trkpt lat="42.96456" lon="0.27407">
        <ele>1390.8</ele>
        <time>2021-05-29T08:13:01Z</time>
      </trkpt>
      <trkpt lat="42.96454" lon="0.27405">
        <ele>1391</ele>
        <time>2021-05-29T08:13:02Z</time>
      </trkpt>
      <trkpt lat="42.9645" lon="0.27401">
        <ele>1391.2</ele>
        <time>2021-05-29T08:13:04Z</time>
      </trkpt>
      <trkpt lat="42.96449" lon="0.27399">
        <ele>1391.2</ele>
        <time>2021-05-29T08:13:05Z</time>
      </trkpt>
      <trkpt lat="42.96446" lon="0.27399">
        <ele>1391.4</ele>
        <time>2021-05-29T08:13:06Z</time>
      </trkpt>
      <trkpt lat="42.96445" lon="0.27398">
        <ele>1391.4</ele>
        <time>2021-05-29T08:13:07Z</time>
      </trkpt>
      <trkpt lat="42.96439" lon="0.27393">
        <ele>1391.8</ele>
        <time>2021-05-29T08:13:10Z</time>
      </trkpt>
      <trkpt lat="42.96437" lon="0.2739">
        <ele>1392</ele>
        <time>2021-05-29T08:13:11Z</time>
      </trkpt>
      <trkpt lat="42.96434" lon="0.27388">
        <ele>1392</ele>
        <time>2021-05-29T08:13:12Z</time>
      </trkpt>
      <trkpt lat="42.9643" lon="0.27385">
        <ele>1392.6</ele>
        <time>2021-05-29T08:13:14Z</time>
      </trkpt>
      <trkpt lat="42.96428" lon="0.27383">
        <ele>1392.6</ele>
        <time>2021-05-29T08:13:15Z</time>
      </trkpt>
      <trkpt lat="42.96423" lon="0.27379">
        <ele>1392.8</ele>
        <time>2021-05-29T08:13:18Z</time>
      </trkpt>
      <trkpt lat="42.96422" lon="0.27378">
        <ele>1393</ele>
        <time>2021-05-29T08:13:19Z</time>
      </trkpt>
      <trkpt lat="42.9642" lon="0.27377">
        <ele>1393</ele>
        <time>2021-05-29T08:13:20Z</time>
      </trkpt>
      <trkpt lat="42.96414" lon="0.27375">
        <ele>1393.4</ele>
        <time>2021-05-29T08:13:22Z</time>
      </trkpt>
      <trkpt lat="42.96413" lon="0.27373">
        <ele>1393.6</ele>
        <time>2021-05-29T08:13:23Z</time>
      </trkpt>
      <trkpt lat="42.96411" lon="0.27372">
        <ele>1393.8</ele>
        <time>2021-05-29T08:13:24Z</time>
      </trkpt>
      <trkpt lat="42.96408" lon="0.27371">
        <ele>1393.8</ele>
        <time>2021-05-29T08:13:25Z</time>
      </trkpt>
      <trkpt lat="42.96406" lon="0.27369">
        <ele>1393.8</ele>
        <time>2021-05-29T08:13:26Z</time>
      </trkpt>
      <trkpt lat="42.96405" lon="0.27367">
        <ele>1394.2</ele>
        <time>2021-05-29T08:13:27Z</time>
      </trkpt>
      <trkpt lat="42.96403" lon="0.27367">
        <ele>1394.2</ele>
        <time>2021-05-29T08:13:28Z</time>
      </trkpt>
      <trkpt lat="42.96401" lon="0.27367">
        <ele>1394.6</ele>
        <time>2021-05-29T08:13:29Z</time>
      </trkpt>
      <trkpt lat="42.96399" lon="0.27367">
        <ele>1394.8</ele>
        <time>2021-05-29T08:13:30Z</time>
      </trkpt>
      <trkpt lat="42.96397" lon="0.27367">
        <ele>1395</ele>
        <time>2021-05-29T08:13:31Z</time>
      </trkpt>
      <trkpt lat="42.96395" lon="0.27367">
        <ele>1395</ele>
        <time>2021-05-29T08:13:32Z</time>
      </trkpt>
      <trkpt lat="42.96393" lon="0.27366">
        <ele>1395.2</ele>
        <time>2021-05-29T08:13:33Z</time>
      </trkpt>
      <trkpt lat="42.96391" lon="0.27366">
        <ele>1395.4</ele>
        <time>2021-05-29T08:13:34Z</time>
      </trkpt>
      <trkpt lat="42.9639" lon="0.27366">
        <ele>1395.6</ele>
        <time>2021-05-29T08:13:35Z</time>
      </trkpt>
      <trkpt lat="42.96389" lon="0.27365">
        <ele>1395.8</ele>
        <time>2021-05-29T08:13:36Z</time>
      </trkpt>
      <trkpt lat="42.96387" lon="0.27364">
        <ele>1395.8</ele>
        <time>2021-05-29T08:13:37Z</time>
      </trkpt>
      <trkpt lat="42.96387" lon="0.27364">
        <ele>1396</ele>
        <time>2021-05-29T08:13:38Z</time>
      </trkpt>
      <trkpt lat="42.96387" lon="0.27364">
        <ele>1396</ele>
        <time>2021-05-29T08:13:39Z</time>
      </trkpt>
      <trkpt lat="42.96386" lon="0.27364">
        <ele>1396.2</ele>
        <time>2021-05-29T08:13:40Z</time>
      </trkpt>
      <trkpt lat="42.96385" lon="0.27363">
        <ele>1396.2</ele>
        <time>2021-05-29T08:13:41Z</time>
      </trkpt>
      <trkpt lat="42.96384" lon="0.27363">
        <ele>1396.2</ele>
        <time>2021-05-29T08:13:42Z</time>
      </trkpt>
      <trkpt lat="42.96383" lon="0.27362">
        <ele>1396.4</ele>
        <time>2021-05-29T08:13:43Z</time>
      </trkpt>
      <trkpt lat="42.96382" lon="0.27362">
        <ele>1396.4</ele>
        <time>2021-05-29T08:13:44Z</time>
      </trkpt>
      <trkpt lat="42.96381" lon="0.27362">
        <ele>1396.4</ele>
        <time>2021-05-29T08:13:45Z</time>
      </trkpt>
      <trkpt lat="42.9638" lon="0.27361">
        <ele>1396.4</ele>
        <time>2021-05-29T08:13:46Z</time>
      </trkpt>
      <trkpt lat="42.96378" lon="0.27361">
        <ele>1396.4</ele>
        <time>2021-05-29T08:13:47Z</time>
      </trkpt>
      <trkpt lat="42.96377" lon="0.27361">
        <ele>1396.4</ele>
        <time>2021-05-29T08:13:48Z</time>
      </trkpt>
      <trkpt lat="42.96376" lon="0.2736">
        <ele>1396.2</ele>
        <time>2021-05-29T08:13:49Z</time>
      </trkpt>
      <trkpt lat="42.96374" lon="0.27358">
        <ele>1395.8</ele>
        <time>2021-05-29T08:13:50Z</time>
      </trkpt>
      <trkpt lat="42.96371" lon="0.27358">
        <ele>1395.8</ele>
        <time>2021-05-29T08:13:51Z</time>
      </trkpt>
      <trkpt lat="42.96369" lon="0.27358">
        <ele>1395.4</ele>
        <time>2021-05-29T08:13:52Z</time>
      </trkpt>
      <trkpt lat="42.96367" lon="0.27358">
        <ele>1395</ele>
        <time>2021-05-29T08:13:53Z</time>
      </trkpt>
      <trkpt lat="42.96364" lon="0.27359">
        <ele>1394.8</ele>
        <time>2021-05-29T08:13:54Z</time>
      </trkpt>
      <trkpt lat="42.9636" lon="0.2736">
        <ele>1394.6</ele>
        <time>2021-05-29T08:13:55Z</time>
      </trkpt>
      <trkpt lat="42.96348" lon="0.2736">
        <ele>1393.4</ele>
        <time>2021-05-29T08:13:58Z</time>
      </trkpt>
      <trkpt lat="42.96343" lon="0.27358">
        <ele>1393</ele>
        <time>2021-05-29T08:13:59Z</time>
      </trkpt>
      <trkpt lat="42.96339" lon="0.27355">
        <ele>1392.6</ele>
        <time>2021-05-29T08:14:00Z</time>
      </trkpt>
      <trkpt lat="42.96336" lon="0.27351">
        <ele>1392.2</ele>
        <time>2021-05-29T08:14:01Z</time>
      </trkpt>
      <trkpt lat="42.96332" lon="0.27346">
        <ele>1391.8</ele>
        <time>2021-05-29T08:14:02Z</time>
      </trkpt>
      <trkpt lat="42.96329" lon="0.27341">
        <ele>1391.2</ele>
        <time>2021-05-29T08:14:03Z</time>
      </trkpt>
      <trkpt lat="42.96324" lon="0.27335">
        <ele>1391.2</ele>
        <time>2021-05-29T08:14:04Z</time>
      </trkpt>
      <trkpt lat="42.96314" lon="0.27315">
        <ele>1390</ele>
        <time>2021-05-29T08:14:07Z</time>
      </trkpt>
      <trkpt lat="42.96311" lon="0.2731">
        <ele>1389.8</ele>
        <time>2021-05-29T08:14:08Z</time>
      </trkpt>
      <trkpt lat="42.96307" lon="0.27305">
        <ele>1389</ele>
        <time>2021-05-29T08:14:09Z</time>
      </trkpt>
      <trkpt lat="42.96304" lon="0.273">
        <ele>1388.8</ele>
        <time>2021-05-29T08:14:10Z</time>
      </trkpt>
      <trkpt lat="42.96301" lon="0.27296">
        <ele>1388.4</ele>
        <time>2021-05-29T08:14:11Z</time>
      </trkpt>
      <trkpt lat="42.96296" lon="0.27292">
        <ele>1387.6</ele>
        <time>2021-05-29T08:14:12Z</time>
      </trkpt>
      <trkpt lat="42.96293" lon="0.27289">
        <ele>1387.2</ele>
        <time>2021-05-29T08:14:13Z</time>
      </trkpt>
      <trkpt lat="42.9629" lon="0.27286">
        <ele>1386.8</ele>
        <time>2021-05-29T08:14:14Z</time>
      </trkpt>
      <trkpt lat="42.96287" lon="0.27283">
        <ele>1386.4</ele>
        <time>2021-05-29T08:14:15Z</time>
      </trkpt>
      <trkpt lat="42.96284" lon="0.27281">
        <ele>1386.2</ele>
        <time>2021-05-29T08:14:16Z</time>
      </trkpt>
      <trkpt lat="42.96281" lon="0.27279">
        <ele>1386</ele>
        <time>2021-05-29T08:14:17Z</time>
      </trkpt>
      <trkpt lat="42.96278" lon="0.27278">
        <ele>1385.8</ele>
        <time>2021-05-29T08:14:18Z</time>
      </trkpt>
      <trkpt lat="42.96275" lon="0.27277">
        <ele>1385.6</ele>
        <time>2021-05-29T08:14:19Z</time>
      </trkpt>
      <trkpt lat="42.96273" lon="0.27276">
        <ele>1385</ele>
        <time>2021-05-29T08:14:20Z</time>
      </trkpt>
      <trkpt lat="42.96266" lon="0.27275">
        <ele>1384</ele>
        <time>2021-05-29T08:14:22Z</time>
      </trkpt>
      <trkpt lat="42.96262" lon="0.27275">
        <ele>1383.6</ele>
        <time>2021-05-29T08:14:23Z</time>
      </trkpt>
      <trkpt lat="42.96255" lon="0.27273">
        <ele>1382.4</ele>
        <time>2021-05-29T08:14:25Z</time>
      </trkpt>
      <trkpt lat="42.96252" lon="0.27271">
        <ele>1381.4</ele>
        <time>2021-05-29T08:14:26Z</time>
      </trkpt>
      <trkpt lat="42.9625" lon="0.2727">
        <ele>1381</ele>
        <time>2021-05-29T08:14:27Z</time>
      </trkpt>
      <trkpt lat="42.96247" lon="0.27268">
        <ele>1380</ele>
        <time>2021-05-29T08:14:28Z</time>
      </trkpt>
      <trkpt lat="42.96243" lon="0.27267">
        <ele>1378.2</ele>
        <time>2021-05-29T08:14:29Z</time>
      </trkpt>
      <trkpt lat="42.96239" lon="0.27265">
        <ele>1377.8</ele>
        <time>2021-05-29T08:14:30Z</time>
      </trkpt>
      <trkpt lat="42.96235" lon="0.27263">
        <ele>1376.8</ele>
        <time>2021-05-29T08:14:31Z</time>
      </trkpt>
      <trkpt lat="42.9623" lon="0.2726">
        <ele>1376.4</ele>
        <time>2021-05-29T08:14:32Z</time>
      </trkpt>
      <trkpt lat="42.96226" lon="0.27257">
        <ele>1375.2</ele>
        <time>2021-05-29T08:14:33Z</time>
      </trkpt>
      <trkpt lat="42.96222" lon="0.27255">
        <ele>1374.2</ele>
        <time>2021-05-29T08:14:34Z</time>
      </trkpt>
      <trkpt lat="42.96219" lon="0.27252">
        <ele>1373</ele>
        <time>2021-05-29T08:14:35Z</time>
      </trkpt>
      <trkpt lat="42.96216" lon="0.2725">
        <ele>1372.6</ele>
        <time>2021-05-29T08:14:36Z</time>
      </trkpt>
      <trkpt lat="42.96213" lon="0.27248">
        <ele>1371.6</ele>
        <time>2021-05-29T08:14:37Z</time>
      </trkpt>
      <trkpt lat="42.96206" lon="0.27244">
        <ele>1369.6</ele>
        <time>2021-05-29T08:14:39Z</time>
      </trkpt>
      <trkpt lat="42.96203" lon="0.27242">
        <ele>1368.6</ele>
        <time>2021-05-29T08:14:40Z</time>
      </trkpt>
      <trkpt lat="42.96198" lon="0.2724">
        <ele>1367.6</ele>
        <time>2021-05-29T08:14:41Z</time>
      </trkpt>
      <trkpt lat="42.96188" lon="0.27238">
        <ele>1365.8</ele>
        <time>2021-05-29T08:14:43Z</time>
      </trkpt>
      <trkpt lat="42.96184" lon="0.27237">
        <ele>1365.4</ele>
        <time>2021-05-29T08:14:44Z</time>
      </trkpt>
      <trkpt lat="42.96178" lon="0.27237">
        <ele>1364.2</ele>
        <time>2021-05-29T08:14:45Z</time>
      </trkpt>
      <trkpt lat="42.96174" lon="0.27236">
        <ele>1362.8</ele>
        <time>2021-05-29T08:14:46Z</time>
      </trkpt>
      <trkpt lat="42.9617" lon="0.27237">
        <ele>1362.2</ele>
        <time>2021-05-29T08:14:47Z</time>
      </trkpt>
      <trkpt lat="42.96165" lon="0.27238">
        <ele>1359.6</ele>
        <time>2021-05-29T08:14:48Z</time>
      </trkpt>
      <trkpt lat="42.96153" lon="0.2724">
        <ele>1358</ele>
        <time>2021-05-29T08:14:50Z</time>
      </trkpt>
      <trkpt lat="42.96148" lon="0.27243">
        <ele>1357.6</ele>
        <time>2021-05-29T08:14:51Z</time>
      </trkpt>
      <trkpt lat="42.96144" lon="0.27246">
        <ele>1356.8</ele>
        <time>2021-05-29T08:14:52Z</time>
      </trkpt>
      <trkpt lat="42.9614" lon="0.27249">
        <ele>1356.4</ele>
        <time>2021-05-29T08:14:53Z</time>
      </trkpt>
      <trkpt lat="42.96136" lon="0.27252">
        <ele>1355.2</ele>
        <time>2021-05-29T08:14:54Z</time>
      </trkpt>
      <trkpt lat="42.96133" lon="0.27255">
        <ele>1354.6</ele>
        <time>2021-05-29T08:14:55Z</time>
      </trkpt>
      <trkpt lat="42.96129" lon="0.27257">
        <ele>1353.4</ele>
        <time>2021-05-29T08:14:56Z</time>
      </trkpt>
      <trkpt lat="42.96122" lon="0.2726">
        <ele>1352.6</ele>
        <time>2021-05-29T08:14:58Z</time>
      </trkpt>
      <trkpt lat="42.96118" lon="0.2726">
        <ele>1352.4</ele>
        <time>2021-05-29T08:14:59Z</time>
      </trkpt>
      <trkpt lat="42.96114" lon="0.27261">
        <ele>1352.2</ele>
        <time>2021-05-29T08:15:00Z</time>
      </trkpt>
      <trkpt lat="42.96107" lon="0.27261">
        <ele>1351.6</ele>
        <time>2021-05-29T08:15:02Z</time>
      </trkpt>
      <trkpt lat="42.96103" lon="0.27262">
        <ele>1351.4</ele>
        <time>2021-05-29T08:15:03Z</time>
      </trkpt>
      <trkpt lat="42.961" lon="0.27264">
        <ele>1351.2</ele>
        <time>2021-05-29T08:15:04Z</time>
      </trkpt>
      <trkpt lat="42.96097" lon="0.27266">
        <ele>1350.8</ele>
        <time>2021-05-29T08:15:05Z</time>
      </trkpt>
      <trkpt lat="42.96094" lon="0.27266">
        <ele>1350.8</ele>
        <time>2021-05-29T08:15:06Z</time>
      </trkpt>
      <trkpt lat="42.96088" lon="0.27267">
        <ele>1350.6</ele>
        <time>2021-05-29T08:15:08Z</time>
      </trkpt>
      <trkpt lat="42.96073" lon="0.27269">
        <ele>1350.2</ele>
        <time>2021-05-29T08:15:12Z</time>
      </trkpt>
      <trkpt lat="42.9607" lon="0.27268">
        <ele>1349.8</ele>
        <time>2021-05-29T08:15:13Z</time>
      </trkpt>
      <trkpt lat="42.96066" lon="0.27267">
        <ele>1349.6</ele>
        <time>2021-05-29T08:15:14Z</time>
      </trkpt>
      <trkpt lat="42.9605" lon="0.27262">
        <ele>1348.6</ele>
        <time>2021-05-29T08:15:17Z</time>
      </trkpt>
      <trkpt lat="42.96045" lon="0.2726">
        <ele>1348.2</ele>
        <time>2021-05-29T08:15:18Z</time>
      </trkpt>
      <trkpt lat="42.96034" lon="0.27256">
        <ele>1347.4</ele>
        <time>2021-05-29T08:15:20Z</time>
      </trkpt>
      <trkpt lat="42.96029" lon="0.27254">
        <ele>1346.8</ele>
        <time>2021-05-29T08:15:21Z</time>
      </trkpt>
      <trkpt lat="42.96024" lon="0.27252">
        <ele>1346.4</ele>
        <time>2021-05-29T08:15:22Z</time>
      </trkpt>
      <trkpt lat="42.9602" lon="0.27249">
        <ele>1346</ele>
        <time>2021-05-29T08:15:23Z</time>
      </trkpt>
      <trkpt lat="42.96006" lon="0.27243">
        <ele>1345.4</ele>
        <time>2021-05-29T08:15:26Z</time>
      </trkpt>
      <trkpt lat="42.96" lon="0.27242">
        <ele>1345.2</ele>
        <time>2021-05-29T08:15:27Z</time>
      </trkpt>
      <trkpt lat="42.95995" lon="0.27239">
        <ele>1344.6</ele>
        <time>2021-05-29T08:15:28Z</time>
      </trkpt>
      <trkpt lat="42.95983" lon="0.27234">
        <ele>1344.2</ele>
        <time>2021-05-29T08:15:30Z</time>
      </trkpt>
      <trkpt lat="42.95977" lon="0.27231">
        <ele>1344.2</ele>
        <time>2021-05-29T08:15:31Z</time>
      </trkpt>
      <trkpt lat="42.95972" lon="0.27227">
        <ele>1343.8</ele>
        <time>2021-05-29T08:15:32Z</time>
      </trkpt>
      <trkpt lat="42.95969" lon="0.27223">
        <ele>1343.8</ele>
        <time>2021-05-29T08:15:33Z</time>
      </trkpt>
      <trkpt lat="42.95967" lon="0.27218">
        <ele>1343</ele>
        <time>2021-05-29T08:15:34Z</time>
      </trkpt>
      <trkpt lat="42.95966" lon="0.27213">
        <ele>1342.6</ele>
        <time>2021-05-29T08:15:35Z</time>
      </trkpt>
      <trkpt lat="42.95965" lon="0.27207">
        <ele>1342</ele>
        <time>2021-05-29T08:15:36Z</time>
      </trkpt>
      <trkpt lat="42.95965" lon="0.272">
        <ele>1341.8</ele>
        <time>2021-05-29T08:15:37Z</time>
      </trkpt>
      <trkpt lat="42.95965" lon="0.27193">
        <ele>1341.2</ele>
        <time>2021-05-29T08:15:38Z</time>
      </trkpt>
      <trkpt lat="42.95964" lon="0.27186">
        <ele>1341</ele>
        <time>2021-05-29T08:15:39Z</time>
      </trkpt>
      <trkpt lat="42.95966" lon="0.27179">
        <ele>1340.4</ele>
        <time>2021-05-29T08:15:40Z</time>
      </trkpt>
      <trkpt lat="42.95968" lon="0.27174">
        <ele>1339.8</ele>
        <time>2021-05-29T08:15:41Z</time>
      </trkpt>
      <trkpt lat="42.95971" lon="0.27169">
        <ele>1339.4</ele>
        <time>2021-05-29T08:15:42Z</time>
      </trkpt>
      <trkpt lat="42.95974" lon="0.27165">
        <ele>1338.8</ele>
        <time>2021-05-29T08:15:43Z</time>
      </trkpt>
      <trkpt lat="42.95977" lon="0.27162">
        <ele>1338.6</ele>
        <time>2021-05-29T08:15:44Z</time>
      </trkpt>
      <trkpt lat="42.95981" lon="0.27158">
        <ele>1337.4</ele>
        <time>2021-05-29T08:15:45Z</time>
      </trkpt>
      <trkpt lat="42.95984" lon="0.27154">
        <ele>1336.8</ele>
        <time>2021-05-29T08:15:46Z</time>
      </trkpt>
      <trkpt lat="42.95986" lon="0.2715">
        <ele>1335.8</ele>
        <time>2021-05-29T08:15:47Z</time>
      </trkpt>
      <trkpt lat="42.95989" lon="0.27146">
        <ele>1335.6</ele>
        <time>2021-05-29T08:15:48Z</time>
      </trkpt>
      <trkpt lat="42.95992" lon="0.27141">
        <ele>1334.8</ele>
        <time>2021-05-29T08:15:49Z</time>
      </trkpt>
      <trkpt lat="42.96002" lon="0.27127">
        <ele>1333</ele>
        <time>2021-05-29T08:15:52Z</time>
      </trkpt>
      <trkpt lat="42.96006" lon="0.27123">
        <ele>1332</ele>
        <time>2021-05-29T08:15:53Z</time>
      </trkpt>
      <trkpt lat="42.96009" lon="0.27122">
        <ele>1331.4</ele>
        <time>2021-05-29T08:15:54Z</time>
      </trkpt>
      <trkpt lat="42.96012" lon="0.27121">
        <ele>1330</ele>
        <time>2021-05-29T08:15:55Z</time>
      </trkpt>
      <trkpt lat="42.96015" lon="0.2712">
        <ele>1329.4</ele>
        <time>2021-05-29T08:15:56Z</time>
      </trkpt>
      <trkpt lat="42.96018" lon="0.2712">
        <ele>1328.6</ele>
        <time>2021-05-29T08:15:57Z</time>
      </trkpt>
      <trkpt lat="42.96021" lon="0.27119">
        <ele>1328</ele>
        <time>2021-05-29T08:15:58Z</time>
      </trkpt>
      <trkpt lat="42.96023" lon="0.27119">
        <ele>1327</ele>
        <time>2021-05-29T08:15:59Z</time>
      </trkpt>
      <trkpt lat="42.96025" lon="0.27119">
        <ele>1326.4</ele>
        <time>2021-05-29T08:16:00Z</time>
      </trkpt>
      <trkpt lat="42.96026" lon="0.2712">
        <ele>1326</ele>
        <time>2021-05-29T08:16:01Z</time>
      </trkpt>
      <trkpt lat="42.96027" lon="0.2712">
        <ele>1325.6</ele>
        <time>2021-05-29T08:16:02Z</time>
      </trkpt>
      <trkpt lat="42.96029" lon="0.27121">
        <ele>1325.4</ele>
        <time>2021-05-29T08:16:03Z</time>
      </trkpt>
      <trkpt lat="42.96029" lon="0.27121">
        <ele>1324.8</ele>
        <time>2021-05-29T08:16:04Z</time>
      </trkpt>
      <trkpt lat="42.96029" lon="0.27121">
        <ele>1324.4</ele>
        <time>2021-05-29T08:16:05Z</time>
      </trkpt>
      <trkpt lat="42.96029" lon="0.2712">
        <ele>1324</ele>
        <time>2021-05-29T08:16:07Z</time>
      </trkpt>
      <trkpt lat="42.96029" lon="0.2712">
        <ele>1323.2</ele>
        <time>2021-05-29T08:16:08Z</time>
      </trkpt>
      <trkpt lat="42.96029" lon="0.2712">
        <ele>1322.6</ele>
        <time>2021-05-29T08:16:13Z</time>
      </trkpt>
      <trkpt lat="42.9603" lon="0.2712">
        <ele>1322.2</ele>
        <time>2021-05-29T08:16:16Z</time>
      </trkpt>
      <trkpt lat="42.96033" lon="0.2712">
        <ele>1322</ele>
        <time>2021-05-29T08:16:19Z</time>
      </trkpt>
      <trkpt lat="42.96047" lon="0.27117">
        <ele>1321.6</ele>
        <time>2021-05-29T08:16:24Z</time>
      </trkpt>
      <trkpt lat="42.9605" lon="0.27117">
        <ele>1321.2</ele>
        <time>2021-05-29T08:16:25Z</time>
      </trkpt>
      <trkpt lat="42.96062" lon="0.27112">
        <ele>1320</ele>
        <time>2021-05-29T08:16:29Z</time>
      </trkpt>
      <trkpt lat="42.96067" lon="0.2711">
        <ele>1319.2</ele>
        <time>2021-05-29T08:16:31Z</time>
      </trkpt>
      <trkpt lat="42.9607" lon="0.27108">
        <ele>1319</ele>
        <time>2021-05-29T08:16:32Z</time>
      </trkpt>
      <trkpt lat="42.96078" lon="0.27102">
        <ele>1317.6</ele>
        <time>2021-05-29T08:16:35Z</time>
      </trkpt>
      <trkpt lat="42.96081" lon="0.27099">
        <ele>1317</ele>
        <time>2021-05-29T08:16:36Z</time>
      </trkpt>
      <trkpt lat="42.96088" lon="0.27094">
        <ele>1315.8</ele>
        <time>2021-05-29T08:16:38Z</time>
      </trkpt>
      <trkpt lat="42.96091" lon="0.27092">
        <ele>1315.4</ele>
        <time>2021-05-29T08:16:39Z</time>
      </trkpt>
      <trkpt lat="42.96093" lon="0.2709">
        <ele>1314.6</ele>
        <time>2021-05-29T08:16:40Z</time>
      </trkpt>
      <trkpt lat="42.96095" lon="0.27088">
        <ele>1314.2</ele>
        <time>2021-05-29T08:16:41Z</time>
      </trkpt>
      <trkpt lat="42.96096" lon="0.27087">
        <ele>1313.2</ele>
        <time>2021-05-29T08:16:42Z</time>
      </trkpt>
      <trkpt lat="42.96098" lon="0.27084">
        <ele>1312.8</ele>
        <time>2021-05-29T08:16:43Z</time>
      </trkpt>
      <trkpt lat="42.96099" lon="0.27084">
        <ele>1311.4</ele>
        <time>2021-05-29T08:16:44Z</time>
      </trkpt>
      <trkpt lat="42.96099" lon="0.27084">
        <ele>1310.8</ele>
        <time>2021-05-29T08:16:45Z</time>
      </trkpt>
      <trkpt lat="42.96099" lon="0.27084">
        <ele>1309.6</ele>
        <time>2021-05-29T08:16:46Z</time>
      </trkpt>
      <trkpt lat="42.961" lon="0.27083">
        <ele>1309.2</ele>
        <time>2021-05-29T08:16:47Z</time>
      </trkpt>
      <trkpt lat="42.96103" lon="0.27081">
        <ele>1308.6</ele>
        <time>2021-05-29T08:16:48Z</time>
      </trkpt>
      <trkpt lat="42.96103" lon="0.2708">
        <ele>1308.4</ele>
        <time>2021-05-29T08:16:49Z</time>
      </trkpt>
      <trkpt lat="42.96103" lon="0.2708">
        <ele>1307.8</ele>
        <time>2021-05-29T08:16:50Z</time>
      </trkpt>
      <trkpt lat="42.96105" lon="0.27076">
        <ele>1307.2</ele>
        <time>2021-05-29T08:16:52Z</time>
      </trkpt>
      <trkpt lat="42.9611" lon="0.27067">
        <ele>1306</ele>
        <time>2021-05-29T08:16:55Z</time>
      </trkpt>
      <trkpt lat="42.96117" lon="0.27059">
        <ele>1304.8</ele>
        <time>2021-05-29T08:16:58Z</time>
      </trkpt>
      <trkpt lat="42.96121" lon="0.27056">
        <ele>1304.2</ele>
        <time>2021-05-29T08:17:00Z</time>
      </trkpt>
      <trkpt lat="42.96137" lon="0.27043">
        <ele>1303.2</ele>
        <time>2021-05-29T08:17:02Z</time>
      </trkpt>
      <trkpt lat="42.96148" lon="0.27035">
        <ele>1301.8</ele>
        <time>2021-05-29T08:17:04Z</time>
      </trkpt>
      <trkpt lat="42.96153" lon="0.2703">
        <ele>1300.8</ele>
        <time>2021-05-29T08:17:05Z</time>
      </trkpt>
      <trkpt lat="42.96165" lon="0.2702">
        <ele>1299.4</ele>
        <time>2021-05-29T08:17:07Z</time>
      </trkpt>
      <trkpt lat="42.9617" lon="0.27017">
        <ele>1299</ele>
        <time>2021-05-29T08:17:08Z</time>
      </trkpt>
      <trkpt lat="42.96174" lon="0.27015">
        <ele>1298</ele>
        <time>2021-05-29T08:17:09Z</time>
      </trkpt>
      <trkpt lat="42.96179" lon="0.27012">
        <ele>1296.6</ele>
        <time>2021-05-29T08:17:10Z</time>
      </trkpt>
      <trkpt lat="42.96181" lon="0.27009">
        <ele>1296</ele>
        <time>2021-05-29T08:17:11Z</time>
      </trkpt>
      <trkpt lat="42.96181" lon="0.27005">
        <ele>1294</ele>
        <time>2021-05-29T08:17:12Z</time>
      </trkpt>
      <trkpt lat="42.96181" lon="0.27005">
        <ele>1293.6</ele>
        <time>2021-05-29T08:17:13Z</time>
      </trkpt>
      <trkpt lat="42.9618" lon="0.27">
        <ele>1292.6</ele>
        <time>2021-05-29T08:17:14Z</time>
      </trkpt>
      <trkpt lat="42.96179" lon="0.26991">
        <ele>1292.2</ele>
        <time>2021-05-29T08:17:15Z</time>
      </trkpt>
      <trkpt lat="42.96176" lon="0.2699">
        <ele>1291</ele>
        <time>2021-05-29T08:17:16Z</time>
      </trkpt>
      <trkpt lat="42.96173" lon="0.2699">
        <ele>1290.6</ele>
        <time>2021-05-29T08:17:17Z</time>
      </trkpt>
      <trkpt lat="42.96167" lon="0.26991">
        <ele>1289.8</ele>
        <time>2021-05-29T08:17:19Z</time>
      </trkpt>
      <trkpt lat="42.96163" lon="0.26991">
        <ele>1288.8</ele>
        <time>2021-05-29T08:17:20Z</time>
      </trkpt>
      <trkpt lat="42.96158" lon="0.26992">
        <ele>1288.4</ele>
        <time>2021-05-29T08:17:21Z</time>
      </trkpt>
      <trkpt lat="42.96151" lon="0.2699">
        <ele>1287.8</ele>
        <time>2021-05-29T08:17:22Z</time>
      </trkpt>
      <trkpt lat="42.96139" lon="0.26986">
        <ele>1286.6</ele>
        <time>2021-05-29T08:17:24Z</time>
      </trkpt>
      <trkpt lat="42.96128" lon="0.26982">
        <ele>1285.2</ele>
        <time>2021-05-29T08:17:26Z</time>
      </trkpt>
      <trkpt lat="42.96125" lon="0.26983">
        <ele>1284.2</ele>
        <time>2021-05-29T08:17:27Z</time>
      </trkpt>
      <trkpt lat="42.96121" lon="0.26985">
        <ele>1282.6</ele>
        <time>2021-05-29T08:17:28Z</time>
      </trkpt>
      <trkpt lat="42.96118" lon="0.26987">
        <ele>1281.2</ele>
        <time>2021-05-29T08:17:29Z</time>
      </trkpt>
      <trkpt lat="42.96115" lon="0.26986">
        <ele>1280.6</ele>
        <time>2021-05-29T08:17:30Z</time>
      </trkpt>
      <trkpt lat="42.96115" lon="0.26986">
        <ele>1279</ele>
        <time>2021-05-29T08:17:31Z</time>
      </trkpt>
      <trkpt lat="42.96109" lon="0.26979">
        <ele>1277.4</ele>
        <time>2021-05-29T08:17:33Z</time>
      </trkpt>
      <trkpt lat="42.961" lon="0.26972">
        <ele>1276.2</ele>
        <time>2021-05-29T08:17:35Z</time>
      </trkpt>
      <trkpt lat="42.96085" lon="0.26963">
        <ele>1274.8</ele>
        <time>2021-05-29T08:17:38Z</time>
      </trkpt>
      <trkpt lat="42.96079" lon="0.26956">
        <ele>1273.6</ele>
        <time>2021-05-29T08:17:39Z</time>
      </trkpt>
      <trkpt lat="42.96069" lon="0.26945">
        <ele>1272</ele>
        <time>2021-05-29T08:17:41Z</time>
      </trkpt>
      <trkpt lat="42.96065" lon="0.26939">
        <ele>1270.8</ele>
        <time>2021-05-29T08:17:43Z</time>
      </trkpt>
      <trkpt lat="42.96061" lon="0.26934">
        <ele>1270.4</ele>
        <time>2021-05-29T08:17:44Z</time>
      </trkpt>
      <trkpt lat="42.96051" lon="0.26921">
        <ele>1269.2</ele>
        <time>2021-05-29T08:17:45Z</time>
      </trkpt>
      <trkpt lat="42.96051" lon="0.26921">
        <ele>1267.2</ele>
        <time>2021-05-29T08:17:46Z</time>
      </trkpt>
      <trkpt lat="42.96041" lon="0.26912">
        <ele>1266.4</ele>
        <time>2021-05-29T08:17:47Z</time>
      </trkpt>
      <trkpt lat="42.96035" lon="0.26906">
        <ele>1265</ele>
        <time>2021-05-29T08:17:48Z</time>
      </trkpt>
      <trkpt lat="42.96035" lon="0.26906">
        <ele>1263.6</ele>
        <time>2021-05-29T08:17:49Z</time>
      </trkpt>
      <trkpt lat="42.9603" lon="0.26902">
        <ele>1261.8</ele>
        <time>2021-05-29T08:17:50Z</time>
      </trkpt>
      <trkpt lat="42.96025" lon="0.26897">
        <ele>1261.4</ele>
        <time>2021-05-29T08:17:51Z</time>
      </trkpt>
      <trkpt lat="42.96019" lon="0.26891">
        <ele>1259</ele>
        <time>2021-05-29T08:17:52Z</time>
      </trkpt>
      <trkpt lat="42.96016" lon="0.26889">
        <ele>1258.2</ele>
        <time>2021-05-29T08:17:53Z</time>
      </trkpt>
      <trkpt lat="42.96016" lon="0.26889">
        <ele>1256.2</ele>
        <time>2021-05-29T08:17:54Z</time>
      </trkpt>
      <trkpt lat="42.96014" lon="0.26886">
        <ele>1255.2</ele>
        <time>2021-05-29T08:17:55Z</time>
      </trkpt>
      <trkpt lat="42.96009" lon="0.26878">
        <ele>1253.4</ele>
        <time>2021-05-29T08:17:56Z</time>
      </trkpt>
      <trkpt lat="42.96007" lon="0.26874">
        <ele>1253</ele>
        <time>2021-05-29T08:17:57Z</time>
      </trkpt>
      <trkpt lat="42.96007" lon="0.26874">
        <ele>1252.2</ele>
        <time>2021-05-29T08:17:58Z</time>
      </trkpt>
      <trkpt lat="42.96005" lon="0.26863">
        <ele>1252</ele>
        <time>2021-05-29T08:17:59Z</time>
      </trkpt>
      <trkpt lat="42.96002" lon="0.26855">
        <ele>1250.4</ele>
        <time>2021-05-29T08:18:00Z</time>
      </trkpt>
      <trkpt lat="42.95999" lon="0.26849">
        <ele>1248.4</ele>
        <time>2021-05-29T08:18:02Z</time>
      </trkpt>
      <trkpt lat="42.95996" lon="0.26836">
        <ele>1246.8</ele>
        <time>2021-05-29T08:18:04Z</time>
      </trkpt>
      <trkpt lat="42.95996" lon="0.26836">
        <ele>1246</ele>
        <time>2021-05-29T08:18:05Z</time>
      </trkpt>
      <trkpt lat="42.95987" lon="0.26827">
        <ele>1245.6</ele>
        <time>2021-05-29T08:18:06Z</time>
      </trkpt>
      <trkpt lat="42.95987" lon="0.26827">
        <ele>1245</ele>
        <time>2021-05-29T08:18:07Z</time>
      </trkpt>
      <trkpt lat="42.9598" lon="0.26816">
        <ele>1244.2</ele>
        <time>2021-05-29T08:18:08Z</time>
      </trkpt>
      <trkpt lat="42.95976" lon="0.26811">
        <ele>1243.4</ele>
        <time>2021-05-29T08:18:09Z</time>
      </trkpt>
      <trkpt lat="42.95971" lon="0.26807">
        <ele>1243</ele>
        <time>2021-05-29T08:18:10Z</time>
      </trkpt>
      <trkpt lat="42.95966" lon="0.26802">
        <ele>1241.4</ele>
        <time>2021-05-29T08:18:11Z</time>
      </trkpt>
      <trkpt lat="42.95962" lon="0.26798">
        <ele>1241</ele>
        <time>2021-05-29T08:18:12Z</time>
      </trkpt>
      <trkpt lat="42.95958" lon="0.26794">
        <ele>1240</ele>
        <time>2021-05-29T08:18:13Z</time>
      </trkpt>
      <trkpt lat="42.95956" lon="0.26792">
        <ele>1239.4</ele>
        <time>2021-05-29T08:18:14Z</time>
      </trkpt>
      <trkpt lat="42.95956" lon="0.26792">
        <ele>1238</ele>
        <time>2021-05-29T08:18:15Z</time>
      </trkpt>
      <trkpt lat="42.95952" lon="0.26786">
        <ele>1237</ele>
        <time>2021-05-29T08:18:16Z</time>
      </trkpt>
      <trkpt lat="42.95951" lon="0.26782">
        <ele>1236</ele>
        <time>2021-05-29T08:18:17Z</time>
      </trkpt>
      <trkpt lat="42.9595" lon="0.26778">
        <ele>1235.6</ele>
        <time>2021-05-29T08:18:18Z</time>
      </trkpt>
      <trkpt lat="42.95949" lon="0.26773">
        <ele>1234.6</ele>
        <time>2021-05-29T08:18:19Z</time>
      </trkpt>
      <trkpt lat="42.95948" lon="0.26769">
        <ele>1234.2</ele>
        <time>2021-05-29T08:18:20Z</time>
      </trkpt>
      <trkpt lat="42.95947" lon="0.26765">
        <ele>1233.2</ele>
        <time>2021-05-29T08:18:21Z</time>
      </trkpt>
      <trkpt lat="42.95944" lon="0.26761">
        <ele>1231.2</ele>
        <time>2021-05-29T08:18:22Z</time>
      </trkpt>
      <trkpt lat="42.95941" lon="0.26756">
        <ele>1230.6</ele>
        <time>2021-05-29T08:18:23Z</time>
      </trkpt>
      <trkpt lat="42.95941" lon="0.26749">
        <ele>1229.6</ele>
        <time>2021-05-29T08:18:24Z</time>
      </trkpt>
      <trkpt lat="42.95943" lon="0.26741">
        <ele>1229.2</ele>
        <time>2021-05-29T08:18:25Z</time>
      </trkpt>
      <trkpt lat="42.95945" lon="0.26732">
        <ele>1228.4</ele>
        <time>2021-05-29T08:18:26Z</time>
      </trkpt>
      <trkpt lat="42.95947" lon="0.26714">
        <ele>1226.8</ele>
        <time>2021-05-29T08:18:28Z</time>
      </trkpt>
      <trkpt lat="42.95948" lon="0.26706">
        <ele>1226</ele>
        <time>2021-05-29T08:18:29Z</time>
      </trkpt>
      <trkpt lat="42.95949" lon="0.26696">
        <ele>1224.6</ele>
        <time>2021-05-29T08:18:30Z</time>
      </trkpt>
      <trkpt lat="42.9595" lon="0.26682">
        <ele>1222.8</ele>
        <time>2021-05-29T08:18:32Z</time>
      </trkpt>
      <trkpt lat="42.95949" lon="0.26675">
        <ele>1222.2</ele>
        <time>2021-05-29T08:18:33Z</time>
      </trkpt>
      <trkpt lat="42.95949" lon="0.26675">
        <ele>1220.8</ele>
        <time>2021-05-29T08:18:34Z</time>
      </trkpt>
      <trkpt lat="42.95949" lon="0.2666">
        <ele>1219.6</ele>
        <time>2021-05-29T08:18:35Z</time>
      </trkpt>
      <trkpt lat="42.9595" lon="0.26652">
        <ele>1218.2</ele>
        <time>2021-05-29T08:18:36Z</time>
      </trkpt>
      <trkpt lat="42.95953" lon="0.26637">
        <ele>1216.4</ele>
        <time>2021-05-29T08:18:38Z</time>
      </trkpt>
      <trkpt lat="42.95953" lon="0.26637">
        <ele>1215.6</ele>
        <time>2021-05-29T08:18:39Z</time>
      </trkpt>
      <trkpt lat="42.95954" lon="0.26619">
        <ele>1214.8</ele>
        <time>2021-05-29T08:18:40Z</time>
      </trkpt>
      <trkpt lat="42.95954" lon="0.26614">
        <ele>1213.2</ele>
        <time>2021-05-29T08:18:41Z</time>
      </trkpt>
      <trkpt lat="42.95953" lon="0.26609">
        <ele>1212.8</ele>
        <time>2021-05-29T08:18:42Z</time>
      </trkpt>
      <trkpt lat="42.95953" lon="0.26609">
        <ele>1211.8</ele>
        <time>2021-05-29T08:18:43Z</time>
      </trkpt>
      <trkpt lat="42.95956" lon="0.26597">
        <ele>1211</ele>
        <time>2021-05-29T08:18:44Z</time>
      </trkpt>
      <trkpt lat="42.95957" lon="0.26592">
        <ele>1209.4</ele>
        <time>2021-05-29T08:18:45Z</time>
      </trkpt>
      <trkpt lat="42.95962" lon="0.26579">
        <ele>1207.4</ele>
        <time>2021-05-29T08:18:47Z</time>
      </trkpt>
      <trkpt lat="42.95962" lon="0.26571">
        <ele>1206.8</ele>
        <time>2021-05-29T08:18:48Z</time>
      </trkpt>
      <trkpt lat="42.95959" lon="0.26562">
        <ele>1205.2</ele>
        <time>2021-05-29T08:18:49Z</time>
      </trkpt>
      <trkpt lat="42.95957" lon="0.26553">
        <ele>1204</ele>
        <time>2021-05-29T08:18:50Z</time>
      </trkpt>
      <trkpt lat="42.95956" lon="0.26546">
        <ele>1202.6</ele>
        <time>2021-05-29T08:18:51Z</time>
      </trkpt>
      <trkpt lat="42.95956" lon="0.26541">
        <ele>1202</ele>
        <time>2021-05-29T08:18:52Z</time>
      </trkpt>
      <trkpt lat="42.95956" lon="0.26537">
        <ele>1201</ele>
        <time>2021-05-29T08:18:53Z</time>
      </trkpt>
      <trkpt lat="42.95956" lon="0.26531">
        <ele>1200.6</ele>
        <time>2021-05-29T08:18:54Z</time>
      </trkpt>
      <trkpt lat="42.95957" lon="0.26524">
        <ele>1199.4</ele>
        <time>2021-05-29T08:18:55Z</time>
      </trkpt>
      <trkpt lat="42.95957" lon="0.26518">
        <ele>1197</ele>
        <time>2021-05-29T08:18:57Z</time>
      </trkpt>
      <trkpt lat="42.95962" lon="0.26505">
        <ele>1195.8</ele>
        <time>2021-05-29T08:18:58Z</time>
      </trkpt>
      <trkpt lat="42.95964" lon="0.265">
        <ele>1195.4</ele>
        <time>2021-05-29T08:18:59Z</time>
      </trkpt>
      <trkpt lat="42.95964" lon="0.265">
        <ele>1194.6</ele>
        <time>2021-05-29T08:19:00Z</time>
      </trkpt>
      <trkpt lat="42.95963" lon="0.26496">
        <ele>1193.8</ele>
        <time>2021-05-29T08:19:01Z</time>
      </trkpt>
      <trkpt lat="42.95962" lon="0.26485">
        <ele>1192.8</ele>
        <time>2021-05-29T08:19:02Z</time>
      </trkpt>
      <trkpt lat="42.95963" lon="0.26479">
        <ele>1191.8</ele>
        <time>2021-05-29T08:19:03Z</time>
      </trkpt>
      <trkpt lat="42.95963" lon="0.26471">
        <ele>1190.6</ele>
        <time>2021-05-29T08:19:04Z</time>
      </trkpt>
      <trkpt lat="42.95962" lon="0.26464">
        <ele>1190.2</ele>
        <time>2021-05-29T08:19:05Z</time>
      </trkpt>
      <trkpt lat="42.9596" lon="0.26456">
        <ele>1189</ele>
        <time>2021-05-29T08:19:06Z</time>
      </trkpt>
      <trkpt lat="42.95957" lon="0.26445">
        <ele>1187.4</ele>
        <time>2021-05-29T08:19:08Z</time>
      </trkpt>
      <trkpt lat="42.95954" lon="0.26438">
        <ele>1187</ele>
        <time>2021-05-29T08:19:09Z</time>
      </trkpt>
      <trkpt lat="42.95952" lon="0.26433">
        <ele>1186</ele>
        <time>2021-05-29T08:19:10Z</time>
      </trkpt>
      <trkpt lat="42.95944" lon="0.26422">
        <ele>1184.6</ele>
        <time>2021-05-29T08:19:12Z</time>
      </trkpt>
      <trkpt lat="42.95939" lon="0.26417">
        <ele>1184.2</ele>
        <time>2021-05-29T08:19:13Z</time>
      </trkpt>
      <trkpt lat="42.95935" lon="0.26412">
        <ele>1182.8</ele>
        <time>2021-05-29T08:19:14Z</time>
      </trkpt>
      <trkpt lat="42.9593" lon="0.2641">
        <ele>1181.4</ele>
        <time>2021-05-29T08:19:16Z</time>
      </trkpt>
      <trkpt lat="42.95923" lon="0.2641">
        <ele>1180.4</ele>
        <time>2021-05-29T08:19:17Z</time>
      </trkpt>
      <trkpt lat="42.95919" lon="0.2641">
        <ele>1179.8</ele>
        <time>2021-05-29T08:19:18Z</time>
      </trkpt>
      <trkpt lat="42.95916" lon="0.26409">
        <ele>1178.8</ele>
        <time>2021-05-29T08:19:19Z</time>
      </trkpt>
      <trkpt lat="42.95915" lon="0.26406">
        <ele>1178.2</ele>
        <time>2021-05-29T08:19:20Z</time>
      </trkpt>
      <trkpt lat="42.95916" lon="0.26402">
        <ele>1177.2</ele>
        <time>2021-05-29T08:19:21Z</time>
      </trkpt>
      <trkpt lat="42.95918" lon="0.26399">
        <ele>1176.6</ele>
        <time>2021-05-29T08:19:22Z</time>
      </trkpt>
      <trkpt lat="42.95921" lon="0.26397">
        <ele>1175.4</ele>
        <time>2021-05-29T08:19:23Z</time>
      </trkpt>
      <trkpt lat="42.95923" lon="0.26395">
        <ele>1175</ele>
        <time>2021-05-29T08:19:24Z</time>
      </trkpt>
      <trkpt lat="42.95926" lon="0.26392">
        <ele>1174</ele>
        <time>2021-05-29T08:19:25Z</time>
      </trkpt>
      <trkpt lat="42.9593" lon="0.2639">
        <ele>1173.2</ele>
        <time>2021-05-29T08:19:26Z</time>
      </trkpt>
      <trkpt lat="42.95935" lon="0.26387">
        <ele>1172.2</ele>
        <time>2021-05-29T08:19:27Z</time>
      </trkpt>
      <trkpt lat="42.9594" lon="0.26384">
        <ele>1171.8</ele>
        <time>2021-05-29T08:19:28Z</time>
      </trkpt>
      <trkpt lat="42.95946" lon="0.26382">
        <ele>1170.6</ele>
        <time>2021-05-29T08:19:29Z</time>
      </trkpt>
      <trkpt lat="42.95951" lon="0.2638">
        <ele>1169.8</ele>
        <time>2021-05-29T08:19:30Z</time>
      </trkpt>
      <trkpt lat="42.95956" lon="0.26379">
        <ele>1168.4</ele>
        <time>2021-05-29T08:19:31Z</time>
      </trkpt>
      <trkpt lat="42.95961" lon="0.26377">
        <ele>1168</ele>
        <time>2021-05-29T08:19:32Z</time>
      </trkpt>
      <trkpt lat="42.95966" lon="0.26376">
        <ele>1166.8</ele>
        <time>2021-05-29T08:19:33Z</time>
      </trkpt>
      <trkpt lat="42.95971" lon="0.26376">
        <ele>1166</ele>
        <time>2021-05-29T08:19:34Z</time>
      </trkpt>
      <trkpt lat="42.95976" lon="0.26375">
        <ele>1165</ele>
        <time>2021-05-29T08:19:35Z</time>
      </trkpt>
      <trkpt lat="42.9598" lon="0.26375">
        <ele>1163.8</ele>
        <time>2021-05-29T08:19:36Z</time>
      </trkpt>
      <trkpt lat="42.95984" lon="0.26376">
        <ele>1163.4</ele>
        <time>2021-05-29T08:19:37Z</time>
      </trkpt>
      <trkpt lat="42.95988" lon="0.26377">
        <ele>1162.2</ele>
        <time>2021-05-29T08:19:38Z</time>
      </trkpt>
      <trkpt lat="42.95992" lon="0.26378">
        <ele>1161.8</ele>
        <time>2021-05-29T08:19:39Z</time>
      </trkpt>
      <trkpt lat="42.95996" lon="0.26379">
        <ele>1160.6</ele>
        <time>2021-05-29T08:19:40Z</time>
      </trkpt>
      <trkpt lat="42.96001" lon="0.26382">
        <ele>1160.2</ele>
        <time>2021-05-29T08:19:41Z</time>
      </trkpt>
      <trkpt lat="42.96005" lon="0.26386">
        <ele>1159</ele>
        <time>2021-05-29T08:19:42Z</time>
      </trkpt>
      <trkpt lat="42.9601" lon="0.26391">
        <ele>1158.4</ele>
        <time>2021-05-29T08:19:43Z</time>
      </trkpt>
      <trkpt lat="42.96015" lon="0.26395">
        <ele>1157.4</ele>
        <time>2021-05-29T08:19:44Z</time>
      </trkpt>
      <trkpt lat="42.96019" lon="0.26398">
        <ele>1156.8</ele>
        <time>2021-05-29T08:19:45Z</time>
      </trkpt>
      <trkpt lat="42.96023" lon="0.26402">
        <ele>1155.8</ele>
        <time>2021-05-29T08:19:46Z</time>
      </trkpt>
      <trkpt lat="42.96028" lon="0.26406">
        <ele>1155.4</ele>
        <time>2021-05-29T08:19:47Z</time>
      </trkpt>
      <trkpt lat="42.96034" lon="0.26411">
        <ele>1154.2</ele>
        <time>2021-05-29T08:19:48Z</time>
      </trkpt>
      <trkpt lat="42.96038" lon="0.26416">
        <ele>1153.6</ele>
        <time>2021-05-29T08:19:49Z</time>
      </trkpt>
      <trkpt lat="42.96043" lon="0.26422">
        <ele>1152.6</ele>
        <time>2021-05-29T08:19:50Z</time>
      </trkpt>
      <trkpt lat="42.96048" lon="0.26429">
        <ele>1152</ele>
        <time>2021-05-29T08:19:51Z</time>
      </trkpt>
      <trkpt lat="42.96048" lon="0.26429">
        <ele>1149.8</ele>
        <time>2021-05-29T08:19:52Z</time>
      </trkpt>
      <trkpt lat="42.96055" lon="0.26443">
        <ele>1148.8</ele>
        <time>2021-05-29T08:19:53Z</time>
      </trkpt>
      <trkpt lat="42.96058" lon="0.26449">
        <ele>1148.2</ele>
        <time>2021-05-29T08:19:54Z</time>
      </trkpt>
      <trkpt lat="42.9606" lon="0.26455">
        <ele>1147.4</ele>
        <time>2021-05-29T08:19:55Z</time>
      </trkpt>
      <trkpt lat="42.9606" lon="0.26455">
        <ele>1145.8</ele>
        <time>2021-05-29T08:19:56Z</time>
      </trkpt>
      <trkpt lat="42.96068" lon="0.26466">
        <ele>1144</ele>
        <time>2021-05-29T08:19:57Z</time>
      </trkpt>
      <trkpt lat="42.96071" lon="0.26475">
        <ele>1142.8</ele>
        <time>2021-05-29T08:19:58Z</time>
      </trkpt>
      <trkpt lat="42.96075" lon="0.26484">
        <ele>1141.2</ele>
        <time>2021-05-29T08:19:59Z</time>
      </trkpt>
      <trkpt lat="42.96081" lon="0.26493">
        <ele>1140</ele>
        <time>2021-05-29T08:20:00Z</time>
      </trkpt>
      <trkpt lat="42.96088" lon="0.26503">
        <ele>1139</ele>
        <time>2021-05-29T08:20:01Z</time>
      </trkpt>
      <trkpt lat="42.96093" lon="0.26512">
        <ele>1137.8</ele>
        <time>2021-05-29T08:20:02Z</time>
      </trkpt>
      <trkpt lat="42.96097" lon="0.2652">
        <ele>1136</ele>
        <time>2021-05-29T08:20:03Z</time>
      </trkpt>
      <trkpt lat="42.96099" lon="0.26526">
        <ele>1135.4</ele>
        <time>2021-05-29T08:20:04Z</time>
      </trkpt>
      <trkpt lat="42.961" lon="0.26532">
        <ele>1133.6</ele>
        <time>2021-05-29T08:20:05Z</time>
      </trkpt>
      <trkpt lat="42.96101" lon="0.26536">
        <ele>1132.6</ele>
        <time>2021-05-29T08:20:06Z</time>
      </trkpt>
      <trkpt lat="42.96103" lon="0.2654">
        <ele>1131</ele>
        <time>2021-05-29T08:20:07Z</time>
      </trkpt>
      <trkpt lat="42.96106" lon="0.26543">
        <ele>1129.6</ele>
        <time>2021-05-29T08:20:08Z</time>
      </trkpt>
      <trkpt lat="42.96109" lon="0.26542">
        <ele>1128.2</ele>
        <time>2021-05-29T08:20:09Z</time>
      </trkpt>
      <trkpt lat="42.96111" lon="0.26541">
        <ele>1127.2</ele>
        <time>2021-05-29T08:20:10Z</time>
      </trkpt>
      <trkpt lat="42.96112" lon="0.26538">
        <ele>1125.6</ele>
        <time>2021-05-29T08:20:11Z</time>
      </trkpt>
      <trkpt lat="42.96114" lon="0.26534">
        <ele>1124.6</ele>
        <time>2021-05-29T08:20:12Z</time>
      </trkpt>
      <trkpt lat="42.96115" lon="0.2653">
        <ele>1124</ele>
        <time>2021-05-29T08:20:13Z</time>
      </trkpt>
      <trkpt lat="42.96115" lon="0.26526">
        <ele>1122.6</ele>
        <time>2021-05-29T08:20:14Z</time>
      </trkpt>
      <trkpt lat="42.96116" lon="0.26521">
        <ele>1122</ele>
        <time>2021-05-29T08:20:15Z</time>
      </trkpt>
      <trkpt lat="42.96118" lon="0.26515">
        <ele>1120.8</ele>
        <time>2021-05-29T08:20:16Z</time>
      </trkpt>
      <trkpt lat="42.96122" lon="0.26505">
        <ele>1119</ele>
        <time>2021-05-29T08:20:18Z</time>
      </trkpt>
      <trkpt lat="42.96125" lon="0.26499">
        <ele>1118.2</ele>
        <time>2021-05-29T08:20:19Z</time>
      </trkpt>
      <trkpt lat="42.96126" lon="0.26493">
        <ele>1116.6</ele>
        <time>2021-05-29T08:20:20Z</time>
      </trkpt>
      <trkpt lat="42.96126" lon="0.26493">
        <ele>1115.6</ele>
        <time>2021-05-29T08:20:21Z</time>
      </trkpt>
      <trkpt lat="42.9613" lon="0.26484">
        <ele>1114.2</ele>
        <time>2021-05-29T08:20:22Z</time>
      </trkpt>
      <trkpt lat="42.96133" lon="0.26478">
        <ele>1113.6</ele>
        <time>2021-05-29T08:20:23Z</time>
      </trkpt>
      <trkpt lat="42.96137" lon="0.26472">
        <ele>1112.6</ele>
        <time>2021-05-29T08:20:24Z</time>
      </trkpt>
      <trkpt lat="42.96148" lon="0.26454">
        <ele>1111</ele>
        <time>2021-05-29T08:20:26Z</time>
      </trkpt>
      <trkpt lat="42.96148" lon="0.26442">
        <ele>1110.6</ele>
        <time>2021-05-29T08:20:27Z</time>
      </trkpt>
      <trkpt lat="42.96148" lon="0.2643">
        <ele>1109</ele>
        <time>2021-05-29T08:20:28Z</time>
      </trkpt>
      <trkpt lat="42.96148" lon="0.2643">
        <ele>1106.8</ele>
        <time>2021-05-29T08:20:29Z</time>
      </trkpt>
      <trkpt lat="42.96148" lon="0.26406">
        <ele>1105.4</ele>
        <time>2021-05-29T08:20:30Z</time>
      </trkpt>
      <trkpt lat="42.96148" lon="0.26396">
        <ele>1103.8</ele>
        <time>2021-05-29T08:20:31Z</time>
      </trkpt>
      <trkpt lat="42.96146" lon="0.26386">
        <ele>1102.8</ele>
        <time>2021-05-29T08:20:32Z</time>
      </trkpt>
      <trkpt lat="42.96143" lon="0.26377">
        <ele>1101.4</ele>
        <time>2021-05-29T08:20:33Z</time>
      </trkpt>
      <trkpt lat="42.96139" lon="0.26368">
        <ele>1100.8</ele>
        <time>2021-05-29T08:20:34Z</time>
      </trkpt>
      <trkpt lat="42.96136" lon="0.2636">
        <ele>1099.2</ele>
        <time>2021-05-29T08:20:35Z</time>
      </trkpt>
      <trkpt lat="42.96131" lon="0.26352">
        <ele>1098.4</ele>
        <time>2021-05-29T08:20:36Z</time>
      </trkpt>
      <trkpt lat="42.96126" lon="0.26342">
        <ele>1096.8</ele>
        <time>2021-05-29T08:20:37Z</time>
      </trkpt>
      <trkpt lat="42.96123" lon="0.26331">
        <ele>1096.4</ele>
        <time>2021-05-29T08:20:38Z</time>
      </trkpt>
      <trkpt lat="42.96116" lon="0.26319">
        <ele>1095.6</ele>
        <time>2021-05-29T08:20:39Z</time>
      </trkpt>
      <trkpt lat="42.9611" lon="0.26308">
        <ele>1095.4</ele>
        <time>2021-05-29T08:20:40Z</time>
      </trkpt>
      <trkpt lat="42.96105" lon="0.26296">
        <ele>1094.4</ele>
        <time>2021-05-29T08:20:41Z</time>
      </trkpt>
      <trkpt lat="42.96094" lon="0.26272">
        <ele>1092.8</ele>
        <time>2021-05-29T08:20:43Z</time>
      </trkpt>
      <trkpt lat="42.96084" lon="0.26251">
        <ele>1090.2</ele>
        <time>2021-05-29T08:20:45Z</time>
      </trkpt>
      <trkpt lat="42.96078" lon="0.26241">
        <ele>1089.6</ele>
        <time>2021-05-29T08:20:46Z</time>
      </trkpt>
      <trkpt lat="42.96074" lon="0.26231">
        <ele>1088.8</ele>
        <time>2021-05-29T08:20:47Z</time>
      </trkpt>
      <trkpt lat="42.96069" lon="0.26221">
        <ele>1087.6</ele>
        <time>2021-05-29T08:20:48Z</time>
      </trkpt>
      <trkpt lat="42.96064" lon="0.26213">
        <ele>1087.2</ele>
        <time>2021-05-29T08:20:49Z</time>
      </trkpt>
      <trkpt lat="42.96059" lon="0.26206">
        <ele>1085.4</ele>
        <time>2021-05-29T08:20:50Z</time>
      </trkpt>
      <trkpt lat="42.96055" lon="0.26198">
        <ele>1084.4</ele>
        <time>2021-05-29T08:20:51Z</time>
      </trkpt>
      <trkpt lat="42.9605" lon="0.26191">
        <ele>1082.6</ele>
        <time>2021-05-29T08:20:52Z</time>
      </trkpt>
      <trkpt lat="42.96044" lon="0.26182">
        <ele>1082</ele>
        <time>2021-05-29T08:20:53Z</time>
      </trkpt>
      <trkpt lat="42.9604" lon="0.26176">
        <ele>1080.6</ele>
        <time>2021-05-29T08:20:54Z</time>
      </trkpt>
      <trkpt lat="42.96037" lon="0.26171">
        <ele>1080</ele>
        <time>2021-05-29T08:20:55Z</time>
      </trkpt>
      <trkpt lat="42.96032" lon="0.26165">
        <ele>1079.2</ele>
        <time>2021-05-29T08:20:56Z</time>
      </trkpt>
      <trkpt lat="42.96023" lon="0.26149">
        <ele>1076.8</ele>
        <time>2021-05-29T08:20:58Z</time>
      </trkpt>
      <trkpt lat="42.96014" lon="0.26142">
        <ele>1075</ele>
        <time>2021-05-29T08:21:00Z</time>
      </trkpt>
      <trkpt lat="42.96008" lon="0.26132">
        <ele>1074.6</ele>
        <time>2021-05-29T08:21:01Z</time>
      </trkpt>
      <trkpt lat="42.96002" lon="0.26123">
        <ele>1073.8</ele>
        <time>2021-05-29T08:21:02Z</time>
      </trkpt>
      <trkpt lat="42.95996" lon="0.26115">
        <ele>1073.2</ele>
        <time>2021-05-29T08:21:03Z</time>
      </trkpt>
      <trkpt lat="42.95992" lon="0.26112">
        <ele>1072.2</ele>
        <time>2021-05-29T08:21:04Z</time>
      </trkpt>
      <trkpt lat="42.95989" lon="0.26109">
        <ele>1071.8</ele>
        <time>2021-05-29T08:21:05Z</time>
      </trkpt>
      <trkpt lat="42.95987" lon="0.26106">
        <ele>1071.4</ele>
        <time>2021-05-29T08:21:06Z</time>
      </trkpt>
      <trkpt lat="42.95985" lon="0.26106">
        <ele>1071</ele>
        <time>2021-05-29T08:21:07Z</time>
      </trkpt>
      <trkpt lat="42.95984" lon="0.26105">
        <ele>1070.8</ele>
        <time>2021-05-29T08:21:08Z</time>
      </trkpt>
      <trkpt lat="42.95983" lon="0.26105">
        <ele>1070.2</ele>
        <time>2021-05-29T08:21:09Z</time>
      </trkpt>
      <trkpt lat="42.95982" lon="0.26104">
        <ele>1070</ele>
        <time>2021-05-29T08:21:10Z</time>
      </trkpt>
      <trkpt lat="42.95981" lon="0.26104">
        <ele>1069.8</ele>
        <time>2021-05-29T08:21:11Z</time>
      </trkpt>
      <trkpt lat="42.9598" lon="0.26104">
        <ele>1069.6</ele>
        <time>2021-05-29T08:21:12Z</time>
      </trkpt>
      <trkpt lat="42.95979" lon="0.26104">
        <ele>1069.6</ele>
        <time>2021-05-29T08:21:13Z</time>
      </trkpt>
      <trkpt lat="42.95978" lon="0.26104">
        <ele>1069.6</ele>
        <time>2021-05-29T08:21:14Z</time>
      </trkpt>
      <trkpt lat="42.95976" lon="0.26104">
        <ele>1069.6</ele>
        <time>2021-05-29T08:21:16Z</time>
      </trkpt>
      <trkpt lat="42.95974" lon="0.26103">
        <ele>1069.6</ele>
        <time>2021-05-29T08:21:17Z</time>
      </trkpt>
      <trkpt lat="42.95971" lon="0.26101">
        <ele>1069.6</ele>
        <time>2021-05-29T08:21:18Z</time>
      </trkpt>
      <trkpt lat="42.95968" lon="0.26099">
        <ele>1069.6</ele>
        <time>2021-05-29T08:21:19Z</time>
      </trkpt>
      <trkpt lat="42.95966" lon="0.26096">
        <ele>1069.6</ele>
        <time>2021-05-29T08:21:20Z</time>
      </trkpt>
      <trkpt lat="42.95954" lon="0.26084">
        <ele>1070</ele>
        <time>2021-05-29T08:21:25Z</time>
      </trkpt>
      <trkpt lat="42.95952" lon="0.26082">
        <ele>1070.2</ele>
        <time>2021-05-29T08:21:26Z</time>
      </trkpt>
      <trkpt lat="42.95933" lon="0.26073">
        <ele>1070.4</ele>
        <time>2021-05-29T08:21:31Z</time>
      </trkpt>
      <trkpt lat="42.95929" lon="0.26072">
        <ele>1070.4</ele>
        <time>2021-05-29T08:21:32Z</time>
      </trkpt>
      <trkpt lat="42.95925" lon="0.26072">
        <ele>1070.4</ele>
        <time>2021-05-29T08:21:33Z</time>
      </trkpt>
      <trkpt lat="42.95922" lon="0.26071">
        <ele>1070.6</ele>
        <time>2021-05-29T08:21:34Z</time>
      </trkpt>
      <trkpt lat="42.95909" lon="0.26072">
        <ele>1070.6</ele>
        <time>2021-05-29T08:21:38Z</time>
      </trkpt>
      <trkpt lat="42.95905" lon="0.26073">
        <ele>1070.8</ele>
        <time>2021-05-29T08:21:39Z</time>
      </trkpt>
      <trkpt lat="42.95901" lon="0.26075">
        <ele>1070.8</ele>
        <time>2021-05-29T08:21:40Z</time>
      </trkpt>
      <trkpt lat="42.95898" lon="0.26076">
        <ele>1071.2</ele>
        <time>2021-05-29T08:21:41Z</time>
      </trkpt>
      <trkpt lat="42.95886" lon="0.26076">
        <ele>1071.4</ele>
        <time>2021-05-29T08:21:45Z</time>
      </trkpt>
      <trkpt lat="42.95883" lon="0.26076">
        <ele>1071.4</ele>
        <time>2021-05-29T08:21:46Z</time>
      </trkpt>
      <trkpt lat="42.95882" lon="0.26078">
        <ele>1071.6</ele>
        <time>2021-05-29T08:21:47Z</time>
      </trkpt>
      <trkpt lat="42.9588" lon="0.2608">
        <ele>1071.6</ele>
        <time>2021-05-29T08:21:48Z</time>
      </trkpt>
      <trkpt lat="42.95879" lon="0.26082">
        <ele>1071.6</ele>
        <time>2021-05-29T08:21:49Z</time>
      </trkpt>
      <trkpt lat="42.95879" lon="0.26082">
        <ele>1071.6</ele>
        <time>2021-05-29T08:21:50Z</time>
      </trkpt>
      <trkpt lat="42.95878" lon="0.26083">
        <ele>1071.8</ele>
        <time>2021-05-29T08:21:51Z</time>
      </trkpt>
      <trkpt lat="42.95876" lon="0.26087">
        <ele>1071.8</ele>
        <time>2021-05-29T08:21:52Z</time>
      </trkpt>
      <trkpt lat="42.95873" lon="0.26091">
        <ele>1072</ele>
        <time>2021-05-29T08:21:53Z</time>
      </trkpt>
      <trkpt lat="42.95869" lon="0.26097">
        <ele>1072.2</ele>
        <time>2021-05-29T08:21:54Z</time>
      </trkpt>
      <trkpt lat="42.95858" lon="0.26111">
        <ele>1072.4</ele>
        <time>2021-05-29T08:21:57Z</time>
      </trkpt>
      <trkpt lat="42.95852" lon="0.26119">
        <ele>1072.4</ele>
        <time>2021-05-29T08:21:59Z</time>
      </trkpt>
      <trkpt lat="42.9584" lon="0.26132">
        <ele>1072.4</ele>
        <time>2021-05-29T08:22:02Z</time>
      </trkpt>
      <trkpt lat="42.95831" lon="0.2614">
        <ele>1072.6</ele>
        <time>2021-05-29T08:22:05Z</time>
      </trkpt>
      <trkpt lat="42.95828" lon="0.26143">
        <ele>1072.8</ele>
        <time>2021-05-29T08:22:06Z</time>
      </trkpt>
      <trkpt lat="42.95825" lon="0.26146">
        <ele>1072.8</ele>
        <time>2021-05-29T08:22:07Z</time>
      </trkpt>
      <trkpt lat="42.95819" lon="0.26153">
        <ele>1073</ele>
        <time>2021-05-29T08:22:09Z</time>
      </trkpt>
      <trkpt lat="42.95813" lon="0.26159">
        <ele>1073.2</ele>
        <time>2021-05-29T08:22:11Z</time>
      </trkpt>
      <trkpt lat="42.95811" lon="0.2616">
        <ele>1073.4</ele>
        <time>2021-05-29T08:22:12Z</time>
      </trkpt>
      <trkpt lat="42.95809" lon="0.26162">
        <ele>1073.4</ele>
        <time>2021-05-29T08:22:13Z</time>
      </trkpt>
      <trkpt lat="42.95808" lon="0.26164">
        <ele>1073.4</ele>
        <time>2021-05-29T08:22:14Z</time>
      </trkpt>
      <trkpt lat="42.95806" lon="0.26167">
        <ele>1073.4</ele>
        <time>2021-05-29T08:22:15Z</time>
      </trkpt>
      <trkpt lat="42.95804" lon="0.2617">
        <ele>1073.6</ele>
        <time>2021-05-29T08:22:16Z</time>
      </trkpt>
      <trkpt lat="42.95799" lon="0.26173">
        <ele>1073.8</ele>
        <time>2021-05-29T08:22:17Z</time>
      </trkpt>
      <trkpt lat="42.95795" lon="0.26177">
        <ele>1073.8</ele>
        <time>2021-05-29T08:22:18Z</time>
      </trkpt>
      <trkpt lat="42.95793" lon="0.26181">
        <ele>1074</ele>
        <time>2021-05-29T08:22:19Z</time>
      </trkpt>
      <trkpt lat="42.9579" lon="0.26184">
        <ele>1074.2</ele>
        <time>2021-05-29T08:22:20Z</time>
      </trkpt>
      <trkpt lat="42.95785" lon="0.26191">
        <ele>1074.4</ele>
        <time>2021-05-29T08:22:23Z</time>
      </trkpt>
      <trkpt lat="42.95782" lon="0.26194">
        <ele>1074.4</ele>
        <time>2021-05-29T08:22:24Z</time>
      </trkpt>
      <trkpt lat="42.95777" lon="0.26199">
        <ele>1074.8</ele>
        <time>2021-05-29T08:22:26Z</time>
      </trkpt>
      <trkpt lat="42.95772" lon="0.26205">
        <ele>1075.2</ele>
        <time>2021-05-29T08:22:29Z</time>
      </trkpt>
      <trkpt lat="42.9577" lon="0.26208">
        <ele>1075.2</ele>
        <time>2021-05-29T08:22:30Z</time>
      </trkpt>
      <trkpt lat="42.95762" lon="0.26216">
        <ele>1075.4</ele>
        <time>2021-05-29T08:22:33Z</time>
      </trkpt>
      <trkpt lat="42.9576" lon="0.26219">
        <ele>1075.4</ele>
        <time>2021-05-29T08:22:34Z</time>
      </trkpt>
      <trkpt lat="42.95757" lon="0.26221">
        <ele>1075.6</ele>
        <time>2021-05-29T08:22:35Z</time>
      </trkpt>
      <trkpt lat="42.95752" lon="0.26226">
        <ele>1076</ele>
        <time>2021-05-29T08:22:37Z</time>
      </trkpt>
      <trkpt lat="42.95743" lon="0.26235">
        <ele>1076.2</ele>
        <time>2021-05-29T08:22:40Z</time>
      </trkpt>
      <trkpt lat="42.95741" lon="0.26238">
        <ele>1076.4</ele>
        <time>2021-05-29T08:22:41Z</time>
      </trkpt>
      <trkpt lat="42.9574" lon="0.26241">
        <ele>1076.6</ele>
        <time>2021-05-29T08:22:42Z</time>
      </trkpt>
      <trkpt lat="42.95737" lon="0.26243">
        <ele>1076.8</ele>
        <time>2021-05-29T08:22:43Z</time>
      </trkpt>
      <trkpt lat="42.95735" lon="0.26246">
        <ele>1076.8</ele>
        <time>2021-05-29T08:22:44Z</time>
      </trkpt>
      <trkpt lat="42.95732" lon="0.26248">
        <ele>1076.8</ele>
        <time>2021-05-29T08:22:45Z</time>
      </trkpt>
      <trkpt lat="42.95729" lon="0.26251">
        <ele>1077.2</ele>
        <time>2021-05-29T08:22:46Z</time>
      </trkpt>
      <trkpt lat="42.95726" lon="0.26254">
        <ele>1077.4</ele>
        <time>2021-05-29T08:22:47Z</time>
      </trkpt>
      <trkpt lat="42.95723" lon="0.26257">
        <ele>1077.6</ele>
        <time>2021-05-29T08:22:48Z</time>
      </trkpt>
      <trkpt lat="42.95721" lon="0.2626">
        <ele>1077.6</ele>
        <time>2021-05-29T08:22:49Z</time>
      </trkpt>
      <trkpt lat="42.95717" lon="0.26264">
        <ele>1077.8</ele>
        <time>2021-05-29T08:22:50Z</time>
      </trkpt>
      <trkpt lat="42.95714" lon="0.26267">
        <ele>1078</ele>
        <time>2021-05-29T08:22:51Z</time>
      </trkpt>
      <trkpt lat="42.95712" lon="0.2627">
        <ele>1078.2</ele>
        <time>2021-05-29T08:22:52Z</time>
      </trkpt>
      <trkpt lat="42.9571" lon="0.26273">
        <ele>1078.2</ele>
        <time>2021-05-29T08:22:53Z</time>
      </trkpt>
      <trkpt lat="42.95707" lon="0.26277">
        <ele>1078.4</ele>
        <time>2021-05-29T08:22:54Z</time>
      </trkpt>
      <trkpt lat="42.95705" lon="0.26281">
        <ele>1078.6</ele>
        <time>2021-05-29T08:22:55Z</time>
      </trkpt>
      <trkpt lat="42.95703" lon="0.26284">
        <ele>1078.6</ele>
        <time>2021-05-29T08:22:56Z</time>
      </trkpt>
      <trkpt lat="42.95701" lon="0.26286">
        <ele>1078.8</ele>
        <time>2021-05-29T08:22:57Z</time>
      </trkpt>
      <trkpt lat="42.95699" lon="0.26288">
        <ele>1079</ele>
        <time>2021-05-29T08:22:58Z</time>
      </trkpt>
      <trkpt lat="42.95697" lon="0.2629">
        <ele>1079</ele>
        <time>2021-05-29T08:22:59Z</time>
      </trkpt>
      <trkpt lat="42.95695" lon="0.26292">
        <ele>1079.2</ele>
        <time>2021-05-29T08:23:00Z</time>
      </trkpt>
      <trkpt lat="42.95693" lon="0.26292">
        <ele>1079.4</ele>
        <time>2021-05-29T08:23:01Z</time>
      </trkpt>
      <trkpt lat="42.95692" lon="0.26295">
        <ele>1079.4</ele>
        <time>2021-05-29T08:23:02Z</time>
      </trkpt>
      <trkpt lat="42.95691" lon="0.26297">
        <ele>1079.8</ele>
        <time>2021-05-29T08:23:03Z</time>
      </trkpt>
      <trkpt lat="42.95689" lon="0.26299">
        <ele>1079.8</ele>
        <time>2021-05-29T08:23:04Z</time>
      </trkpt>
      <trkpt lat="42.95688" lon="0.26302">
        <ele>1080</ele>
        <time>2021-05-29T08:23:05Z</time>
      </trkpt>
      <trkpt lat="42.95686" lon="0.26305">
        <ele>1080</ele>
        <time>2021-05-29T08:23:06Z</time>
      </trkpt>
      <trkpt lat="42.95684" lon="0.26308">
        <ele>1080.2</ele>
        <time>2021-05-29T08:23:07Z</time>
      </trkpt>
      <trkpt lat="42.95681" lon="0.26311">
        <ele>1080.2</ele>
        <time>2021-05-29T08:23:08Z</time>
      </trkpt>
      <trkpt lat="42.95679" lon="0.26314">
        <ele>1080.4</ele>
        <time>2021-05-29T08:23:09Z</time>
      </trkpt>
      <trkpt lat="42.95677" lon="0.26318">
        <ele>1080.4</ele>
        <time>2021-05-29T08:23:10Z</time>
      </trkpt>
      <trkpt lat="42.95675" lon="0.26323">
        <ele>1080.4</ele>
        <time>2021-05-29T08:23:11Z</time>
      </trkpt>
      <trkpt lat="42.95673" lon="0.26327">
        <ele>1080.4</ele>
        <time>2021-05-29T08:23:12Z</time>
      </trkpt>
      <trkpt lat="42.95673" lon="0.26327">
        <ele>1080.6</ele>
        <time>2021-05-29T08:23:13Z</time>
      </trkpt>
      <trkpt lat="42.9567" lon="0.26335">
        <ele>1080.8</ele>
        <time>2021-05-29T08:23:14Z</time>
      </trkpt>
      <trkpt lat="42.95668" lon="0.26338">
        <ele>1081</ele>
        <time>2021-05-29T08:23:15Z</time>
      </trkpt>
      <trkpt lat="42.95667" lon="0.26341">
        <ele>1081</ele>
        <time>2021-05-29T08:23:16Z</time>
      </trkpt>
      <trkpt lat="42.95666" lon="0.26345">
        <ele>1081.2</ele>
        <time>2021-05-29T08:23:17Z</time>
      </trkpt>
      <trkpt lat="42.95664" lon="0.26348">
        <ele>1081.2</ele>
        <time>2021-05-29T08:23:18Z</time>
      </trkpt>
      <trkpt lat="42.95663" lon="0.26351">
        <ele>1081.2</ele>
        <time>2021-05-29T08:23:19Z</time>
      </trkpt>
      <trkpt lat="42.95661" lon="0.26355">
        <ele>1081.4</ele>
        <time>2021-05-29T08:23:20Z</time>
      </trkpt>
      <trkpt lat="42.9566" lon="0.26358">
        <ele>1081.4</ele>
        <time>2021-05-29T08:23:21Z</time>
      </trkpt>
      <trkpt lat="42.95658" lon="0.26361">
        <ele>1081.4</ele>
        <time>2021-05-29T08:23:22Z</time>
      </trkpt>
      <trkpt lat="42.95657" lon="0.26365">
        <ele>1081.6</ele>
        <time>2021-05-29T08:23:23Z</time>
      </trkpt>
      <trkpt lat="42.95655" lon="0.2637">
        <ele>1081.6</ele>
        <time>2021-05-29T08:23:24Z</time>
      </trkpt>
      <trkpt lat="42.95653" lon="0.26375">
        <ele>1081.6</ele>
        <time>2021-05-29T08:23:25Z</time>
      </trkpt>
      <trkpt lat="42.95649" lon="0.26386">
        <ele>1081.8</ele>
        <time>2021-05-29T08:23:27Z</time>
      </trkpt>
      <trkpt lat="42.95642" lon="0.26403">
        <ele>1082</ele>
        <time>2021-05-29T08:23:30Z</time>
      </trkpt>
      <trkpt lat="42.95639" lon="0.26409">
        <ele>1082</ele>
        <time>2021-05-29T08:23:31Z</time>
      </trkpt>
      <trkpt lat="42.95631" lon="0.26417">
        <ele>1082</ele>
        <time>2021-05-29T08:23:33Z</time>
      </trkpt>
      <trkpt lat="42.95627" lon="0.26419">
        <ele>1081.8</ele>
        <time>2021-05-29T08:23:34Z</time>
      </trkpt>
      <trkpt lat="42.95623" lon="0.26419">
        <ele>1081.8</ele>
        <time>2021-05-29T08:23:35Z</time>
      </trkpt>
      <trkpt lat="42.95619" lon="0.26418">
        <ele>1081.8</ele>
        <time>2021-05-29T08:23:36Z</time>
      </trkpt>
      <trkpt lat="42.95615" lon="0.26417">
        <ele>1081.6</ele>
        <time>2021-05-29T08:23:37Z</time>
      </trkpt>
      <trkpt lat="42.95612" lon="0.26415">
        <ele>1081.4</ele>
        <time>2021-05-29T08:23:38Z</time>
      </trkpt>
      <trkpt lat="42.95609" lon="0.26414">
        <ele>1081.2</ele>
        <time>2021-05-29T08:23:39Z</time>
      </trkpt>
      <trkpt lat="42.95606" lon="0.26411">
        <ele>1081</ele>
        <time>2021-05-29T08:23:40Z</time>
      </trkpt>
      <trkpt lat="42.95603" lon="0.26407">
        <ele>1080.8</ele>
        <time>2021-05-29T08:23:41Z</time>
      </trkpt>
      <trkpt lat="42.95599" lon="0.26403">
        <ele>1080.8</ele>
        <time>2021-05-29T08:23:42Z</time>
      </trkpt>
      <trkpt lat="42.95595" lon="0.26391">
        <ele>1080.4</ele>
        <time>2021-05-29T08:23:44Z</time>
      </trkpt>
      <trkpt lat="42.95594" lon="0.26385">
        <ele>1079.6</ele>
        <time>2021-05-29T08:23:45Z</time>
      </trkpt>
      <trkpt lat="42.95591" lon="0.26376">
        <ele>1079.4</ele>
        <time>2021-05-29T08:23:46Z</time>
      </trkpt>
      <trkpt lat="42.95589" lon="0.26367">
        <ele>1078.6</ele>
        <time>2021-05-29T08:23:47Z</time>
      </trkpt>
      <trkpt lat="42.95585" lon="0.26354">
        <ele>1077</ele>
        <time>2021-05-29T08:23:49Z</time>
      </trkpt>
      <trkpt lat="42.9558" lon="0.26345">
        <ele>1076.4</ele>
        <time>2021-05-29T08:23:50Z</time>
      </trkpt>
      <trkpt lat="42.95576" lon="0.26341">
        <ele>1075.2</ele>
        <time>2021-05-29T08:23:51Z</time>
      </trkpt>
      <trkpt lat="42.95573" lon="0.26337">
        <ele>1074.6</ele>
        <time>2021-05-29T08:23:52Z</time>
      </trkpt>
      <trkpt lat="42.95568" lon="0.26334">
        <ele>1073.8</ele>
        <time>2021-05-29T08:23:53Z</time>
      </trkpt>
      <trkpt lat="42.95564" lon="0.26332">
        <ele>1073</ele>
        <time>2021-05-29T08:23:54Z</time>
      </trkpt>
      <trkpt lat="42.95559" lon="0.26333">
        <ele>1072.2</ele>
        <time>2021-05-29T08:23:55Z</time>
      </trkpt>
      <trkpt lat="42.95553" lon="0.26334">
        <ele>1071.4</ele>
        <time>2021-05-29T08:23:56Z</time>
      </trkpt>
      <trkpt lat="42.95547" lon="0.26335">
        <ele>1070.4</ele>
        <time>2021-05-29T08:23:57Z</time>
      </trkpt>
      <trkpt lat="42.9554" lon="0.26339">
        <ele>1068.8</ele>
        <time>2021-05-29T08:23:58Z</time>
      </trkpt>
      <trkpt lat="42.95534" lon="0.26341">
        <ele>1068.4</ele>
        <time>2021-05-29T08:23:59Z</time>
      </trkpt>
      <trkpt lat="42.95526" lon="0.26342">
        <ele>1067.4</ele>
        <time>2021-05-29T08:24:00Z</time>
      </trkpt>
      <trkpt lat="42.9551" lon="0.26347">
        <ele>1065.6</ele>
        <time>2021-05-29T08:24:02Z</time>
      </trkpt>
      <trkpt lat="42.95505" lon="0.2635">
        <ele>1065</ele>
        <time>2021-05-29T08:24:03Z</time>
      </trkpt>
      <trkpt lat="42.95498" lon="0.26356">
        <ele>1064</ele>
        <time>2021-05-29T08:24:04Z</time>
      </trkpt>
      <trkpt lat="42.95492" lon="0.26361">
        <ele>1063.8</ele>
        <time>2021-05-29T08:24:05Z</time>
      </trkpt>
      <trkpt lat="42.95492" lon="0.26361">
        <ele>1062</ele>
        <time>2021-05-29T08:24:06Z</time>
      </trkpt>
      <trkpt lat="42.95482" lon="0.26374">
        <ele>1061.4</ele>
        <time>2021-05-29T08:24:07Z</time>
      </trkpt>
      <trkpt lat="42.95477" lon="0.26382">
        <ele>1060.6</ele>
        <time>2021-05-29T08:24:08Z</time>
      </trkpt>
      <trkpt lat="42.95465" lon="0.264">
        <ele>1059.2</ele>
        <time>2021-05-29T08:24:10Z</time>
      </trkpt>
      <trkpt lat="42.95459" lon="0.26411">
        <ele>1058</ele>
        <time>2021-05-29T08:24:11Z</time>
      </trkpt>
      <trkpt lat="42.95452" lon="0.26422">
        <ele>1056.8</ele>
        <time>2021-05-29T08:24:12Z</time>
      </trkpt>
      <trkpt lat="42.95437" lon="0.26443">
        <ele>1055.6</ele>
        <time>2021-05-29T08:24:14Z</time>
      </trkpt>
      <trkpt lat="42.95429" lon="0.26452">
        <ele>1055.4</ele>
        <time>2021-05-29T08:24:15Z</time>
      </trkpt>
      <trkpt lat="42.95412" lon="0.26467">
        <ele>1053.4</ele>
        <time>2021-05-29T08:24:17Z</time>
      </trkpt>
      <trkpt lat="42.95404" lon="0.26472">
        <ele>1053</ele>
        <time>2021-05-29T08:24:18Z</time>
      </trkpt>
      <trkpt lat="42.95395" lon="0.26477">
        <ele>1052.6</ele>
        <time>2021-05-29T08:24:19Z</time>
      </trkpt>
      <trkpt lat="42.95388" lon="0.26481">
        <ele>1052.4</ele>
        <time>2021-05-29T08:24:20Z</time>
      </trkpt>
      <trkpt lat="42.95378" lon="0.26485">
        <ele>1051.4</ele>
        <time>2021-05-29T08:24:21Z</time>
      </trkpt>
      <trkpt lat="42.95373" lon="0.26489">
        <ele>1051</ele>
        <time>2021-05-29T08:24:22Z</time>
      </trkpt>
      <trkpt lat="42.95367" lon="0.26493">
        <ele>1050</ele>
        <time>2021-05-29T08:24:23Z</time>
      </trkpt>
      <trkpt lat="42.95363" lon="0.26498">
        <ele>1049.8</ele>
        <time>2021-05-29T08:24:24Z</time>
      </trkpt>
      <trkpt lat="42.95358" lon="0.26504">
        <ele>1049.2</ele>
        <time>2021-05-29T08:24:25Z</time>
      </trkpt>
      <trkpt lat="42.95355" lon="0.26508">
        <ele>1048.8</ele>
        <time>2021-05-29T08:24:26Z</time>
      </trkpt>
      <trkpt lat="42.95353" lon="0.26513">
        <ele>1048.2</ele>
        <time>2021-05-29T08:24:27Z</time>
      </trkpt>
      <trkpt lat="42.95349" lon="0.26517">
        <ele>1048</ele>
        <time>2021-05-29T08:24:28Z</time>
      </trkpt>
      <trkpt lat="42.95345" lon="0.26521">
        <ele>1047.8</ele>
        <time>2021-05-29T08:24:29Z</time>
      </trkpt>
      <trkpt lat="42.95341" lon="0.26523">
        <ele>1047.6</ele>
        <time>2021-05-29T08:24:30Z</time>
      </trkpt>
      <trkpt lat="42.95338" lon="0.26524">
        <ele>1047.4</ele>
        <time>2021-05-29T08:24:31Z</time>
      </trkpt>
      <trkpt lat="42.95334" lon="0.26524">
        <ele>1047.2</ele>
        <time>2021-05-29T08:24:32Z</time>
      </trkpt>
      <trkpt lat="42.95329" lon="0.26527">
        <ele>1047.2</ele>
        <time>2021-05-29T08:24:33Z</time>
      </trkpt>
      <trkpt lat="42.95322" lon="0.26531">
        <ele>1047</ele>
        <time>2021-05-29T08:24:34Z</time>
      </trkpt>
      <trkpt lat="42.95305" lon="0.26544">
        <ele>1046.8</ele>
        <time>2021-05-29T08:24:37Z</time>
      </trkpt>
      <trkpt lat="42.95291" lon="0.26552">
        <ele>1046.4</ele>
        <time>2021-05-29T08:24:39Z</time>
      </trkpt>
      <trkpt lat="42.95283" lon="0.26558">
        <ele>1046.2</ele>
        <time>2021-05-29T08:24:40Z</time>
      </trkpt>
      <trkpt lat="42.95274" lon="0.26563">
        <ele>1046</ele>
        <time>2021-05-29T08:24:41Z</time>
      </trkpt>
      <trkpt lat="42.95267" lon="0.26568">
        <ele>1045.6</ele>
        <time>2021-05-29T08:24:42Z</time>
      </trkpt>
      <trkpt lat="42.95255" lon="0.26577">
        <ele>1045.4</ele>
        <time>2021-05-29T08:24:45Z</time>
      </trkpt>
      <trkpt lat="42.95252" lon="0.26583">
        <ele>1045.2</ele>
        <time>2021-05-29T08:24:47Z</time>
      </trkpt>
      <trkpt lat="42.9525" lon="0.26585">
        <ele>1045.2</ele>
        <time>2021-05-29T08:24:48Z</time>
      </trkpt>
      <trkpt lat="42.95249" lon="0.26585">
        <ele>1045.2</ele>
        <time>2021-05-29T08:24:49Z</time>
      </trkpt>
      <trkpt lat="42.95247" lon="0.26586">
        <ele>1045.2</ele>
        <time>2021-05-29T08:24:50Z</time>
      </trkpt>
      <trkpt lat="42.95244" lon="0.26588">
        <ele>1045.4</ele>
        <time>2021-05-29T08:24:51Z</time>
      </trkpt>
      <trkpt lat="42.95241" lon="0.2659">
        <ele>1045.6</ele>
        <time>2021-05-29T08:24:52Z</time>
      </trkpt>
      <trkpt lat="42.95238" lon="0.26592">
        <ele>1045.6</ele>
        <time>2021-05-29T08:24:53Z</time>
      </trkpt>
      <trkpt lat="42.95235" lon="0.26598">
        <ele>1046.4</ele>
        <time>2021-05-29T08:24:55Z</time>
      </trkpt>
      <trkpt lat="42.95233" lon="0.266">
        <ele>1046.6</ele>
        <time>2021-05-29T08:24:56Z</time>
      </trkpt>
      <trkpt lat="42.95231" lon="0.26602">
        <ele>1046.8</ele>
        <time>2021-05-29T08:24:57Z</time>
      </trkpt>
      <trkpt lat="42.95229" lon="0.26604">
        <ele>1046.8</ele>
        <time>2021-05-29T08:24:58Z</time>
      </trkpt>
      <trkpt lat="42.95206" lon="0.26617">
        <ele>1046.8</ele>
        <time>2021-05-29T08:25:03Z</time>
      </trkpt>
      <trkpt lat="42.95186" lon="0.26633">
        <ele>1045.4</ele>
        <time>2021-05-29T08:25:06Z</time>
      </trkpt>
      <trkpt lat="42.95181" lon="0.26639">
        <ele>1044.4</ele>
        <time>2021-05-29T08:25:07Z</time>
      </trkpt>
      <trkpt lat="42.95177" lon="0.26646">
        <ele>1043.8</ele>
        <time>2021-05-29T08:25:08Z</time>
      </trkpt>
      <trkpt lat="42.95174" lon="0.26651">
        <ele>1042.8</ele>
        <time>2021-05-29T08:25:09Z</time>
      </trkpt>
      <trkpt lat="42.95171" lon="0.26653">
        <ele>1042.2</ele>
        <time>2021-05-29T08:25:10Z</time>
      </trkpt>
      <trkpt lat="42.95168" lon="0.26655">
        <ele>1040.8</ele>
        <time>2021-05-29T08:25:11Z</time>
      </trkpt>
      <trkpt lat="42.95164" lon="0.26655">
        <ele>1039.4</ele>
        <time>2021-05-29T08:25:12Z</time>
      </trkpt>
      <trkpt lat="42.95161" lon="0.26656">
        <ele>1038.8</ele>
        <time>2021-05-29T08:25:13Z</time>
      </trkpt>
      <trkpt lat="42.95158" lon="0.26656">
        <ele>1037.8</ele>
        <time>2021-05-29T08:25:14Z</time>
      </trkpt>
      <trkpt lat="42.95155" lon="0.26658">
        <ele>1037.2</ele>
        <time>2021-05-29T08:25:15Z</time>
      </trkpt>
      <trkpt lat="42.95152" lon="0.26658">
        <ele>1036.2</ele>
        <time>2021-05-29T08:25:16Z</time>
      </trkpt>
      <trkpt lat="42.95149" lon="0.26659">
        <ele>1035.8</ele>
        <time>2021-05-29T08:25:17Z</time>
      </trkpt>
      <trkpt lat="42.95146" lon="0.26659">
        <ele>1035.4</ele>
        <time>2021-05-29T08:25:18Z</time>
      </trkpt>
      <trkpt lat="42.95143" lon="0.2666">
        <ele>1035.2</ele>
        <time>2021-05-29T08:25:19Z</time>
      </trkpt>
      <trkpt lat="42.9514" lon="0.26663">
        <ele>1034.8</ele>
        <time>2021-05-29T08:25:20Z</time>
      </trkpt>
      <trkpt lat="42.95138" lon="0.26665">
        <ele>1034.8</ele>
        <time>2021-05-29T08:25:21Z</time>
      </trkpt>
      <trkpt lat="42.95136" lon="0.26668">
        <ele>1034.6</ele>
        <time>2021-05-29T08:25:22Z</time>
      </trkpt>
      <trkpt lat="42.95134" lon="0.26671">
        <ele>1034.6</ele>
        <time>2021-05-29T08:25:23Z</time>
      </trkpt>
      <trkpt lat="42.95131" lon="0.26674">
        <ele>1034.4</ele>
        <time>2021-05-29T08:25:24Z</time>
      </trkpt>
      <trkpt lat="42.95128" lon="0.26676">
        <ele>1034.4</ele>
        <time>2021-05-29T08:25:25Z</time>
      </trkpt>
      <trkpt lat="42.95125" lon="0.26679">
        <ele>1034.4</ele>
        <time>2021-05-29T08:25:26Z</time>
      </trkpt>
      <trkpt lat="42.95119" lon="0.26683">
        <ele>1034.6</ele>
        <time>2021-05-29T08:25:28Z</time>
      </trkpt>
      <trkpt lat="42.95117" lon="0.26684">
        <ele>1034.6</ele>
        <time>2021-05-29T08:25:29Z</time>
      </trkpt>
      <trkpt lat="42.95114" lon="0.26686">
        <ele>1034.6</ele>
        <time>2021-05-29T08:25:30Z</time>
      </trkpt>
      <trkpt lat="42.95111" lon="0.26688">
        <ele>1034.6</ele>
        <time>2021-05-29T08:25:31Z</time>
      </trkpt>
      <trkpt lat="42.951" lon="0.26697">
        <ele>1035.2</ele>
        <time>2021-05-29T08:25:35Z</time>
      </trkpt>
      <trkpt lat="42.95097" lon="0.26698">
        <ele>1035.2</ele>
        <time>2021-05-29T08:25:36Z</time>
      </trkpt>
      <trkpt lat="42.95094" lon="0.267">
        <ele>1035.4</ele>
        <time>2021-05-29T08:25:37Z</time>
      </trkpt>
      <trkpt lat="42.95091" lon="0.26701">
        <ele>1035.4</ele>
        <time>2021-05-29T08:25:38Z</time>
      </trkpt>
      <trkpt lat="42.95087" lon="0.26704">
        <ele>1035.6</ele>
        <time>2021-05-29T08:25:39Z</time>
      </trkpt>
      <trkpt lat="42.95078" lon="0.26713">
        <ele>1035.6</ele>
        <time>2021-05-29T08:25:42Z</time>
      </trkpt>
      <trkpt lat="42.95076" lon="0.26716">
        <ele>1036</ele>
        <time>2021-05-29T08:25:43Z</time>
      </trkpt>
      <trkpt lat="42.95073" lon="0.26718">
        <ele>1036</ele>
        <time>2021-05-29T08:25:44Z</time>
      </trkpt>
      <trkpt lat="42.9507" lon="0.26721">
        <ele>1036.2</ele>
        <time>2021-05-29T08:25:45Z</time>
      </trkpt>
      <trkpt lat="42.95068" lon="0.26723">
        <ele>1036.2</ele>
        <time>2021-05-29T08:25:46Z</time>
      </trkpt>
      <trkpt lat="42.95066" lon="0.26725">
        <ele>1036.2</ele>
        <time>2021-05-29T08:25:47Z</time>
      </trkpt>
      <trkpt lat="42.95064" lon="0.26727">
        <ele>1036.4</ele>
        <time>2021-05-29T08:25:48Z</time>
      </trkpt>
      <trkpt lat="42.95062" lon="0.26729">
        <ele>1036.4</ele>
        <time>2021-05-29T08:25:49Z</time>
      </trkpt>
      <trkpt lat="42.9506" lon="0.26731">
        <ele>1036.6</ele>
        <time>2021-05-29T08:25:50Z</time>
      </trkpt>
      <trkpt lat="42.95059" lon="0.26732">
        <ele>1036.6</ele>
        <time>2021-05-29T08:25:51Z</time>
      </trkpt>
      <trkpt lat="42.95057" lon="0.26735">
        <ele>1037.2</ele>
        <time>2021-05-29T08:25:53Z</time>
      </trkpt>
      <trkpt lat="42.95055" lon="0.26737">
        <ele>1037.6</ele>
        <time>2021-05-29T08:25:54Z</time>
      </trkpt>
      <trkpt lat="42.95054" lon="0.26738">
        <ele>1037.6</ele>
        <time>2021-05-29T08:25:55Z</time>
      </trkpt>
      <trkpt lat="42.95052" lon="0.2674">
        <ele>1038</ele>
        <time>2021-05-29T08:25:56Z</time>
      </trkpt>
      <trkpt lat="42.95051" lon="0.26741">
        <ele>1038</ele>
        <time>2021-05-29T08:25:57Z</time>
      </trkpt>
      <trkpt lat="42.95051" lon="0.26741">
        <ele>1038.2</ele>
        <time>2021-05-29T08:25:58Z</time>
      </trkpt>
      <trkpt lat="42.95048" lon="0.26743">
        <ele>1038.4</ele>
        <time>2021-05-29T08:25:59Z</time>
      </trkpt>
      <trkpt lat="42.95046" lon="0.26743">
        <ele>1038.8</ele>
        <time>2021-05-29T08:26:00Z</time>
      </trkpt>
      <trkpt lat="42.95044" lon="0.26743">
        <ele>1038.8</ele>
        <time>2021-05-29T08:26:01Z</time>
      </trkpt>
      <trkpt lat="42.95042" lon="0.26742">
        <ele>1039.2</ele>
        <time>2021-05-29T08:26:02Z</time>
      </trkpt>
      <trkpt lat="42.9504" lon="0.26743">
        <ele>1039.4</ele>
        <time>2021-05-29T08:26:03Z</time>
      </trkpt>
      <trkpt lat="42.95038" lon="0.26743">
        <ele>1039.8</ele>
        <time>2021-05-29T08:26:04Z</time>
      </trkpt>
      <trkpt lat="42.95037" lon="0.26745">
        <ele>1039.8</ele>
        <time>2021-05-29T08:26:05Z</time>
      </trkpt>
      <trkpt lat="42.95035" lon="0.26746">
        <ele>1040.2</ele>
        <time>2021-05-29T08:26:06Z</time>
      </trkpt>
      <trkpt lat="42.95034" lon="0.26747">
        <ele>1040.4</ele>
        <time>2021-05-29T08:26:07Z</time>
      </trkpt>
      <trkpt lat="42.95033" lon="0.26748">
        <ele>1040.6</ele>
        <time>2021-05-29T08:26:08Z</time>
      </trkpt>
      <trkpt lat="42.95031" lon="0.26749">
        <ele>1040.8</ele>
        <time>2021-05-29T08:26:09Z</time>
      </trkpt>
      <trkpt lat="42.9503" lon="0.2675">
        <ele>1041</ele>
        <time>2021-05-29T08:26:10Z</time>
      </trkpt>
      <trkpt lat="42.95029" lon="0.26751">
        <ele>1041</ele>
        <time>2021-05-29T08:26:11Z</time>
      </trkpt>
      <trkpt lat="42.95027" lon="0.26753">
        <ele>1041.2</ele>
        <time>2021-05-29T08:26:12Z</time>
      </trkpt>
      <trkpt lat="42.95025" lon="0.26754">
        <ele>1041.4</ele>
        <time>2021-05-29T08:26:13Z</time>
      </trkpt>
      <trkpt lat="42.95023" lon="0.26755">
        <ele>1041.6</ele>
        <time>2021-05-29T08:26:14Z</time>
      </trkpt>
      <trkpt lat="42.95021" lon="0.26757">
        <ele>1042</ele>
        <time>2021-05-29T08:26:15Z</time>
      </trkpt>
      <trkpt lat="42.95019" lon="0.26758">
        <ele>1042</ele>
        <time>2021-05-29T08:26:16Z</time>
      </trkpt>
      <trkpt lat="42.95017" lon="0.26759">
        <ele>1042.4</ele>
        <time>2021-05-29T08:26:17Z</time>
      </trkpt>
      <trkpt lat="42.95016" lon="0.26759">
        <ele>1042.4</ele>
        <time>2021-05-29T08:26:18Z</time>
      </trkpt>
      <trkpt lat="42.95014" lon="0.2676">
        <ele>1042.8</ele>
        <time>2021-05-29T08:26:19Z</time>
      </trkpt>
      <trkpt lat="42.95013" lon="0.26761">
        <ele>1043</ele>
        <time>2021-05-29T08:26:20Z</time>
      </trkpt>
      <trkpt lat="42.95011" lon="0.26762">
        <ele>1043.2</ele>
        <time>2021-05-29T08:26:21Z</time>
      </trkpt>
      <trkpt lat="42.95009" lon="0.26762">
        <ele>1043.4</ele>
        <time>2021-05-29T08:26:22Z</time>
      </trkpt>
      <trkpt lat="42.95007" lon="0.26764">
        <ele>1043.8</ele>
        <time>2021-05-29T08:26:23Z</time>
      </trkpt>
      <trkpt lat="42.95006" lon="0.26765">
        <ele>1043.8</ele>
        <time>2021-05-29T08:26:24Z</time>
      </trkpt>
      <trkpt lat="42.95004" lon="0.26765">
        <ele>1044</ele>
        <time>2021-05-29T08:26:25Z</time>
      </trkpt>
      <trkpt lat="42.95002" lon="0.26766">
        <ele>1044.2</ele>
        <time>2021-05-29T08:26:26Z</time>
      </trkpt>
      <trkpt lat="42.95" lon="0.26766">
        <ele>1044.6</ele>
        <time>2021-05-29T08:26:27Z</time>
      </trkpt>
      <trkpt lat="42.94999" lon="0.26767">
        <ele>1045</ele>
        <time>2021-05-29T08:26:28Z</time>
      </trkpt>
      <trkpt lat="42.94997" lon="0.26768">
        <ele>1045</ele>
        <time>2021-05-29T08:26:29Z</time>
      </trkpt>
      <trkpt lat="42.94996" lon="0.2677">
        <ele>1045.2</ele>
        <time>2021-05-29T08:26:30Z</time>
      </trkpt>
      <trkpt lat="42.94994" lon="0.26771">
        <ele>1045.4</ele>
        <time>2021-05-29T08:26:31Z</time>
      </trkpt>
      <trkpt lat="42.94992" lon="0.26772">
        <ele>1045.6</ele>
        <time>2021-05-29T08:26:32Z</time>
      </trkpt>
      <trkpt lat="42.94991" lon="0.26773">
        <ele>1045.6</ele>
        <time>2021-05-29T08:26:33Z</time>
      </trkpt>
      <trkpt lat="42.94989" lon="0.26775">
        <ele>1046</ele>
        <time>2021-05-29T08:26:34Z</time>
      </trkpt>
      <trkpt lat="42.94988" lon="0.26777">
        <ele>1046.2</ele>
        <time>2021-05-29T08:26:35Z</time>
      </trkpt>
      <trkpt lat="42.94987" lon="0.26779">
        <ele>1046.4</ele>
        <time>2021-05-29T08:26:36Z</time>
      </trkpt>
      <trkpt lat="42.94986" lon="0.26781">
        <ele>1046.6</ele>
        <time>2021-05-29T08:26:37Z</time>
      </trkpt>
      <trkpt lat="42.94984" lon="0.26783">
        <ele>1046.8</ele>
        <time>2021-05-29T08:26:38Z</time>
      </trkpt>
      <trkpt lat="42.94984" lon="0.26785">
        <ele>1047</ele>
        <time>2021-05-29T08:26:39Z</time>
      </trkpt>
      <trkpt lat="42.94983" lon="0.26787">
        <ele>1047.2</ele>
        <time>2021-05-29T08:26:40Z</time>
      </trkpt>
      <trkpt lat="42.94982" lon="0.26789">
        <ele>1047.4</ele>
        <time>2021-05-29T08:26:41Z</time>
      </trkpt>
      <trkpt lat="42.94982" lon="0.26792">
        <ele>1047.8</ele>
        <time>2021-05-29T08:26:42Z</time>
      </trkpt>
      <trkpt lat="42.94982" lon="0.26794">
        <ele>1047.8</ele>
        <time>2021-05-29T08:26:43Z</time>
      </trkpt>
      <trkpt lat="42.94982" lon="0.26797">
        <ele>1048.2</ele>
        <time>2021-05-29T08:26:44Z</time>
      </trkpt>
      <trkpt lat="42.94982" lon="0.268">
        <ele>1048.4</ele>
        <time>2021-05-29T08:26:45Z</time>
      </trkpt>
      <trkpt lat="42.94981" lon="0.26802">
        <ele>1048.6</ele>
        <time>2021-05-29T08:26:46Z</time>
      </trkpt>
      <trkpt lat="42.9498" lon="0.26804">
        <ele>1048.8</ele>
        <time>2021-05-29T08:26:47Z</time>
      </trkpt>
      <trkpt lat="42.94979" lon="0.26807">
        <ele>1049</ele>
        <time>2021-05-29T08:26:48Z</time>
      </trkpt>
      <trkpt lat="42.94979" lon="0.2681">
        <ele>1049</ele>
        <time>2021-05-29T08:26:49Z</time>
      </trkpt>
      <trkpt lat="42.94978" lon="0.26813">
        <ele>1049.2</ele>
        <time>2021-05-29T08:26:50Z</time>
      </trkpt>
      <trkpt lat="42.94977" lon="0.26815">
        <ele>1049.4</ele>
        <time>2021-05-29T08:26:51Z</time>
      </trkpt>
      <trkpt lat="42.94977" lon="0.26818">
        <ele>1049.6</ele>
        <time>2021-05-29T08:26:52Z</time>
      </trkpt>
      <trkpt lat="42.94977" lon="0.2682">
        <ele>1050</ele>
        <time>2021-05-29T08:26:53Z</time>
      </trkpt>
      <trkpt lat="42.94977" lon="0.26823">
        <ele>1050</ele>
        <time>2021-05-29T08:26:54Z</time>
      </trkpt>
      <trkpt lat="42.94976" lon="0.26826">
        <ele>1050.2</ele>
        <time>2021-05-29T08:26:55Z</time>
      </trkpt>
      <trkpt lat="42.94977" lon="0.26829">
        <ele>1050.2</ele>
        <time>2021-05-29T08:26:56Z</time>
      </trkpt>
      <trkpt lat="42.94978" lon="0.26832">
        <ele>1050.4</ele>
        <time>2021-05-29T08:26:57Z</time>
      </trkpt>
      <trkpt lat="42.94979" lon="0.26835">
        <ele>1050.6</ele>
        <time>2021-05-29T08:26:58Z</time>
      </trkpt>
      <trkpt lat="42.94978" lon="0.26837">
        <ele>1050.6</ele>
        <time>2021-05-29T08:26:59Z</time>
      </trkpt>
      <trkpt lat="42.94978" lon="0.2684">
        <ele>1050.6</ele>
        <time>2021-05-29T08:27:00Z</time>
      </trkpt>
      <trkpt lat="42.94977" lon="0.26842">
        <ele>1050.8</ele>
        <time>2021-05-29T08:27:01Z</time>
      </trkpt>
      <trkpt lat="42.94977" lon="0.26845">
        <ele>1050.8</ele>
        <time>2021-05-29T08:27:02Z</time>
      </trkpt>
      <trkpt lat="42.94977" lon="0.26847">
        <ele>1051</ele>
        <time>2021-05-29T08:27:03Z</time>
      </trkpt>
      <trkpt lat="42.94977" lon="0.26849">
        <ele>1051</ele>
        <time>2021-05-29T08:27:04Z</time>
      </trkpt>
      <trkpt lat="42.94977" lon="0.26852">
        <ele>1051.2</ele>
        <time>2021-05-29T08:27:05Z</time>
      </trkpt>
      <trkpt lat="42.94977" lon="0.26854">
        <ele>1051.4</ele>
        <time>2021-05-29T08:27:06Z</time>
      </trkpt>
      <trkpt lat="42.94977" lon="0.26856">
        <ele>1051.4</ele>
        <time>2021-05-29T08:27:07Z</time>
      </trkpt>
      <trkpt lat="42.94977" lon="0.26858">
        <ele>1051.6</ele>
        <time>2021-05-29T08:27:08Z</time>
      </trkpt>
      <trkpt lat="42.94977" lon="0.2686">
        <ele>1051.6</ele>
        <time>2021-05-29T08:27:09Z</time>
      </trkpt>
      <trkpt lat="42.94977" lon="0.26863">
        <ele>1052</ele>
        <time>2021-05-29T08:27:10Z</time>
      </trkpt>
      <trkpt lat="42.94977" lon="0.26865">
        <ele>1052</ele>
        <time>2021-05-29T08:27:11Z</time>
      </trkpt>
      <trkpt lat="42.94977" lon="0.26867">
        <ele>1052.2</ele>
        <time>2021-05-29T08:27:12Z</time>
      </trkpt>
      <trkpt lat="42.94978" lon="0.2687">
        <ele>1052.2</ele>
        <time>2021-05-29T08:27:13Z</time>
      </trkpt>
      <trkpt lat="42.94978" lon="0.26872">
        <ele>1052.4</ele>
        <time>2021-05-29T08:27:14Z</time>
      </trkpt>
      <trkpt lat="42.94978" lon="0.26875">
        <ele>1052.6</ele>
        <time>2021-05-29T08:27:15Z</time>
      </trkpt>
      <trkpt lat="42.94978" lon="0.26877">
        <ele>1052.8</ele>
        <time>2021-05-29T08:27:16Z</time>
      </trkpt>
      <trkpt lat="42.94978" lon="0.2688">
        <ele>1052.8</ele>
        <time>2021-05-29T08:27:17Z</time>
      </trkpt>
      <trkpt lat="42.94978" lon="0.26882">
        <ele>1053</ele>
        <time>2021-05-29T08:27:18Z</time>
      </trkpt>
      <trkpt lat="42.94977" lon="0.26885">
        <ele>1053.2</ele>
        <time>2021-05-29T08:27:19Z</time>
      </trkpt>
      <trkpt lat="42.94977" lon="0.26887">
        <ele>1053.4</ele>
        <time>2021-05-29T08:27:20Z</time>
      </trkpt>
      <trkpt lat="42.94977" lon="0.26889">
        <ele>1053.6</ele>
        <time>2021-05-29T08:27:21Z</time>
      </trkpt>
      <trkpt lat="42.94976" lon="0.26891">
        <ele>1054</ele>
        <time>2021-05-29T08:27:22Z</time>
      </trkpt>
      <trkpt lat="42.94976" lon="0.26893">
        <ele>1054</ele>
        <time>2021-05-29T08:27:23Z</time>
      </trkpt>
      <trkpt lat="42.94976" lon="0.26895">
        <ele>1054</ele>
        <time>2021-05-29T08:27:24Z</time>
      </trkpt>
      <trkpt lat="42.94976" lon="0.26897">
        <ele>1054.2</ele>
        <time>2021-05-29T08:27:25Z</time>
      </trkpt>
      <trkpt lat="42.94976" lon="0.26898">
        <ele>1054.2</ele>
        <time>2021-05-29T08:27:26Z</time>
      </trkpt>
      <trkpt lat="42.94978" lon="0.26899">
        <ele>1054.4</ele>
        <time>2021-05-29T08:27:27Z</time>
      </trkpt>
      <trkpt lat="42.94979" lon="0.26899">
        <ele>1054.4</ele>
        <time>2021-05-29T08:27:28Z</time>
      </trkpt>
      <trkpt lat="42.94981" lon="0.26899">
        <ele>1054.6</ele>
        <time>2021-05-29T08:27:29Z</time>
      </trkpt>
      <trkpt lat="42.94983" lon="0.269">
        <ele>1054.8</ele>
        <time>2021-05-29T08:27:30Z</time>
      </trkpt>
      <trkpt lat="42.94985" lon="0.26903">
        <ele>1054.8</ele>
        <time>2021-05-29T08:27:31Z</time>
      </trkpt>
      <trkpt lat="42.94986" lon="0.26907">
        <ele>1054.8</ele>
        <time>2021-05-29T08:27:32Z</time>
      </trkpt>
      <trkpt lat="42.94987" lon="0.26913">
        <ele>1055</ele>
        <time>2021-05-29T08:27:33Z</time>
      </trkpt>
      <trkpt lat="42.94988" lon="0.26919">
        <ele>1055</ele>
        <time>2021-05-29T08:27:34Z</time>
      </trkpt>
      <trkpt lat="42.94989" lon="0.26926">
        <ele>1055</ele>
        <time>2021-05-29T08:27:35Z</time>
      </trkpt>
      <trkpt lat="42.94989" lon="0.26932">
        <ele>1055</ele>
        <time>2021-05-29T08:27:36Z</time>
      </trkpt>
      <trkpt lat="42.9499" lon="0.26939">
        <ele>1055</ele>
        <time>2021-05-29T08:27:37Z</time>
      </trkpt>
      <trkpt lat="42.9499" lon="0.26946">
        <ele>1054.8</ele>
        <time>2021-05-29T08:27:38Z</time>
      </trkpt>
      <trkpt lat="42.9499" lon="0.26953">
        <ele>1054.6</ele>
        <time>2021-05-29T08:27:39Z</time>
      </trkpt>
      <trkpt lat="42.9499" lon="0.26959">
        <ele>1054.4</ele>
        <time>2021-05-29T08:27:40Z</time>
      </trkpt>
      <trkpt lat="42.94989" lon="0.26966">
        <ele>1054.2</ele>
        <time>2021-05-29T08:27:41Z</time>
      </trkpt>
      <trkpt lat="42.94984" lon="0.26994">
        <ele>1053.6</ele>
        <time>2021-05-29T08:27:46Z</time>
      </trkpt>
      <trkpt lat="42.94983" lon="0.26999">
        <ele>1053.4</ele>
        <time>2021-05-29T08:27:47Z</time>
      </trkpt>
      <trkpt lat="42.94982" lon="0.27004">
        <ele>1053.4</ele>
        <time>2021-05-29T08:27:48Z</time>
      </trkpt>
      <trkpt lat="42.94981" lon="0.27008">
        <ele>1053.4</ele>
        <time>2021-05-29T08:27:49Z</time>
      </trkpt>
      <trkpt lat="42.94979" lon="0.27013">
        <ele>1053.2</ele>
        <time>2021-05-29T08:27:50Z</time>
      </trkpt>
      <trkpt lat="42.94978" lon="0.27017">
        <ele>1053.2</ele>
        <time>2021-05-29T08:27:51Z</time>
      </trkpt>
      <trkpt lat="42.94978" lon="0.27021">
        <ele>1053.2</ele>
        <time>2021-05-29T08:27:52Z</time>
      </trkpt>
      <trkpt lat="42.94979" lon="0.27025">
        <ele>1053.2</ele>
        <time>2021-05-29T08:27:53Z</time>
      </trkpt>
      <trkpt lat="42.94979" lon="0.2703">
        <ele>1053.2</ele>
        <time>2021-05-29T08:27:54Z</time>
      </trkpt>
      <trkpt lat="42.94979" lon="0.27033">
        <ele>1053.4</ele>
        <time>2021-05-29T08:27:55Z</time>
      </trkpt>
      <trkpt lat="42.94981" lon="0.27044">
        <ele>1053.6</ele>
        <time>2021-05-29T08:27:58Z</time>
      </trkpt>
      <trkpt lat="42.94983" lon="0.27047">
        <ele>1053.6</ele>
        <time>2021-05-29T08:27:59Z</time>
      </trkpt>
      <trkpt lat="42.94984" lon="0.2705">
        <ele>1053.6</ele>
        <time>2021-05-29T08:28:00Z</time>
      </trkpt>
      <trkpt lat="42.94985" lon="0.27052">
        <ele>1054</ele>
        <time>2021-05-29T08:28:01Z</time>
      </trkpt>
      <trkpt lat="42.94986" lon="0.27054">
        <ele>1054</ele>
        <time>2021-05-29T08:28:02Z</time>
      </trkpt>
      <trkpt lat="42.94987" lon="0.27056">
        <ele>1054.2</ele>
        <time>2021-05-29T08:28:03Z</time>
      </trkpt>
      <trkpt lat="42.94988" lon="0.27057">
        <ele>1054.4</ele>
        <time>2021-05-29T08:28:04Z</time>
      </trkpt>
      <trkpt lat="42.94989" lon="0.27059">
        <ele>1054.8</ele>
        <time>2021-05-29T08:28:05Z</time>
      </trkpt>
      <trkpt lat="42.9499" lon="0.2706">
        <ele>1054.8</ele>
        <time>2021-05-29T08:28:06Z</time>
      </trkpt>
      <trkpt lat="42.9499" lon="0.27061">
        <ele>1055</ele>
        <time>2021-05-29T08:28:07Z</time>
      </trkpt>
      <trkpt lat="42.94991" lon="0.27062">
        <ele>1055.2</ele>
        <time>2021-05-29T08:28:08Z</time>
      </trkpt>
      <trkpt lat="42.94993" lon="0.27063">
        <ele>1055.4</ele>
        <time>2021-05-29T08:28:09Z</time>
      </trkpt>
      <trkpt lat="42.94995" lon="0.27064">
        <ele>1055.6</ele>
        <time>2021-05-29T08:28:10Z</time>
      </trkpt>
      <trkpt lat="42.94996" lon="0.27065">
        <ele>1055.8</ele>
        <time>2021-05-29T08:28:11Z</time>
      </trkpt>
      <trkpt lat="42.94997" lon="0.27065">
        <ele>1056</ele>
        <time>2021-05-29T08:28:12Z</time>
      </trkpt>
      <trkpt lat="42.95001" lon="0.27066">
        <ele>1056.6</ele>
        <time>2021-05-29T08:28:14Z</time>
      </trkpt>
      <trkpt lat="42.95002" lon="0.27067">
        <ele>1056.6</ele>
        <time>2021-05-29T08:28:15Z</time>
      </trkpt>
      <trkpt lat="42.95004" lon="0.27069">
        <ele>1057</ele>
        <time>2021-05-29T08:28:16Z</time>
      </trkpt>
      <trkpt lat="42.95005" lon="0.2707">
        <ele>1057.2</ele>
        <time>2021-05-29T08:28:17Z</time>
      </trkpt>
      <trkpt lat="42.95006" lon="0.27071">
        <ele>1057.4</ele>
        <time>2021-05-29T08:28:18Z</time>
      </trkpt>
      <trkpt lat="42.95008" lon="0.27072">
        <ele>1057.6</ele>
        <time>2021-05-29T08:28:19Z</time>
      </trkpt>
      <trkpt lat="42.95011" lon="0.27071">
        <ele>1057.6</ele>
        <time>2021-05-29T08:28:20Z</time>
      </trkpt>
      <trkpt lat="42.95012" lon="0.27071">
        <ele>1057.8</ele>
        <time>2021-05-29T08:28:21Z</time>
      </trkpt>
      <trkpt lat="42.95014" lon="0.27071">
        <ele>1058.2</ele>
        <time>2021-05-29T08:28:22Z</time>
      </trkpt>
      <trkpt lat="42.95016" lon="0.27071">
        <ele>1058.6</ele>
        <time>2021-05-29T08:28:23Z</time>
      </trkpt>
      <trkpt lat="42.95018" lon="0.27071">
        <ele>1058.8</ele>
        <time>2021-05-29T08:28:24Z</time>
      </trkpt>
      <trkpt lat="42.95019" lon="0.27072">
        <ele>1059.2</ele>
        <time>2021-05-29T08:28:25Z</time>
      </trkpt>
      <trkpt lat="42.9502" lon="0.27073">
        <ele>1059.6</ele>
        <time>2021-05-29T08:28:26Z</time>
      </trkpt>
      <trkpt lat="42.95021" lon="0.27073">
        <ele>1059.8</ele>
        <time>2021-05-29T08:28:27Z</time>
      </trkpt>
      <trkpt lat="42.95023" lon="0.27074">
        <ele>1060</ele>
        <time>2021-05-29T08:28:28Z</time>
      </trkpt>
      <trkpt lat="42.95025" lon="0.27074">
        <ele>1060</ele>
        <time>2021-05-29T08:28:29Z</time>
      </trkpt>
      <trkpt lat="42.95026" lon="0.27075">
        <ele>1060.4</ele>
        <time>2021-05-29T08:28:30Z</time>
      </trkpt>
      <trkpt lat="42.95028" lon="0.27074">
        <ele>1060.8</ele>
        <time>2021-05-29T08:28:31Z</time>
      </trkpt>
      <trkpt lat="42.95029" lon="0.27073">
        <ele>1061.2</ele>
        <time>2021-05-29T08:28:32Z</time>
      </trkpt>
      <trkpt lat="42.95032" lon="0.27072">
        <ele>1061.6</ele>
        <time>2021-05-29T08:28:33Z</time>
      </trkpt>
      <trkpt lat="42.95033" lon="0.27072">
        <ele>1061.8</ele>
        <time>2021-05-29T08:28:34Z</time>
      </trkpt>
      <trkpt lat="42.95035" lon="0.27072">
        <ele>1062.2</ele>
        <time>2021-05-29T08:28:35Z</time>
      </trkpt>
      <trkpt lat="42.95037" lon="0.27073">
        <ele>1062.2</ele>
        <time>2021-05-29T08:28:36Z</time>
      </trkpt>
      <trkpt lat="42.95038" lon="0.27072">
        <ele>1062.6</ele>
        <time>2021-05-29T08:28:37Z</time>
      </trkpt>
      <trkpt lat="42.9504" lon="0.27071">
        <ele>1062.8</ele>
        <time>2021-05-29T08:28:38Z</time>
      </trkpt>
      <trkpt lat="42.95041" lon="0.27071">
        <ele>1063.2</ele>
        <time>2021-05-29T08:28:39Z</time>
      </trkpt>
      <trkpt lat="42.95043" lon="0.27073">
        <ele>1063.4</ele>
        <time>2021-05-29T08:28:40Z</time>
      </trkpt>
      <trkpt lat="42.95045" lon="0.27074">
        <ele>1063.8</ele>
        <time>2021-05-29T08:28:41Z</time>
      </trkpt>
      <trkpt lat="42.95047" lon="0.27073">
        <ele>1064</ele>
        <time>2021-05-29T08:28:42Z</time>
      </trkpt>
      <trkpt lat="42.95049" lon="0.27073">
        <ele>1064.2</ele>
        <time>2021-05-29T08:28:43Z</time>
      </trkpt>
      <trkpt lat="42.95051" lon="0.27073">
        <ele>1064.2</ele>
        <time>2021-05-29T08:28:44Z</time>
      </trkpt>
      <trkpt lat="42.95052" lon="0.27074">
        <ele>1064.6</ele>
        <time>2021-05-29T08:28:45Z</time>
      </trkpt>
      <trkpt lat="42.95054" lon="0.27074">
        <ele>1064.8</ele>
        <time>2021-05-29T08:28:46Z</time>
      </trkpt>
      <trkpt lat="42.95055" lon="0.27076">
        <ele>1065.2</ele>
        <time>2021-05-29T08:28:47Z</time>
      </trkpt>
      <trkpt lat="42.95056" lon="0.27077">
        <ele>1065.4</ele>
        <time>2021-05-29T08:28:48Z</time>
      </trkpt>
      <trkpt lat="42.95057" lon="0.27079">
        <ele>1065.6</ele>
        <time>2021-05-29T08:28:49Z</time>
      </trkpt>
      <trkpt lat="42.95058" lon="0.2708">
        <ele>1065.8</ele>
        <time>2021-05-29T08:28:50Z</time>
      </trkpt>
      <trkpt lat="42.95059" lon="0.27081">
        <ele>1066</ele>
        <time>2021-05-29T08:28:51Z</time>
      </trkpt>
      <trkpt lat="42.95061" lon="0.2708">
        <ele>1066.2</ele>
        <time>2021-05-29T08:28:52Z</time>
      </trkpt>
      <trkpt lat="42.95063" lon="0.2708">
        <ele>1066.4</ele>
        <time>2021-05-29T08:28:53Z</time>
      </trkpt>
      <trkpt lat="42.95065" lon="0.2708">
        <ele>1066.8</ele>
        <time>2021-05-29T08:28:54Z</time>
      </trkpt>
      <trkpt lat="42.95066" lon="0.27081">
        <ele>1066.8</ele>
        <time>2021-05-29T08:28:55Z</time>
      </trkpt>
      <trkpt lat="42.95067" lon="0.27081">
        <ele>1067.2</ele>
        <time>2021-05-29T08:28:56Z</time>
      </trkpt>
      <trkpt lat="42.95068" lon="0.27081">
        <ele>1067.2</ele>
        <time>2021-05-29T08:28:57Z</time>
      </trkpt>
      <trkpt lat="42.95069" lon="0.27081">
        <ele>1067.4</ele>
        <time>2021-05-29T08:28:58Z</time>
      </trkpt>
      <trkpt lat="42.95071" lon="0.2708">
        <ele>1067.6</ele>
        <time>2021-05-29T08:28:59Z</time>
      </trkpt>
      <trkpt lat="42.95072" lon="0.2708">
        <ele>1067.8</ele>
        <time>2021-05-29T08:29:00Z</time>
      </trkpt>
      <trkpt lat="42.95074" lon="0.2708">
        <ele>1068</ele>
        <time>2021-05-29T08:29:01Z</time>
      </trkpt>
      <trkpt lat="42.95075" lon="0.2708">
        <ele>1068.2</ele>
        <time>2021-05-29T08:29:02Z</time>
      </trkpt>
      <trkpt lat="42.95077" lon="0.27079">
        <ele>1068.2</ele>
        <time>2021-05-29T08:29:03Z</time>
      </trkpt>
      <trkpt lat="42.95079" lon="0.27078">
        <ele>1068.6</ele>
        <time>2021-05-29T08:29:04Z</time>
      </trkpt>
      <trkpt lat="42.95081" lon="0.27078">
        <ele>1068.6</ele>
        <time>2021-05-29T08:29:05Z</time>
      </trkpt>
      <trkpt lat="42.95082" lon="0.27077">
        <ele>1069</ele>
        <time>2021-05-29T08:29:06Z</time>
      </trkpt>
      <trkpt lat="42.95084" lon="0.27077">
        <ele>1069</ele>
        <time>2021-05-29T08:29:07Z</time>
      </trkpt>
      <trkpt lat="42.95085" lon="0.27076">
        <ele>1069.4</ele>
        <time>2021-05-29T08:29:08Z</time>
      </trkpt>
      <trkpt lat="42.95087" lon="0.27076">
        <ele>1069.6</ele>
        <time>2021-05-29T08:29:09Z</time>
      </trkpt>
      <trkpt lat="42.95088" lon="0.27075">
        <ele>1069.8</ele>
        <time>2021-05-29T08:29:10Z</time>
      </trkpt>
      <trkpt lat="42.95089" lon="0.27077">
        <ele>1070</ele>
        <time>2021-05-29T08:29:11Z</time>
      </trkpt>
      <trkpt lat="42.95089" lon="0.27079">
        <ele>1070.2</ele>
        <time>2021-05-29T08:29:12Z</time>
      </trkpt>
      <trkpt lat="42.95089" lon="0.2708">
        <ele>1070.4</ele>
        <time>2021-05-29T08:29:13Z</time>
      </trkpt>
      <trkpt lat="42.95092" lon="0.27078">
        <ele>1070.4</ele>
        <time>2021-05-29T08:29:14Z</time>
      </trkpt>
      <trkpt lat="42.95093" lon="0.27078">
        <ele>1070.8</ele>
        <time>2021-05-29T08:29:15Z</time>
      </trkpt>
      <trkpt lat="42.95095" lon="0.27078">
        <ele>1071</ele>
        <time>2021-05-29T08:29:16Z</time>
      </trkpt>
      <trkpt lat="42.95097" lon="0.27077">
        <ele>1071.2</ele>
        <time>2021-05-29T08:29:17Z</time>
      </trkpt>
      <trkpt lat="42.95098" lon="0.27077">
        <ele>1071.4</ele>
        <time>2021-05-29T08:29:18Z</time>
      </trkpt>
      <trkpt lat="42.951" lon="0.27077">
        <ele>1071.8</ele>
        <time>2021-05-29T08:29:19Z</time>
      </trkpt>
      <trkpt lat="42.95101" lon="0.27077">
        <ele>1072</ele>
        <time>2021-05-29T08:29:20Z</time>
      </trkpt>
      <trkpt lat="42.95102" lon="0.27077">
        <ele>1072.2</ele>
        <time>2021-05-29T08:29:21Z</time>
      </trkpt>
      <trkpt lat="42.95103" lon="0.27077">
        <ele>1072.4</ele>
        <time>2021-05-29T08:29:22Z</time>
      </trkpt>
      <trkpt lat="42.95105" lon="0.27077">
        <ele>1072.6</ele>
        <time>2021-05-29T08:29:23Z</time>
      </trkpt>
      <trkpt lat="42.95107" lon="0.27077">
        <ele>1072.8</ele>
        <time>2021-05-29T08:29:24Z</time>
      </trkpt>
      <trkpt lat="42.95108" lon="0.27076">
        <ele>1073</ele>
        <time>2021-05-29T08:29:25Z</time>
      </trkpt>
      <trkpt lat="42.9511" lon="0.27075">
        <ele>1073</ele>
        <time>2021-05-29T08:29:26Z</time>
      </trkpt>
      <trkpt lat="42.95112" lon="0.27075">
        <ele>1073.2</ele>
        <time>2021-05-29T08:29:27Z</time>
      </trkpt>
      <trkpt lat="42.95114" lon="0.27075">
        <ele>1073.2</ele>
        <time>2021-05-29T08:29:28Z</time>
      </trkpt>
      <trkpt lat="42.95115" lon="0.27075">
        <ele>1073.4</ele>
        <time>2021-05-29T08:29:29Z</time>
      </trkpt>
      <trkpt lat="42.95116" lon="0.27075">
        <ele>1073.4</ele>
        <time>2021-05-29T08:29:30Z</time>
      </trkpt>
      <trkpt lat="42.95118" lon="0.27076">
        <ele>1073.6</ele>
        <time>2021-05-29T08:29:31Z</time>
      </trkpt>
      <trkpt lat="42.95119" lon="0.27077">
        <ele>1073.6</ele>
        <time>2021-05-29T08:29:32Z</time>
      </trkpt>
      <trkpt lat="42.95121" lon="0.27076">
        <ele>1073.8</ele>
        <time>2021-05-29T08:29:33Z</time>
      </trkpt>
      <trkpt lat="42.95123" lon="0.27077">
        <ele>1074</ele>
        <time>2021-05-29T08:29:34Z</time>
      </trkpt>
      <trkpt lat="42.95125" lon="0.27078">
        <ele>1074.2</ele>
        <time>2021-05-29T08:29:35Z</time>
      </trkpt>
      <trkpt lat="42.95127" lon="0.27078">
        <ele>1074.2</ele>
        <time>2021-05-29T08:29:36Z</time>
      </trkpt>
      <trkpt lat="42.95129" lon="0.27079">
        <ele>1074.4</ele>
        <time>2021-05-29T08:29:37Z</time>
      </trkpt>
      <trkpt lat="42.95131" lon="0.27079">
        <ele>1074.6</ele>
        <time>2021-05-29T08:29:38Z</time>
      </trkpt>
      <trkpt lat="42.95132" lon="0.27078">
        <ele>1074.6</ele>
        <time>2021-05-29T08:29:39Z</time>
      </trkpt>
      <trkpt lat="42.95134" lon="0.27078">
        <ele>1074.8</ele>
        <time>2021-05-29T08:29:40Z</time>
      </trkpt>
      <trkpt lat="42.95136" lon="0.27078">
        <ele>1074.8</ele>
        <time>2021-05-29T08:29:41Z</time>
      </trkpt>
      <trkpt lat="42.95137" lon="0.27078">
        <ele>1075</ele>
        <time>2021-05-29T08:29:42Z</time>
      </trkpt>
      <trkpt lat="42.95139" lon="0.27079">
        <ele>1075.2</ele>
        <time>2021-05-29T08:29:43Z</time>
      </trkpt>
      <trkpt lat="42.9514" lon="0.27078">
        <ele>1075.2</ele>
        <time>2021-05-29T08:29:44Z</time>
      </trkpt>
      <trkpt lat="42.95143" lon="0.27078">
        <ele>1075.4</ele>
        <time>2021-05-29T08:29:45Z</time>
      </trkpt>
      <trkpt lat="42.95145" lon="0.27078">
        <ele>1075.4</ele>
        <time>2021-05-29T08:29:46Z</time>
      </trkpt>
      <trkpt lat="42.95147" lon="0.27077">
        <ele>1075.6</ele>
        <time>2021-05-29T08:29:47Z</time>
      </trkpt>
      <trkpt lat="42.95148" lon="0.27077">
        <ele>1075.6</ele>
        <time>2021-05-29T08:29:48Z</time>
      </trkpt>
      <trkpt lat="42.9515" lon="0.27078">
        <ele>1075.8</ele>
        <time>2021-05-29T08:29:49Z</time>
      </trkpt>
      <trkpt lat="42.95152" lon="0.27078">
        <ele>1075.8</ele>
        <time>2021-05-29T08:29:50Z</time>
      </trkpt>
      <trkpt lat="42.95154" lon="0.27077">
        <ele>1076.2</ele>
        <time>2021-05-29T08:29:51Z</time>
      </trkpt>
      <trkpt lat="42.95155" lon="0.27077">
        <ele>1076.2</ele>
        <time>2021-05-29T08:29:52Z</time>
      </trkpt>
      <trkpt lat="42.95157" lon="0.27077">
        <ele>1076.4</ele>
        <time>2021-05-29T08:29:53Z</time>
      </trkpt>
      <trkpt lat="42.95159" lon="0.27078">
        <ele>1076.6</ele>
        <time>2021-05-29T08:29:54Z</time>
      </trkpt>
      <trkpt lat="42.95161" lon="0.27078">
        <ele>1076.6</ele>
        <time>2021-05-29T08:29:55Z</time>
      </trkpt>
      <trkpt lat="42.95162" lon="0.27078">
        <ele>1076.8</ele>
        <time>2021-05-29T08:29:56Z</time>
      </trkpt>
      <trkpt lat="42.95164" lon="0.27078">
        <ele>1077</ele>
        <time>2021-05-29T08:29:57Z</time>
      </trkpt>
      <trkpt lat="42.95166" lon="0.27078">
        <ele>1077</ele>
        <time>2021-05-29T08:29:58Z</time>
      </trkpt>
      <trkpt lat="42.95167" lon="0.27078">
        <ele>1077.2</ele>
        <time>2021-05-29T08:29:59Z</time>
      </trkpt>
      <trkpt lat="42.95169" lon="0.27079">
        <ele>1077.4</ele>
        <time>2021-05-29T08:30:00Z</time>
      </trkpt>
      <trkpt lat="42.9517" lon="0.27079">
        <ele>1077.6</ele>
        <time>2021-05-29T08:30:01Z</time>
      </trkpt>
      <trkpt lat="42.95172" lon="0.27078">
        <ele>1077.6</ele>
        <time>2021-05-29T08:30:02Z</time>
      </trkpt>
      <trkpt lat="42.95174" lon="0.27078">
        <ele>1078</ele>
        <time>2021-05-29T08:30:03Z</time>
      </trkpt>
      <trkpt lat="42.95175" lon="0.27078">
        <ele>1078</ele>
        <time>2021-05-29T08:30:04Z</time>
      </trkpt>
      <trkpt lat="42.95177" lon="0.27078">
        <ele>1078.2</ele>
        <time>2021-05-29T08:30:05Z</time>
      </trkpt>
      <trkpt lat="42.95179" lon="0.27078">
        <ele>1078.2</ele>
        <time>2021-05-29T08:30:06Z</time>
      </trkpt>
      <trkpt lat="42.9518" lon="0.27079">
        <ele>1078.4</ele>
        <time>2021-05-29T08:30:07Z</time>
      </trkpt>
      <trkpt lat="42.95182" lon="0.27079">
        <ele>1078.4</ele>
        <time>2021-05-29T08:30:08Z</time>
      </trkpt>
      <trkpt lat="42.95184" lon="0.27079">
        <ele>1078.4</ele>
        <time>2021-05-29T08:30:09Z</time>
      </trkpt>
      <trkpt lat="42.95186" lon="0.27079">
        <ele>1078.6</ele>
        <time>2021-05-29T08:30:10Z</time>
      </trkpt>
      <trkpt lat="42.95188" lon="0.27079">
        <ele>1078.8</ele>
        <time>2021-05-29T08:30:11Z</time>
      </trkpt>
      <trkpt lat="42.9519" lon="0.27079">
        <ele>1079.2</ele>
        <time>2021-05-29T08:30:12Z</time>
      </trkpt>
      <trkpt lat="42.95191" lon="0.2708">
        <ele>1079.2</ele>
        <time>2021-05-29T08:30:13Z</time>
      </trkpt>
      <trkpt lat="42.95193" lon="0.2708">
        <ele>1079.4</ele>
        <time>2021-05-29T08:30:14Z</time>
      </trkpt>
      <trkpt lat="42.95194" lon="0.27081">
        <ele>1079.6</ele>
        <time>2021-05-29T08:30:15Z</time>
      </trkpt>
      <trkpt lat="42.95196" lon="0.27082">
        <ele>1079.6</ele>
        <time>2021-05-29T08:30:16Z</time>
      </trkpt>
      <trkpt lat="42.95197" lon="0.27082">
        <ele>1079.8</ele>
        <time>2021-05-29T08:30:17Z</time>
      </trkpt>
      <trkpt lat="42.95199" lon="0.27083">
        <ele>1080</ele>
        <time>2021-05-29T08:30:18Z</time>
      </trkpt>
      <trkpt lat="42.952" lon="0.27084">
        <ele>1080</ele>
        <time>2021-05-29T08:30:19Z</time>
      </trkpt>
      <trkpt lat="42.95201" lon="0.27084">
        <ele>1080.2</ele>
        <time>2021-05-29T08:30:20Z</time>
      </trkpt>
      <trkpt lat="42.95202" lon="0.27084">
        <ele>1080.2</ele>
        <time>2021-05-29T08:30:21Z</time>
      </trkpt>
      <trkpt lat="42.95204" lon="0.27085">
        <ele>1080.4</ele>
        <time>2021-05-29T08:30:22Z</time>
      </trkpt>
      <trkpt lat="42.95205" lon="0.27086">
        <ele>1080.6</ele>
        <time>2021-05-29T08:30:23Z</time>
      </trkpt>
      <trkpt lat="42.95206" lon="0.27086">
        <ele>1080.8</ele>
        <time>2021-05-29T08:30:24Z</time>
      </trkpt>
      <trkpt lat="42.95208" lon="0.27087">
        <ele>1081</ele>
        <time>2021-05-29T08:30:25Z</time>
      </trkpt>
      <trkpt lat="42.95209" lon="0.27087">
        <ele>1081</ele>
        <time>2021-05-29T08:30:26Z</time>
      </trkpt>
      <trkpt lat="42.9521" lon="0.27088">
        <ele>1081</ele>
        <time>2021-05-29T08:30:27Z</time>
      </trkpt>
      <trkpt lat="42.95212" lon="0.27089">
        <ele>1081.2</ele>
        <time>2021-05-29T08:30:28Z</time>
      </trkpt>
      <trkpt lat="42.95213" lon="0.2709">
        <ele>1081.4</ele>
        <time>2021-05-29T08:30:29Z</time>
      </trkpt>
      <trkpt lat="42.95214" lon="0.27091">
        <ele>1081.6</ele>
        <time>2021-05-29T08:30:30Z</time>
      </trkpt>
      <trkpt lat="42.95215" lon="0.27091">
        <ele>1081.8</ele>
        <time>2021-05-29T08:30:31Z</time>
      </trkpt>
      <trkpt lat="42.95216" lon="0.27092">
        <ele>1082</ele>
        <time>2021-05-29T08:30:32Z</time>
      </trkpt>
      <trkpt lat="42.95218" lon="0.27092">
        <ele>1082</ele>
        <time>2021-05-29T08:30:33Z</time>
      </trkpt>
      <trkpt lat="42.95219" lon="0.27093">
        <ele>1082.2</ele>
        <time>2021-05-29T08:30:34Z</time>
      </trkpt>
      <trkpt lat="42.95221" lon="0.27093">
        <ele>1082.4</ele>
        <time>2021-05-29T08:30:35Z</time>
      </trkpt>
      <trkpt lat="42.95222" lon="0.27094">
        <ele>1082.4</ele>
        <time>2021-05-29T08:30:36Z</time>
      </trkpt>
      <trkpt lat="42.95223" lon="0.27095">
        <ele>1082.8</ele>
        <time>2021-05-29T08:30:37Z</time>
      </trkpt>
      <trkpt lat="42.95224" lon="0.27096">
        <ele>1083</ele>
        <time>2021-05-29T08:30:38Z</time>
      </trkpt>
      <trkpt lat="42.95226" lon="0.27097">
        <ele>1083.4</ele>
        <time>2021-05-29T08:30:39Z</time>
      </trkpt>
      <trkpt lat="42.95228" lon="0.27098">
        <ele>1083.6</ele>
        <time>2021-05-29T08:30:40Z</time>
      </trkpt>
      <trkpt lat="42.95229" lon="0.27099">
        <ele>1083.6</ele>
        <time>2021-05-29T08:30:41Z</time>
      </trkpt>
      <trkpt lat="42.95231" lon="0.271">
        <ele>1083.6</ele>
        <time>2021-05-29T08:30:42Z</time>
      </trkpt>
      <trkpt lat="42.95233" lon="0.27101">
        <ele>1083.8</ele>
        <time>2021-05-29T08:30:43Z</time>
      </trkpt>
      <trkpt lat="42.95234" lon="0.27103">
        <ele>1084</ele>
        <time>2021-05-29T08:30:44Z</time>
      </trkpt>
      <trkpt lat="42.95236" lon="0.27104">
        <ele>1084</ele>
        <time>2021-05-29T08:30:45Z</time>
      </trkpt>
      <trkpt lat="42.95238" lon="0.27106">
        <ele>1084.2</ele>
        <time>2021-05-29T08:30:46Z</time>
      </trkpt>
      <trkpt lat="42.9524" lon="0.27107">
        <ele>1084.2</ele>
        <time>2021-05-29T08:30:47Z</time>
      </trkpt>
      <trkpt lat="42.95241" lon="0.27108">
        <ele>1084.4</ele>
        <time>2021-05-29T08:30:48Z</time>
      </trkpt>
      <trkpt lat="42.95243" lon="0.27109">
        <ele>1084.4</ele>
        <time>2021-05-29T08:30:49Z</time>
      </trkpt>
      <trkpt lat="42.95245" lon="0.27111">
        <ele>1084.6</ele>
        <time>2021-05-29T08:30:50Z</time>
      </trkpt>
      <trkpt lat="42.95247" lon="0.27112">
        <ele>1084.8</ele>
        <time>2021-05-29T08:30:51Z</time>
      </trkpt>
      <trkpt lat="42.95248" lon="0.27114">
        <ele>1085</ele>
        <time>2021-05-29T08:30:52Z</time>
      </trkpt>
      <trkpt lat="42.9525" lon="0.27115">
        <ele>1085</ele>
        <time>2021-05-29T08:30:53Z</time>
      </trkpt>
      <trkpt lat="42.95251" lon="0.27117">
        <ele>1085.4</ele>
        <time>2021-05-29T08:30:54Z</time>
      </trkpt>
      <trkpt lat="42.95252" lon="0.27118">
        <ele>1085.4</ele>
        <time>2021-05-29T08:30:55Z</time>
      </trkpt>
      <trkpt lat="42.95254" lon="0.27119">
        <ele>1085.6</ele>
        <time>2021-05-29T08:30:56Z</time>
      </trkpt>
      <trkpt lat="42.95256" lon="0.27121">
        <ele>1085.6</ele>
        <time>2021-05-29T08:30:57Z</time>
      </trkpt>
      <trkpt lat="42.95257" lon="0.27122">
        <ele>1085.8</ele>
        <time>2021-05-29T08:30:58Z</time>
      </trkpt>
      <trkpt lat="42.95259" lon="0.27124">
        <ele>1085.8</ele>
        <time>2021-05-29T08:30:59Z</time>
      </trkpt>
      <trkpt lat="42.9526" lon="0.27125">
        <ele>1086</ele>
        <time>2021-05-29T08:31:00Z</time>
      </trkpt>
      <trkpt lat="42.95261" lon="0.27126">
        <ele>1086</ele>
        <time>2021-05-29T08:31:01Z</time>
      </trkpt>
      <trkpt lat="42.95262" lon="0.27128">
        <ele>1086.2</ele>
        <time>2021-05-29T08:31:02Z</time>
      </trkpt>
      <trkpt lat="42.95264" lon="0.27129">
        <ele>1086.2</ele>
        <time>2021-05-29T08:31:03Z</time>
      </trkpt>
      <trkpt lat="42.95265" lon="0.27131">
        <ele>1086.4</ele>
        <time>2021-05-29T08:31:04Z</time>
      </trkpt>
      <trkpt lat="42.95266" lon="0.27133">
        <ele>1086.4</ele>
        <time>2021-05-29T08:31:05Z</time>
      </trkpt>
      <trkpt lat="42.95267" lon="0.27135">
        <ele>1086.6</ele>
        <time>2021-05-29T08:31:06Z</time>
      </trkpt>
      <trkpt lat="42.95268" lon="0.27136">
        <ele>1086.8</ele>
        <time>2021-05-29T08:31:07Z</time>
      </trkpt>
      <trkpt lat="42.95269" lon="0.27138">
        <ele>1086.8</ele>
        <time>2021-05-29T08:31:08Z</time>
      </trkpt>
      <trkpt lat="42.9527" lon="0.27139">
        <ele>1087.2</ele>
        <time>2021-05-29T08:31:09Z</time>
      </trkpt>
      <trkpt lat="42.9527" lon="0.27141">
        <ele>1087.2</ele>
        <time>2021-05-29T08:31:10Z</time>
      </trkpt>
      <trkpt lat="42.95271" lon="0.27142">
        <ele>1087.4</ele>
        <time>2021-05-29T08:31:11Z</time>
      </trkpt>
      <trkpt lat="42.95272" lon="0.27143">
        <ele>1087.4</ele>
        <time>2021-05-29T08:31:12Z</time>
      </trkpt>
      <trkpt lat="42.95273" lon="0.27145">
        <ele>1087.8</ele>
        <time>2021-05-29T08:31:13Z</time>
      </trkpt>
      <trkpt lat="42.95274" lon="0.27147">
        <ele>1087.8</ele>
        <time>2021-05-29T08:31:14Z</time>
      </trkpt>
      <trkpt lat="42.95275" lon="0.27148">
        <ele>1088.2</ele>
        <time>2021-05-29T08:31:15Z</time>
      </trkpt>
      <trkpt lat="42.95276" lon="0.2715">
        <ele>1088.2</ele>
        <time>2021-05-29T08:31:16Z</time>
      </trkpt>
      <trkpt lat="42.95277" lon="0.27151">
        <ele>1088.4</ele>
        <time>2021-05-29T08:31:17Z</time>
      </trkpt>
      <trkpt lat="42.95279" lon="0.27153">
        <ele>1088.4</ele>
        <time>2021-05-29T08:31:18Z</time>
      </trkpt>
      <trkpt lat="42.9528" lon="0.27155">
        <ele>1088.6</ele>
        <time>2021-05-29T08:31:19Z</time>
      </trkpt>
      <trkpt lat="42.95281" lon="0.27157">
        <ele>1088.8</ele>
        <time>2021-05-29T08:31:20Z</time>
      </trkpt>
      <trkpt lat="42.95282" lon="0.27158">
        <ele>1088.8</ele>
        <time>2021-05-29T08:31:21Z</time>
      </trkpt>
      <trkpt lat="42.95283" lon="0.2716">
        <ele>1089</ele>
        <time>2021-05-29T08:31:22Z</time>
      </trkpt>
      <trkpt lat="42.95284" lon="0.27162">
        <ele>1089</ele>
        <time>2021-05-29T08:31:23Z</time>
      </trkpt>
      <trkpt lat="42.95285" lon="0.27164">
        <ele>1089.2</ele>
        <time>2021-05-29T08:31:24Z</time>
      </trkpt>
      <trkpt lat="42.95287" lon="0.27166">
        <ele>1089.2</ele>
        <time>2021-05-29T08:31:25Z</time>
      </trkpt>
      <trkpt lat="42.95288" lon="0.27167">
        <ele>1089.4</ele>
        <time>2021-05-29T08:31:26Z</time>
      </trkpt>
      <trkpt lat="42.95289" lon="0.27169">
        <ele>1089.4</ele>
        <time>2021-05-29T08:31:27Z</time>
      </trkpt>
      <trkpt lat="42.9529" lon="0.27171">
        <ele>1089.6</ele>
        <time>2021-05-29T08:31:28Z</time>
      </trkpt>
      <trkpt lat="42.9529" lon="0.27173">
        <ele>1089.8</ele>
        <time>2021-05-29T08:31:29Z</time>
      </trkpt>
      <trkpt lat="42.95291" lon="0.27175">
        <ele>1090</ele>
        <time>2021-05-29T08:31:30Z</time>
      </trkpt>
      <trkpt lat="42.95292" lon="0.27177">
        <ele>1090</ele>
        <time>2021-05-29T08:31:31Z</time>
      </trkpt>
      <trkpt lat="42.95293" lon="0.27179">
        <ele>1090.2</ele>
        <time>2021-05-29T08:31:32Z</time>
      </trkpt>
      <trkpt lat="42.95294" lon="0.27181">
        <ele>1090.2</ele>
        <time>2021-05-29T08:31:33Z</time>
      </trkpt>
      <trkpt lat="42.95295" lon="0.27184">
        <ele>1090.4</ele>
        <time>2021-05-29T08:31:34Z</time>
      </trkpt>
      <trkpt lat="42.95295" lon="0.27185">
        <ele>1090.8</ele>
        <time>2021-05-29T08:31:35Z</time>
      </trkpt>
      <trkpt lat="42.95296" lon="0.27188">
        <ele>1090.8</ele>
        <time>2021-05-29T08:31:36Z</time>
      </trkpt>
      <trkpt lat="42.95296" lon="0.2719">
        <ele>1091</ele>
        <time>2021-05-29T08:31:37Z</time>
      </trkpt>
      <trkpt lat="42.95297" lon="0.27192">
        <ele>1091</ele>
        <time>2021-05-29T08:31:38Z</time>
      </trkpt>
      <trkpt lat="42.95298" lon="0.27194">
        <ele>1091.2</ele>
        <time>2021-05-29T08:31:39Z</time>
      </trkpt>
      <trkpt lat="42.95299" lon="0.27197">
        <ele>1091.2</ele>
        <time>2021-05-29T08:31:40Z</time>
      </trkpt>
      <trkpt lat="42.95299" lon="0.27199">
        <ele>1091.6</ele>
        <time>2021-05-29T08:31:41Z</time>
      </trkpt>
      <trkpt lat="42.953" lon="0.272">
        <ele>1091.8</ele>
        <time>2021-05-29T08:31:42Z</time>
      </trkpt>
      <trkpt lat="42.95301" lon="0.27203">
        <ele>1092</ele>
        <time>2021-05-29T08:31:43Z</time>
      </trkpt>
      <trkpt lat="42.95301" lon="0.27205">
        <ele>1092</ele>
        <time>2021-05-29T08:31:44Z</time>
      </trkpt>
      <trkpt lat="42.95301" lon="0.27207">
        <ele>1092.4</ele>
        <time>2021-05-29T08:31:45Z</time>
      </trkpt>
      <trkpt lat="42.95301" lon="0.27209">
        <ele>1092.4</ele>
        <time>2021-05-29T08:31:46Z</time>
      </trkpt>
      <trkpt lat="42.95302" lon="0.27212">
        <ele>1092.6</ele>
        <time>2021-05-29T08:31:47Z</time>
      </trkpt>
      <trkpt lat="42.95302" lon="0.27214">
        <ele>1092.6</ele>
        <time>2021-05-29T08:31:48Z</time>
      </trkpt>
      <trkpt lat="42.95302" lon="0.27216">
        <ele>1092.6</ele>
        <time>2021-05-29T08:31:49Z</time>
      </trkpt>
      <trkpt lat="42.95303" lon="0.27219">
        <ele>1092.8</ele>
        <time>2021-05-29T08:31:50Z</time>
      </trkpt>
      <trkpt lat="42.95303" lon="0.27221">
        <ele>1093</ele>
        <time>2021-05-29T08:31:51Z</time>
      </trkpt>
      <trkpt lat="42.95304" lon="0.27224">
        <ele>1093.4</ele>
        <time>2021-05-29T08:31:52Z</time>
      </trkpt>
      <trkpt lat="42.95304" lon="0.27226">
        <ele>1093.4</ele>
        <time>2021-05-29T08:31:53Z</time>
      </trkpt>
      <trkpt lat="42.95305" lon="0.27228">
        <ele>1093.8</ele>
        <time>2021-05-29T08:31:54Z</time>
      </trkpt>
      <trkpt lat="42.95306" lon="0.2723">
        <ele>1093.8</ele>
        <time>2021-05-29T08:31:55Z</time>
      </trkpt>
      <trkpt lat="42.95306" lon="0.27232">
        <ele>1094</ele>
        <time>2021-05-29T08:31:56Z</time>
      </trkpt>
      <trkpt lat="42.95307" lon="0.27234">
        <ele>1094.2</ele>
        <time>2021-05-29T08:31:57Z</time>
      </trkpt>
      <trkpt lat="42.95308" lon="0.27236">
        <ele>1094.4</ele>
        <time>2021-05-29T08:31:58Z</time>
      </trkpt>
      <trkpt lat="42.95309" lon="0.27238">
        <ele>1094.6</ele>
        <time>2021-05-29T08:31:59Z</time>
      </trkpt>
      <trkpt lat="42.9531" lon="0.27239">
        <ele>1094.6</ele>
        <time>2021-05-29T08:32:00Z</time>
      </trkpt>
      <trkpt lat="42.95311" lon="0.2724">
        <ele>1094.8</ele>
        <time>2021-05-29T08:32:01Z</time>
      </trkpt>
      <trkpt lat="42.95312" lon="0.27241">
        <ele>1095</ele>
        <time>2021-05-29T08:32:02Z</time>
      </trkpt>
      <trkpt lat="42.95314" lon="0.27242">
        <ele>1095.4</ele>
        <time>2021-05-29T08:32:03Z</time>
      </trkpt>
      <trkpt lat="42.95315" lon="0.27244">
        <ele>1095.6</ele>
        <time>2021-05-29T08:32:04Z</time>
      </trkpt>
      <trkpt lat="42.95316" lon="0.27246">
        <ele>1095.6</ele>
        <time>2021-05-29T08:32:05Z</time>
      </trkpt>
      <trkpt lat="42.95317" lon="0.27247">
        <ele>1095.8</ele>
        <time>2021-05-29T08:32:06Z</time>
      </trkpt>
      <trkpt lat="42.95319" lon="0.27248">
        <ele>1095.8</ele>
        <time>2021-05-29T08:32:07Z</time>
      </trkpt>
      <trkpt lat="42.95321" lon="0.2725">
        <ele>1096.2</ele>
        <time>2021-05-29T08:32:08Z</time>
      </trkpt>
      <trkpt lat="42.95322" lon="0.27251">
        <ele>1096.4</ele>
        <time>2021-05-29T08:32:09Z</time>
      </trkpt>
      <trkpt lat="42.95324" lon="0.27252">
        <ele>1096.4</ele>
        <time>2021-05-29T08:32:10Z</time>
      </trkpt>
      <trkpt lat="42.95326" lon="0.27254">
        <ele>1096.4</ele>
        <time>2021-05-29T08:32:11Z</time>
      </trkpt>
      <trkpt lat="42.95328" lon="0.27255">
        <ele>1096.4</ele>
        <time>2021-05-29T08:32:12Z</time>
      </trkpt>
      <trkpt lat="42.9533" lon="0.27256">
        <ele>1096.6</ele>
        <time>2021-05-29T08:32:13Z</time>
      </trkpt>
      <trkpt lat="42.95332" lon="0.27258">
        <ele>1096.6</ele>
        <time>2021-05-29T08:32:14Z</time>
      </trkpt>
      <trkpt lat="42.95334" lon="0.27259">
        <ele>1096.6</ele>
        <time>2021-05-29T08:32:15Z</time>
      </trkpt>
      <trkpt lat="42.95336" lon="0.2726">
        <ele>1096.8</ele>
        <time>2021-05-29T08:32:16Z</time>
      </trkpt>
      <trkpt lat="42.95338" lon="0.27262">
        <ele>1097</ele>
        <time>2021-05-29T08:32:17Z</time>
      </trkpt>
      <trkpt lat="42.95339" lon="0.27263">
        <ele>1097</ele>
        <time>2021-05-29T08:32:18Z</time>
      </trkpt>
      <trkpt lat="42.95341" lon="0.27264">
        <ele>1097</ele>
        <time>2021-05-29T08:32:19Z</time>
      </trkpt>
      <trkpt lat="42.95343" lon="0.27265">
        <ele>1097.2</ele>
        <time>2021-05-29T08:32:20Z</time>
      </trkpt>
      <trkpt lat="42.95344" lon="0.27266">
        <ele>1097.2</ele>
        <time>2021-05-29T08:32:21Z</time>
      </trkpt>
      <trkpt lat="42.95346" lon="0.27267">
        <ele>1097.2</ele>
        <time>2021-05-29T08:32:22Z</time>
      </trkpt>
      <trkpt lat="42.95348" lon="0.27269">
        <ele>1097.4</ele>
        <time>2021-05-29T08:32:23Z</time>
      </trkpt>
      <trkpt lat="42.9535" lon="0.27269">
        <ele>1097.4</ele>
        <time>2021-05-29T08:32:24Z</time>
      </trkpt>
      <trkpt lat="42.95352" lon="0.27271">
        <ele>1097.6</ele>
        <time>2021-05-29T08:32:25Z</time>
      </trkpt>
      <trkpt lat="42.95353" lon="0.27272">
        <ele>1097.6</ele>
        <time>2021-05-29T08:32:26Z</time>
      </trkpt>
      <trkpt lat="42.95354" lon="0.27273">
        <ele>1097.8</ele>
        <time>2021-05-29T08:32:27Z</time>
      </trkpt>
      <trkpt lat="42.95356" lon="0.27274">
        <ele>1098</ele>
        <time>2021-05-29T08:32:28Z</time>
      </trkpt>
      <trkpt lat="42.95357" lon="0.27275">
        <ele>1098.2</ele>
        <time>2021-05-29T08:32:29Z</time>
      </trkpt>
      <trkpt lat="42.95358" lon="0.27276">
        <ele>1098.2</ele>
        <time>2021-05-29T08:32:30Z</time>
      </trkpt>
      <trkpt lat="42.95359" lon="0.27277">
        <ele>1098.4</ele>
        <time>2021-05-29T08:32:31Z</time>
      </trkpt>
      <trkpt lat="42.95361" lon="0.27279">
        <ele>1098.6</ele>
        <time>2021-05-29T08:32:32Z</time>
      </trkpt>
      <trkpt lat="42.95362" lon="0.2728">
        <ele>1098.8</ele>
        <time>2021-05-29T08:32:33Z</time>
      </trkpt>
      <trkpt lat="42.95364" lon="0.27282">
        <ele>1099</ele>
        <time>2021-05-29T08:32:34Z</time>
      </trkpt>
      <trkpt lat="42.95365" lon="0.27284">
        <ele>1099.2</ele>
        <time>2021-05-29T08:32:35Z</time>
      </trkpt>
      <trkpt lat="42.95365" lon="0.27285">
        <ele>1099.2</ele>
        <time>2021-05-29T08:32:36Z</time>
      </trkpt>
      <trkpt lat="42.95367" lon="0.27286">
        <ele>1099.4</ele>
        <time>2021-05-29T08:32:37Z</time>
      </trkpt>
      <trkpt lat="42.95368" lon="0.27288">
        <ele>1099.6</ele>
        <time>2021-05-29T08:32:38Z</time>
      </trkpt>
      <trkpt lat="42.95369" lon="0.2729">
        <ele>1099.6</ele>
        <time>2021-05-29T08:32:39Z</time>
      </trkpt>
      <trkpt lat="42.95369" lon="0.27292">
        <ele>1100</ele>
        <time>2021-05-29T08:32:40Z</time>
      </trkpt>
      <trkpt lat="42.9537" lon="0.27294">
        <ele>1100</ele>
        <time>2021-05-29T08:32:41Z</time>
      </trkpt>
      <trkpt lat="42.9537" lon="0.27296">
        <ele>1100</ele>
        <time>2021-05-29T08:32:42Z</time>
      </trkpt>
      <trkpt lat="42.95371" lon="0.27298">
        <ele>1100.2</ele>
        <time>2021-05-29T08:32:43Z</time>
      </trkpt>
      <trkpt lat="42.95372" lon="0.273">
        <ele>1100.2</ele>
        <time>2021-05-29T08:32:44Z</time>
      </trkpt>
      <trkpt lat="42.95373" lon="0.27302">
        <ele>1100.4</ele>
        <time>2021-05-29T08:32:45Z</time>
      </trkpt>
      <trkpt lat="42.95374" lon="0.27304">
        <ele>1100.2</ele>
        <time>2021-05-29T08:32:46Z</time>
      </trkpt>
      <trkpt lat="42.95375" lon="0.27306">
        <ele>1100.4</ele>
        <time>2021-05-29T08:32:47Z</time>
      </trkpt>
      <trkpt lat="42.95376" lon="0.27308">
        <ele>1100.4</ele>
        <time>2021-05-29T08:32:48Z</time>
      </trkpt>
      <trkpt lat="42.95376" lon="0.27309">
        <ele>1100.8</ele>
        <time>2021-05-29T08:32:49Z</time>
      </trkpt>
      <trkpt lat="42.95377" lon="0.27311">
        <ele>1101</ele>
        <time>2021-05-29T08:32:50Z</time>
      </trkpt>
      <trkpt lat="42.95378" lon="0.27313">
        <ele>1101.4</ele>
        <time>2021-05-29T08:32:51Z</time>
      </trkpt>
      <trkpt lat="42.95379" lon="0.27315">
        <ele>1101.6</ele>
        <time>2021-05-29T08:32:52Z</time>
      </trkpt>
      <trkpt lat="42.9538" lon="0.27317">
        <ele>1102</ele>
        <time>2021-05-29T08:32:53Z</time>
      </trkpt>
      <trkpt lat="42.95381" lon="0.2732">
        <ele>1102</ele>
        <time>2021-05-29T08:32:54Z</time>
      </trkpt>
      <trkpt lat="42.95381" lon="0.27321">
        <ele>1102.2</ele>
        <time>2021-05-29T08:32:55Z</time>
      </trkpt>
      <trkpt lat="42.95382" lon="0.27323">
        <ele>1102.4</ele>
        <time>2021-05-29T08:32:56Z</time>
      </trkpt>
      <trkpt lat="42.95383" lon="0.27325">
        <ele>1102.6</ele>
        <time>2021-05-29T08:32:57Z</time>
      </trkpt>
      <trkpt lat="42.95383" lon="0.27327">
        <ele>1102.6</ele>
        <time>2021-05-29T08:32:58Z</time>
      </trkpt>
      <trkpt lat="42.95384" lon="0.27329">
        <ele>1102.8</ele>
        <time>2021-05-29T08:32:59Z</time>
      </trkpt>
      <trkpt lat="42.95385" lon="0.27332">
        <ele>1103</ele>
        <time>2021-05-29T08:33:00Z</time>
      </trkpt>
      <trkpt lat="42.95386" lon="0.27333">
        <ele>1103.2</ele>
        <time>2021-05-29T08:33:01Z</time>
      </trkpt>
      <trkpt lat="42.95386" lon="0.27335">
        <ele>1103.4</ele>
        <time>2021-05-29T08:33:02Z</time>
      </trkpt>
      <trkpt lat="42.95387" lon="0.27338">
        <ele>1103.4</ele>
        <time>2021-05-29T08:33:03Z</time>
      </trkpt>
      <trkpt lat="42.95387" lon="0.2734">
        <ele>1103.6</ele>
        <time>2021-05-29T08:33:04Z</time>
      </trkpt>
      <trkpt lat="42.95386" lon="0.27343">
        <ele>1103.8</ele>
        <time>2021-05-29T08:33:05Z</time>
      </trkpt>
      <trkpt lat="42.95386" lon="0.27345">
        <ele>1103.6</ele>
        <time>2021-05-29T08:33:06Z</time>
      </trkpt>
      <trkpt lat="42.95386" lon="0.27347">
        <ele>1103.6</ele>
        <time>2021-05-29T08:33:07Z</time>
      </trkpt>
      <trkpt lat="42.95386" lon="0.2735">
        <ele>1103.8</ele>
        <time>2021-05-29T08:33:08Z</time>
      </trkpt>
      <trkpt lat="42.95385" lon="0.27352">
        <ele>1103.8</ele>
        <time>2021-05-29T08:33:09Z</time>
      </trkpt>
      <trkpt lat="42.95385" lon="0.27354">
        <ele>1104</ele>
        <time>2021-05-29T08:33:10Z</time>
      </trkpt>
      <trkpt lat="42.95384" lon="0.27357">
        <ele>1104</ele>
        <time>2021-05-29T08:33:11Z</time>
      </trkpt>
      <trkpt lat="42.95384" lon="0.27359">
        <ele>1104.2</ele>
        <time>2021-05-29T08:33:12Z</time>
      </trkpt>
      <trkpt lat="42.95383" lon="0.27361">
        <ele>1104.4</ele>
        <time>2021-05-29T08:33:13Z</time>
      </trkpt>
      <trkpt lat="42.95383" lon="0.27363">
        <ele>1104.4</ele>
        <time>2021-05-29T08:33:14Z</time>
      </trkpt>
      <trkpt lat="42.95383" lon="0.27365">
        <ele>1104.6</ele>
        <time>2021-05-29T08:33:15Z</time>
      </trkpt>
      <trkpt lat="42.95383" lon="0.27367">
        <ele>1104.8</ele>
        <time>2021-05-29T08:33:16Z</time>
      </trkpt>
      <trkpt lat="42.95383" lon="0.27368">
        <ele>1104.8</ele>
        <time>2021-05-29T08:33:17Z</time>
      </trkpt>
      <trkpt lat="42.95382" lon="0.2737">
        <ele>1105.2</ele>
        <time>2021-05-29T08:33:18Z</time>
      </trkpt>
      <trkpt lat="42.95382" lon="0.27372">
        <ele>1105.4</ele>
        <time>2021-05-29T08:33:19Z</time>
      </trkpt>
      <trkpt lat="42.95381" lon="0.27374">
        <ele>1105.6</ele>
        <time>2021-05-29T08:33:20Z</time>
      </trkpt>
      <trkpt lat="42.95381" lon="0.27376">
        <ele>1105.8</ele>
        <time>2021-05-29T08:33:21Z</time>
      </trkpt>
      <trkpt lat="42.9538" lon="0.27378">
        <ele>1105.8</ele>
        <time>2021-05-29T08:33:22Z</time>
      </trkpt>
      <trkpt lat="42.9538" lon="0.2738">
        <ele>1106</ele>
        <time>2021-05-29T08:33:23Z</time>
      </trkpt>
      <trkpt lat="42.9538" lon="0.27382">
        <ele>1106.2</ele>
        <time>2021-05-29T08:33:24Z</time>
      </trkpt>
      <trkpt lat="42.95379" lon="0.27384">
        <ele>1106.4</ele>
        <time>2021-05-29T08:33:25Z</time>
      </trkpt>
      <trkpt lat="42.95379" lon="0.27386">
        <ele>1106.6</ele>
        <time>2021-05-29T08:33:26Z</time>
      </trkpt>
      <trkpt lat="42.95378" lon="0.27389">
        <ele>1106.8</ele>
        <time>2021-05-29T08:33:27Z</time>
      </trkpt>
      <trkpt lat="42.95377" lon="0.27392">
        <ele>1106.8</ele>
        <time>2021-05-29T08:33:28Z</time>
      </trkpt>
      <trkpt lat="42.95377" lon="0.27394">
        <ele>1107</ele>
        <time>2021-05-29T08:33:29Z</time>
      </trkpt>
      <trkpt lat="42.95376" lon="0.27397">
        <ele>1107.2</ele>
        <time>2021-05-29T08:33:30Z</time>
      </trkpt>
      <trkpt lat="42.95376" lon="0.274">
        <ele>1107.4</ele>
        <time>2021-05-29T08:33:31Z</time>
      </trkpt>
      <trkpt lat="42.95375" lon="0.27402">
        <ele>1107.4</ele>
        <time>2021-05-29T08:33:32Z</time>
      </trkpt>
      <trkpt lat="42.95374" lon="0.27405">
        <ele>1107.6</ele>
        <time>2021-05-29T08:33:33Z</time>
      </trkpt>
      <trkpt lat="42.95374" lon="0.27408">
        <ele>1107.8</ele>
        <time>2021-05-29T08:33:34Z</time>
      </trkpt>
      <trkpt lat="42.95374" lon="0.2741">
        <ele>1107.8</ele>
        <time>2021-05-29T08:33:35Z</time>
      </trkpt>
      <trkpt lat="42.95373" lon="0.27413">
        <ele>1108</ele>
        <time>2021-05-29T08:33:36Z</time>
      </trkpt>
      <trkpt lat="42.95372" lon="0.27416">
        <ele>1108.2</ele>
        <time>2021-05-29T08:33:37Z</time>
      </trkpt>
      <trkpt lat="42.95371" lon="0.27417">
        <ele>1108.2</ele>
        <time>2021-05-29T08:33:38Z</time>
      </trkpt>
      <trkpt lat="42.95371" lon="0.27419">
        <ele>1108.2</ele>
        <time>2021-05-29T08:33:39Z</time>
      </trkpt>
      <trkpt lat="42.95371" lon="0.27421">
        <ele>1108.4</ele>
        <time>2021-05-29T08:33:40Z</time>
      </trkpt>
      <trkpt lat="42.95371" lon="0.27423">
        <ele>1108.4</ele>
        <time>2021-05-29T08:33:41Z</time>
      </trkpt>
      <trkpt lat="42.95372" lon="0.27425">
        <ele>1108.6</ele>
        <time>2021-05-29T08:33:42Z</time>
      </trkpt>
      <trkpt lat="42.95372" lon="0.27427">
        <ele>1108.8</ele>
        <time>2021-05-29T08:33:43Z</time>
      </trkpt>
      <trkpt lat="42.95371" lon="0.27429">
        <ele>1109</ele>
        <time>2021-05-29T08:33:44Z</time>
      </trkpt>
      <trkpt lat="42.95371" lon="0.27431">
        <ele>1109</ele>
        <time>2021-05-29T08:33:45Z</time>
      </trkpt>
      <trkpt lat="42.95371" lon="0.27433">
        <ele>1109.2</ele>
        <time>2021-05-29T08:33:46Z</time>
      </trkpt>
      <trkpt lat="42.95372" lon="0.27435">
        <ele>1109.4</ele>
        <time>2021-05-29T08:33:47Z</time>
      </trkpt>
      <trkpt lat="42.95372" lon="0.27437">
        <ele>1109.6</ele>
        <time>2021-05-29T08:33:48Z</time>
      </trkpt>
      <trkpt lat="42.95372" lon="0.27439">
        <ele>1109.6</ele>
        <time>2021-05-29T08:33:49Z</time>
      </trkpt>
      <trkpt lat="42.95372" lon="0.27441">
        <ele>1110</ele>
        <time>2021-05-29T08:33:50Z</time>
      </trkpt>
      <trkpt lat="42.95372" lon="0.27443">
        <ele>1110</ele>
        <time>2021-05-29T08:33:51Z</time>
      </trkpt>
      <trkpt lat="42.95372" lon="0.27445">
        <ele>1110.2</ele>
        <time>2021-05-29T08:33:52Z</time>
      </trkpt>
      <trkpt lat="42.95372" lon="0.27447">
        <ele>1110.4</ele>
        <time>2021-05-29T08:33:53Z</time>
      </trkpt>
      <trkpt lat="42.95373" lon="0.27448">
        <ele>1110.8</ele>
        <time>2021-05-29T08:33:54Z</time>
      </trkpt>
      <trkpt lat="42.95373" lon="0.2745">
        <ele>1111</ele>
        <time>2021-05-29T08:33:55Z</time>
      </trkpt>
      <trkpt lat="42.95373" lon="0.27452">
        <ele>1111.2</ele>
        <time>2021-05-29T08:33:56Z</time>
      </trkpt>
      <trkpt lat="42.95373" lon="0.27453">
        <ele>1111.4</ele>
        <time>2021-05-29T08:33:57Z</time>
      </trkpt>
      <trkpt lat="42.95374" lon="0.27455">
        <ele>1111.6</ele>
        <time>2021-05-29T08:33:58Z</time>
      </trkpt>
      <trkpt lat="42.95374" lon="0.27457">
        <ele>1111.8</ele>
        <time>2021-05-29T08:33:59Z</time>
      </trkpt>
      <trkpt lat="42.95375" lon="0.27459">
        <ele>1112</ele>
        <time>2021-05-29T08:34:00Z</time>
      </trkpt>
      <trkpt lat="42.95375" lon="0.2746">
        <ele>1112.4</ele>
        <time>2021-05-29T08:34:01Z</time>
      </trkpt>
      <trkpt lat="42.95376" lon="0.27462">
        <ele>1112.6</ele>
        <time>2021-05-29T08:34:02Z</time>
      </trkpt>
      <trkpt lat="42.95377" lon="0.27463">
        <ele>1112.8</ele>
        <time>2021-05-29T08:34:03Z</time>
      </trkpt>
      <trkpt lat="42.95378" lon="0.27464">
        <ele>1113</ele>
        <time>2021-05-29T08:34:04Z</time>
      </trkpt>
      <trkpt lat="42.95379" lon="0.27465">
        <ele>1113.2</ele>
        <time>2021-05-29T08:34:05Z</time>
      </trkpt>
      <trkpt lat="42.95379" lon="0.27466">
        <ele>1113.4</ele>
        <time>2021-05-29T08:34:06Z</time>
      </trkpt>
      <trkpt lat="42.95381" lon="0.27468">
        <ele>1113.4</ele>
        <time>2021-05-29T08:34:07Z</time>
      </trkpt>
      <trkpt lat="42.95382" lon="0.27469">
        <ele>1113.4</ele>
        <time>2021-05-29T08:34:08Z</time>
      </trkpt>
      <trkpt lat="42.95383" lon="0.2747">
        <ele>1113.8</ele>
        <time>2021-05-29T08:34:09Z</time>
      </trkpt>
      <trkpt lat="42.95384" lon="0.27471">
        <ele>1113.8</ele>
        <time>2021-05-29T08:34:10Z</time>
      </trkpt>
      <trkpt lat="42.95385" lon="0.27472">
        <ele>1114</ele>
        <time>2021-05-29T08:34:11Z</time>
      </trkpt>
      <trkpt lat="42.95386" lon="0.27473">
        <ele>1114.4</ele>
        <time>2021-05-29T08:34:12Z</time>
      </trkpt>
      <trkpt lat="42.95387" lon="0.27473">
        <ele>1114.4</ele>
        <time>2021-05-29T08:34:13Z</time>
      </trkpt>
      <trkpt lat="42.95388" lon="0.27474">
        <ele>1114.6</ele>
        <time>2021-05-29T08:34:14Z</time>
      </trkpt>
      <trkpt lat="42.9539" lon="0.27475">
        <ele>1114.8</ele>
        <time>2021-05-29T08:34:15Z</time>
      </trkpt>
      <trkpt lat="42.95391" lon="0.27476">
        <ele>1114.8</ele>
        <time>2021-05-29T08:34:16Z</time>
      </trkpt>
      <trkpt lat="42.95393" lon="0.27477">
        <ele>1115</ele>
        <time>2021-05-29T08:34:17Z</time>
      </trkpt>
      <trkpt lat="42.95395" lon="0.27478">
        <ele>1115.2</ele>
        <time>2021-05-29T08:34:18Z</time>
      </trkpt>
      <trkpt lat="42.95396" lon="0.27479">
        <ele>1115.2</ele>
        <time>2021-05-29T08:34:19Z</time>
      </trkpt>
      <trkpt lat="42.95398" lon="0.27479">
        <ele>1115.4</ele>
        <time>2021-05-29T08:34:20Z</time>
      </trkpt>
      <trkpt lat="42.954" lon="0.2748">
        <ele>1115.6</ele>
        <time>2021-05-29T08:34:21Z</time>
      </trkpt>
      <trkpt lat="42.95402" lon="0.27482">
        <ele>1115.8</ele>
        <time>2021-05-29T08:34:22Z</time>
      </trkpt>
      <trkpt lat="42.95403" lon="0.27483">
        <ele>1116</ele>
        <time>2021-05-29T08:34:23Z</time>
      </trkpt>
      <trkpt lat="42.95404" lon="0.27485">
        <ele>1116.2</ele>
        <time>2021-05-29T08:34:24Z</time>
      </trkpt>
      <trkpt lat="42.95405" lon="0.27486">
        <ele>1116.4</ele>
        <time>2021-05-29T08:34:25Z</time>
      </trkpt>
      <trkpt lat="42.95407" lon="0.27487">
        <ele>1116.4</ele>
        <time>2021-05-29T08:34:26Z</time>
      </trkpt>
      <trkpt lat="42.95409" lon="0.27488">
        <ele>1116.6</ele>
        <time>2021-05-29T08:34:27Z</time>
      </trkpt>
      <trkpt lat="42.95411" lon="0.27489">
        <ele>1116.8</ele>
        <time>2021-05-29T08:34:28Z</time>
      </trkpt>
      <trkpt lat="42.95412" lon="0.2749">
        <ele>1117</ele>
        <time>2021-05-29T08:34:29Z</time>
      </trkpt>
      <trkpt lat="42.95413" lon="0.2749">
        <ele>1117</ele>
        <time>2021-05-29T08:34:30Z</time>
      </trkpt>
      <trkpt lat="42.95414" lon="0.27491">
        <ele>1117.2</ele>
        <time>2021-05-29T08:34:31Z</time>
      </trkpt>
      <trkpt lat="42.95415" lon="0.27492">
        <ele>1117.4</ele>
        <time>2021-05-29T08:34:32Z</time>
      </trkpt>
      <trkpt lat="42.95416" lon="0.27492">
        <ele>1117.6</ele>
        <time>2021-05-29T08:34:33Z</time>
      </trkpt>
      <trkpt lat="42.95416" lon="0.27492">
        <ele>1117.6</ele>
        <time>2021-05-29T08:34:34Z</time>
      </trkpt>
      <trkpt lat="42.95417" lon="0.27492">
        <ele>1117.8</ele>
        <time>2021-05-29T08:34:35Z</time>
      </trkpt>
      <trkpt lat="42.95418" lon="0.27493">
        <ele>1118</ele>
        <time>2021-05-29T08:34:36Z</time>
      </trkpt>
      <trkpt lat="42.9542" lon="0.27493">
        <ele>1118.2</ele>
        <time>2021-05-29T08:34:37Z</time>
      </trkpt>
      <trkpt lat="42.95421" lon="0.27494">
        <ele>1118.2</ele>
        <time>2021-05-29T08:34:38Z</time>
      </trkpt>
      <trkpt lat="42.95423" lon="0.27495">
        <ele>1118.6</ele>
        <time>2021-05-29T08:34:39Z</time>
      </trkpt>
      <trkpt lat="42.95424" lon="0.27495">
        <ele>1118.6</ele>
        <time>2021-05-29T08:34:40Z</time>
      </trkpt>
      <trkpt lat="42.95425" lon="0.27495">
        <ele>1119</ele>
        <time>2021-05-29T08:34:41Z</time>
      </trkpt>
      <trkpt lat="42.95427" lon="0.27495">
        <ele>1119</ele>
        <time>2021-05-29T08:34:42Z</time>
      </trkpt>
      <trkpt lat="42.95429" lon="0.27495">
        <ele>1119.2</ele>
        <time>2021-05-29T08:34:43Z</time>
      </trkpt>
      <trkpt lat="42.95431" lon="0.27495">
        <ele>1119.4</ele>
        <time>2021-05-29T08:34:44Z</time>
      </trkpt>
      <trkpt lat="42.95433" lon="0.27495">
        <ele>1119.6</ele>
        <time>2021-05-29T08:34:45Z</time>
      </trkpt>
      <trkpt lat="42.95434" lon="0.27496">
        <ele>1120</ele>
        <time>2021-05-29T08:34:46Z</time>
      </trkpt>
      <trkpt lat="42.95436" lon="0.27497">
        <ele>1120</ele>
        <time>2021-05-29T08:34:47Z</time>
      </trkpt>
      <trkpt lat="42.95437" lon="0.27498">
        <ele>1120.2</ele>
        <time>2021-05-29T08:34:48Z</time>
      </trkpt>
      <trkpt lat="42.95438" lon="0.27499">
        <ele>1120.4</ele>
        <time>2021-05-29T08:34:49Z</time>
      </trkpt>
      <trkpt lat="42.95439" lon="0.27501">
        <ele>1120.8</ele>
        <time>2021-05-29T08:34:50Z</time>
      </trkpt>
      <trkpt lat="42.95441" lon="0.27503">
        <ele>1120.8</ele>
        <time>2021-05-29T08:34:51Z</time>
      </trkpt>
      <trkpt lat="42.95443" lon="0.27505">
        <ele>1121</ele>
        <time>2021-05-29T08:34:52Z</time>
      </trkpt>
      <trkpt lat="42.95445" lon="0.27508">
        <ele>1121.4</ele>
        <time>2021-05-29T08:34:53Z</time>
      </trkpt>
      <trkpt lat="42.95446" lon="0.2751">
        <ele>1121.8</ele>
        <time>2021-05-29T08:34:54Z</time>
      </trkpt>
      <trkpt lat="42.95448" lon="0.27513">
        <ele>1121.8</ele>
        <time>2021-05-29T08:34:55Z</time>
      </trkpt>
      <trkpt lat="42.9545" lon="0.27514">
        <ele>1122</ele>
        <time>2021-05-29T08:34:56Z</time>
      </trkpt>
      <trkpt lat="42.95451" lon="0.27516">
        <ele>1122.2</ele>
        <time>2021-05-29T08:34:57Z</time>
      </trkpt>
      <trkpt lat="42.95452" lon="0.27518">
        <ele>1122.4</ele>
        <time>2021-05-29T08:34:58Z</time>
      </trkpt>
      <trkpt lat="42.95453" lon="0.27518">
        <ele>1122.4</ele>
        <time>2021-05-29T08:34:59Z</time>
      </trkpt>
      <trkpt lat="42.95453" lon="0.2752">
        <ele>1122.6</ele>
        <time>2021-05-29T08:35:00Z</time>
      </trkpt>
      <trkpt lat="42.95454" lon="0.27522">
        <ele>1122.8</ele>
        <time>2021-05-29T08:35:01Z</time>
      </trkpt>
      <trkpt lat="42.95455" lon="0.27524">
        <ele>1123</ele>
        <time>2021-05-29T08:35:02Z</time>
      </trkpt>
      <trkpt lat="42.95456" lon="0.27526">
        <ele>1123.2</ele>
        <time>2021-05-29T08:35:03Z</time>
      </trkpt>
      <trkpt lat="42.95457" lon="0.27527">
        <ele>1123.4</ele>
        <time>2021-05-29T08:35:04Z</time>
      </trkpt>
      <trkpt lat="42.95458" lon="0.27528">
        <ele>1123.6</ele>
        <time>2021-05-29T08:35:05Z</time>
      </trkpt>
      <trkpt lat="42.95459" lon="0.27529">
        <ele>1123.6</ele>
        <time>2021-05-29T08:35:06Z</time>
      </trkpt>
      <trkpt lat="42.95459" lon="0.27531">
        <ele>1123.8</ele>
        <time>2021-05-29T08:35:07Z</time>
      </trkpt>
      <trkpt lat="42.9546" lon="0.27533">
        <ele>1123.8</ele>
        <time>2021-05-29T08:35:08Z</time>
      </trkpt>
      <trkpt lat="42.95461" lon="0.27534">
        <ele>1124.2</ele>
        <time>2021-05-29T08:35:09Z</time>
      </trkpt>
      <trkpt lat="42.95462" lon="0.27536">
        <ele>1124.4</ele>
        <time>2021-05-29T08:35:10Z</time>
      </trkpt>
      <trkpt lat="42.95463" lon="0.27538">
        <ele>1124.6</ele>
        <time>2021-05-29T08:35:11Z</time>
      </trkpt>
      <trkpt lat="42.95464" lon="0.27539">
        <ele>1124.6</ele>
        <time>2021-05-29T08:35:12Z</time>
      </trkpt>
      <trkpt lat="42.95464" lon="0.27541">
        <ele>1124.8</ele>
        <time>2021-05-29T08:35:13Z</time>
      </trkpt>
      <trkpt lat="42.95464" lon="0.27543">
        <ele>1124.8</ele>
        <time>2021-05-29T08:35:14Z</time>
      </trkpt>
      <trkpt lat="42.95465" lon="0.27545">
        <ele>1125</ele>
        <time>2021-05-29T08:35:15Z</time>
      </trkpt>
      <trkpt lat="42.95466" lon="0.27546">
        <ele>1125.2</ele>
        <time>2021-05-29T08:35:16Z</time>
      </trkpt>
      <trkpt lat="42.95467" lon="0.27547">
        <ele>1125.4</ele>
        <time>2021-05-29T08:35:17Z</time>
      </trkpt>
      <trkpt lat="42.95468" lon="0.27549">
        <ele>1125.6</ele>
        <time>2021-05-29T08:35:18Z</time>
      </trkpt>
      <trkpt lat="42.95468" lon="0.2755">
        <ele>1125.8</ele>
        <time>2021-05-29T08:35:19Z</time>
      </trkpt>
      <trkpt lat="42.95468" lon="0.27552">
        <ele>1125.8</ele>
        <time>2021-05-29T08:35:20Z</time>
      </trkpt>
      <trkpt lat="42.95468" lon="0.27554">
        <ele>1126</ele>
        <time>2021-05-29T08:35:21Z</time>
      </trkpt>
      <trkpt lat="42.95469" lon="0.27557">
        <ele>1126</ele>
        <time>2021-05-29T08:35:22Z</time>
      </trkpt>
      <trkpt lat="42.95469" lon="0.27559">
        <ele>1126.2</ele>
        <time>2021-05-29T08:35:23Z</time>
      </trkpt>
      <trkpt lat="42.95469" lon="0.27561">
        <ele>1126.4</ele>
        <time>2021-05-29T08:35:24Z</time>
      </trkpt>
      <trkpt lat="42.95469" lon="0.27564">
        <ele>1126.4</ele>
        <time>2021-05-29T08:35:25Z</time>
      </trkpt>
      <trkpt lat="42.95469" lon="0.27566">
        <ele>1126.8</ele>
        <time>2021-05-29T08:35:26Z</time>
      </trkpt>
      <trkpt lat="42.95468" lon="0.27568">
        <ele>1126.8</ele>
        <time>2021-05-29T08:35:27Z</time>
      </trkpt>
      <trkpt lat="42.95467" lon="0.2757">
        <ele>1127</ele>
        <time>2021-05-29T08:35:28Z</time>
      </trkpt>
      <trkpt lat="42.95466" lon="0.27572">
        <ele>1127</ele>
        <time>2021-05-29T08:35:29Z</time>
      </trkpt>
      <trkpt lat="42.95465" lon="0.27574">
        <ele>1127.2</ele>
        <time>2021-05-29T08:35:30Z</time>
      </trkpt>
      <trkpt lat="42.95463" lon="0.27576">
        <ele>1127.2</ele>
        <time>2021-05-29T08:35:31Z</time>
      </trkpt>
      <trkpt lat="42.95462" lon="0.27577">
        <ele>1127.2</ele>
        <time>2021-05-29T08:35:32Z</time>
      </trkpt>
      <trkpt lat="42.95461" lon="0.27577">
        <ele>1127.4</ele>
        <time>2021-05-29T08:35:33Z</time>
      </trkpt>
      <trkpt lat="42.95459" lon="0.27578">
        <ele>1127.4</ele>
        <time>2021-05-29T08:35:34Z</time>
      </trkpt>
      <trkpt lat="42.95458" lon="0.27578">
        <ele>1127.6</ele>
        <time>2021-05-29T08:35:35Z</time>
      </trkpt>
      <trkpt lat="42.95456" lon="0.27578">
        <ele>1127.6</ele>
        <time>2021-05-29T08:35:36Z</time>
      </trkpt>
      <trkpt lat="42.95455" lon="0.27578">
        <ele>1127.6</ele>
        <time>2021-05-29T08:35:37Z</time>
      </trkpt>
      <trkpt lat="42.95453" lon="0.27578">
        <ele>1127.8</ele>
        <time>2021-05-29T08:35:38Z</time>
      </trkpt>
      <trkpt lat="42.95451" lon="0.27578">
        <ele>1128</ele>
        <time>2021-05-29T08:35:39Z</time>
      </trkpt>
      <trkpt lat="42.9545" lon="0.27578">
        <ele>1128</ele>
        <time>2021-05-29T08:35:40Z</time>
      </trkpt>
      <trkpt lat="42.95448" lon="0.27578">
        <ele>1128.2</ele>
        <time>2021-05-29T08:35:41Z</time>
      </trkpt>
      <trkpt lat="42.95447" lon="0.27578">
        <ele>1128.4</ele>
        <time>2021-05-29T08:35:42Z</time>
      </trkpt>
      <trkpt lat="42.95445" lon="0.27578">
        <ele>1128.6</ele>
        <time>2021-05-29T08:35:43Z</time>
      </trkpt>
      <trkpt lat="42.95444" lon="0.27578">
        <ele>1128.6</ele>
        <time>2021-05-29T08:35:44Z</time>
      </trkpt>
      <trkpt lat="42.95442" lon="0.27577">
        <ele>1128.8</ele>
        <time>2021-05-29T08:35:45Z</time>
      </trkpt>
      <trkpt lat="42.95441" lon="0.27577">
        <ele>1129</ele>
        <time>2021-05-29T08:35:46Z</time>
      </trkpt>
      <trkpt lat="42.9544" lon="0.27577">
        <ele>1129.2</ele>
        <time>2021-05-29T08:35:47Z</time>
      </trkpt>
      <trkpt lat="42.95438" lon="0.27576">
        <ele>1129.2</ele>
        <time>2021-05-29T08:35:48Z</time>
      </trkpt>
      <trkpt lat="42.95437" lon="0.27576">
        <ele>1129.4</ele>
        <time>2021-05-29T08:35:49Z</time>
      </trkpt>
      <trkpt lat="42.95435" lon="0.27576">
        <ele>1129.6</ele>
        <time>2021-05-29T08:35:50Z</time>
      </trkpt>
      <trkpt lat="42.95434" lon="0.27575">
        <ele>1129.8</ele>
        <time>2021-05-29T08:35:51Z</time>
      </trkpt>
      <trkpt lat="42.95432" lon="0.27575">
        <ele>1129.8</ele>
        <time>2021-05-29T08:35:52Z</time>
      </trkpt>
      <trkpt lat="42.9543" lon="0.27574">
        <ele>1130</ele>
        <time>2021-05-29T08:35:53Z</time>
      </trkpt>
      <trkpt lat="42.95428" lon="0.27574">
        <ele>1130</ele>
        <time>2021-05-29T08:35:54Z</time>
      </trkpt>
      <trkpt lat="42.95427" lon="0.27574">
        <ele>1130.2</ele>
        <time>2021-05-29T08:35:55Z</time>
      </trkpt>
      <trkpt lat="42.95426" lon="0.27574">
        <ele>1130.4</ele>
        <time>2021-05-29T08:35:56Z</time>
      </trkpt>
      <trkpt lat="42.95424" lon="0.27574">
        <ele>1130.6</ele>
        <time>2021-05-29T08:35:57Z</time>
      </trkpt>
      <trkpt lat="42.95423" lon="0.27573">
        <ele>1130.6</ele>
        <time>2021-05-29T08:35:58Z</time>
      </trkpt>
      <trkpt lat="42.95421" lon="0.27573">
        <ele>1130.8</ele>
        <time>2021-05-29T08:35:59Z</time>
      </trkpt>
      <trkpt lat="42.9542" lon="0.27572">
        <ele>1131</ele>
        <time>2021-05-29T08:36:00Z</time>
      </trkpt>
      <trkpt lat="42.95419" lon="0.27571">
        <ele>1131</ele>
        <time>2021-05-29T08:36:01Z</time>
      </trkpt>
      <trkpt lat="42.95418" lon="0.2757">
        <ele>1131.2</ele>
        <time>2021-05-29T08:36:02Z</time>
      </trkpt>
      <trkpt lat="42.95416" lon="0.2757">
        <ele>1131.2</ele>
        <time>2021-05-29T08:36:03Z</time>
      </trkpt>
      <trkpt lat="42.95415" lon="0.27569">
        <ele>1131.4</ele>
        <time>2021-05-29T08:36:04Z</time>
      </trkpt>
      <trkpt lat="42.95414" lon="0.27569">
        <ele>1131.6</ele>
        <time>2021-05-29T08:36:05Z</time>
      </trkpt>
      <trkpt lat="42.95413" lon="0.27569">
        <ele>1131.6</ele>
        <time>2021-05-29T08:36:06Z</time>
      </trkpt>
      <trkpt lat="42.95411" lon="0.27568">
        <ele>1131.6</ele>
        <time>2021-05-29T08:36:07Z</time>
      </trkpt>
      <trkpt lat="42.9541" lon="0.27567">
        <ele>1131.8</ele>
        <time>2021-05-29T08:36:08Z</time>
      </trkpt>
      <trkpt lat="42.95409" lon="0.27567">
        <ele>1132</ele>
        <time>2021-05-29T08:36:09Z</time>
      </trkpt>
      <trkpt lat="42.95408" lon="0.27566">
        <ele>1132.2</ele>
        <time>2021-05-29T08:36:10Z</time>
      </trkpt>
      <trkpt lat="42.95407" lon="0.27565">
        <ele>1132.4</ele>
        <time>2021-05-29T08:36:11Z</time>
      </trkpt>
      <trkpt lat="42.95406" lon="0.27564">
        <ele>1132.6</ele>
        <time>2021-05-29T08:36:12Z</time>
      </trkpt>
      <trkpt lat="42.95405" lon="0.27563">
        <ele>1132.6</ele>
        <time>2021-05-29T08:36:13Z</time>
      </trkpt>
      <trkpt lat="42.95404" lon="0.27564">
        <ele>1132.6</ele>
        <time>2021-05-29T08:36:14Z</time>
      </trkpt>
      <trkpt lat="42.95403" lon="0.27563">
        <ele>1133</ele>
        <time>2021-05-29T08:36:15Z</time>
      </trkpt>
      <trkpt lat="42.95401" lon="0.27563">
        <ele>1133</ele>
        <time>2021-05-29T08:36:16Z</time>
      </trkpt>
      <trkpt lat="42.954" lon="0.27563">
        <ele>1133.2</ele>
        <time>2021-05-29T08:36:17Z</time>
      </trkpt>
      <trkpt lat="42.95399" lon="0.27563">
        <ele>1133.4</ele>
        <time>2021-05-29T08:36:18Z</time>
      </trkpt>
      <trkpt lat="42.95398" lon="0.27562">
        <ele>1133.6</ele>
        <time>2021-05-29T08:36:19Z</time>
      </trkpt>
      <trkpt lat="42.95397" lon="0.27562">
        <ele>1133.6</ele>
        <time>2021-05-29T08:36:20Z</time>
      </trkpt>
      <trkpt lat="42.95395" lon="0.27562">
        <ele>1133.8</ele>
        <time>2021-05-29T08:36:21Z</time>
      </trkpt>
      <trkpt lat="42.95393" lon="0.27561">
        <ele>1134</ele>
        <time>2021-05-29T08:36:22Z</time>
      </trkpt>
      <trkpt lat="42.95391" lon="0.27559">
        <ele>1134.2</ele>
        <time>2021-05-29T08:36:23Z</time>
      </trkpt>
      <trkpt lat="42.95389" lon="0.27559">
        <ele>1134.4</ele>
        <time>2021-05-29T08:36:24Z</time>
      </trkpt>
      <trkpt lat="42.95386" lon="0.27558">
        <ele>1134.6</ele>
        <time>2021-05-29T08:36:25Z</time>
      </trkpt>
      <trkpt lat="42.95385" lon="0.27558">
        <ele>1134.8</ele>
        <time>2021-05-29T08:36:26Z</time>
      </trkpt>
      <trkpt lat="42.95383" lon="0.27558">
        <ele>1135</ele>
        <time>2021-05-29T08:36:27Z</time>
      </trkpt>
      <trkpt lat="42.95382" lon="0.27558">
        <ele>1135</ele>
        <time>2021-05-29T08:36:28Z</time>
      </trkpt>
      <trkpt lat="42.9538" lon="0.27557">
        <ele>1135.2</ele>
        <time>2021-05-29T08:36:29Z</time>
      </trkpt>
      <trkpt lat="42.95379" lon="0.27557">
        <ele>1135.4</ele>
        <time>2021-05-29T08:36:30Z</time>
      </trkpt>
      <trkpt lat="42.95378" lon="0.27557">
        <ele>1135.4</ele>
        <time>2021-05-29T08:36:31Z</time>
      </trkpt>
      <trkpt lat="42.95376" lon="0.27556">
        <ele>1135.4</ele>
        <time>2021-05-29T08:36:32Z</time>
      </trkpt>
      <trkpt lat="42.95375" lon="0.27555">
        <ele>1135.6</ele>
        <time>2021-05-29T08:36:33Z</time>
      </trkpt>
      <trkpt lat="42.95373" lon="0.27554">
        <ele>1135.8</ele>
        <time>2021-05-29T08:36:34Z</time>
      </trkpt>
      <trkpt lat="42.95371" lon="0.27553">
        <ele>1135.8</ele>
        <time>2021-05-29T08:36:35Z</time>
      </trkpt>
      <trkpt lat="42.95369" lon="0.27551">
        <ele>1136</ele>
        <time>2021-05-29T08:36:36Z</time>
      </trkpt>
      <trkpt lat="42.95368" lon="0.2755">
        <ele>1136</ele>
        <time>2021-05-29T08:36:37Z</time>
      </trkpt>
      <trkpt lat="42.95366" lon="0.27549">
        <ele>1136.4</ele>
        <time>2021-05-29T08:36:38Z</time>
      </trkpt>
      <trkpt lat="42.95365" lon="0.27547">
        <ele>1136.4</ele>
        <time>2021-05-29T08:36:39Z</time>
      </trkpt>
      <trkpt lat="42.95363" lon="0.27546">
        <ele>1136.8</ele>
        <time>2021-05-29T08:36:40Z</time>
      </trkpt>
      <trkpt lat="42.95362" lon="0.27545">
        <ele>1136.8</ele>
        <time>2021-05-29T08:36:41Z</time>
      </trkpt>
      <trkpt lat="42.9536" lon="0.27543">
        <ele>1137</ele>
        <time>2021-05-29T08:36:42Z</time>
      </trkpt>
      <trkpt lat="42.95359" lon="0.27542">
        <ele>1137.2</ele>
        <time>2021-05-29T08:36:43Z</time>
      </trkpt>
      <trkpt lat="42.95358" lon="0.27541">
        <ele>1137.4</ele>
        <time>2021-05-29T08:36:44Z</time>
      </trkpt>
      <trkpt lat="42.95356" lon="0.27539">
        <ele>1137.6</ele>
        <time>2021-05-29T08:36:45Z</time>
      </trkpt>
      <trkpt lat="42.95355" lon="0.27538">
        <ele>1137.6</ele>
        <time>2021-05-29T08:36:46Z</time>
      </trkpt>
      <trkpt lat="42.95353" lon="0.27537">
        <ele>1137.8</ele>
        <time>2021-05-29T08:36:47Z</time>
      </trkpt>
      <trkpt lat="42.95352" lon="0.27536">
        <ele>1137.8</ele>
        <time>2021-05-29T08:36:48Z</time>
      </trkpt>
      <trkpt lat="42.95351" lon="0.27535">
        <ele>1138</ele>
        <time>2021-05-29T08:36:49Z</time>
      </trkpt>
      <trkpt lat="42.9535" lon="0.27534">
        <ele>1138.2</ele>
        <time>2021-05-29T08:36:50Z</time>
      </trkpt>
      <trkpt lat="42.95349" lon="0.27533">
        <ele>1138.4</ele>
        <time>2021-05-29T08:36:51Z</time>
      </trkpt>
      <trkpt lat="42.95348" lon="0.27532">
        <ele>1138.6</ele>
        <time>2021-05-29T08:36:52Z</time>
      </trkpt>
      <trkpt lat="42.95348" lon="0.27531">
        <ele>1138.6</ele>
        <time>2021-05-29T08:36:53Z</time>
      </trkpt>
      <trkpt lat="42.95347" lon="0.27531">
        <ele>1138.8</ele>
        <time>2021-05-29T08:36:54Z</time>
      </trkpt>
      <trkpt lat="42.95346" lon="0.27531">
        <ele>1139.2</ele>
        <time>2021-05-29T08:36:55Z</time>
      </trkpt>
      <trkpt lat="42.95346" lon="0.2753">
        <ele>1139.2</ele>
        <time>2021-05-29T08:36:56Z</time>
      </trkpt>
      <trkpt lat="42.95346" lon="0.27529">
        <ele>1139.6</ele>
        <time>2021-05-29T08:36:57Z</time>
      </trkpt>
      <trkpt lat="42.95344" lon="0.27528">
        <ele>1139.6</ele>
        <time>2021-05-29T08:36:58Z</time>
      </trkpt>
      <trkpt lat="42.95343" lon="0.27527">
        <ele>1139.8</ele>
        <time>2021-05-29T08:36:59Z</time>
      </trkpt>
      <trkpt lat="42.95341" lon="0.27526">
        <ele>1139.8</ele>
        <time>2021-05-29T08:37:00Z</time>
      </trkpt>
      <trkpt lat="42.9534" lon="0.27524">
        <ele>1140.2</ele>
        <time>2021-05-29T08:37:01Z</time>
      </trkpt>
      <trkpt lat="42.95339" lon="0.27523">
        <ele>1140.4</ele>
        <time>2021-05-29T08:37:02Z</time>
      </trkpt>
      <trkpt lat="42.95336" lon="0.27521">
        <ele>1140.6</ele>
        <time>2021-05-29T08:37:03Z</time>
      </trkpt>
      <trkpt lat="42.95335" lon="0.27519">
        <ele>1140.6</ele>
        <time>2021-05-29T08:37:04Z</time>
      </trkpt>
      <trkpt lat="42.95333" lon="0.27517">
        <ele>1140.8</ele>
        <time>2021-05-29T08:37:05Z</time>
      </trkpt>
      <trkpt lat="42.95331" lon="0.27515">
        <ele>1140.8</ele>
        <time>2021-05-29T08:37:06Z</time>
      </trkpt>
      <trkpt lat="42.9533" lon="0.27514">
        <ele>1141</ele>
        <time>2021-05-29T08:37:07Z</time>
      </trkpt>
      <trkpt lat="42.95328" lon="0.27513">
        <ele>1141</ele>
        <time>2021-05-29T08:37:08Z</time>
      </trkpt>
      <trkpt lat="42.95327" lon="0.27512">
        <ele>1141.2</ele>
        <time>2021-05-29T08:37:09Z</time>
      </trkpt>
      <trkpt lat="42.95326" lon="0.2751">
        <ele>1141.4</ele>
        <time>2021-05-29T08:37:10Z</time>
      </trkpt>
      <trkpt lat="42.95326" lon="0.27509">
        <ele>1141.2</ele>
        <time>2021-05-29T08:37:11Z</time>
      </trkpt>
      <trkpt lat="42.95325" lon="0.27507">
        <ele>1141.4</ele>
        <time>2021-05-29T08:37:12Z</time>
      </trkpt>
      <trkpt lat="42.95324" lon="0.27504">
        <ele>1141.4</ele>
        <time>2021-05-29T08:37:13Z</time>
      </trkpt>
      <trkpt lat="42.95323" lon="0.27503">
        <ele>1141.6</ele>
        <time>2021-05-29T08:37:14Z</time>
      </trkpt>
      <trkpt lat="42.95322" lon="0.27502">
        <ele>1141.8</ele>
        <time>2021-05-29T08:37:15Z</time>
      </trkpt>
      <trkpt lat="42.9532" lon="0.275">
        <ele>1142</ele>
        <time>2021-05-29T08:37:16Z</time>
      </trkpt>
      <trkpt lat="42.95319" lon="0.27498">
        <ele>1142</ele>
        <time>2021-05-29T08:37:17Z</time>
      </trkpt>
      <trkpt lat="42.95318" lon="0.27497">
        <ele>1142.2</ele>
        <time>2021-05-29T08:37:18Z</time>
      </trkpt>
      <trkpt lat="42.95316" lon="0.27496">
        <ele>1142.4</ele>
        <time>2021-05-29T08:37:19Z</time>
      </trkpt>
      <trkpt lat="42.95315" lon="0.27494">
        <ele>1142.6</ele>
        <time>2021-05-29T08:37:20Z</time>
      </trkpt>
      <trkpt lat="42.95314" lon="0.27492">
        <ele>1142.8</ele>
        <time>2021-05-29T08:37:21Z</time>
      </trkpt>
      <trkpt lat="42.95313" lon="0.27491">
        <ele>1143</ele>
        <time>2021-05-29T08:37:22Z</time>
      </trkpt>
      <trkpt lat="42.95313" lon="0.27489">
        <ele>1143.2</ele>
        <time>2021-05-29T08:37:23Z</time>
      </trkpt>
      <trkpt lat="42.95311" lon="0.27486">
        <ele>1143.2</ele>
        <time>2021-05-29T08:37:24Z</time>
      </trkpt>
      <trkpt lat="42.95309" lon="0.27484">
        <ele>1143.4</ele>
        <time>2021-05-29T08:37:25Z</time>
      </trkpt>
      <trkpt lat="42.95308" lon="0.27483">
        <ele>1143.6</ele>
        <time>2021-05-29T08:37:26Z</time>
      </trkpt>
      <trkpt lat="42.95307" lon="0.27482">
        <ele>1143.6</ele>
        <time>2021-05-29T08:37:27Z</time>
      </trkpt>
      <trkpt lat="42.95307" lon="0.27481">
        <ele>1143.6</ele>
        <time>2021-05-29T08:37:28Z</time>
      </trkpt>
      <trkpt lat="42.95306" lon="0.2748">
        <ele>1144</ele>
        <time>2021-05-29T08:37:29Z</time>
      </trkpt>
      <trkpt lat="42.95305" lon="0.27478">
        <ele>1144</ele>
        <time>2021-05-29T08:37:30Z</time>
      </trkpt>
      <trkpt lat="42.95305" lon="0.27476">
        <ele>1144.4</ele>
        <time>2021-05-29T08:37:31Z</time>
      </trkpt>
      <trkpt lat="42.95305" lon="0.27474">
        <ele>1144.2</ele>
        <time>2021-05-29T08:37:32Z</time>
      </trkpt>
      <trkpt lat="42.95305" lon="0.27472">
        <ele>1144.6</ele>
        <time>2021-05-29T08:37:33Z</time>
      </trkpt>
      <trkpt lat="42.95304" lon="0.2747">
        <ele>1144.6</ele>
        <time>2021-05-29T08:37:34Z</time>
      </trkpt>
      <trkpt lat="42.95303" lon="0.27468">
        <ele>1145</ele>
        <time>2021-05-29T08:37:35Z</time>
      </trkpt>
      <trkpt lat="42.95303" lon="0.27467">
        <ele>1145</ele>
        <time>2021-05-29T08:37:36Z</time>
      </trkpt>
      <trkpt lat="42.95303" lon="0.27465">
        <ele>1145.2</ele>
        <time>2021-05-29T08:37:37Z</time>
      </trkpt>
      <trkpt lat="42.95303" lon="0.27463">
        <ele>1145.4</ele>
        <time>2021-05-29T08:37:38Z</time>
      </trkpt>
      <trkpt lat="42.95303" lon="0.27461">
        <ele>1145.6</ele>
        <time>2021-05-29T08:37:39Z</time>
      </trkpt>
      <trkpt lat="42.95303" lon="0.2746">
        <ele>1145.8</ele>
        <time>2021-05-29T08:37:40Z</time>
      </trkpt>
      <trkpt lat="42.95303" lon="0.27459">
        <ele>1145.8</ele>
        <time>2021-05-29T08:37:41Z</time>
      </trkpt>
      <trkpt lat="42.95303" lon="0.27457">
        <ele>1146</ele>
        <time>2021-05-29T08:37:42Z</time>
      </trkpt>
      <trkpt lat="42.95302" lon="0.27454">
        <ele>1146</ele>
        <time>2021-05-29T08:37:43Z</time>
      </trkpt>
      <trkpt lat="42.95302" lon="0.27452">
        <ele>1146.4</ele>
        <time>2021-05-29T08:37:44Z</time>
      </trkpt>
      <trkpt lat="42.95303" lon="0.27451">
        <ele>1146.6</ele>
        <time>2021-05-29T08:37:45Z</time>
      </trkpt>
      <trkpt lat="42.95302" lon="0.27449">
        <ele>1146.8</ele>
        <time>2021-05-29T08:37:46Z</time>
      </trkpt>
      <trkpt lat="42.95301" lon="0.27447">
        <ele>1146.8</ele>
        <time>2021-05-29T08:37:47Z</time>
      </trkpt>
      <trkpt lat="42.95299" lon="0.27445">
        <ele>1147</ele>
        <time>2021-05-29T08:37:48Z</time>
      </trkpt>
      <trkpt lat="42.95298" lon="0.27443">
        <ele>1147</ele>
        <time>2021-05-29T08:37:49Z</time>
      </trkpt>
      <trkpt lat="42.95295" lon="0.27441">
        <ele>1147.2</ele>
        <time>2021-05-29T08:37:50Z</time>
      </trkpt>
      <trkpt lat="42.95294" lon="0.27439">
        <ele>1147.4</ele>
        <time>2021-05-29T08:37:51Z</time>
      </trkpt>
      <trkpt lat="42.95293" lon="0.27437">
        <ele>1147.6</ele>
        <time>2021-05-29T08:37:52Z</time>
      </trkpt>
      <trkpt lat="42.95291" lon="0.27436">
        <ele>1147.6</ele>
        <time>2021-05-29T08:37:53Z</time>
      </trkpt>
      <trkpt lat="42.95291" lon="0.27434">
        <ele>1147.8</ele>
        <time>2021-05-29T08:37:54Z</time>
      </trkpt>
      <trkpt lat="42.9529" lon="0.27432">
        <ele>1148</ele>
        <time>2021-05-29T08:37:55Z</time>
      </trkpt>
      <trkpt lat="42.95289" lon="0.2743">
        <ele>1148.2</ele>
        <time>2021-05-29T08:37:56Z</time>
      </trkpt>
      <trkpt lat="42.95288" lon="0.27428">
        <ele>1148.2</ele>
        <time>2021-05-29T08:37:57Z</time>
      </trkpt>
      <trkpt lat="42.95286" lon="0.27427">
        <ele>1148.4</ele>
        <time>2021-05-29T08:37:58Z</time>
      </trkpt>
      <trkpt lat="42.95286" lon="0.27424">
        <ele>1148.8</ele>
        <time>2021-05-29T08:37:59Z</time>
      </trkpt>
      <trkpt lat="42.95286" lon="0.27421">
        <ele>1149</ele>
        <time>2021-05-29T08:38:00Z</time>
      </trkpt>
      <trkpt lat="42.95285" lon="0.27417">
        <ele>1149.2</ele>
        <time>2021-05-29T08:38:01Z</time>
      </trkpt>
      <trkpt lat="42.95285" lon="0.27414">
        <ele>1149.2</ele>
        <time>2021-05-29T08:38:02Z</time>
      </trkpt>
      <trkpt lat="42.95283" lon="0.27412">
        <ele>1149.4</ele>
        <time>2021-05-29T08:38:03Z</time>
      </trkpt>
      <trkpt lat="42.95282" lon="0.27409">
        <ele>1149.4</ele>
        <time>2021-05-29T08:38:04Z</time>
      </trkpt>
      <trkpt lat="42.95281" lon="0.27408">
        <ele>1149.4</ele>
        <time>2021-05-29T08:38:05Z</time>
      </trkpt>
      <trkpt lat="42.9528" lon="0.27407">
        <ele>1149.6</ele>
        <time>2021-05-29T08:38:06Z</time>
      </trkpt>
      <trkpt lat="42.95279" lon="0.27406">
        <ele>1149.8</ele>
        <time>2021-05-29T08:38:07Z</time>
      </trkpt>
      <trkpt lat="42.95278" lon="0.27404">
        <ele>1150</ele>
        <time>2021-05-29T08:38:08Z</time>
      </trkpt>
      <trkpt lat="42.95277" lon="0.27403">
        <ele>1150</ele>
        <time>2021-05-29T08:38:09Z</time>
      </trkpt>
      <trkpt lat="42.95276" lon="0.27401">
        <ele>1150.2</ele>
        <time>2021-05-29T08:38:10Z</time>
      </trkpt>
      <trkpt lat="42.95276" lon="0.274">
        <ele>1150.4</ele>
        <time>2021-05-29T08:38:11Z</time>
      </trkpt>
      <trkpt lat="42.95275" lon="0.27398">
        <ele>1150.4</ele>
        <time>2021-05-29T08:38:12Z</time>
      </trkpt>
      <trkpt lat="42.95274" lon="0.27396">
        <ele>1150.8</ele>
        <time>2021-05-29T08:38:13Z</time>
      </trkpt>
      <trkpt lat="42.95273" lon="0.27395">
        <ele>1151</ele>
        <time>2021-05-29T08:38:14Z</time>
      </trkpt>
      <trkpt lat="42.95272" lon="0.27393">
        <ele>1151.2</ele>
        <time>2021-05-29T08:38:15Z</time>
      </trkpt>
      <trkpt lat="42.9527" lon="0.27392">
        <ele>1151.4</ele>
        <time>2021-05-29T08:38:16Z</time>
      </trkpt>
      <trkpt lat="42.95269" lon="0.27391">
        <ele>1151.4</ele>
        <time>2021-05-29T08:38:17Z</time>
      </trkpt>
      <trkpt lat="42.95267" lon="0.27389">
        <ele>1151.6</ele>
        <time>2021-05-29T08:38:18Z</time>
      </trkpt>
      <trkpt lat="42.95266" lon="0.27388">
        <ele>1151.8</ele>
        <time>2021-05-29T08:38:19Z</time>
      </trkpt>
      <trkpt lat="42.95265" lon="0.27386">
        <ele>1151.8</ele>
        <time>2021-05-29T08:38:20Z</time>
      </trkpt>
      <trkpt lat="42.95264" lon="0.27384">
        <ele>1152</ele>
        <time>2021-05-29T08:38:21Z</time>
      </trkpt>
      <trkpt lat="42.95263" lon="0.27383">
        <ele>1152.2</ele>
        <time>2021-05-29T08:38:22Z</time>
      </trkpt>
      <trkpt lat="42.95262" lon="0.27381">
        <ele>1152.2</ele>
        <time>2021-05-29T08:38:23Z</time>
      </trkpt>
      <trkpt lat="42.95261" lon="0.2738">
        <ele>1152.4</ele>
        <time>2021-05-29T08:38:24Z</time>
      </trkpt>
      <trkpt lat="42.9526" lon="0.27378">
        <ele>1152.4</ele>
        <time>2021-05-29T08:38:25Z</time>
      </trkpt>
      <trkpt lat="42.95259" lon="0.27377">
        <ele>1152.6</ele>
        <time>2021-05-29T08:38:26Z</time>
      </trkpt>
      <trkpt lat="42.95258" lon="0.27376">
        <ele>1152.8</ele>
        <time>2021-05-29T08:38:27Z</time>
      </trkpt>
      <trkpt lat="42.95257" lon="0.27374">
        <ele>1153</ele>
        <time>2021-05-29T08:38:28Z</time>
      </trkpt>
      <trkpt lat="42.95256" lon="0.27373">
        <ele>1153</ele>
        <time>2021-05-29T08:38:29Z</time>
      </trkpt>
      <trkpt lat="42.95255" lon="0.2737">
        <ele>1153.2</ele>
        <time>2021-05-29T08:38:30Z</time>
      </trkpt>
      <trkpt lat="42.95254" lon="0.27369">
        <ele>1153.4</ele>
        <time>2021-05-29T08:38:31Z</time>
      </trkpt>
      <trkpt lat="42.95253" lon="0.27367">
        <ele>1153.4</ele>
        <time>2021-05-29T08:38:32Z</time>
      </trkpt>
      <trkpt lat="42.9525" lon="0.27365">
        <ele>1153.6</ele>
        <time>2021-05-29T08:38:33Z</time>
      </trkpt>
      <trkpt lat="42.95249" lon="0.27364">
        <ele>1153.6</ele>
        <time>2021-05-29T08:38:34Z</time>
      </trkpt>
      <trkpt lat="42.95248" lon="0.27363">
        <ele>1153.6</ele>
        <time>2021-05-29T08:38:35Z</time>
      </trkpt>
      <trkpt lat="42.95246" lon="0.27362">
        <ele>1153.8</ele>
        <time>2021-05-29T08:38:36Z</time>
      </trkpt>
      <trkpt lat="42.95244" lon="0.27361">
        <ele>1154</ele>
        <time>2021-05-29T08:38:37Z</time>
      </trkpt>
      <trkpt lat="42.95242" lon="0.2736">
        <ele>1154</ele>
        <time>2021-05-29T08:38:38Z</time>
      </trkpt>
      <trkpt lat="42.95239" lon="0.27358">
        <ele>1154.2</ele>
        <time>2021-05-29T08:38:39Z</time>
      </trkpt>
      <trkpt lat="42.95238" lon="0.27356">
        <ele>1154.2</ele>
        <time>2021-05-29T08:38:40Z</time>
      </trkpt>
      <trkpt lat="42.95237" lon="0.27355">
        <ele>1154.4</ele>
        <time>2021-05-29T08:38:41Z</time>
      </trkpt>
      <trkpt lat="42.95236" lon="0.27354">
        <ele>1154.4</ele>
        <time>2021-05-29T08:38:42Z</time>
      </trkpt>
      <trkpt lat="42.95235" lon="0.27353">
        <ele>1154.6</ele>
        <time>2021-05-29T08:38:43Z</time>
      </trkpt>
      <trkpt lat="42.95233" lon="0.27352">
        <ele>1154.8</ele>
        <time>2021-05-29T08:38:44Z</time>
      </trkpt>
      <trkpt lat="42.95232" lon="0.27351">
        <ele>1155</ele>
        <time>2021-05-29T08:38:45Z</time>
      </trkpt>
      <trkpt lat="42.9523" lon="0.27349">
        <ele>1155</ele>
        <time>2021-05-29T08:38:46Z</time>
      </trkpt>
      <trkpt lat="42.95229" lon="0.27349">
        <ele>1155</ele>
        <time>2021-05-29T08:38:47Z</time>
      </trkpt>
      <trkpt lat="42.95228" lon="0.27349">
        <ele>1155.2</ele>
        <time>2021-05-29T08:38:48Z</time>
      </trkpt>
      <trkpt lat="42.95226" lon="0.27348">
        <ele>1155.2</ele>
        <time>2021-05-29T08:38:49Z</time>
      </trkpt>
      <trkpt lat="42.95225" lon="0.27347">
        <ele>1155.2</ele>
        <time>2021-05-29T08:38:50Z</time>
      </trkpt>
      <trkpt lat="42.95224" lon="0.27347">
        <ele>1155.4</ele>
        <time>2021-05-29T08:38:51Z</time>
      </trkpt>
      <trkpt lat="42.95223" lon="0.27347">
        <ele>1155.6</ele>
        <time>2021-05-29T08:38:52Z</time>
      </trkpt>
      <trkpt lat="42.95222" lon="0.27346">
        <ele>1155.8</ele>
        <time>2021-05-29T08:38:53Z</time>
      </trkpt>
      <trkpt lat="42.9522" lon="0.27346">
        <ele>1156</ele>
        <time>2021-05-29T08:38:54Z</time>
      </trkpt>
      <trkpt lat="42.95219" lon="0.27346">
        <ele>1156.2</ele>
        <time>2021-05-29T08:38:55Z</time>
      </trkpt>
      <trkpt lat="42.95217" lon="0.27346">
        <ele>1156.4</ele>
        <time>2021-05-29T08:38:56Z</time>
      </trkpt>
      <trkpt lat="42.95216" lon="0.27346">
        <ele>1156.4</ele>
        <time>2021-05-29T08:38:57Z</time>
      </trkpt>
      <trkpt lat="42.95215" lon="0.27345">
        <ele>1156.6</ele>
        <time>2021-05-29T08:38:58Z</time>
      </trkpt>
      <trkpt lat="42.95213" lon="0.27345">
        <ele>1156.6</ele>
        <time>2021-05-29T08:38:59Z</time>
      </trkpt>
      <trkpt lat="42.95212" lon="0.27345">
        <ele>1156.8</ele>
        <time>2021-05-29T08:39:00Z</time>
      </trkpt>
      <trkpt lat="42.95211" lon="0.27345">
        <ele>1156.8</ele>
        <time>2021-05-29T08:39:01Z</time>
      </trkpt>
      <trkpt lat="42.95209" lon="0.27345">
        <ele>1157</ele>
        <time>2021-05-29T08:39:02Z</time>
      </trkpt>
      <trkpt lat="42.95208" lon="0.27345">
        <ele>1157</ele>
        <time>2021-05-29T08:39:03Z</time>
      </trkpt>
      <trkpt lat="42.95206" lon="0.27344">
        <ele>1157.2</ele>
        <time>2021-05-29T08:39:04Z</time>
      </trkpt>
      <trkpt lat="42.95204" lon="0.27344">
        <ele>1157.4</ele>
        <time>2021-05-29T08:39:05Z</time>
      </trkpt>
      <trkpt lat="42.95202" lon="0.27344">
        <ele>1157.4</ele>
        <time>2021-05-29T08:39:06Z</time>
      </trkpt>
      <trkpt lat="42.95201" lon="0.27343">
        <ele>1157.6</ele>
        <time>2021-05-29T08:39:07Z</time>
      </trkpt>
      <trkpt lat="42.952" lon="0.27343">
        <ele>1157.6</ele>
        <time>2021-05-29T08:39:08Z</time>
      </trkpt>
      <trkpt lat="42.95199" lon="0.27343">
        <ele>1157.8</ele>
        <time>2021-05-29T08:39:09Z</time>
      </trkpt>
      <trkpt lat="42.95197" lon="0.27343">
        <ele>1158</ele>
        <time>2021-05-29T08:39:10Z</time>
      </trkpt>
      <trkpt lat="42.95196" lon="0.27343">
        <ele>1158.2</ele>
        <time>2021-05-29T08:39:11Z</time>
      </trkpt>
      <trkpt lat="42.95194" lon="0.27342">
        <ele>1158.2</ele>
        <time>2021-05-29T08:39:12Z</time>
      </trkpt>
      <trkpt lat="42.95192" lon="0.27342">
        <ele>1158.2</ele>
        <time>2021-05-29T08:39:13Z</time>
      </trkpt>
      <trkpt lat="42.95191" lon="0.27342">
        <ele>1158.4</ele>
        <time>2021-05-29T08:39:14Z</time>
      </trkpt>
      <trkpt lat="42.95189" lon="0.27342">
        <ele>1158.6</ele>
        <time>2021-05-29T08:39:15Z</time>
      </trkpt>
      <trkpt lat="42.95187" lon="0.27341">
        <ele>1158.6</ele>
        <time>2021-05-29T08:39:16Z</time>
      </trkpt>
      <trkpt lat="42.95185" lon="0.27339">
        <ele>1159</ele>
        <time>2021-05-29T08:39:17Z</time>
      </trkpt>
      <trkpt lat="42.95182" lon="0.27338">
        <ele>1159</ele>
        <time>2021-05-29T08:39:18Z</time>
      </trkpt>
      <trkpt lat="42.9518" lon="0.27338">
        <ele>1159</ele>
        <time>2021-05-29T08:39:19Z</time>
      </trkpt>
      <trkpt lat="42.95178" lon="0.27338">
        <ele>1159</ele>
        <time>2021-05-29T08:39:20Z</time>
      </trkpt>
      <trkpt lat="42.95176" lon="0.27338">
        <ele>1159.2</ele>
        <time>2021-05-29T08:39:21Z</time>
      </trkpt>
      <trkpt lat="42.95174" lon="0.27338">
        <ele>1159.4</ele>
        <time>2021-05-29T08:39:22Z</time>
      </trkpt>
      <trkpt lat="42.95172" lon="0.27339">
        <ele>1159.4</ele>
        <time>2021-05-29T08:39:23Z</time>
      </trkpt>
      <trkpt lat="42.9517" lon="0.27341">
        <ele>1159.8</ele>
        <time>2021-05-29T08:39:24Z</time>
      </trkpt>
      <trkpt lat="42.95168" lon="0.2734">
        <ele>1160</ele>
        <time>2021-05-29T08:39:25Z</time>
      </trkpt>
      <trkpt lat="42.95166" lon="0.2734">
        <ele>1160</ele>
        <time>2021-05-29T08:39:26Z</time>
      </trkpt>
      <trkpt lat="42.95165" lon="0.2734">
        <ele>1160.2</ele>
        <time>2021-05-29T08:39:27Z</time>
      </trkpt>
      <trkpt lat="42.95163" lon="0.2734">
        <ele>1160.2</ele>
        <time>2021-05-29T08:39:28Z</time>
      </trkpt>
      <trkpt lat="42.95161" lon="0.27341">
        <ele>1160.2</ele>
        <time>2021-05-29T08:39:29Z</time>
      </trkpt>
      <trkpt lat="42.9516" lon="0.27342">
        <ele>1160.4</ele>
        <time>2021-05-29T08:39:30Z</time>
      </trkpt>
      <trkpt lat="42.9516" lon="0.27342">
        <ele>1160.4</ele>
        <time>2021-05-29T08:39:31Z</time>
      </trkpt>
      <trkpt lat="42.95159" lon="0.27342">
        <ele>1160.4</ele>
        <time>2021-05-29T08:39:32Z</time>
      </trkpt>
      <trkpt lat="42.95159" lon="0.27342">
        <ele>1160.6</ele>
        <time>2021-05-29T08:39:33Z</time>
      </trkpt>
      <trkpt lat="42.95157" lon="0.27342">
        <ele>1160.8</ele>
        <time>2021-05-29T08:39:34Z</time>
      </trkpt>
      <trkpt lat="42.95156" lon="0.27343">
        <ele>1160.8</ele>
        <time>2021-05-29T08:39:35Z</time>
      </trkpt>
      <trkpt lat="42.95155" lon="0.27344">
        <ele>1161</ele>
        <time>2021-05-29T08:39:36Z</time>
      </trkpt>
      <trkpt lat="42.95153" lon="0.27345">
        <ele>1161.2</ele>
        <time>2021-05-29T08:39:37Z</time>
      </trkpt>
      <trkpt lat="42.95152" lon="0.27345">
        <ele>1161.2</ele>
        <time>2021-05-29T08:39:38Z</time>
      </trkpt>
      <trkpt lat="42.95151" lon="0.27346">
        <ele>1161.4</ele>
        <time>2021-05-29T08:39:39Z</time>
      </trkpt>
      <trkpt lat="42.9515" lon="0.27347">
        <ele>1161.6</ele>
        <time>2021-05-29T08:39:40Z</time>
      </trkpt>
      <trkpt lat="42.95148" lon="0.27347">
        <ele>1161.8</ele>
        <time>2021-05-29T08:39:41Z</time>
      </trkpt>
      <trkpt lat="42.95147" lon="0.27346">
        <ele>1161.8</ele>
        <time>2021-05-29T08:39:42Z</time>
      </trkpt>
      <trkpt lat="42.95145" lon="0.27347">
        <ele>1162</ele>
        <time>2021-05-29T08:39:43Z</time>
      </trkpt>
      <trkpt lat="42.95144" lon="0.27347">
        <ele>1162.2</ele>
        <time>2021-05-29T08:39:44Z</time>
      </trkpt>
      <trkpt lat="42.95142" lon="0.27348">
        <ele>1162.4</ele>
        <time>2021-05-29T08:39:45Z</time>
      </trkpt>
      <trkpt lat="42.9514" lon="0.27348">
        <ele>1162.6</ele>
        <time>2021-05-29T08:39:46Z</time>
      </trkpt>
      <trkpt lat="42.95139" lon="0.27349">
        <ele>1163</ele>
        <time>2021-05-29T08:39:47Z</time>
      </trkpt>
      <trkpt lat="42.95138" lon="0.27349">
        <ele>1163</ele>
        <time>2021-05-29T08:39:48Z</time>
      </trkpt>
      <trkpt lat="42.95138" lon="0.27349">
        <ele>1163.2</ele>
        <time>2021-05-29T08:39:49Z</time>
      </trkpt>
      <trkpt lat="42.95138" lon="0.27349">
        <ele>1163.2</ele>
        <time>2021-05-29T08:39:50Z</time>
      </trkpt>
      <trkpt lat="42.95138" lon="0.27349">
        <ele>1163.6</ele>
        <time>2021-05-29T08:39:51Z</time>
      </trkpt>
      <trkpt lat="42.95137" lon="0.27349">
        <ele>1163.6</ele>
        <time>2021-05-29T08:39:52Z</time>
      </trkpt>
      <trkpt lat="42.95136" lon="0.27349">
        <ele>1164.2</ele>
        <time>2021-05-29T08:39:53Z</time>
      </trkpt>
      <trkpt lat="42.95134" lon="0.27349">
        <ele>1164.2</ele>
        <time>2021-05-29T08:39:54Z</time>
      </trkpt>
      <trkpt lat="42.95133" lon="0.2735">
        <ele>1164.6</ele>
        <time>2021-05-29T08:39:55Z</time>
      </trkpt>
      <trkpt lat="42.95132" lon="0.2735">
        <ele>1164.8</ele>
        <time>2021-05-29T08:39:56Z</time>
      </trkpt>
      <trkpt lat="42.95129" lon="0.27351">
        <ele>1164.8</ele>
        <time>2021-05-29T08:39:57Z</time>
      </trkpt>
      <trkpt lat="42.95127" lon="0.27352">
        <ele>1165</ele>
        <time>2021-05-29T08:39:58Z</time>
      </trkpt>
      <trkpt lat="42.95125" lon="0.27353">
        <ele>1165</ele>
        <time>2021-05-29T08:39:59Z</time>
      </trkpt>
      <trkpt lat="42.95123" lon="0.27354">
        <ele>1165.2</ele>
        <time>2021-05-29T08:40:00Z</time>
      </trkpt>
      <trkpt lat="42.9512" lon="0.27355">
        <ele>1165.4</ele>
        <time>2021-05-29T08:40:01Z</time>
      </trkpt>
      <trkpt lat="42.95118" lon="0.27355">
        <ele>1165.6</ele>
        <time>2021-05-29T08:40:02Z</time>
      </trkpt>
      <trkpt lat="42.95115" lon="0.27356">
        <ele>1165.8</ele>
        <time>2021-05-29T08:40:03Z</time>
      </trkpt>
      <trkpt lat="42.95114" lon="0.27356">
        <ele>1165.8</ele>
        <time>2021-05-29T08:40:04Z</time>
      </trkpt>
      <trkpt lat="42.95113" lon="0.27356">
        <ele>1166</ele>
        <time>2021-05-29T08:40:05Z</time>
      </trkpt>
      <trkpt lat="42.95112" lon="0.27355">
        <ele>1166</ele>
        <time>2021-05-29T08:40:06Z</time>
      </trkpt>
      <trkpt lat="42.9511" lon="0.27355">
        <ele>1166</ele>
        <time>2021-05-29T08:40:07Z</time>
      </trkpt>
      <trkpt lat="42.95109" lon="0.27356">
        <ele>1166.2</ele>
        <time>2021-05-29T08:40:08Z</time>
      </trkpt>
      <trkpt lat="42.95107" lon="0.27356">
        <ele>1166.4</ele>
        <time>2021-05-29T08:40:09Z</time>
      </trkpt>
      <trkpt lat="42.95105" lon="0.27357">
        <ele>1166.6</ele>
        <time>2021-05-29T08:40:10Z</time>
      </trkpt>
      <trkpt lat="42.95102" lon="0.27358">
        <ele>1166.6</ele>
        <time>2021-05-29T08:40:11Z</time>
      </trkpt>
      <trkpt lat="42.951" lon="0.27359">
        <ele>1166.8</ele>
        <time>2021-05-29T08:40:12Z</time>
      </trkpt>
      <trkpt lat="42.95098" lon="0.2736">
        <ele>1167</ele>
        <time>2021-05-29T08:40:13Z</time>
      </trkpt>
      <trkpt lat="42.95097" lon="0.2736">
        <ele>1167</ele>
        <time>2021-05-29T08:40:14Z</time>
      </trkpt>
      <trkpt lat="42.95095" lon="0.2736">
        <ele>1167.2</ele>
        <time>2021-05-29T08:40:15Z</time>
      </trkpt>
      <trkpt lat="42.95095" lon="0.2736">
        <ele>1167.2</ele>
        <time>2021-05-29T08:40:16Z</time>
      </trkpt>
      <trkpt lat="42.95095" lon="0.27361">
        <ele>1167.4</ele>
        <time>2021-05-29T08:40:17Z</time>
      </trkpt>
      <trkpt lat="42.95094" lon="0.27361">
        <ele>1167.4</ele>
        <time>2021-05-29T08:40:18Z</time>
      </trkpt>
      <trkpt lat="42.95093" lon="0.27362">
        <ele>1167.6</ele>
        <time>2021-05-29T08:40:19Z</time>
      </trkpt>
      <trkpt lat="42.95093" lon="0.27362">
        <ele>1167.6</ele>
        <time>2021-05-29T08:40:20Z</time>
      </trkpt>
      <trkpt lat="42.95093" lon="0.27362">
        <ele>1167.8</ele>
        <time>2021-05-29T08:40:21Z</time>
      </trkpt>
      <trkpt lat="42.95091" lon="0.27363">
        <ele>1168</ele>
        <time>2021-05-29T08:40:22Z</time>
      </trkpt>
      <trkpt lat="42.95089" lon="0.27364">
        <ele>1168.4</ele>
        <time>2021-05-29T08:40:23Z</time>
      </trkpt>
      <trkpt lat="42.95088" lon="0.27365">
        <ele>1168.4</ele>
        <time>2021-05-29T08:40:24Z</time>
      </trkpt>
      <trkpt lat="42.95086" lon="0.27365">
        <ele>1168.6</ele>
        <time>2021-05-29T08:40:25Z</time>
      </trkpt>
      <trkpt lat="42.95085" lon="0.27367">
        <ele>1168.8</ele>
        <time>2021-05-29T08:40:26Z</time>
      </trkpt>
      <trkpt lat="42.95084" lon="0.27368">
        <ele>1169</ele>
        <time>2021-05-29T08:40:27Z</time>
      </trkpt>
      <trkpt lat="42.95083" lon="0.27369">
        <ele>1169</ele>
        <time>2021-05-29T08:40:28Z</time>
      </trkpt>
      <trkpt lat="42.95083" lon="0.27369">
        <ele>1169.2</ele>
        <time>2021-05-29T08:40:29Z</time>
      </trkpt>
      <trkpt lat="42.95081" lon="0.27369">
        <ele>1169.2</ele>
        <time>2021-05-29T08:40:30Z</time>
      </trkpt>
      <trkpt lat="42.95079" lon="0.27369">
        <ele>1169.4</ele>
        <time>2021-05-29T08:40:31Z</time>
      </trkpt>
      <trkpt lat="42.95077" lon="0.27369">
        <ele>1169.8</ele>
        <time>2021-05-29T08:40:32Z</time>
      </trkpt>
      <trkpt lat="42.95075" lon="0.27369">
        <ele>1169.8</ele>
        <time>2021-05-29T08:40:33Z</time>
      </trkpt>
      <trkpt lat="42.95075" lon="0.27369">
        <ele>1170.2</ele>
        <time>2021-05-29T08:40:34Z</time>
      </trkpt>
      <trkpt lat="42.95075" lon="0.27369">
        <ele>1170.2</ele>
        <time>2021-05-29T08:40:35Z</time>
      </trkpt>
      <trkpt lat="42.95074" lon="0.27369">
        <ele>1170.6</ele>
        <time>2021-05-29T08:40:36Z</time>
      </trkpt>
      <trkpt lat="42.95073" lon="0.27368">
        <ele>1170.6</ele>
        <time>2021-05-29T08:40:37Z</time>
      </trkpt>
      <trkpt lat="42.95072" lon="0.27367">
        <ele>1170.8</ele>
        <time>2021-05-29T08:40:38Z</time>
      </trkpt>
      <trkpt lat="42.95071" lon="0.27367">
        <ele>1171</ele>
        <time>2021-05-29T08:40:39Z</time>
      </trkpt>
      <trkpt lat="42.95069" lon="0.27367">
        <ele>1171.2</ele>
        <time>2021-05-29T08:40:40Z</time>
      </trkpt>
      <trkpt lat="42.95067" lon="0.27367">
        <ele>1171.2</ele>
        <time>2021-05-29T08:40:41Z</time>
      </trkpt>
      <trkpt lat="42.95066" lon="0.27367">
        <ele>1171.4</ele>
        <time>2021-05-29T08:40:42Z</time>
      </trkpt>
      <trkpt lat="42.95064" lon="0.27367">
        <ele>1171.4</ele>
        <time>2021-05-29T08:40:43Z</time>
      </trkpt>
      <trkpt lat="42.95063" lon="0.27368">
        <ele>1171.6</ele>
        <time>2021-05-29T08:40:44Z</time>
      </trkpt>
      <trkpt lat="42.95061" lon="0.27367">
        <ele>1171.8</ele>
        <time>2021-05-29T08:40:45Z</time>
      </trkpt>
      <trkpt lat="42.95059" lon="0.27367">
        <ele>1171.8</ele>
        <time>2021-05-29T08:40:46Z</time>
      </trkpt>
      <trkpt lat="42.95058" lon="0.27367">
        <ele>1172</ele>
        <time>2021-05-29T08:40:47Z</time>
      </trkpt>
      <trkpt lat="42.95057" lon="0.27367">
        <ele>1172.2</ele>
        <time>2021-05-29T08:40:48Z</time>
      </trkpt>
      <trkpt lat="42.95056" lon="0.27367">
        <ele>1172.2</ele>
        <time>2021-05-29T08:40:49Z</time>
      </trkpt>
      <trkpt lat="42.95055" lon="0.27368">
        <ele>1172.4</ele>
        <time>2021-05-29T08:40:50Z</time>
      </trkpt>
      <trkpt lat="42.95054" lon="0.27367">
        <ele>1172.4</ele>
        <time>2021-05-29T08:40:51Z</time>
      </trkpt>
      <trkpt lat="42.95053" lon="0.27367">
        <ele>1172.4</ele>
        <time>2021-05-29T08:40:52Z</time>
      </trkpt>
      <trkpt lat="42.95051" lon="0.27366">
        <ele>1172.6</ele>
        <time>2021-05-29T08:40:53Z</time>
      </trkpt>
      <trkpt lat="42.95049" lon="0.27366">
        <ele>1172.8</ele>
        <time>2021-05-29T08:40:54Z</time>
      </trkpt>
      <trkpt lat="42.95047" lon="0.27366">
        <ele>1173</ele>
        <time>2021-05-29T08:40:55Z</time>
      </trkpt>
      <trkpt lat="42.95045" lon="0.27366">
        <ele>1173.2</ele>
        <time>2021-05-29T08:40:56Z</time>
      </trkpt>
      <trkpt lat="42.95043" lon="0.27365">
        <ele>1173.2</ele>
        <time>2021-05-29T08:40:57Z</time>
      </trkpt>
      <trkpt lat="42.95042" lon="0.27365">
        <ele>1173.4</ele>
        <time>2021-05-29T08:40:58Z</time>
      </trkpt>
      <trkpt lat="42.95041" lon="0.27364">
        <ele>1173.6</ele>
        <time>2021-05-29T08:40:59Z</time>
      </trkpt>
      <trkpt lat="42.95039" lon="0.27364">
        <ele>1173.6</ele>
        <time>2021-05-29T08:41:00Z</time>
      </trkpt>
      <trkpt lat="42.95038" lon="0.27364">
        <ele>1173.8</ele>
        <time>2021-05-29T08:41:01Z</time>
      </trkpt>
      <trkpt lat="42.95036" lon="0.27364">
        <ele>1173.8</ele>
        <time>2021-05-29T08:41:02Z</time>
      </trkpt>
      <trkpt lat="42.95034" lon="0.27364">
        <ele>1174</ele>
        <time>2021-05-29T08:41:03Z</time>
      </trkpt>
      <trkpt lat="42.95032" lon="0.27363">
        <ele>1174</ele>
        <time>2021-05-29T08:41:04Z</time>
      </trkpt>
      <trkpt lat="42.9503" lon="0.27362">
        <ele>1174.2</ele>
        <time>2021-05-29T08:41:05Z</time>
      </trkpt>
      <trkpt lat="42.95029" lon="0.27362">
        <ele>1174.4</ele>
        <time>2021-05-29T08:41:06Z</time>
      </trkpt>
      <trkpt lat="42.95029" lon="0.27362">
        <ele>1174.4</ele>
        <time>2021-05-29T08:41:07Z</time>
      </trkpt>
      <trkpt lat="42.95028" lon="0.27362">
        <ele>1174.6</ele>
        <time>2021-05-29T08:41:08Z</time>
      </trkpt>
      <trkpt lat="42.95027" lon="0.27362">
        <ele>1174.6</ele>
        <time>2021-05-29T08:41:09Z</time>
      </trkpt>
      <trkpt lat="42.95025" lon="0.27362">
        <ele>1174.6</ele>
        <time>2021-05-29T08:41:10Z</time>
      </trkpt>
      <trkpt lat="42.95024" lon="0.27362">
        <ele>1174.8</ele>
        <time>2021-05-29T08:41:11Z</time>
      </trkpt>
      <trkpt lat="42.95022" lon="0.27361">
        <ele>1174.8</ele>
        <time>2021-05-29T08:41:12Z</time>
      </trkpt>
      <trkpt lat="42.9502" lon="0.2736">
        <ele>1175</ele>
        <time>2021-05-29T08:41:13Z</time>
      </trkpt>
      <trkpt lat="42.95018" lon="0.2736">
        <ele>1175.2</ele>
        <time>2021-05-29T08:41:14Z</time>
      </trkpt>
      <trkpt lat="42.95017" lon="0.2736">
        <ele>1175.2</ele>
        <time>2021-05-29T08:41:15Z</time>
      </trkpt>
      <trkpt lat="42.95016" lon="0.27361">
        <ele>1175.2</ele>
        <time>2021-05-29T08:41:16Z</time>
      </trkpt>
      <trkpt lat="42.95014" lon="0.27361">
        <ele>1175.4</ele>
        <time>2021-05-29T08:41:17Z</time>
      </trkpt>
      <trkpt lat="42.95013" lon="0.27361">
        <ele>1175.6</ele>
        <time>2021-05-29T08:41:18Z</time>
      </trkpt>
      <trkpt lat="42.95012" lon="0.27361">
        <ele>1175.6</ele>
        <time>2021-05-29T08:41:19Z</time>
      </trkpt>
      <trkpt lat="42.95011" lon="0.27362">
        <ele>1176</ele>
        <time>2021-05-29T08:41:20Z</time>
      </trkpt>
      <trkpt lat="42.9501" lon="0.27362">
        <ele>1176</ele>
        <time>2021-05-29T08:41:21Z</time>
      </trkpt>
      <trkpt lat="42.95009" lon="0.27362">
        <ele>1176.2</ele>
        <time>2021-05-29T08:41:22Z</time>
      </trkpt>
      <trkpt lat="42.95007" lon="0.27363">
        <ele>1176.4</ele>
        <time>2021-05-29T08:41:23Z</time>
      </trkpt>
      <trkpt lat="42.95005" lon="0.27363">
        <ele>1176.6</ele>
        <time>2021-05-29T08:41:24Z</time>
      </trkpt>
      <trkpt lat="42.95004" lon="0.27364">
        <ele>1176.8</ele>
        <time>2021-05-29T08:41:25Z</time>
      </trkpt>
      <trkpt lat="42.95002" lon="0.27363">
        <ele>1176.8</ele>
        <time>2021-05-29T08:41:26Z</time>
      </trkpt>
      <trkpt lat="42.95001" lon="0.27363">
        <ele>1177</ele>
        <time>2021-05-29T08:41:27Z</time>
      </trkpt>
      <trkpt lat="42.95" lon="0.27363">
        <ele>1177</ele>
        <time>2021-05-29T08:41:28Z</time>
      </trkpt>
      <trkpt lat="42.94998" lon="0.27363">
        <ele>1177</ele>
        <time>2021-05-29T08:41:29Z</time>
      </trkpt>
      <trkpt lat="42.94998" lon="0.27363">
        <ele>1177.2</ele>
        <time>2021-05-29T08:41:30Z</time>
      </trkpt>
      <trkpt lat="42.94996" lon="0.27362">
        <ele>1177.2</ele>
        <time>2021-05-29T08:41:31Z</time>
      </trkpt>
      <trkpt lat="42.94994" lon="0.27362">
        <ele>1177.4</ele>
        <time>2021-05-29T08:41:32Z</time>
      </trkpt>
      <trkpt lat="42.94992" lon="0.27362">
        <ele>1177.6</ele>
        <time>2021-05-29T08:41:33Z</time>
      </trkpt>
      <trkpt lat="42.9499" lon="0.27362">
        <ele>1177.8</ele>
        <time>2021-05-29T08:41:34Z</time>
      </trkpt>
      <trkpt lat="42.94988" lon="0.27363">
        <ele>1178</ele>
        <time>2021-05-29T08:41:35Z</time>
      </trkpt>
      <trkpt lat="42.94987" lon="0.27363">
        <ele>1178.2</ele>
        <time>2021-05-29T08:41:36Z</time>
      </trkpt>
      <trkpt lat="42.94986" lon="0.27365">
        <ele>1178.4</ele>
        <time>2021-05-29T08:41:37Z</time>
      </trkpt>
      <trkpt lat="42.94984" lon="0.27365">
        <ele>1178.4</ele>
        <time>2021-05-29T08:41:38Z</time>
      </trkpt>
      <trkpt lat="42.94982" lon="0.27364">
        <ele>1178.6</ele>
        <time>2021-05-29T08:41:39Z</time>
      </trkpt>
      <trkpt lat="42.94981" lon="0.27363">
        <ele>1178.8</ele>
        <time>2021-05-29T08:41:40Z</time>
      </trkpt>
      <trkpt lat="42.9498" lon="0.27361">
        <ele>1178.8</ele>
        <time>2021-05-29T08:41:41Z</time>
      </trkpt>
      <trkpt lat="42.94979" lon="0.27362">
        <ele>1179</ele>
        <time>2021-05-29T08:41:42Z</time>
      </trkpt>
      <trkpt lat="42.94978" lon="0.27362">
        <ele>1179</ele>
        <time>2021-05-29T08:41:43Z</time>
      </trkpt>
      <trkpt lat="42.94977" lon="0.27362">
        <ele>1179.2</ele>
        <time>2021-05-29T08:41:44Z</time>
      </trkpt>
      <trkpt lat="42.94976" lon="0.27362">
        <ele>1179.2</ele>
        <time>2021-05-29T08:41:45Z</time>
      </trkpt>
      <trkpt lat="42.94975" lon="0.27362">
        <ele>1179.4</ele>
        <time>2021-05-29T08:41:46Z</time>
      </trkpt>
      <trkpt lat="42.94974" lon="0.27361">
        <ele>1179.6</ele>
        <time>2021-05-29T08:41:47Z</time>
      </trkpt>
      <trkpt lat="42.94973" lon="0.2736">
        <ele>1179.8</ele>
        <time>2021-05-29T08:41:48Z</time>
      </trkpt>
      <trkpt lat="42.94972" lon="0.27359">
        <ele>1179.8</ele>
        <time>2021-05-29T08:41:49Z</time>
      </trkpt>
      <trkpt lat="42.9497" lon="0.27359">
        <ele>1180</ele>
        <time>2021-05-29T08:41:50Z</time>
      </trkpt>
      <trkpt lat="42.94968" lon="0.27359">
        <ele>1180</ele>
        <time>2021-05-29T08:41:51Z</time>
      </trkpt>
      <trkpt lat="42.94967" lon="0.27358">
        <ele>1180.2</ele>
        <time>2021-05-29T08:41:52Z</time>
      </trkpt>
      <trkpt lat="42.94965" lon="0.27357">
        <ele>1180.2</ele>
        <time>2021-05-29T08:41:53Z</time>
      </trkpt>
      <trkpt lat="42.94964" lon="0.27357">
        <ele>1180.4</ele>
        <time>2021-05-29T08:41:54Z</time>
      </trkpt>
      <trkpt lat="42.94964" lon="0.27355">
        <ele>1180.4</ele>
        <time>2021-05-29T08:41:55Z</time>
      </trkpt>
      <trkpt lat="42.94963" lon="0.27355">
        <ele>1180.6</ele>
        <time>2021-05-29T08:41:56Z</time>
      </trkpt>
      <trkpt lat="42.94962" lon="0.27355">
        <ele>1180.8</ele>
        <time>2021-05-29T08:41:57Z</time>
      </trkpt>
      <trkpt lat="42.9496" lon="0.27356">
        <ele>1181</ele>
        <time>2021-05-29T08:41:58Z</time>
      </trkpt>
      <trkpt lat="42.94958" lon="0.27356">
        <ele>1181.2</ele>
        <time>2021-05-29T08:41:59Z</time>
      </trkpt>
      <trkpt lat="42.94956" lon="0.27356">
        <ele>1181.2</ele>
        <time>2021-05-29T08:42:00Z</time>
      </trkpt>
      <trkpt lat="42.94955" lon="0.27355">
        <ele>1181.2</ele>
        <time>2021-05-29T08:42:01Z</time>
      </trkpt>
      <trkpt lat="42.94954" lon="0.27354">
        <ele>1181.4</ele>
        <time>2021-05-29T08:42:02Z</time>
      </trkpt>
      <trkpt lat="42.94953" lon="0.27353">
        <ele>1181.4</ele>
        <time>2021-05-29T08:42:03Z</time>
      </trkpt>
      <trkpt lat="42.94951" lon="0.27352">
        <ele>1181.6</ele>
        <time>2021-05-29T08:42:04Z</time>
      </trkpt>
      <trkpt lat="42.94949" lon="0.2735">
        <ele>1181.8</ele>
        <time>2021-05-29T08:42:05Z</time>
      </trkpt>
      <trkpt lat="42.94947" lon="0.27348">
        <ele>1181.8</ele>
        <time>2021-05-29T08:42:06Z</time>
      </trkpt>
      <trkpt lat="42.94945" lon="0.27347">
        <ele>1182</ele>
        <time>2021-05-29T08:42:07Z</time>
      </trkpt>
      <trkpt lat="42.94943" lon="0.27346">
        <ele>1182</ele>
        <time>2021-05-29T08:42:08Z</time>
      </trkpt>
      <trkpt lat="42.9494" lon="0.27345">
        <ele>1182</ele>
        <time>2021-05-29T08:42:09Z</time>
      </trkpt>
      <trkpt lat="42.94939" lon="0.27345">
        <ele>1182</ele>
        <time>2021-05-29T08:42:10Z</time>
      </trkpt>
      <trkpt lat="42.94937" lon="0.27345">
        <ele>1182.2</ele>
        <time>2021-05-29T08:42:11Z</time>
      </trkpt>
      <trkpt lat="42.94935" lon="0.27345">
        <ele>1182.4</ele>
        <time>2021-05-29T08:42:12Z</time>
      </trkpt>
      <trkpt lat="42.94934" lon="0.27345">
        <ele>1182.6</ele>
        <time>2021-05-29T08:42:13Z</time>
      </trkpt>
      <trkpt lat="42.94933" lon="0.27344">
        <ele>1182.6</ele>
        <time>2021-05-29T08:42:14Z</time>
      </trkpt>
      <trkpt lat="42.94932" lon="0.27343">
        <ele>1182.6</ele>
        <time>2021-05-29T08:42:15Z</time>
      </trkpt>
      <trkpt lat="42.94931" lon="0.27343">
        <ele>1182.8</ele>
        <time>2021-05-29T08:42:16Z</time>
      </trkpt>
      <trkpt lat="42.94929" lon="0.27343">
        <ele>1182.8</ele>
        <time>2021-05-29T08:42:17Z</time>
      </trkpt>
      <trkpt lat="42.94928" lon="0.27343">
        <ele>1183</ele>
        <time>2021-05-29T08:42:18Z</time>
      </trkpt>
      <trkpt lat="42.94926" lon="0.27343">
        <ele>1183</ele>
        <time>2021-05-29T08:42:19Z</time>
      </trkpt>
      <trkpt lat="42.94926" lon="0.27343">
        <ele>1183.2</ele>
        <time>2021-05-29T08:42:20Z</time>
      </trkpt>
      <trkpt lat="42.94925" lon="0.27343">
        <ele>1183.2</ele>
        <time>2021-05-29T08:42:21Z</time>
      </trkpt>
      <trkpt lat="42.94924" lon="0.27343">
        <ele>1183.4</ele>
        <time>2021-05-29T08:42:22Z</time>
      </trkpt>
      <trkpt lat="42.94922" lon="0.27343">
        <ele>1183.4</ele>
        <time>2021-05-29T08:42:23Z</time>
      </trkpt>
      <trkpt lat="42.94921" lon="0.27343">
        <ele>1183.6</ele>
        <time>2021-05-29T08:42:24Z</time>
      </trkpt>
      <trkpt lat="42.94919" lon="0.27343">
        <ele>1183.6</ele>
        <time>2021-05-29T08:42:25Z</time>
      </trkpt>
      <trkpt lat="42.94917" lon="0.27343">
        <ele>1183.8</ele>
        <time>2021-05-29T08:42:26Z</time>
      </trkpt>
      <trkpt lat="42.94915" lon="0.27343">
        <ele>1183.8</ele>
        <time>2021-05-29T08:42:27Z</time>
      </trkpt>
      <trkpt lat="42.94914" lon="0.27342">
        <ele>1184</ele>
        <time>2021-05-29T08:42:28Z</time>
      </trkpt>
      <trkpt lat="42.94912" lon="0.27343">
        <ele>1184.2</ele>
        <time>2021-05-29T08:42:29Z</time>
      </trkpt>
      <trkpt lat="42.9491" lon="0.27342">
        <ele>1184.2</ele>
        <time>2021-05-29T08:42:30Z</time>
      </trkpt>
      <trkpt lat="42.94909" lon="0.27341">
        <ele>1184.4</ele>
        <time>2021-05-29T08:42:31Z</time>
      </trkpt>
      <trkpt lat="42.94908" lon="0.27341">
        <ele>1184.4</ele>
        <time>2021-05-29T08:42:32Z</time>
      </trkpt>
      <trkpt lat="42.94906" lon="0.27342">
        <ele>1184.6</ele>
        <time>2021-05-29T08:42:33Z</time>
      </trkpt>
      <trkpt lat="42.94904" lon="0.27342">
        <ele>1184.6</ele>
        <time>2021-05-29T08:42:34Z</time>
      </trkpt>
      <trkpt lat="42.94902" lon="0.27342">
        <ele>1184.8</ele>
        <time>2021-05-29T08:42:35Z</time>
      </trkpt>
      <trkpt lat="42.949" lon="0.27341">
        <ele>1185</ele>
        <time>2021-05-29T08:42:36Z</time>
      </trkpt>
      <trkpt lat="42.94898" lon="0.27341">
        <ele>1185.2</ele>
        <time>2021-05-29T08:42:37Z</time>
      </trkpt>
      <trkpt lat="42.94896" lon="0.27341">
        <ele>1185.4</ele>
        <time>2021-05-29T08:42:38Z</time>
      </trkpt>
      <trkpt lat="42.94894" lon="0.27341">
        <ele>1185.6</ele>
        <time>2021-05-29T08:42:39Z</time>
      </trkpt>
      <trkpt lat="42.94893" lon="0.27341">
        <ele>1185.8</ele>
        <time>2021-05-29T08:42:40Z</time>
      </trkpt>
      <trkpt lat="42.94892" lon="0.27341">
        <ele>1185.8</ele>
        <time>2021-05-29T08:42:41Z</time>
      </trkpt>
      <trkpt lat="42.94891" lon="0.2734">
        <ele>1186</ele>
        <time>2021-05-29T08:42:42Z</time>
      </trkpt>
      <trkpt lat="42.9489" lon="0.2734">
        <ele>1186.2</ele>
        <time>2021-05-29T08:42:43Z</time>
      </trkpt>
      <trkpt lat="42.94888" lon="0.27339">
        <ele>1186.2</ele>
        <time>2021-05-29T08:42:44Z</time>
      </trkpt>
      <trkpt lat="42.94886" lon="0.27339">
        <ele>1186.2</ele>
        <time>2021-05-29T08:42:45Z</time>
      </trkpt>
      <trkpt lat="42.94884" lon="0.27339">
        <ele>1186.4</ele>
        <time>2021-05-29T08:42:46Z</time>
      </trkpt>
      <trkpt lat="42.94881" lon="0.27337">
        <ele>1186.6</ele>
        <time>2021-05-29T08:42:47Z</time>
      </trkpt>
      <trkpt lat="42.94877" lon="0.27336">
        <ele>1186.8</ele>
        <time>2021-05-29T08:42:48Z</time>
      </trkpt>
      <trkpt lat="42.94875" lon="0.27336">
        <ele>1186.8</ele>
        <time>2021-05-29T08:42:49Z</time>
      </trkpt>
      <trkpt lat="42.94873" lon="0.27337">
        <ele>1187</ele>
        <time>2021-05-29T08:42:50Z</time>
      </trkpt>
      <trkpt lat="42.94872" lon="0.27337">
        <ele>1187</ele>
        <time>2021-05-29T08:42:51Z</time>
      </trkpt>
      <trkpt lat="42.9487" lon="0.27337">
        <ele>1187.2</ele>
        <time>2021-05-29T08:42:52Z</time>
      </trkpt>
      <trkpt lat="42.94869" lon="0.27338">
        <ele>1187.2</ele>
        <time>2021-05-29T08:42:53Z</time>
      </trkpt>
      <trkpt lat="42.94869" lon="0.27338">
        <ele>1187.4</ele>
        <time>2021-05-29T08:42:54Z</time>
      </trkpt>
      <trkpt lat="42.94868" lon="0.27337">
        <ele>1187.4</ele>
        <time>2021-05-29T08:42:55Z</time>
      </trkpt>
      <trkpt lat="42.94867" lon="0.27337">
        <ele>1187.6</ele>
        <time>2021-05-29T08:42:56Z</time>
      </trkpt>
      <trkpt lat="42.94865" lon="0.27337">
        <ele>1187.6</ele>
        <time>2021-05-29T08:42:57Z</time>
      </trkpt>
      <trkpt lat="42.94862" lon="0.27339">
        <ele>1187.8</ele>
        <time>2021-05-29T08:42:58Z</time>
      </trkpt>
      <trkpt lat="42.94861" lon="0.2734">
        <ele>1188</ele>
        <time>2021-05-29T08:42:59Z</time>
      </trkpt>
      <trkpt lat="42.9486" lon="0.27341">
        <ele>1188.2</ele>
        <time>2021-05-29T08:43:00Z</time>
      </trkpt>
      <trkpt lat="42.94859" lon="0.27342">
        <ele>1188.2</ele>
        <time>2021-05-29T08:43:01Z</time>
      </trkpt>
      <trkpt lat="42.94857" lon="0.27342">
        <ele>1188.6</ele>
        <time>2021-05-29T08:43:02Z</time>
      </trkpt>
      <trkpt lat="42.94857" lon="0.27342">
        <ele>1188.8</ele>
        <time>2021-05-29T08:43:03Z</time>
      </trkpt>
      <trkpt lat="42.94854" lon="0.27343">
        <ele>1188.8</ele>
        <time>2021-05-29T08:43:04Z</time>
      </trkpt>
      <trkpt lat="42.94851" lon="0.27344">
        <ele>1189</ele>
        <time>2021-05-29T08:43:05Z</time>
      </trkpt>
      <trkpt lat="42.9485" lon="0.27345">
        <ele>1189</ele>
        <time>2021-05-29T08:43:06Z</time>
      </trkpt>
      <trkpt lat="42.94849" lon="0.27347">
        <ele>1189.2</ele>
        <time>2021-05-29T08:43:07Z</time>
      </trkpt>
      <trkpt lat="42.94847" lon="0.27348">
        <ele>1189.4</ele>
        <time>2021-05-29T08:43:08Z</time>
      </trkpt>
      <trkpt lat="42.94846" lon="0.27349">
        <ele>1189.6</ele>
        <time>2021-05-29T08:43:09Z</time>
      </trkpt>
      <trkpt lat="42.94845" lon="0.2735">
        <ele>1189.6</ele>
        <time>2021-05-29T08:43:10Z</time>
      </trkpt>
      <trkpt lat="42.94843" lon="0.27351">
        <ele>1189.8</ele>
        <time>2021-05-29T08:43:11Z</time>
      </trkpt>
      <trkpt lat="42.94842" lon="0.27351">
        <ele>1189.8</ele>
        <time>2021-05-29T08:43:12Z</time>
      </trkpt>
      <trkpt lat="42.94842" lon="0.27351">
        <ele>1190</ele>
        <time>2021-05-29T08:43:13Z</time>
      </trkpt>
      <trkpt lat="42.94842" lon="0.27351">
        <ele>1190.4</ele>
        <time>2021-05-29T08:43:15Z</time>
      </trkpt>
      <trkpt lat="42.94842" lon="0.27351">
        <ele>1190.6</ele>
        <time>2021-05-29T08:43:17Z</time>
      </trkpt>
      <trkpt lat="42.94842" lon="0.27354">
        <ele>1190.8</ele>
        <time>2021-05-29T08:43:18Z</time>
      </trkpt>
      <trkpt lat="42.9484" lon="0.27357">
        <ele>1191</ele>
        <time>2021-05-29T08:43:19Z</time>
      </trkpt>
      <trkpt lat="42.94837" lon="0.27359">
        <ele>1191</ele>
        <time>2021-05-29T08:43:20Z</time>
      </trkpt>
      <trkpt lat="42.94835" lon="0.2736">
        <ele>1191.2</ele>
        <time>2021-05-29T08:43:21Z</time>
      </trkpt>
      <trkpt lat="42.94833" lon="0.27359">
        <ele>1191.2</ele>
        <time>2021-05-29T08:43:22Z</time>
      </trkpt>
      <trkpt lat="42.94831" lon="0.27361">
        <ele>1191.4</ele>
        <time>2021-05-29T08:43:23Z</time>
      </trkpt>
      <trkpt lat="42.94829" lon="0.27363">
        <ele>1191.4</ele>
        <time>2021-05-29T08:43:24Z</time>
      </trkpt>
      <trkpt lat="42.94828" lon="0.27364">
        <ele>1191.6</ele>
        <time>2021-05-29T08:43:25Z</time>
      </trkpt>
      <trkpt lat="42.94828" lon="0.27364">
        <ele>1191.8</ele>
        <time>2021-05-29T08:43:26Z</time>
      </trkpt>
      <trkpt lat="42.94828" lon="0.27364">
        <ele>1192</ele>
        <time>2021-05-29T08:43:28Z</time>
      </trkpt>
      <trkpt lat="42.94828" lon="0.27364">
        <ele>1192.2</ele>
        <time>2021-05-29T08:43:29Z</time>
      </trkpt>
      <trkpt lat="42.94828" lon="0.27364">
        <ele>1192.2</ele>
        <time>2021-05-29T08:43:30Z</time>
      </trkpt>
      <trkpt lat="42.94825" lon="0.27369">
        <ele>1192.4</ele>
        <time>2021-05-29T08:43:31Z</time>
      </trkpt>
      <trkpt lat="42.94823" lon="0.27373">
        <ele>1192.4</ele>
        <time>2021-05-29T08:43:32Z</time>
      </trkpt>
      <trkpt lat="42.94822" lon="0.27377">
        <ele>1192.4</ele>
        <time>2021-05-29T08:43:33Z</time>
      </trkpt>
      <trkpt lat="42.94821" lon="0.27381">
        <ele>1192.6</ele>
        <time>2021-05-29T08:43:34Z</time>
      </trkpt>
      <trkpt lat="42.94821" lon="0.27383">
        <ele>1192.8</ele>
        <time>2021-05-29T08:43:35Z</time>
      </trkpt>
      <trkpt lat="42.9482" lon="0.27385">
        <ele>1193</ele>
        <time>2021-05-29T08:43:36Z</time>
      </trkpt>
      <trkpt lat="42.94819" lon="0.27387">
        <ele>1193.2</ele>
        <time>2021-05-29T08:43:37Z</time>
      </trkpt>
      <trkpt lat="42.94819" lon="0.27389">
        <ele>1193.4</ele>
        <time>2021-05-29T08:43:38Z</time>
      </trkpt>
      <trkpt lat="42.94818" lon="0.27391">
        <ele>1193.4</ele>
        <time>2021-05-29T08:43:39Z</time>
      </trkpt>
      <trkpt lat="42.94816" lon="0.27394">
        <ele>1193.6</ele>
        <time>2021-05-29T08:43:40Z</time>
      </trkpt>
      <trkpt lat="42.94815" lon="0.27397">
        <ele>1193.6</ele>
        <time>2021-05-29T08:43:41Z</time>
      </trkpt>
      <trkpt lat="42.94813" lon="0.274">
        <ele>1193.8</ele>
        <time>2021-05-29T08:43:42Z</time>
      </trkpt>
      <trkpt lat="42.9481" lon="0.27403">
        <ele>1193.8</ele>
        <time>2021-05-29T08:43:43Z</time>
      </trkpt>
      <trkpt lat="42.94808" lon="0.27405">
        <ele>1194</ele>
        <time>2021-05-29T08:43:44Z</time>
      </trkpt>
      <trkpt lat="42.94807" lon="0.27407">
        <ele>1194</ele>
        <time>2021-05-29T08:43:45Z</time>
      </trkpt>
      <trkpt lat="42.94807" lon="0.27408">
        <ele>1194</ele>
        <time>2021-05-29T08:43:46Z</time>
      </trkpt>
      <trkpt lat="42.94808" lon="0.27408">
        <ele>1194.2</ele>
        <time>2021-05-29T08:43:47Z</time>
      </trkpt>
      <trkpt lat="42.94808" lon="0.27409">
        <ele>1194.4</ele>
        <time>2021-05-29T08:43:48Z</time>
      </trkpt>
      <trkpt lat="42.94807" lon="0.27411">
        <ele>1194.4</ele>
        <time>2021-05-29T08:43:49Z</time>
      </trkpt>
      <trkpt lat="42.94807" lon="0.27412">
        <ele>1194.6</ele>
        <time>2021-05-29T08:43:50Z</time>
      </trkpt>
      <trkpt lat="42.94806" lon="0.27414">
        <ele>1194.8</ele>
        <time>2021-05-29T08:43:51Z</time>
      </trkpt>
      <trkpt lat="42.94805" lon="0.27416">
        <ele>1194.8</ele>
        <time>2021-05-29T08:43:52Z</time>
      </trkpt>
      <trkpt lat="42.94804" lon="0.27418">
        <ele>1195</ele>
        <time>2021-05-29T08:43:53Z</time>
      </trkpt>
      <trkpt lat="42.94804" lon="0.2742">
        <ele>1195.2</ele>
        <time>2021-05-29T08:43:54Z</time>
      </trkpt>
      <trkpt lat="42.94803" lon="0.27422">
        <ele>1195.2</ele>
        <time>2021-05-29T08:43:55Z</time>
      </trkpt>
      <trkpt lat="42.94802" lon="0.27423">
        <ele>1195.4</ele>
        <time>2021-05-29T08:43:56Z</time>
      </trkpt>
      <trkpt lat="42.94802" lon="0.27425">
        <ele>1195.6</ele>
        <time>2021-05-29T08:43:57Z</time>
      </trkpt>
      <trkpt lat="42.94801" lon="0.27426">
        <ele>1195.6</ele>
        <time>2021-05-29T08:43:58Z</time>
      </trkpt>
      <trkpt lat="42.94802" lon="0.27428">
        <ele>1195.8</ele>
        <time>2021-05-29T08:43:59Z</time>
      </trkpt>
      <trkpt lat="42.94802" lon="0.2743">
        <ele>1195.8</ele>
        <time>2021-05-29T08:44:00Z</time>
      </trkpt>
      <trkpt lat="42.94801" lon="0.27431">
        <ele>1196</ele>
        <time>2021-05-29T08:44:01Z</time>
      </trkpt>
      <trkpt lat="42.94801" lon="0.27433">
        <ele>1196.2</ele>
        <time>2021-05-29T08:44:02Z</time>
      </trkpt>
      <trkpt lat="42.948" lon="0.27436">
        <ele>1196.4</ele>
        <time>2021-05-29T08:44:03Z</time>
      </trkpt>
      <trkpt lat="42.948" lon="0.27438">
        <ele>1196.4</ele>
        <time>2021-05-29T08:44:04Z</time>
      </trkpt>
      <trkpt lat="42.948" lon="0.27439">
        <ele>1196.6</ele>
        <time>2021-05-29T08:44:05Z</time>
      </trkpt>
      <trkpt lat="42.94801" lon="0.27441">
        <ele>1196.8</ele>
        <time>2021-05-29T08:44:06Z</time>
      </trkpt>
      <trkpt lat="42.94801" lon="0.27443">
        <ele>1196.8</ele>
        <time>2021-05-29T08:44:07Z</time>
      </trkpt>
      <trkpt lat="42.94801" lon="0.27446">
        <ele>1197</ele>
        <time>2021-05-29T08:44:08Z</time>
      </trkpt>
      <trkpt lat="42.948" lon="0.27448">
        <ele>1197.2</ele>
        <time>2021-05-29T08:44:09Z</time>
      </trkpt>
      <trkpt lat="42.948" lon="0.2745">
        <ele>1197.4</ele>
        <time>2021-05-29T08:44:10Z</time>
      </trkpt>
      <trkpt lat="42.948" lon="0.27453">
        <ele>1197.4</ele>
        <time>2021-05-29T08:44:11Z</time>
      </trkpt>
      <trkpt lat="42.94799" lon="0.27455">
        <ele>1197.6</ele>
        <time>2021-05-29T08:44:12Z</time>
      </trkpt>
      <trkpt lat="42.94799" lon="0.27458">
        <ele>1197.8</ele>
        <time>2021-05-29T08:44:13Z</time>
      </trkpt>
      <trkpt lat="42.94799" lon="0.2746">
        <ele>1197.8</ele>
        <time>2021-05-29T08:44:14Z</time>
      </trkpt>
      <trkpt lat="42.94799" lon="0.27462">
        <ele>1198</ele>
        <time>2021-05-29T08:44:15Z</time>
      </trkpt>
      <trkpt lat="42.94799" lon="0.27465">
        <ele>1198</ele>
        <time>2021-05-29T08:44:16Z</time>
      </trkpt>
      <trkpt lat="42.94798" lon="0.27467">
        <ele>1198.2</ele>
        <time>2021-05-29T08:44:17Z</time>
      </trkpt>
      <trkpt lat="42.94799" lon="0.27469">
        <ele>1198.2</ele>
        <time>2021-05-29T08:44:18Z</time>
      </trkpt>
      <trkpt lat="42.94799" lon="0.27471">
        <ele>1198.6</ele>
        <time>2021-05-29T08:44:19Z</time>
      </trkpt>
      <trkpt lat="42.94798" lon="0.27473">
        <ele>1198.6</ele>
        <time>2021-05-29T08:44:20Z</time>
      </trkpt>
      <trkpt lat="42.94798" lon="0.27475">
        <ele>1198.8</ele>
        <time>2021-05-29T08:44:21Z</time>
      </trkpt>
      <trkpt lat="42.94798" lon="0.27476">
        <ele>1198.8</ele>
        <time>2021-05-29T08:44:22Z</time>
      </trkpt>
      <trkpt lat="42.94798" lon="0.27478">
        <ele>1198.6</ele>
        <time>2021-05-29T08:44:23Z</time>
      </trkpt>
      <trkpt lat="42.94798" lon="0.27481">
        <ele>1198.6</ele>
        <time>2021-05-29T08:44:24Z</time>
      </trkpt>
      <trkpt lat="42.94798" lon="0.27483">
        <ele>1198.8</ele>
        <time>2021-05-29T08:44:25Z</time>
      </trkpt>
      <trkpt lat="42.94798" lon="0.27485">
        <ele>1198.8</ele>
        <time>2021-05-29T08:44:26Z</time>
      </trkpt>
      <trkpt lat="42.94797" lon="0.27487">
        <ele>1198.8</ele>
        <time>2021-05-29T08:44:27Z</time>
      </trkpt>
      <trkpt lat="42.94797" lon="0.2749">
        <ele>1198.8</ele>
        <time>2021-05-29T08:44:28Z</time>
      </trkpt>
      <trkpt lat="42.94798" lon="0.27493">
        <ele>1198.8</ele>
        <time>2021-05-29T08:44:29Z</time>
      </trkpt>
      <trkpt lat="42.94798" lon="0.27497">
        <ele>1199</ele>
        <time>2021-05-29T08:44:30Z</time>
      </trkpt>
      <trkpt lat="42.948" lon="0.27501">
        <ele>1199</ele>
        <time>2021-05-29T08:44:31Z</time>
      </trkpt>
      <trkpt lat="42.94802" lon="0.27506">
        <ele>1199</ele>
        <time>2021-05-29T08:44:32Z</time>
      </trkpt>
      <trkpt lat="42.94805" lon="0.27512">
        <ele>1198.8</ele>
        <time>2021-05-29T08:44:33Z</time>
      </trkpt>
      <trkpt lat="42.9481" lon="0.27524">
        <ele>1198.6</ele>
        <time>2021-05-29T08:44:35Z</time>
      </trkpt>
      <trkpt lat="42.94815" lon="0.27536">
        <ele>1198</ele>
        <time>2021-05-29T08:44:37Z</time>
      </trkpt>
      <trkpt lat="42.94817" lon="0.27541">
        <ele>1197.8</ele>
        <time>2021-05-29T08:44:38Z</time>
      </trkpt>
      <trkpt lat="42.94818" lon="0.27548">
        <ele>1197.4</ele>
        <time>2021-05-29T08:44:39Z</time>
      </trkpt>
      <trkpt lat="42.94821" lon="0.27562">
        <ele>1196.8</ele>
        <time>2021-05-29T08:44:41Z</time>
      </trkpt>
      <trkpt lat="42.94823" lon="0.27569">
        <ele>1196.8</ele>
        <time>2021-05-29T08:44:42Z</time>
      </trkpt>
      <trkpt lat="42.94826" lon="0.27582">
        <ele>1196</ele>
        <time>2021-05-29T08:44:44Z</time>
      </trkpt>
      <trkpt lat="42.94826" lon="0.27588">
        <ele>1195.8</ele>
        <time>2021-05-29T08:44:45Z</time>
      </trkpt>
      <trkpt lat="42.94826" lon="0.27592">
        <ele>1195.6</ele>
        <time>2021-05-29T08:44:46Z</time>
      </trkpt>
      <trkpt lat="42.94826" lon="0.27595">
        <ele>1195.4</ele>
        <time>2021-05-29T08:44:47Z</time>
      </trkpt>
      <trkpt lat="42.94825" lon="0.27597">
        <ele>1195.4</ele>
        <time>2021-05-29T08:44:48Z</time>
      </trkpt>
      <trkpt lat="42.94825" lon="0.27599">
        <ele>1195.4</ele>
        <time>2021-05-29T08:44:49Z</time>
      </trkpt>
      <trkpt lat="42.94825" lon="0.27602">
        <ele>1195.6</ele>
        <time>2021-05-29T08:44:50Z</time>
      </trkpt>
      <trkpt lat="42.94825" lon="0.27604">
        <ele>1195.6</ele>
        <time>2021-05-29T08:44:51Z</time>
      </trkpt>
      <trkpt lat="42.94825" lon="0.27606">
        <ele>1195.8</ele>
        <time>2021-05-29T08:44:52Z</time>
      </trkpt>
      <trkpt lat="42.94826" lon="0.27608">
        <ele>1196</ele>
        <time>2021-05-29T08:44:53Z</time>
      </trkpt>
      <trkpt lat="42.94827" lon="0.2761">
        <ele>1196.2</ele>
        <time>2021-05-29T08:44:54Z</time>
      </trkpt>
      <trkpt lat="42.94826" lon="0.27612">
        <ele>1196.4</ele>
        <time>2021-05-29T08:44:55Z</time>
      </trkpt>
      <trkpt lat="42.94826" lon="0.27614">
        <ele>1196.4</ele>
        <time>2021-05-29T08:44:56Z</time>
      </trkpt>
      <trkpt lat="42.94827" lon="0.27617">
        <ele>1196.6</ele>
        <time>2021-05-29T08:44:57Z</time>
      </trkpt>
      <trkpt lat="42.94828" lon="0.27619">
        <ele>1196.8</ele>
        <time>2021-05-29T08:44:58Z</time>
      </trkpt>
      <trkpt lat="42.94827" lon="0.27625">
        <ele>1196.8</ele>
        <time>2021-05-29T08:45:00Z</time>
      </trkpt>
      <trkpt lat="42.94826" lon="0.27644">
        <ele>1196.8</ele>
        <time>2021-05-29T08:45:04Z</time>
      </trkpt>
      <trkpt lat="42.94824" lon="0.27648">
        <ele>1196.6</ele>
        <time>2021-05-29T08:45:05Z</time>
      </trkpt>
      <trkpt lat="42.94823" lon="0.27652">
        <ele>1196.6</ele>
        <time>2021-05-29T08:45:06Z</time>
      </trkpt>
      <trkpt lat="42.94821" lon="0.27655">
        <ele>1196.2</ele>
        <time>2021-05-29T08:45:07Z</time>
      </trkpt>
      <trkpt lat="42.94818" lon="0.27658">
        <ele>1196.2</ele>
        <time>2021-05-29T08:45:08Z</time>
      </trkpt>
      <trkpt lat="42.94816" lon="0.2766">
        <ele>1196.2</ele>
        <time>2021-05-29T08:45:09Z</time>
      </trkpt>
      <trkpt lat="42.94814" lon="0.27663">
        <ele>1196.2</ele>
        <time>2021-05-29T08:45:10Z</time>
      </trkpt>
      <trkpt lat="42.94813" lon="0.27667">
        <ele>1196.2</ele>
        <time>2021-05-29T08:45:11Z</time>
      </trkpt>
      <trkpt lat="42.94812" lon="0.27671">
        <ele>1196.2</ele>
        <time>2021-05-29T08:45:12Z</time>
      </trkpt>
      <trkpt lat="42.94811" lon="0.27674">
        <ele>1196.2</ele>
        <time>2021-05-29T08:45:13Z</time>
      </trkpt>
      <trkpt lat="42.9481" lon="0.27678">
        <ele>1196.2</ele>
        <time>2021-05-29T08:45:14Z</time>
      </trkpt>
      <trkpt lat="42.94811" lon="0.27684">
        <ele>1196.4</ele>
        <time>2021-05-29T08:45:16Z</time>
      </trkpt>
      <trkpt lat="42.94812" lon="0.27687">
        <ele>1196.6</ele>
        <time>2021-05-29T08:45:17Z</time>
      </trkpt>
      <trkpt lat="42.94811" lon="0.2769">
        <ele>1197</ele>
        <time>2021-05-29T08:45:18Z</time>
      </trkpt>
      <trkpt lat="42.9481" lon="0.27691">
        <ele>1197.2</ele>
        <time>2021-05-29T08:45:19Z</time>
      </trkpt>
      <trkpt lat="42.94807" lon="0.27692">
        <ele>1197.4</ele>
        <time>2021-05-29T08:45:21Z</time>
      </trkpt>
      <trkpt lat="42.94805" lon="0.27692">
        <ele>1197.6</ele>
        <time>2021-05-29T08:45:22Z</time>
      </trkpt>
      <trkpt lat="42.94804" lon="0.27693">
        <ele>1197.8</ele>
        <time>2021-05-29T08:45:23Z</time>
      </trkpt>
      <trkpt lat="42.94804" lon="0.27693">
        <ele>1198</ele>
        <time>2021-05-29T08:45:24Z</time>
      </trkpt>
      <trkpt lat="42.94803" lon="0.27694">
        <ele>1198.2</ele>
        <time>2021-05-29T08:45:25Z</time>
      </trkpt>
      <trkpt lat="42.94803" lon="0.27694">
        <ele>1198.6</ele>
        <time>2021-05-29T08:45:26Z</time>
      </trkpt>
      <trkpt lat="42.94803" lon="0.27694">
        <ele>1198.6</ele>
        <time>2021-05-29T08:45:27Z</time>
      </trkpt>
      <trkpt lat="42.94803" lon="0.27695">
        <ele>1198.6</ele>
        <time>2021-05-29T08:45:28Z</time>
      </trkpt>
      <trkpt lat="42.94803" lon="0.27695">
        <ele>1198.8</ele>
        <time>2021-05-29T08:45:29Z</time>
      </trkpt>
      <trkpt lat="42.94801" lon="0.27696">
        <ele>1198.8</ele>
        <time>2021-05-29T08:45:30Z</time>
      </trkpt>
      <trkpt lat="42.948" lon="0.27697">
        <ele>1199</ele>
        <time>2021-05-29T08:45:31Z</time>
      </trkpt>
      <trkpt lat="42.94798" lon="0.277">
        <ele>1199.6</ele>
        <time>2021-05-29T08:45:33Z</time>
      </trkpt>
      <trkpt lat="42.94797" lon="0.27702">
        <ele>1199.8</ele>
        <time>2021-05-29T08:45:34Z</time>
      </trkpt>
      <trkpt lat="42.94796" lon="0.27703">
        <ele>1200</ele>
        <time>2021-05-29T08:45:35Z</time>
      </trkpt>
      <trkpt lat="42.94795" lon="0.27706">
        <ele>1200</ele>
        <time>2021-05-29T08:45:36Z</time>
      </trkpt>
      <trkpt lat="42.94793" lon="0.27709">
        <ele>1200</ele>
        <time>2021-05-29T08:45:37Z</time>
      </trkpt>
      <trkpt lat="42.94792" lon="0.27712">
        <ele>1200.2</ele>
        <time>2021-05-29T08:45:38Z</time>
      </trkpt>
      <trkpt lat="42.9479" lon="0.27715">
        <ele>1200.2</ele>
        <time>2021-05-29T08:45:39Z</time>
      </trkpt>
      <trkpt lat="42.94788" lon="0.27717">
        <ele>1200.2</ele>
        <time>2021-05-29T08:45:40Z</time>
      </trkpt>
      <trkpt lat="42.94787" lon="0.27719">
        <ele>1200.6</ele>
        <time>2021-05-29T08:45:41Z</time>
      </trkpt>
      <trkpt lat="42.94786" lon="0.27722">
        <ele>1200.6</ele>
        <time>2021-05-29T08:45:42Z</time>
      </trkpt>
      <trkpt lat="42.94783" lon="0.27724">
        <ele>1200.8</ele>
        <time>2021-05-29T08:45:43Z</time>
      </trkpt>
      <trkpt lat="42.94781" lon="0.27726">
        <ele>1200.8</ele>
        <time>2021-05-29T08:45:44Z</time>
      </trkpt>
      <trkpt lat="42.94779" lon="0.27727">
        <ele>1201</ele>
        <time>2021-05-29T08:45:45Z</time>
      </trkpt>
      <trkpt lat="42.94778" lon="0.27729">
        <ele>1201.2</ele>
        <time>2021-05-29T08:45:46Z</time>
      </trkpt>
      <trkpt lat="42.94777" lon="0.2773">
        <ele>1201.4</ele>
        <time>2021-05-29T08:45:47Z</time>
      </trkpt>
      <trkpt lat="42.94776" lon="0.27732">
        <ele>1201.4</ele>
        <time>2021-05-29T08:45:48Z</time>
      </trkpt>
      <trkpt lat="42.94775" lon="0.27733">
        <ele>1201.6</ele>
        <time>2021-05-29T08:45:49Z</time>
      </trkpt>
      <trkpt lat="42.94774" lon="0.27735">
        <ele>1201.8</ele>
        <time>2021-05-29T08:45:50Z</time>
      </trkpt>
      <trkpt lat="42.94773" lon="0.27737">
        <ele>1201.8</ele>
        <time>2021-05-29T08:45:51Z</time>
      </trkpt>
      <trkpt lat="42.94771" lon="0.2774">
        <ele>1202</ele>
        <time>2021-05-29T08:45:52Z</time>
      </trkpt>
      <trkpt lat="42.9477" lon="0.27743">
        <ele>1202</ele>
        <time>2021-05-29T08:45:53Z</time>
      </trkpt>
      <trkpt lat="42.94768" lon="0.27747">
        <ele>1202.2</ele>
        <time>2021-05-29T08:45:54Z</time>
      </trkpt>
      <trkpt lat="42.94767" lon="0.27749">
        <ele>1202.2</ele>
        <time>2021-05-29T08:45:55Z</time>
      </trkpt>
      <trkpt lat="42.94766" lon="0.27752">
        <ele>1202.4</ele>
        <time>2021-05-29T08:45:56Z</time>
      </trkpt>
      <trkpt lat="42.94765" lon="0.27753">
        <ele>1202.4</ele>
        <time>2021-05-29T08:45:57Z</time>
      </trkpt>
      <trkpt lat="42.94763" lon="0.27754">
        <ele>1202.6</ele>
        <time>2021-05-29T08:45:58Z</time>
      </trkpt>
      <trkpt lat="42.94761" lon="0.27754">
        <ele>1202.6</ele>
        <time>2021-05-29T08:45:59Z</time>
      </trkpt>
      <trkpt lat="42.9476" lon="0.27755">
        <ele>1203</ele>
        <time>2021-05-29T08:46:00Z</time>
      </trkpt>
      <trkpt lat="42.94759" lon="0.27756">
        <ele>1203.2</ele>
        <time>2021-05-29T08:46:01Z</time>
      </trkpt>
      <trkpt lat="42.94759" lon="0.27756">
        <ele>1203.4</ele>
        <time>2021-05-29T08:46:02Z</time>
      </trkpt>
      <trkpt lat="42.94758" lon="0.27757">
        <ele>1203.4</ele>
        <time>2021-05-29T08:46:03Z</time>
      </trkpt>
      <trkpt lat="42.94756" lon="0.27759">
        <ele>1203.6</ele>
        <time>2021-05-29T08:46:04Z</time>
      </trkpt>
      <trkpt lat="42.94754" lon="0.27761">
        <ele>1203.8</ele>
        <time>2021-05-29T08:46:05Z</time>
      </trkpt>
      <trkpt lat="42.94754" lon="0.27761">
        <ele>1203.8</ele>
        <time>2021-05-29T08:46:06Z</time>
      </trkpt>
      <trkpt lat="42.94754" lon="0.27761">
        <ele>1204</ele>
        <time>2021-05-29T08:46:07Z</time>
      </trkpt>
      <trkpt lat="42.94754" lon="0.27761">
        <ele>1204</ele>
        <time>2021-05-29T08:46:08Z</time>
      </trkpt>
      <trkpt lat="42.94753" lon="0.27763">
        <ele>1204.2</ele>
        <time>2021-05-29T08:46:09Z</time>
      </trkpt>
      <trkpt lat="42.94753" lon="0.27763">
        <ele>1204.4</ele>
        <time>2021-05-29T08:46:10Z</time>
      </trkpt>
      <trkpt lat="42.94753" lon="0.27763">
        <ele>1204.4</ele>
        <time>2021-05-29T08:46:11Z</time>
      </trkpt>
      <trkpt lat="42.94751" lon="0.27765">
        <ele>1204.6</ele>
        <time>2021-05-29T08:46:12Z</time>
      </trkpt>
      <trkpt lat="42.94747" lon="0.27769">
        <ele>1204.6</ele>
        <time>2021-05-29T08:46:13Z</time>
      </trkpt>
      <trkpt lat="42.94744" lon="0.27772">
        <ele>1204.8</ele>
        <time>2021-05-29T08:46:14Z</time>
      </trkpt>
      <trkpt lat="42.94741" lon="0.27775">
        <ele>1204.8</ele>
        <time>2021-05-29T08:46:15Z</time>
      </trkpt>
      <trkpt lat="42.9474" lon="0.27778">
        <ele>1204.8</ele>
        <time>2021-05-29T08:46:16Z</time>
      </trkpt>
      <trkpt lat="42.9474" lon="0.27779">
        <ele>1205</ele>
        <time>2021-05-29T08:46:17Z</time>
      </trkpt>
      <trkpt lat="42.94739" lon="0.2778">
        <ele>1205</ele>
        <time>2021-05-29T08:46:18Z</time>
      </trkpt>
      <trkpt lat="42.94738" lon="0.27781">
        <ele>1205.2</ele>
        <time>2021-05-29T08:46:19Z</time>
      </trkpt>
      <trkpt lat="42.94737" lon="0.27783">
        <ele>1205.2</ele>
        <time>2021-05-29T08:46:20Z</time>
      </trkpt>
      <trkpt lat="42.94736" lon="0.27784">
        <ele>1205.4</ele>
        <time>2021-05-29T08:46:21Z</time>
      </trkpt>
      <trkpt lat="42.94735" lon="0.27786">
        <ele>1205.6</ele>
        <time>2021-05-29T08:46:22Z</time>
      </trkpt>
      <trkpt lat="42.94734" lon="0.27786">
        <ele>1205.6</ele>
        <time>2021-05-29T08:46:23Z</time>
      </trkpt>
      <trkpt lat="42.94733" lon="0.27788">
        <ele>1205.8</ele>
        <time>2021-05-29T08:46:24Z</time>
      </trkpt>
      <trkpt lat="42.94731" lon="0.27791">
        <ele>1205.8</ele>
        <time>2021-05-29T08:46:25Z</time>
      </trkpt>
      <trkpt lat="42.94728" lon="0.27793">
        <ele>1206</ele>
        <time>2021-05-29T08:46:26Z</time>
      </trkpt>
      <trkpt lat="42.94725" lon="0.27794">
        <ele>1206</ele>
        <time>2021-05-29T08:46:27Z</time>
      </trkpt>
      <trkpt lat="42.94725" lon="0.27796">
        <ele>1206</ele>
        <time>2021-05-29T08:46:28Z</time>
      </trkpt>
      <trkpt lat="42.94723" lon="0.27797">
        <ele>1206.2</ele>
        <time>2021-05-29T08:46:29Z</time>
      </trkpt>
      <trkpt lat="42.94723" lon="0.27797">
        <ele>1206.2</ele>
        <time>2021-05-29T08:46:30Z</time>
      </trkpt>
      <trkpt lat="42.94722" lon="0.27797">
        <ele>1206.2</ele>
        <time>2021-05-29T08:46:31Z</time>
      </trkpt>
      <trkpt lat="42.94721" lon="0.27797">
        <ele>1206.2</ele>
        <time>2021-05-29T08:46:32Z</time>
      </trkpt>
      <trkpt lat="42.9472" lon="0.27797">
        <ele>1206.2</ele>
        <time>2021-05-29T08:46:33Z</time>
      </trkpt>
      <trkpt lat="42.94718" lon="0.27798">
        <ele>1206.2</ele>
        <time>2021-05-29T08:46:34Z</time>
      </trkpt>
      <trkpt lat="42.94712" lon="0.27802">
        <ele>1206.2</ele>
        <time>2021-05-29T08:46:36Z</time>
      </trkpt>
      <trkpt lat="42.94708" lon="0.27805">
        <ele>1206.2</ele>
        <time>2021-05-29T08:46:37Z</time>
      </trkpt>
      <trkpt lat="42.94704" lon="0.27808">
        <ele>1206</ele>
        <time>2021-05-29T08:46:38Z</time>
      </trkpt>
      <trkpt lat="42.94687" lon="0.27816">
        <ele>1205.4</ele>
        <time>2021-05-29T08:46:42Z</time>
      </trkpt>
      <trkpt lat="42.94681" lon="0.2782">
        <ele>1205</ele>
        <time>2021-05-29T08:46:43Z</time>
      </trkpt>
      <trkpt lat="42.94674" lon="0.27823">
        <ele>1204.4</ele>
        <time>2021-05-29T08:46:44Z</time>
      </trkpt>
      <trkpt lat="42.94669" lon="0.27826">
        <ele>1203.8</ele>
        <time>2021-05-29T08:46:45Z</time>
      </trkpt>
      <trkpt lat="42.94664" lon="0.27829">
        <ele>1203.4</ele>
        <time>2021-05-29T08:46:46Z</time>
      </trkpt>
      <trkpt lat="42.94655" lon="0.27833">
        <ele>1202.4</ele>
        <time>2021-05-29T08:46:48Z</time>
      </trkpt>
      <trkpt lat="42.94651" lon="0.27834">
        <ele>1202.2</ele>
        <time>2021-05-29T08:46:49Z</time>
      </trkpt>
      <trkpt lat="42.9464" lon="0.27837">
        <ele>1201</ele>
        <time>2021-05-29T08:46:51Z</time>
      </trkpt>
      <trkpt lat="42.94628" lon="0.27841">
        <ele>1199.6</ele>
        <time>2021-05-29T08:46:53Z</time>
      </trkpt>
      <trkpt lat="42.94621" lon="0.27844">
        <ele>1199</ele>
        <time>2021-05-29T08:46:54Z</time>
      </trkpt>
      <trkpt lat="42.94616" lon="0.27848">
        <ele>1198.2</ele>
        <time>2021-05-29T08:46:55Z</time>
      </trkpt>
      <trkpt lat="42.94605" lon="0.27856">
        <ele>1196.8</ele>
        <time>2021-05-29T08:46:57Z</time>
      </trkpt>
      <trkpt lat="42.94601" lon="0.2786">
        <ele>1196.4</ele>
        <time>2021-05-29T08:46:58Z</time>
      </trkpt>
      <trkpt lat="42.94598" lon="0.27864">
        <ele>1195</ele>
        <time>2021-05-29T08:46:59Z</time>
      </trkpt>
      <trkpt lat="42.94587" lon="0.27875">
        <ele>1193.4</ele>
        <time>2021-05-29T08:47:01Z</time>
      </trkpt>
      <trkpt lat="42.9458" lon="0.27882">
        <ele>1193.2</ele>
        <time>2021-05-29T08:47:02Z</time>
      </trkpt>
      <trkpt lat="42.94577" lon="0.27888">
        <ele>1191.6</ele>
        <time>2021-05-29T08:47:03Z</time>
      </trkpt>
      <trkpt lat="42.94575" lon="0.27894">
        <ele>1190.4</ele>
        <time>2021-05-29T08:47:04Z</time>
      </trkpt>
      <trkpt lat="42.94575" lon="0.27899">
        <ele>1189.8</ele>
        <time>2021-05-29T08:47:05Z</time>
      </trkpt>
      <trkpt lat="42.94575" lon="0.27903">
        <ele>1189</ele>
        <time>2021-05-29T08:47:06Z</time>
      </trkpt>
      <trkpt lat="42.94577" lon="0.27906">
        <ele>1188.6</ele>
        <time>2021-05-29T08:47:07Z</time>
      </trkpt>
      <trkpt lat="42.94581" lon="0.27911">
        <ele>1188</ele>
        <time>2021-05-29T08:47:08Z</time>
      </trkpt>
      <trkpt lat="42.94583" lon="0.27917">
        <ele>1187.8</ele>
        <time>2021-05-29T08:47:09Z</time>
      </trkpt>
      <trkpt lat="42.94587" lon="0.27921">
        <ele>1187.4</ele>
        <time>2021-05-29T08:47:10Z</time>
      </trkpt>
      <trkpt lat="42.9459" lon="0.27926">
        <ele>1187</ele>
        <time>2021-05-29T08:47:11Z</time>
      </trkpt>
      <trkpt lat="42.94598" lon="0.27937">
        <ele>1186.2</ele>
        <time>2021-05-29T08:47:13Z</time>
      </trkpt>
      <trkpt lat="42.94601" lon="0.27943">
        <ele>1185.6</ele>
        <time>2021-05-29T08:47:14Z</time>
      </trkpt>
      <trkpt lat="42.94606" lon="0.27955">
        <ele>1184.6</ele>
        <time>2021-05-29T08:47:16Z</time>
      </trkpt>
      <trkpt lat="42.94607" lon="0.27959">
        <ele>1184</ele>
        <time>2021-05-29T08:47:17Z</time>
      </trkpt>
      <trkpt lat="42.9461" lon="0.27964">
        <ele>1182.8</ele>
        <time>2021-05-29T08:47:18Z</time>
      </trkpt>
      <trkpt lat="42.94612" lon="0.27972">
        <ele>1182</ele>
        <time>2021-05-29T08:47:19Z</time>
      </trkpt>
      <trkpt lat="42.94613" lon="0.2798">
        <ele>1181.4</ele>
        <time>2021-05-29T08:47:20Z</time>
      </trkpt>
      <trkpt lat="42.94618" lon="0.27993">
        <ele>1181</ele>
        <time>2021-05-29T08:47:21Z</time>
      </trkpt>
      <trkpt lat="42.94626" lon="0.28006">
        <ele>1179.2</ele>
        <time>2021-05-29T08:47:23Z</time>
      </trkpt>
      <trkpt lat="42.94629" lon="0.28011">
        <ele>1178.8</ele>
        <time>2021-05-29T08:47:24Z</time>
      </trkpt>
      <trkpt lat="42.94633" lon="0.28016">
        <ele>1178</ele>
        <time>2021-05-29T08:47:25Z</time>
      </trkpt>
      <trkpt lat="42.94636" lon="0.28022">
        <ele>1176.8</ele>
        <time>2021-05-29T08:47:26Z</time>
      </trkpt>
      <trkpt lat="42.9464" lon="0.2803">
        <ele>1175.4</ele>
        <time>2021-05-29T08:47:27Z</time>
      </trkpt>
      <trkpt lat="42.94647" lon="0.28044">
        <ele>1173.8</ele>
        <time>2021-05-29T08:47:29Z</time>
      </trkpt>
      <trkpt lat="42.94658" lon="0.2806">
        <ele>1172.8</ele>
        <time>2021-05-29T08:47:31Z</time>
      </trkpt>
      <trkpt lat="42.94662" lon="0.28066">
        <ele>1172.6</ele>
        <time>2021-05-29T08:47:32Z</time>
      </trkpt>
      <trkpt lat="42.94666" lon="0.28071">
        <ele>1172</ele>
        <time>2021-05-29T08:47:33Z</time>
      </trkpt>
      <trkpt lat="42.94669" lon="0.28077">
        <ele>1171.2</ele>
        <time>2021-05-29T08:47:34Z</time>
      </trkpt>
      <trkpt lat="42.94672" lon="0.28083">
        <ele>1170</ele>
        <time>2021-05-29T08:47:35Z</time>
      </trkpt>
      <trkpt lat="42.94674" lon="0.28088">
        <ele>1169.6</ele>
        <time>2021-05-29T08:47:36Z</time>
      </trkpt>
      <trkpt lat="42.94674" lon="0.28089">
        <ele>1168.8</ele>
        <time>2021-05-29T08:47:37Z</time>
      </trkpt>
      <trkpt lat="42.94671" lon="0.28091">
        <ele>1168.6</ele>
        <time>2021-05-29T08:47:38Z</time>
      </trkpt>
      <trkpt lat="42.94668" lon="0.28093">
        <ele>1168.2</ele>
        <time>2021-05-29T08:47:39Z</time>
      </trkpt>
      <trkpt lat="42.94665" lon="0.28094">
        <ele>1167.8</ele>
        <time>2021-05-29T08:47:40Z</time>
      </trkpt>
      <trkpt lat="42.94665" lon="0.28094">
        <ele>1167.6</ele>
        <time>2021-05-29T08:47:41Z</time>
      </trkpt>
      <trkpt lat="42.94664" lon="0.28094">
        <ele>1166.6</ele>
        <time>2021-05-29T08:47:42Z</time>
      </trkpt>
      <trkpt lat="42.94662" lon="0.28094">
        <ele>1166.6</ele>
        <time>2021-05-29T08:47:43Z</time>
      </trkpt>
      <trkpt lat="42.94662" lon="0.28094">
        <ele>1166.4</ele>
        <time>2021-05-29T08:47:44Z</time>
      </trkpt>
      <trkpt lat="42.94659" lon="0.28093">
        <ele>1166.4</ele>
        <time>2021-05-29T08:47:46Z</time>
      </trkpt>
      <trkpt lat="42.94656" lon="0.28096">
        <ele>1166.2</ele>
        <time>2021-05-29T08:47:47Z</time>
      </trkpt>
      <trkpt lat="42.94653" lon="0.28099">
        <ele>1166.4</ele>
        <time>2021-05-29T08:47:48Z</time>
      </trkpt>
      <trkpt lat="42.9465" lon="0.281">
        <ele>1166.4</ele>
        <time>2021-05-29T08:47:49Z</time>
      </trkpt>
      <trkpt lat="42.94648" lon="0.28101">
        <ele>1166.4</ele>
        <time>2021-05-29T08:47:50Z</time>
      </trkpt>
      <trkpt lat="42.94646" lon="0.28102">
        <ele>1166.6</ele>
        <time>2021-05-29T08:47:51Z</time>
      </trkpt>
      <trkpt lat="42.94644" lon="0.28102">
        <ele>1166.6</ele>
        <time>2021-05-29T08:47:52Z</time>
      </trkpt>
      <trkpt lat="42.94642" lon="0.28101">
        <ele>1166.8</ele>
        <time>2021-05-29T08:47:53Z</time>
      </trkpt>
      <trkpt lat="42.94641" lon="0.28101">
        <ele>1167.2</ele>
        <time>2021-05-29T08:47:54Z</time>
      </trkpt>
      <trkpt lat="42.9464" lon="0.28102">
        <ele>1167.4</ele>
        <time>2021-05-29T08:47:55Z</time>
      </trkpt>
      <trkpt lat="42.94637" lon="0.28104">
        <ele>1167.8</ele>
        <time>2021-05-29T08:47:57Z</time>
      </trkpt>
      <trkpt lat="42.94637" lon="0.28103">
        <ele>1168</ele>
        <time>2021-05-29T08:47:58Z</time>
      </trkpt>
      <trkpt lat="42.94636" lon="0.28104">
        <ele>1168.2</ele>
        <time>2021-05-29T08:47:59Z</time>
      </trkpt>
      <trkpt lat="42.94635" lon="0.28105">
        <ele>1168.4</ele>
        <time>2021-05-29T08:48:00Z</time>
      </trkpt>
      <trkpt lat="42.94633" lon="0.28106">
        <ele>1168.4</ele>
        <time>2021-05-29T08:48:01Z</time>
      </trkpt>
      <trkpt lat="42.9462" lon="0.28114">
        <ele>1168.6</ele>
        <time>2021-05-29T08:48:07Z</time>
      </trkpt>
      <trkpt lat="42.94615" lon="0.28117">
        <ele>1168.4</ele>
        <time>2021-05-29T08:48:09Z</time>
      </trkpt>
      <trkpt lat="42.94612" lon="0.28118">
        <ele>1168.4</ele>
        <time>2021-05-29T08:48:10Z</time>
      </trkpt>
      <trkpt lat="42.9461" lon="0.28119">
        <ele>1168</ele>
        <time>2021-05-29T08:48:11Z</time>
      </trkpt>
      <trkpt lat="42.94608" lon="0.2812">
        <ele>1168</ele>
        <time>2021-05-29T08:48:12Z</time>
      </trkpt>
      <trkpt lat="42.94604" lon="0.28122">
        <ele>1167.6</ele>
        <time>2021-05-29T08:48:13Z</time>
      </trkpt>
      <trkpt lat="42.94596" lon="0.28126">
        <ele>1167.2</ele>
        <time>2021-05-29T08:48:15Z</time>
      </trkpt>
      <trkpt lat="42.9459" lon="0.28129">
        <ele>1166.8</ele>
        <time>2021-05-29T08:48:16Z</time>
      </trkpt>
      <trkpt lat="42.94579" lon="0.28135">
        <ele>1166.2</ele>
        <time>2021-05-29T08:48:18Z</time>
      </trkpt>
      <trkpt lat="42.94574" lon="0.28138">
        <ele>1165.8</ele>
        <time>2021-05-29T08:48:19Z</time>
      </trkpt>
      <trkpt lat="42.94569" lon="0.28141">
        <ele>1165.6</ele>
        <time>2021-05-29T08:48:20Z</time>
      </trkpt>
      <trkpt lat="42.94565" lon="0.28144">
        <ele>1165.2</ele>
        <time>2021-05-29T08:48:21Z</time>
      </trkpt>
      <trkpt lat="42.94563" lon="0.28147">
        <ele>1164.6</ele>
        <time>2021-05-29T08:48:22Z</time>
      </trkpt>
      <trkpt lat="42.94561" lon="0.28151">
        <ele>1164.4</ele>
        <time>2021-05-29T08:48:23Z</time>
      </trkpt>
      <trkpt lat="42.94559" lon="0.28155">
        <ele>1164</ele>
        <time>2021-05-29T08:48:24Z</time>
      </trkpt>
      <trkpt lat="42.94557" lon="0.28158">
        <ele>1163.8</ele>
        <time>2021-05-29T08:48:25Z</time>
      </trkpt>
      <trkpt lat="42.94555" lon="0.28161">
        <ele>1163.6</ele>
        <time>2021-05-29T08:48:26Z</time>
      </trkpt>
      <trkpt lat="42.94553" lon="0.28163">
        <ele>1163.6</ele>
        <time>2021-05-29T08:48:27Z</time>
      </trkpt>
      <trkpt lat="42.94551" lon="0.28166">
        <ele>1163.6</ele>
        <time>2021-05-29T08:48:28Z</time>
      </trkpt>
      <trkpt lat="42.94548" lon="0.28169">
        <ele>1163.6</ele>
        <time>2021-05-29T08:48:29Z</time>
      </trkpt>
      <trkpt lat="42.94546" lon="0.28175">
        <ele>1163.8</ele>
        <time>2021-05-29T08:48:31Z</time>
      </trkpt>
      <trkpt lat="42.94544" lon="0.28177">
        <ele>1163.8</ele>
        <time>2021-05-29T08:48:32Z</time>
      </trkpt>
      <trkpt lat="42.94541" lon="0.28178">
        <ele>1163.8</ele>
        <time>2021-05-29T08:48:33Z</time>
      </trkpt>
      <trkpt lat="42.94539" lon="0.2818">
        <ele>1164</ele>
        <time>2021-05-29T08:48:34Z</time>
      </trkpt>
      <trkpt lat="42.94535" lon="0.28183">
        <ele>1164</ele>
        <time>2021-05-29T08:48:35Z</time>
      </trkpt>
      <trkpt lat="42.94523" lon="0.28194">
        <ele>1164.4</ele>
        <time>2021-05-29T08:48:39Z</time>
      </trkpt>
      <trkpt lat="42.9452" lon="0.28198">
        <ele>1164.8</ele>
        <time>2021-05-29T08:48:41Z</time>
      </trkpt>
      <trkpt lat="42.94518" lon="0.28203">
        <ele>1164.8</ele>
        <time>2021-05-29T08:48:43Z</time>
      </trkpt>
      <trkpt lat="42.94518" lon="0.28207">
        <ele>1164.8</ele>
        <time>2021-05-29T08:48:44Z</time>
      </trkpt>
      <trkpt lat="42.94518" lon="0.2821">
        <ele>1165</ele>
        <time>2021-05-29T08:48:45Z</time>
      </trkpt>
      <trkpt lat="42.94518" lon="0.28213">
        <ele>1165.2</ele>
        <time>2021-05-29T08:48:46Z</time>
      </trkpt>
      <trkpt lat="42.94517" lon="0.28215">
        <ele>1165.4</ele>
        <time>2021-05-29T08:48:47Z</time>
      </trkpt>
      <trkpt lat="42.94516" lon="0.28217">
        <ele>1165.4</ele>
        <time>2021-05-29T08:48:48Z</time>
      </trkpt>
      <trkpt lat="42.94515" lon="0.28221">
        <ele>1165.6</ele>
        <time>2021-05-29T08:48:49Z</time>
      </trkpt>
      <trkpt lat="42.94513" lon="0.28224">
        <ele>1165.6</ele>
        <time>2021-05-29T08:48:50Z</time>
      </trkpt>
      <trkpt lat="42.94512" lon="0.28227">
        <ele>1165.8</ele>
        <time>2021-05-29T08:48:51Z</time>
      </trkpt>
      <trkpt lat="42.94507" lon="0.28234">
        <ele>1166</ele>
        <time>2021-05-29T08:48:53Z</time>
      </trkpt>
      <trkpt lat="42.94502" lon="0.28239">
        <ele>1166.2</ele>
        <time>2021-05-29T08:48:55Z</time>
      </trkpt>
      <trkpt lat="42.945" lon="0.28241">
        <ele>1166.2</ele>
        <time>2021-05-29T08:48:56Z</time>
      </trkpt>
      <trkpt lat="42.94498" lon="0.28241">
        <ele>1166.2</ele>
        <time>2021-05-29T08:48:57Z</time>
      </trkpt>
      <trkpt lat="42.94497" lon="0.28243">
        <ele>1166.4</ele>
        <time>2021-05-29T08:48:58Z</time>
      </trkpt>
      <trkpt lat="42.94496" lon="0.28245">
        <ele>1166.4</ele>
        <time>2021-05-29T08:48:59Z</time>
      </trkpt>
      <trkpt lat="42.94494" lon="0.28247">
        <ele>1166.6</ele>
        <time>2021-05-29T08:49:00Z</time>
      </trkpt>
      <trkpt lat="42.94493" lon="0.2825">
        <ele>1166.8</ele>
        <time>2021-05-29T08:49:01Z</time>
      </trkpt>
      <trkpt lat="42.94491" lon="0.28253">
        <ele>1167</ele>
        <time>2021-05-29T08:49:02Z</time>
      </trkpt>
      <trkpt lat="42.94488" lon="0.28256">
        <ele>1167.2</ele>
        <time>2021-05-29T08:49:04Z</time>
      </trkpt>
      <trkpt lat="42.94486" lon="0.28264">
        <ele>1167.8</ele>
        <time>2021-05-29T08:49:07Z</time>
      </trkpt>
      <trkpt lat="42.94486" lon="0.28264">
        <ele>1168</ele>
        <time>2021-05-29T08:49:08Z</time>
      </trkpt>
      <trkpt lat="42.94485" lon="0.28266">
        <ele>1168.2</ele>
        <time>2021-05-29T08:49:09Z</time>
      </trkpt>
      <trkpt lat="42.94485" lon="0.28267">
        <ele>1168.4</ele>
        <time>2021-05-29T08:49:10Z</time>
      </trkpt>
      <trkpt lat="42.94484" lon="0.28269">
        <ele>1168.6</ele>
        <time>2021-05-29T08:49:11Z</time>
      </trkpt>
      <trkpt lat="42.94483" lon="0.28271">
        <ele>1168.8</ele>
        <time>2021-05-29T08:49:12Z</time>
      </trkpt>
      <trkpt lat="42.94481" lon="0.28274">
        <ele>1168.8</ele>
        <time>2021-05-29T08:49:13Z</time>
      </trkpt>
      <trkpt lat="42.9448" lon="0.28277">
        <ele>1169</ele>
        <time>2021-05-29T08:49:14Z</time>
      </trkpt>
      <trkpt lat="42.94478" lon="0.2828">
        <ele>1169.2</ele>
        <time>2021-05-29T08:49:15Z</time>
      </trkpt>
      <trkpt lat="42.94476" lon="0.28284">
        <ele>1169.2</ele>
        <time>2021-05-29T08:49:16Z</time>
      </trkpt>
      <trkpt lat="42.94473" lon="0.28287">
        <ele>1169.2</ele>
        <time>2021-05-29T08:49:17Z</time>
      </trkpt>
      <trkpt lat="42.94471" lon="0.2829">
        <ele>1169.2</ele>
        <time>2021-05-29T08:49:18Z</time>
      </trkpt>
      <trkpt lat="42.94468" lon="0.28294">
        <ele>1169.2</ele>
        <time>2021-05-29T08:49:19Z</time>
      </trkpt>
      <trkpt lat="42.94465" lon="0.283">
        <ele>1169.2</ele>
        <time>2021-05-29T08:49:20Z</time>
      </trkpt>
      <trkpt lat="42.94462" lon="0.28305">
        <ele>1169</ele>
        <time>2021-05-29T08:49:21Z</time>
      </trkpt>
      <trkpt lat="42.94459" lon="0.28311">
        <ele>1169</ele>
        <time>2021-05-29T08:49:22Z</time>
      </trkpt>
      <trkpt lat="42.94456" lon="0.28316">
        <ele>1168.6</ele>
        <time>2021-05-29T08:49:23Z</time>
      </trkpt>
      <trkpt lat="42.94451" lon="0.28323">
        <ele>1168.4</ele>
        <time>2021-05-29T08:49:24Z</time>
      </trkpt>
      <trkpt lat="42.94447" lon="0.28329">
        <ele>1168.2</ele>
        <time>2021-05-29T08:49:25Z</time>
      </trkpt>
      <trkpt lat="42.94443" lon="0.28334">
        <ele>1167.6</ele>
        <time>2021-05-29T08:49:26Z</time>
      </trkpt>
      <trkpt lat="42.94438" lon="0.28341">
        <ele>1166.8</ele>
        <time>2021-05-29T08:49:27Z</time>
      </trkpt>
      <trkpt lat="42.94433" lon="0.28349">
        <ele>1166.2</ele>
        <time>2021-05-29T08:49:28Z</time>
      </trkpt>
      <trkpt lat="42.94427" lon="0.28358">
        <ele>1165.4</ele>
        <time>2021-05-29T08:49:29Z</time>
      </trkpt>
      <trkpt lat="42.94422" lon="0.28368">
        <ele>1164.8</ele>
        <time>2021-05-29T08:49:30Z</time>
      </trkpt>
      <trkpt lat="42.94418" lon="0.28379">
        <ele>1164.2</ele>
        <time>2021-05-29T08:49:31Z</time>
      </trkpt>
      <trkpt lat="42.94416" lon="0.2839">
        <ele>1163.2</ele>
        <time>2021-05-29T08:49:32Z</time>
      </trkpt>
      <trkpt lat="42.94415" lon="0.284">
        <ele>1162.8</ele>
        <time>2021-05-29T08:49:33Z</time>
      </trkpt>
      <trkpt lat="42.94415" lon="0.28411">
        <ele>1161.4</ele>
        <time>2021-05-29T08:49:34Z</time>
      </trkpt>
      <trkpt lat="42.94414" lon="0.28422">
        <ele>1160.8</ele>
        <time>2021-05-29T08:49:35Z</time>
      </trkpt>
      <trkpt lat="42.94413" lon="0.28432">
        <ele>1160.2</ele>
        <time>2021-05-29T08:49:36Z</time>
      </trkpt>
      <trkpt lat="42.94414" lon="0.28443">
        <ele>1159.8</ele>
        <time>2021-05-29T08:49:37Z</time>
      </trkpt>
      <trkpt lat="42.94417" lon="0.28453">
        <ele>1159</ele>
        <time>2021-05-29T08:49:38Z</time>
      </trkpt>
      <trkpt lat="42.9442" lon="0.28464">
        <ele>1158.8</ele>
        <time>2021-05-29T08:49:39Z</time>
      </trkpt>
      <trkpt lat="42.94425" lon="0.28474">
        <ele>1158</ele>
        <time>2021-05-29T08:49:40Z</time>
      </trkpt>
      <trkpt lat="42.94428" lon="0.28486">
        <ele>1157.8</ele>
        <time>2021-05-29T08:49:41Z</time>
      </trkpt>
      <trkpt lat="42.9443" lon="0.28497">
        <ele>1157.4</ele>
        <time>2021-05-29T08:49:42Z</time>
      </trkpt>
      <trkpt lat="42.94432" lon="0.28508">
        <ele>1157.2</ele>
        <time>2021-05-29T08:49:43Z</time>
      </trkpt>
      <trkpt lat="42.94435" lon="0.2852">
        <ele>1156.6</ele>
        <time>2021-05-29T08:49:44Z</time>
      </trkpt>
      <trkpt lat="42.94437" lon="0.2853">
        <ele>1156</ele>
        <time>2021-05-29T08:49:45Z</time>
      </trkpt>
      <trkpt lat="42.9444" lon="0.28539">
        <ele>1154.2</ele>
        <time>2021-05-29T08:49:46Z</time>
      </trkpt>
      <trkpt lat="42.94442" lon="0.28546">
        <ele>1152.4</ele>
        <time>2021-05-29T08:49:47Z</time>
      </trkpt>
      <trkpt lat="42.94444" lon="0.28551">
        <ele>1151.2</ele>
        <time>2021-05-29T08:49:48Z</time>
      </trkpt>
      <trkpt lat="42.94446" lon="0.28554">
        <ele>1149</ele>
        <time>2021-05-29T08:49:49Z</time>
      </trkpt>
      <trkpt lat="42.94448" lon="0.28557">
        <ele>1147.8</ele>
        <time>2021-05-29T08:49:50Z</time>
      </trkpt>
      <trkpt lat="42.9445" lon="0.2856">
        <ele>1146.4</ele>
        <time>2021-05-29T08:49:51Z</time>
      </trkpt>
      <trkpt lat="42.94455" lon="0.28569">
        <ele>1145</ele>
        <time>2021-05-29T08:49:53Z</time>
      </trkpt>
      <trkpt lat="42.9446" lon="0.28576">
        <ele>1144.8</ele>
        <time>2021-05-29T08:49:54Z</time>
      </trkpt>
      <trkpt lat="42.94466" lon="0.28582">
        <ele>1144</ele>
        <time>2021-05-29T08:49:55Z</time>
      </trkpt>
      <trkpt lat="42.94471" lon="0.28587">
        <ele>1143.8</ele>
        <time>2021-05-29T08:49:56Z</time>
      </trkpt>
      <trkpt lat="42.94479" lon="0.2859">
        <ele>1142.4</ele>
        <time>2021-05-29T08:49:57Z</time>
      </trkpt>
      <trkpt lat="42.94486" lon="0.28593">
        <ele>1141.8</ele>
        <time>2021-05-29T08:49:58Z</time>
      </trkpt>
      <trkpt lat="42.94493" lon="0.28596">
        <ele>1141</ele>
        <time>2021-05-29T08:49:59Z</time>
      </trkpt>
      <trkpt lat="42.94508" lon="0.28602">
        <ele>1139.8</ele>
        <time>2021-05-29T08:50:01Z</time>
      </trkpt>
      <trkpt lat="42.94522" lon="0.28611">
        <ele>1137.6</ele>
        <time>2021-05-29T08:50:03Z</time>
      </trkpt>
      <trkpt lat="42.94529" lon="0.28615">
        <ele>1136.8</ele>
        <time>2021-05-29T08:50:04Z</time>
      </trkpt>
      <trkpt lat="42.94535" lon="0.28618">
        <ele>1135.4</ele>
        <time>2021-05-29T08:50:05Z</time>
      </trkpt>
      <trkpt lat="42.9454" lon="0.28621">
        <ele>1134.6</ele>
        <time>2021-05-29T08:50:06Z</time>
      </trkpt>
      <trkpt lat="42.94546" lon="0.28623">
        <ele>1133.6</ele>
        <time>2021-05-29T08:50:07Z</time>
      </trkpt>
      <trkpt lat="42.94553" lon="0.28625">
        <ele>1131.6</ele>
        <time>2021-05-29T08:50:08Z</time>
      </trkpt>
      <trkpt lat="42.9456" lon="0.28626">
        <ele>1130.8</ele>
        <time>2021-05-29T08:50:09Z</time>
      </trkpt>
      <trkpt lat="42.94566" lon="0.28626">
        <ele>1129.8</ele>
        <time>2021-05-29T08:50:10Z</time>
      </trkpt>
      <trkpt lat="42.94571" lon="0.28626">
        <ele>1129.4</ele>
        <time>2021-05-29T08:50:11Z</time>
      </trkpt>
      <trkpt lat="42.94576" lon="0.28628">
        <ele>1128.6</ele>
        <time>2021-05-29T08:50:12Z</time>
      </trkpt>
      <trkpt lat="42.94579" lon="0.28631">
        <ele>1127.8</ele>
        <time>2021-05-29T08:50:13Z</time>
      </trkpt>
      <trkpt lat="42.94581" lon="0.28636">
        <ele>1126.2</ele>
        <time>2021-05-29T08:50:14Z</time>
      </trkpt>
      <trkpt lat="42.94582" lon="0.28643">
        <ele>1125.6</ele>
        <time>2021-05-29T08:50:15Z</time>
      </trkpt>
      <trkpt lat="42.94582" lon="0.28649">
        <ele>1124.4</ele>
        <time>2021-05-29T08:50:16Z</time>
      </trkpt>
      <trkpt lat="42.94579" lon="0.28655">
        <ele>1123.6</ele>
        <time>2021-05-29T08:50:17Z</time>
      </trkpt>
      <trkpt lat="42.94577" lon="0.28662">
        <ele>1122.6</ele>
        <time>2021-05-29T08:50:18Z</time>
      </trkpt>
      <trkpt lat="42.94574" lon="0.28669">
        <ele>1121.8</ele>
        <time>2021-05-29T08:50:19Z</time>
      </trkpt>
      <trkpt lat="42.94571" lon="0.28675">
        <ele>1120.8</ele>
        <time>2021-05-29T08:50:20Z</time>
      </trkpt>
      <trkpt lat="42.94561" lon="0.28689">
        <ele>1120</ele>
        <time>2021-05-29T08:50:22Z</time>
      </trkpt>
      <trkpt lat="42.94555" lon="0.28695">
        <ele>1119.8</ele>
        <time>2021-05-29T08:50:23Z</time>
      </trkpt>
      <trkpt lat="42.9455" lon="0.28701">
        <ele>1119</ele>
        <time>2021-05-29T08:50:24Z</time>
      </trkpt>
      <trkpt lat="42.94545" lon="0.28705">
        <ele>1118.2</ele>
        <time>2021-05-29T08:50:25Z</time>
      </trkpt>
      <trkpt lat="42.94541" lon="0.28709">
        <ele>1117.8</ele>
        <time>2021-05-29T08:50:26Z</time>
      </trkpt>
      <trkpt lat="42.94537" lon="0.28712">
        <ele>1117.2</ele>
        <time>2021-05-29T08:50:27Z</time>
      </trkpt>
      <trkpt lat="42.94534" lon="0.28715">
        <ele>1116.8</ele>
        <time>2021-05-29T08:50:28Z</time>
      </trkpt>
      <trkpt lat="42.9453" lon="0.28719">
        <ele>1115.2</ele>
        <time>2021-05-29T08:50:29Z</time>
      </trkpt>
      <trkpt lat="42.94527" lon="0.28723">
        <ele>1114.4</ele>
        <time>2021-05-29T08:50:30Z</time>
      </trkpt>
      <trkpt lat="42.94525" lon="0.28728">
        <ele>1113.6</ele>
        <time>2021-05-29T08:50:31Z</time>
      </trkpt>
      <trkpt lat="42.94523" lon="0.28732">
        <ele>1113.2</ele>
        <time>2021-05-29T08:50:32Z</time>
      </trkpt>
      <trkpt lat="42.94523" lon="0.28737">
        <ele>1112.2</ele>
        <time>2021-05-29T08:50:33Z</time>
      </trkpt>
      <trkpt lat="42.94524" lon="0.28742">
        <ele>1111.8</ele>
        <time>2021-05-29T08:50:34Z</time>
      </trkpt>
      <trkpt lat="42.94526" lon="0.28747">
        <ele>1111</ele>
        <time>2021-05-29T08:50:35Z</time>
      </trkpt>
      <trkpt lat="42.94528" lon="0.28753">
        <ele>1110.8</ele>
        <time>2021-05-29T08:50:36Z</time>
      </trkpt>
      <trkpt lat="42.94531" lon="0.28761">
        <ele>1110.6</ele>
        <time>2021-05-29T08:50:37Z</time>
      </trkpt>
      <trkpt lat="42.94535" lon="0.2878">
        <ele>1110</ele>
        <time>2021-05-29T08:50:39Z</time>
      </trkpt>
      <trkpt lat="42.94536" lon="0.28788">
        <ele>1110</ele>
        <time>2021-05-29T08:50:40Z</time>
      </trkpt>
      <trkpt lat="42.94536" lon="0.28796">
        <ele>1109.6</ele>
        <time>2021-05-29T08:50:41Z</time>
      </trkpt>
      <trkpt lat="42.94534" lon="0.28803">
        <ele>1108.8</ele>
        <time>2021-05-29T08:50:42Z</time>
      </trkpt>
      <trkpt lat="42.9453" lon="0.28808">
        <ele>1108.2</ele>
        <time>2021-05-29T08:50:43Z</time>
      </trkpt>
      <trkpt lat="42.94525" lon="0.28811">
        <ele>1107</ele>
        <time>2021-05-29T08:50:44Z</time>
      </trkpt>
      <trkpt lat="42.94511" lon="0.28816">
        <ele>1105.8</ele>
        <time>2021-05-29T08:50:46Z</time>
      </trkpt>
      <trkpt lat="42.94493" lon="0.2882">
        <ele>1105</ele>
        <time>2021-05-29T08:50:48Z</time>
      </trkpt>
      <trkpt lat="42.94482" lon="0.2882">
        <ele>1104.4</ele>
        <time>2021-05-29T08:50:49Z</time>
      </trkpt>
      <trkpt lat="42.94473" lon="0.28818">
        <ele>1103.2</ele>
        <time>2021-05-29T08:50:50Z</time>
      </trkpt>
      <trkpt lat="42.94464" lon="0.28815">
        <ele>1102.4</ele>
        <time>2021-05-29T08:50:51Z</time>
      </trkpt>
      <trkpt lat="42.94456" lon="0.2881">
        <ele>1101.6</ele>
        <time>2021-05-29T08:50:52Z</time>
      </trkpt>
      <trkpt lat="42.94448" lon="0.28805">
        <ele>1100.8</ele>
        <time>2021-05-29T08:50:53Z</time>
      </trkpt>
      <trkpt lat="42.94441" lon="0.288">
        <ele>1099.8</ele>
        <time>2021-05-29T08:50:54Z</time>
      </trkpt>
      <trkpt lat="42.94435" lon="0.28794">
        <ele>1099.4</ele>
        <time>2021-05-29T08:50:55Z</time>
      </trkpt>
      <trkpt lat="42.94429" lon="0.28787">
        <ele>1098.2</ele>
        <time>2021-05-29T08:50:56Z</time>
      </trkpt>
      <trkpt lat="42.94425" lon="0.2878">
        <ele>1097.6</ele>
        <time>2021-05-29T08:50:57Z</time>
      </trkpt>
      <trkpt lat="42.94419" lon="0.28771">
        <ele>1097</ele>
        <time>2021-05-29T08:50:58Z</time>
      </trkpt>
      <trkpt lat="42.94415" lon="0.28765">
        <ele>1096.6</ele>
        <time>2021-05-29T08:50:59Z</time>
      </trkpt>
      <trkpt lat="42.94402" lon="0.28741">
        <ele>1096</ele>
        <time>2021-05-29T08:51:02Z</time>
      </trkpt>
      <trkpt lat="42.94389" lon="0.28716">
        <ele>1094.6</ele>
        <time>2021-05-29T08:51:05Z</time>
      </trkpt>
      <trkpt lat="42.94374" lon="0.28689">
        <ele>1094</ele>
        <time>2021-05-29T08:51:08Z</time>
      </trkpt>
      <trkpt lat="42.94371" lon="0.28683">
        <ele>1093.8</ele>
        <time>2021-05-29T08:51:09Z</time>
      </trkpt>
      <trkpt lat="42.94351" lon="0.28649">
        <ele>1092.2</ele>
        <time>2021-05-29T08:51:13Z</time>
      </trkpt>
      <trkpt lat="42.94347" lon="0.2864">
        <ele>1092</ele>
        <time>2021-05-29T08:51:14Z</time>
      </trkpt>
      <trkpt lat="42.94344" lon="0.28634">
        <ele>1091.8</ele>
        <time>2021-05-29T08:51:15Z</time>
      </trkpt>
      <trkpt lat="42.94341" lon="0.28629">
        <ele>1091.6</ele>
        <time>2021-05-29T08:51:16Z</time>
      </trkpt>
      <trkpt lat="42.94338" lon="0.28628">
        <ele>1091.2</ele>
        <time>2021-05-29T08:51:17Z</time>
      </trkpt>
      <trkpt lat="42.94337" lon="0.2863">
        <ele>1091</ele>
        <time>2021-05-29T08:51:18Z</time>
      </trkpt>
      <trkpt lat="42.94339" lon="0.28633">
        <ele>1090.8</ele>
        <time>2021-05-29T08:51:19Z</time>
      </trkpt>
      <trkpt lat="42.9434" lon="0.28636">
        <ele>1090.6</ele>
        <time>2021-05-29T08:51:20Z</time>
      </trkpt>
      <trkpt lat="42.94341" lon="0.28639">
        <ele>1090.4</ele>
        <time>2021-05-29T08:51:21Z</time>
      </trkpt>
      <trkpt lat="42.94344" lon="0.28643">
        <ele>1090</ele>
        <time>2021-05-29T08:51:23Z</time>
      </trkpt>
      <trkpt lat="42.94345" lon="0.28644">
        <ele>1090</ele>
        <time>2021-05-29T08:51:24Z</time>
      </trkpt>
      <trkpt lat="42.94346" lon="0.28646">
        <ele>1089.8</ele>
        <time>2021-05-29T08:51:25Z</time>
      </trkpt>
      <trkpt lat="42.94347" lon="0.28647">
        <ele>1089.8</ele>
        <time>2021-05-29T08:51:26Z</time>
      </trkpt>
      <trkpt lat="42.94347" lon="0.28648">
        <ele>1089.8</ele>
        <time>2021-05-29T08:51:27Z</time>
      </trkpt>
      <trkpt lat="42.94347" lon="0.28648">
        <ele>1089.8</ele>
        <time>2021-05-29T08:51:31Z</time>
      </trkpt>
      <trkpt lat="42.94347" lon="0.28648">
        <ele>1090.2</ele>
        <time>2021-05-29T08:52:27Z</time>
      </trkpt>
      <trkpt lat="42.94347" lon="0.28648">
        <ele>1089.8</ele>
        <time>2021-05-29T08:53:07Z</time>
      </trkpt>
      <trkpt lat="42.94347" lon="0.28648">
        <ele>1090</ele>
        <time>2021-05-29T08:53:50Z</time>
      </trkpt>
      <trkpt lat="42.94347" lon="0.28648">
        <ele>1089.6</ele>
        <time>2021-05-29T08:54:49Z</time>
      </trkpt>
      <trkpt lat="42.94347" lon="0.28648">
        <ele>1090</ele>
        <time>2021-05-29T08:56:07Z</time>
      </trkpt>
      <trkpt lat="42.94348" lon="0.28648">
        <ele>1090.2</ele>
        <time>2021-05-29T08:57:11Z</time>
      </trkpt>
      <trkpt lat="42.94348" lon="0.28648">
        <ele>1090.2</ele>
        <time>2021-05-29T08:57:17Z</time>
      </trkpt>
      <trkpt lat="42.94343" lon="0.28643">
        <ele>1090.2</ele>
        <time>2021-05-29T08:57:20Z</time>
      </trkpt>
      <trkpt lat="42.94341" lon="0.28641">
        <ele>1090.2</ele>
        <time>2021-05-29T08:57:21Z</time>
      </trkpt>
      <trkpt lat="42.94338" lon="0.28638">
        <ele>1090.2</ele>
        <time>2021-05-29T08:57:22Z</time>
      </trkpt>
      <trkpt lat="42.94332" lon="0.2863">
        <ele>1090.2</ele>
        <time>2021-05-29T08:57:24Z</time>
      </trkpt>
      <trkpt lat="42.94324" lon="0.28617">
        <ele>1089.8</ele>
        <time>2021-05-29T08:57:27Z</time>
      </trkpt>
      <trkpt lat="42.94321" lon="0.28613">
        <ele>1089.8</ele>
        <time>2021-05-29T08:57:28Z</time>
      </trkpt>
      <trkpt lat="42.9431" lon="0.28594">
        <ele>1089.2</ele>
        <time>2021-05-29T08:57:32Z</time>
      </trkpt>
      <trkpt lat="42.94305" lon="0.28583">
        <ele>1089</ele>
        <time>2021-05-29T08:57:34Z</time>
      </trkpt>
      <trkpt lat="42.94297" lon="0.28566">
        <ele>1088.8</ele>
        <time>2021-05-29T08:57:37Z</time>
      </trkpt>
      <trkpt lat="42.94295" lon="0.2856">
        <ele>1088.6</ele>
        <time>2021-05-29T08:57:38Z</time>
      </trkpt>
      <trkpt lat="42.94293" lon="0.28547">
        <ele>1088.4</ele>
        <time>2021-05-29T08:57:40Z</time>
      </trkpt>
      <trkpt lat="42.94287" lon="0.2853">
        <ele>1088</ele>
        <time>2021-05-29T08:57:43Z</time>
      </trkpt>
      <trkpt lat="42.94286" lon="0.28523">
        <ele>1088</ele>
        <time>2021-05-29T08:57:44Z</time>
      </trkpt>
      <trkpt lat="42.94282" lon="0.28503">
        <ele>1088</ele>
        <time>2021-05-29T08:57:47Z</time>
      </trkpt>
      <trkpt lat="42.94281" lon="0.28496">
        <ele>1087.8</ele>
        <time>2021-05-29T08:57:48Z</time>
      </trkpt>
      <trkpt lat="42.94281" lon="0.28489">
        <ele>1087.8</ele>
        <time>2021-05-29T08:57:49Z</time>
      </trkpt>
      <trkpt lat="42.94278" lon="0.28455">
        <ele>1087.2</ele>
        <time>2021-05-29T08:57:54Z</time>
      </trkpt>
      <trkpt lat="42.94275" lon="0.2845">
        <ele>1087</ele>
        <time>2021-05-29T08:57:55Z</time>
      </trkpt>
      <trkpt lat="42.94272" lon="0.28448">
        <ele>1086.8</ele>
        <time>2021-05-29T08:57:56Z</time>
      </trkpt>
      <trkpt lat="42.94267" lon="0.28447">
        <ele>1086.6</ele>
        <time>2021-05-29T08:57:57Z</time>
      </trkpt>
      <trkpt lat="42.94263" lon="0.2845">
        <ele>1086.4</ele>
        <time>2021-05-29T08:57:58Z</time>
      </trkpt>
      <trkpt lat="42.94249" lon="0.28461">
        <ele>1085.8</ele>
        <time>2021-05-29T08:58:01Z</time>
      </trkpt>
      <trkpt lat="42.94246" lon="0.28465">
        <ele>1085.8</ele>
        <time>2021-05-29T08:58:02Z</time>
      </trkpt>
      <trkpt lat="42.94242" lon="0.28468">
        <ele>1085.6</ele>
        <time>2021-05-29T08:58:03Z</time>
      </trkpt>
      <trkpt lat="42.94239" lon="0.28472">
        <ele>1085.6</ele>
        <time>2021-05-29T08:58:04Z</time>
      </trkpt>
      <trkpt lat="42.94236" lon="0.28475">
        <ele>1085.6</ele>
        <time>2021-05-29T08:58:05Z</time>
      </trkpt>
      <trkpt lat="42.94232" lon="0.28478">
        <ele>1085.6</ele>
        <time>2021-05-29T08:58:06Z</time>
      </trkpt>
      <trkpt lat="42.94229" lon="0.28481">
        <ele>1085.6</ele>
        <time>2021-05-29T08:58:07Z</time>
      </trkpt>
      <trkpt lat="42.94225" lon="0.28484">
        <ele>1085.6</ele>
        <time>2021-05-29T08:58:08Z</time>
      </trkpt>
      <trkpt lat="42.94222" lon="0.28487">
        <ele>1085.8</ele>
        <time>2021-05-29T08:58:09Z</time>
      </trkpt>
      <trkpt lat="42.94219" lon="0.28491">
        <ele>1085.8</ele>
        <time>2021-05-29T08:58:10Z</time>
      </trkpt>
      <trkpt lat="42.94217" lon="0.28494">
        <ele>1086</ele>
        <time>2021-05-29T08:58:11Z</time>
      </trkpt>
      <trkpt lat="42.94215" lon="0.28498">
        <ele>1086.2</ele>
        <time>2021-05-29T08:58:12Z</time>
      </trkpt>
      <trkpt lat="42.94215" lon="0.285">
        <ele>1086.4</ele>
        <time>2021-05-29T08:58:13Z</time>
      </trkpt>
      <trkpt lat="42.94216" lon="0.28502">
        <ele>1086.6</ele>
        <time>2021-05-29T08:58:14Z</time>
      </trkpt>
      <trkpt lat="42.94217" lon="0.28502">
        <ele>1086.8</ele>
        <time>2021-05-29T08:58:15Z</time>
      </trkpt>
      <trkpt lat="42.94217" lon="0.28502">
        <ele>1087</ele>
        <time>2021-05-29T08:58:16Z</time>
      </trkpt>
      <trkpt lat="42.94217" lon="0.28502">
        <ele>1087.4</ele>
        <time>2021-05-29T08:58:23Z</time>
      </trkpt>
      <trkpt lat="42.94217" lon="0.28502">
        <ele>1087.2</ele>
        <time>2021-05-29T08:58:28Z</time>
      </trkpt>
    </trkseg>
  </trk>
</gpx>